<?xml version="1.0" encoding="UTF-8" standalone="no" ?>
<gpx xmlns="http://www.topografix.com/GPX/1/1" xmlns:xsi="http://www.w3.org/2001/XMLSchema-instance" xsi:schemaLocation="http://www.topografix.com/GPX/1/1 http://www.topografix.com/GPX/1/1/gpx.xsd" version="1.1" creator="VisuGPX - https://www.visugpx.com">
  <metadata>
    <name>Tour d'Europe: étape 093</name>
    <desc><![CDATA[Étape 093]]></desc>
  </metadata>
  <trk>
    <name><![CDATA[Tour d'Europe: étape 093]]></name>
    <trkseg>
      <trkpt lat="64.26836" lon="21.04181">
        <ele>37.008105</ele>
        <time>2020-09-29T07:45:19.057Z</time>
      </trkpt>
      <trkpt lat="64.26857" lon="21.04295">
        <ele>37.008105</ele>
        <time>2020-09-29T07:51:32.448Z</time>
      </trkpt>
      <trkpt lat="64.26857" lon="21.04324">
        <ele>37.008105</ele>
        <time>2020-09-29T07:51:34.463Z</time>
      </trkpt>
      <trkpt lat="64.26858" lon="21.04358">
        <ele>37.008105</ele>
        <time>2020-09-29T07:51:36.447Z</time>
      </trkpt>
      <trkpt lat="64.26861" lon="21.0439">
        <ele>36.991468</ele>
        <time>2020-09-29T07:51:38.443Z</time>
      </trkpt>
      <trkpt lat="64.26866" lon="21.04416">
        <ele>36.953788</ele>
        <time>2020-09-29T07:51:40.462Z</time>
      </trkpt>
      <trkpt lat="64.26871" lon="21.04439">
        <ele>36.919965</ele>
        <time>2020-09-29T07:51:42.444Z</time>
      </trkpt>
      <trkpt lat="64.26874" lon="21.04462">
        <ele>36.88877</ele>
        <time>2020-09-29T07:51:44.450Z</time>
      </trkpt>
      <trkpt lat="64.26877" lon="21.04482">
        <ele>36.860623</ele>
        <time>2020-09-29T07:51:46.475Z</time>
      </trkpt>
      <trkpt lat="64.26879" lon="21.04503">
        <ele>36.831954</ele>
        <time>2020-09-29T07:51:48.445Z</time>
      </trkpt>
      <trkpt lat="64.26882" lon="21.04525">
        <ele>36.802802</ele>
        <time>2020-09-29T07:51:50.455Z</time>
      </trkpt>
      <trkpt lat="64.26886" lon="21.04554">
        <ele>36.762429</ele>
        <time>2020-09-29T07:51:53.468Z</time>
      </trkpt>
      <trkpt lat="64.26888" lon="21.04583">
        <ele>36.723859</ele>
        <time>2020-09-29T07:51:56.432Z</time>
      </trkpt>
      <trkpt lat="64.2689" lon="21.04609">
        <ele>36.688358</ele>
        <time>2020-09-29T07:51:59.496Z</time>
      </trkpt>
      <trkpt lat="64.26889" lon="21.0463">
        <ele>36.660667</ele>
        <time>2020-09-29T07:52:05.450Z</time>
      </trkpt>
      <trkpt lat="64.2688" lon="21.04644">
        <ele>36.629494</ele>
        <time>2020-09-29T07:52:11.430Z</time>
      </trkpt>
      <trkpt lat="64.26869" lon="21.04642">
        <ele>36.596048</ele>
        <time>2020-09-29T07:52:15.448Z</time>
      </trkpt>
      <trkpt lat="64.2686" lon="21.04638">
        <ele>36.567725</ele>
        <time>2020-09-29T07:52:18.440Z</time>
      </trkpt>
      <trkpt lat="64.26851" lon="21.04636">
        <ele>36.539052</ele>
        <time>2020-09-29T07:52:21.429Z</time>
      </trkpt>
      <trkpt lat="64.26841" lon="21.04634">
        <ele>36.508021</ele>
        <time>2020-09-29T07:52:24.440Z</time>
      </trkpt>
      <trkpt lat="64.2683" lon="21.04633">
        <ele>36.474985</ele>
        <time>2020-09-29T07:52:27.447Z</time>
      </trkpt>
      <trkpt lat="64.26818" lon="21.04632">
        <ele>36.715201</ele>
        <time>2020-09-29T07:52:30.446Z</time>
      </trkpt>
      <trkpt lat="64.26808" lon="21.04631">
        <ele>37.075677</ele>
        <time>2020-09-29T07:52:33.427Z</time>
      </trkpt>
      <trkpt lat="64.26797" lon="21.0463">
        <ele>37.43941</ele>
        <time>2020-09-29T07:52:36.445Z</time>
      </trkpt>
      <trkpt lat="64.26786" lon="21.04629">
        <ele>37.800015</ele>
        <time>2020-09-29T07:52:39.431Z</time>
      </trkpt>
      <trkpt lat="64.26774" lon="21.04627">
        <ele>38.194833</ele>
        <time>2020-09-29T07:52:42.474Z</time>
      </trkpt>
      <trkpt lat="64.26763" lon="21.04625">
        <ele>38.589064</ele>
        <time>2020-09-29T07:52:45.436Z</time>
      </trkpt>
      <trkpt lat="64.26751" lon="21.04624">
        <ele>38.986596</ele>
        <time>2020-09-29T07:52:48.436Z</time>
      </trkpt>
      <trkpt lat="64.26739" lon="21.04624">
        <ele>39.393925</ele>
        <time>2020-09-29T07:52:51.436Z</time>
      </trkpt>
      <trkpt lat="64.26727" lon="21.04624">
        <ele>39.794521</ele>
        <time>2020-09-29T07:52:54.451Z</time>
      </trkpt>
      <trkpt lat="64.26715" lon="21.04626">
        <ele>40.182027</ele>
        <time>2020-09-29T07:52:57.478Z</time>
      </trkpt>
      <trkpt lat="64.26705" lon="21.04627">
        <ele>40.54988</ele>
        <time>2020-09-29T07:53:00.443Z</time>
      </trkpt>
      <trkpt lat="64.26693" lon="21.04629">
        <ele>40.931492</ele>
        <time>2020-09-29T07:53:03.461Z</time>
      </trkpt>
      <trkpt lat="64.26682" lon="21.04631">
        <ele>41.302334</ele>
        <time>2020-09-29T07:53:06.432Z</time>
      </trkpt>
      <trkpt lat="64.26671" lon="21.04632">
        <ele>41.666375</ele>
        <time>2020-09-29T07:53:09.432Z</time>
      </trkpt>
      <trkpt lat="64.26661" lon="21.04632">
        <ele>42.013102</ele>
        <time>2020-09-29T07:53:12.462Z</time>
      </trkpt>
      <trkpt lat="64.26651" lon="21.04633">
        <ele>42.369941</ele>
        <time>2020-09-29T07:53:15.466Z</time>
      </trkpt>
      <trkpt lat="64.2664" lon="21.04632">
        <ele>42.828642</ele>
        <time>2020-09-29T07:53:18.434Z</time>
      </trkpt>
      <trkpt lat="64.26631" lon="21.04633">
        <ele>43.338926</ele>
        <time>2020-09-29T07:53:21.450Z</time>
      </trkpt>
      <trkpt lat="64.26621" lon="21.04634">
        <ele>43.86442</ele>
        <time>2020-09-29T07:53:24.464Z</time>
      </trkpt>
      <trkpt lat="64.2661" lon="21.04635">
        <ele>44.427141</ele>
        <time>2020-09-29T07:53:27.440Z</time>
      </trkpt>
      <trkpt lat="64.26601" lon="21.04635">
        <ele>44.91031</ele>
        <time>2020-09-29T07:53:30.452Z</time>
      </trkpt>
      <trkpt lat="64.26589" lon="21.04637">
        <ele>45.51111</ele>
        <time>2020-09-29T07:53:34.451Z</time>
      </trkpt>
      <trkpt lat="64.26577" lon="21.04639">
        <ele>46.147266</ele>
        <time>2020-09-29T07:53:38.446Z</time>
      </trkpt>
      <trkpt lat="64.26567" lon="21.04639">
        <ele>46.672487</ele>
        <time>2020-09-29T07:53:41.467Z</time>
      </trkpt>
      <trkpt lat="64.26558" lon="21.0464">
        <ele>47.176988</ele>
        <time>2020-09-29T07:53:44.448Z</time>
      </trkpt>
      <trkpt lat="64.26548" lon="21.04641">
        <ele>47.676328</ele>
        <time>2020-09-29T07:53:47.444Z</time>
      </trkpt>
      <trkpt lat="64.26539" lon="21.04642">
        <ele>48.175668</ele>
        <time>2020-09-29T07:53:50.442Z</time>
      </trkpt>
      <trkpt lat="64.26529" lon="21.04641">
        <ele>48.664089</ele>
        <time>2020-09-29T07:53:53.442Z</time>
      </trkpt>
      <trkpt lat="64.26519" lon="21.04643">
        <ele>49.190379</ele>
        <time>2020-09-29T07:53:56.466Z</time>
      </trkpt>
      <trkpt lat="64.26509" lon="21.04645">
        <ele>49.738862</ele>
        <time>2020-09-29T07:53:59.430Z</time>
      </trkpt>
      <trkpt lat="64.26498" lon="21.04646">
        <ele>50.301264</ele>
        <time>2020-09-29T07:54:02.433Z</time>
      </trkpt>
      <trkpt lat="64.26487" lon="21.04646">
        <ele>50.889467</ele>
        <time>2020-09-29T07:54:05.453Z</time>
      </trkpt>
      <trkpt lat="64.26476" lon="21.04646">
        <ele>51.48817</ele>
        <time>2020-09-29T07:54:08.468Z</time>
      </trkpt>
      <trkpt lat="64.26464" lon="21.04646">
        <ele>51.918878</ele>
        <time>2020-09-29T07:54:11.479Z</time>
      </trkpt>
      <trkpt lat="64.26452" lon="21.04645">
        <ele>51.725844</ele>
        <time>2020-09-29T07:54:14.459Z</time>
      </trkpt>
      <trkpt lat="64.26441" lon="21.04645">
        <ele>51.53288</ele>
        <time>2020-09-29T07:54:17.445Z</time>
      </trkpt>
      <trkpt lat="64.26429" lon="21.04648">
        <ele>51.327504</ele>
        <time>2020-09-29T07:54:20.430Z</time>
      </trkpt>
      <trkpt lat="64.26417" lon="21.04649">
        <ele>51.124158</ele>
        <time>2020-09-29T07:54:23.428Z</time>
      </trkpt>
      <trkpt lat="64.26404" lon="21.04651">
        <ele>50.903793</ele>
        <time>2020-09-29T07:54:26.445Z</time>
      </trkpt>
      <trkpt lat="64.26391" lon="21.04653">
        <ele>50.683383</ele>
        <time>2020-09-29T07:54:29.437Z</time>
      </trkpt>
      <trkpt lat="64.26382" lon="21.04654">
        <ele>50.529319</ele>
        <time>2020-09-29T07:54:31.454Z</time>
      </trkpt>
      <trkpt lat="64.26372" lon="21.04655">
        <ele>50.366556</ele>
        <time>2020-09-29T07:54:33.434Z</time>
      </trkpt>
      <trkpt lat="64.26362" lon="21.04657">
        <ele>50.200318</ele>
        <time>2020-09-29T07:54:35.430Z</time>
      </trkpt>
      <trkpt lat="64.26352" lon="21.04657">
        <ele>50.031055</ele>
        <time>2020-09-29T07:54:37.438Z</time>
      </trkpt>
      <trkpt lat="64.26342" lon="21.04659">
        <ele>49.854584</ele>
        <time>2020-09-29T07:54:39.431Z</time>
      </trkpt>
      <trkpt lat="64.26332" lon="21.0466">
        <ele>49.683558</ele>
        <time>2020-09-29T07:54:41.461Z</time>
      </trkpt>
      <trkpt lat="64.26322" lon="21.04661">
        <ele>49.517574</ele>
        <time>2020-09-29T07:54:43.445Z</time>
      </trkpt>
      <trkpt lat="64.26312" lon="21.04661">
        <ele>49.34329</ele>
        <time>2020-09-29T07:54:45.443Z</time>
      </trkpt>
      <trkpt lat="64.26302" lon="21.04661">
        <ele>49.168983</ele>
        <time>2020-09-29T07:54:47.431Z</time>
      </trkpt>
      <trkpt lat="64.26291" lon="21.0466">
        <ele>48.996379</ele>
        <time>2020-09-29T07:54:49.437Z</time>
      </trkpt>
      <trkpt lat="64.26281" lon="21.0466">
        <ele>48.841481</ele>
        <time>2020-09-29T07:54:51.433Z</time>
      </trkpt>
      <trkpt lat="64.26271" lon="21.04659">
        <ele>48.705995</ele>
        <time>2020-09-29T07:54:53.463Z</time>
      </trkpt>
      <trkpt lat="64.26261" lon="21.04658">
        <ele>48.567674</ele>
        <time>2020-09-29T07:54:55.443Z</time>
      </trkpt>
      <trkpt lat="64.26251" lon="21.04657">
        <ele>48.430827</ele>
        <time>2020-09-29T07:54:57.454Z</time>
      </trkpt>
      <trkpt lat="64.26242" lon="21.04657">
        <ele>48.293938</ele>
        <time>2020-09-29T07:54:59.442Z</time>
      </trkpt>
      <trkpt lat="64.26232" lon="21.04655">
        <ele>48.162451</ele>
        <time>2020-09-29T07:55:01.432Z</time>
      </trkpt>
      <trkpt lat="64.26222" lon="21.04654">
        <ele>48.024157</ele>
        <time>2020-09-29T07:55:03.426Z</time>
      </trkpt>
      <trkpt lat="64.26211" lon="21.04654">
        <ele>47.877643</ele>
        <time>2020-09-29T07:55:05.443Z</time>
      </trkpt>
      <trkpt lat="64.26201" lon="21.04652">
        <ele>47.732393</ele>
        <time>2020-09-29T07:55:07.445Z</time>
      </trkpt>
      <trkpt lat="64.2619" lon="21.04651">
        <ele>47.574793</ele>
        <time>2020-09-29T07:55:09.448Z</time>
      </trkpt>
      <trkpt lat="64.26177" lon="21.0465">
        <ele>47.407507</ele>
        <time>2020-09-29T07:55:11.458Z</time>
      </trkpt>
      <trkpt lat="64.26166" lon="21.04648">
        <ele>47.249448</ele>
        <time>2020-09-29T07:55:13.445Z</time>
      </trkpt>
      <trkpt lat="64.26155" lon="21.04647">
        <ele>47.09299</ele>
        <time>2020-09-29T07:55:15.454Z</time>
      </trkpt>
      <trkpt lat="64.26144" lon="21.04645">
        <ele>46.946182</ele>
        <time>2020-09-29T07:55:17.433Z</time>
      </trkpt>
      <trkpt lat="64.26134" lon="21.04643">
        <ele>46.799488</ele>
        <time>2020-09-29T07:55:19.428Z</time>
      </trkpt>
      <trkpt lat="64.26123" lon="21.04642">
        <ele>46.648745</ele>
        <time>2020-09-29T07:55:21.439Z</time>
      </trkpt>
      <trkpt lat="64.26112" lon="21.04642">
        <ele>46.505009</ele>
        <time>2020-09-29T07:55:23.426Z</time>
      </trkpt>
      <trkpt lat="64.26102" lon="21.04641">
        <ele>46.426957</ele>
        <time>2020-09-29T07:55:25.462Z</time>
      </trkpt>
      <trkpt lat="64.26092" lon="21.0464">
        <ele>46.411312</ele>
        <time>2020-09-29T07:55:27.442Z</time>
      </trkpt>
      <trkpt lat="64.26082" lon="21.04639">
        <ele>46.396276</ele>
        <time>2020-09-29T07:55:29.488Z</time>
      </trkpt>
      <trkpt lat="64.26073" lon="21.04637">
        <ele>46.381844</ele>
        <time>2020-09-29T07:55:31.440Z</time>
      </trkpt>
      <trkpt lat="64.2606" lon="21.04635">
        <ele>46.361169</ele>
        <time>2020-09-29T07:55:34.450Z</time>
      </trkpt>
      <trkpt lat="64.26047" lon="21.04632">
        <ele>46.340909</ele>
        <time>2020-09-29T07:55:37.451Z</time>
      </trkpt>
      <trkpt lat="64.26035" lon="21.0463">
        <ele>46.321901</ele>
        <time>2020-09-29T07:55:40.475Z</time>
      </trkpt>
      <trkpt lat="64.26023" lon="21.04627">
        <ele>46.303183</ele>
        <time>2020-09-29T07:55:43.443Z</time>
      </trkpt>
      <trkpt lat="64.26011" lon="21.04623">
        <ele>46.284147</ele>
        <time>2020-09-29T07:55:46.468Z</time>
      </trkpt>
      <trkpt lat="64.25999" lon="21.04622">
        <ele>46.265203</ele>
        <time>2020-09-29T07:55:49.451Z</time>
      </trkpt>
      <trkpt lat="64.25987" lon="21.04619">
        <ele>46.245871</ele>
        <time>2020-09-29T07:55:52.445Z</time>
      </trkpt>
      <trkpt lat="64.25973" lon="21.04618">
        <ele>46.225203</ele>
        <time>2020-09-29T07:55:55.452Z</time>
      </trkpt>
      <trkpt lat="64.2596" lon="21.04615">
        <ele>46.204949</ele>
        <time>2020-09-29T07:55:58.432Z</time>
      </trkpt>
      <trkpt lat="64.25947" lon="21.04611">
        <ele>46.184181</ele>
        <time>2020-09-29T07:56:01.470Z</time>
      </trkpt>
      <trkpt lat="64.25938" lon="21.04609">
        <ele>46.17017</ele>
        <time>2020-09-29T07:56:03.441Z</time>
      </trkpt>
      <trkpt lat="64.25926" lon="21.04606">
        <ele>46.165304</ele>
        <time>2020-09-29T07:56:06.436Z</time>
      </trkpt>
      <trkpt lat="64.25914" lon="21.04604">
        <ele>46.228439</ele>
        <time>2020-09-29T07:56:09.434Z</time>
      </trkpt>
      <trkpt lat="64.25901" lon="21.04601">
        <ele>46.297371</ele>
        <time>2020-09-29T07:56:12.472Z</time>
      </trkpt>
      <trkpt lat="64.25891" lon="21.046">
        <ele>46.344798</ele>
        <time>2020-09-29T07:56:14.438Z</time>
      </trkpt>
      <trkpt lat="64.25882" lon="21.04598">
        <ele>46.393887</ele>
        <time>2020-09-29T07:56:16.452Z</time>
      </trkpt>
      <trkpt lat="64.25873" lon="21.04596">
        <ele>46.443363</ele>
        <time>2020-09-29T07:56:18.434Z</time>
      </trkpt>
      <trkpt lat="64.25863" lon="21.04595">
        <ele>46.49134</ele>
        <time>2020-09-29T07:56:20.447Z</time>
      </trkpt>
      <trkpt lat="64.25854" lon="21.04593">
        <ele>46.542463</ele>
        <time>2020-09-29T07:56:22.447Z</time>
      </trkpt>
      <trkpt lat="64.25844" lon="21.04592">
        <ele>46.594504</ele>
        <time>2020-09-29T07:56:24.449Z</time>
      </trkpt>
      <trkpt lat="64.25833" lon="21.04591">
        <ele>46.648172</ele>
        <time>2020-09-29T07:56:26.434Z</time>
      </trkpt>
      <trkpt lat="64.25824" lon="21.04588">
        <ele>46.697845</ele>
        <time>2020-09-29T07:56:28.516Z</time>
      </trkpt>
      <trkpt lat="64.25814" lon="21.04587">
        <ele>46.746309</ele>
        <time>2020-09-29T07:56:30.436Z</time>
      </trkpt>
      <trkpt lat="64.25805" lon="21.04585">
        <ele>46.796896</ele>
        <time>2020-09-29T07:56:32.456Z</time>
      </trkpt>
      <trkpt lat="64.25795" lon="21.04583">
        <ele>46.845468</ele>
        <time>2020-09-29T07:56:34.462Z</time>
      </trkpt>
      <trkpt lat="64.25786" lon="21.04582">
        <ele>46.89497</ele>
        <time>2020-09-29T07:56:36.434Z</time>
      </trkpt>
      <trkpt lat="64.25776" lon="21.0458">
        <ele>46.945575</ele>
        <time>2020-09-29T07:56:38.432Z</time>
      </trkpt>
      <trkpt lat="64.25767" lon="21.04578">
        <ele>46.995661</ele>
        <time>2020-09-29T07:56:40.454Z</time>
      </trkpt>
      <trkpt lat="64.25757" lon="21.04576">
        <ele>47.044771</ele>
        <time>2020-09-29T07:56:42.446Z</time>
      </trkpt>
      <trkpt lat="64.25748" lon="21.04573">
        <ele>47.095271</ele>
        <time>2020-09-29T07:56:44.447Z</time>
      </trkpt>
      <trkpt lat="64.25735" lon="21.0457">
        <ele>47.202933</ele>
        <time>2020-09-29T07:56:47.467Z</time>
      </trkpt>
      <trkpt lat="64.25723" lon="21.04567">
        <ele>47.304667</ele>
        <time>2020-09-29T07:56:50.447Z</time>
      </trkpt>
      <trkpt lat="64.25711" lon="21.04565">
        <ele>47.406991</ele>
        <time>2020-09-29T07:56:53.465Z</time>
      </trkpt>
      <trkpt lat="64.25698" lon="21.04561">
        <ele>47.509023</ele>
        <time>2020-09-29T07:56:56.437Z</time>
      </trkpt>
      <trkpt lat="64.25687" lon="21.04557">
        <ele>47.607208</ele>
        <time>2020-09-29T07:56:59.461Z</time>
      </trkpt>
      <trkpt lat="64.25675" lon="21.04553">
        <ele>47.708672</ele>
        <time>2020-09-29T07:57:02.471Z</time>
      </trkpt>
      <trkpt lat="64.25663" lon="21.04549">
        <ele>47.808923</ele>
        <time>2020-09-29T07:57:05.435Z</time>
      </trkpt>
      <trkpt lat="64.25651" lon="21.04544">
        <ele>47.909289</ele>
        <time>2020-09-29T07:57:08.455Z</time>
      </trkpt>
      <trkpt lat="64.25639" lon="21.0454">
        <ele>48.007419</ele>
        <time>2020-09-29T07:57:11.472Z</time>
      </trkpt>
      <trkpt lat="64.25627" lon="21.04537">
        <ele>48.105896</ele>
        <time>2020-09-29T07:57:14.463Z</time>
      </trkpt>
      <trkpt lat="64.25616" lon="21.04533">
        <ele>48.202443</ele>
        <time>2020-09-29T07:57:17.482Z</time>
      </trkpt>
      <trkpt lat="64.25605" lon="21.04528">
        <ele>48.292019</ele>
        <time>2020-09-29T07:57:20.434Z</time>
      </trkpt>
      <trkpt lat="64.25595" lon="21.04523">
        <ele>48.377105</ele>
        <time>2020-09-29T07:57:23.440Z</time>
      </trkpt>
      <trkpt lat="64.25584" lon="21.04517">
        <ele>48.468743</ele>
        <time>2020-09-29T07:57:26.459Z</time>
      </trkpt>
      <trkpt lat="64.25574" lon="21.04511">
        <ele>48.55711</ele>
        <time>2020-09-29T07:57:29.438Z</time>
      </trkpt>
      <trkpt lat="64.25563" lon="21.04505">
        <ele>48.873319</ele>
        <time>2020-09-29T07:57:32.458Z</time>
      </trkpt>
      <trkpt lat="64.25553" lon="21.04497">
        <ele>49.260602</ele>
        <time>2020-09-29T07:57:35.458Z</time>
      </trkpt>
      <trkpt lat="64.25542" lon="21.0449">
        <ele>49.647816</ele>
        <time>2020-09-29T07:57:38.444Z</time>
      </trkpt>
      <trkpt lat="64.25532" lon="21.04478">
        <ele>50.03052</ele>
        <time>2020-09-29T07:57:41.459Z</time>
      </trkpt>
      <trkpt lat="64.25531" lon="21.04453">
        <ele>50.423909</ele>
        <time>2020-09-29T07:57:44.443Z</time>
      </trkpt>
      <trkpt lat="64.25537" lon="21.04429">
        <ele>50.845241</ele>
        <time>2020-09-29T07:57:47.449Z</time>
      </trkpt>
      <trkpt lat="64.25542" lon="21.04406">
        <ele>51.226613</ele>
        <time>2020-09-29T07:57:50.449Z</time>
      </trkpt>
      <trkpt lat="64.25546" lon="21.04387">
        <ele>51.553368</ele>
        <time>2020-09-29T07:57:53.450Z</time>
      </trkpt>
      <trkpt lat="64.25551" lon="21.04365">
        <ele>51.936318</ele>
        <time>2020-09-29T07:57:57.449Z</time>
      </trkpt>
      <trkpt lat="64.25556" lon="21.04346">
        <ele>52.274217</ele>
        <time>2020-09-29T07:58:01.461Z</time>
      </trkpt>
      <trkpt lat="64.25562" lon="21.04325">
        <ele>52.649425</ele>
        <time>2020-09-29T07:58:06.438Z</time>
      </trkpt>
      <trkpt lat="64.25568" lon="21.04304">
        <ele>53.03522</ele>
        <time>2020-09-29T07:58:11.484Z</time>
      </trkpt>
      <trkpt lat="64.25575" lon="21.04284">
        <ele>53.420681</ele>
        <time>2020-09-29T07:58:16.458Z</time>
      </trkpt>
      <trkpt lat="64.25582" lon="21.04263">
        <ele>53.811511</ele>
        <time>2020-09-29T07:58:20.450Z</time>
      </trkpt>
      <trkpt lat="64.25587" lon="21.04244">
        <ele>54.157656</ele>
        <time>2020-09-29T07:58:23.439Z</time>
      </trkpt>
      <trkpt lat="64.25593" lon="21.04225">
        <ele>54.511544</ele>
        <time>2020-09-29T07:58:26.446Z</time>
      </trkpt>
      <trkpt lat="64.256" lon="21.04205">
        <ele>54.862959</ele>
        <time>2020-09-29T07:58:29.434Z</time>
      </trkpt>
      <trkpt lat="64.25606" lon="21.04182">
        <ele>54.942404</ele>
        <time>2020-09-29T07:58:32.462Z</time>
      </trkpt>
      <trkpt lat="64.25613" lon="21.04158">
        <ele>55.025277</ele>
        <time>2020-09-29T07:58:35.434Z</time>
      </trkpt>
      <trkpt lat="64.2562" lon="21.04131">
        <ele>55.117309</ele>
        <time>2020-09-29T07:58:38.435Z</time>
      </trkpt>
      <trkpt lat="64.25626" lon="21.04112">
        <ele>55.184409</ele>
        <time>2020-09-29T07:58:40.439Z</time>
      </trkpt>
      <trkpt lat="64.2563" lon="21.04094">
        <ele>55.246879</ele>
        <time>2020-09-29T07:58:42.456Z</time>
      </trkpt>
      <trkpt lat="64.25637" lon="21.04069">
        <ele>55.330027</ele>
        <time>2020-09-29T07:58:45.431Z</time>
      </trkpt>
      <trkpt lat="64.25643" lon="21.04045">
        <ele>55.413626</ele>
        <time>2020-09-29T07:58:48.443Z</time>
      </trkpt>
      <trkpt lat="64.2565" lon="21.04023">
        <ele>55.491609</ele>
        <time>2020-09-29T07:58:51.434Z</time>
      </trkpt>
      <trkpt lat="64.25656" lon="21.04001">
        <ele>55.567515</ele>
        <time>2020-09-29T07:58:54.430Z</time>
      </trkpt>
      <trkpt lat="64.25661" lon="21.03981">
        <ele>55.636864</ele>
        <time>2020-09-29T07:58:57.430Z</time>
      </trkpt>
      <trkpt lat="64.25666" lon="21.03961">
        <ele>55.704118</ele>
        <time>2020-09-29T07:59:00.458Z</time>
      </trkpt>
      <trkpt lat="64.25671" lon="21.03943">
        <ele>55.764392</ele>
        <time>2020-09-29T07:59:03.490Z</time>
      </trkpt>
      <trkpt lat="64.25676" lon="21.03922">
        <ele>55.833623</ele>
        <time>2020-09-29T07:59:07.469Z</time>
      </trkpt>
      <trkpt lat="64.25681" lon="21.03901">
        <ele>55.907011</ele>
        <time>2020-09-29T07:59:11.465Z</time>
      </trkpt>
      <trkpt lat="64.25688" lon="21.03879">
        <ele>55.9812</ele>
        <time>2020-09-29T07:59:15.444Z</time>
      </trkpt>
      <trkpt lat="64.25692" lon="21.0386">
        <ele>56.045324</ele>
        <time>2020-09-29T07:59:18.441Z</time>
      </trkpt>
      <trkpt lat="64.25697" lon="21.03839">
        <ele>55.866525</ele>
        <time>2020-09-29T07:59:21.448Z</time>
      </trkpt>
      <trkpt lat="64.25702" lon="21.03815">
        <ele>55.569197</ele>
        <time>2020-09-29T07:59:24.451Z</time>
      </trkpt>
      <trkpt lat="64.25706" lon="21.03788">
        <ele>55.248374</ele>
        <time>2020-09-29T07:59:27.454Z</time>
      </trkpt>
      <trkpt lat="64.2571" lon="21.03768">
        <ele>55.008564</ele>
        <time>2020-09-29T07:59:29.474Z</time>
      </trkpt>
      <trkpt lat="64.25713" lon="21.03745">
        <ele>54.73386</ele>
        <time>2020-09-29T07:59:31.446Z</time>
      </trkpt>
      <trkpt lat="64.25717" lon="21.03717">
        <ele>54.401727</ele>
        <time>2020-09-29T07:59:33.466Z</time>
      </trkpt>
      <trkpt lat="64.25719" lon="21.03685">
        <ele>54.041989</ele>
        <time>2020-09-29T07:59:35.434Z</time>
      </trkpt>
      <trkpt lat="64.25721" lon="21.03649">
        <ele>53.638768</ele>
        <time>2020-09-29T07:59:37.441Z</time>
      </trkpt>
      <trkpt lat="64.25721" lon="21.03609">
        <ele>53.193193</ele>
        <time>2020-09-29T07:59:39.444Z</time>
      </trkpt>
      <trkpt lat="64.25721" lon="21.03588">
        <ele>52.954235</ele>
        <time>2020-09-29T07:59:40.445Z</time>
      </trkpt>
      <trkpt lat="64.25722" lon="21.03566">
        <ele>52.71077</ele>
        <time>2020-09-29T07:59:41.452Z</time>
      </trkpt>
      <trkpt lat="64.25722" lon="21.03544">
        <ele>52.463889</ele>
        <time>2020-09-29T07:59:42.437Z</time>
      </trkpt>
      <trkpt lat="64.25722" lon="21.03522">
        <ele>52.215999</ele>
        <time>2020-09-29T07:59:43.439Z</time>
      </trkpt>
      <trkpt lat="64.25721" lon="21.03501">
        <ele>51.983242</ele>
        <time>2020-09-29T07:59:44.438Z</time>
      </trkpt>
      <trkpt lat="64.2572" lon="21.03462">
        <ele>51.554974</ele>
        <time>2020-09-29T07:59:46.434Z</time>
      </trkpt>
      <trkpt lat="64.25718" lon="21.03429">
        <ele>50.903766</ele>
        <time>2020-09-29T07:59:48.433Z</time>
      </trkpt>
      <trkpt lat="64.25716" lon="21.03399">
        <ele>50.219604</ele>
        <time>2020-09-29T07:59:50.452Z</time>
      </trkpt>
      <trkpt lat="64.25713" lon="21.03371">
        <ele>49.574225</ele>
        <time>2020-09-29T07:59:52.452Z</time>
      </trkpt>
      <trkpt lat="64.2571" lon="21.03347">
        <ele>49.007273</ele>
        <time>2020-09-29T07:59:54.440Z</time>
      </trkpt>
      <trkpt lat="64.25708" lon="21.03325">
        <ele>48.494533</ele>
        <time>2020-09-29T07:59:56.454Z</time>
      </trkpt>
      <trkpt lat="64.25706" lon="21.03304">
        <ele>48.004281</ele>
        <time>2020-09-29T07:59:58.455Z</time>
      </trkpt>
      <trkpt lat="64.25703" lon="21.03283">
        <ele>47.527097</ele>
        <time>2020-09-29T08:00:00.454Z</time>
      </trkpt>
      <trkpt lat="64.25699" lon="21.03258">
        <ele>46.916899</ele>
        <time>2020-09-29T08:00:03.427Z</time>
      </trkpt>
      <trkpt lat="64.25696" lon="21.03238">
        <ele>46.417867</ele>
        <time>2020-09-29T08:00:06.444Z</time>
      </trkpt>
      <trkpt lat="64.25694" lon="21.03217">
        <ele>45.932727</ele>
        <time>2020-09-29T08:00:09.443Z</time>
      </trkpt>
      <trkpt lat="64.25693" lon="21.0319">
        <ele>45.319438</ele>
        <time>2020-09-29T08:00:12.456Z</time>
      </trkpt>
      <trkpt lat="64.25692" lon="21.03161">
        <ele>44.671304</ele>
        <time>2020-09-29T08:00:14.456Z</time>
      </trkpt>
      <trkpt lat="64.2569" lon="21.03128">
        <ele>43.922615</ele>
        <time>2020-09-29T08:00:16.445Z</time>
      </trkpt>
      <trkpt lat="64.2569" lon="21.03093">
        <ele>43.134505</ele>
        <time>2020-09-29T08:00:18.433Z</time>
      </trkpt>
      <trkpt lat="64.2569" lon="21.0306">
        <ele>42.373191</ele>
        <time>2020-09-29T08:00:20.460Z</time>
      </trkpt>
      <trkpt lat="64.25693" lon="21.03027">
        <ele>42.022989</ele>
        <time>2020-09-29T08:00:22.442Z</time>
      </trkpt>
      <trkpt lat="64.25696" lon="21.02997">
        <ele>41.940425</ele>
        <time>2020-09-29T08:00:24.479Z</time>
      </trkpt>
      <trkpt lat="64.25701" lon="21.02969">
        <ele>41.861438</ele>
        <time>2020-09-29T08:00:26.445Z</time>
      </trkpt>
      <trkpt lat="64.25706" lon="21.02942">
        <ele>41.78372</ele>
        <time>2020-09-29T08:00:28.444Z</time>
      </trkpt>
      <trkpt lat="64.25712" lon="21.02916">
        <ele>41.709493</ele>
        <time>2020-09-29T08:00:30.455Z</time>
      </trkpt>
      <trkpt lat="64.25717" lon="21.02893">
        <ele>41.64139</ele>
        <time>2020-09-29T08:00:32.468Z</time>
      </trkpt>
      <trkpt lat="64.25722" lon="21.0287">
        <ele>41.573672</ele>
        <time>2020-09-29T08:00:34.449Z</time>
      </trkpt>
      <trkpt lat="64.25727" lon="21.02848">
        <ele>41.508596</ele>
        <time>2020-09-29T08:00:36.463Z</time>
      </trkpt>
      <trkpt lat="64.25732" lon="21.02827">
        <ele>41.446705</ele>
        <time>2020-09-29T08:00:38.434Z</time>
      </trkpt>
      <trkpt lat="64.25735" lon="21.02808">
        <ele>41.391794</ele>
        <time>2020-09-29T08:00:40.436Z</time>
      </trkpt>
      <trkpt lat="64.25738" lon="21.02788">
        <ele>41.337669</ele>
        <time>2020-09-29T08:00:42.444Z</time>
      </trkpt>
      <trkpt lat="64.25742" lon="21.02761">
        <ele>41.262356</ele>
        <time>2020-09-29T08:00:45.450Z</time>
      </trkpt>
      <trkpt lat="64.25746" lon="21.02737">
        <ele>41.195218</ele>
        <time>2020-09-29T08:00:48.453Z</time>
      </trkpt>
      <trkpt lat="64.2575" lon="21.02714">
        <ele>41.129702</ele>
        <time>2020-09-29T08:00:51.437Z</time>
      </trkpt>
      <trkpt lat="64.25753" lon="21.0269">
        <ele>41.064585</ele>
        <time>2020-09-29T08:00:54.444Z</time>
      </trkpt>
      <trkpt lat="64.25755" lon="21.02668">
        <ele>41.007355</ele>
        <time>2020-09-29T08:00:57.454Z</time>
      </trkpt>
      <trkpt lat="64.25757" lon="21.02648">
        <ele>41.06973</ele>
        <time>2020-09-29T08:01:00.443Z</time>
      </trkpt>
      <trkpt lat="64.25758" lon="21.02622">
        <ele>41.206986</ele>
        <time>2020-09-29T08:01:04.440Z</time>
      </trkpt>
      <trkpt lat="64.25756" lon="21.02596">
        <ele>41.339836</ele>
        <time>2020-09-29T08:01:08.459Z</time>
      </trkpt>
      <trkpt lat="64.25755" lon="21.02573">
        <ele>41.464861</ele>
        <time>2020-09-29T08:01:12.432Z</time>
      </trkpt>
      <trkpt lat="64.25754" lon="21.02549">
        <ele>41.590262</ele>
        <time>2020-09-29T08:01:16.462Z</time>
      </trkpt>
      <trkpt lat="64.25753" lon="21.02525">
        <ele>41.716453</ele>
        <time>2020-09-29T08:01:21.431Z</time>
      </trkpt>
      <trkpt lat="64.25751" lon="21.02501">
        <ele>41.843366</ele>
        <time>2020-09-29T08:01:25.433Z</time>
      </trkpt>
      <trkpt lat="64.25751" lon="21.02474">
        <ele>41.986365</ele>
        <time>2020-09-29T08:01:29.431Z</time>
      </trkpt>
      <trkpt lat="64.2575" lon="21.02451">
        <ele>42.109541</ele>
        <time>2020-09-29T08:01:32.483Z</time>
      </trkpt>
      <trkpt lat="64.25749" lon="21.02422">
        <ele>42.25929</ele>
        <time>2020-09-29T08:01:35.445Z</time>
      </trkpt>
      <trkpt lat="64.25748" lon="21.02399">
        <ele>42.38508</ele>
        <time>2020-09-29T08:01:37.432Z</time>
      </trkpt>
      <trkpt lat="64.25747" lon="21.02369">
        <ele>42.542164</ele>
        <time>2020-09-29T08:01:39.440Z</time>
      </trkpt>
      <trkpt lat="64.25746" lon="21.02338">
        <ele>42.705725</ele>
        <time>2020-09-29T08:01:41.430Z</time>
      </trkpt>
      <trkpt lat="64.25745" lon="21.02307">
        <ele>42.865631</ele>
        <time>2020-09-29T08:01:43.471Z</time>
      </trkpt>
      <trkpt lat="64.25744" lon="21.0228">
        <ele>43.012457</ele>
        <time>2020-09-29T08:01:45.436Z</time>
      </trkpt>
      <trkpt lat="64.25742" lon="21.02255">
        <ele>43.141287</ele>
        <time>2020-09-29T08:01:47.439Z</time>
      </trkpt>
      <trkpt lat="64.25741" lon="21.02233">
        <ele>43.288835</ele>
        <time>2020-09-29T08:01:49.459Z</time>
      </trkpt>
      <trkpt lat="64.2574" lon="21.02213">
        <ele>43.435229</ele>
        <time>2020-09-29T08:01:51.434Z</time>
      </trkpt>
      <trkpt lat="64.25738" lon="21.02183">
        <ele>43.647229</ele>
        <time>2020-09-29T08:01:54.446Z</time>
      </trkpt>
      <trkpt lat="64.25737" lon="21.02155">
        <ele>43.847291</ele>
        <time>2020-09-29T08:01:57.467Z</time>
      </trkpt>
      <trkpt lat="64.25735" lon="21.02128">
        <ele>44.035829</ele>
        <time>2020-09-29T08:02:00.451Z</time>
      </trkpt>
      <trkpt lat="64.25735" lon="21.02102">
        <ele>44.217905</ele>
        <time>2020-09-29T08:02:03.443Z</time>
      </trkpt>
      <trkpt lat="64.25733" lon="21.02077">
        <ele>44.399799</ele>
        <time>2020-09-29T08:02:06.424Z</time>
      </trkpt>
      <trkpt lat="64.25733" lon="21.0205">
        <ele>44.591117</ele>
        <time>2020-09-29T08:02:09.432Z</time>
      </trkpt>
      <trkpt lat="64.25732" lon="21.02024">
        <ele>44.77202</ele>
        <time>2020-09-29T08:02:12.445Z</time>
      </trkpt>
      <trkpt lat="64.25732" lon="21.01998">
        <ele>44.955883</ele>
        <time>2020-09-29T08:02:15.447Z</time>
      </trkpt>
      <trkpt lat="64.25731" lon="21.0197">
        <ele>45.149426</ele>
        <time>2020-09-29T08:02:18.442Z</time>
      </trkpt>
      <trkpt lat="64.25729" lon="21.01943">
        <ele>45.346199</ele>
        <time>2020-09-29T08:02:21.448Z</time>
      </trkpt>
      <trkpt lat="64.25727" lon="21.01916">
        <ele>45.53858</ele>
        <time>2020-09-29T08:02:24.448Z</time>
      </trkpt>
      <trkpt lat="64.25724" lon="21.01891">
        <ele>45.717873</ele>
        <time>2020-09-29T08:02:27.445Z</time>
      </trkpt>
      <trkpt lat="64.25721" lon="21.01867">
        <ele>45.899892</ele>
        <time>2020-09-29T08:02:30.444Z</time>
      </trkpt>
      <trkpt lat="64.25718" lon="21.01843">
        <ele>46.073554</ele>
        <time>2020-09-29T08:02:33.442Z</time>
      </trkpt>
      <trkpt lat="64.25713" lon="21.01818">
        <ele>46.098224</ele>
        <time>2020-09-29T08:02:36.448Z</time>
      </trkpt>
      <trkpt lat="64.25709" lon="21.01795">
        <ele>46.111983</ele>
        <time>2020-09-29T08:02:39.452Z</time>
      </trkpt>
      <trkpt lat="64.25703" lon="21.01772">
        <ele>46.125822</ele>
        <time>2020-09-29T08:02:42.440Z</time>
      </trkpt>
      <trkpt lat="64.25695" lon="21.01753">
        <ele>46.139813</ele>
        <time>2020-09-29T08:02:45.441Z</time>
      </trkpt>
      <trkpt lat="64.25686" lon="21.01734">
        <ele>46.154998</ele>
        <time>2020-09-29T08:02:48.443Z</time>
      </trkpt>
      <trkpt lat="64.25677" lon="21.01714">
        <ele>46.170403</ele>
        <time>2020-09-29T08:02:51.444Z</time>
      </trkpt>
      <trkpt lat="64.25667" lon="21.01695">
        <ele>46.1859</ele>
        <time>2020-09-29T08:02:54.435Z</time>
      </trkpt>
      <trkpt lat="64.25658" lon="21.01677">
        <ele>46.201351</ele>
        <time>2020-09-29T08:02:57.431Z</time>
      </trkpt>
      <trkpt lat="64.25651" lon="21.01663">
        <ele>46.212397</ele>
        <time>2020-09-29T08:02:59.469Z</time>
      </trkpt>
      <trkpt lat="64.25644" lon="21.01648">
        <ele>46.22388</ele>
        <time>2020-09-29T08:03:01.448Z</time>
      </trkpt>
      <trkpt lat="64.25637" lon="21.01633">
        <ele>46.236052</ele>
        <time>2020-09-29T08:03:03.467Z</time>
      </trkpt>
      <trkpt lat="64.25629" lon="21.01618">
        <ele>46.248677</ele>
        <time>2020-09-29T08:03:05.432Z</time>
      </trkpt>
      <trkpt lat="64.25621" lon="21.01602">
        <ele>46.261175</ele>
        <time>2020-09-29T08:03:07.448Z</time>
      </trkpt>
      <trkpt lat="64.25614" lon="21.01587">
        <ele>46.273615</ele>
        <time>2020-09-29T08:03:09.449Z</time>
      </trkpt>
      <trkpt lat="64.25606" lon="21.01573">
        <ele>46.285442</ele>
        <time>2020-09-29T08:03:11.449Z</time>
      </trkpt>
      <trkpt lat="64.25596" lon="21.01555">
        <ele>46.301526</ele>
        <time>2020-09-29T08:03:14.441Z</time>
      </trkpt>
      <trkpt lat="64.25586" lon="21.01537">
        <ele>46.355633</ele>
        <time>2020-09-29T08:03:17.459Z</time>
      </trkpt>
      <trkpt lat="64.25577" lon="21.01519">
        <ele>46.422218</ele>
        <time>2020-09-29T08:03:20.447Z</time>
      </trkpt>
      <trkpt lat="64.25567" lon="21.01501">
        <ele>46.489637</ele>
        <time>2020-09-29T08:03:23.434Z</time>
      </trkpt>
      <trkpt lat="64.25558" lon="21.01483">
        <ele>46.553955</ele>
        <time>2020-09-29T08:03:26.441Z</time>
      </trkpt>
      <trkpt lat="64.2555" lon="21.01466">
        <ele>46.615636</ele>
        <time>2020-09-29T08:03:29.470Z</time>
      </trkpt>
      <trkpt lat="64.25542" lon="21.01451">
        <ele>46.673251</ele>
        <time>2020-09-29T08:03:32.492Z</time>
      </trkpt>
      <trkpt lat="64.25534" lon="21.01436">
        <ele>46.727118</ele>
        <time>2020-09-29T08:03:35.445Z</time>
      </trkpt>
      <trkpt lat="64.25527" lon="21.01423">
        <ele>46.778938</ele>
        <time>2020-09-29T08:03:38.473Z</time>
      </trkpt>
      <trkpt lat="64.25519" lon="21.01408">
        <ele>46.835091</ele>
        <time>2020-09-29T08:03:42.428Z</time>
      </trkpt>
      <trkpt lat="64.25511" lon="21.01394">
        <ele>46.890831</ele>
        <time>2020-09-29T08:03:47.457Z</time>
      </trkpt>
      <trkpt lat="64.25503" lon="21.01378">
        <ele>46.948671</ele>
        <time>2020-09-29T08:03:52.446Z</time>
      </trkpt>
      <trkpt lat="64.25496" lon="21.01362">
        <ele>47.000923</ele>
        <time>2020-09-29T08:03:56.442Z</time>
      </trkpt>
      <trkpt lat="64.25488" lon="21.01348">
        <ele>47.057572</ele>
        <time>2020-09-29T08:04:00.444Z</time>
      </trkpt>
      <trkpt lat="64.25478" lon="21.01331">
        <ele>47.123855</ele>
        <time>2020-09-29T08:04:04.446Z</time>
      </trkpt>
      <trkpt lat="64.2547" lon="21.01312">
        <ele>47.187804</ele>
        <time>2020-09-29T08:04:07.451Z</time>
      </trkpt>
      <trkpt lat="64.25459" lon="21.01293">
        <ele>47.261634</ele>
        <time>2020-09-29T08:04:10.470Z</time>
      </trkpt>
      <trkpt lat="64.25451" lon="21.01278">
        <ele>47.21155</ele>
        <time>2020-09-29T08:04:12.454Z</time>
      </trkpt>
      <trkpt lat="64.25443" lon="21.01262">
        <ele>47.03878</ele>
        <time>2020-09-29T08:04:14.444Z</time>
      </trkpt>
      <trkpt lat="64.25435" lon="21.01247">
        <ele>46.866038</ele>
        <time>2020-09-29T08:04:16.439Z</time>
      </trkpt>
      <trkpt lat="64.25426" lon="21.01232">
        <ele>46.697461</ele>
        <time>2020-09-29T08:04:18.449Z</time>
      </trkpt>
      <trkpt lat="64.25418" lon="21.01216">
        <ele>46.525415</ele>
        <time>2020-09-29T08:04:20.462Z</time>
      </trkpt>
      <trkpt lat="64.25411" lon="21.01201">
        <ele>46.362977</ele>
        <time>2020-09-29T08:04:22.464Z</time>
      </trkpt>
      <trkpt lat="64.25403" lon="21.01186">
        <ele>46.205326</ele>
        <time>2020-09-29T08:04:24.482Z</time>
      </trkpt>
      <trkpt lat="64.25397" lon="21.01169">
        <ele>46.0495</ele>
        <time>2020-09-29T08:04:26.442Z</time>
      </trkpt>
      <trkpt lat="64.25389" lon="21.01155">
        <ele>45.891324</ele>
        <time>2020-09-29T08:04:28.448Z</time>
      </trkpt>
      <trkpt lat="64.25382" lon="21.0114">
        <ele>45.737557</ele>
        <time>2020-09-29T08:04:30.451Z</time>
      </trkpt>
      <trkpt lat="64.25375" lon="21.01126">
        <ele>45.586233</ele>
        <time>2020-09-29T08:04:32.483Z</time>
      </trkpt>
      <trkpt lat="64.25368" lon="21.01112">
        <ele>45.436857</ele>
        <time>2020-09-29T08:04:34.435Z</time>
      </trkpt>
      <trkpt lat="64.25361" lon="21.01098">
        <ele>45.290079</ele>
        <time>2020-09-29T08:04:36.450Z</time>
      </trkpt>
      <trkpt lat="64.25351" lon="21.01077">
        <ele>45.073958</ele>
        <time>2020-09-29T08:04:39.455Z</time>
      </trkpt>
      <trkpt lat="64.25344" lon="21.01063">
        <ele>44.924306</ele>
        <time>2020-09-29T08:04:41.444Z</time>
      </trkpt>
      <trkpt lat="64.25337" lon="21.01049">
        <ele>44.77525</ele>
        <time>2020-09-29T08:04:43.467Z</time>
      </trkpt>
      <trkpt lat="64.2533" lon="21.01037">
        <ele>44.630157</ele>
        <time>2020-09-29T08:04:45.451Z</time>
      </trkpt>
      <trkpt lat="64.25323" lon="21.01024">
        <ele>44.482937</ele>
        <time>2020-09-29T08:04:47.444Z</time>
      </trkpt>
      <trkpt lat="64.25315" lon="21.01012">
        <ele>44.63065</ele>
        <time>2020-09-29T08:04:49.443Z</time>
      </trkpt>
      <trkpt lat="64.25308" lon="21.01">
        <ele>45.194397</ele>
        <time>2020-09-29T08:04:51.439Z</time>
      </trkpt>
      <trkpt lat="64.25297" lon="21.00986">
        <ele>45.982867</ele>
        <time>2020-09-29T08:04:54.446Z</time>
      </trkpt>
      <trkpt lat="64.25286" lon="21.00972">
        <ele>46.782304</ele>
        <time>2020-09-29T08:04:57.443Z</time>
      </trkpt>
      <trkpt lat="64.25275" lon="21.00959">
        <ele>47.556159</ele>
        <time>2020-09-29T08:05:00.465Z</time>
      </trkpt>
      <trkpt lat="64.25263" lon="21.00947">
        <ele>48.348194</ele>
        <time>2020-09-29T08:05:03.467Z</time>
      </trkpt>
      <trkpt lat="64.25253" lon="21.00938">
        <ele>49.023621</ele>
        <time>2020-09-29T08:05:06.459Z</time>
      </trkpt>
      <trkpt lat="64.25244" lon="21.00929">
        <ele>49.633492</ele>
        <time>2020-09-29T08:05:09.444Z</time>
      </trkpt>
      <trkpt lat="64.25236" lon="21.0092">
        <ele>50.22288</ele>
        <time>2020-09-29T08:05:13.433Z</time>
      </trkpt>
      <trkpt lat="64.25227" lon="21.00911">
        <ele>50.795152</ele>
        <time>2020-09-29T08:05:18.440Z</time>
      </trkpt>
      <trkpt lat="64.25218" lon="21.00898">
        <ele>51.47773</ele>
        <time>2020-09-29T08:05:24.448Z</time>
      </trkpt>
      <trkpt lat="64.2521" lon="21.00885">
        <ele>52.107962</ele>
        <time>2020-09-29T08:05:29.436Z</time>
      </trkpt>
      <trkpt lat="64.25201" lon="21.00875">
        <ele>52.72581</ele>
        <time>2020-09-29T08:05:34.448Z</time>
      </trkpt>
      <trkpt lat="64.25191" lon="21.00865">
        <ele>53.393778</ele>
        <time>2020-09-29T08:05:39.431Z</time>
      </trkpt>
      <trkpt lat="64.25183" lon="21.00854">
        <ele>53.962361</ele>
        <time>2020-09-29T08:05:43.447Z</time>
      </trkpt>
      <trkpt lat="64.25174" lon="21.00845">
        <ele>54.605715</ele>
        <time>2020-09-29T08:05:48.451Z</time>
      </trkpt>
      <trkpt lat="64.25164" lon="21.00853">
        <ele>55.239214</ele>
        <time>2020-09-29T08:05:53.442Z</time>
      </trkpt>
      <trkpt lat="64.25154" lon="21.00862">
        <ele>55.54353</ele>
        <time>2020-09-29T08:05:57.468Z</time>
      </trkpt>
      <trkpt lat="64.25143" lon="21.00872">
        <ele>55.181576</ele>
        <time>2020-09-29T08:06:01.437Z</time>
      </trkpt>
      <trkpt lat="64.25134" lon="21.00881">
        <ele>54.863783</ele>
        <time>2020-09-29T08:06:04.432Z</time>
      </trkpt>
      <trkpt lat="64.25123" lon="21.00892">
        <ele>54.505206</ele>
        <time>2020-09-29T08:06:07.430Z</time>
      </trkpt>
      <trkpt lat="64.25114" lon="21.00901">
        <ele>54.221039</ele>
        <time>2020-09-29T08:06:09.446Z</time>
      </trkpt>
      <trkpt lat="64.25104" lon="21.00911">
        <ele>53.894871</ele>
        <time>2020-09-29T08:06:11.443Z</time>
      </trkpt>
      <trkpt lat="64.25094" lon="21.00921">
        <ele>53.555619</ele>
        <time>2020-09-29T08:06:13.437Z</time>
      </trkpt>
      <trkpt lat="64.25083" lon="21.0093">
        <ele>53.19081</ele>
        <time>2020-09-29T08:06:15.514Z</time>
      </trkpt>
      <trkpt lat="64.25071" lon="21.00942">
        <ele>52.811162</ele>
        <time>2020-09-29T08:06:17.443Z</time>
      </trkpt>
      <trkpt lat="64.2506" lon="21.00954">
        <ele>52.432205</ele>
        <time>2020-09-29T08:06:19.432Z</time>
      </trkpt>
      <trkpt lat="64.25048" lon="21.00966">
        <ele>52.043834</ele>
        <time>2020-09-29T08:06:21.440Z</time>
      </trkpt>
      <trkpt lat="64.25028" lon="21.00986">
        <ele>51.381234</ele>
        <time>2020-09-29T08:06:24.447Z</time>
      </trkpt>
      <trkpt lat="64.25014" lon="21.00999">
        <ele>50.904007</ele>
        <time>2020-09-29T08:06:26.464Z</time>
      </trkpt>
      <trkpt lat="64.25" lon="21.01013">
        <ele>50.455872</ele>
        <time>2020-09-29T08:06:28.458Z</time>
      </trkpt>
      <trkpt lat="64.24988" lon="21.01024">
        <ele>50.00192</ele>
        <time>2020-09-29T08:06:30.459Z</time>
      </trkpt>
      <trkpt lat="64.24977" lon="21.01035">
        <ele>49.485291</ele>
        <time>2020-09-29T08:06:32.458Z</time>
      </trkpt>
      <trkpt lat="64.24966" lon="21.01045">
        <ele>49.001839</ele>
        <time>2020-09-29T08:06:34.439Z</time>
      </trkpt>
      <trkpt lat="64.24957" lon="21.01054">
        <ele>48.558255</ele>
        <time>2020-09-29T08:06:36.447Z</time>
      </trkpt>
      <trkpt lat="64.24947" lon="21.01062">
        <ele>48.129915</ele>
        <time>2020-09-29T08:06:38.461Z</time>
      </trkpt>
      <trkpt lat="64.24937" lon="21.0107">
        <ele>47.677254</ele>
        <time>2020-09-29T08:06:40.446Z</time>
      </trkpt>
      <trkpt lat="64.24927" lon="21.01078">
        <ele>47.216355</ele>
        <time>2020-09-29T08:06:42.450Z</time>
      </trkpt>
      <trkpt lat="64.24918" lon="21.01087">
        <ele>46.788857</ele>
        <time>2020-09-29T08:06:44.471Z</time>
      </trkpt>
      <trkpt lat="64.24909" lon="21.01096">
        <ele>46.390663</ele>
        <time>2020-09-29T08:06:46.448Z</time>
      </trkpt>
      <trkpt lat="64.24901" lon="21.01105">
        <ele>45.990996</ele>
        <time>2020-09-29T08:06:48.462Z</time>
      </trkpt>
      <trkpt lat="64.24891" lon="21.01113">
        <ele>45.559333</ele>
        <time>2020-09-29T08:06:50.435Z</time>
      </trkpt>
      <trkpt lat="64.24882" lon="21.01122">
        <ele>45.14331</ele>
        <time>2020-09-29T08:06:52.438Z</time>
      </trkpt>
      <trkpt lat="64.24873" lon="21.0113">
        <ele>44.741203</ele>
        <time>2020-09-29T08:06:54.448Z</time>
      </trkpt>
      <trkpt lat="64.24865" lon="21.01138">
        <ele>44.353729</ele>
        <time>2020-09-29T08:06:56.450Z</time>
      </trkpt>
      <trkpt lat="64.24853" lon="21.01149">
        <ele>43.790963</ele>
        <time>2020-09-29T08:06:59.440Z</time>
      </trkpt>
      <trkpt lat="64.24841" lon="21.0116">
        <ele>43.237468</ele>
        <time>2020-09-29T08:07:02.487Z</time>
      </trkpt>
      <trkpt lat="64.24829" lon="21.01171">
        <ele>42.701152</ele>
        <time>2020-09-29T08:07:05.429Z</time>
      </trkpt>
      <trkpt lat="64.24818" lon="21.01182">
        <ele>42.513978</ele>
        <time>2020-09-29T08:07:08.444Z</time>
      </trkpt>
      <trkpt lat="64.24807" lon="21.01193">
        <ele>42.466445</ele>
        <time>2020-09-29T08:07:11.434Z</time>
      </trkpt>
      <trkpt lat="64.24796" lon="21.01203">
        <ele>42.421321</ele>
        <time>2020-09-29T08:07:14.452Z</time>
      </trkpt>
      <trkpt lat="64.24786" lon="21.01213">
        <ele>42.377013</ele>
        <time>2020-09-29T08:07:17.444Z</time>
      </trkpt>
      <trkpt lat="64.24775" lon="21.01223">
        <ele>42.330986</ele>
        <time>2020-09-29T08:07:20.475Z</time>
      </trkpt>
      <trkpt lat="64.24763" lon="21.01235">
        <ele>42.280879</ele>
        <time>2020-09-29T08:07:23.443Z</time>
      </trkpt>
      <trkpt lat="64.24751" lon="21.01246">
        <ele>42.229646</ele>
        <time>2020-09-29T08:07:26.473Z</time>
      </trkpt>
      <trkpt lat="64.24739" lon="21.01257">
        <ele>42.179244</ele>
        <time>2020-09-29T08:07:29.463Z</time>
      </trkpt>
      <trkpt lat="64.24727" lon="21.01268">
        <ele>42.12936</ele>
        <time>2020-09-29T08:07:32.439Z</time>
      </trkpt>
      <trkpt lat="64.24716" lon="21.01279">
        <ele>42.081169</ele>
        <time>2020-09-29T08:07:35.466Z</time>
      </trkpt>
      <trkpt lat="64.24705" lon="21.0129">
        <ele>42.032777</ele>
        <time>2020-09-29T08:07:38.451Z</time>
      </trkpt>
      <trkpt lat="64.24693" lon="21.01301">
        <ele>41.982442</ele>
        <time>2020-09-29T08:07:41.466Z</time>
      </trkpt>
      <trkpt lat="64.24681" lon="21.01312">
        <ele>41.931271</ele>
        <time>2020-09-29T08:07:44.443Z</time>
      </trkpt>
      <trkpt lat="64.24669" lon="21.01323">
        <ele>41.880078</ele>
        <time>2020-09-29T08:07:47.429Z</time>
      </trkpt>
      <trkpt lat="64.24657" lon="21.01335">
        <ele>41.846423</ele>
        <time>2020-09-29T08:07:50.448Z</time>
      </trkpt>
      <trkpt lat="64.24645" lon="21.01345">
        <ele>41.878551</ele>
        <time>2020-09-29T08:07:53.456Z</time>
      </trkpt>
      <trkpt lat="64.24634" lon="21.01355">
        <ele>41.909132</ele>
        <time>2020-09-29T08:07:56.445Z</time>
      </trkpt>
      <trkpt lat="64.24623" lon="21.01367">
        <ele>41.939506</ele>
        <time>2020-09-29T08:07:59.445Z</time>
      </trkpt>
      <trkpt lat="64.24612" lon="21.01377">
        <ele>41.97041</ele>
        <time>2020-09-29T08:08:02.441Z</time>
      </trkpt>
      <trkpt lat="64.24601" lon="21.01387">
        <ele>42.00166</ele>
        <time>2020-09-29T08:08:05.433Z</time>
      </trkpt>
      <trkpt lat="64.2459" lon="21.01397">
        <ele>42.032271</ele>
        <time>2020-09-29T08:08:08.455Z</time>
      </trkpt>
      <trkpt lat="64.24578" lon="21.01408">
        <ele>42.064083</ele>
        <time>2020-09-29T08:08:11.442Z</time>
      </trkpt>
      <trkpt lat="64.24567" lon="21.01418">
        <ele>42.095574</ele>
        <time>2020-09-29T08:08:14.435Z</time>
      </trkpt>
      <trkpt lat="64.24556" lon="21.01429">
        <ele>42.126653</ele>
        <time>2020-09-29T08:08:17.447Z</time>
      </trkpt>
      <trkpt lat="64.24545" lon="21.0144">
        <ele>42.15704</ele>
        <time>2020-09-29T08:08:20.461Z</time>
      </trkpt>
      <trkpt lat="64.24534" lon="21.01449">
        <ele>42.185293</ele>
        <time>2020-09-29T08:08:23.454Z</time>
      </trkpt>
      <trkpt lat="64.24524" lon="21.01458">
        <ele>42.213747</ele>
        <time>2020-09-29T08:08:26.443Z</time>
      </trkpt>
      <trkpt lat="64.24515" lon="21.01468">
        <ele>42.240947</ele>
        <time>2020-09-29T08:08:29.439Z</time>
      </trkpt>
      <trkpt lat="64.24505" lon="21.01478">
        <ele>42.267354</ele>
        <time>2020-09-29T08:08:32.439Z</time>
      </trkpt>
      <trkpt lat="64.24494" lon="21.01488">
        <ele>42.297856</ele>
        <time>2020-09-29T08:08:35.446Z</time>
      </trkpt>
      <trkpt lat="64.24482" lon="21.01498">
        <ele>42.320346</ele>
        <time>2020-09-29T08:08:38.435Z</time>
      </trkpt>
      <trkpt lat="64.24469" lon="21.01507">
        <ele>42.341971</ele>
        <time>2020-09-29T08:08:41.435Z</time>
      </trkpt>
      <trkpt lat="64.2446" lon="21.01515">
        <ele>42.357011</ele>
        <time>2020-09-29T08:08:43.454Z</time>
      </trkpt>
      <trkpt lat="64.24452" lon="21.01524">
        <ele>42.371719</ele>
        <time>2020-09-29T08:08:45.430Z</time>
      </trkpt>
      <trkpt lat="64.2444" lon="21.01535">
        <ele>42.392075</ele>
        <time>2020-09-29T08:08:48.444Z</time>
      </trkpt>
      <trkpt lat="64.24429" lon="21.01545">
        <ele>42.412177</ele>
        <time>2020-09-29T08:08:51.468Z</time>
      </trkpt>
      <trkpt lat="64.24417" lon="21.01555">
        <ele>42.431827</ele>
        <time>2020-09-29T08:08:54.452Z</time>
      </trkpt>
      <trkpt lat="64.24405" lon="21.01565">
        <ele>42.452315</ele>
        <time>2020-09-29T08:08:57.460Z</time>
      </trkpt>
      <trkpt lat="64.24393" lon="21.01573">
        <ele>42.47241</ele>
        <time>2020-09-29T08:09:00.479Z</time>
      </trkpt>
      <trkpt lat="64.24382" lon="21.0158">
        <ele>42.491804</ele>
        <time>2020-09-29T08:09:03.470Z</time>
      </trkpt>
      <trkpt lat="64.2437" lon="21.01586">
        <ele>42.51148</ele>
        <time>2020-09-29T08:09:06.449Z</time>
      </trkpt>
      <trkpt lat="64.24356" lon="21.01591">
        <ele>42.53318</ele>
        <time>2020-09-29T08:09:09.448Z</time>
      </trkpt>
      <trkpt lat="64.24344" lon="21.01595">
        <ele>42.553914</ele>
        <time>2020-09-29T08:09:12.450Z</time>
      </trkpt>
      <trkpt lat="64.24331" lon="21.01599">
        <ele>42.574398</ele>
        <time>2020-09-29T08:09:15.446Z</time>
      </trkpt>
      <trkpt lat="64.24319" lon="21.016">
        <ele>42.639683</ele>
        <time>2020-09-29T08:09:18.455Z</time>
      </trkpt>
      <trkpt lat="64.24306" lon="21.01601">
        <ele>42.941458</ele>
        <time>2020-09-29T08:09:21.450Z</time>
      </trkpt>
      <trkpt lat="64.24294" lon="21.01603">
        <ele>43.236178</ele>
        <time>2020-09-29T08:09:24.445Z</time>
      </trkpt>
      <trkpt lat="64.24282" lon="21.01603">
        <ele>43.528122</ele>
        <time>2020-09-29T08:09:27.454Z</time>
      </trkpt>
      <trkpt lat="64.2427" lon="21.01606">
        <ele>43.812278</ele>
        <time>2020-09-29T08:09:30.488Z</time>
      </trkpt>
      <trkpt lat="64.24259" lon="21.01608">
        <ele>44.083238</ele>
        <time>2020-09-29T08:09:33.440Z</time>
      </trkpt>
      <trkpt lat="64.24249" lon="21.01609">
        <ele>44.327367</ele>
        <time>2020-09-29T08:09:36.462Z</time>
      </trkpt>
      <trkpt lat="64.24239" lon="21.0161">
        <ele>44.561799</ele>
        <time>2020-09-29T08:09:39.456Z</time>
      </trkpt>
      <trkpt lat="64.24229" lon="21.01612">
        <ele>44.796436</ele>
        <time>2020-09-29T08:09:42.446Z</time>
      </trkpt>
      <trkpt lat="64.2422" lon="21.01613">
        <ele>45.026185</ele>
        <time>2020-09-29T08:09:45.448Z</time>
      </trkpt>
      <trkpt lat="64.2421" lon="21.01614">
        <ele>45.25559</ele>
        <time>2020-09-29T08:09:48.437Z</time>
      </trkpt>
      <trkpt lat="64.24201" lon="21.01616">
        <ele>45.483261</ele>
        <time>2020-09-29T08:09:51.468Z</time>
      </trkpt>
      <trkpt lat="64.24192" lon="21.01618">
        <ele>45.705948</ele>
        <time>2020-09-29T08:09:54.440Z</time>
      </trkpt>
      <trkpt lat="64.24183" lon="21.01618">
        <ele>45.92796</ele>
        <time>2020-09-29T08:09:57.455Z</time>
      </trkpt>
      <trkpt lat="64.24171" lon="21.01621">
        <ele>46.211279</ele>
        <time>2020-09-29T08:10:01.430Z</time>
      </trkpt>
      <trkpt lat="64.24162" lon="21.01623">
        <ele>46.429761</ele>
        <time>2020-09-29T08:10:04.447Z</time>
      </trkpt>
      <trkpt lat="64.24153" lon="21.01625">
        <ele>46.653276</ele>
        <time>2020-09-29T08:10:07.448Z</time>
      </trkpt>
      <trkpt lat="64.24142" lon="21.01628">
        <ele>46.924486</ele>
        <time>2020-09-29T08:10:11.450Z</time>
      </trkpt>
      <trkpt lat="64.24131" lon="21.0163">
        <ele>47.511138</ele>
        <time>2020-09-29T08:10:15.448Z</time>
      </trkpt>
      <trkpt lat="64.2412" lon="21.01632">
        <ele>48.126464</ele>
        <time>2020-09-29T08:10:20.436Z</time>
      </trkpt>
      <trkpt lat="64.24109" lon="21.01634">
        <ele>48.710066</ele>
        <time>2020-09-29T08:10:24.444Z</time>
      </trkpt>
      <trkpt lat="64.24098" lon="21.01636">
        <ele>49.315517</ele>
        <time>2020-09-29T08:10:28.447Z</time>
      </trkpt>
      <trkpt lat="64.24087" lon="21.01636">
        <ele>49.924195</ele>
        <time>2020-09-29T08:10:32.463Z</time>
      </trkpt>
      <trkpt lat="64.24075" lon="21.01636">
        <ele>50.593241</ele>
        <time>2020-09-29T08:10:36.447Z</time>
      </trkpt>
      <trkpt lat="64.24065" lon="21.01638">
        <ele>51.099155</ele>
        <time>2020-09-29T08:10:39.448Z</time>
      </trkpt>
      <trkpt lat="64.24056" lon="21.01637">
        <ele>51.592755</ele>
        <time>2020-09-29T08:10:42.436Z</time>
      </trkpt>
      <trkpt lat="64.24045" lon="21.01639">
        <ele>52.213279</ele>
        <time>2020-09-29T08:10:46.446Z</time>
      </trkpt>
      <trkpt lat="64.24033" lon="21.0164">
        <ele>52.861309</ele>
        <time>2020-09-29T08:10:50.474Z</time>
      </trkpt>
      <trkpt lat="64.24022" lon="21.0164">
        <ele>53.486438</ele>
        <time>2020-09-29T08:10:54.453Z</time>
      </trkpt>
      <trkpt lat="64.24011" lon="21.01643">
        <ele>54.082395</ele>
        <time>2020-09-29T08:10:59.444Z</time>
      </trkpt>
      <trkpt lat="64.24" lon="21.01643">
        <ele>54.669198</ele>
        <time>2020-09-29T08:11:04.448Z</time>
      </trkpt>
      <trkpt lat="64.23989" lon="21.0164">
        <ele>55.292407</ele>
        <time>2020-09-29T08:11:08.464Z</time>
      </trkpt>
      <trkpt lat="64.23978" lon="21.01638">
        <ele>55.908586</ele>
        <time>2020-09-29T08:11:12.448Z</time>
      </trkpt>
      <trkpt lat="64.23967" lon="21.01635">
        <ele>56.532055</ele>
        <time>2020-09-29T08:11:16.440Z</time>
      </trkpt>
      <trkpt lat="64.23956" lon="21.01632">
        <ele>56.89867</ele>
        <time>2020-09-29T08:11:20.453Z</time>
      </trkpt>
      <trkpt lat="64.23946" lon="21.01629">
        <ele>57.050798</ele>
        <time>2020-09-29T08:11:23.464Z</time>
      </trkpt>
      <trkpt lat="64.23937" lon="21.0162">
        <ele>57.219001</ele>
        <time>2020-09-29T08:11:26.445Z</time>
      </trkpt>
      <trkpt lat="64.23927" lon="21.01615">
        <ele>57.390781</ele>
        <time>2020-09-29T08:11:29.451Z</time>
      </trkpt>
      <trkpt lat="64.23916" lon="21.01609">
        <ele>57.564734</ele>
        <time>2020-09-29T08:11:32.446Z</time>
      </trkpt>
      <trkpt lat="64.23907" lon="21.01604">
        <ele>57.725279</ele>
        <time>2020-09-29T08:11:35.453Z</time>
      </trkpt>
      <trkpt lat="64.23897" lon="21.016">
        <ele>57.883526</ele>
        <time>2020-09-29T08:11:38.435Z</time>
      </trkpt>
      <trkpt lat="64.23887" lon="21.01597">
        <ele>58.053505</ele>
        <time>2020-09-29T08:11:41.442Z</time>
      </trkpt>
      <trkpt lat="64.23878" lon="21.01595">
        <ele>58.20544</ele>
        <time>2020-09-29T08:11:44.463Z</time>
      </trkpt>
      <trkpt lat="64.23867" lon="21.01591">
        <ele>58.380663</ele>
        <time>2020-09-29T08:11:48.437Z</time>
      </trkpt>
      <trkpt lat="64.23857" lon="21.01589">
        <ele>58.543434</ele>
        <time>2020-09-29T08:11:52.437Z</time>
      </trkpt>
      <trkpt lat="64.23848" lon="21.01588">
        <ele>58.699166</ele>
        <time>2020-09-29T08:11:57.453Z</time>
      </trkpt>
      <trkpt lat="64.23837" lon="21.01586">
        <ele>58.873183</ele>
        <time>2020-09-29T08:12:03.453Z</time>
      </trkpt>
      <trkpt lat="64.23827" lon="21.01588">
        <ele>59.037651</ele>
        <time>2020-09-29T08:12:08.445Z</time>
      </trkpt>
      <trkpt lat="64.23817" lon="21.01585">
        <ele>59.206709</ele>
        <time>2020-09-29T08:12:13.442Z</time>
      </trkpt>
      <trkpt lat="64.23808" lon="21.01584">
        <ele>59.359076</ele>
        <time>2020-09-29T08:12:18.470Z</time>
      </trkpt>
      <trkpt lat="64.23798" lon="21.01584">
        <ele>59.509726</ele>
        <time>2020-09-29T08:12:23.446Z</time>
      </trkpt>
      <trkpt lat="64.2378" lon="21.01584">
        <ele>59.651291</ele>
        <time>2020-09-29T08:14:08.445Z</time>
      </trkpt>
      <trkpt lat="64.23771" lon="21.01585">
        <ele>59.44685</ele>
        <time>2020-09-29T08:14:12.470Z</time>
      </trkpt>
      <trkpt lat="64.2376" lon="21.01588">
        <ele>59.193527</ele>
        <time>2020-09-29T08:14:16.452Z</time>
      </trkpt>
      <trkpt lat="64.2375" lon="21.01592">
        <ele>58.968912</ele>
        <time>2020-09-29T08:14:19.440Z</time>
      </trkpt>
      <trkpt lat="64.23739" lon="21.01597">
        <ele>58.718458</ele>
        <time>2020-09-29T08:14:22.469Z</time>
      </trkpt>
      <trkpt lat="64.23726" lon="21.016">
        <ele>58.438595</ele>
        <time>2020-09-29T08:14:25.464Z</time>
      </trkpt>
      <trkpt lat="64.23717" lon="21.01603">
        <ele>58.230441</ele>
        <time>2020-09-29T08:14:27.444Z</time>
      </trkpt>
      <trkpt lat="64.23707" lon="21.01606">
        <ele>58.014603</ele>
        <time>2020-09-29T08:14:29.459Z</time>
      </trkpt>
      <trkpt lat="64.23697" lon="21.01609">
        <ele>57.779878</ele>
        <time>2020-09-29T08:14:31.436Z</time>
      </trkpt>
      <trkpt lat="64.23687" lon="21.01612">
        <ele>57.55128</ele>
        <time>2020-09-29T08:14:33.450Z</time>
      </trkpt>
      <trkpt lat="64.23676" lon="21.01614">
        <ele>57.31539</ele>
        <time>2020-09-29T08:14:35.435Z</time>
      </trkpt>
      <trkpt lat="64.23664" lon="21.01615">
        <ele>57.048706</ele>
        <time>2020-09-29T08:14:37.434Z</time>
      </trkpt>
      <trkpt lat="64.2365" lon="21.01619">
        <ele>56.739592</ele>
        <time>2020-09-29T08:14:39.443Z</time>
      </trkpt>
      <trkpt lat="64.23636" lon="21.01622">
        <ele>56.42991</ele>
        <time>2020-09-29T08:14:41.485Z</time>
      </trkpt>
      <trkpt lat="64.23624" lon="21.01625">
        <ele>56.146691</ele>
        <time>2020-09-29T08:14:43.432Z</time>
      </trkpt>
      <trkpt lat="64.23613" lon="21.01628">
        <ele>55.899966</ele>
        <time>2020-09-29T08:14:45.446Z</time>
      </trkpt>
      <trkpt lat="64.23602" lon="21.01631">
        <ele>55.795566</ele>
        <time>2020-09-29T08:14:47.440Z</time>
      </trkpt>
      <trkpt lat="64.23593" lon="21.01634">
        <ele>55.940683</ele>
        <time>2020-09-29T08:14:49.440Z</time>
      </trkpt>
      <trkpt lat="64.23584" lon="21.01636">
        <ele>56.076727</ele>
        <time>2020-09-29T08:14:51.434Z</time>
      </trkpt>
      <trkpt lat="64.23571" lon="21.0164">
        <ele>56.263543</ele>
        <time>2020-09-29T08:14:54.446Z</time>
      </trkpt>
      <trkpt lat="64.2356" lon="21.01642">
        <ele>56.432025</ele>
        <time>2020-09-29T08:14:57.460Z</time>
      </trkpt>
      <trkpt lat="64.23548" lon="21.01647">
        <ele>56.606444</ele>
        <time>2020-09-29T08:15:00.444Z</time>
      </trkpt>
      <trkpt lat="64.23538" lon="21.01649">
        <ele>56.757221</ele>
        <time>2020-09-29T08:15:03.431Z</time>
      </trkpt>
      <trkpt lat="64.23528" lon="21.01651">
        <ele>56.907733</ele>
        <time>2020-09-29T08:15:06.447Z</time>
      </trkpt>
      <trkpt lat="64.23519" lon="21.01655">
        <ele>57.048616</ele>
        <time>2020-09-29T08:15:09.464Z</time>
      </trkpt>
      <trkpt lat="64.23509" lon="21.01656">
        <ele>57.185654</ele>
        <time>2020-09-29T08:15:12.447Z</time>
      </trkpt>
      <trkpt lat="64.235" lon="21.01657">
        <ele>57.325135</ele>
        <time>2020-09-29T08:15:15.448Z</time>
      </trkpt>
      <trkpt lat="64.2349" lon="21.01658">
        <ele>57.472328</ele>
        <time>2020-09-29T08:15:18.453Z</time>
      </trkpt>
      <trkpt lat="64.2348" lon="21.01661">
        <ele>57.626201</ele>
        <time>2020-09-29T08:15:21.439Z</time>
      </trkpt>
      <trkpt lat="64.23469" lon="21.01663">
        <ele>57.782277</ele>
        <time>2020-09-29T08:15:24.446Z</time>
      </trkpt>
      <trkpt lat="64.23458" lon="21.01666">
        <ele>57.947114</ele>
        <time>2020-09-29T08:15:27.440Z</time>
      </trkpt>
      <trkpt lat="64.23446" lon="21.01668">
        <ele>58.136016</ele>
        <time>2020-09-29T08:15:30.485Z</time>
      </trkpt>
      <trkpt lat="64.23432" lon="21.01671">
        <ele>58.335369</ele>
        <time>2020-09-29T08:15:33.467Z</time>
      </trkpt>
      <trkpt lat="64.23423" lon="21.01672">
        <ele>58.318456</ele>
        <time>2020-09-29T08:15:35.460Z</time>
      </trkpt>
      <trkpt lat="64.23413" lon="21.01672">
        <ele>58.096631</ele>
        <time>2020-09-29T08:15:37.440Z</time>
      </trkpt>
      <trkpt lat="64.23404" lon="21.01673">
        <ele>57.883891</ele>
        <time>2020-09-29T08:15:39.464Z</time>
      </trkpt>
      <trkpt lat="64.23395" lon="21.01674">
        <ele>57.673408</ele>
        <time>2020-09-29T08:15:41.452Z</time>
      </trkpt>
      <trkpt lat="64.23386" lon="21.01675">
        <ele>57.465515</ele>
        <time>2020-09-29T08:15:43.436Z</time>
      </trkpt>
      <trkpt lat="64.23373" lon="21.01675">
        <ele>57.165232</ele>
        <time>2020-09-29T08:15:46.448Z</time>
      </trkpt>
      <trkpt lat="64.2336" lon="21.01675">
        <ele>56.864949</ele>
        <time>2020-09-29T08:15:49.455Z</time>
      </trkpt>
      <trkpt lat="64.23347" lon="21.01674">
        <ele>56.56925</ele>
        <time>2020-09-29T08:15:52.472Z</time>
      </trkpt>
      <trkpt lat="64.23334" lon="21.01673">
        <ele>56.266063</ele>
        <time>2020-09-29T08:15:55.443Z</time>
      </trkpt>
      <trkpt lat="64.23321" lon="21.01673">
        <ele>55.968097</ele>
        <time>2020-09-29T08:15:58.435Z</time>
      </trkpt>
      <trkpt lat="64.23309" lon="21.01674">
        <ele>55.683477</ele>
        <time>2020-09-29T08:16:01.447Z</time>
      </trkpt>
      <trkpt lat="64.23296" lon="21.01674">
        <ele>55.378581</ele>
        <time>2020-09-29T08:16:04.451Z</time>
      </trkpt>
      <trkpt lat="64.23287" lon="21.01674">
        <ele>55.170698</ele>
        <time>2020-09-29T08:16:06.460Z</time>
      </trkpt>
      <trkpt lat="64.23278" lon="21.01673">
        <ele>54.962659</ele>
        <time>2020-09-29T08:16:08.448Z</time>
      </trkpt>
      <trkpt lat="64.23269" lon="21.01668">
        <ele>54.752544</ele>
        <time>2020-09-29T08:16:10.435Z</time>
      </trkpt>
      <trkpt lat="64.23264" lon="21.01643">
        <ele>54.475165</ele>
        <time>2020-09-29T08:16:13.442Z</time>
      </trkpt>
      <trkpt lat="64.23267" lon="21.01615">
        <ele>54.059304</ele>
        <time>2020-09-29T08:16:16.453Z</time>
      </trkpt>
      <trkpt lat="64.23269" lon="21.01587">
        <ele>53.310134</ele>
        <time>2020-09-29T08:16:19.437Z</time>
      </trkpt>
      <trkpt lat="64.2327" lon="21.01556">
        <ele>52.509189</ele>
        <time>2020-09-29T08:16:22.437Z</time>
      </trkpt>
      <trkpt lat="64.2327" lon="21.01535">
        <ele>51.946381</ele>
        <time>2020-09-29T08:16:24.442Z</time>
      </trkpt>
      <trkpt lat="64.23268" lon="21.0151">
        <ele>51.306186</ele>
        <time>2020-09-29T08:16:26.450Z</time>
      </trkpt>
      <trkpt lat="64.23267" lon="21.01482">
        <ele>50.581232</ele>
        <time>2020-09-29T08:16:28.443Z</time>
      </trkpt>
      <trkpt lat="64.23266" lon="21.01453">
        <ele>49.815341</ele>
        <time>2020-09-29T08:16:30.490Z</time>
      </trkpt>
      <trkpt lat="64.23265" lon="21.01421">
        <ele>48.975399</ele>
        <time>2020-09-29T08:16:32.450Z</time>
      </trkpt>
      <trkpt lat="64.23264" lon="21.01387">
        <ele>48.09529</ele>
        <time>2020-09-29T08:16:34.432Z</time>
      </trkpt>
      <trkpt lat="64.23263" lon="21.01351">
        <ele>47.158037</ele>
        <time>2020-09-29T08:16:36.440Z</time>
      </trkpt>
      <trkpt lat="64.23262" lon="21.01313">
        <ele>46.167462</ele>
        <time>2020-09-29T08:16:38.430Z</time>
      </trkpt>
      <trkpt lat="64.2326" lon="21.01272">
        <ele>45.096874</ele>
        <time>2020-09-29T08:16:40.430Z</time>
      </trkpt>
      <trkpt lat="64.2326" lon="21.01251">
        <ele>44.546198</ele>
        <time>2020-09-29T08:16:41.437Z</time>
      </trkpt>
      <trkpt lat="64.23259" lon="21.0123">
        <ele>43.984232</ele>
        <time>2020-09-29T08:16:42.465Z</time>
      </trkpt>
      <trkpt lat="64.23258" lon="21.01208">
        <ele>43.447093</ele>
        <time>2020-09-29T08:16:43.438Z</time>
      </trkpt>
      <trkpt lat="64.23258" lon="21.01186">
        <ele>43.154394</ele>
        <time>2020-09-29T08:16:44.455Z</time>
      </trkpt>
      <trkpt lat="64.23257" lon="21.01164">
        <ele>42.863227</ele>
        <time>2020-09-29T08:16:45.466Z</time>
      </trkpt>
      <trkpt lat="64.23256" lon="21.01142">
        <ele>42.56941</ele>
        <time>2020-09-29T08:16:46.464Z</time>
      </trkpt>
      <trkpt lat="64.23256" lon="21.0112">
        <ele>42.283084</ele>
        <time>2020-09-29T08:16:47.446Z</time>
      </trkpt>
      <trkpt lat="64.23255" lon="21.01099">
        <ele>41.999401</ele>
        <time>2020-09-29T08:16:48.445Z</time>
      </trkpt>
      <trkpt lat="64.23254" lon="21.01078">
        <ele>41.722798</ele>
        <time>2020-09-29T08:16:49.446Z</time>
      </trkpt>
      <trkpt lat="64.23254" lon="21.01057">
        <ele>41.443882</ele>
        <time>2020-09-29T08:16:50.492Z</time>
      </trkpt>
      <trkpt lat="64.23253" lon="21.01036">
        <ele>41.162165</ele>
        <time>2020-09-29T08:16:51.449Z</time>
      </trkpt>
      <trkpt lat="64.23252" lon="21.01015">
        <ele>40.881126</ele>
        <time>2020-09-29T08:16:52.474Z</time>
      </trkpt>
      <trkpt lat="64.23251" lon="21.00995">
        <ele>40.607046</ele>
        <time>2020-09-29T08:16:53.469Z</time>
      </trkpt>
      <trkpt lat="64.23249" lon="21.00955">
        <ele>40.074445</ele>
        <time>2020-09-29T08:16:55.462Z</time>
      </trkpt>
      <trkpt lat="64.23248" lon="21.00918">
        <ele>39.58345</ele>
        <time>2020-09-29T08:16:57.487Z</time>
      </trkpt>
      <trkpt lat="64.23247" lon="21.00884">
        <ele>39.128992</ele>
        <time>2020-09-29T08:16:59.473Z</time>
      </trkpt>
      <trkpt lat="64.23247" lon="21.00852">
        <ele>38.703494</ele>
        <time>2020-09-29T08:17:01.459Z</time>
      </trkpt>
      <trkpt lat="64.23246" lon="21.00821">
        <ele>38.29955</ele>
        <time>2020-09-29T08:17:03.436Z</time>
      </trkpt>
      <trkpt lat="64.23245" lon="21.00792">
        <ele>37.995073</ele>
        <time>2020-09-29T08:17:05.456Z</time>
      </trkpt>
      <trkpt lat="64.23244" lon="21.00766">
        <ele>38.003181</ele>
        <time>2020-09-29T08:17:07.450Z</time>
      </trkpt>
      <trkpt lat="64.23243" lon="21.00741">
        <ele>38.010619</ele>
        <time>2020-09-29T08:17:09.487Z</time>
      </trkpt>
      <trkpt lat="64.23242" lon="21.00719">
        <ele>38.01751</ele>
        <time>2020-09-29T08:17:11.453Z</time>
      </trkpt>
      <trkpt lat="64.23241" lon="21.00698">
        <ele>38.02406</ele>
        <time>2020-09-29T08:17:13.444Z</time>
      </trkpt>
      <trkpt lat="64.2324" lon="21.00676">
        <ele>38.030793</ele>
        <time>2020-09-29T08:17:15.448Z</time>
      </trkpt>
      <trkpt lat="64.23239" lon="21.00653">
        <ele>38.037697</ele>
        <time>2020-09-29T08:17:17.445Z</time>
      </trkpt>
      <trkpt lat="64.23238" lon="21.00631">
        <ele>38.044636</ele>
        <time>2020-09-29T08:17:19.445Z</time>
      </trkpt>
      <trkpt lat="64.23237" lon="21.0061">
        <ele>38.051243</ele>
        <time>2020-09-29T08:17:21.440Z</time>
      </trkpt>
      <trkpt lat="64.23236" lon="21.00589">
        <ele>38.057591</ele>
        <time>2020-09-29T08:17:23.442Z</time>
      </trkpt>
      <trkpt lat="64.23235" lon="21.00568">
        <ele>38.064024</ele>
        <time>2020-09-29T08:17:25.450Z</time>
      </trkpt>
      <trkpt lat="64.23235" lon="21.00547">
        <ele>38.070464</ele>
        <time>2020-09-29T08:17:27.455Z</time>
      </trkpt>
      <trkpt lat="64.23234" lon="21.00525">
        <ele>38.077162</ele>
        <time>2020-09-29T08:17:29.469Z</time>
      </trkpt>
      <trkpt lat="64.23234" lon="21.00504">
        <ele>38.083829</ele>
        <time>2020-09-29T08:17:31.462Z</time>
      </trkpt>
      <trkpt lat="64.23234" lon="21.00482">
        <ele>38.090547</ele>
        <time>2020-09-29T08:17:33.462Z</time>
      </trkpt>
      <trkpt lat="64.23233" lon="21.00459">
        <ele>38.097525</ele>
        <time>2020-09-29T08:17:35.475Z</time>
      </trkpt>
      <trkpt lat="64.23232" lon="21.00436">
        <ele>38.104728</ele>
        <time>2020-09-29T08:17:37.444Z</time>
      </trkpt>
      <trkpt lat="64.23231" lon="21.00412">
        <ele>38.112037</ele>
        <time>2020-09-29T08:17:39.485Z</time>
      </trkpt>
      <trkpt lat="64.23231" lon="21.00388">
        <ele>38.119368</ele>
        <time>2020-09-29T08:17:41.492Z</time>
      </trkpt>
      <trkpt lat="64.23231" lon="21.00364">
        <ele>38.336801</ele>
        <time>2020-09-29T08:17:43.470Z</time>
      </trkpt>
      <trkpt lat="64.2323" lon="21.00339">
        <ele>38.574927</ele>
        <time>2020-09-29T08:17:45.486Z</time>
      </trkpt>
      <trkpt lat="64.23229" lon="21.00315">
        <ele>38.810736</ele>
        <time>2020-09-29T08:17:47.452Z</time>
      </trkpt>
      <trkpt lat="64.23228" lon="21.00291">
        <ele>39.04288</ele>
        <time>2020-09-29T08:17:49.457Z</time>
      </trkpt>
      <trkpt lat="64.23227" lon="21.00269">
        <ele>39.260774</ele>
        <time>2020-09-29T08:17:51.472Z</time>
      </trkpt>
      <trkpt lat="64.23226" lon="21.00247">
        <ele>39.473845</ele>
        <time>2020-09-29T08:17:53.463Z</time>
      </trkpt>
      <trkpt lat="64.23225" lon="21.00217">
        <ele>39.764686</ele>
        <time>2020-09-29T08:17:56.467Z</time>
      </trkpt>
      <trkpt lat="64.23224" lon="21.00189">
        <ele>40.035511</ele>
        <time>2020-09-29T08:17:59.486Z</time>
      </trkpt>
      <trkpt lat="64.23223" lon="21.00163">
        <ele>40.288164</ele>
        <time>2020-09-29T08:18:02.449Z</time>
      </trkpt>
      <trkpt lat="64.23222" lon="21.00137">
        <ele>40.541223</ele>
        <time>2020-09-29T08:18:05.456Z</time>
      </trkpt>
      <trkpt lat="64.23221" lon="21.00113">
        <ele>40.779889</ele>
        <time>2020-09-29T08:18:08.475Z</time>
      </trkpt>
      <trkpt lat="64.2322" lon="21.0009">
        <ele>41.005503</ele>
        <time>2020-09-29T08:18:11.447Z</time>
      </trkpt>
      <trkpt lat="64.2322" lon="21.00067">
        <ele>41.225937</ele>
        <time>2020-09-29T08:18:14.462Z</time>
      </trkpt>
      <trkpt lat="64.23219" lon="21.00044">
        <ele>41.451887</ele>
        <time>2020-09-29T08:18:17.445Z</time>
      </trkpt>
      <trkpt lat="64.23218" lon="21.0002">
        <ele>41.688074</ele>
        <time>2020-09-29T08:18:20.491Z</time>
      </trkpt>
      <trkpt lat="64.23218" lon="20.99995">
        <ele>41.924377</ele>
        <time>2020-09-29T08:18:23.434Z</time>
      </trkpt>
      <trkpt lat="64.23217" lon="20.99971">
        <ele>42.161275</ele>
        <time>2020-09-29T08:18:26.483Z</time>
      </trkpt>
      <trkpt lat="64.23216" lon="20.99946">
        <ele>42.365986</ele>
        <time>2020-09-29T08:18:29.455Z</time>
      </trkpt>
      <trkpt lat="64.23215" lon="20.99921">
        <ele>42.569368</ele>
        <time>2020-09-29T08:18:32.444Z</time>
      </trkpt>
      <trkpt lat="64.23214" lon="20.99897">
        <ele>42.771927</ele>
        <time>2020-09-29T08:18:35.472Z</time>
      </trkpt>
      <trkpt lat="64.23213" lon="20.99874">
        <ele>42.961143</ele>
        <time>2020-09-29T08:18:38.450Z</time>
      </trkpt>
      <trkpt lat="64.23213" lon="20.99852">
        <ele>43.142953</ele>
        <time>2020-09-29T08:18:41.466Z</time>
      </trkpt>
      <trkpt lat="64.23212" lon="20.9983">
        <ele>43.329391</ele>
        <time>2020-09-29T08:18:44.437Z</time>
      </trkpt>
      <trkpt lat="64.23211" lon="20.99808">
        <ele>43.513855</ele>
        <time>2020-09-29T08:18:47.444Z</time>
      </trkpt>
      <trkpt lat="64.2321" lon="20.99784">
        <ele>43.707365</ele>
        <time>2020-09-29T08:18:50.486Z</time>
      </trkpt>
      <trkpt lat="64.2321" lon="20.99761">
        <ele>43.903282</ele>
        <time>2020-09-29T08:18:53.455Z</time>
      </trkpt>
      <trkpt lat="64.2321" lon="20.99737">
        <ele>44.099171</ele>
        <time>2020-09-29T08:18:56.474Z</time>
      </trkpt>
      <trkpt lat="64.2321" lon="20.99712">
        <ele>44.300846</ele>
        <time>2020-09-29T08:18:59.464Z</time>
      </trkpt>
      <trkpt lat="64.2321" lon="20.99688">
        <ele>44.506863</ele>
        <time>2020-09-29T08:19:02.468Z</time>
      </trkpt>
      <trkpt lat="64.2321" lon="20.9966">
        <ele>44.735008</ele>
        <time>2020-09-29T08:19:05.463Z</time>
      </trkpt>
      <trkpt lat="64.23211" lon="20.99631">
        <ele>44.975587</ele>
        <time>2020-09-29T08:19:08.463Z</time>
      </trkpt>
      <trkpt lat="64.23211" lon="20.99602">
        <ele>45.215459</ele>
        <time>2020-09-29T08:19:11.448Z</time>
      </trkpt>
      <trkpt lat="64.23212" lon="20.99572">
        <ele>45.463174</ele>
        <time>2020-09-29T08:19:14.457Z</time>
      </trkpt>
      <trkpt lat="64.23213" lon="20.99551">
        <ele>45.593205</ele>
        <time>2020-09-29T08:19:16.451Z</time>
      </trkpt>
      <trkpt lat="64.23213" lon="20.99528">
        <ele>45.675006</ele>
        <time>2020-09-29T08:19:18.474Z</time>
      </trkpt>
      <trkpt lat="64.23214" lon="20.99505">
        <ele>45.756977</ele>
        <time>2020-09-29T08:19:20.479Z</time>
      </trkpt>
      <trkpt lat="64.23215" lon="20.99484">
        <ele>45.836615</ele>
        <time>2020-09-29T08:19:22.463Z</time>
      </trkpt>
      <trkpt lat="64.23216" lon="20.99462">
        <ele>45.914251</ele>
        <time>2020-09-29T08:19:24.465Z</time>
      </trkpt>
      <trkpt lat="64.23216" lon="20.99441">
        <ele>45.989718</ele>
        <time>2020-09-29T08:19:26.486Z</time>
      </trkpt>
      <trkpt lat="64.23217" lon="20.99411">
        <ele>46.101173</ele>
        <time>2020-09-29T08:19:29.444Z</time>
      </trkpt>
      <trkpt lat="64.23218" lon="20.99381">
        <ele>46.207438</ele>
        <time>2020-09-29T08:19:32.459Z</time>
      </trkpt>
      <trkpt lat="64.2322" lon="20.99351">
        <ele>46.317515</ele>
        <time>2020-09-29T08:19:35.504Z</time>
      </trkpt>
      <trkpt lat="64.23221" lon="20.99321">
        <ele>46.425788</ele>
        <time>2020-09-29T08:19:38.471Z</time>
      </trkpt>
      <trkpt lat="64.23221" lon="20.99291">
        <ele>46.535323</ele>
        <time>2020-09-29T08:19:41.450Z</time>
      </trkpt>
      <trkpt lat="64.23222" lon="20.99261">
        <ele>46.644136</ele>
        <time>2020-09-29T08:19:44.466Z</time>
      </trkpt>
      <trkpt lat="64.23223" lon="20.9923">
        <ele>46.755753</ele>
        <time>2020-09-29T08:19:47.466Z</time>
      </trkpt>
      <trkpt lat="64.23223" lon="20.99209">
        <ele>46.83366</ele>
        <time>2020-09-29T08:19:49.471Z</time>
      </trkpt>
      <trkpt lat="64.23223" lon="20.99186">
        <ele>46.916602</ele>
        <time>2020-09-29T08:19:51.454Z</time>
      </trkpt>
      <trkpt lat="64.23223" lon="20.99163">
        <ele>46.998421</ele>
        <time>2020-09-29T08:19:53.468Z</time>
      </trkpt>
      <trkpt lat="64.23223" lon="20.99139">
        <ele>47.054431</ele>
        <time>2020-09-29T08:19:55.456Z</time>
      </trkpt>
      <trkpt lat="64.23223" lon="20.99113">
        <ele>47.054607</ele>
        <time>2020-09-29T08:19:57.468Z</time>
      </trkpt>
      <trkpt lat="64.23224" lon="20.99089">
        <ele>47.054777</ele>
        <time>2020-09-29T08:19:59.468Z</time>
      </trkpt>
      <trkpt lat="64.23225" lon="20.99065">
        <ele>47.05494</ele>
        <time>2020-09-29T08:20:01.468Z</time>
      </trkpt>
      <trkpt lat="64.23226" lon="20.99042">
        <ele>47.055103</ele>
        <time>2020-09-29T08:20:03.471Z</time>
      </trkpt>
      <trkpt lat="64.23226" lon="20.99019">
        <ele>47.055262</ele>
        <time>2020-09-29T08:20:05.463Z</time>
      </trkpt>
      <trkpt lat="64.23227" lon="20.98996">
        <ele>47.055421</ele>
        <time>2020-09-29T08:20:07.450Z</time>
      </trkpt>
      <trkpt lat="64.23228" lon="20.98973">
        <ele>47.055581</ele>
        <time>2020-09-29T08:20:09.459Z</time>
      </trkpt>
      <trkpt lat="64.23229" lon="20.9895">
        <ele>47.055741</ele>
        <time>2020-09-29T08:20:11.452Z</time>
      </trkpt>
      <trkpt lat="64.2323" lon="20.98926">
        <ele>47.055907</ele>
        <time>2020-09-29T08:20:13.446Z</time>
      </trkpt>
      <trkpt lat="64.23231" lon="20.98902">
        <ele>47.056074</ele>
        <time>2020-09-29T08:20:15.446Z</time>
      </trkpt>
      <trkpt lat="64.23231" lon="20.98879">
        <ele>47.056234</ele>
        <time>2020-09-29T08:20:17.453Z</time>
      </trkpt>
      <trkpt lat="64.23232" lon="20.98856">
        <ele>47.056393</ele>
        <time>2020-09-29T08:20:19.506Z</time>
      </trkpt>
      <trkpt lat="64.23233" lon="20.98834">
        <ele>47.056543</ele>
        <time>2020-09-29T08:20:21.464Z</time>
      </trkpt>
      <trkpt lat="64.23233" lon="20.98813">
        <ele>47.056693</ele>
        <time>2020-09-29T08:20:23.463Z</time>
      </trkpt>
      <trkpt lat="64.23234" lon="20.98792">
        <ele>47.056839</ele>
        <time>2020-09-29T08:20:25.447Z</time>
      </trkpt>
      <trkpt lat="64.23235" lon="20.9877">
        <ele>47.056985</ele>
        <time>2020-09-29T08:20:27.468Z</time>
      </trkpt>
      <trkpt lat="64.23236" lon="20.98749">
        <ele>47.057135</ele>
        <time>2020-09-29T08:20:29.448Z</time>
      </trkpt>
      <trkpt lat="64.23237" lon="20.98727">
        <ele>47.093364</ele>
        <time>2020-09-29T08:20:31.452Z</time>
      </trkpt>
      <trkpt lat="64.23238" lon="20.98705">
        <ele>47.194946</ele>
        <time>2020-09-29T08:20:33.482Z</time>
      </trkpt>
      <trkpt lat="64.23238" lon="20.98682">
        <ele>47.298602</ele>
        <time>2020-09-29T08:20:35.451Z</time>
      </trkpt>
      <trkpt lat="64.23239" lon="20.98659">
        <ele>47.400115</ele>
        <time>2020-09-29T08:20:37.482Z</time>
      </trkpt>
      <trkpt lat="64.23239" lon="20.98637">
        <ele>47.500349</ele>
        <time>2020-09-29T08:20:39.444Z</time>
      </trkpt>
      <trkpt lat="64.2324" lon="20.98615">
        <ele>47.601412</ele>
        <time>2020-09-29T08:20:41.476Z</time>
      </trkpt>
      <trkpt lat="64.2324" lon="20.98593">
        <ele>47.701967</ele>
        <time>2020-09-29T08:20:43.448Z</time>
      </trkpt>
      <trkpt lat="64.23241" lon="20.98562">
        <ele>47.840762</ele>
        <time>2020-09-29T08:20:46.468Z</time>
      </trkpt>
      <trkpt lat="64.23241" lon="20.98541">
        <ele>47.93583</ele>
        <time>2020-09-29T08:20:48.459Z</time>
      </trkpt>
      <trkpt lat="64.23242" lon="20.98519">
        <ele>48.033452</ele>
        <time>2020-09-29T08:20:50.472Z</time>
      </trkpt>
      <trkpt lat="64.23243" lon="20.98498">
        <ele>48.128381</ele>
        <time>2020-09-29T08:20:52.453Z</time>
      </trkpt>
      <trkpt lat="64.23243" lon="20.98467">
        <ele>48.266769</ele>
        <time>2020-09-29T08:20:55.453Z</time>
      </trkpt>
      <trkpt lat="64.23244" lon="20.98437">
        <ele>48.404664</ele>
        <time>2020-09-29T08:20:58.464Z</time>
      </trkpt>
      <trkpt lat="64.23244" lon="20.98416">
        <ele>48.499322</ele>
        <time>2020-09-29T08:21:00.451Z</time>
      </trkpt>
      <trkpt lat="64.23244" lon="20.98395">
        <ele>48.594345</ele>
        <time>2020-09-29T08:21:02.460Z</time>
      </trkpt>
      <trkpt lat="64.23245" lon="20.98374">
        <ele>48.688103</ele>
        <time>2020-09-29T08:21:04.466Z</time>
      </trkpt>
      <trkpt lat="64.23245" lon="20.98353">
        <ele>48.781793</ele>
        <time>2020-09-29T08:21:06.445Z</time>
      </trkpt>
      <trkpt lat="64.23245" lon="20.98332">
        <ele>48.875482</ele>
        <time>2020-09-29T08:21:08.459Z</time>
      </trkpt>
      <trkpt lat="64.23245" lon="20.98312">
        <ele>49.010101</ele>
        <time>2020-09-29T08:21:10.448Z</time>
      </trkpt>
      <trkpt lat="64.23245" lon="20.98291">
        <ele>49.186582</ele>
        <time>2020-09-29T08:21:12.454Z</time>
      </trkpt>
      <trkpt lat="64.23246" lon="20.98269">
        <ele>49.372954</ele>
        <time>2020-09-29T08:21:14.470Z</time>
      </trkpt>
      <trkpt lat="64.23247" lon="20.98247">
        <ele>49.554532</ele>
        <time>2020-09-29T08:21:16.486Z</time>
      </trkpt>
      <trkpt lat="64.23248" lon="20.98226">
        <ele>49.73645</ele>
        <time>2020-09-29T08:21:18.444Z</time>
      </trkpt>
      <trkpt lat="64.23248" lon="20.98204">
        <ele>49.921339</ele>
        <time>2020-09-29T08:21:20.450Z</time>
      </trkpt>
      <trkpt lat="64.23249" lon="20.98183">
        <ele>50.102092</ele>
        <time>2020-09-29T08:21:22.469Z</time>
      </trkpt>
      <trkpt lat="64.2325" lon="20.98162">
        <ele>50.276873</ele>
        <time>2020-09-29T08:21:24.450Z</time>
      </trkpt>
      <trkpt lat="64.23251" lon="20.98142">
        <ele>50.452085</ele>
        <time>2020-09-29T08:21:26.454Z</time>
      </trkpt>
      <trkpt lat="64.23251" lon="20.9811">
        <ele>50.715732</ele>
        <time>2020-09-29T08:21:29.491Z</time>
      </trkpt>
      <trkpt lat="64.23252" lon="20.98089">
        <ele>50.894797</ele>
        <time>2020-09-29T08:21:31.463Z</time>
      </trkpt>
      <trkpt lat="64.23252" lon="20.98068">
        <ele>51.074873</ele>
        <time>2020-09-29T08:21:33.464Z</time>
      </trkpt>
      <trkpt lat="64.23252" lon="20.98046">
        <ele>51.256542</ele>
        <time>2020-09-29T08:21:35.464Z</time>
      </trkpt>
      <trkpt lat="64.23253" lon="20.98025">
        <ele>51.441231</ele>
        <time>2020-09-29T08:21:37.482Z</time>
      </trkpt>
      <trkpt lat="64.23254" lon="20.98003">
        <ele>51.624792</ele>
        <time>2020-09-29T08:21:39.456Z</time>
      </trkpt>
      <trkpt lat="64.23254" lon="20.97981">
        <ele>51.8114</ele>
        <time>2020-09-29T08:21:41.451Z</time>
      </trkpt>
      <trkpt lat="64.23254" lon="20.97958">
        <ele>52.00066</ele>
        <time>2020-09-29T08:21:43.457Z</time>
      </trkpt>
      <trkpt lat="64.23255" lon="20.97936">
        <ele>52.189276</ele>
        <time>2020-09-29T08:21:45.467Z</time>
      </trkpt>
      <trkpt lat="64.23256" lon="20.97914">
        <ele>52.376661</ele>
        <time>2020-09-29T08:21:47.470Z</time>
      </trkpt>
      <trkpt lat="64.23256" lon="20.97892">
        <ele>52.325435</ele>
        <time>2020-09-29T08:21:49.463Z</time>
      </trkpt>
      <trkpt lat="64.23256" lon="20.9787">
        <ele>52.218523</ele>
        <time>2020-09-29T08:21:51.463Z</time>
      </trkpt>
      <trkpt lat="64.23256" lon="20.97848">
        <ele>52.112096</ele>
        <time>2020-09-29T08:21:53.463Z</time>
      </trkpt>
      <trkpt lat="64.23256" lon="20.97826">
        <ele>52.006641</ele>
        <time>2020-09-29T08:21:55.447Z</time>
      </trkpt>
      <trkpt lat="64.23257" lon="20.97804">
        <ele>51.901482</ele>
        <time>2020-09-29T08:21:57.456Z</time>
      </trkpt>
      <trkpt lat="64.23257" lon="20.97782">
        <ele>51.791101</ele>
        <time>2020-09-29T08:21:59.447Z</time>
      </trkpt>
      <trkpt lat="64.23258" lon="20.97758">
        <ele>51.67639</ele>
        <time>2020-09-29T08:22:01.479Z</time>
      </trkpt>
      <trkpt lat="64.23258" lon="20.97735">
        <ele>51.565524</ele>
        <time>2020-09-29T08:22:03.438Z</time>
      </trkpt>
      <trkpt lat="64.23259" lon="20.97711">
        <ele>51.44921</ele>
        <time>2020-09-29T08:22:05.464Z</time>
      </trkpt>
      <trkpt lat="64.2326" lon="20.97687">
        <ele>51.329751</ele>
        <time>2020-09-29T08:22:07.494Z</time>
      </trkpt>
      <trkpt lat="64.23261" lon="20.97662">
        <ele>51.207548</ele>
        <time>2020-09-29T08:22:09.446Z</time>
      </trkpt>
      <trkpt lat="64.23263" lon="20.97636">
        <ele>51.079541</ele>
        <time>2020-09-29T08:22:11.461Z</time>
      </trkpt>
      <trkpt lat="64.23265" lon="20.9761">
        <ele>50.952966</ele>
        <time>2020-09-29T08:22:13.474Z</time>
      </trkpt>
      <trkpt lat="64.23267" lon="20.97586">
        <ele>50.831465</ele>
        <time>2020-09-29T08:22:15.450Z</time>
      </trkpt>
      <trkpt lat="64.23268" lon="20.9756">
        <ele>50.704915</ele>
        <time>2020-09-29T08:22:17.483Z</time>
      </trkpt>
      <trkpt lat="64.23269" lon="20.97534">
        <ele>50.579815</ele>
        <time>2020-09-29T08:22:19.459Z</time>
      </trkpt>
      <trkpt lat="64.2327" lon="20.9751">
        <ele>50.461008</ele>
        <time>2020-09-29T08:22:21.455Z</time>
      </trkpt>
      <trkpt lat="64.23271" lon="20.97486">
        <ele>50.219204</ele>
        <time>2020-09-29T08:22:23.437Z</time>
      </trkpt>
      <trkpt lat="64.23271" lon="20.97461">
        <ele>49.847559</ele>
        <time>2020-09-29T08:22:25.518Z</time>
      </trkpt>
      <trkpt lat="64.23272" lon="20.97437">
        <ele>49.486199</ele>
        <time>2020-09-29T08:22:27.435Z</time>
      </trkpt>
      <trkpt lat="64.23272" lon="20.97413">
        <ele>49.125235</ele>
        <time>2020-09-29T08:22:29.451Z</time>
      </trkpt>
      <trkpt lat="64.23273" lon="20.97389">
        <ele>48.76409</ele>
        <time>2020-09-29T08:22:31.477Z</time>
      </trkpt>
      <trkpt lat="64.23274" lon="20.97364">
        <ele>48.383618</ele>
        <time>2020-09-29T08:22:33.465Z</time>
      </trkpt>
      <trkpt lat="64.23274" lon="20.97338">
        <ele>48.000144</ele>
        <time>2020-09-29T08:22:35.460Z</time>
      </trkpt>
      <trkpt lat="64.23275" lon="20.97313">
        <ele>47.617562</ele>
        <time>2020-09-29T08:22:37.444Z</time>
      </trkpt>
      <trkpt lat="64.23276" lon="20.97288">
        <ele>47.242201</ele>
        <time>2020-09-29T08:22:39.485Z</time>
      </trkpt>
      <trkpt lat="64.23276" lon="20.97263">
        <ele>46.867557</ele>
        <time>2020-09-29T08:22:41.446Z</time>
      </trkpt>
      <trkpt lat="64.23277" lon="20.97238">
        <ele>46.497203</ele>
        <time>2020-09-29T08:22:43.486Z</time>
      </trkpt>
      <trkpt lat="64.23278" lon="20.97214">
        <ele>46.134098</ele>
        <time>2020-09-29T08:22:45.465Z</time>
      </trkpt>
      <trkpt lat="64.23278" lon="20.9719">
        <ele>45.76878</ele>
        <time>2020-09-29T08:22:47.453Z</time>
      </trkpt>
      <trkpt lat="64.23278" lon="20.97167">
        <ele>45.426189</ele>
        <time>2020-09-29T08:22:49.466Z</time>
      </trkpt>
      <trkpt lat="64.23279" lon="20.97145">
        <ele>45.088103</ele>
        <time>2020-09-29T08:22:51.444Z</time>
      </trkpt>
      <trkpt lat="64.23279" lon="20.97123">
        <ele>44.76044</ele>
        <time>2020-09-29T08:22:53.448Z</time>
      </trkpt>
      <trkpt lat="64.23279" lon="20.97101">
        <ele>44.434151</ele>
        <time>2020-09-29T08:22:55.457Z</time>
      </trkpt>
      <trkpt lat="64.23279" lon="20.9708">
        <ele>44.18657</ele>
        <time>2020-09-29T08:22:57.463Z</time>
      </trkpt>
      <trkpt lat="64.23279" lon="20.97059">
        <ele>44.183426</ele>
        <time>2020-09-29T08:22:59.452Z</time>
      </trkpt>
      <trkpt lat="64.23279" lon="20.97028">
        <ele>44.178852</ele>
        <time>2020-09-29T08:23:02.468Z</time>
      </trkpt>
      <trkpt lat="64.23279" lon="20.97007">
        <ele>44.175769</ele>
        <time>2020-09-29T08:23:04.450Z</time>
      </trkpt>
      <trkpt lat="64.23279" lon="20.96986">
        <ele>44.1727</ele>
        <time>2020-09-29T08:23:06.472Z</time>
      </trkpt>
      <trkpt lat="64.23279" lon="20.96964">
        <ele>44.169423</ele>
        <time>2020-09-29T08:23:08.452Z</time>
      </trkpt>
      <trkpt lat="64.23278" lon="20.96942">
        <ele>44.166145</ele>
        <time>2020-09-29T08:23:10.458Z</time>
      </trkpt>
      <trkpt lat="64.23277" lon="20.9692">
        <ele>44.16297</ele>
        <time>2020-09-29T08:23:12.464Z</time>
      </trkpt>
      <trkpt lat="64.23275" lon="20.96899">
        <ele>44.159797</ele>
        <time>2020-09-29T08:23:14.445Z</time>
      </trkpt>
      <trkpt lat="64.23273" lon="20.96879">
        <ele>44.15674</ele>
        <time>2020-09-29T08:23:16.449Z</time>
      </trkpt>
      <trkpt lat="64.23272" lon="20.96858">
        <ele>44.153661</ele>
        <time>2020-09-29T08:23:18.452Z</time>
      </trkpt>
      <trkpt lat="64.23269" lon="20.96828">
        <ele>44.149127</ele>
        <time>2020-09-29T08:23:21.447Z</time>
      </trkpt>
      <trkpt lat="64.23267" lon="20.96808">
        <ele>44.146038</ele>
        <time>2020-09-29T08:23:23.497Z</time>
      </trkpt>
      <trkpt lat="64.23264" lon="20.96787">
        <ele>44.142886</ele>
        <time>2020-09-29T08:23:25.462Z</time>
      </trkpt>
      <trkpt lat="64.23262" lon="20.96765">
        <ele>44.139533</ele>
        <time>2020-09-29T08:23:27.493Z</time>
      </trkpt>
      <trkpt lat="64.2326" lon="20.96743">
        <ele>44.136239</ele>
        <time>2020-09-29T08:23:29.448Z</time>
      </trkpt>
      <trkpt lat="64.23257" lon="20.96721">
        <ele>44.132827</ele>
        <time>2020-09-29T08:23:31.491Z</time>
      </trkpt>
      <trkpt lat="64.23255" lon="20.96698">
        <ele>44.129447</ele>
        <time>2020-09-29T08:23:33.460Z</time>
      </trkpt>
      <trkpt lat="64.23253" lon="20.96676">
        <ele>44.134055</ele>
        <time>2020-09-29T08:23:35.444Z</time>
      </trkpt>
      <trkpt lat="64.23251" lon="20.96654">
        <ele>44.26204</ele>
        <time>2020-09-29T08:23:37.459Z</time>
      </trkpt>
      <trkpt lat="64.23249" lon="20.9663">
        <ele>44.396419</ele>
        <time>2020-09-29T08:23:39.489Z</time>
      </trkpt>
      <trkpt lat="64.23247" lon="20.96607">
        <ele>44.528274</ele>
        <time>2020-09-29T08:23:41.462Z</time>
      </trkpt>
      <trkpt lat="64.23245" lon="20.96585">
        <ele>44.659852</ele>
        <time>2020-09-29T08:23:43.463Z</time>
      </trkpt>
      <trkpt lat="64.23243" lon="20.96563">
        <ele>44.787036</ele>
        <time>2020-09-29T08:23:45.450Z</time>
      </trkpt>
      <trkpt lat="64.2324" lon="20.96541">
        <ele>44.911796</ele>
        <time>2020-09-29T08:23:47.458Z</time>
      </trkpt>
      <trkpt lat="64.23238" lon="20.96521">
        <ele>45.032052</ele>
        <time>2020-09-29T08:23:49.453Z</time>
      </trkpt>
      <trkpt lat="64.23236" lon="20.965">
        <ele>45.151206</ele>
        <time>2020-09-29T08:23:51.455Z</time>
      </trkpt>
      <trkpt lat="64.23233" lon="20.96471">
        <ele>45.319242</ele>
        <time>2020-09-29T08:23:54.494Z</time>
      </trkpt>
      <trkpt lat="64.2323" lon="20.96443">
        <ele>45.481983</ele>
        <time>2020-09-29T08:23:57.450Z</time>
      </trkpt>
      <trkpt lat="64.23228" lon="20.96415">
        <ele>45.644175</ele>
        <time>2020-09-29T08:24:00.450Z</time>
      </trkpt>
      <trkpt lat="64.23225" lon="20.96388">
        <ele>45.801419</ele>
        <time>2020-09-29T08:24:03.463Z</time>
      </trkpt>
      <trkpt lat="64.23223" lon="20.9636">
        <ele>45.958221</ele>
        <time>2020-09-29T08:24:06.452Z</time>
      </trkpt>
      <trkpt lat="64.23221" lon="20.96331">
        <ele>46.127185</ele>
        <time>2020-09-29T08:24:09.512Z</time>
      </trkpt>
      <trkpt lat="64.23219" lon="20.96309">
        <ele>46.251658</ele>
        <time>2020-09-29T08:24:11.460Z</time>
      </trkpt>
      <trkpt lat="64.23217" lon="20.96288">
        <ele>46.371641</ele>
        <time>2020-09-29T08:24:13.452Z</time>
      </trkpt>
      <trkpt lat="64.23215" lon="20.96268">
        <ele>46.467906</ele>
        <time>2020-09-29T08:24:15.476Z</time>
      </trkpt>
      <trkpt lat="64.23213" lon="20.96247">
        <ele>46.494649</ele>
        <time>2020-09-29T08:24:17.469Z</time>
      </trkpt>
      <trkpt lat="64.23211" lon="20.96227">
        <ele>46.520122</ele>
        <time>2020-09-29T08:24:19.449Z</time>
      </trkpt>
      <trkpt lat="64.23209" lon="20.96206">
        <ele>46.546307</ele>
        <time>2020-09-29T08:24:21.464Z</time>
      </trkpt>
      <trkpt lat="64.23207" lon="20.96184">
        <ele>46.573175</ele>
        <time>2020-09-29T08:24:23.496Z</time>
      </trkpt>
      <trkpt lat="64.23205" lon="20.96163">
        <ele>46.599002</ele>
        <time>2020-09-29T08:24:25.495Z</time>
      </trkpt>
      <trkpt lat="64.23202" lon="20.96134">
        <ele>46.635714</ele>
        <time>2020-09-29T08:24:28.480Z</time>
      </trkpt>
      <trkpt lat="64.23198" lon="20.96106">
        <ele>46.670734</ele>
        <time>2020-09-29T08:24:31.465Z</time>
      </trkpt>
      <trkpt lat="64.23195" lon="20.9608">
        <ele>46.704162</ele>
        <time>2020-09-29T08:24:34.504Z</time>
      </trkpt>
      <trkpt lat="64.23192" lon="20.96053">
        <ele>46.737709</ele>
        <time>2020-09-29T08:24:37.459Z</time>
      </trkpt>
      <trkpt lat="64.2319" lon="20.96027">
        <ele>46.770714</ele>
        <time>2020-09-29T08:24:40.451Z</time>
      </trkpt>
      <trkpt lat="64.23186" lon="20.96002">
        <ele>46.802098</ele>
        <time>2020-09-29T08:24:43.477Z</time>
      </trkpt>
      <trkpt lat="64.23184" lon="20.95978">
        <ele>46.832582</ele>
        <time>2020-09-29T08:24:46.464Z</time>
      </trkpt>
      <trkpt lat="64.23182" lon="20.95953">
        <ele>46.864135</ele>
        <time>2020-09-29T08:24:49.449Z</time>
      </trkpt>
      <trkpt lat="64.2318" lon="20.95929">
        <ele>46.894026</ele>
        <time>2020-09-29T08:24:52.467Z</time>
      </trkpt>
      <trkpt lat="64.23177" lon="20.95905">
        <ele>46.924391</ele>
        <time>2020-09-29T08:24:55.451Z</time>
      </trkpt>
      <trkpt lat="64.23176" lon="20.95879">
        <ele>46.956309</ele>
        <time>2020-09-29T08:24:58.442Z</time>
      </trkpt>
      <trkpt lat="64.23173" lon="20.95854">
        <ele>47.049943</ele>
        <time>2020-09-29T08:25:01.464Z</time>
      </trkpt>
      <trkpt lat="64.23171" lon="20.9583">
        <ele>47.179368</ele>
        <time>2020-09-29T08:25:04.452Z</time>
      </trkpt>
      <trkpt lat="64.23168" lon="20.95804">
        <ele>47.312596</ele>
        <time>2020-09-29T08:25:07.471Z</time>
      </trkpt>
      <trkpt lat="64.23166" lon="20.95778">
        <ele>47.449988</ele>
        <time>2020-09-29T08:25:10.469Z</time>
      </trkpt>
      <trkpt lat="64.23163" lon="20.95752">
        <ele>47.585682</ele>
        <time>2020-09-29T08:25:13.479Z</time>
      </trkpt>
      <trkpt lat="64.23161" lon="20.95727">
        <ele>47.716101</ele>
        <time>2020-09-29T08:25:16.460Z</time>
      </trkpt>
      <trkpt lat="64.23158" lon="20.95702">
        <ele>47.845042</ele>
        <time>2020-09-29T08:25:19.445Z</time>
      </trkpt>
      <trkpt lat="64.23156" lon="20.95677">
        <ele>47.972284</ele>
        <time>2020-09-29T08:25:22.465Z</time>
      </trkpt>
      <trkpt lat="64.23153" lon="20.95654">
        <ele>48.095868</ele>
        <time>2020-09-29T08:25:25.476Z</time>
      </trkpt>
      <trkpt lat="64.2315" lon="20.9563">
        <ele>48.222027</ele>
        <time>2020-09-29T08:25:28.460Z</time>
      </trkpt>
      <trkpt lat="64.23148" lon="20.95606">
        <ele>48.346405</ele>
        <time>2020-09-29T08:25:31.446Z</time>
      </trkpt>
      <trkpt lat="64.23145" lon="20.95583">
        <ele>48.467632</ele>
        <time>2020-09-29T08:25:34.452Z</time>
      </trkpt>
      <trkpt lat="64.23143" lon="20.95561">
        <ele>48.584435</ele>
        <time>2020-09-29T08:25:37.504Z</time>
      </trkpt>
      <trkpt lat="64.23141" lon="20.95537">
        <ele>48.705256</ele>
        <time>2020-09-29T08:25:40.477Z</time>
      </trkpt>
      <trkpt lat="64.23139" lon="20.95515">
        <ele>48.82329</ele>
        <time>2020-09-29T08:25:43.455Z</time>
      </trkpt>
      <trkpt lat="64.23137" lon="20.95492">
        <ele>48.942292</ele>
        <time>2020-09-29T08:25:46.472Z</time>
      </trkpt>
      <trkpt lat="64.23135" lon="20.9547">
        <ele>49.05806</ele>
        <time>2020-09-29T08:25:49.463Z</time>
      </trkpt>
      <trkpt lat="64.23132" lon="20.95447">
        <ele>49.243103</ele>
        <time>2020-09-29T08:25:52.450Z</time>
      </trkpt>
      <trkpt lat="64.2313" lon="20.95424">
        <ele>49.436606</ele>
        <time>2020-09-29T08:25:55.450Z</time>
      </trkpt>
      <trkpt lat="64.23128" lon="20.95402">
        <ele>49.621245</ele>
        <time>2020-09-29T08:25:58.477Z</time>
      </trkpt>
      <trkpt lat="64.23126" lon="20.9538">
        <ele>49.808655</ele>
        <time>2020-09-29T08:26:01.470Z</time>
      </trkpt>
      <trkpt lat="64.23124" lon="20.95357">
        <ele>50.001303</ele>
        <time>2020-09-29T08:26:04.482Z</time>
      </trkpt>
      <trkpt lat="64.23122" lon="20.95335">
        <ele>50.185086</ele>
        <time>2020-09-29T08:26:07.453Z</time>
      </trkpt>
      <trkpt lat="64.23119" lon="20.95314">
        <ele>50.366082</ele>
        <time>2020-09-29T08:26:10.452Z</time>
      </trkpt>
      <trkpt lat="64.23117" lon="20.95292">
        <ele>50.545441</ele>
        <time>2020-09-29T08:26:13.484Z</time>
      </trkpt>
      <trkpt lat="64.23115" lon="20.9527">
        <ele>50.732046</ele>
        <time>2020-09-29T08:26:16.449Z</time>
      </trkpt>
      <trkpt lat="64.23113" lon="20.95247">
        <ele>50.928708</ele>
        <time>2020-09-29T08:26:19.467Z</time>
      </trkpt>
      <trkpt lat="64.23112" lon="20.95224">
        <ele>51.117162</ele>
        <time>2020-09-29T08:26:22.454Z</time>
      </trkpt>
      <trkpt lat="64.2311" lon="20.95202">
        <ele>51.304574</ele>
        <time>2020-09-29T08:26:25.484Z</time>
      </trkpt>
      <trkpt lat="64.23108" lon="20.95181">
        <ele>51.481702</ele>
        <time>2020-09-29T08:26:28.467Z</time>
      </trkpt>
      <trkpt lat="64.23105" lon="20.95158">
        <ele>51.680394</ele>
        <time>2020-09-29T08:26:31.442Z</time>
      </trkpt>
      <trkpt lat="64.23103" lon="20.95136">
        <ele>51.865121</ele>
        <time>2020-09-29T08:26:34.459Z</time>
      </trkpt>
      <trkpt lat="64.23101" lon="20.95115">
        <ele>52.04046</ele>
        <time>2020-09-29T08:26:37.471Z</time>
      </trkpt>
      <trkpt lat="64.23098" lon="20.95094">
        <ele>52.217553</ele>
        <time>2020-09-29T08:26:40.480Z</time>
      </trkpt>
      <trkpt lat="64.23096" lon="20.95074">
        <ele>52.392284</ele>
        <time>2020-09-29T08:26:43.460Z</time>
      </trkpt>
      <trkpt lat="64.23093" lon="20.95051">
        <ele>52.584729</ele>
        <time>2020-09-29T08:26:46.460Z</time>
      </trkpt>
      <trkpt lat="64.2309" lon="20.95029">
        <ele>52.775335</ele>
        <time>2020-09-29T08:26:49.463Z</time>
      </trkpt>
      <trkpt lat="64.23087" lon="20.95007">
        <ele>52.969269</ele>
        <time>2020-09-29T08:26:52.484Z</time>
      </trkpt>
      <trkpt lat="64.23083" lon="20.94983">
        <ele>53.176114</ele>
        <time>2020-09-29T08:26:55.443Z</time>
      </trkpt>
      <trkpt lat="64.23079" lon="20.94959">
        <ele>53.390707</ele>
        <time>2020-09-29T08:26:58.457Z</time>
      </trkpt>
      <trkpt lat="64.23074" lon="20.94935">
        <ele>53.605164</ele>
        <time>2020-09-29T08:27:01.494Z</time>
      </trkpt>
      <trkpt lat="64.23069" lon="20.94911">
        <ele>53.828054</ele>
        <time>2020-09-29T08:27:04.452Z</time>
      </trkpt>
      <trkpt lat="64.23063" lon="20.94887">
        <ele>54.049812</ele>
        <time>2020-09-29T08:27:07.463Z</time>
      </trkpt>
      <trkpt lat="64.23057" lon="20.94864">
        <ele>54.283956</ele>
        <time>2020-09-29T08:27:10.448Z</time>
      </trkpt>
      <trkpt lat="64.23049" lon="20.94842">
        <ele>54.509846</ele>
        <time>2020-09-29T08:27:13.492Z</time>
      </trkpt>
      <trkpt lat="64.23042" lon="20.94821">
        <ele>54.730986</ele>
        <time>2020-09-29T08:27:16.481Z</time>
      </trkpt>
      <trkpt lat="64.23035" lon="20.94799">
        <ele>54.955724</ele>
        <time>2020-09-29T08:27:19.463Z</time>
      </trkpt>
      <trkpt lat="64.23027" lon="20.94778">
        <ele>55.186279</ele>
        <time>2020-09-29T08:27:22.467Z</time>
      </trkpt>
      <trkpt lat="64.23019" lon="20.94757">
        <ele>55.413774</ele>
        <time>2020-09-29T08:27:25.463Z</time>
      </trkpt>
      <trkpt lat="64.23011" lon="20.94736">
        <ele>55.641838</ele>
        <time>2020-09-29T08:27:28.452Z</time>
      </trkpt>
      <trkpt lat="64.23004" lon="20.94718">
        <ele>55.84875</ele>
        <time>2020-09-29T08:27:31.471Z</time>
      </trkpt>
      <trkpt lat="64.22997" lon="20.947">
        <ele>56.068943</ele>
        <time>2020-09-29T08:27:34.449Z</time>
      </trkpt>
      <trkpt lat="64.2299" lon="20.94682">
        <ele>56.296367</ele>
        <time>2020-09-29T08:27:37.447Z</time>
      </trkpt>
      <trkpt lat="64.22984" lon="20.94663">
        <ele>56.512067</ele>
        <time>2020-09-29T08:27:40.483Z</time>
      </trkpt>
      <trkpt lat="64.22977" lon="20.94646">
        <ele>56.734596</ele>
        <time>2020-09-29T08:27:43.467Z</time>
      </trkpt>
      <trkpt lat="64.22969" lon="20.94629">
        <ele>56.95667</ele>
        <time>2020-09-29T08:27:46.464Z</time>
      </trkpt>
      <trkpt lat="64.22963" lon="20.94613">
        <ele>57.164739</ele>
        <time>2020-09-29T08:27:49.443Z</time>
      </trkpt>
      <trkpt lat="64.22955" lon="20.94593">
        <ele>57.412566</ele>
        <time>2020-09-29T08:27:52.446Z</time>
      </trkpt>
      <trkpt lat="64.22947" lon="20.94573">
        <ele>57.664653</ele>
        <time>2020-09-29T08:27:55.459Z</time>
      </trkpt>
      <trkpt lat="64.22939" lon="20.94552">
        <ele>57.928728</ele>
        <time>2020-09-29T08:27:58.484Z</time>
      </trkpt>
      <trkpt lat="64.22931" lon="20.9453">
        <ele>58.196253</ele>
        <time>2020-09-29T08:28:01.456Z</time>
      </trkpt>
      <trkpt lat="64.22922" lon="20.94508">
        <ele>58.465885</ele>
        <time>2020-09-29T08:28:04.460Z</time>
      </trkpt>
      <trkpt lat="64.22914" lon="20.94487">
        <ele>58.73694</ele>
        <time>2020-09-29T08:28:07.483Z</time>
      </trkpt>
      <trkpt lat="64.22905" lon="20.94465">
        <ele>59.009427</ele>
        <time>2020-09-29T08:28:10.452Z</time>
      </trkpt>
      <trkpt lat="64.22898" lon="20.94446">
        <ele>59.253741</ele>
        <time>2020-09-29T08:28:13.461Z</time>
      </trkpt>
      <trkpt lat="64.2289" lon="20.94426">
        <ele>59.498029</ele>
        <time>2020-09-29T08:28:16.446Z</time>
      </trkpt>
      <trkpt lat="64.22883" lon="20.94406">
        <ele>59.743732</ele>
        <time>2020-09-29T08:28:19.449Z</time>
      </trkpt>
      <trkpt lat="64.22875" lon="20.94385">
        <ele>60.358801</ele>
        <time>2020-09-29T08:28:22.480Z</time>
      </trkpt>
      <trkpt lat="64.22867" lon="20.94366">
        <ele>60.960385</ele>
        <time>2020-09-29T08:28:25.472Z</time>
      </trkpt>
      <trkpt lat="64.2286" lon="20.94346">
        <ele>61.539852</ele>
        <time>2020-09-29T08:28:28.461Z</time>
      </trkpt>
      <trkpt lat="64.22852" lon="20.94327">
        <ele>62.130506</ele>
        <time>2020-09-29T08:28:31.451Z</time>
      </trkpt>
      <trkpt lat="64.22845" lon="20.94307">
        <ele>62.705249</ele>
        <time>2020-09-29T08:28:34.485Z</time>
      </trkpt>
      <trkpt lat="64.22838" lon="20.9429">
        <ele>63.254665</ele>
        <time>2020-09-29T08:28:37.477Z</time>
      </trkpt>
      <trkpt lat="64.2283" lon="20.94271">
        <ele>63.820972</ele>
        <time>2020-09-29T08:28:40.447Z</time>
      </trkpt>
      <trkpt lat="64.22823" lon="20.94253">
        <ele>64.366859</ele>
        <time>2020-09-29T08:28:43.468Z</time>
      </trkpt>
      <trkpt lat="64.22816" lon="20.94237">
        <ele>64.870133</ele>
        <time>2020-09-29T08:28:46.447Z</time>
      </trkpt>
      <trkpt lat="64.2281" lon="20.9422">
        <ele>65.364884</ele>
        <time>2020-09-29T08:28:49.477Z</time>
      </trkpt>
      <trkpt lat="64.22804" lon="20.94205">
        <ele>65.827693</ele>
        <time>2020-09-29T08:28:52.445Z</time>
      </trkpt>
      <trkpt lat="64.22797" lon="20.94188">
        <ele>66.349683</ele>
        <time>2020-09-29T08:28:56.458Z</time>
      </trkpt>
      <trkpt lat="64.2279" lon="20.9417">
        <ele>66.874936</ele>
        <time>2020-09-29T08:29:00.469Z</time>
      </trkpt>
      <trkpt lat="64.22785" lon="20.94153">
        <ele>67.35742</ele>
        <time>2020-09-29T08:29:04.454Z</time>
      </trkpt>
      <trkpt lat="64.22778" lon="20.94134">
        <ele>67.926799</ele>
        <time>2020-09-29T08:29:09.444Z</time>
      </trkpt>
      <trkpt lat="64.22773" lon="20.94113">
        <ele>68.467488</ele>
        <time>2020-09-29T08:29:14.443Z</time>
      </trkpt>
      <trkpt lat="64.22765" lon="20.94095">
        <ele>69.005216</ele>
        <time>2020-09-29T08:29:19.452Z</time>
      </trkpt>
      <trkpt lat="64.22759" lon="20.94078">
        <ele>69.329421</ele>
        <time>2020-09-29T08:29:24.492Z</time>
      </trkpt>
      <trkpt lat="64.22753" lon="20.94061">
        <ele>69.649499</ele>
        <time>2020-09-29T08:29:29.482Z</time>
      </trkpt>
      <trkpt lat="64.22746" lon="20.9404">
        <ele>70.010623</ele>
        <time>2020-09-29T08:29:34.493Z</time>
      </trkpt>
      <trkpt lat="64.2274" lon="20.9402">
        <ele>70.352944</ele>
        <time>2020-09-29T08:29:39.467Z</time>
      </trkpt>
      <trkpt lat="64.22734" lon="20.94">
        <ele>70.696936</ele>
        <time>2020-09-29T08:29:44.488Z</time>
      </trkpt>
      <trkpt lat="64.22731" lon="20.93978">
        <ele>71.0317</ele>
        <time>2020-09-29T08:29:48.467Z</time>
      </trkpt>
      <trkpt lat="64.22727" lon="20.93957">
        <ele>71.355801</ele>
        <time>2020-09-29T08:29:52.473Z</time>
      </trkpt>
      <trkpt lat="64.22722" lon="20.93935">
        <ele>71.705987</ele>
        <time>2020-09-29T08:29:56.497Z</time>
      </trkpt>
      <trkpt lat="64.22717" lon="20.93913">
        <ele>72.065134</ele>
        <time>2020-09-29T08:30:00.444Z</time>
      </trkpt>
      <trkpt lat="64.22711" lon="20.9389">
        <ele>72.431617</ele>
        <time>2020-09-29T08:30:04.460Z</time>
      </trkpt>
      <trkpt lat="64.22707" lon="20.93868">
        <ele>72.775218</ele>
        <time>2020-09-29T08:30:07.492Z</time>
      </trkpt>
      <trkpt lat="64.22702" lon="20.93844">
        <ele>73.151186</ele>
        <time>2020-09-29T08:30:10.471Z</time>
      </trkpt>
      <trkpt lat="64.22697" lon="20.93818">
        <ele>73.550483</ele>
        <time>2020-09-29T08:30:13.468Z</time>
      </trkpt>
      <trkpt lat="64.22692" lon="20.93791">
        <ele>73.97325</ele>
        <time>2020-09-29T08:30:16.470Z</time>
      </trkpt>
      <trkpt lat="64.22688" lon="20.93772">
        <ele>74.267544</ele>
        <time>2020-09-29T08:30:18.451Z</time>
      </trkpt>
      <trkpt lat="64.22684" lon="20.93752">
        <ele>74.572196</ele>
        <time>2020-09-29T08:30:20.476Z</time>
      </trkpt>
      <trkpt lat="64.22681" lon="20.93732">
        <ele>74.876883</ele>
        <time>2020-09-29T08:30:22.474Z</time>
      </trkpt>
      <trkpt lat="64.22677" lon="20.93711">
        <ele>74.335361</ele>
        <time>2020-09-29T08:30:24.451Z</time>
      </trkpt>
      <trkpt lat="64.22673" lon="20.93691">
        <ele>73.796287</ele>
        <time>2020-09-29T08:30:26.480Z</time>
      </trkpt>
      <trkpt lat="64.2267" lon="20.9367">
        <ele>73.261396</ele>
        <time>2020-09-29T08:30:28.456Z</time>
      </trkpt>
      <trkpt lat="64.22666" lon="20.93649">
        <ele>72.706581</ele>
        <time>2020-09-29T08:30:30.446Z</time>
      </trkpt>
      <trkpt lat="64.22662" lon="20.93628">
        <ele>72.15863</ele>
        <time>2020-09-29T08:30:32.459Z</time>
      </trkpt>
      <trkpt lat="64.22658" lon="20.93608">
        <ele>71.599266</ele>
        <time>2020-09-29T08:30:34.447Z</time>
      </trkpt>
      <trkpt lat="64.22653" lon="20.93587">
        <ele>71.03683</ele>
        <time>2020-09-29T08:30:36.445Z</time>
      </trkpt>
      <trkpt lat="64.22649" lon="20.93566">
        <ele>70.468676</ele>
        <time>2020-09-29T08:30:38.447Z</time>
      </trkpt>
      <trkpt lat="64.22645" lon="20.93545">
        <ele>69.911752</ele>
        <time>2020-09-29T08:30:40.472Z</time>
      </trkpt>
      <trkpt lat="64.22642" lon="20.93523">
        <ele>69.356453</ele>
        <time>2020-09-29T08:30:42.445Z</time>
      </trkpt>
      <trkpt lat="64.22638" lon="20.93501">
        <ele>68.777354</ele>
        <time>2020-09-29T08:30:44.479Z</time>
      </trkpt>
      <trkpt lat="64.22633" lon="20.93479">
        <ele>68.173645</ele>
        <time>2020-09-29T08:30:46.453Z</time>
      </trkpt>
      <trkpt lat="64.22628" lon="20.93456">
        <ele>67.57418</ele>
        <time>2020-09-29T08:30:48.460Z</time>
      </trkpt>
      <trkpt lat="64.22624" lon="20.93433">
        <ele>66.95047</ele>
        <time>2020-09-29T08:30:50.532Z</time>
      </trkpt>
      <trkpt lat="64.2262" lon="20.93409">
        <ele>66.326757</ele>
        <time>2020-09-29T08:30:52.456Z</time>
      </trkpt>
      <trkpt lat="64.22616" lon="20.93386">
        <ele>65.71811</ele>
        <time>2020-09-29T08:30:54.497Z</time>
      </trkpt>
      <trkpt lat="64.22612" lon="20.93363">
        <ele>65.118866</ele>
        <time>2020-09-29T08:30:56.473Z</time>
      </trkpt>
      <trkpt lat="64.22607" lon="20.9334">
        <ele>64.93497</ele>
        <time>2020-09-29T08:30:58.462Z</time>
      </trkpt>
      <trkpt lat="64.22603" lon="20.93318">
        <ele>65.128648</ele>
        <time>2020-09-29T08:31:00.474Z</time>
      </trkpt>
      <trkpt lat="64.226" lon="20.93294">
        <ele>65.327175</ele>
        <time>2020-09-29T08:31:02.473Z</time>
      </trkpt>
      <trkpt lat="64.22596" lon="20.93272">
        <ele>65.517096</ele>
        <time>2020-09-29T08:31:04.466Z</time>
      </trkpt>
      <trkpt lat="64.22592" lon="20.93249">
        <ele>65.710827</ele>
        <time>2020-09-29T08:31:06.488Z</time>
      </trkpt>
      <trkpt lat="64.22588" lon="20.93226">
        <ele>65.910385</ele>
        <time>2020-09-29T08:31:08.480Z</time>
      </trkpt>
      <trkpt lat="64.22585" lon="20.93204">
        <ele>66.098393</ele>
        <time>2020-09-29T08:31:10.452Z</time>
      </trkpt>
      <trkpt lat="64.22581" lon="20.93182">
        <ele>66.287804</ele>
        <time>2020-09-29T08:31:12.450Z</time>
      </trkpt>
      <trkpt lat="64.22577" lon="20.93162">
        <ele>66.46681</ele>
        <time>2020-09-29T08:31:14.461Z</time>
      </trkpt>
      <trkpt lat="64.22574" lon="20.93141">
        <ele>66.644383</ele>
        <time>2020-09-29T08:31:16.453Z</time>
      </trkpt>
      <trkpt lat="64.2257" lon="20.93121">
        <ele>66.815394</ele>
        <time>2020-09-29T08:31:18.476Z</time>
      </trkpt>
      <trkpt lat="64.22567" lon="20.93101">
        <ele>66.990709</ele>
        <time>2020-09-29T08:31:20.452Z</time>
      </trkpt>
      <trkpt lat="64.22564" lon="20.9308">
        <ele>67.168088</ele>
        <time>2020-09-29T08:31:22.463Z</time>
      </trkpt>
      <trkpt lat="64.2256" lon="20.93059">
        <ele>67.349568</ele>
        <time>2020-09-29T08:31:24.462Z</time>
      </trkpt>
      <trkpt lat="64.22557" lon="20.93039">
        <ele>67.52002</ele>
        <time>2020-09-29T08:31:26.449Z</time>
      </trkpt>
      <trkpt lat="64.22554" lon="20.93019">
        <ele>67.691777</ele>
        <time>2020-09-29T08:31:28.461Z</time>
      </trkpt>
      <trkpt lat="64.22549" lon="20.92997">
        <ele>67.884068</ele>
        <time>2020-09-29T08:31:30.440Z</time>
      </trkpt>
      <trkpt lat="64.22544" lon="20.92976">
        <ele>68.07328</ele>
        <time>2020-09-29T08:31:32.446Z</time>
      </trkpt>
      <trkpt lat="64.2254" lon="20.92954">
        <ele>68.134242</ele>
        <time>2020-09-29T08:31:34.464Z</time>
      </trkpt>
      <trkpt lat="64.22536" lon="20.92932">
        <ele>68.126578</ele>
        <time>2020-09-29T08:31:36.499Z</time>
      </trkpt>
      <trkpt lat="64.22532" lon="20.9291">
        <ele>68.118759</ele>
        <time>2020-09-29T08:31:38.463Z</time>
      </trkpt>
      <trkpt lat="64.22529" lon="20.92889">
        <ele>68.111536</ele>
        <time>2020-09-29T08:31:40.469Z</time>
      </trkpt>
      <trkpt lat="64.22526" lon="20.92869">
        <ele>68.104425</ele>
        <time>2020-09-29T08:31:42.516Z</time>
      </trkpt>
      <trkpt lat="64.22522" lon="20.92849">
        <ele>68.097494</ele>
        <time>2020-09-29T08:31:44.474Z</time>
      </trkpt>
      <trkpt lat="64.22518" lon="20.9282">
        <ele>68.087601</ele>
        <time>2020-09-29T08:31:47.462Z</time>
      </trkpt>
      <trkpt lat="64.22513" lon="20.92792">
        <ele>68.077811</ele>
        <time>2020-09-29T08:31:50.443Z</time>
      </trkpt>
      <trkpt lat="64.22508" lon="20.92766">
        <ele>68.068228</ele>
        <time>2020-09-29T08:31:53.457Z</time>
      </trkpt>
      <trkpt lat="64.22503" lon="20.92738">
        <ele>68.058258</ele>
        <time>2020-09-29T08:31:56.452Z</time>
      </trkpt>
      <trkpt lat="64.22499" lon="20.92718">
        <ele>68.051313</ele>
        <time>2020-09-29T08:31:58.481Z</time>
      </trkpt>
      <trkpt lat="64.22495" lon="20.927">
        <ele>68.044539</ele>
        <time>2020-09-29T08:32:00.457Z</time>
      </trkpt>
      <trkpt lat="64.22491" lon="20.9268">
        <ele>68.037493</ele>
        <time>2020-09-29T08:32:02.493Z</time>
      </trkpt>
      <trkpt lat="64.22486" lon="20.92652">
        <ele>68.027581</ele>
        <time>2020-09-29T08:32:05.483Z</time>
      </trkpt>
      <trkpt lat="64.22481" lon="20.92624">
        <ele>68.017609</ele>
        <time>2020-09-29T08:32:08.453Z</time>
      </trkpt>
      <trkpt lat="64.22475" lon="20.92598">
        <ele>68.007948</ele>
        <time>2020-09-29T08:32:11.458Z</time>
      </trkpt>
      <trkpt lat="64.22471" lon="20.92578">
        <ele>68.403053</ele>
        <time>2020-09-29T08:32:13.442Z</time>
      </trkpt>
      <trkpt lat="64.22467" lon="20.92551">
        <ele>69.545625</ele>
        <time>2020-09-29T08:32:16.483Z</time>
      </trkpt>
      <trkpt lat="64.22463" lon="20.92526">
        <ele>70.599218</ele>
        <time>2020-09-29T08:32:19.461Z</time>
      </trkpt>
      <trkpt lat="64.22459" lon="20.92501">
        <ele>71.643952</ele>
        <time>2020-09-29T08:32:22.467Z</time>
      </trkpt>
      <trkpt lat="64.22455" lon="20.92478">
        <ele>72.651687</ele>
        <time>2020-09-29T08:32:25.457Z</time>
      </trkpt>
      <trkpt lat="64.22451" lon="20.92457">
        <ele>73.550691</ele>
        <time>2020-09-29T08:32:28.464Z</time>
      </trkpt>
      <trkpt lat="64.22448" lon="20.92436">
        <ele>74.390992</ele>
        <time>2020-09-29T08:32:31.460Z</time>
      </trkpt>
      <trkpt lat="64.22444" lon="20.92413">
        <ele>75.406275</ele>
        <time>2020-09-29T08:32:35.452Z</time>
      </trkpt>
      <trkpt lat="64.22438" lon="20.92392">
        <ele>76.358091</ele>
        <time>2020-09-29T08:32:39.491Z</time>
      </trkpt>
      <trkpt lat="64.22433" lon="20.92371">
        <ele>77.337482</ele>
        <time>2020-09-29T08:32:43.484Z</time>
      </trkpt>
      <trkpt lat="64.22429" lon="20.92347">
        <ele>78.3424</ele>
        <time>2020-09-29T08:32:47.490Z</time>
      </trkpt>
      <trkpt lat="64.22425" lon="20.92324">
        <ele>79.32192</ele>
        <time>2020-09-29T08:32:51.456Z</time>
      </trkpt>
      <trkpt lat="64.22422" lon="20.923">
        <ele>80.313139</ele>
        <time>2020-09-29T08:32:55.468Z</time>
      </trkpt>
      <trkpt lat="64.22419" lon="20.92278">
        <ele>81.216908</ele>
        <time>2020-09-29T08:32:59.466Z</time>
      </trkpt>
      <trkpt lat="64.22415" lon="20.92257">
        <ele>82.112869</ele>
        <time>2020-09-29T08:33:03.455Z</time>
      </trkpt>
      <trkpt lat="64.22411" lon="20.92236">
        <ele>83.044675</ele>
        <time>2020-09-29T08:33:07.462Z</time>
      </trkpt>
      <trkpt lat="64.22408" lon="20.92213">
        <ele>83.992736</ele>
        <time>2020-09-29T08:33:11.460Z</time>
      </trkpt>
      <trkpt lat="64.22405" lon="20.92191">
        <ele>84.673633</ele>
        <time>2020-09-29T08:33:15.464Z</time>
      </trkpt>
      <trkpt lat="64.22402" lon="20.92172">
        <ele>85.177358</ele>
        <time>2020-09-29T08:33:19.440Z</time>
      </trkpt>
      <trkpt lat="64.22398" lon="20.92147">
        <ele>85.78355</ele>
        <time>2020-09-29T08:33:23.460Z</time>
      </trkpt>
      <trkpt lat="64.22395" lon="20.92124">
        <ele>86.363601</ele>
        <time>2020-09-29T08:33:27.447Z</time>
      </trkpt>
      <trkpt lat="64.22391" lon="20.92099">
        <ele>87.003329</ele>
        <time>2020-09-29T08:33:31.452Z</time>
      </trkpt>
      <trkpt lat="64.22387" lon="20.92076">
        <ele>87.600698</ele>
        <time>2020-09-29T08:33:35.451Z</time>
      </trkpt>
      <trkpt lat="64.22382" lon="20.92055">
        <ele>88.147763</ele>
        <time>2020-09-29T08:33:39.465Z</time>
      </trkpt>
      <trkpt lat="64.22378" lon="20.92033">
        <ele>88.738723</ele>
        <time>2020-09-29T08:33:43.466Z</time>
      </trkpt>
      <trkpt lat="64.22373" lon="20.92011">
        <ele>89.318501</ele>
        <time>2020-09-29T08:33:47.451Z</time>
      </trkpt>
      <trkpt lat="64.22369" lon="20.91989">
        <ele>89.906926</ele>
        <time>2020-09-29T08:33:51.469Z</time>
      </trkpt>
      <trkpt lat="64.22364" lon="20.91965">
        <ele>90.530819</ele>
        <time>2020-09-29T08:33:55.484Z</time>
      </trkpt>
      <trkpt lat="64.22359" lon="20.91945">
        <ele>91.069587</ele>
        <time>2020-09-29T08:33:59.447Z</time>
      </trkpt>
      <trkpt lat="64.22354" lon="20.91923">
        <ele>91.662532</ele>
        <time>2020-09-29T08:34:03.468Z</time>
      </trkpt>
      <trkpt lat="64.22349" lon="20.91905">
        <ele>92.166893</ele>
        <time>2020-09-29T08:34:06.498Z</time>
      </trkpt>
      <trkpt lat="64.22344" lon="20.91881">
        <ele>92.803674</ele>
        <time>2020-09-29T08:34:10.463Z</time>
      </trkpt>
      <trkpt lat="64.22339" lon="20.91862">
        <ele>93.328413</ele>
        <time>2020-09-29T08:34:13.457Z</time>
      </trkpt>
      <trkpt lat="64.22333" lon="20.91844">
        <ele>93.869104</ele>
        <time>2020-09-29T08:34:16.464Z</time>
      </trkpt>
      <trkpt lat="64.22327" lon="20.91824">
        <ele>94.059876</ele>
        <time>2020-09-29T08:34:19.504Z</time>
      </trkpt>
      <trkpt lat="64.22322" lon="20.91803">
        <ele>93.659861</ele>
        <time>2020-09-29T08:34:22.463Z</time>
      </trkpt>
      <trkpt lat="64.22315" lon="20.9178">
        <ele>93.22735</ele>
        <time>2020-09-29T08:34:25.489Z</time>
      </trkpt>
      <trkpt lat="64.22308" lon="20.91755">
        <ele>92.747419</ele>
        <time>2020-09-29T08:34:28.460Z</time>
      </trkpt>
      <trkpt lat="64.22301" lon="20.91731">
        <ele>92.261848</ele>
        <time>2020-09-29T08:34:31.463Z</time>
      </trkpt>
      <trkpt lat="64.22294" lon="20.91706">
        <ele>91.780506</ele>
        <time>2020-09-29T08:34:34.483Z</time>
      </trkpt>
      <trkpt lat="64.22287" lon="20.91682">
        <ele>91.308059</ele>
        <time>2020-09-29T08:34:37.453Z</time>
      </trkpt>
      <trkpt lat="64.2228" lon="20.91658">
        <ele>90.848472</ele>
        <time>2020-09-29T08:34:40.468Z</time>
      </trkpt>
      <trkpt lat="64.22272" lon="20.91635">
        <ele>90.386418</ele>
        <time>2020-09-29T08:34:43.463Z</time>
      </trkpt>
      <trkpt lat="64.22265" lon="20.91612">
        <ele>89.9218</ele>
        <time>2020-09-29T08:34:46.444Z</time>
      </trkpt>
      <trkpt lat="64.22258" lon="20.91587">
        <ele>89.451387</ele>
        <time>2020-09-29T08:34:49.481Z</time>
      </trkpt>
      <trkpt lat="64.22251" lon="20.91564">
        <ele>88.995774</ele>
        <time>2020-09-29T08:34:52.464Z</time>
      </trkpt>
      <trkpt lat="64.22245" lon="20.91541">
        <ele>88.553701</ele>
        <time>2020-09-29T08:34:55.468Z</time>
      </trkpt>
      <trkpt lat="64.22239" lon="20.91518">
        <ele>88.126251</ele>
        <time>2020-09-29T08:34:58.517Z</time>
      </trkpt>
      <trkpt lat="64.22233" lon="20.91494">
        <ele>87.682804</ele>
        <time>2020-09-29T08:35:01.462Z</time>
      </trkpt>
      <trkpt lat="64.22227" lon="20.91471">
        <ele>87.820819</ele>
        <time>2020-09-29T08:35:04.465Z</time>
      </trkpt>
      <trkpt lat="64.22221" lon="20.91449">
        <ele>88.267175</ele>
        <time>2020-09-29T08:35:07.447Z</time>
      </trkpt>
      <trkpt lat="64.22214" lon="20.91427">
        <ele>88.702062</ele>
        <time>2020-09-29T08:35:10.465Z</time>
      </trkpt>
      <trkpt lat="64.22208" lon="20.91406">
        <ele>89.123753</ele>
        <time>2020-09-29T08:35:13.468Z</time>
      </trkpt>
      <trkpt lat="64.22201" lon="20.91385">
        <ele>89.548937</ele>
        <time>2020-09-29T08:35:16.457Z</time>
      </trkpt>
      <trkpt lat="64.22194" lon="20.91364">
        <ele>89.973125</ele>
        <time>2020-09-29T08:35:19.449Z</time>
      </trkpt>
      <trkpt lat="64.22188" lon="20.91343">
        <ele>90.380298</ele>
        <time>2020-09-29T08:35:22.482Z</time>
      </trkpt>
      <trkpt lat="64.22182" lon="20.91323">
        <ele>90.795238</ele>
        <time>2020-09-29T08:35:25.462Z</time>
      </trkpt>
      <trkpt lat="64.22176" lon="20.91303">
        <ele>91.196833</ele>
        <time>2020-09-29T08:35:28.452Z</time>
      </trkpt>
      <trkpt lat="64.22171" lon="20.91285">
        <ele>91.556558</ele>
        <time>2020-09-29T08:35:31.465Z</time>
      </trkpt>
      <trkpt lat="64.22165" lon="20.91268">
        <ele>91.917405</ele>
        <time>2020-09-29T08:35:34.468Z</time>
      </trkpt>
      <trkpt lat="64.22159" lon="20.91251">
        <ele>92.262438</ele>
        <time>2020-09-29T08:35:37.474Z</time>
      </trkpt>
      <trkpt lat="64.22153" lon="20.91235">
        <ele>92.607473</ele>
        <time>2020-09-29T08:35:40.462Z</time>
      </trkpt>
      <trkpt lat="64.22146" lon="20.91213">
        <ele>93.060641</ele>
        <time>2020-09-29T08:35:44.462Z</time>
      </trkpt>
      <trkpt lat="64.22139" lon="20.91191">
        <ele>93.504006</ele>
        <time>2020-09-29T08:35:48.464Z</time>
      </trkpt>
      <trkpt lat="64.22132" lon="20.91172">
        <ele>93.91927</ele>
        <time>2020-09-29T08:35:52.461Z</time>
      </trkpt>
      <trkpt lat="64.22125" lon="20.91153">
        <ele>94.310987</ele>
        <time>2020-09-29T08:35:56.445Z</time>
      </trkpt>
      <trkpt lat="64.22118" lon="20.91136">
        <ele>94.179292</ele>
        <time>2020-09-29T08:36:00.464Z</time>
      </trkpt>
      <trkpt lat="64.22112" lon="20.91118">
        <ele>94.030479</ele>
        <time>2020-09-29T08:36:04.464Z</time>
      </trkpt>
      <trkpt lat="64.22107" lon="20.911">
        <ele>93.887154</ele>
        <time>2020-09-29T08:36:08.465Z</time>
      </trkpt>
      <trkpt lat="64.22101" lon="20.91079">
        <ele>93.729447</ele>
        <time>2020-09-29T08:36:12.450Z</time>
      </trkpt>
      <trkpt lat="64.22093" lon="20.91057">
        <ele>93.551944</ele>
        <time>2020-09-29T08:36:16.449Z</time>
      </trkpt>
      <trkpt lat="64.22088" lon="20.91041">
        <ele>93.417221</ele>
        <time>2020-09-29T08:36:19.472Z</time>
      </trkpt>
      <trkpt lat="64.22083" lon="20.91023">
        <ele>93.27783</ele>
        <time>2020-09-29T08:36:22.472Z</time>
      </trkpt>
      <trkpt lat="64.22077" lon="20.91002">
        <ele>93.123877</ele>
        <time>2020-09-29T08:36:25.473Z</time>
      </trkpt>
      <trkpt lat="64.2207" lon="20.90979">
        <ele>92.941797</ele>
        <time>2020-09-29T08:36:28.474Z</time>
      </trkpt>
      <trkpt lat="64.22064" lon="20.90962">
        <ele>92.800902</ele>
        <time>2020-09-29T08:36:30.502Z</time>
      </trkpt>
      <trkpt lat="64.22058" lon="20.90942">
        <ele>92.648715</ele>
        <time>2020-09-29T08:36:32.465Z</time>
      </trkpt>
      <trkpt lat="64.22052" lon="20.90921">
        <ele>92.482797</ele>
        <time>2020-09-29T08:36:34.471Z</time>
      </trkpt>
      <trkpt lat="64.22045" lon="20.909">
        <ele>92.305182</ele>
        <time>2020-09-29T08:36:36.465Z</time>
      </trkpt>
      <trkpt lat="64.22037" lon="20.90876">
        <ele>92.111432</ele>
        <time>2020-09-29T08:36:38.460Z</time>
      </trkpt>
      <trkpt lat="64.22028" lon="20.9085">
        <ele>91.903596</ele>
        <time>2020-09-29T08:36:40.448Z</time>
      </trkpt>
      <trkpt lat="64.22019" lon="20.90822">
        <ele>91.675505</ele>
        <time>2020-09-29T08:36:42.459Z</time>
      </trkpt>
      <trkpt lat="64.22009" lon="20.90793">
        <ele>90.524233</ele>
        <time>2020-09-29T08:36:44.450Z</time>
      </trkpt>
      <trkpt lat="64.21999" lon="20.90763">
        <ele>89.278848</ele>
        <time>2020-09-29T08:36:46.496Z</time>
      </trkpt>
      <trkpt lat="64.2199" lon="20.9073">
        <ele>87.956188</ele>
        <time>2020-09-29T08:36:48.464Z</time>
      </trkpt>
      <trkpt lat="64.21984" lon="20.90714">
        <ele>87.256145</ele>
        <time>2020-09-29T08:36:49.448Z</time>
      </trkpt>
      <trkpt lat="64.21978" lon="20.90697">
        <ele>86.529346</ele>
        <time>2020-09-29T08:36:50.466Z</time>
      </trkpt>
      <trkpt lat="64.21972" lon="20.90679">
        <ele>85.787732</ele>
        <time>2020-09-29T08:36:51.466Z</time>
      </trkpt>
      <trkpt lat="64.21965" lon="20.90662">
        <ele>85.033577</ele>
        <time>2020-09-29T08:36:52.470Z</time>
      </trkpt>
      <trkpt lat="64.21959" lon="20.90644">
        <ele>84.281266</ele>
        <time>2020-09-29T08:36:53.463Z</time>
      </trkpt>
      <trkpt lat="64.21953" lon="20.90626">
        <ele>83.519012</ele>
        <time>2020-09-29T08:36:54.460Z</time>
      </trkpt>
      <trkpt lat="64.21947" lon="20.90608">
        <ele>82.759357</ele>
        <time>2020-09-29T08:36:55.467Z</time>
      </trkpt>
      <trkpt lat="64.21941" lon="20.9059">
        <ele>82.004883</ele>
        <time>2020-09-29T08:36:56.488Z</time>
      </trkpt>
      <trkpt lat="64.21935" lon="20.90573">
        <ele>81.267189</ele>
        <time>2020-09-29T08:36:57.496Z</time>
      </trkpt>
      <trkpt lat="64.21929" lon="20.90556">
        <ele>80.55126</ele>
        <time>2020-09-29T08:36:58.464Z</time>
      </trkpt>
      <trkpt lat="64.21924" lon="20.90539">
        <ele>79.856453</ele>
        <time>2020-09-29T08:36:59.473Z</time>
      </trkpt>
      <trkpt lat="64.21913" lon="20.90508">
        <ele>78.530072</ele>
        <time>2020-09-29T08:37:01.453Z</time>
      </trkpt>
      <trkpt lat="64.21903" lon="20.90479">
        <ele>77.756644</ele>
        <time>2020-09-29T08:37:03.458Z</time>
      </trkpt>
      <trkpt lat="64.21894" lon="20.90453">
        <ele>77.448884</ele>
        <time>2020-09-29T08:37:05.462Z</time>
      </trkpt>
      <trkpt lat="64.21885" lon="20.90429">
        <ele>77.164504</ele>
        <time>2020-09-29T08:37:07.468Z</time>
      </trkpt>
      <trkpt lat="64.21878" lon="20.90406">
        <ele>76.899651</ele>
        <time>2020-09-29T08:37:09.464Z</time>
      </trkpt>
      <trkpt lat="64.21871" lon="20.90386">
        <ele>76.668989</ele>
        <time>2020-09-29T08:37:11.463Z</time>
      </trkpt>
      <trkpt lat="64.21865" lon="20.9037">
        <ele>76.476085</ele>
        <time>2020-09-29T08:37:13.487Z</time>
      </trkpt>
      <trkpt lat="64.21858" lon="20.90347">
        <ele>76.207201</ele>
        <time>2020-09-29T08:37:16.449Z</time>
      </trkpt>
      <trkpt lat="64.21851" lon="20.90325">
        <ele>75.951763</ele>
        <time>2020-09-29T08:37:19.511Z</time>
      </trkpt>
      <trkpt lat="64.21843" lon="20.90303">
        <ele>75.698351</ele>
        <time>2020-09-29T08:37:22.481Z</time>
      </trkpt>
      <trkpt lat="64.21837" lon="20.90283">
        <ele>75.467955</ele>
        <time>2020-09-29T08:37:25.461Z</time>
      </trkpt>
      <trkpt lat="64.21831" lon="20.90264">
        <ele>75.243816</ele>
        <time>2020-09-29T08:37:28.466Z</time>
      </trkpt>
      <trkpt lat="64.21824" lon="20.90245">
        <ele>75.026867</ele>
        <time>2020-09-29T08:37:31.465Z</time>
      </trkpt>
      <trkpt lat="64.21818" lon="20.90227">
        <ele>74.810244</ele>
        <time>2020-09-29T08:37:34.461Z</time>
      </trkpt>
      <trkpt lat="64.21813" lon="20.90208">
        <ele>74.599293</ele>
        <time>2020-09-29T08:37:37.445Z</time>
      </trkpt>
      <trkpt lat="64.21807" lon="20.90189">
        <ele>74.38766</ele>
        <time>2020-09-29T08:37:40.464Z</time>
      </trkpt>
      <trkpt lat="64.21801" lon="20.90172">
        <ele>74.183025</ele>
        <time>2020-09-29T08:37:43.446Z</time>
      </trkpt>
      <trkpt lat="64.21795" lon="20.90153">
        <ele>74.570083</ele>
        <time>2020-09-29T08:37:46.486Z</time>
      </trkpt>
      <trkpt lat="64.2179" lon="20.90136">
        <ele>75.222623</ele>
        <time>2020-09-29T08:37:49.454Z</time>
      </trkpt>
      <trkpt lat="64.21783" lon="20.90115">
        <ele>76.044058</ele>
        <time>2020-09-29T08:37:53.465Z</time>
      </trkpt>
      <trkpt lat="64.21777" lon="20.90094">
        <ele>76.850681</ele>
        <time>2020-09-29T08:37:57.447Z</time>
      </trkpt>
      <trkpt lat="64.21771" lon="20.90077">
        <ele>77.507432</ele>
        <time>2020-09-29T08:38:00.466Z</time>
      </trkpt>
      <trkpt lat="64.21766" lon="20.9006">
        <ele>78.167785</ele>
        <time>2020-09-29T08:38:03.450Z</time>
      </trkpt>
      <trkpt lat="64.2176" lon="20.90044">
        <ele>78.862264</ele>
        <time>2020-09-29T08:38:06.486Z</time>
      </trkpt>
      <trkpt lat="64.21754" lon="20.90026">
        <ele>79.557161</ele>
        <time>2020-09-29T08:38:09.463Z</time>
      </trkpt>
      <trkpt lat="64.21749" lon="20.90008">
        <ele>80.263943</ele>
        <time>2020-09-29T08:38:12.456Z</time>
      </trkpt>
      <trkpt lat="64.21743" lon="20.8999">
        <ele>80.953885</ele>
        <time>2020-09-29T08:38:15.481Z</time>
      </trkpt>
      <trkpt lat="64.21736" lon="20.89967">
        <ele>81.818471</ele>
        <time>2020-09-29T08:38:19.449Z</time>
      </trkpt>
      <trkpt lat="64.2173" lon="20.89945">
        <ele>82.659592</ele>
        <time>2020-09-29T08:38:23.462Z</time>
      </trkpt>
      <trkpt lat="64.21723" lon="20.89924">
        <ele>83.499797</ele>
        <time>2020-09-29T08:38:27.492Z</time>
      </trkpt>
      <trkpt lat="64.21717" lon="20.89907">
        <ele>84.160158</ele>
        <time>2020-09-29T08:38:30.462Z</time>
      </trkpt>
      <trkpt lat="64.21711" lon="20.89884">
        <ele>85.01814</ele>
        <time>2020-09-29T08:38:34.476Z</time>
      </trkpt>
      <trkpt lat="64.21706" lon="20.89867">
        <ele>85.673065</ele>
        <time>2020-09-29T08:38:37.483Z</time>
      </trkpt>
      <trkpt lat="64.217" lon="20.89848">
        <ele>86.402693</ele>
        <time>2020-09-29T08:38:40.484Z</time>
      </trkpt>
      <trkpt lat="64.21693" lon="20.89831">
        <ele>87.110312</ele>
        <time>2020-09-29T08:38:43.452Z</time>
      </trkpt>
      <trkpt lat="64.21687" lon="20.89812">
        <ele>87.581881</ele>
        <time>2020-09-29T08:38:46.478Z</time>
      </trkpt>
      <trkpt lat="64.2168" lon="20.89794">
        <ele>88.047143</ele>
        <time>2020-09-29T08:38:49.482Z</time>
      </trkpt>
      <trkpt lat="64.21674" lon="20.89775">
        <ele>88.526081</ele>
        <time>2020-09-29T08:38:52.460Z</time>
      </trkpt>
      <trkpt lat="64.21668" lon="20.89755">
        <ele>88.976202</ele>
        <time>2020-09-29T08:38:55.475Z</time>
      </trkpt>
      <trkpt lat="64.21662" lon="20.89735">
        <ele>89.452731</ele>
        <time>2020-09-29T08:38:58.473Z</time>
      </trkpt>
      <trkpt lat="64.21655" lon="20.89716">
        <ele>89.932933</ele>
        <time>2020-09-29T08:39:01.474Z</time>
      </trkpt>
      <trkpt lat="64.21649" lon="20.89697">
        <ele>90.391635</ele>
        <time>2020-09-29T08:39:04.465Z</time>
      </trkpt>
      <trkpt lat="64.21644" lon="20.8968">
        <ele>90.815995</ele>
        <time>2020-09-29T08:39:07.464Z</time>
      </trkpt>
      <trkpt lat="64.21638" lon="20.89662">
        <ele>91.248939</ele>
        <time>2020-09-29T08:39:10.459Z</time>
      </trkpt>
      <trkpt lat="64.21632" lon="20.89644">
        <ele>91.698585</ele>
        <time>2020-09-29T08:39:13.473Z</time>
      </trkpt>
      <trkpt lat="64.21626" lon="20.89626">
        <ele>92.128223</ele>
        <time>2020-09-29T08:39:16.467Z</time>
      </trkpt>
      <trkpt lat="64.21621" lon="20.89608">
        <ele>92.547451</ele>
        <time>2020-09-29T08:39:19.461Z</time>
      </trkpt>
      <trkpt lat="64.21616" lon="20.89588">
        <ele>93.003302</ele>
        <time>2020-09-29T08:39:22.453Z</time>
      </trkpt>
      <trkpt lat="64.2161" lon="20.8957">
        <ele>93.427665</ele>
        <time>2020-09-29T08:39:25.484Z</time>
      </trkpt>
      <trkpt lat="64.21604" lon="20.89553">
        <ele>93.860843</ele>
        <time>2020-09-29T08:39:28.468Z</time>
      </trkpt>
      <trkpt lat="64.21598" lon="20.89536">
        <ele>94.287692</ele>
        <time>2020-09-29T08:39:31.488Z</time>
      </trkpt>
      <trkpt lat="64.21591" lon="20.8952">
        <ele>94.726625</ele>
        <time>2020-09-29T08:39:34.501Z</time>
      </trkpt>
      <trkpt lat="64.21585" lon="20.89501">
        <ele>95.174686</ele>
        <time>2020-09-29T08:39:37.467Z</time>
      </trkpt>
      <trkpt lat="64.2158" lon="20.89482">
        <ele>95.018692</ele>
        <time>2020-09-29T08:39:40.462Z</time>
      </trkpt>
      <trkpt lat="64.21574" lon="20.89462">
        <ele>94.832678</ele>
        <time>2020-09-29T08:39:43.447Z</time>
      </trkpt>
      <trkpt lat="64.21568" lon="20.89442">
        <ele>94.65083</ele>
        <time>2020-09-29T08:39:46.476Z</time>
      </trkpt>
      <trkpt lat="64.21562" lon="20.89424">
        <ele>94.47545</ele>
        <time>2020-09-29T08:39:49.469Z</time>
      </trkpt>
      <trkpt lat="64.21555" lon="20.89403">
        <ele>94.279473</ele>
        <time>2020-09-29T08:39:52.471Z</time>
      </trkpt>
      <trkpt lat="64.21548" lon="20.89384">
        <ele>94.086446</ele>
        <time>2020-09-29T08:39:55.464Z</time>
      </trkpt>
      <trkpt lat="64.21541" lon="20.89364">
        <ele>93.893327</ele>
        <time>2020-09-29T08:39:58.481Z</time>
      </trkpt>
      <trkpt lat="64.21534" lon="20.89343">
        <ele>93.696031</ele>
        <time>2020-09-29T08:40:01.456Z</time>
      </trkpt>
      <trkpt lat="64.21527" lon="20.89322">
        <ele>93.499459</ele>
        <time>2020-09-29T08:40:04.492Z</time>
      </trkpt>
      <trkpt lat="64.2152" lon="20.89302">
        <ele>93.3011</ele>
        <time>2020-09-29T08:40:07.454Z</time>
      </trkpt>
      <trkpt lat="64.21513" lon="20.89281">
        <ele>93.1056</ele>
        <time>2020-09-29T08:40:10.475Z</time>
      </trkpt>
      <trkpt lat="64.21506" lon="20.89261">
        <ele>92.904496</ele>
        <time>2020-09-29T08:40:13.472Z</time>
      </trkpt>
      <trkpt lat="64.21499" lon="20.89241">
        <ele>92.70986</ele>
        <time>2020-09-29T08:40:16.487Z</time>
      </trkpt>
      <trkpt lat="64.21491" lon="20.89222">
        <ele>92.516872</ele>
        <time>2020-09-29T08:40:19.460Z</time>
      </trkpt>
      <trkpt lat="64.21483" lon="20.89203">
        <ele>92.311137</ele>
        <time>2020-09-29T08:40:22.480Z</time>
      </trkpt>
      <trkpt lat="64.21475" lon="20.89182">
        <ele>92.099929</ele>
        <time>2020-09-29T08:40:25.461Z</time>
      </trkpt>
      <trkpt lat="64.21466" lon="20.8916">
        <ele>91.852013</ele>
        <time>2020-09-29T08:40:28.480Z</time>
      </trkpt>
      <trkpt lat="64.21458" lon="20.89139">
        <ele>91.608669</ele>
        <time>2020-09-29T08:40:31.471Z</time>
      </trkpt>
      <trkpt lat="64.21451" lon="20.89118">
        <ele>91.371871</ele>
        <time>2020-09-29T08:40:34.480Z</time>
      </trkpt>
      <trkpt lat="64.21443" lon="20.89097">
        <ele>91.133086</ele>
        <time>2020-09-29T08:40:37.459Z</time>
      </trkpt>
      <trkpt lat="64.21435" lon="20.89076">
        <ele>90.887176</ele>
        <time>2020-09-29T08:40:40.481Z</time>
      </trkpt>
      <trkpt lat="64.21426" lon="20.89055">
        <ele>90.638422</ele>
        <time>2020-09-29T08:40:43.461Z</time>
      </trkpt>
      <trkpt lat="64.21417" lon="20.89033">
        <ele>90.382707</ele>
        <time>2020-09-29T08:40:46.445Z</time>
      </trkpt>
      <trkpt lat="64.21409" lon="20.89012">
        <ele>90.131554</ele>
        <time>2020-09-29T08:40:49.463Z</time>
      </trkpt>
      <trkpt lat="64.21401" lon="20.88989">
        <ele>89.879433</ele>
        <time>2020-09-29T08:40:52.480Z</time>
      </trkpt>
      <trkpt lat="64.21393" lon="20.88966">
        <ele>89.621752</ele>
        <time>2020-09-29T08:40:55.467Z</time>
      </trkpt>
      <trkpt lat="64.21385" lon="20.88944">
        <ele>89.368634</ele>
        <time>2020-09-29T08:40:58.464Z</time>
      </trkpt>
      <trkpt lat="64.21377" lon="20.88922">
        <ele>89.125783</ele>
        <time>2020-09-29T08:41:01.460Z</time>
      </trkpt>
      <trkpt lat="64.2137" lon="20.88901">
        <ele>88.892255</ele>
        <time>2020-09-29T08:41:04.464Z</time>
      </trkpt>
      <trkpt lat="64.21362" lon="20.88881">
        <ele>88.661383</ele>
        <time>2020-09-29T08:41:07.463Z</time>
      </trkpt>
      <trkpt lat="64.21354" lon="20.88863">
        <ele>88.551896</ele>
        <time>2020-09-29T08:41:10.474Z</time>
      </trkpt>
      <trkpt lat="64.21347" lon="20.88843">
        <ele>89.023132</ele>
        <time>2020-09-29T08:41:13.482Z</time>
      </trkpt>
      <trkpt lat="64.21341" lon="20.88825">
        <ele>89.476961</ele>
        <time>2020-09-29T08:41:16.473Z</time>
      </trkpt>
      <trkpt lat="64.21335" lon="20.88807">
        <ele>89.908398</ele>
        <time>2020-09-29T08:41:19.491Z</time>
      </trkpt>
      <trkpt lat="64.21329" lon="20.88791">
        <ele>90.303567</ele>
        <time>2020-09-29T08:41:22.487Z</time>
      </trkpt>
      <trkpt lat="64.21323" lon="20.88774">
        <ele>90.731797</ele>
        <time>2020-09-29T08:41:25.453Z</time>
      </trkpt>
      <trkpt lat="64.21317" lon="20.88758">
        <ele>91.12547</ele>
        <time>2020-09-29T08:41:28.471Z</time>
      </trkpt>
      <trkpt lat="64.21309" lon="20.88738">
        <ele>91.636642</ele>
        <time>2020-09-29T08:41:32.465Z</time>
      </trkpt>
      <trkpt lat="64.21302" lon="20.88718">
        <ele>92.118277</ele>
        <time>2020-09-29T08:41:36.496Z</time>
      </trkpt>
      <trkpt lat="64.21295" lon="20.88698">
        <ele>92.60559</ele>
        <time>2020-09-29T08:41:40.485Z</time>
      </trkpt>
      <trkpt lat="64.21288" lon="20.88678">
        <ele>93.098339</ele>
        <time>2020-09-29T08:41:44.460Z</time>
      </trkpt>
      <trkpt lat="64.21282" lon="20.88662">
        <ele>93.490559</ele>
        <time>2020-09-29T08:41:47.453Z</time>
      </trkpt>
      <trkpt lat="64.21274" lon="20.88642">
        <ele>93.994435</ele>
        <time>2020-09-29T08:41:51.487Z</time>
      </trkpt>
      <trkpt lat="64.21269" lon="20.88626">
        <ele>94.393017</ele>
        <time>2020-09-29T08:41:54.468Z</time>
      </trkpt>
      <trkpt lat="64.21261" lon="20.88605">
        <ele>94.904169</ele>
        <time>2020-09-29T08:41:58.452Z</time>
      </trkpt>
      <trkpt lat="64.21255" lon="20.88588">
        <ele>95.322767</ele>
        <time>2020-09-29T08:42:01.477Z</time>
      </trkpt>
      <trkpt lat="64.21249" lon="20.88568">
        <ele>95.795306</ele>
        <time>2020-09-29T08:42:05.452Z</time>
      </trkpt>
      <trkpt lat="64.21242" lon="20.88553">
        <ele>96.203553</ele>
        <time>2020-09-29T08:42:08.456Z</time>
      </trkpt>
      <trkpt lat="64.21235" lon="20.88537">
        <ele>96.409053</ele>
        <time>2020-09-29T08:42:11.463Z</time>
      </trkpt>
      <trkpt lat="64.21229" lon="20.88522">
        <ele>96.522238</ele>
        <time>2020-09-29T08:42:14.467Z</time>
      </trkpt>
      <trkpt lat="64.21221" lon="20.88503">
        <ele>96.662111</ele>
        <time>2020-09-29T08:42:18.506Z</time>
      </trkpt>
      <trkpt lat="64.21213" lon="20.88484">
        <ele>96.799196</ele>
        <time>2020-09-29T08:42:22.465Z</time>
      </trkpt>
      <trkpt lat="64.21207" lon="20.88468">
        <ele>96.909508</ele>
        <time>2020-09-29T08:42:25.463Z</time>
      </trkpt>
      <trkpt lat="64.212" lon="20.88447">
        <ele>97.054581</ele>
        <time>2020-09-29T08:42:29.460Z</time>
      </trkpt>
      <trkpt lat="64.21194" lon="20.88427">
        <ele>97.183773</ele>
        <time>2020-09-29T08:42:33.461Z</time>
      </trkpt>
      <trkpt lat="64.21187" lon="20.88407">
        <ele>97.320528</ele>
        <time>2020-09-29T08:42:37.463Z</time>
      </trkpt>
      <trkpt lat="64.21181" lon="20.88388">
        <ele>97.44508</ele>
        <time>2020-09-29T08:42:41.482Z</time>
      </trkpt>
      <trkpt lat="64.21174" lon="20.88369">
        <ele>97.585687</ele>
        <time>2020-09-29T08:42:45.497Z</time>
      </trkpt>
      <trkpt lat="64.21166" lon="20.88349">
        <ele>97.728685</ele>
        <time>2020-09-29T08:42:49.467Z</time>
      </trkpt>
      <trkpt lat="64.21158" lon="20.88329">
        <ele>97.871282</ele>
        <time>2020-09-29T08:42:53.472Z</time>
      </trkpt>
      <trkpt lat="64.21152" lon="20.88311">
        <ele>97.989402</ele>
        <time>2020-09-29T08:42:56.468Z</time>
      </trkpt>
      <trkpt lat="64.21146" lon="20.88294">
        <ele>98.114638</ele>
        <time>2020-09-29T08:42:59.505Z</time>
      </trkpt>
      <trkpt lat="64.21139" lon="20.88274">
        <ele>98.250549</ele>
        <time>2020-09-29T08:43:02.454Z</time>
      </trkpt>
      <trkpt lat="64.21131" lon="20.88255">
        <ele>98.390762</ele>
        <time>2020-09-29T08:43:05.452Z</time>
      </trkpt>
      <trkpt lat="64.21123" lon="20.88235">
        <ele>98.525563</ele>
        <time>2020-09-29T08:43:08.465Z</time>
      </trkpt>
      <trkpt lat="64.21115" lon="20.88215">
        <ele>97.942948</ele>
        <time>2020-09-29T08:43:11.457Z</time>
      </trkpt>
      <trkpt lat="64.21107" lon="20.88194">
        <ele>97.345733</ele>
        <time>2020-09-29T08:43:14.473Z</time>
      </trkpt>
      <trkpt lat="64.211" lon="20.88175">
        <ele>96.768226</ele>
        <time>2020-09-29T08:43:17.472Z</time>
      </trkpt>
      <trkpt lat="64.21092" lon="20.88154">
        <ele>96.167775</ele>
        <time>2020-09-29T08:43:20.463Z</time>
      </trkpt>
      <trkpt lat="64.21084" lon="20.88133">
        <ele>95.550804</ele>
        <time>2020-09-29T08:43:23.486Z</time>
      </trkpt>
      <trkpt lat="64.21075" lon="20.88111">
        <ele>94.910872</ele>
        <time>2020-09-29T08:43:26.454Z</time>
      </trkpt>
      <trkpt lat="64.21067" lon="20.88089">
        <ele>94.27761</ele>
        <time>2020-09-29T08:43:29.454Z</time>
      </trkpt>
      <trkpt lat="64.21058" lon="20.88067">
        <ele>93.627871</ele>
        <time>2020-09-29T08:43:32.459Z</time>
      </trkpt>
      <trkpt lat="64.21052" lon="20.88051">
        <ele>93.180009</ele>
        <time>2020-09-29T08:43:34.487Z</time>
      </trkpt>
      <trkpt lat="64.21046" lon="20.88035">
        <ele>92.727122</ele>
        <time>2020-09-29T08:43:36.453Z</time>
      </trkpt>
      <trkpt lat="64.21038" lon="20.88012">
        <ele>92.091578</ele>
        <time>2020-09-29T08:43:39.469Z</time>
      </trkpt>
      <trkpt lat="64.2103" lon="20.87989">
        <ele>91.425455</ele>
        <time>2020-09-29T08:43:42.460Z</time>
      </trkpt>
      <trkpt lat="64.21024" lon="20.87972">
        <ele>90.973433</ele>
        <time>2020-09-29T08:43:44.485Z</time>
      </trkpt>
      <trkpt lat="64.21016" lon="20.87949">
        <ele>90.303979</ele>
        <time>2020-09-29T08:43:47.475Z</time>
      </trkpt>
      <trkpt lat="64.2101" lon="20.87933">
        <ele>89.852757</ele>
        <time>2020-09-29T08:43:49.473Z</time>
      </trkpt>
      <trkpt lat="64.21003" lon="20.87916">
        <ele>89.517973</ele>
        <time>2020-09-29T08:43:51.465Z</time>
      </trkpt>
      <trkpt lat="64.20996" lon="20.879">
        <ele>89.44107</ele>
        <time>2020-09-29T08:43:53.468Z</time>
      </trkpt>
      <trkpt lat="64.2099" lon="20.87882">
        <ele>89.367675</ele>
        <time>2020-09-29T08:43:55.458Z</time>
      </trkpt>
      <trkpt lat="64.20984" lon="20.87864">
        <ele>89.295623</ele>
        <time>2020-09-29T08:43:57.465Z</time>
      </trkpt>
      <trkpt lat="64.20978" lon="20.87846">
        <ele>89.221771</ele>
        <time>2020-09-29T08:43:59.477Z</time>
      </trkpt>
      <trkpt lat="64.20972" lon="20.87827">
        <ele>89.146243</ele>
        <time>2020-09-29T08:44:01.485Z</time>
      </trkpt>
      <trkpt lat="64.20965" lon="20.87809">
        <ele>89.071489</ele>
        <time>2020-09-29T08:44:03.467Z</time>
      </trkpt>
      <trkpt lat="64.20958" lon="20.87791">
        <ele>88.995766</ele>
        <time>2020-09-29T08:44:05.458Z</time>
      </trkpt>
      <trkpt lat="64.20952" lon="20.87774">
        <ele>88.922717</ele>
        <time>2020-09-29T08:44:07.480Z</time>
      </trkpt>
      <trkpt lat="64.20946" lon="20.87758">
        <ele>88.852299</ele>
        <time>2020-09-29T08:44:09.456Z</time>
      </trkpt>
      <trkpt lat="64.20939" lon="20.87743">
        <ele>88.785174</ele>
        <time>2020-09-29T08:44:11.489Z</time>
      </trkpt>
      <trkpt lat="64.20933" lon="20.87728">
        <ele>88.718179</ele>
        <time>2020-09-29T08:44:13.475Z</time>
      </trkpt>
      <trkpt lat="64.20924" lon="20.87705">
        <ele>88.620135</ele>
        <time>2020-09-29T08:44:16.444Z</time>
      </trkpt>
      <trkpt lat="64.20916" lon="20.87683">
        <ele>88.525976</ele>
        <time>2020-09-29T08:44:19.458Z</time>
      </trkpt>
      <trkpt lat="64.20908" lon="20.87662">
        <ele>88.434966</ele>
        <time>2020-09-29T08:44:22.471Z</time>
      </trkpt>
      <trkpt lat="64.209" lon="20.87641">
        <ele>88.344446</ele>
        <time>2020-09-29T08:44:25.467Z</time>
      </trkpt>
      <trkpt lat="64.20892" lon="20.87621">
        <ele>88.259266</ele>
        <time>2020-09-29T08:44:28.489Z</time>
      </trkpt>
      <trkpt lat="64.20885" lon="20.87603">
        <ele>88.313306</ele>
        <time>2020-09-29T08:44:31.475Z</time>
      </trkpt>
      <trkpt lat="64.20878" lon="20.87584">
        <ele>88.551129</ele>
        <time>2020-09-29T08:44:34.470Z</time>
      </trkpt>
      <trkpt lat="64.20871" lon="20.87567">
        <ele>88.761642</ele>
        <time>2020-09-29T08:44:37.467Z</time>
      </trkpt>
      <trkpt lat="64.20865" lon="20.87549">
        <ele>88.980103</ele>
        <time>2020-09-29T08:44:40.462Z</time>
      </trkpt>
      <trkpt lat="64.20859" lon="20.87531">
        <ele>89.205755</ele>
        <time>2020-09-29T08:44:43.446Z</time>
      </trkpt>
      <trkpt lat="64.20852" lon="20.87512">
        <ele>89.435684</ele>
        <time>2020-09-29T08:44:46.464Z</time>
      </trkpt>
      <trkpt lat="64.20845" lon="20.87493">
        <ele>89.672488</ele>
        <time>2020-09-29T08:44:49.489Z</time>
      </trkpt>
      <trkpt lat="64.20838" lon="20.87475">
        <ele>89.898124</ele>
        <time>2020-09-29T08:44:52.459Z</time>
      </trkpt>
      <trkpt lat="64.20831" lon="20.87456">
        <ele>90.141708</ele>
        <time>2020-09-29T08:44:55.471Z</time>
      </trkpt>
      <trkpt lat="64.20824" lon="20.87437">
        <ele>90.374555</ele>
        <time>2020-09-29T08:44:58.471Z</time>
      </trkpt>
      <trkpt lat="64.20817" lon="20.87418">
        <ele>90.614546</ele>
        <time>2020-09-29T08:45:01.460Z</time>
      </trkpt>
      <trkpt lat="64.2081" lon="20.87399">
        <ele>90.8488</ele>
        <time>2020-09-29T08:45:04.450Z</time>
      </trkpt>
      <trkpt lat="64.20803" lon="20.8738">
        <ele>91.095971</ele>
        <time>2020-09-29T08:45:07.462Z</time>
      </trkpt>
      <trkpt lat="64.20796" lon="20.87359">
        <ele>91.346271</ele>
        <time>2020-09-29T08:45:10.483Z</time>
      </trkpt>
      <trkpt lat="64.20788" lon="20.8734">
        <ele>91.589838</ele>
        <time>2020-09-29T08:45:13.450Z</time>
      </trkpt>
      <trkpt lat="64.20781" lon="20.87321">
        <ele>91.827665</ele>
        <time>2020-09-29T08:45:16.454Z</time>
      </trkpt>
      <trkpt lat="64.20774" lon="20.87302">
        <ele>92.06764</ele>
        <time>2020-09-29T08:45:19.512Z</time>
      </trkpt>
      <trkpt lat="64.20767" lon="20.87283">
        <ele>92.204923</ele>
        <time>2020-09-29T08:45:22.468Z</time>
      </trkpt>
      <trkpt lat="64.20761" lon="20.87264">
        <ele>92.288783</ele>
        <time>2020-09-29T08:45:25.487Z</time>
      </trkpt>
      <trkpt lat="64.20754" lon="20.87245">
        <ele>92.37249</ele>
        <time>2020-09-29T08:45:28.451Z</time>
      </trkpt>
      <trkpt lat="64.20746" lon="20.87225">
        <ele>92.464053</ele>
        <time>2020-09-29T08:45:31.499Z</time>
      </trkpt>
      <trkpt lat="64.20739" lon="20.87207">
        <ele>92.549161</ele>
        <time>2020-09-29T08:45:34.470Z</time>
      </trkpt>
      <trkpt lat="64.20732" lon="20.87187">
        <ele>92.63969</ele>
        <time>2020-09-29T08:45:37.471Z</time>
      </trkpt>
      <trkpt lat="64.20724" lon="20.87165">
        <ele>92.737531</ele>
        <time>2020-09-29T08:45:40.468Z</time>
      </trkpt>
      <trkpt lat="64.20715" lon="20.87142">
        <ele>92.839473</ele>
        <time>2020-09-29T08:45:43.459Z</time>
      </trkpt>
      <trkpt lat="64.20707" lon="20.87121">
        <ele>92.938294</ele>
        <time>2020-09-29T08:45:46.472Z</time>
      </trkpt>
      <trkpt lat="64.20699" lon="20.871">
        <ele>93.031669</ele>
        <time>2020-09-29T08:45:49.505Z</time>
      </trkpt>
      <trkpt lat="64.20692" lon="20.87079">
        <ele>93.124287</ele>
        <time>2020-09-29T08:45:52.468Z</time>
      </trkpt>
      <trkpt lat="64.20684" lon="20.8706">
        <ele>93.215338</ele>
        <time>2020-09-29T08:45:55.465Z</time>
      </trkpt>
      <trkpt lat="64.20677" lon="20.8704">
        <ele>93.304326</ele>
        <time>2020-09-29T08:45:58.506Z</time>
      </trkpt>
      <trkpt lat="64.2067" lon="20.8702">
        <ele>93.390359</ele>
        <time>2020-09-29T08:46:01.482Z</time>
      </trkpt>
      <trkpt lat="64.20663" lon="20.86999">
        <ele>93.4805</ele>
        <time>2020-09-29T08:46:04.474Z</time>
      </trkpt>
      <trkpt lat="64.20656" lon="20.86981">
        <ele>93.564822</ele>
        <time>2020-09-29T08:46:07.470Z</time>
      </trkpt>
      <trkpt lat="64.20649" lon="20.86964">
        <ele>93.840063</ele>
        <time>2020-09-29T08:46:10.450Z</time>
      </trkpt>
      <trkpt lat="64.20643" lon="20.86948">
        <ele>94.113229</ele>
        <time>2020-09-29T08:46:13.454Z</time>
      </trkpt>
      <trkpt lat="64.20636" lon="20.86931">
        <ele>94.393775</ele>
        <time>2020-09-29T08:46:16.444Z</time>
      </trkpt>
      <trkpt lat="64.2063" lon="20.86914">
        <ele>94.664042</ele>
        <time>2020-09-29T08:46:19.484Z</time>
      </trkpt>
      <trkpt lat="64.20624" lon="20.86898">
        <ele>94.928578</ele>
        <time>2020-09-29T08:46:22.493Z</time>
      </trkpt>
      <trkpt lat="64.20618" lon="20.86881">
        <ele>95.207243</ele>
        <time>2020-09-29T08:46:25.450Z</time>
      </trkpt>
      <trkpt lat="64.20612" lon="20.86863">
        <ele>95.483047</ele>
        <time>2020-09-29T08:46:28.471Z</time>
      </trkpt>
      <trkpt lat="64.20606" lon="20.86847">
        <ele>95.757962</ele>
        <time>2020-09-29T08:46:31.472Z</time>
      </trkpt>
      <trkpt lat="64.206" lon="20.8683">
        <ele>96.03474</ele>
        <time>2020-09-29T08:46:34.472Z</time>
      </trkpt>
      <trkpt lat="64.20593" lon="20.86813">
        <ele>96.321876</ele>
        <time>2020-09-29T08:46:37.450Z</time>
      </trkpt>
      <trkpt lat="64.20587" lon="20.86795">
        <ele>96.600898</ele>
        <time>2020-09-29T08:46:40.465Z</time>
      </trkpt>
      <trkpt lat="64.20581" lon="20.86778">
        <ele>96.878613</ele>
        <time>2020-09-29T08:46:43.474Z</time>
      </trkpt>
      <trkpt lat="64.20575" lon="20.86761">
        <ele>97.159604</ele>
        <time>2020-09-29T08:46:46.452Z</time>
      </trkpt>
      <trkpt lat="64.20568" lon="20.86743">
        <ele>97.451437</ele>
        <time>2020-09-29T08:46:49.437Z</time>
      </trkpt>
      <trkpt lat="64.20561" lon="20.86725">
        <ele>97.74987</ele>
        <time>2020-09-29T08:46:52.461Z</time>
      </trkpt>
      <trkpt lat="64.20554" lon="20.86707">
        <ele>98.047457</ele>
        <time>2020-09-29T08:46:55.484Z</time>
      </trkpt>
      <trkpt lat="64.20547" lon="20.86687">
        <ele>98.37236</ele>
        <time>2020-09-29T08:46:58.469Z</time>
      </trkpt>
      <trkpt lat="64.20539" lon="20.86665">
        <ele>98.731986</ele>
        <time>2020-09-29T08:47:01.452Z</time>
      </trkpt>
      <trkpt lat="64.2053" lon="20.86644">
        <ele>99.093013</ele>
        <time>2020-09-29T08:47:04.484Z</time>
      </trkpt>
      <trkpt lat="64.20522" lon="20.86623">
        <ele>99.450911</ele>
        <time>2020-09-29T08:47:07.465Z</time>
      </trkpt>
      <trkpt lat="64.20515" lon="20.86601">
        <ele>99.802394</ele>
        <time>2020-09-29T08:47:10.477Z</time>
      </trkpt>
      <trkpt lat="64.20508" lon="20.8658">
        <ele>100.12706</ele>
        <time>2020-09-29T08:47:13.463Z</time>
      </trkpt>
      <trkpt lat="64.20501" lon="20.86558">
        <ele>100.468978</ele>
        <time>2020-09-29T08:47:16.484Z</time>
      </trkpt>
      <trkpt lat="64.20494" lon="20.86535">
        <ele>100.822787</ele>
        <time>2020-09-29T08:47:19.454Z</time>
      </trkpt>
      <trkpt lat="64.20487" lon="20.86512">
        <ele>101.185077</ele>
        <time>2020-09-29T08:47:22.489Z</time>
      </trkpt>
      <trkpt lat="64.20481" lon="20.86495">
        <ele>101.446399</ele>
        <time>2020-09-29T08:47:24.467Z</time>
      </trkpt>
      <trkpt lat="64.20475" lon="20.86476">
        <ele>101.750287</ele>
        <time>2020-09-29T08:47:26.471Z</time>
      </trkpt>
      <trkpt lat="64.20468" lon="20.86457">
        <ele>102.056384</ele>
        <time>2020-09-29T08:47:28.469Z</time>
      </trkpt>
      <trkpt lat="64.20461" lon="20.86437">
        <ele>102.37544</ele>
        <time>2020-09-29T08:47:30.473Z</time>
      </trkpt>
      <trkpt lat="64.20453" lon="20.86415">
        <ele>102.74376</ele>
        <time>2020-09-29T08:47:32.454Z</time>
      </trkpt>
      <trkpt lat="64.20442" lon="20.86391">
        <ele>103.179154</ele>
        <time>2020-09-29T08:47:34.475Z</time>
      </trkpt>
      <trkpt lat="64.20431" lon="20.86363">
        <ele>103.652057</ele>
        <time>2020-09-29T08:47:36.456Z</time>
      </trkpt>
      <trkpt lat="64.20421" lon="20.86336">
        <ele>103.688438</ele>
        <time>2020-09-29T08:47:38.458Z</time>
      </trkpt>
      <trkpt lat="64.20411" lon="20.86308">
        <ele>103.032008</ele>
        <time>2020-09-29T08:47:40.459Z</time>
      </trkpt>
      <trkpt lat="64.20401" lon="20.86281">
        <ele>102.385501</ele>
        <time>2020-09-29T08:47:42.473Z</time>
      </trkpt>
      <trkpt lat="64.20391" lon="20.86253">
        <ele>101.696254</ele>
        <time>2020-09-29T08:47:44.464Z</time>
      </trkpt>
      <trkpt lat="64.20379" lon="20.86224">
        <ele>100.977933</ele>
        <time>2020-09-29T08:47:46.471Z</time>
      </trkpt>
      <trkpt lat="64.20367" lon="20.86195">
        <ele>100.260814</ele>
        <time>2020-09-29T08:47:48.449Z</time>
      </trkpt>
      <trkpt lat="64.20356" lon="20.86166">
        <ele>99.541223</ele>
        <time>2020-09-29T08:47:50.452Z</time>
      </trkpt>
      <trkpt lat="64.20344" lon="20.86136">
        <ele>98.809221</ele>
        <time>2020-09-29T08:47:52.459Z</time>
      </trkpt>
      <trkpt lat="64.20333" lon="20.86106">
        <ele>98.09099</ele>
        <time>2020-09-29T08:47:54.496Z</time>
      </trkpt>
      <trkpt lat="64.20322" lon="20.86078">
        <ele>97.396245</ele>
        <time>2020-09-29T08:47:56.458Z</time>
      </trkpt>
      <trkpt lat="64.20312" lon="20.86049">
        <ele>96.708255</ele>
        <time>2020-09-29T08:47:58.461Z</time>
      </trkpt>
      <trkpt lat="64.20301" lon="20.86021">
        <ele>95.925988</ele>
        <time>2020-09-29T08:48:00.466Z</time>
      </trkpt>
      <trkpt lat="64.20292" lon="20.85995">
        <ele>95.066589</ele>
        <time>2020-09-29T08:48:02.467Z</time>
      </trkpt>
      <trkpt lat="64.20282" lon="20.8597">
        <ele>94.259238</ele>
        <time>2020-09-29T08:48:04.453Z</time>
      </trkpt>
      <trkpt lat="64.20274" lon="20.85947">
        <ele>93.522339</ele>
        <time>2020-09-29T08:48:06.467Z</time>
      </trkpt>
      <trkpt lat="64.20266" lon="20.85924">
        <ele>92.790773</ele>
        <time>2020-09-29T08:48:08.459Z</time>
      </trkpt>
      <trkpt lat="64.20257" lon="20.85902">
        <ele>92.070222</ele>
        <time>2020-09-29T08:48:10.460Z</time>
      </trkpt>
      <trkpt lat="64.20249" lon="20.85882">
        <ele>91.403932</ele>
        <time>2020-09-29T08:48:12.471Z</time>
      </trkpt>
      <trkpt lat="64.20241" lon="20.85862">
        <ele>90.754064</ele>
        <time>2020-09-29T08:48:14.481Z</time>
      </trkpt>
      <trkpt lat="64.20235" lon="20.85843">
        <ele>90.150449</ele>
        <time>2020-09-29T08:48:16.463Z</time>
      </trkpt>
      <trkpt lat="64.20228" lon="20.85825">
        <ele>89.567658</ele>
        <time>2020-09-29T08:48:18.471Z</time>
      </trkpt>
      <trkpt lat="64.20221" lon="20.85808">
        <ele>88.984882</ele>
        <time>2020-09-29T08:48:20.471Z</time>
      </trkpt>
      <trkpt lat="64.20215" lon="20.8579">
        <ele>88.422522</ele>
        <time>2020-09-29T08:48:22.468Z</time>
      </trkpt>
      <trkpt lat="64.20208" lon="20.85773">
        <ele>87.85645</ele>
        <time>2020-09-29T08:48:24.469Z</time>
      </trkpt>
      <trkpt lat="64.20201" lon="20.85754">
        <ele>87.249537</ele>
        <time>2020-09-29T08:48:26.478Z</time>
      </trkpt>
      <trkpt lat="64.20194" lon="20.85735">
        <ele>86.62757</ele>
        <time>2020-09-29T08:48:28.463Z</time>
      </trkpt>
      <trkpt lat="64.20187" lon="20.85716">
        <ele>86.188081</ele>
        <time>2020-09-29T08:48:30.481Z</time>
      </trkpt>
      <trkpt lat="64.2018" lon="20.85697">
        <ele>86.125984</ele>
        <time>2020-09-29T08:48:32.478Z</time>
      </trkpt>
      <trkpt lat="64.20172" lon="20.85679">
        <ele>86.064765</ele>
        <time>2020-09-29T08:48:34.471Z</time>
      </trkpt>
      <trkpt lat="64.20165" lon="20.8566">
        <ele>86.002252</ele>
        <time>2020-09-29T08:48:36.503Z</time>
      </trkpt>
      <trkpt lat="64.20158" lon="20.85641">
        <ele>85.94213</ele>
        <time>2020-09-29T08:48:38.452Z</time>
      </trkpt>
      <trkpt lat="64.20152" lon="20.85622">
        <ele>85.882203</ele>
        <time>2020-09-29T08:48:40.473Z</time>
      </trkpt>
      <trkpt lat="64.20145" lon="20.85604">
        <ele>85.821599</ele>
        <time>2020-09-29T08:48:42.447Z</time>
      </trkpt>
      <trkpt lat="64.20138" lon="20.85585">
        <ele>85.760806</ele>
        <time>2020-09-29T08:48:44.476Z</time>
      </trkpt>
      <trkpt lat="64.20131" lon="20.85566">
        <ele>85.699634</ele>
        <time>2020-09-29T08:48:46.449Z</time>
      </trkpt>
      <trkpt lat="64.20124" lon="20.85548">
        <ele>85.640144</ele>
        <time>2020-09-29T08:48:48.466Z</time>
      </trkpt>
      <trkpt lat="64.20118" lon="20.8553">
        <ele>85.583182</ele>
        <time>2020-09-29T08:48:50.460Z</time>
      </trkpt>
      <trkpt lat="64.20112" lon="20.85511">
        <ele>85.525478</ele>
        <time>2020-09-29T08:48:52.471Z</time>
      </trkpt>
      <trkpt lat="64.20105" lon="20.85493">
        <ele>85.466713</ele>
        <time>2020-09-29T08:48:54.484Z</time>
      </trkpt>
      <trkpt lat="64.20099" lon="20.85474">
        <ele>85.406287</ele>
        <time>2020-09-29T08:48:56.456Z</time>
      </trkpt>
      <trkpt lat="64.20091" lon="20.85456">
        <ele>85.345276</ele>
        <time>2020-09-29T08:48:58.460Z</time>
      </trkpt>
      <trkpt lat="64.20084" lon="20.85437">
        <ele>85.281308</ele>
        <time>2020-09-29T08:49:00.464Z</time>
      </trkpt>
      <trkpt lat="64.20076" lon="20.85418">
        <ele>85.215574</ele>
        <time>2020-09-29T08:49:02.468Z</time>
      </trkpt>
      <trkpt lat="64.20068" lon="20.85398">
        <ele>85.255018</ele>
        <time>2020-09-29T08:49:04.468Z</time>
      </trkpt>
      <trkpt lat="64.20061" lon="20.85379">
        <ele>85.387132</ele>
        <time>2020-09-29T08:49:06.459Z</time>
      </trkpt>
      <trkpt lat="64.20055" lon="20.8536">
        <ele>85.518477</ele>
        <time>2020-09-29T08:49:08.454Z</time>
      </trkpt>
      <trkpt lat="64.20047" lon="20.85341">
        <ele>85.651361</ele>
        <time>2020-09-29T08:49:10.450Z</time>
      </trkpt>
      <trkpt lat="64.2004" lon="20.85321">
        <ele>85.78388</ele>
        <time>2020-09-29T08:49:12.480Z</time>
      </trkpt>
      <trkpt lat="64.20032" lon="20.85301">
        <ele>85.926693</ele>
        <time>2020-09-29T08:49:14.478Z</time>
      </trkpt>
      <trkpt lat="64.20024" lon="20.85281">
        <ele>86.070682</ele>
        <time>2020-09-29T08:49:16.476Z</time>
      </trkpt>
      <trkpt lat="64.20017" lon="20.85261">
        <ele>86.207131</ele>
        <time>2020-09-29T08:49:18.474Z</time>
      </trkpt>
      <trkpt lat="64.2001" lon="20.85243">
        <ele>86.334457</ele>
        <time>2020-09-29T08:49:20.452Z</time>
      </trkpt>
      <trkpt lat="64.20004" lon="20.85225">
        <ele>86.454349</ele>
        <time>2020-09-29T08:49:22.459Z</time>
      </trkpt>
      <trkpt lat="64.19997" lon="20.85207">
        <ele>86.578503</ele>
        <time>2020-09-29T08:49:24.457Z</time>
      </trkpt>
      <trkpt lat="64.1999" lon="20.85189">
        <ele>86.705442</ele>
        <time>2020-09-29T08:49:26.460Z</time>
      </trkpt>
      <trkpt lat="64.19984" lon="20.85172">
        <ele>86.82326</ele>
        <time>2020-09-29T08:49:28.463Z</time>
      </trkpt>
      <trkpt lat="64.19978" lon="20.85156">
        <ele>86.935525</ele>
        <time>2020-09-29T08:49:30.463Z</time>
      </trkpt>
      <trkpt lat="64.19968" lon="20.85135">
        <ele>87.09851</ele>
        <time>2020-09-29T08:49:33.501Z</time>
      </trkpt>
      <trkpt lat="64.1996" lon="20.85114">
        <ele>87.249277</ele>
        <time>2020-09-29T08:49:36.480Z</time>
      </trkpt>
      <trkpt lat="64.19952" lon="20.85092">
        <ele>87.467173</ele>
        <time>2020-09-29T08:49:39.475Z</time>
      </trkpt>
      <trkpt lat="64.19942" lon="20.85072">
        <ele>87.880941</ele>
        <time>2020-09-29T08:49:42.486Z</time>
      </trkpt>
      <trkpt lat="64.19934" lon="20.8505">
        <ele>88.305328</ele>
        <time>2020-09-29T08:49:45.448Z</time>
      </trkpt>
      <trkpt lat="64.19925" lon="20.85028">
        <ele>88.726451</ele>
        <time>2020-09-29T08:49:48.454Z</time>
      </trkpt>
      <trkpt lat="64.19916" lon="20.85008">
        <ele>89.135903</ele>
        <time>2020-09-29T08:49:51.488Z</time>
      </trkpt>
      <trkpt lat="64.19906" lon="20.84986">
        <ele>89.57492</ele>
        <time>2020-09-29T08:49:54.474Z</time>
      </trkpt>
      <trkpt lat="64.19899" lon="20.84972">
        <ele>89.882384</ele>
        <time>2020-09-29T08:49:56.459Z</time>
      </trkpt>
      <trkpt lat="64.19892" lon="20.84958">
        <ele>90.190399</ele>
        <time>2020-09-29T08:49:58.483Z</time>
      </trkpt>
      <trkpt lat="64.19885" lon="20.84943">
        <ele>90.508943</ele>
        <time>2020-09-29T08:50:00.452Z</time>
      </trkpt>
      <trkpt lat="64.19877" lon="20.84928">
        <ele>90.832395</ele>
        <time>2020-09-29T08:50:02.447Z</time>
      </trkpt>
      <trkpt lat="64.19871" lon="20.84913">
        <ele>91.125616</ele>
        <time>2020-09-29T08:50:04.465Z</time>
      </trkpt>
      <trkpt lat="64.19865" lon="20.84898">
        <ele>91.426921</ele>
        <time>2020-09-29T08:50:06.502Z</time>
      </trkpt>
      <trkpt lat="64.19858" lon="20.84882">
        <ele>91.734426</ele>
        <time>2020-09-29T08:50:08.456Z</time>
      </trkpt>
      <trkpt lat="64.19852" lon="20.84866">
        <ele>92.0343</ele>
        <time>2020-09-29T08:50:10.461Z</time>
      </trkpt>
      <trkpt lat="64.19846" lon="20.8485">
        <ele>92.334254</ele>
        <time>2020-09-29T08:50:12.455Z</time>
      </trkpt>
      <trkpt lat="64.19839" lon="20.84835">
        <ele>92.650421</ele>
        <time>2020-09-29T08:50:14.453Z</time>
      </trkpt>
      <trkpt lat="64.19832" lon="20.84819">
        <ele>92.973866</ele>
        <time>2020-09-29T08:50:16.460Z</time>
      </trkpt>
      <trkpt lat="64.19826" lon="20.84803">
        <ele>93.195735</ele>
        <time>2020-09-29T08:50:18.475Z</time>
      </trkpt>
      <trkpt lat="64.19819" lon="20.84787">
        <ele>93.033478</ele>
        <time>2020-09-29T08:50:20.504Z</time>
      </trkpt>
      <trkpt lat="64.19813" lon="20.84771">
        <ele>92.878052</ele>
        <time>2020-09-29T08:50:22.483Z</time>
      </trkpt>
      <trkpt lat="64.19806" lon="20.84754">
        <ele>92.712669</ele>
        <time>2020-09-29T08:50:24.464Z</time>
      </trkpt>
      <trkpt lat="64.19799" lon="20.84737">
        <ele>92.532081</ele>
        <time>2020-09-29T08:50:27.523Z</time>
      </trkpt>
      <trkpt lat="64.19791" lon="20.84723">
        <ele>92.369303</ele>
        <time>2020-09-29T08:50:31.451Z</time>
      </trkpt>
      <trkpt lat="64.19783" lon="20.84707">
        <ele>92.194782</ele>
        <time>2020-09-29T08:50:34.450Z</time>
      </trkpt>
      <trkpt lat="64.19774" lon="20.84687">
        <ele>91.979405</ele>
        <time>2020-09-29T08:50:37.482Z</time>
      </trkpt>
      <trkpt lat="64.19765" lon="20.84669">
        <ele>91.77394</ele>
        <time>2020-09-29T08:50:40.460Z</time>
      </trkpt>
      <trkpt lat="64.19756" lon="20.84648">
        <ele>91.56165</ele>
        <time>2020-09-29T08:50:43.466Z</time>
      </trkpt>
      <trkpt lat="64.1975" lon="20.84633">
        <ele>91.410602</ele>
        <time>2020-09-29T08:50:45.450Z</time>
      </trkpt>
      <trkpt lat="64.19744" lon="20.84618">
        <ele>91.258823</ele>
        <time>2020-09-29T08:50:47.471Z</time>
      </trkpt>
      <trkpt lat="64.19734" lon="20.84597">
        <ele>91.035733</ele>
        <time>2020-09-29T08:50:50.458Z</time>
      </trkpt>
      <trkpt lat="64.19728" lon="20.84582">
        <ele>90.878977</ele>
        <time>2020-09-29T08:50:52.451Z</time>
      </trkpt>
      <trkpt lat="64.19721" lon="20.84566">
        <ele>90.716933</ele>
        <time>2020-09-29T08:50:54.467Z</time>
      </trkpt>
      <trkpt lat="64.19713" lon="20.8455">
        <ele>90.543026</ele>
        <time>2020-09-29T08:50:56.490Z</time>
      </trkpt>
      <trkpt lat="64.19706" lon="20.84534">
        <ele>90.36983</ele>
        <time>2020-09-29T08:50:58.457Z</time>
      </trkpt>
      <trkpt lat="64.19698" lon="20.84516">
        <ele>90.154032</ele>
        <time>2020-09-29T08:51:00.513Z</time>
      </trkpt>
      <trkpt lat="64.19689" lon="20.84497">
        <ele>89.403948</ele>
        <time>2020-09-29T08:51:02.469Z</time>
      </trkpt>
      <trkpt lat="64.19681" lon="20.84477">
        <ele>88.626101</ele>
        <time>2020-09-29T08:51:04.476Z</time>
      </trkpt>
      <trkpt lat="64.19671" lon="20.84455">
        <ele>87.783684</ele>
        <time>2020-09-29T08:51:06.471Z</time>
      </trkpt>
      <trkpt lat="64.19662" lon="20.84433">
        <ele>86.942636</ele>
        <time>2020-09-29T08:51:08.469Z</time>
      </trkpt>
      <trkpt lat="64.19652" lon="20.84412">
        <ele>86.083618</ele>
        <time>2020-09-29T08:51:10.454Z</time>
      </trkpt>
      <trkpt lat="64.19642" lon="20.8439">
        <ele>85.238705</ele>
        <time>2020-09-29T08:51:12.483Z</time>
      </trkpt>
      <trkpt lat="64.19631" lon="20.84366">
        <ele>84.282971</ele>
        <time>2020-09-29T08:51:14.471Z</time>
      </trkpt>
      <trkpt lat="64.1962" lon="20.84341">
        <ele>83.31042</ele>
        <time>2020-09-29T08:51:16.469Z</time>
      </trkpt>
      <trkpt lat="64.1961" lon="20.84317">
        <ele>82.371343</ele>
        <time>2020-09-29T08:51:18.480Z</time>
      </trkpt>
      <trkpt lat="64.196" lon="20.84296">
        <ele>81.525304</ele>
        <time>2020-09-29T08:51:20.494Z</time>
      </trkpt>
      <trkpt lat="64.19592" lon="20.8428">
        <ele>80.858437</ele>
        <time>2020-09-29T08:51:22.463Z</time>
      </trkpt>
      <trkpt lat="64.19583" lon="20.8427">
        <ele>80.227187</ele>
        <time>2020-09-29T08:51:26.492Z</time>
      </trkpt>
      <trkpt lat="64.19572" lon="20.84282">
        <ele>79.48269</ele>
        <time>2020-09-29T08:51:29.459Z</time>
      </trkpt>
      <trkpt lat="64.19562" lon="20.84301">
        <ele>78.847585</ele>
        <time>2020-09-29T08:51:32.504Z</time>
      </trkpt>
      <trkpt lat="64.19552" lon="20.84319">
        <ele>78.746717</ele>
        <time>2020-09-29T08:51:35.462Z</time>
      </trkpt>
      <trkpt lat="64.19542" lon="20.84339">
        <ele>78.632943</ele>
        <time>2020-09-29T08:51:38.466Z</time>
      </trkpt>
      <trkpt lat="64.19534" lon="20.84351">
        <ele>78.552572</ele>
        <time>2020-09-29T08:51:40.464Z</time>
      </trkpt>
      <trkpt lat="64.19526" lon="20.84364">
        <ele>78.47549</ele>
        <time>2020-09-29T08:51:42.456Z</time>
      </trkpt>
      <trkpt lat="64.19519" lon="20.84376">
        <ele>78.400456</ele>
        <time>2020-09-29T08:51:44.479Z</time>
      </trkpt>
      <trkpt lat="64.19512" lon="20.84389">
        <ele>78.324941</ele>
        <time>2020-09-29T08:51:46.463Z</time>
      </trkpt>
      <trkpt lat="64.19501" lon="20.84407">
        <ele>78.215994</ele>
        <time>2020-09-29T08:51:49.489Z</time>
      </trkpt>
      <trkpt lat="64.19494" lon="20.84421">
        <ele>78.13678</ele>
        <time>2020-09-29T08:51:51.463Z</time>
      </trkpt>
      <trkpt lat="64.19484" lon="20.8444">
        <ele>78.029531</ele>
        <time>2020-09-29T08:51:54.484Z</time>
      </trkpt>
      <trkpt lat="64.19475" lon="20.84457">
        <ele>77.929415</ele>
        <time>2020-09-29T08:51:57.490Z</time>
      </trkpt>
      <trkpt lat="64.19465" lon="20.84468">
        <ele>77.837082</ele>
        <time>2020-09-29T08:52:00.492Z</time>
      </trkpt>
      <trkpt lat="64.19454" lon="20.84454">
        <ele>77.73705</ele>
        <time>2020-09-29T08:52:03.454Z</time>
      </trkpt>
      <trkpt lat="64.19448" lon="20.84437">
        <ele>77.657798</ele>
        <time>2020-09-29T08:52:05.458Z</time>
      </trkpt>
      <trkpt lat="64.19443" lon="20.84419">
        <ele>77.578799</ele>
        <time>2020-09-29T08:52:07.461Z</time>
      </trkpt>
      <trkpt lat="64.19436" lon="20.84402">
        <ele>77.495819</ele>
        <time>2020-09-29T08:52:09.442Z</time>
      </trkpt>
      <trkpt lat="64.1943" lon="20.84384">
        <ele>77.412464</ele>
        <time>2020-09-29T08:52:11.431Z</time>
      </trkpt>
      <trkpt lat="64.19424" lon="20.84365">
        <ele>77.347984</ele>
        <time>2020-09-29T08:52:13.499Z</time>
      </trkpt>
      <trkpt lat="64.19418" lon="20.84347">
        <ele>77.29514</ele>
        <time>2020-09-29T08:52:15.453Z</time>
      </trkpt>
      <trkpt lat="64.19412" lon="20.84328">
        <ele>77.240951</ele>
        <time>2020-09-29T08:52:17.456Z</time>
      </trkpt>
      <trkpt lat="64.19406" lon="20.8431">
        <ele>77.187455</ele>
        <time>2020-09-29T08:52:19.457Z</time>
      </trkpt>
      <trkpt lat="64.19401" lon="20.84292">
        <ele>77.136727</ele>
        <time>2020-09-29T08:52:21.445Z</time>
      </trkpt>
      <trkpt lat="64.19395" lon="20.84275">
        <ele>77.087825</ele>
        <time>2020-09-29T08:52:23.467Z</time>
      </trkpt>
      <trkpt lat="64.19389" lon="20.84259">
        <ele>77.037326</ele>
        <time>2020-09-29T08:52:25.464Z</time>
      </trkpt>
      <trkpt lat="64.19383" lon="20.84242">
        <ele>76.985949</ele>
        <time>2020-09-29T08:52:27.506Z</time>
      </trkpt>
      <trkpt lat="64.19376" lon="20.84217">
        <ele>76.916319</ele>
        <time>2020-09-29T08:52:30.485Z</time>
      </trkpt>
      <trkpt lat="64.19369" lon="20.84193">
        <ele>76.848514</ele>
        <time>2020-09-29T08:52:33.461Z</time>
      </trkpt>
      <trkpt lat="64.19361" lon="20.84168">
        <ele>76.775817</ele>
        <time>2020-09-29T08:52:36.453Z</time>
      </trkpt>
      <trkpt lat="64.19356" lon="20.8415">
        <ele>76.726967</ele>
        <time>2020-09-29T08:52:38.484Z</time>
      </trkpt>
      <trkpt lat="64.1935" lon="20.84133">
        <ele>76.674306</ele>
        <time>2020-09-29T08:52:40.460Z</time>
      </trkpt>
      <trkpt lat="64.19344" lon="20.84115">
        <ele>76.621421</ele>
        <time>2020-09-29T08:52:42.482Z</time>
      </trkpt>
      <trkpt lat="64.19338" lon="20.84097">
        <ele>76.57025</ele>
        <time>2020-09-29T08:52:44.485Z</time>
      </trkpt>
      <trkpt lat="64.19332" lon="20.84079">
        <ele>76.51689</ele>
        <time>2020-09-29T08:52:46.472Z</time>
      </trkpt>
      <trkpt lat="64.19326" lon="20.84063">
        <ele>76.467961</ele>
        <time>2020-09-29T08:52:48.483Z</time>
      </trkpt>
      <trkpt lat="64.19319" lon="20.84041">
        <ele>76.425203</ele>
        <time>2020-09-29T08:52:51.464Z</time>
      </trkpt>
      <trkpt lat="64.19312" lon="20.84023">
        <ele>76.454398</ele>
        <time>2020-09-29T08:52:54.457Z</time>
      </trkpt>
      <trkpt lat="64.19303" lon="20.84011">
        <ele>76.484693</ele>
        <time>2020-09-29T08:52:57.438Z</time>
      </trkpt>
      <trkpt lat="64.1929" lon="20.84011">
        <ele>76.518564</ele>
        <time>2020-09-29T08:53:00.454Z</time>
      </trkpt>
      <trkpt lat="64.19281" lon="20.84021">
        <ele>76.547232</ele>
        <time>2020-09-29T08:53:03.446Z</time>
      </trkpt>
      <trkpt lat="64.1927" lon="20.84031">
        <ele>76.580099</ele>
        <time>2020-09-29T08:53:06.457Z</time>
      </trkpt>
      <trkpt lat="64.19259" lon="20.8404">
        <ele>76.612279</ele>
        <time>2020-09-29T08:53:09.482Z</time>
      </trkpt>
      <trkpt lat="64.19247" lon="20.8405">
        <ele>76.645802</ele>
        <time>2020-09-29T08:53:12.463Z</time>
      </trkpt>
      <trkpt lat="64.19235" lon="20.84057">
        <ele>76.681575</ele>
        <time>2020-09-29T08:53:15.477Z</time>
      </trkpt>
      <trkpt lat="64.19222" lon="20.84066">
        <ele>76.71704</ele>
        <time>2020-09-29T08:53:18.459Z</time>
      </trkpt>
      <trkpt lat="64.1921" lon="20.84075">
        <ele>76.753628</ele>
        <time>2020-09-29T08:53:21.525Z</time>
      </trkpt>
      <trkpt lat="64.19198" lon="20.84071">
        <ele>76.787536</ele>
        <time>2020-09-29T08:53:24.476Z</time>
      </trkpt>
      <trkpt lat="64.19188" lon="20.84052">
        <ele>76.821515</ele>
        <time>2020-09-29T08:53:27.481Z</time>
      </trkpt>
      <trkpt lat="64.19184" lon="20.84033">
        <ele>76.847332</ele>
        <time>2020-09-29T08:53:29.453Z</time>
      </trkpt>
      <trkpt lat="64.19178" lon="20.84005">
        <ele>76.884044</ele>
        <time>2020-09-29T08:53:32.461Z</time>
      </trkpt>
      <trkpt lat="64.19175" lon="20.83986">
        <ele>76.908881</ele>
        <time>2020-09-29T08:53:34.473Z</time>
      </trkpt>
      <trkpt lat="64.1917" lon="20.83967">
        <ele>77.214867</ele>
        <time>2020-09-29T08:53:36.485Z</time>
      </trkpt>
      <trkpt lat="64.19166" lon="20.83948">
        <ele>77.595429</ele>
        <time>2020-09-29T08:53:38.468Z</time>
      </trkpt>
      <trkpt lat="64.19161" lon="20.8393">
        <ele>77.971976</ele>
        <time>2020-09-29T08:53:40.455Z</time>
      </trkpt>
      <trkpt lat="64.19154" lon="20.83904">
        <ele>78.495414</ele>
        <time>2020-09-29T08:53:43.465Z</time>
      </trkpt>
      <trkpt lat="64.19147" lon="20.83879">
        <ele>79.030425</ele>
        <time>2020-09-29T08:53:46.470Z</time>
      </trkpt>
      <trkpt lat="64.1914" lon="20.83853">
        <ele>79.565878</ele>
        <time>2020-09-29T08:53:49.460Z</time>
      </trkpt>
      <trkpt lat="64.19134" lon="20.83829">
        <ele>80.046745</ele>
        <time>2020-09-29T08:53:52.472Z</time>
      </trkpt>
      <trkpt lat="64.19128" lon="20.83805">
        <ele>80.526295</ele>
        <time>2020-09-29T08:53:55.469Z</time>
      </trkpt>
      <trkpt lat="64.19123" lon="20.8378">
        <ele>81.016722</ele>
        <time>2020-09-29T08:53:58.514Z</time>
      </trkpt>
      <trkpt lat="64.19117" lon="20.83755">
        <ele>81.517853</ele>
        <time>2020-09-29T08:54:01.464Z</time>
      </trkpt>
      <trkpt lat="64.19111" lon="20.83731">
        <ele>82.003051</ele>
        <time>2020-09-29T08:54:04.468Z</time>
      </trkpt>
      <trkpt lat="64.19105" lon="20.83708">
        <ele>82.477104</ele>
        <time>2020-09-29T08:54:07.465Z</time>
      </trkpt>
      <trkpt lat="64.19099" lon="20.83691">
        <ele>82.853778</ele>
        <time>2020-09-29T08:54:10.467Z</time>
      </trkpt>
      <trkpt lat="64.19094" lon="20.83667">
        <ele>83.335245</ele>
        <time>2020-09-29T08:54:13.465Z</time>
      </trkpt>
      <trkpt lat="64.19088" lon="20.83644">
        <ele>83.802366</ele>
        <time>2020-09-29T08:54:16.469Z</time>
      </trkpt>
      <trkpt lat="64.19082" lon="20.83619">
        <ele>84.024478</ele>
        <time>2020-09-29T08:54:19.487Z</time>
      </trkpt>
      <trkpt lat="64.19076" lon="20.83598">
        <ele>83.517277</ele>
        <time>2020-09-29T08:54:22.459Z</time>
      </trkpt>
      <trkpt lat="64.1907" lon="20.83576">
        <ele>83.015101</ele>
        <time>2020-09-29T08:54:25.495Z</time>
      </trkpt>
      <trkpt lat="64.19066" lon="20.8355">
        <ele>82.463424</ele>
        <time>2020-09-29T08:54:28.483Z</time>
      </trkpt>
      <trkpt lat="64.1906" lon="20.83525">
        <ele>81.917286</ele>
        <time>2020-09-29T08:54:31.530Z</time>
      </trkpt>
      <trkpt lat="64.19054" lon="20.83501">
        <ele>81.348989</ele>
        <time>2020-09-29T08:54:34.477Z</time>
      </trkpt>
      <trkpt lat="64.19047" lon="20.83486">
        <ele>80.931165</ele>
        <time>2020-09-29T08:54:36.454Z</time>
      </trkpt>
      <trkpt lat="64.19035" lon="20.8347">
        <ele>80.309266</ele>
        <time>2020-09-29T08:54:39.464Z</time>
      </trkpt>
      <trkpt lat="64.19024" lon="20.83464">
        <ele>79.777113</ele>
        <time>2020-09-29T08:54:41.461Z</time>
      </trkpt>
      <trkpt lat="64.19014" lon="20.83462">
        <ele>79.321372</ele>
        <time>2020-09-29T08:54:43.472Z</time>
      </trkpt>
      <trkpt lat="64.19002" lon="20.83454">
        <ele>78.740646</ele>
        <time>2020-09-29T08:54:46.467Z</time>
      </trkpt>
      <trkpt lat="64.18988" lon="20.83443">
        <ele>78.104267</ele>
        <time>2020-09-29T08:54:49.465Z</time>
      </trkpt>
      <trkpt lat="64.18978" lon="20.83441">
        <ele>77.615727</ele>
        <time>2020-09-29T08:54:51.482Z</time>
      </trkpt>
      <trkpt lat="64.18968" lon="20.83447">
        <ele>77.147317</ele>
        <time>2020-09-29T08:54:53.461Z</time>
      </trkpt>
      <trkpt lat="64.18959" lon="20.8346">
        <ele>76.683843</ele>
        <time>2020-09-29T08:54:55.478Z</time>
      </trkpt>
      <trkpt lat="64.18951" lon="20.83473">
        <ele>76.21927</ele>
        <time>2020-09-29T08:54:57.459Z</time>
      </trkpt>
      <trkpt lat="64.18942" lon="20.83486">
        <ele>75.887479</ele>
        <time>2020-09-29T08:54:59.500Z</time>
      </trkpt>
      <trkpt lat="64.18934" lon="20.83496">
        <ele>75.686117</ele>
        <time>2020-09-29T08:55:01.473Z</time>
      </trkpt>
      <trkpt lat="64.18925" lon="20.83506">
        <ele>75.471232</ele>
        <time>2020-09-29T08:55:03.496Z</time>
      </trkpt>
      <trkpt lat="64.18916" lon="20.83518">
        <ele>75.259753</ele>
        <time>2020-09-29T08:55:05.456Z</time>
      </trkpt>
      <trkpt lat="64.18907" lon="20.83528">
        <ele>75.045072</ele>
        <time>2020-09-29T08:55:07.456Z</time>
      </trkpt>
      <trkpt lat="64.18898" lon="20.83534">
        <ele>74.836867</ele>
        <time>2020-09-29T08:55:09.458Z</time>
      </trkpt>
      <trkpt lat="64.18888" lon="20.83535">
        <ele>74.622302</ele>
        <time>2020-09-29T08:55:11.510Z</time>
      </trkpt>
      <trkpt lat="64.18878" lon="20.83536">
        <ele>74.421089</ele>
        <time>2020-09-29T08:55:13.459Z</time>
      </trkpt>
      <trkpt lat="64.18869" lon="20.83538">
        <ele>74.227759</ele>
        <time>2020-09-29T08:55:15.473Z</time>
      </trkpt>
      <trkpt lat="64.1886" lon="20.8354">
        <ele>74.02393</ele>
        <time>2020-09-29T08:55:17.454Z</time>
      </trkpt>
      <trkpt lat="64.18851" lon="20.83541">
        <ele>73.824504</ele>
        <time>2020-09-29T08:55:19.452Z</time>
      </trkpt>
      <trkpt lat="64.18841" lon="20.83543">
        <ele>73.625011</ele>
        <time>2020-09-29T08:55:21.476Z</time>
      </trkpt>
      <trkpt lat="64.18832" lon="20.83545">
        <ele>73.431304</ele>
        <time>2020-09-29T08:55:23.498Z</time>
      </trkpt>
      <trkpt lat="64.18819" lon="20.83547">
        <ele>73.146312</ele>
        <time>2020-09-29T08:55:26.451Z</time>
      </trkpt>
      <trkpt lat="64.18808" lon="20.83532">
        <ele>72.876692</ele>
        <time>2020-09-29T08:55:29.456Z</time>
      </trkpt>
      <trkpt lat="64.18808" lon="20.8351">
        <ele>72.674171</ele>
        <time>2020-09-29T08:55:31.463Z</time>
      </trkpt>
      <trkpt lat="64.18814" lon="20.83488">
        <ele>72.432721</ele>
        <time>2020-09-29T08:55:34.448Z</time>
      </trkpt>
      <trkpt lat="64.1882" lon="20.83467">
        <ele>72.197219</ele>
        <time>2020-09-29T08:55:37.477Z</time>
      </trkpt>
      <trkpt lat="64.18825" lon="20.83442">
        <ele>72.352865</ele>
        <time>2020-09-29T08:55:40.467Z</time>
      </trkpt>
      <trkpt lat="64.18829" lon="20.8342">
        <ele>72.565714</ele>
        <time>2020-09-29T08:55:43.447Z</time>
      </trkpt>
      <trkpt lat="64.18834" lon="20.83398">
        <ele>72.785546</ele>
        <time>2020-09-29T08:55:46.447Z</time>
      </trkpt>
      <trkpt lat="64.18839" lon="20.83373">
        <ele>73.023312</ele>
        <time>2020-09-29T08:55:49.449Z</time>
      </trkpt>
      <trkpt lat="64.18844" lon="20.83348">
        <ele>73.260234</ele>
        <time>2020-09-29T08:55:52.459Z</time>
      </trkpt>
      <trkpt lat="64.18848" lon="20.83322">
        <ele>73.506759</ele>
        <time>2020-09-29T08:55:55.444Z</time>
      </trkpt>
      <trkpt lat="64.18854" lon="20.83298">
        <ele>73.752535</ele>
        <time>2020-09-29T08:55:58.447Z</time>
      </trkpt>
      <trkpt lat="64.1886" lon="20.83274">
        <ele>73.991631</ele>
        <time>2020-09-29T08:56:01.451Z</time>
      </trkpt>
      <trkpt lat="64.18866" lon="20.83252">
        <ele>74.220781</ele>
        <time>2020-09-29T08:56:04.466Z</time>
      </trkpt>
      <trkpt lat="64.18872" lon="20.83231">
        <ele>74.439318</ele>
        <time>2020-09-29T08:56:07.469Z</time>
      </trkpt>
      <trkpt lat="64.18878" lon="20.83208">
        <ele>74.673613</ele>
        <time>2020-09-29T08:56:10.452Z</time>
      </trkpt>
      <trkpt lat="64.18883" lon="20.83181">
        <ele>74.928275</ele>
        <time>2020-09-29T08:56:13.444Z</time>
      </trkpt>
      <trkpt lat="64.18887" lon="20.83162">
        <ele>75.113661</ele>
        <time>2020-09-29T08:56:15.462Z</time>
      </trkpt>
      <trkpt lat="64.18892" lon="20.83144">
        <ele>75.296727</ele>
        <time>2020-09-29T08:56:17.452Z</time>
      </trkpt>
      <trkpt lat="64.18897" lon="20.83126">
        <ele>75.485333</ele>
        <time>2020-09-29T08:56:19.490Z</time>
      </trkpt>
      <trkpt lat="64.18901" lon="20.83108">
        <ele>75.672162</ele>
        <time>2020-09-29T08:56:21.450Z</time>
      </trkpt>
      <trkpt lat="64.18908" lon="20.83081">
        <ele>75.637888</ele>
        <time>2020-09-29T08:56:24.468Z</time>
      </trkpt>
      <trkpt lat="64.18913" lon="20.83056">
        <ele>75.429639</ele>
        <time>2020-09-29T08:56:27.467Z</time>
      </trkpt>
      <trkpt lat="64.18919" lon="20.83031">
        <ele>75.220332</ele>
        <time>2020-09-29T08:56:30.447Z</time>
      </trkpt>
      <trkpt lat="64.18925" lon="20.83005">
        <ele>75.002942</ele>
        <time>2020-09-29T08:56:33.463Z</time>
      </trkpt>
      <trkpt lat="64.18929" lon="20.82986">
        <ele>74.849044</ele>
        <time>2020-09-29T08:56:35.465Z</time>
      </trkpt>
      <trkpt lat="64.18933" lon="20.82967">
        <ele>74.694821</ele>
        <time>2020-09-29T08:56:37.462Z</time>
      </trkpt>
      <trkpt lat="64.18938" lon="20.82949">
        <ele>74.541594</ele>
        <time>2020-09-29T08:56:39.452Z</time>
      </trkpt>
      <trkpt lat="64.18943" lon="20.82922">
        <ele>74.32055</ele>
        <time>2020-09-29T08:56:42.480Z</time>
      </trkpt>
      <trkpt lat="64.18949" lon="20.82897">
        <ele>74.10605</ele>
        <time>2020-09-29T08:56:45.450Z</time>
      </trkpt>
      <trkpt lat="64.18955" lon="20.82871">
        <ele>73.894609</ele>
        <time>2020-09-29T08:56:48.471Z</time>
      </trkpt>
      <trkpt lat="64.1896" lon="20.82846">
        <ele>73.687784</ele>
        <time>2020-09-29T08:56:51.447Z</time>
      </trkpt>
      <trkpt lat="64.18966" lon="20.82821">
        <ele>73.480418</ele>
        <time>2020-09-29T08:56:54.464Z</time>
      </trkpt>
      <trkpt lat="64.18971" lon="20.82798">
        <ele>73.289125</ele>
        <time>2020-09-29T08:56:57.455Z</time>
      </trkpt>
      <trkpt lat="64.18976" lon="20.82779">
        <ele>73.131512</ele>
        <time>2020-09-29T08:57:00.449Z</time>
      </trkpt>
      <trkpt lat="64.18979" lon="20.8276">
        <ele>72.976969</ele>
        <time>2020-09-29T08:57:03.472Z</time>
      </trkpt>
      <trkpt lat="64.18983" lon="20.82737">
        <ele>72.797491</ele>
        <time>2020-09-29T08:57:07.452Z</time>
      </trkpt>
      <trkpt lat="64.18985" lon="20.82712">
        <ele>72.681476</ele>
        <time>2020-09-29T08:57:11.453Z</time>
      </trkpt>
      <trkpt lat="64.18987" lon="20.82691">
        <ele>72.617918</ele>
        <time>2020-09-29T08:57:14.456Z</time>
      </trkpt>
      <trkpt lat="64.18989" lon="20.82669">
        <ele>72.547014</ele>
        <time>2020-09-29T08:57:17.460Z</time>
      </trkpt>
      <trkpt lat="64.18992" lon="20.82643">
        <ele>72.463826</ele>
        <time>2020-09-29T08:57:20.455Z</time>
      </trkpt>
      <trkpt lat="64.18995" lon="20.82623">
        <ele>72.399543</ele>
        <time>2020-09-29T08:57:22.452Z</time>
      </trkpt>
      <trkpt lat="64.18997" lon="20.82599">
        <ele>72.32554</ele>
        <time>2020-09-29T08:57:24.459Z</time>
      </trkpt>
      <trkpt lat="64.18999" lon="20.82573">
        <ele>72.245725</ele>
        <time>2020-09-29T08:57:26.450Z</time>
      </trkpt>
      <trkpt lat="64.19001" lon="20.82545">
        <ele>72.156209</ele>
        <time>2020-09-29T08:57:28.452Z</time>
      </trkpt>
      <trkpt lat="64.19001" lon="20.82513">
        <ele>72.060849</ele>
        <time>2020-09-29T08:57:30.476Z</time>
      </trkpt>
      <trkpt lat="64.19002" lon="20.82482">
        <ele>71.964444</ele>
        <time>2020-09-29T08:57:32.454Z</time>
      </trkpt>
      <trkpt lat="64.19003" lon="20.82453">
        <ele>71.874992</ele>
        <time>2020-09-29T08:57:34.461Z</time>
      </trkpt>
      <trkpt lat="64.19004" lon="20.82426">
        <ele>71.790621</ele>
        <time>2020-09-29T08:57:36.442Z</time>
      </trkpt>
      <trkpt lat="64.19004" lon="20.824">
        <ele>71.712097</ele>
        <time>2020-09-29T08:57:38.451Z</time>
      </trkpt>
      <trkpt lat="64.19004" lon="20.82377">
        <ele>71.642768</ele>
        <time>2020-09-29T08:57:40.453Z</time>
      </trkpt>
      <trkpt lat="64.19005" lon="20.82356">
        <ele>71.577826</ele>
        <time>2020-09-29T08:57:42.471Z</time>
      </trkpt>
      <trkpt lat="64.19006" lon="20.82326">
        <ele>71.486355</ele>
        <time>2020-09-29T08:57:45.461Z</time>
      </trkpt>
      <trkpt lat="64.19007" lon="20.82298">
        <ele>71.990783</ele>
        <time>2020-09-29T08:57:48.490Z</time>
      </trkpt>
      <trkpt lat="64.19008" lon="20.8227">
        <ele>72.668902</ele>
        <time>2020-09-29T08:57:51.473Z</time>
      </trkpt>
      <trkpt lat="64.19009" lon="20.82241">
        <ele>73.362297</ele>
        <time>2020-09-29T08:57:54.460Z</time>
      </trkpt>
      <trkpt lat="64.19008" lon="20.82212">
        <ele>74.05076</ele>
        <time>2020-09-29T08:57:57.462Z</time>
      </trkpt>
      <trkpt lat="64.19007" lon="20.82185">
        <ele>74.70769</ele>
        <time>2020-09-29T08:58:00.448Z</time>
      </trkpt>
      <trkpt lat="64.19004" lon="20.8216">
        <ele>75.324307</ele>
        <time>2020-09-29T08:58:03.448Z</time>
      </trkpt>
      <trkpt lat="64.18999" lon="20.82137">
        <ele>75.931294</ele>
        <time>2020-09-29T08:58:06.458Z</time>
      </trkpt>
      <trkpt lat="64.18996" lon="20.82114">
        <ele>76.496429</ele>
        <time>2020-09-29T08:58:09.470Z</time>
      </trkpt>
      <trkpt lat="64.18993" lon="20.82093">
        <ele>77.016103</ele>
        <time>2020-09-29T08:58:12.464Z</time>
      </trkpt>
      <trkpt lat="64.1899" lon="20.8207">
        <ele>77.607402</ele>
        <time>2020-09-29T08:58:16.467Z</time>
      </trkpt>
      <trkpt lat="64.18987" lon="20.82049">
        <ele>78.128784</ele>
        <time>2020-09-29T08:58:20.459Z</time>
      </trkpt>
      <trkpt lat="64.18983" lon="20.82029">
        <ele>78.663705</ele>
        <time>2020-09-29T08:58:24.480Z</time>
      </trkpt>
      <trkpt lat="64.18979" lon="20.82005">
        <ele>79.279646</ele>
        <time>2020-09-29T08:58:28.456Z</time>
      </trkpt>
      <trkpt lat="64.18975" lon="20.81979">
        <ele>79.928812</ele>
        <time>2020-09-29T08:58:32.462Z</time>
      </trkpt>
      <trkpt lat="64.18972" lon="20.81954">
        <ele>80.556144</ele>
        <time>2020-09-29T08:58:36.481Z</time>
      </trkpt>
      <trkpt lat="64.18968" lon="20.81932">
        <ele>81.117411</ele>
        <time>2020-09-29T08:58:39.483Z</time>
      </trkpt>
      <trkpt lat="64.18963" lon="20.81909">
        <ele>81.186298</ele>
        <time>2020-09-29T08:58:43.458Z</time>
      </trkpt>
      <trkpt lat="64.18958" lon="20.81889">
        <ele>80.985168</ele>
        <time>2020-09-29T08:58:47.451Z</time>
      </trkpt>
      <trkpt lat="64.18953" lon="20.8187">
        <ele>80.785345</ele>
        <time>2020-09-29T08:58:51.504Z</time>
      </trkpt>
      <trkpt lat="64.18947" lon="20.81852">
        <ele>80.574327</ele>
        <time>2020-09-29T08:58:55.456Z</time>
      </trkpt>
      <trkpt lat="64.18942" lon="20.81833">
        <ele>80.371229</ele>
        <time>2020-09-29T08:58:59.469Z</time>
      </trkpt>
      <trkpt lat="64.18938" lon="20.81811">
        <ele>80.149674</ele>
        <time>2020-09-29T08:59:03.466Z</time>
      </trkpt>
      <trkpt lat="64.18933" lon="20.81787">
        <ele>79.908874</ele>
        <time>2020-09-29T08:59:07.483Z</time>
      </trkpt>
      <trkpt lat="64.1893" lon="20.81765">
        <ele>79.69766</ele>
        <time>2020-09-29T08:59:10.467Z</time>
      </trkpt>
      <trkpt lat="64.18926" lon="20.81742">
        <ele>79.481467</ele>
        <time>2020-09-29T08:59:13.460Z</time>
      </trkpt>
      <trkpt lat="64.18924" lon="20.81716">
        <ele>79.233372</ele>
        <time>2020-09-29T08:59:16.454Z</time>
      </trkpt>
      <trkpt lat="64.1892" lon="20.81687">
        <ele>78.964369</ele>
        <time>2020-09-29T08:59:19.449Z</time>
      </trkpt>
      <trkpt lat="64.18917" lon="20.8166">
        <ele>78.705784</ele>
        <time>2020-09-29T08:59:22.473Z</time>
      </trkpt>
      <trkpt lat="64.18914" lon="20.81633">
        <ele>78.455008</ele>
        <time>2020-09-29T08:59:25.474Z</time>
      </trkpt>
      <trkpt lat="64.18911" lon="20.81607">
        <ele>78.212419</ele>
        <time>2020-09-29T08:59:28.464Z</time>
      </trkpt>
      <trkpt lat="64.18908" lon="20.81586">
        <ele>78.010551</ele>
        <time>2020-09-29T08:59:31.493Z</time>
      </trkpt>
      <trkpt lat="64.18906" lon="20.81562">
        <ele>77.792396</ele>
        <time>2020-09-29T08:59:34.454Z</time>
      </trkpt>
      <trkpt lat="64.18903" lon="20.81538">
        <ele>77.567002</ele>
        <time>2020-09-29T08:59:37.453Z</time>
      </trkpt>
      <trkpt lat="64.189" lon="20.8151">
        <ele>77.34048</ele>
        <time>2020-09-29T08:59:40.460Z</time>
      </trkpt>
      <trkpt lat="64.18898" lon="20.8149">
        <ele>77.178315</ele>
        <time>2020-09-29T08:59:42.464Z</time>
      </trkpt>
      <trkpt lat="64.18896" lon="20.81467">
        <ele>76.996598</ele>
        <time>2020-09-29T08:59:44.452Z</time>
      </trkpt>
      <trkpt lat="64.18894" lon="20.81442">
        <ele>76.800402</ele>
        <time>2020-09-29T08:59:46.462Z</time>
      </trkpt>
      <trkpt lat="64.18891" lon="20.81417">
        <ele>76.602583</ele>
        <time>2020-09-29T08:59:48.459Z</time>
      </trkpt>
      <trkpt lat="64.18888" lon="20.81395">
        <ele>76.420194</ele>
        <time>2020-09-29T08:59:50.461Z</time>
      </trkpt>
      <trkpt lat="64.18884" lon="20.81366">
        <ele>76.185238</ele>
        <time>2020-09-29T08:59:53.458Z</time>
      </trkpt>
      <trkpt lat="64.18882" lon="20.81346">
        <ele>76.025351</ele>
        <time>2020-09-29T08:59:55.455Z</time>
      </trkpt>
      <trkpt lat="64.1888" lon="20.81318">
        <ele>75.801473</ele>
        <time>2020-09-29T08:59:58.461Z</time>
      </trkpt>
      <trkpt lat="64.18878" lon="20.81292">
        <ele>75.596296</ele>
        <time>2020-09-29T09:00:01.495Z</time>
      </trkpt>
      <trkpt lat="64.18875" lon="20.81266">
        <ele>75.386523</ele>
        <time>2020-09-29T09:00:04.457Z</time>
      </trkpt>
      <trkpt lat="64.18874" lon="20.81238">
        <ele>75.163163</ele>
        <time>2020-09-29T09:00:07.453Z</time>
      </trkpt>
      <trkpt lat="64.18871" lon="20.81208">
        <ele>74.932399</ele>
        <time>2020-09-29T09:00:10.469Z</time>
      </trkpt>
      <trkpt lat="64.18868" lon="20.81181">
        <ele>74.706662</ele>
        <time>2020-09-29T09:00:13.452Z</time>
      </trkpt>
      <trkpt lat="64.18865" lon="20.81154">
        <ele>74.496529</ele>
        <time>2020-09-29T09:00:16.457Z</time>
      </trkpt>
      <trkpt lat="64.18862" lon="20.81128">
        <ele>74.362118</ele>
        <time>2020-09-29T09:00:19.466Z</time>
      </trkpt>
      <trkpt lat="64.1886" lon="20.81103">
        <ele>74.348198</ele>
        <time>2020-09-29T09:00:22.464Z</time>
      </trkpt>
      <trkpt lat="64.18857" lon="20.81078">
        <ele>74.334215</ele>
        <time>2020-09-29T09:00:25.460Z</time>
      </trkpt>
      <trkpt lat="64.18855" lon="20.81053">
        <ele>74.320434</ele>
        <time>2020-09-29T09:00:28.466Z</time>
      </trkpt>
      <trkpt lat="64.18852" lon="20.81028">
        <ele>74.306638</ele>
        <time>2020-09-29T09:00:31.486Z</time>
      </trkpt>
      <trkpt lat="64.18849" lon="20.81004">
        <ele>74.293154</ele>
        <time>2020-09-29T09:00:34.515Z</time>
      </trkpt>
      <trkpt lat="64.18846" lon="20.8098">
        <ele>74.279584</ele>
        <time>2020-09-29T09:00:37.489Z</time>
      </trkpt>
      <trkpt lat="64.18842" lon="20.80955">
        <ele>74.265437</ele>
        <time>2020-09-29T09:00:40.450Z</time>
      </trkpt>
      <trkpt lat="64.18838" lon="20.8093">
        <ele>74.251053</ele>
        <time>2020-09-29T09:00:43.452Z</time>
      </trkpt>
      <trkpt lat="64.18833" lon="20.80906">
        <ele>74.237001</ele>
        <time>2020-09-29T09:00:46.477Z</time>
      </trkpt>
      <trkpt lat="64.18828" lon="20.80884">
        <ele>74.223429</ele>
        <time>2020-09-29T09:00:49.446Z</time>
      </trkpt>
      <trkpt lat="64.18822" lon="20.80862">
        <ele>74.210095</ele>
        <time>2020-09-29T09:00:52.442Z</time>
      </trkpt>
      <trkpt lat="64.18816" lon="20.80841">
        <ele>74.196668</ele>
        <time>2020-09-29T09:00:55.491Z</time>
      </trkpt>
      <trkpt lat="64.1881" lon="20.80821">
        <ele>74.183013</ele>
        <time>2020-09-29T09:00:58.468Z</time>
      </trkpt>
      <trkpt lat="64.18803" lon="20.808">
        <ele>74.169135</ele>
        <time>2020-09-29T09:01:01.492Z</time>
      </trkpt>
      <trkpt lat="64.18797" lon="20.80779">
        <ele>74.15582</ele>
        <time>2020-09-29T09:01:04.465Z</time>
      </trkpt>
      <trkpt lat="64.18792" lon="20.80758">
        <ele>74.318248</ele>
        <time>2020-09-29T09:01:07.465Z</time>
      </trkpt>
      <trkpt lat="64.18785" lon="20.80737">
        <ele>74.999052</ele>
        <time>2020-09-29T09:01:10.456Z</time>
      </trkpt>
      <trkpt lat="64.18778" lon="20.80717">
        <ele>75.687919</ele>
        <time>2020-09-29T09:01:13.487Z</time>
      </trkpt>
      <trkpt lat="64.18772" lon="20.80697">
        <ele>76.354806</ele>
        <time>2020-09-29T09:01:16.467Z</time>
      </trkpt>
      <trkpt lat="64.18766" lon="20.80679">
        <ele>76.966879</ele>
        <time>2020-09-29T09:01:19.451Z</time>
      </trkpt>
      <trkpt lat="64.18761" lon="20.80657">
        <ele>77.666295</ele>
        <time>2020-09-29T09:01:23.483Z</time>
      </trkpt>
      <trkpt lat="64.18756" lon="20.80635">
        <ele>78.334685</ele>
        <time>2020-09-29T09:01:27.484Z</time>
      </trkpt>
      <trkpt lat="64.18751" lon="20.80613">
        <ele>79.000762</ele>
        <time>2020-09-29T09:01:31.468Z</time>
      </trkpt>
      <trkpt lat="64.18746" lon="20.80588">
        <ele>79.732585</ele>
        <time>2020-09-29T09:01:35.492Z</time>
      </trkpt>
      <trkpt lat="64.18744" lon="20.80565">
        <ele>80.396033</ele>
        <time>2020-09-29T09:01:39.451Z</time>
      </trkpt>
      <trkpt lat="64.18743" lon="20.8054">
        <ele>81.053043</ele>
        <time>2020-09-29T09:01:43.466Z</time>
      </trkpt>
      <trkpt lat="64.18742" lon="20.80515">
        <ele>81.728997</ele>
        <time>2020-09-29T09:01:47.470Z</time>
      </trkpt>
      <trkpt lat="64.18742" lon="20.80493">
        <ele>82.344318</ele>
        <time>2020-09-29T09:01:51.460Z</time>
      </trkpt>
      <trkpt lat="64.18743" lon="20.80471">
        <ele>82.944507</ele>
        <time>2020-09-29T09:01:55.459Z</time>
      </trkpt>
      <trkpt lat="64.18743" lon="20.80449">
        <ele>83.533218</ele>
        <time>2020-09-29T09:01:59.450Z</time>
      </trkpt>
      <trkpt lat="64.18743" lon="20.80427">
        <ele>84.132535</ele>
        <time>2020-09-29T09:02:03.468Z</time>
      </trkpt>
      <trkpt lat="64.18743" lon="20.80406">
        <ele>84.690903</ele>
        <time>2020-09-29T09:02:07.448Z</time>
      </trkpt>
      <trkpt lat="64.18743" lon="20.80385">
        <ele>85.25754</ele>
        <time>2020-09-29T09:02:11.452Z</time>
      </trkpt>
      <trkpt lat="64.18742" lon="20.80361">
        <ele>85.942572</ele>
        <time>2020-09-29T09:02:16.476Z</time>
      </trkpt>
      <trkpt lat="64.18744" lon="20.80341">
        <ele>86.533074</ele>
        <time>2020-09-29T09:02:20.454Z</time>
      </trkpt>
      <trkpt lat="64.18745" lon="20.80319">
        <ele>87.138056</ele>
        <time>2020-09-29T09:02:24.478Z</time>
      </trkpt>
      <trkpt lat="64.18746" lon="20.80297">
        <ele>87.781855</ele>
        <time>2020-09-29T09:02:28.452Z</time>
      </trkpt>
      <trkpt lat="64.18747" lon="20.80272">
        <ele>88.493749</ele>
        <time>2020-09-29T09:02:32.473Z</time>
      </trkpt>
      <trkpt lat="64.18746" lon="20.80247">
        <ele>89.196509</ele>
        <time>2020-09-29T09:02:36.448Z</time>
      </trkpt>
      <trkpt lat="64.18745" lon="20.80223">
        <ele>89.878185</ele>
        <time>2020-09-29T09:02:40.451Z</time>
      </trkpt>
      <trkpt lat="64.18746" lon="20.80198">
        <ele>90.579597</ele>
        <time>2020-09-29T09:02:44.461Z</time>
      </trkpt>
      <trkpt lat="64.18747" lon="20.80173">
        <ele>91.291362</ele>
        <time>2020-09-29T09:02:48.454Z</time>
      </trkpt>
      <trkpt lat="64.18746" lon="20.80148">
        <ele>91.983344</ele>
        <time>2020-09-29T09:02:52.475Z</time>
      </trkpt>
      <trkpt lat="64.18746" lon="20.80127">
        <ele>92.596443</ele>
        <time>2020-09-29T09:02:56.485Z</time>
      </trkpt>
      <trkpt lat="64.18746" lon="20.80103">
        <ele>93.268817</ele>
        <time>2020-09-29T09:03:00.462Z</time>
      </trkpt>
      <trkpt lat="64.18746" lon="20.80079">
        <ele>93.932438</ele>
        <time>2020-09-29T09:03:04.467Z</time>
      </trkpt>
      <trkpt lat="64.18747" lon="20.80055">
        <ele>94.622968</ele>
        <time>2020-09-29T09:03:08.464Z</time>
      </trkpt>
      <trkpt lat="64.18748" lon="20.80032">
        <ele>95.272318</ele>
        <time>2020-09-29T09:03:12.483Z</time>
      </trkpt>
      <trkpt lat="64.18749" lon="20.8001">
        <ele>95.912136</ele>
        <time>2020-09-29T09:03:16.464Z</time>
      </trkpt>
      <trkpt lat="64.18749" lon="20.79987">
        <ele>96.542169</ele>
        <time>2020-09-29T09:03:20.463Z</time>
      </trkpt>
      <trkpt lat="64.18751" lon="20.79961">
        <ele>96.829668</ele>
        <time>2020-09-29T09:03:24.471Z</time>
      </trkpt>
      <trkpt lat="64.18753" lon="20.79937">
        <ele>96.392856</ele>
        <time>2020-09-29T09:03:28.469Z</time>
      </trkpt>
      <trkpt lat="64.18755" lon="20.7991">
        <ele>95.905939</ele>
        <time>2020-09-29T09:03:32.452Z</time>
      </trkpt>
      <trkpt lat="64.18756" lon="20.79888">
        <ele>95.519519</ele>
        <time>2020-09-29T09:03:35.464Z</time>
      </trkpt>
      <trkpt lat="64.18757" lon="20.79865">
        <ele>95.104605</ele>
        <time>2020-09-29T09:03:38.467Z</time>
      </trkpt>
      <trkpt lat="64.18758" lon="20.79843">
        <ele>94.724446</ele>
        <time>2020-09-29T09:03:41.477Z</time>
      </trkpt>
      <trkpt lat="64.18758" lon="20.79816">
        <ele>94.240479</ele>
        <time>2020-09-29T09:03:45.454Z</time>
      </trkpt>
      <trkpt lat="64.18758" lon="20.79789">
        <ele>93.765274</ele>
        <time>2020-09-29T09:03:49.479Z</time>
      </trkpt>
      <trkpt lat="64.18759" lon="20.79762">
        <ele>93.289807</ele>
        <time>2020-09-29T09:03:53.469Z</time>
      </trkpt>
      <trkpt lat="64.18759" lon="20.79742">
        <ele>92.927692</ele>
        <time>2020-09-29T09:03:56.483Z</time>
      </trkpt>
      <trkpt lat="64.18759" lon="20.7972">
        <ele>92.545632</ele>
        <time>2020-09-29T09:03:59.454Z</time>
      </trkpt>
      <trkpt lat="64.1876" lon="20.79699">
        <ele>92.169213</ele>
        <time>2020-09-29T09:04:02.493Z</time>
      </trkpt>
      <trkpt lat="64.1876" lon="20.79672">
        <ele>91.690528</ele>
        <time>2020-09-29T09:04:06.454Z</time>
      </trkpt>
      <trkpt lat="64.18759" lon="20.7965">
        <ele>91.312191</ele>
        <time>2020-09-29T09:04:09.458Z</time>
      </trkpt>
      <trkpt lat="64.18759" lon="20.79629">
        <ele>90.942477</ele>
        <time>2020-09-29T09:04:12.461Z</time>
      </trkpt>
      <trkpt lat="64.18757" lon="20.79603">
        <ele>90.465255</ele>
        <time>2020-09-29T09:04:16.455Z</time>
      </trkpt>
      <trkpt lat="64.18755" lon="20.79582">
        <ele>90.089712</ele>
        <time>2020-09-29T09:04:19.472Z</time>
      </trkpt>
      <trkpt lat="64.18753" lon="20.79561">
        <ele>89.711637</ele>
        <time>2020-09-29T09:04:22.458Z</time>
      </trkpt>
      <trkpt lat="64.1875" lon="20.79535">
        <ele>90.607376</ele>
        <time>2020-09-29T09:04:26.462Z</time>
      </trkpt>
      <trkpt lat="64.18748" lon="20.79512">
        <ele>91.419945</ele>
        <time>2020-09-29T09:04:30.484Z</time>
      </trkpt>
      <trkpt lat="64.18744" lon="20.7949">
        <ele>92.199562</ele>
        <time>2020-09-29T09:04:34.465Z</time>
      </trkpt>
      <trkpt lat="64.18741" lon="20.79469">
        <ele>92.962944</ele>
        <time>2020-09-29T09:04:38.469Z</time>
      </trkpt>
      <trkpt lat="64.18737" lon="20.79449">
        <ele>93.679266</ele>
        <time>2020-09-29T09:04:42.470Z</time>
      </trkpt>
      <trkpt lat="64.18733" lon="20.79429">
        <ele>94.414244</ele>
        <time>2020-09-29T09:04:46.478Z</time>
      </trkpt>
      <trkpt lat="64.1873" lon="20.79408">
        <ele>95.139423</ele>
        <time>2020-09-29T09:04:50.455Z</time>
      </trkpt>
      <trkpt lat="64.18727" lon="20.79385">
        <ele>95.974193</ele>
        <time>2020-09-29T09:04:55.466Z</time>
      </trkpt>
      <trkpt lat="64.18723" lon="20.7936">
        <ele>96.837327</ele>
        <time>2020-09-29T09:05:00.488Z</time>
      </trkpt>
      <trkpt lat="64.1872" lon="20.7934">
        <ele>97.5581</ele>
        <time>2020-09-29T09:05:04.457Z</time>
      </trkpt>
      <trkpt lat="64.18716" lon="20.79318">
        <ele>98.333293</ele>
        <time>2020-09-29T09:05:08.474Z</time>
      </trkpt>
      <trkpt lat="64.18713" lon="20.79298">
        <ele>99.077406</ele>
        <time>2020-09-29T09:05:12.453Z</time>
      </trkpt>
      <trkpt lat="64.18708" lon="20.79276">
        <ele>99.914543</ele>
        <time>2020-09-29T09:05:17.453Z</time>
      </trkpt>
      <trkpt lat="64.18703" lon="20.79255">
        <ele>100.687851</ele>
        <time>2020-09-29T09:05:21.453Z</time>
      </trkpt>
      <trkpt lat="64.18699" lon="20.79236">
        <ele>101.396379</ele>
        <time>2020-09-29T09:05:25.461Z</time>
      </trkpt>
      <trkpt lat="64.18695" lon="20.79216">
        <ele>102.140935</ele>
        <time>2020-09-29T09:05:29.498Z</time>
      </trkpt>
      <trkpt lat="64.18691" lon="20.79197">
        <ele>102.838821</ele>
        <time>2020-09-29T09:05:33.474Z</time>
      </trkpt>
      <trkpt lat="64.18688" lon="20.79177">
        <ele>103.559131</ele>
        <time>2020-09-29T09:05:37.460Z</time>
      </trkpt>
      <trkpt lat="64.18684" lon="20.79157">
        <ele>103.465781</ele>
        <time>2020-09-29T09:05:41.459Z</time>
      </trkpt>
      <trkpt lat="64.1868" lon="20.79137">
        <ele>103.368937</ele>
        <time>2020-09-29T09:05:45.452Z</time>
      </trkpt>
      <trkpt lat="64.18676" lon="20.79118">
        <ele>103.275033</ele>
        <time>2020-09-29T09:05:49.449Z</time>
      </trkpt>
      <trkpt lat="64.18672" lon="20.79098">
        <ele>103.181924</ele>
        <time>2020-09-29T09:05:53.467Z</time>
      </trkpt>
      <trkpt lat="64.18668" lon="20.79079">
        <ele>103.089985</ele>
        <time>2020-09-29T09:05:57.444Z</time>
      </trkpt>
      <trkpt lat="64.18664" lon="20.79059">
        <ele>102.994845</ele>
        <time>2020-09-29T09:06:01.468Z</time>
      </trkpt>
      <trkpt lat="64.18661" lon="20.79039">
        <ele>102.900822</ele>
        <time>2020-09-29T09:06:05.467Z</time>
      </trkpt>
      <trkpt lat="64.18657" lon="20.79018">
        <ele>102.798878</ele>
        <time>2020-09-29T09:06:09.465Z</time>
      </trkpt>
      <trkpt lat="64.18653" lon="20.78998">
        <ele>102.702478</ele>
        <time>2020-09-29T09:06:13.462Z</time>
      </trkpt>
      <trkpt lat="64.18648" lon="20.78976">
        <ele>102.594473</ele>
        <time>2020-09-29T09:06:17.454Z</time>
      </trkpt>
      <trkpt lat="64.18644" lon="20.78954">
        <ele>102.490119</ele>
        <time>2020-09-29T09:06:21.487Z</time>
      </trkpt>
      <trkpt lat="64.1864" lon="20.78934">
        <ele>102.390184</ele>
        <time>2020-09-29T09:06:25.455Z</time>
      </trkpt>
      <trkpt lat="64.18636" lon="20.78913">
        <ele>102.289858</ele>
        <time>2020-09-29T09:06:29.446Z</time>
      </trkpt>
      <trkpt lat="64.18632" lon="20.78892">
        <ele>102.194728</ele>
        <time>2020-09-29T09:06:33.451Z</time>
      </trkpt>
      <trkpt lat="64.18628" lon="20.78874">
        <ele>102.104027</ele>
        <time>2020-09-29T09:06:37.468Z</time>
      </trkpt>
      <trkpt lat="64.18624" lon="20.78854">
        <ele>102.0105</ele>
        <time>2020-09-29T09:06:41.458Z</time>
      </trkpt>
      <trkpt lat="64.1862" lon="20.78833">
        <ele>101.905058</ele>
        <time>2020-09-29T09:06:45.465Z</time>
      </trkpt>
      <trkpt lat="64.18615" lon="20.7881">
        <ele>101.792631</ele>
        <time>2020-09-29T09:06:49.462Z</time>
      </trkpt>
      <trkpt lat="64.1861" lon="20.78786">
        <ele>101.732354</ele>
        <time>2020-09-29T09:06:53.457Z</time>
      </trkpt>
      <trkpt lat="64.18605" lon="20.78763">
        <ele>101.702052</ele>
        <time>2020-09-29T09:06:57.454Z</time>
      </trkpt>
      <trkpt lat="64.18601" lon="20.78739">
        <ele>101.670859</ele>
        <time>2020-09-29T09:07:01.447Z</time>
      </trkpt>
      <trkpt lat="64.18597" lon="20.78719">
        <ele>101.643677</ele>
        <time>2020-09-29T09:07:05.471Z</time>
      </trkpt>
      <trkpt lat="64.18592" lon="20.78699">
        <ele>101.615979</ele>
        <time>2020-09-29T09:07:09.474Z</time>
      </trkpt>
      <trkpt lat="64.18587" lon="20.7868">
        <ele>101.589066</ele>
        <time>2020-09-29T09:07:13.464Z</time>
      </trkpt>
      <trkpt lat="64.18582" lon="20.78662">
        <ele>101.562666</ele>
        <time>2020-09-29T09:07:17.455Z</time>
      </trkpt>
      <trkpt lat="64.18577" lon="20.78645">
        <ele>101.536862</ele>
        <time>2020-09-29T09:07:21.502Z</time>
      </trkpt>
      <trkpt lat="64.1857" lon="20.78625">
        <ele>101.505953</ele>
        <time>2020-09-29T09:07:26.464Z</time>
      </trkpt>
      <trkpt lat="64.18563" lon="20.78609">
        <ele>101.478735</ele>
        <time>2020-09-29T09:07:30.456Z</time>
      </trkpt>
      <trkpt lat="64.18555" lon="20.7859">
        <ele>101.447297</ele>
        <time>2020-09-29T09:07:34.475Z</time>
      </trkpt>
      <trkpt lat="64.18548" lon="20.78572">
        <ele>101.416774</ele>
        <time>2020-09-29T09:07:38.464Z</time>
      </trkpt>
      <trkpt lat="64.18541" lon="20.78555">
        <ele>101.38956</ele>
        <time>2020-09-29T09:07:42.479Z</time>
      </trkpt>
      <trkpt lat="64.18535" lon="20.78536">
        <ele>101.360487</ele>
        <time>2020-09-29T09:07:46.446Z</time>
      </trkpt>
      <trkpt lat="64.18528" lon="20.78519">
        <ele>101.332904</ele>
        <time>2020-09-29T09:07:50.462Z</time>
      </trkpt>
      <trkpt lat="64.18521" lon="20.78503">
        <ele>101.305282</ele>
        <time>2020-09-29T09:07:54.454Z</time>
      </trkpt>
      <trkpt lat="64.18514" lon="20.78487">
        <ele>101.277029</ele>
        <time>2020-09-29T09:07:58.464Z</time>
      </trkpt>
      <trkpt lat="64.18506" lon="20.78469">
        <ele>101.330551</ele>
        <time>2020-09-29T09:08:02.466Z</time>
      </trkpt>
      <trkpt lat="64.18499" lon="20.78449">
        <ele>101.782648</ele>
        <time>2020-09-29T09:08:06.460Z</time>
      </trkpt>
      <trkpt lat="64.18493" lon="20.78433">
        <ele>102.173253</ele>
        <time>2020-09-29T09:08:09.484Z</time>
      </trkpt>
      <trkpt lat="64.18486" lon="20.78416">
        <ele>102.57444</ele>
        <time>2020-09-29T09:08:12.460Z</time>
      </trkpt>
      <trkpt lat="64.1848" lon="20.784">
        <ele>102.957564</ele>
        <time>2020-09-29T09:08:15.491Z</time>
      </trkpt>
      <trkpt lat="64.18472" lon="20.78387">
        <ele>103.326092</ele>
        <time>2020-09-29T09:08:18.456Z</time>
      </trkpt>
      <trkpt lat="64.18466" lon="20.78371">
        <ele>103.722477</ele>
        <time>2020-09-29T09:08:21.455Z</time>
      </trkpt>
      <trkpt lat="64.18459" lon="20.78355">
        <ele>104.130857</ele>
        <time>2020-09-29T09:08:24.448Z</time>
      </trkpt>
      <trkpt lat="64.18452" lon="20.7834">
        <ele>104.515985</ele>
        <time>2020-09-29T09:08:27.454Z</time>
      </trkpt>
      <trkpt lat="64.18444" lon="20.7832">
        <ele>104.994631</ele>
        <time>2020-09-29T09:08:31.504Z</time>
      </trkpt>
      <trkpt lat="64.18438" lon="20.78303">
        <ele>105.36409</ele>
        <time>2020-09-29T09:08:34.455Z</time>
      </trkpt>
      <trkpt lat="64.18431" lon="20.78285">
        <ele>105.793234</ele>
        <time>2020-09-29T09:08:38.472Z</time>
      </trkpt>
      <trkpt lat="64.18425" lon="20.78265">
        <ele>106.239188</ele>
        <time>2020-09-29T09:08:42.454Z</time>
      </trkpt>
      <trkpt lat="64.18417" lon="20.78247">
        <ele>106.674111</ele>
        <time>2020-09-29T09:08:46.448Z</time>
      </trkpt>
      <trkpt lat="64.1841" lon="20.78231">
        <ele>107.078702</ele>
        <time>2020-09-29T09:08:50.481Z</time>
      </trkpt>
      <trkpt lat="64.18404" lon="20.78215">
        <ele>107.450535</ele>
        <time>2020-09-29T09:08:54.474Z</time>
      </trkpt>
      <trkpt lat="64.18396" lon="20.78199">
        <ele>107.873391</ele>
        <time>2020-09-29T09:08:58.463Z</time>
      </trkpt>
      <trkpt lat="64.1839" lon="20.78182">
        <ele>108.266562</ele>
        <time>2020-09-29T09:09:02.452Z</time>
      </trkpt>
      <trkpt lat="64.18384" lon="20.78165">
        <ele>108.837573</ele>
        <time>2020-09-29T09:09:06.455Z</time>
      </trkpt>
      <trkpt lat="64.18379" lon="20.78144">
        <ele>110.035401</ele>
        <time>2020-09-29T09:09:11.463Z</time>
      </trkpt>
      <trkpt lat="64.18376" lon="20.78121">
        <ele>111.205026</ele>
        <time>2020-09-29T09:09:16.485Z</time>
      </trkpt>
      <trkpt lat="64.18375" lon="20.78101">
        <ele>112.239608</ele>
        <time>2020-09-29T09:09:20.461Z</time>
      </trkpt>
      <trkpt lat="64.18374" lon="20.78079">
        <ele>113.338322</ele>
        <time>2020-09-29T09:09:25.488Z</time>
      </trkpt>
      <trkpt lat="64.18376" lon="20.78053">
        <ele>114.62223</ele>
        <time>2020-09-29T09:09:30.452Z</time>
      </trkpt>
      <trkpt lat="64.18377" lon="20.78032">
        <ele>115.688018</ele>
        <time>2020-09-29T09:09:34.459Z</time>
      </trkpt>
      <trkpt lat="64.18378" lon="20.78008">
        <ele>116.86659</ele>
        <time>2020-09-29T09:09:39.469Z</time>
      </trkpt>
      <trkpt lat="64.1838" lon="20.77986">
        <ele>117.991143</ele>
        <time>2020-09-29T09:09:43.478Z</time>
      </trkpt>
      <trkpt lat="64.18383" lon="20.77964">
        <ele>119.146493</ele>
        <time>2020-09-29T09:09:48.454Z</time>
      </trkpt>
      <trkpt lat="64.18385" lon="20.7794">
        <ele>120.342273</ele>
        <time>2020-09-29T09:09:55.459Z</time>
      </trkpt>
      <trkpt lat="64.18387" lon="20.77918">
        <ele>121.443069</ele>
        <time>2020-09-29T09:10:01.454Z</time>
      </trkpt>
      <trkpt lat="64.18389" lon="20.77896">
        <ele>122.572243</ele>
        <time>2020-09-29T09:10:07.460Z</time>
      </trkpt>
      <trkpt lat="64.1839" lon="20.77872">
        <ele>123.780496</ele>
        <time>2020-09-29T09:10:14.495Z</time>
      </trkpt>
      <trkpt lat="64.18391" lon="20.77851">
        <ele>124.846279</ele>
        <time>2020-09-29T09:10:20.450Z</time>
      </trkpt>
      <trkpt lat="64.18394" lon="20.7783">
        <ele>125.917102</ele>
        <time>2020-09-29T09:10:26.472Z</time>
      </trkpt>
      <trkpt lat="64.18396" lon="20.77808">
        <ele>127.053642</ele>
        <time>2020-09-29T09:10:32.487Z</time>
      </trkpt>
      <trkpt lat="64.18397" lon="20.77786">
        <ele>128.12998</ele>
        <time>2020-09-29T09:10:38.454Z</time>
      </trkpt>
      <trkpt lat="64.18399" lon="20.77765">
        <ele>129.120413</ele>
        <time>2020-09-29T09:10:44.459Z</time>
      </trkpt>
      <trkpt lat="64.18401" lon="20.77743">
        <ele>129.431262</ele>
        <time>2020-09-29T09:10:50.471Z</time>
      </trkpt>
      <trkpt lat="64.18402" lon="20.77722">
        <ele>129.725058</ele>
        <time>2020-09-29T09:10:55.452Z</time>
      </trkpt>
      <trkpt lat="64.18404" lon="20.77699">
        <ele>130.059463</ele>
        <time>2020-09-29T09:11:00.487Z</time>
      </trkpt>
      <trkpt lat="64.18406" lon="20.77676">
        <ele>130.392348</ele>
        <time>2020-09-29T09:11:05.467Z</time>
      </trkpt>
      <trkpt lat="64.18409" lon="20.77653">
        <ele>130.734219</ele>
        <time>2020-09-29T09:11:11.459Z</time>
      </trkpt>
      <trkpt lat="64.18412" lon="20.77632">
        <ele>131.037438</ele>
        <time>2020-09-29T09:11:17.464Z</time>
      </trkpt>
      <trkpt lat="64.18415" lon="20.7761">
        <ele>131.368074</ele>
        <time>2020-09-29T09:11:23.464Z</time>
      </trkpt>
      <trkpt lat="64.1842" lon="20.77592">
        <ele>131.664191</ele>
        <time>2020-09-29T09:11:28.455Z</time>
      </trkpt>
      <trkpt lat="64.18423" lon="20.77572">
        <ele>131.972027</ele>
        <time>2020-09-29T09:11:35.466Z</time>
      </trkpt>
      <trkpt lat="64.18428" lon="20.77553">
        <ele>132.267364</ele>
        <time>2020-09-29T09:11:40.503Z</time>
      </trkpt>
      <trkpt lat="64.1843" lon="20.77533">
        <ele>132.565056</ele>
        <time>2020-09-29T09:11:46.456Z</time>
      </trkpt>
      <trkpt lat="64.18434" lon="20.77512">
        <ele>132.879612</ele>
        <time>2020-09-29T09:11:52.473Z</time>
      </trkpt>
      <trkpt lat="64.18439" lon="20.77492">
        <ele>133.210208</ele>
        <time>2020-09-29T09:11:58.483Z</time>
      </trkpt>
      <trkpt lat="64.18444" lon="20.77472">
        <ele>133.538266</ele>
        <time>2020-09-29T09:12:03.468Z</time>
      </trkpt>
      <trkpt lat="64.18449" lon="20.77452">
        <ele>133.860749</ele>
        <time>2020-09-29T09:12:08.482Z</time>
      </trkpt>
      <trkpt lat="64.18453" lon="20.77431">
        <ele>134.18585</ele>
        <time>2020-09-29T09:12:13.496Z</time>
      </trkpt>
      <trkpt lat="64.18457" lon="20.77408">
        <ele>134.535337</ele>
        <time>2020-09-29T09:12:19.451Z</time>
      </trkpt>
      <trkpt lat="64.18461" lon="20.77388">
        <ele>134.837975</ele>
        <time>2020-09-29T09:12:24.479Z</time>
      </trkpt>
      <trkpt lat="64.18464" lon="20.77368">
        <ele>134.883456</ele>
        <time>2020-09-29T09:12:28.472Z</time>
      </trkpt>
      <trkpt lat="64.18467" lon="20.77349">
        <ele>134.853427</ele>
        <time>2020-09-29T09:12:32.466Z</time>
      </trkpt>
      <trkpt lat="64.18471" lon="20.77328">
        <ele>134.820459</ele>
        <time>2020-09-29T09:12:37.457Z</time>
      </trkpt>
      <trkpt lat="64.18475" lon="20.77306">
        <ele>134.786867</ele>
        <time>2020-09-29T09:12:42.473Z</time>
      </trkpt>
      <trkpt lat="64.18481" lon="20.77287">
        <ele>134.753077</ele>
        <time>2020-09-29T09:12:47.460Z</time>
      </trkpt>
      <trkpt lat="64.18488" lon="20.77273">
        <ele>134.721981</ele>
        <time>2020-09-29T09:12:52.457Z</time>
      </trkpt>
      <trkpt lat="64.18496" lon="20.77264">
        <ele>134.692066</ele>
        <time>2020-09-29T09:12:57.501Z</time>
      </trkpt>
      <trkpt lat="64.18505" lon="20.77257">
        <ele>134.660546</ele>
        <time>2020-09-29T09:13:02.471Z</time>
      </trkpt>
      <trkpt lat="64.18516" lon="20.77257">
        <ele>134.626902</ele>
        <time>2020-09-29T09:13:08.502Z</time>
      </trkpt>
      <trkpt lat="64.18525" lon="20.77257">
        <ele>134.595886</ele>
        <time>2020-09-29T09:13:14.472Z</time>
      </trkpt>
      <trkpt lat="64.18535" lon="20.77252">
        <ele>134.562275</ele>
        <time>2020-09-29T09:13:20.452Z</time>
      </trkpt>
      <trkpt lat="64.18545" lon="20.77247">
        <ele>134.52881</ele>
        <time>2020-09-29T09:13:26.454Z</time>
      </trkpt>
      <trkpt lat="64.18555" lon="20.7724">
        <ele>134.494244</ele>
        <time>2020-09-29T09:13:33.481Z</time>
      </trkpt>
      <trkpt lat="64.18563" lon="20.7723">
        <ele>134.464179</ele>
        <time>2020-09-29T09:13:39.471Z</time>
      </trkpt>
      <trkpt lat="64.18572" lon="20.77217">
        <ele>134.42911</ele>
        <time>2020-09-29T09:13:46.469Z</time>
      </trkpt>
      <trkpt lat="64.18579" lon="20.77204">
        <ele>134.398379</ele>
        <time>2020-09-29T09:13:51.453Z</time>
      </trkpt>
      <trkpt lat="64.18587" lon="20.77189">
        <ele>134.364511</ele>
        <time>2020-09-29T09:13:57.459Z</time>
      </trkpt>
      <trkpt lat="64.18594" lon="20.77171">
        <ele>134.330158</ele>
        <time>2020-09-29T09:14:03.460Z</time>
      </trkpt>
      <trkpt lat="64.186" lon="20.77156">
        <ele>134.287619</ele>
        <time>2020-09-29T09:14:09.471Z</time>
      </trkpt>
      <trkpt lat="64.18606" lon="20.77136">
        <ele>134.223179</ele>
        <time>2020-09-29T09:14:15.464Z</time>
      </trkpt>
      <trkpt lat="64.1861" lon="20.77118">
        <ele>134.165037</ele>
        <time>2020-09-29T09:14:21.455Z</time>
      </trkpt>
      <trkpt lat="64.18614" lon="20.77098">
        <ele>134.103834</ele>
        <time>2020-09-29T09:14:27.464Z</time>
      </trkpt>
      <trkpt lat="64.18618" lon="20.77079">
        <ele>134.043531</ele>
        <time>2020-09-29T09:14:32.471Z</time>
      </trkpt>
      <trkpt lat="64.18621" lon="20.77059">
        <ele>133.985048</ele>
        <time>2020-09-29T09:14:36.474Z</time>
      </trkpt>
      <trkpt lat="64.18622" lon="20.77035">
        <ele>133.917786</ele>
        <time>2020-09-29T09:14:40.464Z</time>
      </trkpt>
      <trkpt lat="64.18623" lon="20.77013">
        <ele>133.857733</ele>
        <time>2020-09-29T09:14:43.452Z</time>
      </trkpt>
      <trkpt lat="64.18622" lon="20.76991">
        <ele>133.794773</ele>
        <time>2020-09-29T09:14:46.491Z</time>
      </trkpt>
      <trkpt lat="64.18622" lon="20.7697">
        <ele>133.736367</ele>
        <time>2020-09-29T09:14:49.470Z</time>
      </trkpt>
      <trkpt lat="64.18623" lon="20.76945">
        <ele>133.665695</ele>
        <time>2020-09-29T09:14:53.468Z</time>
      </trkpt>
      <trkpt lat="64.18625" lon="20.76925">
        <ele>133.607419</ele>
        <time>2020-09-29T09:14:56.485Z</time>
      </trkpt>
      <trkpt lat="64.18629" lon="20.769">
        <ele>133.533989</ele>
        <time>2020-09-29T09:15:00.455Z</time>
      </trkpt>
      <trkpt lat="64.18634" lon="20.76875">
        <ele>133.459465</ele>
        <time>2020-09-29T09:15:04.457Z</time>
      </trkpt>
      <trkpt lat="64.18638" lon="20.76853">
        <ele>133.391328</ele>
        <time>2020-09-29T09:15:08.465Z</time>
      </trkpt>
      <trkpt lat="64.18641" lon="20.76827">
        <ele>133.316191</ele>
        <time>2020-09-29T09:15:12.467Z</time>
      </trkpt>
      <trkpt lat="64.18644" lon="20.768">
        <ele>133.238128</ele>
        <time>2020-09-29T09:15:16.463Z</time>
      </trkpt>
      <trkpt lat="64.18647" lon="20.76777">
        <ele>133.173427</ele>
        <time>2020-09-29T09:15:19.464Z</time>
      </trkpt>
      <trkpt lat="64.1865" lon="20.76754">
        <ele>133.376709</ele>
        <time>2020-09-29T09:15:22.466Z</time>
      </trkpt>
      <trkpt lat="64.18656" lon="20.76732">
        <ele>133.646339</ele>
        <time>2020-09-29T09:15:25.477Z</time>
      </trkpt>
      <trkpt lat="64.18662" lon="20.76715">
        <ele>133.879888</ele>
        <time>2020-09-29T09:15:28.471Z</time>
      </trkpt>
      <trkpt lat="64.1867" lon="20.76697">
        <ele>134.166833</ele>
        <time>2020-09-29T09:15:31.464Z</time>
      </trkpt>
      <trkpt lat="64.18679" lon="20.76678">
        <ele>134.468235</ele>
        <time>2020-09-29T09:15:34.448Z</time>
      </trkpt>
      <trkpt lat="64.18688" lon="20.76661">
        <ele>134.754498</ele>
        <time>2020-09-29T09:15:37.457Z</time>
      </trkpt>
      <trkpt lat="64.18696" lon="20.76643">
        <ele>135.016969</ele>
        <time>2020-09-29T09:15:40.471Z</time>
      </trkpt>
      <trkpt lat="64.18705" lon="20.76623">
        <ele>135.327606</ele>
        <time>2020-09-29T09:15:43.457Z</time>
      </trkpt>
      <trkpt lat="64.18712" lon="20.7661">
        <ele>135.550104</ele>
        <time>2020-09-29T09:15:45.456Z</time>
      </trkpt>
      <trkpt lat="64.18719" lon="20.76598">
        <ele>135.772511</ele>
        <time>2020-09-29T09:15:47.463Z</time>
      </trkpt>
      <trkpt lat="64.18731" lon="20.76585">
        <ele>136.079573</ele>
        <time>2020-09-29T09:15:50.465Z</time>
      </trkpt>
      <trkpt lat="64.18738" lon="20.76574">
        <ele>136.306521</ele>
        <time>2020-09-29T09:15:53.471Z</time>
      </trkpt>
      <trkpt lat="64.18747" lon="20.7656">
        <ele>136.57152</ele>
        <time>2020-09-29T09:15:56.472Z</time>
      </trkpt>
      <trkpt lat="64.18755" lon="20.76544">
        <ele>136.832585</ele>
        <time>2020-09-29T09:15:59.469Z</time>
      </trkpt>
      <trkpt lat="64.18762" lon="20.76527">
        <ele>137.0867</ele>
        <time>2020-09-29T09:16:02.482Z</time>
      </trkpt>
      <trkpt lat="64.18768" lon="20.7651">
        <ele>137.313009</ele>
        <time>2020-09-29T09:16:05.464Z</time>
      </trkpt>
      <trkpt lat="64.18775" lon="20.76487">
        <ele>137.589656</ele>
        <time>2020-09-29T09:16:09.471Z</time>
      </trkpt>
      <trkpt lat="64.18781" lon="20.76467">
        <ele>137.679361</ele>
        <time>2020-09-29T09:16:12.455Z</time>
      </trkpt>
      <trkpt lat="64.18787" lon="20.76446">
        <ele>137.776184</ele>
        <time>2020-09-29T09:16:15.452Z</time>
      </trkpt>
      <trkpt lat="64.18795" lon="20.76426">
        <ele>137.875973</ele>
        <time>2020-09-29T09:16:18.459Z</time>
      </trkpt>
      <trkpt lat="64.18801" lon="20.76407">
        <ele>137.968729</ele>
        <time>2020-09-29T09:16:21.465Z</time>
      </trkpt>
      <trkpt lat="64.18808" lon="20.76388">
        <ele>138.057861</ele>
        <time>2020-09-29T09:16:24.464Z</time>
      </trkpt>
      <trkpt lat="64.18814" lon="20.76369">
        <ele>138.145335</ele>
        <time>2020-09-29T09:16:27.455Z</time>
      </trkpt>
      <trkpt lat="64.18821" lon="20.76347">
        <ele>138.252036</ele>
        <time>2020-09-29T09:16:30.468Z</time>
      </trkpt>
      <trkpt lat="64.1883" lon="20.76325">
        <ele>138.365794</ele>
        <time>2020-09-29T09:16:33.466Z</time>
      </trkpt>
      <trkpt lat="64.18836" lon="20.7631">
        <ele>138.444276</ele>
        <time>2020-09-29T09:16:35.457Z</time>
      </trkpt>
      <trkpt lat="64.18843" lon="20.76293">
        <ele>138.531887</ele>
        <time>2020-09-29T09:16:37.469Z</time>
      </trkpt>
      <trkpt lat="64.1885" lon="20.76276">
        <ele>138.61846</ele>
        <time>2020-09-29T09:16:39.456Z</time>
      </trkpt>
      <trkpt lat="64.18857" lon="20.76262">
        <ele>138.702764</ele>
        <time>2020-09-29T09:16:41.525Z</time>
      </trkpt>
      <trkpt lat="64.18865" lon="20.76249">
        <ele>138.785697</ele>
        <time>2020-09-29T09:16:43.452Z</time>
      </trkpt>
      <trkpt lat="64.18874" lon="20.76238">
        <ele>138.870171</ele>
        <time>2020-09-29T09:16:45.458Z</time>
      </trkpt>
      <trkpt lat="64.18883" lon="20.76231">
        <ele>138.954785</ele>
        <time>2020-09-29T09:16:47.452Z</time>
      </trkpt>
      <trkpt lat="64.18895" lon="20.76229">
        <ele>139.057416</ele>
        <time>2020-09-29T09:16:50.450Z</time>
      </trkpt>
      <trkpt lat="64.18905" lon="20.76232">
        <ele>139.070149</ele>
        <time>2020-09-29T09:16:53.470Z</time>
      </trkpt>
      <trkpt lat="64.18916" lon="20.76235">
        <ele>138.312812</ele>
        <time>2020-09-29T09:16:56.464Z</time>
      </trkpt>
      <trkpt lat="64.18927" lon="20.76238">
        <ele>137.574085</ele>
        <time>2020-09-29T09:16:59.460Z</time>
      </trkpt>
      <trkpt lat="64.18936" lon="20.76241">
        <ele>136.944724</ele>
        <time>2020-09-29T09:17:01.452Z</time>
      </trkpt>
      <trkpt lat="64.18948" lon="20.76246">
        <ele>136.146928</ele>
        <time>2020-09-29T09:17:03.517Z</time>
      </trkpt>
      <trkpt lat="64.1896" lon="20.76254">
        <ele>135.285138</ele>
        <time>2020-09-29T09:17:05.450Z</time>
      </trkpt>
      <trkpt lat="64.18971" lon="20.76265">
        <ele>134.429992</ele>
        <time>2020-09-29T09:17:07.449Z</time>
      </trkpt>
      <trkpt lat="64.18981" lon="20.76278">
        <ele>133.675189</ele>
        <time>2020-09-29T09:17:09.459Z</time>
      </trkpt>
      <trkpt lat="64.18992" lon="20.76294">
        <ele>132.799582</ele>
        <time>2020-09-29T09:17:12.467Z</time>
      </trkpt>
      <trkpt lat="64.19002" lon="20.763">
        <ele>132.091501</ele>
        <time>2020-09-29T09:17:15.471Z</time>
      </trkpt>
      <trkpt lat="64.19012" lon="20.7629">
        <ele>131.387367</ele>
        <time>2020-09-29T09:17:19.486Z</time>
      </trkpt>
      <trkpt lat="64.19013" lon="20.76266">
        <ele>130.694018</ele>
        <time>2020-09-29T09:17:23.472Z</time>
      </trkpt>
      <trkpt lat="64.19011" lon="20.76245">
        <ele>130.052545</ele>
        <time>2020-09-29T09:17:26.480Z</time>
      </trkpt>
      <trkpt lat="64.19007" lon="20.76224">
        <ele>129.371073</ele>
        <time>2020-09-29T09:17:29.479Z</time>
      </trkpt>
      <trkpt lat="64.19001" lon="20.76201">
        <ele>128.610867</ele>
        <time>2020-09-29T09:17:32.458Z</time>
      </trkpt>
      <trkpt lat="64.18993" lon="20.76179">
        <ele>127.745069</ele>
        <time>2020-09-29T09:17:35.473Z</time>
      </trkpt>
      <trkpt lat="64.18987" lon="20.76161">
        <ele>127.099357</ele>
        <time>2020-09-29T09:17:37.470Z</time>
      </trkpt>
      <trkpt lat="64.18981" lon="20.76144">
        <ele>126.534591</ele>
        <time>2020-09-29T09:17:39.463Z</time>
      </trkpt>
      <trkpt lat="64.18974" lon="20.76127">
        <ele>125.992201</ele>
        <time>2020-09-29T09:17:41.505Z</time>
      </trkpt>
      <trkpt lat="64.18966" lon="20.76109">
        <ele>125.424267</ele>
        <time>2020-09-29T09:17:43.465Z</time>
      </trkpt>
      <trkpt lat="64.18958" lon="20.76093">
        <ele>124.838665</ele>
        <time>2020-09-29T09:17:45.470Z</time>
      </trkpt>
      <trkpt lat="64.18948" lon="20.76077">
        <ele>124.22174</ele>
        <time>2020-09-29T09:17:47.450Z</time>
      </trkpt>
      <trkpt lat="64.1894" lon="20.76058">
        <ele>123.604561</ele>
        <time>2020-09-29T09:17:49.476Z</time>
      </trkpt>
      <trkpt lat="64.18931" lon="20.76038">
        <ele>122.956137</ele>
        <time>2020-09-29T09:17:51.465Z</time>
      </trkpt>
      <trkpt lat="64.18922" lon="20.76019">
        <ele>122.309319</ele>
        <time>2020-09-29T09:17:53.470Z</time>
      </trkpt>
      <trkpt lat="64.18913" lon="20.76">
        <ele>121.632933</ele>
        <time>2020-09-29T09:17:55.467Z</time>
      </trkpt>
      <trkpt lat="64.18902" lon="20.7598">
        <ele>120.933077</ele>
        <time>2020-09-29T09:17:57.503Z</time>
      </trkpt>
      <trkpt lat="64.18892" lon="20.75959">
        <ele>120.199758</ele>
        <time>2020-09-29T09:17:59.474Z</time>
      </trkpt>
      <trkpt lat="64.18881" lon="20.75937">
        <ele>119.416439</ele>
        <time>2020-09-29T09:18:01.455Z</time>
      </trkpt>
      <trkpt lat="64.18869" lon="20.75914">
        <ele>118.601535</ele>
        <time>2020-09-29T09:18:03.479Z</time>
      </trkpt>
      <trkpt lat="64.18857" lon="20.75891">
        <ele>117.756029</ele>
        <time>2020-09-29T09:18:05.453Z</time>
      </trkpt>
      <trkpt lat="64.18844" lon="20.75866">
        <ele>117.022382</ele>
        <time>2020-09-29T09:18:07.463Z</time>
      </trkpt>
      <trkpt lat="64.18831" lon="20.75839">
        <ele>116.345133</ele>
        <time>2020-09-29T09:18:09.482Z</time>
      </trkpt>
      <trkpt lat="64.18818" lon="20.75812">
        <ele>115.661141</ele>
        <time>2020-09-29T09:18:11.447Z</time>
      </trkpt>
      <trkpt lat="64.18805" lon="20.75784">
        <ele>114.983296</ele>
        <time>2020-09-29T09:18:13.484Z</time>
      </trkpt>
      <trkpt lat="64.18793" lon="20.75755">
        <ele>114.307251</ele>
        <time>2020-09-29T09:18:15.458Z</time>
      </trkpt>
      <trkpt lat="64.18781" lon="20.75726">
        <ele>113.635685</ele>
        <time>2020-09-29T09:18:17.468Z</time>
      </trkpt>
      <trkpt lat="64.18771" lon="20.75698">
        <ele>113.001274</ele>
        <time>2020-09-29T09:18:19.516Z</time>
      </trkpt>
      <trkpt lat="64.1876" lon="20.7567">
        <ele>112.384461</ele>
        <time>2020-09-29T09:18:21.452Z</time>
      </trkpt>
      <trkpt lat="64.18751" lon="20.75643">
        <ele>111.796927</ele>
        <time>2020-09-29T09:18:23.470Z</time>
      </trkpt>
      <trkpt lat="64.18742" lon="20.75617">
        <ele>111.238813</ele>
        <time>2020-09-29T09:18:25.457Z</time>
      </trkpt>
      <trkpt lat="64.18733" lon="20.75594">
        <ele>110.7216</ele>
        <time>2020-09-29T09:18:27.451Z</time>
      </trkpt>
      <trkpt lat="64.18725" lon="20.75573">
        <ele>110.544191</ele>
        <time>2020-09-29T09:18:29.455Z</time>
      </trkpt>
      <trkpt lat="64.18718" lon="20.75551">
        <ele>110.699592</ele>
        <time>2020-09-29T09:18:31.454Z</time>
      </trkpt>
      <trkpt lat="64.1871" lon="20.7553">
        <ele>110.851906</ele>
        <time>2020-09-29T09:18:33.493Z</time>
      </trkpt>
      <trkpt lat="64.18703" lon="20.75509">
        <ele>111.000839</ele>
        <time>2020-09-29T09:18:35.452Z</time>
      </trkpt>
      <trkpt lat="64.18696" lon="20.7549">
        <ele>111.142944</ele>
        <time>2020-09-29T09:18:37.484Z</time>
      </trkpt>
      <trkpt lat="64.1869" lon="20.75471">
        <ele>111.27998</ele>
        <time>2020-09-29T09:18:39.493Z</time>
      </trkpt>
      <trkpt lat="64.18683" lon="20.75452">
        <ele>111.414824</ele>
        <time>2020-09-29T09:18:41.474Z</time>
      </trkpt>
      <trkpt lat="64.18677" lon="20.75433">
        <ele>111.550542</ele>
        <time>2020-09-29T09:18:43.458Z</time>
      </trkpt>
      <trkpt lat="64.1867" lon="20.75415">
        <ele>111.683649</ele>
        <time>2020-09-29T09:18:45.492Z</time>
      </trkpt>
      <trkpt lat="64.18664" lon="20.75397">
        <ele>111.813589</ele>
        <time>2020-09-29T09:18:47.460Z</time>
      </trkpt>
      <trkpt lat="64.18658" lon="20.75379">
        <ele>111.940296</ele>
        <time>2020-09-29T09:18:49.473Z</time>
      </trkpt>
      <trkpt lat="64.18652" lon="20.75362">
        <ele>112.060736</ele>
        <time>2020-09-29T09:18:51.459Z</time>
      </trkpt>
      <trkpt lat="64.18647" lon="20.75346">
        <ele>112.178167</ele>
        <time>2020-09-29T09:18:53.475Z</time>
      </trkpt>
      <trkpt lat="64.18638" lon="20.75323">
        <ele>112.34708</ele>
        <time>2020-09-29T09:18:56.491Z</time>
      </trkpt>
      <trkpt lat="64.1863" lon="20.753">
        <ele>112.514742</ele>
        <time>2020-09-29T09:18:59.471Z</time>
      </trkpt>
      <trkpt lat="64.18622" lon="20.75277">
        <ele>112.677706</ele>
        <time>2020-09-29T09:19:02.492Z</time>
      </trkpt>
      <trkpt lat="64.18614" lon="20.75256">
        <ele>112.810096</ele>
        <time>2020-09-29T09:19:05.451Z</time>
      </trkpt>
      <trkpt lat="64.18606" lon="20.75234">
        <ele>112.85211</ele>
        <time>2020-09-29T09:19:08.462Z</time>
      </trkpt>
      <trkpt lat="64.18598" lon="20.75211">
        <ele>112.8973</ele>
        <time>2020-09-29T09:19:11.482Z</time>
      </trkpt>
      <trkpt lat="64.1859" lon="20.75188">
        <ele>112.941172</ele>
        <time>2020-09-29T09:19:14.460Z</time>
      </trkpt>
      <trkpt lat="64.18581" lon="20.75165">
        <ele>112.984872</ele>
        <time>2020-09-29T09:19:17.467Z</time>
      </trkpt>
      <trkpt lat="64.18573" lon="20.75143">
        <ele>113.028144</ele>
        <time>2020-09-29T09:19:20.453Z</time>
      </trkpt>
      <trkpt lat="64.18565" lon="20.75119">
        <ele>113.072907</ele>
        <time>2020-09-29T09:19:23.522Z</time>
      </trkpt>
      <trkpt lat="64.18557" lon="20.75096">
        <ele>113.117636</ele>
        <time>2020-09-29T09:19:26.451Z</time>
      </trkpt>
      <trkpt lat="64.18549" lon="20.75073">
        <ele>113.162135</ele>
        <time>2020-09-29T09:19:29.454Z</time>
      </trkpt>
      <trkpt lat="64.18541" lon="20.75051">
        <ele>113.2055</ele>
        <time>2020-09-29T09:19:32.469Z</time>
      </trkpt>
      <trkpt lat="64.18532" lon="20.75028">
        <ele>113.250885</ele>
        <time>2020-09-29T09:19:35.467Z</time>
      </trkpt>
      <trkpt lat="64.18524" lon="20.75004">
        <ele>113.295513</ele>
        <time>2020-09-29T09:19:38.472Z</time>
      </trkpt>
      <trkpt lat="64.18515" lon="20.74981">
        <ele>113.341127</ele>
        <time>2020-09-29T09:19:41.468Z</time>
      </trkpt>
      <trkpt lat="64.18509" lon="20.74965">
        <ele>113.371908</ele>
        <time>2020-09-29T09:19:43.473Z</time>
      </trkpt>
      <trkpt lat="64.18501" lon="20.74942">
        <ele>113.408937</ele>
        <time>2020-09-29T09:19:46.485Z</time>
      </trkpt>
      <trkpt lat="64.18492" lon="20.74919">
        <ele>113.304734</ele>
        <time>2020-09-29T09:19:49.480Z</time>
      </trkpt>
      <trkpt lat="64.18487" lon="20.74903">
        <ele>113.234361</ele>
        <time>2020-09-29T09:19:51.491Z</time>
      </trkpt>
      <trkpt lat="64.18481" lon="20.74886">
        <ele>113.162644</ele>
        <time>2020-09-29T09:19:53.482Z</time>
      </trkpt>
      <trkpt lat="64.18473" lon="20.74862">
        <ele>113.056166</ele>
        <time>2020-09-29T09:19:56.453Z</time>
      </trkpt>
      <trkpt lat="64.18467" lon="20.74844">
        <ele>112.978824</ele>
        <time>2020-09-29T09:19:58.477Z</time>
      </trkpt>
      <trkpt lat="64.1846" lon="20.74826">
        <ele>112.899336</ele>
        <time>2020-09-29T09:20:00.458Z</time>
      </trkpt>
      <trkpt lat="64.18454" lon="20.74806">
        <ele>112.813642</ele>
        <time>2020-09-29T09:20:02.492Z</time>
      </trkpt>
      <trkpt lat="64.18446" lon="20.74786">
        <ele>112.721852</ele>
        <time>2020-09-29T09:20:04.467Z</time>
      </trkpt>
      <trkpt lat="64.18438" lon="20.74765">
        <ele>112.627232</ele>
        <time>2020-09-29T09:20:06.452Z</time>
      </trkpt>
      <trkpt lat="64.1843" lon="20.74744">
        <ele>112.531835</ele>
        <time>2020-09-29T09:20:08.468Z</time>
      </trkpt>
      <trkpt lat="64.18423" lon="20.74721">
        <ele>112.435024</ele>
        <time>2020-09-29T09:20:10.463Z</time>
      </trkpt>
      <trkpt lat="64.18415" lon="20.74699">
        <ele>112.3365</ele>
        <time>2020-09-29T09:20:12.461Z</time>
      </trkpt>
      <trkpt lat="64.18407" lon="20.74677">
        <ele>112.236961</ele>
        <time>2020-09-29T09:20:14.470Z</time>
      </trkpt>
      <trkpt lat="64.18399" lon="20.74655">
        <ele>112.139662</ele>
        <time>2020-09-29T09:20:16.463Z</time>
      </trkpt>
      <trkpt lat="64.18391" lon="20.74633">
        <ele>112.040841</ele>
        <time>2020-09-29T09:20:18.471Z</time>
      </trkpt>
      <trkpt lat="64.18383" lon="20.7461">
        <ele>111.681605</ele>
        <time>2020-09-29T09:20:20.462Z</time>
      </trkpt>
      <trkpt lat="64.18375" lon="20.74587">
        <ele>111.125741</ele>
        <time>2020-09-29T09:20:22.487Z</time>
      </trkpt>
      <trkpt lat="64.18367" lon="20.74564">
        <ele>110.562901</ele>
        <time>2020-09-29T09:20:24.481Z</time>
      </trkpt>
      <trkpt lat="64.18358" lon="20.74541">
        <ele>109.987099</ele>
        <time>2020-09-29T09:20:26.471Z</time>
      </trkpt>
      <trkpt lat="64.18349" lon="20.74516">
        <ele>109.384224</ele>
        <time>2020-09-29T09:20:28.471Z</time>
      </trkpt>
      <trkpt lat="64.1834" lon="20.7449">
        <ele>108.740316</ele>
        <time>2020-09-29T09:20:30.487Z</time>
      </trkpt>
      <trkpt lat="64.1833" lon="20.74462">
        <ele>108.066101</ele>
        <time>2020-09-29T09:20:32.465Z</time>
      </trkpt>
      <trkpt lat="64.1832" lon="20.74435">
        <ele>107.377922</ele>
        <time>2020-09-29T09:20:34.460Z</time>
      </trkpt>
      <trkpt lat="64.1831" lon="20.74407">
        <ele>106.698201</ele>
        <time>2020-09-29T09:20:36.463Z</time>
      </trkpt>
      <trkpt lat="64.183" lon="20.74379">
        <ele>106.010018</ele>
        <time>2020-09-29T09:20:38.464Z</time>
      </trkpt>
      <trkpt lat="64.1829" lon="20.74355">
        <ele>105.391237</ele>
        <time>2020-09-29T09:20:40.451Z</time>
      </trkpt>
      <trkpt lat="64.18281" lon="20.74331">
        <ele>104.799974</ele>
        <time>2020-09-29T09:20:42.472Z</time>
      </trkpt>
      <trkpt lat="64.18272" lon="20.74305">
        <ele>104.174259</ele>
        <time>2020-09-29T09:20:44.460Z</time>
      </trkpt>
      <trkpt lat="64.18262" lon="20.74276">
        <ele>103.597294</ele>
        <time>2020-09-29T09:20:46.464Z</time>
      </trkpt>
      <trkpt lat="64.18251" lon="20.74246">
        <ele>102.990842</ele>
        <time>2020-09-29T09:20:48.494Z</time>
      </trkpt>
      <trkpt lat="64.1824" lon="20.74216">
        <ele>102.367007</ele>
        <time>2020-09-29T09:20:50.454Z</time>
      </trkpt>
      <trkpt lat="64.18229" lon="20.74185">
        <ele>101.732606</ele>
        <time>2020-09-29T09:20:52.482Z</time>
      </trkpt>
      <trkpt lat="64.18218" lon="20.74155">
        <ele>101.115671</ele>
        <time>2020-09-29T09:20:54.464Z</time>
      </trkpt>
      <trkpt lat="64.18208" lon="20.74126">
        <ele>100.530515</ele>
        <time>2020-09-29T09:20:56.467Z</time>
      </trkpt>
      <trkpt lat="64.18198" lon="20.74098">
        <ele>99.968233</ele>
        <time>2020-09-29T09:20:58.488Z</time>
      </trkpt>
      <trkpt lat="64.18189" lon="20.74072">
        <ele>99.442647</ele>
        <time>2020-09-29T09:21:00.500Z</time>
      </trkpt>
      <trkpt lat="64.1818" lon="20.74048">
        <ele>98.936282</ele>
        <time>2020-09-29T09:21:02.466Z</time>
      </trkpt>
      <trkpt lat="64.18172" lon="20.74024">
        <ele>98.455997</ele>
        <time>2020-09-29T09:21:04.465Z</time>
      </trkpt>
      <trkpt lat="64.18164" lon="20.74">
        <ele>97.984709</ele>
        <time>2020-09-29T09:21:06.470Z</time>
      </trkpt>
      <trkpt lat="64.18156" lon="20.73977">
        <ele>97.668267</ele>
        <time>2020-09-29T09:21:08.458Z</time>
      </trkpt>
      <trkpt lat="64.18148" lon="20.73954">
        <ele>97.585725</ele>
        <time>2020-09-29T09:21:10.492Z</time>
      </trkpt>
      <trkpt lat="64.1814" lon="20.73932">
        <ele>97.506492</ele>
        <time>2020-09-29T09:21:12.498Z</time>
      </trkpt>
      <trkpt lat="64.18133" lon="20.73912">
        <ele>97.433431</ele>
        <time>2020-09-29T09:21:14.479Z</time>
      </trkpt>
      <trkpt lat="64.18126" lon="20.73893">
        <ele>97.362313</ele>
        <time>2020-09-29T09:21:16.499Z</time>
      </trkpt>
      <trkpt lat="64.18119" lon="20.73875">
        <ele>97.296321</ele>
        <time>2020-09-29T09:21:18.468Z</time>
      </trkpt>
      <trkpt lat="64.18112" lon="20.73858">
        <ele>97.228063</ele>
        <time>2020-09-29T09:21:20.461Z</time>
      </trkpt>
      <trkpt lat="64.18105" lon="20.7384">
        <ele>97.1608</ele>
        <time>2020-09-29T09:21:22.463Z</time>
      </trkpt>
      <trkpt lat="64.18099" lon="20.7382">
        <ele>97.091887</ele>
        <time>2020-09-29T09:21:24.464Z</time>
      </trkpt>
      <trkpt lat="64.18093" lon="20.73802">
        <ele>97.025209</ele>
        <time>2020-09-29T09:21:26.463Z</time>
      </trkpt>
      <trkpt lat="64.18086" lon="20.73784">
        <ele>96.957734</ele>
        <time>2020-09-29T09:21:28.455Z</time>
      </trkpt>
      <trkpt lat="64.18079" lon="20.73767">
        <ele>96.892607</ele>
        <time>2020-09-29T09:21:30.451Z</time>
      </trkpt>
      <trkpt lat="64.18073" lon="20.73748">
        <ele>96.826733</ele>
        <time>2020-09-29T09:21:32.466Z</time>
      </trkpt>
      <trkpt lat="64.18067" lon="20.7373">
        <ele>96.760681</ele>
        <time>2020-09-29T09:21:34.468Z</time>
      </trkpt>
      <trkpt lat="64.1806" lon="20.73713">
        <ele>96.697052</ele>
        <time>2020-09-29T09:21:36.453Z</time>
      </trkpt>
      <trkpt lat="64.18054" lon="20.73695">
        <ele>96.632693</ele>
        <time>2020-09-29T09:21:38.459Z</time>
      </trkpt>
      <trkpt lat="64.18048" lon="20.73677">
        <ele>96.566896</ele>
        <time>2020-09-29T09:21:40.468Z</time>
      </trkpt>
      <trkpt lat="64.18042" lon="20.7366">
        <ele>96.640175</ele>
        <time>2020-09-29T09:21:42.479Z</time>
      </trkpt>
      <trkpt lat="64.18036" lon="20.73644">
        <ele>96.877009</ele>
        <time>2020-09-29T09:21:44.469Z</time>
      </trkpt>
      <trkpt lat="64.18027" lon="20.73621">
        <ele>97.211289</ele>
        <time>2020-09-29T09:21:47.455Z</time>
      </trkpt>
      <trkpt lat="64.1802" lon="20.73599">
        <ele>97.53315</ele>
        <time>2020-09-29T09:21:50.451Z</time>
      </trkpt>
      <trkpt lat="64.18012" lon="20.73578">
        <ele>97.835985</ele>
        <time>2020-09-29T09:21:53.483Z</time>
      </trkpt>
      <trkpt lat="64.18005" lon="20.73557">
        <ele>98.133015</ele>
        <time>2020-09-29T09:21:56.461Z</time>
      </trkpt>
      <trkpt lat="64.17997" lon="20.73537">
        <ele>98.440902</ele>
        <time>2020-09-29T09:21:59.469Z</time>
      </trkpt>
      <trkpt lat="64.17989" lon="20.73515">
        <ele>98.757294</ele>
        <time>2020-09-29T09:22:02.454Z</time>
      </trkpt>
      <trkpt lat="64.17981" lon="20.73491">
        <ele>99.095225</ele>
        <time>2020-09-29T09:22:05.479Z</time>
      </trkpt>
      <trkpt lat="64.17975" lon="20.73475">
        <ele>99.332913</ele>
        <time>2020-09-29T09:22:07.451Z</time>
      </trkpt>
      <trkpt lat="64.17969" lon="20.73459">
        <ele>99.569151</ele>
        <time>2020-09-29T09:22:09.471Z</time>
      </trkpt>
      <trkpt lat="64.17963" lon="20.73443">
        <ele>99.805156</ele>
        <time>2020-09-29T09:22:11.471Z</time>
      </trkpt>
      <trkpt lat="64.17957" lon="20.73426">
        <ele>100.052233</ele>
        <time>2020-09-29T09:22:13.467Z</time>
      </trkpt>
      <trkpt lat="64.17951" lon="20.73408">
        <ele>100.300968</ele>
        <time>2020-09-29T09:22:15.449Z</time>
      </trkpt>
      <trkpt lat="64.17945" lon="20.73391">
        <ele>100.553148</ele>
        <time>2020-09-29T09:22:17.484Z</time>
      </trkpt>
      <trkpt lat="64.17939" lon="20.73373">
        <ele>100.812066</ele>
        <time>2020-09-29T09:22:19.484Z</time>
      </trkpt>
      <trkpt lat="64.17933" lon="20.73355">
        <ele>101.07285</ele>
        <time>2020-09-29T09:22:21.455Z</time>
      </trkpt>
      <trkpt lat="64.17926" lon="20.73337">
        <ele>101.237203</ele>
        <time>2020-09-29T09:22:23.458Z</time>
      </trkpt>
      <trkpt lat="64.1792" lon="20.73318">
        <ele>101.353899</ele>
        <time>2020-09-29T09:22:25.480Z</time>
      </trkpt>
      <trkpt lat="64.17913" lon="20.73298">
        <ele>101.475334</ele>
        <time>2020-09-29T09:22:27.508Z</time>
      </trkpt>
      <trkpt lat="64.17906" lon="20.73278">
        <ele>101.597022</ele>
        <time>2020-09-29T09:22:29.491Z</time>
      </trkpt>
      <trkpt lat="64.179" lon="20.73259">
        <ele>101.712878</ele>
        <time>2020-09-29T09:22:31.449Z</time>
      </trkpt>
      <trkpt lat="64.17894" lon="20.73239">
        <ele>101.833064</ele>
        <time>2020-09-29T09:22:33.463Z</time>
      </trkpt>
      <trkpt lat="64.17887" lon="20.7322">
        <ele>101.951518</ele>
        <time>2020-09-29T09:22:35.466Z</time>
      </trkpt>
      <trkpt lat="64.1788" lon="20.73202">
        <ele>102.069116</ele>
        <time>2020-09-29T09:22:37.465Z</time>
      </trkpt>
      <trkpt lat="64.17874" lon="20.73184">
        <ele>102.1816</ele>
        <time>2020-09-29T09:22:39.462Z</time>
      </trkpt>
      <trkpt lat="64.17868" lon="20.73167">
        <ele>102.290046</ele>
        <time>2020-09-29T09:22:41.446Z</time>
      </trkpt>
      <trkpt lat="64.17861" lon="20.73151">
        <ele>102.400002</ele>
        <time>2020-09-29T09:22:43.484Z</time>
      </trkpt>
      <trkpt lat="64.17854" lon="20.73133">
        <ele>102.513937</ele>
        <time>2020-09-29T09:22:45.461Z</time>
      </trkpt>
      <trkpt lat="64.17847" lon="20.73116">
        <ele>102.625327</ele>
        <time>2020-09-29T09:22:47.449Z</time>
      </trkpt>
      <trkpt lat="64.17841" lon="20.73097">
        <ele>102.740432</ele>
        <time>2020-09-29T09:22:49.470Z</time>
      </trkpt>
      <trkpt lat="64.17834" lon="20.7308">
        <ele>102.853635</ele>
        <time>2020-09-29T09:22:51.457Z</time>
      </trkpt>
      <trkpt lat="64.17828" lon="20.73062">
        <ele>102.967953</ele>
        <time>2020-09-29T09:22:53.470Z</time>
      </trkpt>
      <trkpt lat="64.17822" lon="20.73044">
        <ele>103.076543</ele>
        <time>2020-09-29T09:22:55.463Z</time>
      </trkpt>
      <trkpt lat="64.17816" lon="20.73028">
        <ele>103.163455</ele>
        <time>2020-09-29T09:22:57.486Z</time>
      </trkpt>
      <trkpt lat="64.1781" lon="20.73012">
        <ele>103.094333</ele>
        <time>2020-09-29T09:22:59.470Z</time>
      </trkpt>
      <trkpt lat="64.17802" lon="20.72988">
        <ele>102.993412</ele>
        <time>2020-09-29T09:23:02.467Z</time>
      </trkpt>
      <trkpt lat="64.17794" lon="20.72966">
        <ele>102.898735</ele>
        <time>2020-09-29T09:23:05.464Z</time>
      </trkpt>
      <trkpt lat="64.17787" lon="20.72947">
        <ele>102.814673</ele>
        <time>2020-09-29T09:23:08.487Z</time>
      </trkpt>
      <trkpt lat="64.17781" lon="20.72931">
        <ele>102.742287</ele>
        <time>2020-09-29T09:23:11.450Z</time>
      </trkpt>
      <trkpt lat="64.17774" lon="20.7291">
        <ele>102.651093</ele>
        <time>2020-09-29T09:23:15.453Z</time>
      </trkpt>
      <trkpt lat="64.17768" lon="20.72894">
        <ele>102.579737</ele>
        <time>2020-09-29T09:23:18.462Z</time>
      </trkpt>
      <trkpt lat="64.17761" lon="20.72878">
        <ele>102.508095</ele>
        <time>2020-09-29T09:23:21.467Z</time>
      </trkpt>
      <trkpt lat="64.17755" lon="20.72862">
        <ele>102.433941</ele>
        <time>2020-09-29T09:23:24.511Z</time>
      </trkpt>
      <trkpt lat="64.17749" lon="20.72845">
        <ele>102.359947</ele>
        <time>2020-09-29T09:23:27.448Z</time>
      </trkpt>
      <trkpt lat="64.17744" lon="20.72827">
        <ele>102.287996</ele>
        <time>2020-09-29T09:23:30.461Z</time>
      </trkpt>
      <trkpt lat="64.17738" lon="20.72809">
        <ele>102.2124</ele>
        <time>2020-09-29T09:23:33.461Z</time>
      </trkpt>
      <trkpt lat="64.17731" lon="20.7279">
        <ele>102.129171</ele>
        <time>2020-09-29T09:23:36.457Z</time>
      </trkpt>
      <trkpt lat="64.17723" lon="20.72769">
        <ele>102.036729</ele>
        <time>2020-09-29T09:23:39.453Z</time>
      </trkpt>
      <trkpt lat="64.17715" lon="20.72746">
        <ele>101.934902</ele>
        <time>2020-09-29T09:23:42.455Z</time>
      </trkpt>
      <trkpt lat="64.17708" lon="20.72729">
        <ele>101.858975</ele>
        <time>2020-09-29T09:23:44.455Z</time>
      </trkpt>
      <trkpt lat="64.17701" lon="20.72712">
        <ele>101.78204</ele>
        <time>2020-09-29T09:23:46.452Z</time>
      </trkpt>
      <trkpt lat="64.17695" lon="20.72692">
        <ele>101.968013</ele>
        <time>2020-09-29T09:23:48.472Z</time>
      </trkpt>
      <trkpt lat="64.17688" lon="20.72671">
        <ele>102.166925</ele>
        <time>2020-09-29T09:23:50.482Z</time>
      </trkpt>
      <trkpt lat="64.1768" lon="20.7265">
        <ele>102.368891</ele>
        <time>2020-09-29T09:23:52.486Z</time>
      </trkpt>
      <trkpt lat="64.17673" lon="20.7263">
        <ele>102.56801</ele>
        <time>2020-09-29T09:23:54.462Z</time>
      </trkpt>
      <trkpt lat="64.17666" lon="20.72609">
        <ele>102.763795</ele>
        <time>2020-09-29T09:23:56.473Z</time>
      </trkpt>
      <trkpt lat="64.17659" lon="20.7259">
        <ele>102.955981</ele>
        <time>2020-09-29T09:23:58.481Z</time>
      </trkpt>
      <trkpt lat="64.17653" lon="20.72571">
        <ele>103.138851</ele>
        <time>2020-09-29T09:24:00.505Z</time>
      </trkpt>
      <trkpt lat="64.17646" lon="20.72553">
        <ele>103.312934</ele>
        <time>2020-09-29T09:24:02.486Z</time>
      </trkpt>
      <trkpt lat="64.1764" lon="20.72537">
        <ele>103.469927</ele>
        <time>2020-09-29T09:24:04.461Z</time>
      </trkpt>
      <trkpt lat="64.17632" lon="20.72514">
        <ele>103.699013</ele>
        <time>2020-09-29T09:24:07.478Z</time>
      </trkpt>
      <trkpt lat="64.17624" lon="20.72492">
        <ele>103.917113</ele>
        <time>2020-09-29T09:24:10.471Z</time>
      </trkpt>
      <trkpt lat="64.17616" lon="20.72469">
        <ele>104.136018</ele>
        <time>2020-09-29T09:24:13.462Z</time>
      </trkpt>
      <trkpt lat="64.17609" lon="20.7245">
        <ele>104.325426</ele>
        <time>2020-09-29T09:24:16.466Z</time>
      </trkpt>
      <trkpt lat="64.17603" lon="20.72432">
        <ele>104.49286</ele>
        <time>2020-09-29T09:24:19.463Z</time>
      </trkpt>
      <trkpt lat="64.17597" lon="20.72415">
        <ele>104.660171</ele>
        <time>2020-09-29T09:24:22.475Z</time>
      </trkpt>
      <trkpt lat="64.17591" lon="20.72398">
        <ele>104.820718</ele>
        <time>2020-09-29T09:24:25.458Z</time>
      </trkpt>
      <trkpt lat="64.17585" lon="20.72381">
        <ele>104.957338</ele>
        <time>2020-09-29T09:24:28.479Z</time>
      </trkpt>
      <trkpt lat="64.17579" lon="20.72364">
        <ele>105.07411</ele>
        <time>2020-09-29T09:24:31.478Z</time>
      </trkpt>
      <trkpt lat="64.17572" lon="20.72347">
        <ele>105.19237</ele>
        <time>2020-09-29T09:24:34.464Z</time>
      </trkpt>
      <trkpt lat="64.17565" lon="20.7233">
        <ele>105.31792</ele>
        <time>2020-09-29T09:24:37.459Z</time>
      </trkpt>
      <trkpt lat="64.17559" lon="20.72313">
        <ele>105.437366</ele>
        <time>2020-09-29T09:24:40.457Z</time>
      </trkpt>
      <trkpt lat="64.17552" lon="20.72294">
        <ele>105.557425</ele>
        <time>2020-09-29T09:24:43.450Z</time>
      </trkpt>
      <trkpt lat="64.17545" lon="20.72276">
        <ele>105.687518</ele>
        <time>2020-09-29T09:24:46.507Z</time>
      </trkpt>
      <trkpt lat="64.17538" lon="20.72257">
        <ele>105.82155</ele>
        <time>2020-09-29T09:24:49.460Z</time>
      </trkpt>
      <trkpt lat="64.17531" lon="20.72235">
        <ele>105.963246</ele>
        <time>2020-09-29T09:24:52.460Z</time>
      </trkpt>
      <trkpt lat="64.17523" lon="20.72213">
        <ele>106.108369</ele>
        <time>2020-09-29T09:24:55.466Z</time>
      </trkpt>
      <trkpt lat="64.17516" lon="20.7219">
        <ele>106.258998</ele>
        <time>2020-09-29T09:24:58.459Z</time>
      </trkpt>
      <trkpt lat="64.17511" lon="20.72173">
        <ele>106.366748</ele>
        <time>2020-09-29T09:25:00.459Z</time>
      </trkpt>
      <trkpt lat="64.17505" lon="20.72157">
        <ele>106.477598</ele>
        <time>2020-09-29T09:25:02.466Z</time>
      </trkpt>
      <trkpt lat="64.17499" lon="20.72141">
        <ele>106.586009</ele>
        <time>2020-09-29T09:25:04.471Z</time>
      </trkpt>
      <trkpt lat="64.17493" lon="20.72125">
        <ele>106.696783</ele>
        <time>2020-09-29T09:25:06.465Z</time>
      </trkpt>
      <trkpt lat="64.17486" lon="20.72109">
        <ele>106.810738</ele>
        <time>2020-09-29T09:25:08.466Z</time>
      </trkpt>
      <trkpt lat="64.1748" lon="20.72092">
        <ele>106.926657</ele>
        <time>2020-09-29T09:25:10.488Z</time>
      </trkpt>
      <trkpt lat="64.17474" lon="20.72075">
        <ele>107.041864</ele>
        <time>2020-09-29T09:25:12.483Z</time>
      </trkpt>
      <trkpt lat="64.17468" lon="20.72058">
        <ele>106.95201</ele>
        <time>2020-09-29T09:25:14.471Z</time>
      </trkpt>
      <trkpt lat="64.17461" lon="20.72041">
        <ele>106.838991</ele>
        <time>2020-09-29T09:25:16.480Z</time>
      </trkpt>
      <trkpt lat="64.17455" lon="20.72025">
        <ele>106.728591</ele>
        <time>2020-09-29T09:25:18.479Z</time>
      </trkpt>
      <trkpt lat="64.17449" lon="20.72009">
        <ele>106.619703</ele>
        <time>2020-09-29T09:25:20.472Z</time>
      </trkpt>
      <trkpt lat="64.17443" lon="20.71992">
        <ele>106.51117</ele>
        <time>2020-09-29T09:25:22.470Z</time>
      </trkpt>
      <trkpt lat="64.17437" lon="20.71975">
        <ele>106.405883</ele>
        <time>2020-09-29T09:25:24.504Z</time>
      </trkpt>
      <trkpt lat="64.17431" lon="20.71959">
        <ele>106.29885</ele>
        <time>2020-09-29T09:25:26.499Z</time>
      </trkpt>
      <trkpt lat="64.17425" lon="20.71943">
        <ele>106.19451</ele>
        <time>2020-09-29T09:25:28.479Z</time>
      </trkpt>
      <trkpt lat="64.17417" lon="20.71921">
        <ele>106.049107</ele>
        <time>2020-09-29T09:25:31.501Z</time>
      </trkpt>
      <trkpt lat="64.1741" lon="20.71899">
        <ele>105.911114</ele>
        <time>2020-09-29T09:25:34.467Z</time>
      </trkpt>
      <trkpt lat="64.17402" lon="20.71878">
        <ele>105.776987</ele>
        <time>2020-09-29T09:25:37.485Z</time>
      </trkpt>
      <trkpt lat="64.17395" lon="20.71861">
        <ele>105.655757</ele>
        <time>2020-09-29T09:25:40.502Z</time>
      </trkpt>
      <trkpt lat="64.17388" lon="20.71845">
        <ele>105.545756</ele>
        <time>2020-09-29T09:25:43.479Z</time>
      </trkpt>
      <trkpt lat="64.17382" lon="20.71828">
        <ele>105.439142</ele>
        <time>2020-09-29T09:25:46.464Z</time>
      </trkpt>
      <trkpt lat="64.17376" lon="20.71812">
        <ele>105.331785</ele>
        <time>2020-09-29T09:25:49.492Z</time>
      </trkpt>
      <trkpt lat="64.1737" lon="20.71796">
        <ele>105.22556</ele>
        <time>2020-09-29T09:25:52.464Z</time>
      </trkpt>
      <trkpt lat="64.17365" lon="20.71778">
        <ele>105.115546</ele>
        <time>2020-09-29T09:25:55.454Z</time>
      </trkpt>
      <trkpt lat="64.17359" lon="20.71761">
        <ele>105.006086</ele>
        <time>2020-09-29T09:25:58.454Z</time>
      </trkpt>
      <trkpt lat="64.17353" lon="20.71745">
        <ele>104.939979</ele>
        <time>2020-09-29T09:26:01.468Z</time>
      </trkpt>
      <trkpt lat="64.17347" lon="20.71728">
        <ele>104.879067</ele>
        <time>2020-09-29T09:26:04.471Z</time>
      </trkpt>
      <trkpt lat="64.1734" lon="20.71708">
        <ele>104.808478</ele>
        <time>2020-09-29T09:26:07.477Z</time>
      </trkpt>
      <trkpt lat="64.17333" lon="20.71687">
        <ele>104.734188</ele>
        <time>2020-09-29T09:26:10.465Z</time>
      </trkpt>
      <trkpt lat="64.17325" lon="20.71667">
        <ele>104.660763</ele>
        <time>2020-09-29T09:26:13.456Z</time>
      </trkpt>
      <trkpt lat="64.17317" lon="20.71646">
        <ele>104.584157</ele>
        <time>2020-09-29T09:26:16.486Z</time>
      </trkpt>
      <trkpt lat="64.17309" lon="20.71624">
        <ele>104.505061</ele>
        <time>2020-09-29T09:26:19.475Z</time>
      </trkpt>
      <trkpt lat="64.17301" lon="20.71602">
        <ele>104.423652</ele>
        <time>2020-09-29T09:26:22.473Z</time>
      </trkpt>
      <trkpt lat="64.17293" lon="20.7158">
        <ele>104.342234</ele>
        <time>2020-09-29T09:26:25.484Z</time>
      </trkpt>
      <trkpt lat="64.17285" lon="20.71559">
        <ele>104.265032</ele>
        <time>2020-09-29T09:26:28.479Z</time>
      </trkpt>
      <trkpt lat="64.17277" lon="20.71537">
        <ele>104.188692</ele>
        <time>2020-09-29T09:26:31.476Z</time>
      </trkpt>
      <trkpt lat="64.1727" lon="20.71516">
        <ele>104.114772</ele>
        <time>2020-09-29T09:26:34.493Z</time>
      </trkpt>
      <trkpt lat="64.17262" lon="20.71496">
        <ele>104.03904</ele>
        <time>2020-09-29T09:26:37.470Z</time>
      </trkpt>
      <trkpt lat="64.17255" lon="20.71475">
        <ele>103.966567</ele>
        <time>2020-09-29T09:26:40.480Z</time>
      </trkpt>
      <trkpt lat="64.17248" lon="20.71455">
        <ele>103.894966</ele>
        <time>2020-09-29T09:26:43.468Z</time>
      </trkpt>
      <trkpt lat="64.17241" lon="20.71435">
        <ele>103.908036</ele>
        <time>2020-09-29T09:26:46.487Z</time>
      </trkpt>
      <trkpt lat="64.17233" lon="20.71414">
        <ele>104.163675</ele>
        <time>2020-09-29T09:26:49.464Z</time>
      </trkpt>
      <trkpt lat="64.17225" lon="20.71395">
        <ele>104.403251</ele>
        <time>2020-09-29T09:26:52.470Z</time>
      </trkpt>
      <trkpt lat="64.17218" lon="20.71374">
        <ele>104.650076</ele>
        <time>2020-09-29T09:26:55.488Z</time>
      </trkpt>
      <trkpt lat="64.17211" lon="20.71354">
        <ele>104.8932</ele>
        <time>2020-09-29T09:26:58.515Z</time>
      </trkpt>
      <trkpt lat="64.17203" lon="20.71334">
        <ele>105.13346</ele>
        <time>2020-09-29T09:27:01.469Z</time>
      </trkpt>
      <trkpt lat="64.17196" lon="20.71314">
        <ele>105.380735</ele>
        <time>2020-09-29T09:27:04.465Z</time>
      </trkpt>
      <trkpt lat="64.17189" lon="20.71294">
        <ele>105.623148</ele>
        <time>2020-09-29T09:27:07.454Z</time>
      </trkpt>
      <trkpt lat="64.17182" lon="20.71275">
        <ele>105.850839</ele>
        <time>2020-09-29T09:27:10.460Z</time>
      </trkpt>
      <trkpt lat="64.17175" lon="20.71257">
        <ele>106.068361</ele>
        <time>2020-09-29T09:27:13.475Z</time>
      </trkpt>
      <trkpt lat="64.17169" lon="20.71238">
        <ele>106.293471</ele>
        <time>2020-09-29T09:27:16.467Z</time>
      </trkpt>
      <trkpt lat="64.17162" lon="20.71219">
        <ele>106.527475</ele>
        <time>2020-09-29T09:27:19.481Z</time>
      </trkpt>
      <trkpt lat="64.17155" lon="20.712">
        <ele>106.751862</ele>
        <time>2020-09-29T09:27:22.462Z</time>
      </trkpt>
      <trkpt lat="64.17148" lon="20.7118">
        <ele>106.985422</ele>
        <time>2020-09-29T09:27:25.467Z</time>
      </trkpt>
      <trkpt lat="64.17141" lon="20.7116">
        <ele>107.217423</ele>
        <time>2020-09-29T09:27:28.528Z</time>
      </trkpt>
      <trkpt lat="64.17134" lon="20.7114">
        <ele>107.454483</ele>
        <time>2020-09-29T09:27:31.467Z</time>
      </trkpt>
      <trkpt lat="64.17127" lon="20.7112">
        <ele>107.666913</ele>
        <time>2020-09-29T09:27:34.468Z</time>
      </trkpt>
      <trkpt lat="64.1712" lon="20.711">
        <ele>107.678694</ele>
        <time>2020-09-29T09:27:37.469Z</time>
      </trkpt>
      <trkpt lat="64.17113" lon="20.71081">
        <ele>107.689593</ele>
        <time>2020-09-29T09:27:40.456Z</time>
      </trkpt>
      <trkpt lat="64.17106" lon="20.71062">
        <ele>107.700665</ele>
        <time>2020-09-29T09:27:43.483Z</time>
      </trkpt>
      <trkpt lat="64.17099" lon="20.71042">
        <ele>107.711855</ele>
        <time>2020-09-29T09:27:46.452Z</time>
      </trkpt>
      <trkpt lat="64.17092" lon="20.71021">
        <ele>107.724044</ele>
        <time>2020-09-29T09:27:49.463Z</time>
      </trkpt>
      <trkpt lat="64.17084" lon="20.71002">
        <ele>107.735891</ele>
        <time>2020-09-29T09:27:52.467Z</time>
      </trkpt>
      <trkpt lat="64.17077" lon="20.70983">
        <ele>107.747169</ele>
        <time>2020-09-29T09:27:55.480Z</time>
      </trkpt>
      <trkpt lat="64.1707" lon="20.70965">
        <ele>107.758204</ele>
        <time>2020-09-29T09:27:58.475Z</time>
      </trkpt>
      <trkpt lat="64.17063" lon="20.70946">
        <ele>107.769111</ele>
        <time>2020-09-29T09:28:01.459Z</time>
      </trkpt>
      <trkpt lat="64.17056" lon="20.70927">
        <ele>107.780553</ele>
        <time>2020-09-29T09:28:04.473Z</time>
      </trkpt>
      <trkpt lat="64.17049" lon="20.70909">
        <ele>107.791082</ele>
        <time>2020-09-29T09:28:07.470Z</time>
      </trkpt>
      <trkpt lat="64.17043" lon="20.70891">
        <ele>107.801405</ele>
        <time>2020-09-29T09:28:10.484Z</time>
      </trkpt>
      <trkpt lat="64.17037" lon="20.70874">
        <ele>107.811366</ele>
        <time>2020-09-29T09:28:13.458Z</time>
      </trkpt>
      <trkpt lat="64.17031" lon="20.70856">
        <ele>107.821433</ele>
        <time>2020-09-29T09:28:16.475Z</time>
      </trkpt>
      <trkpt lat="64.17024" lon="20.70839">
        <ele>107.831349</ele>
        <time>2020-09-29T09:28:19.453Z</time>
      </trkpt>
      <trkpt lat="64.17018" lon="20.70822">
        <ele>107.841942</ele>
        <time>2020-09-29T09:28:22.478Z</time>
      </trkpt>
      <trkpt lat="64.17011" lon="20.70805">
        <ele>107.860685</ele>
        <time>2020-09-29T09:28:25.454Z</time>
      </trkpt>
      <trkpt lat="64.17006" lon="20.70789">
        <ele>107.926827</ele>
        <time>2020-09-29T09:28:28.475Z</time>
      </trkpt>
      <trkpt lat="64.17" lon="20.70772">
        <ele>107.994413</ele>
        <time>2020-09-29T09:28:31.475Z</time>
      </trkpt>
      <trkpt lat="64.16994" lon="20.70754">
        <ele>108.066434</ele>
        <time>2020-09-29T09:28:34.469Z</time>
      </trkpt>
      <trkpt lat="64.16988" lon="20.70736">
        <ele>108.139151</ele>
        <time>2020-09-29T09:28:37.454Z</time>
      </trkpt>
      <trkpt lat="64.1698" lon="20.70718">
        <ele>108.217507</ele>
        <time>2020-09-29T09:28:40.462Z</time>
      </trkpt>
      <trkpt lat="64.16972" lon="20.70699">
        <ele>108.300738</ele>
        <time>2020-09-29T09:28:43.489Z</time>
      </trkpt>
      <trkpt lat="64.16965" lon="20.70681">
        <ele>108.378692</ele>
        <time>2020-09-29T09:28:46.464Z</time>
      </trkpt>
      <trkpt lat="64.16959" lon="20.70663">
        <ele>108.454961</ele>
        <time>2020-09-29T09:28:49.471Z</time>
      </trkpt>
      <trkpt lat="64.16952" lon="20.70645">
        <ele>108.530674</ele>
        <time>2020-09-29T09:28:52.463Z</time>
      </trkpt>
      <trkpt lat="64.16945" lon="20.70625">
        <ele>108.608765</ele>
        <time>2020-09-29T09:28:55.485Z</time>
      </trkpt>
      <trkpt lat="64.16939" lon="20.70606">
        <ele>108.685841</ele>
        <time>2020-09-29T09:28:58.481Z</time>
      </trkpt>
      <trkpt lat="64.16932" lon="20.70588">
        <ele>108.761791</ele>
        <time>2020-09-29T09:29:01.469Z</time>
      </trkpt>
      <trkpt lat="64.16925" lon="20.70569">
        <ele>108.839715</ele>
        <time>2020-09-29T09:29:04.459Z</time>
      </trkpt>
      <trkpt lat="64.16918" lon="20.70548">
        <ele>108.924386</ele>
        <time>2020-09-29T09:29:07.454Z</time>
      </trkpt>
      <trkpt lat="64.1691" lon="20.70528">
        <ele>109.008964</ele>
        <time>2020-09-29T09:29:10.454Z</time>
      </trkpt>
      <trkpt lat="64.16903" lon="20.70507">
        <ele>109.095474</ele>
        <time>2020-09-29T09:29:13.486Z</time>
      </trkpt>
      <trkpt lat="64.16895" lon="20.70486">
        <ele>109.309237</ele>
        <time>2020-09-29T09:29:16.488Z</time>
      </trkpt>
      <trkpt lat="64.16887" lon="20.70463">
        <ele>109.949356</ele>
        <time>2020-09-29T09:29:19.499Z</time>
      </trkpt>
      <trkpt lat="64.16879" lon="20.70439">
        <ele>110.611956</ele>
        <time>2020-09-29T09:29:22.455Z</time>
      </trkpt>
      <trkpt lat="64.16873" lon="20.70423">
        <ele>111.069402</ele>
        <time>2020-09-29T09:29:24.473Z</time>
      </trkpt>
      <trkpt lat="64.16867" lon="20.70406">
        <ele>111.551636</ele>
        <time>2020-09-29T09:29:26.467Z</time>
      </trkpt>
      <trkpt lat="64.1686" lon="20.7039">
        <ele>112.037236</ele>
        <time>2020-09-29T09:29:28.458Z</time>
      </trkpt>
      <trkpt lat="64.16854" lon="20.70373">
        <ele>112.521305</ele>
        <time>2020-09-29T09:29:30.463Z</time>
      </trkpt>
      <trkpt lat="64.16848" lon="20.70356">
        <ele>113.001992</ele>
        <time>2020-09-29T09:29:32.512Z</time>
      </trkpt>
      <trkpt lat="64.16842" lon="20.70338">
        <ele>113.505796</ele>
        <time>2020-09-29T09:29:34.468Z</time>
      </trkpt>
      <trkpt lat="64.16835" lon="20.70321">
        <ele>114.001199</ele>
        <time>2020-09-29T09:29:36.473Z</time>
      </trkpt>
      <trkpt lat="64.16829" lon="20.70304">
        <ele>114.493302</ele>
        <time>2020-09-29T09:29:38.467Z</time>
      </trkpt>
      <trkpt lat="64.16823" lon="20.70287">
        <ele>114.989333</ele>
        <time>2020-09-29T09:29:40.456Z</time>
      </trkpt>
      <trkpt lat="64.16817" lon="20.70269">
        <ele>115.470542</ele>
        <time>2020-09-29T09:29:42.475Z</time>
      </trkpt>
      <trkpt lat="64.16811" lon="20.70252">
        <ele>115.941756</ele>
        <time>2020-09-29T09:29:44.461Z</time>
      </trkpt>
      <trkpt lat="64.16805" lon="20.70236">
        <ele>116.414065</ele>
        <time>2020-09-29T09:29:46.476Z</time>
      </trkpt>
      <trkpt lat="64.16799" lon="20.7022">
        <ele>116.876726</ele>
        <time>2020-09-29T09:29:48.450Z</time>
      </trkpt>
      <trkpt lat="64.16791" lon="20.70197">
        <ele>117.537326</ele>
        <time>2020-09-29T09:29:51.505Z</time>
      </trkpt>
      <trkpt lat="64.16785" lon="20.7018">
        <ele>118.007183</ele>
        <time>2020-09-29T09:29:53.461Z</time>
      </trkpt>
      <trkpt lat="64.16779" lon="20.70163">
        <ele>118.176638</ele>
        <time>2020-09-29T09:29:55.480Z</time>
      </trkpt>
      <trkpt lat="64.16773" lon="20.70148">
        <ele>118.130829</ele>
        <time>2020-09-29T09:29:57.448Z</time>
      </trkpt>
      <trkpt lat="64.16765" lon="20.70125">
        <ele>118.066618</ele>
        <time>2020-09-29T09:30:00.475Z</time>
      </trkpt>
      <trkpt lat="64.16757" lon="20.70103">
        <ele>118.00413</ele>
        <time>2020-09-29T09:30:03.455Z</time>
      </trkpt>
      <trkpt lat="64.1675" lon="20.70079">
        <ele>117.941173</ele>
        <time>2020-09-29T09:30:06.478Z</time>
      </trkpt>
      <trkpt lat="64.16744" lon="20.70063">
        <ele>117.894545</ele>
        <time>2020-09-29T09:30:08.461Z</time>
      </trkpt>
      <trkpt lat="64.16736" lon="20.70039">
        <ele>117.830603</ele>
        <time>2020-09-29T09:30:11.469Z</time>
      </trkpt>
      <trkpt lat="64.16728" lon="20.70016">
        <ele>117.765219</ele>
        <time>2020-09-29T09:30:14.478Z</time>
      </trkpt>
      <trkpt lat="64.16721" lon="20.69991">
        <ele>117.69975</ele>
        <time>2020-09-29T09:30:17.460Z</time>
      </trkpt>
      <trkpt lat="64.16713" lon="20.69969">
        <ele>117.635607</ele>
        <time>2020-09-29T09:30:20.474Z</time>
      </trkpt>
      <trkpt lat="64.16705" lon="20.69945">
        <ele>117.570912</ele>
        <time>2020-09-29T09:30:23.461Z</time>
      </trkpt>
      <trkpt lat="64.167" lon="20.69928">
        <ele>117.52514</ele>
        <time>2020-09-29T09:30:25.489Z</time>
      </trkpt>
      <trkpt lat="64.16693" lon="20.69911">
        <ele>117.47621</ele>
        <time>2020-09-29T09:30:27.468Z</time>
      </trkpt>
      <trkpt lat="64.16687" lon="20.69894">
        <ele>117.426291</ele>
        <time>2020-09-29T09:30:29.464Z</time>
      </trkpt>
      <trkpt lat="64.1668" lon="20.69876">
        <ele>117.375184</ele>
        <time>2020-09-29T09:30:31.476Z</time>
      </trkpt>
      <trkpt lat="64.16674" lon="20.69858">
        <ele>117.322785</ele>
        <time>2020-09-29T09:30:33.451Z</time>
      </trkpt>
      <trkpt lat="64.16666" lon="20.69839">
        <ele>117.052805</ele>
        <time>2020-09-29T09:30:35.459Z</time>
      </trkpt>
      <trkpt lat="64.16659" lon="20.69821">
        <ele>116.624697</ele>
        <time>2020-09-29T09:30:37.501Z</time>
      </trkpt>
      <trkpt lat="64.16653" lon="20.698">
        <ele>116.202522</ele>
        <time>2020-09-29T09:30:39.479Z</time>
      </trkpt>
      <trkpt lat="64.16648" lon="20.6978">
        <ele>115.790692</ele>
        <time>2020-09-29T09:30:41.471Z</time>
      </trkpt>
      <trkpt lat="64.16642" lon="20.69756">
        <ele>115.330848</ele>
        <time>2020-09-29T09:30:43.463Z</time>
      </trkpt>
      <trkpt lat="64.16635" lon="20.6973">
        <ele>114.800753</ele>
        <time>2020-09-29T09:30:45.477Z</time>
      </trkpt>
      <trkpt lat="64.16629" lon="20.69703">
        <ele>114.281107</ele>
        <time>2020-09-29T09:30:47.455Z</time>
      </trkpt>
      <trkpt lat="64.16622" lon="20.69676">
        <ele>113.748134</ele>
        <time>2020-09-29T09:30:49.465Z</time>
      </trkpt>
      <trkpt lat="64.16617" lon="20.69647">
        <ele>113.211681</ele>
        <time>2020-09-29T09:30:51.453Z</time>
      </trkpt>
      <trkpt lat="64.1661" lon="20.69618">
        <ele>112.635492</ele>
        <time>2020-09-29T09:30:53.480Z</time>
      </trkpt>
      <trkpt lat="64.16602" lon="20.69587">
        <ele>112.026523</ele>
        <time>2020-09-29T09:30:55.466Z</time>
      </trkpt>
      <trkpt lat="64.16595" lon="20.69555">
        <ele>111.409965</ele>
        <time>2020-09-29T09:30:57.458Z</time>
      </trkpt>
      <trkpt lat="64.16588" lon="20.69525">
        <ele>110.830979</ele>
        <time>2020-09-29T09:30:59.472Z</time>
      </trkpt>
      <trkpt lat="64.16582" lon="20.69495">
        <ele>110.267235</ele>
        <time>2020-09-29T09:31:01.470Z</time>
      </trkpt>
      <trkpt lat="64.16577" lon="20.69468">
        <ele>109.931145</ele>
        <time>2020-09-29T09:31:03.452Z</time>
      </trkpt>
      <trkpt lat="64.16571" lon="20.69442">
        <ele>109.62893</ele>
        <time>2020-09-29T09:31:05.463Z</time>
      </trkpt>
      <trkpt lat="64.16566" lon="20.69417">
        <ele>109.341013</ele>
        <time>2020-09-29T09:31:07.469Z</time>
      </trkpt>
      <trkpt lat="64.16561" lon="20.69395">
        <ele>109.081232</ele>
        <time>2020-09-29T09:31:09.470Z</time>
      </trkpt>
      <trkpt lat="64.16557" lon="20.69374">
        <ele>108.839711</ele>
        <time>2020-09-29T09:31:11.474Z</time>
      </trkpt>
      <trkpt lat="64.16553" lon="20.69353">
        <ele>108.613364</ele>
        <time>2020-09-29T09:31:13.492Z</time>
      </trkpt>
      <trkpt lat="64.1655" lon="20.69334">
        <ele>108.386241</ele>
        <time>2020-09-29T09:31:15.458Z</time>
      </trkpt>
      <trkpt lat="64.16545" lon="20.69314">
        <ele>108.154178</ele>
        <time>2020-09-29T09:31:17.475Z</time>
      </trkpt>
      <trkpt lat="64.16541" lon="20.69293">
        <ele>107.915553</ele>
        <time>2020-09-29T09:31:19.480Z</time>
      </trkpt>
      <trkpt lat="64.16538" lon="20.69271">
        <ele>107.677461</ele>
        <time>2020-09-29T09:31:21.469Z</time>
      </trkpt>
      <trkpt lat="64.16534" lon="20.69251">
        <ele>107.440679</ele>
        <time>2020-09-29T09:31:23.460Z</time>
      </trkpt>
      <trkpt lat="64.1653" lon="20.6923">
        <ele>107.206812</ele>
        <time>2020-09-29T09:31:25.468Z</time>
      </trkpt>
      <trkpt lat="64.16527" lon="20.69209">
        <ele>106.97703</ele>
        <time>2020-09-29T09:31:27.471Z</time>
      </trkpt>
      <trkpt lat="64.16523" lon="20.69189">
        <ele>106.741257</ele>
        <time>2020-09-29T09:31:29.482Z</time>
      </trkpt>
      <trkpt lat="64.16519" lon="20.69169">
        <ele>106.510134</ele>
        <time>2020-09-29T09:31:31.458Z</time>
      </trkpt>
      <trkpt lat="64.16514" lon="20.69149">
        <ele>106.279951</ele>
        <time>2020-09-29T09:31:33.468Z</time>
      </trkpt>
      <trkpt lat="64.16511" lon="20.69129">
        <ele>106.053802</ele>
        <time>2020-09-29T09:31:35.451Z</time>
      </trkpt>
      <trkpt lat="64.16507" lon="20.6911">
        <ele>106.040862</ele>
        <time>2020-09-29T09:31:37.492Z</time>
      </trkpt>
      <trkpt lat="64.16501" lon="20.69083">
        <ele>106.665606</ele>
        <time>2020-09-29T09:31:40.467Z</time>
      </trkpt>
      <trkpt lat="64.16496" lon="20.69056">
        <ele>107.284542</ele>
        <time>2020-09-29T09:31:43.462Z</time>
      </trkpt>
      <trkpt lat="64.16491" lon="20.69031">
        <ele>107.861222</ele>
        <time>2020-09-29T09:31:46.460Z</time>
      </trkpt>
      <trkpt lat="64.16486" lon="20.69007">
        <ele>108.418882</ele>
        <time>2020-09-29T09:31:49.489Z</time>
      </trkpt>
      <trkpt lat="64.16481" lon="20.68982">
        <ele>108.990077</ele>
        <time>2020-09-29T09:31:52.462Z</time>
      </trkpt>
      <trkpt lat="64.16477" lon="20.68959">
        <ele>109.516926</ele>
        <time>2020-09-29T09:31:55.483Z</time>
      </trkpt>
      <trkpt lat="64.16472" lon="20.68937">
        <ele>110.026597</ele>
        <time>2020-09-29T09:31:58.473Z</time>
      </trkpt>
      <trkpt lat="64.16468" lon="20.68917">
        <ele>110.483046</ele>
        <time>2020-09-29T09:32:01.462Z</time>
      </trkpt>
      <trkpt lat="64.16463" lon="20.68899">
        <ele>110.926357</ele>
        <time>2020-09-29T09:32:04.492Z</time>
      </trkpt>
      <trkpt lat="64.16458" lon="20.68875">
        <ele>111.490506</ele>
        <time>2020-09-29T09:32:08.487Z</time>
      </trkpt>
      <trkpt lat="64.16454" lon="20.6885">
        <ele>112.046362</ele>
        <time>2020-09-29T09:32:12.458Z</time>
      </trkpt>
      <trkpt lat="64.1645" lon="20.68826">
        <ele>112.598338</ele>
        <time>2020-09-29T09:32:16.464Z</time>
      </trkpt>
      <trkpt lat="64.16444" lon="20.68802">
        <ele>113.169338</ele>
        <time>2020-09-29T09:32:20.472Z</time>
      </trkpt>
      <trkpt lat="64.1644" lon="20.68783">
        <ele>113.619627</ele>
        <time>2020-09-29T09:32:23.453Z</time>
      </trkpt>
      <trkpt lat="64.16436" lon="20.68762">
        <ele>114.092844</ele>
        <time>2020-09-29T09:32:26.502Z</time>
      </trkpt>
      <trkpt lat="64.16432" lon="20.68742">
        <ele>114.542314</ele>
        <time>2020-09-29T09:32:29.481Z</time>
      </trkpt>
      <trkpt lat="64.16428" lon="20.68721">
        <ele>114.980728</ele>
        <time>2020-09-29T09:32:32.468Z</time>
      </trkpt>
      <trkpt lat="64.16425" lon="20.68698">
        <ele>115.458642</ele>
        <time>2020-09-29T09:32:35.465Z</time>
      </trkpt>
      <trkpt lat="64.1642" lon="20.68673">
        <ele>115.976946</ele>
        <time>2020-09-29T09:32:38.467Z</time>
      </trkpt>
      <trkpt lat="64.16415" lon="20.68645">
        <ele>116.573351</ele>
        <time>2020-09-29T09:32:41.479Z</time>
      </trkpt>
      <trkpt lat="64.16411" lon="20.68626">
        <ele>116.982946</ele>
        <time>2020-09-29T09:32:43.473Z</time>
      </trkpt>
      <trkpt lat="64.16407" lon="20.68605">
        <ele>117.431638</ele>
        <time>2020-09-29T09:32:45.479Z</time>
      </trkpt>
      <trkpt lat="64.16403" lon="20.68583">
        <ele>117.88559</ele>
        <time>2020-09-29T09:32:47.492Z</time>
      </trkpt>
      <trkpt lat="64.16399" lon="20.68562">
        <ele>118.337765</ele>
        <time>2020-09-29T09:32:49.468Z</time>
      </trkpt>
      <trkpt lat="64.16395" lon="20.6854">
        <ele>118.798976</ele>
        <time>2020-09-29T09:32:51.483Z</time>
      </trkpt>
      <trkpt lat="64.1639" lon="20.68518">
        <ele>119.276512</ele>
        <time>2020-09-29T09:32:53.471Z</time>
      </trkpt>
      <trkpt lat="64.16385" lon="20.68494">
        <ele>119.780388</ele>
        <time>2020-09-29T09:32:55.470Z</time>
      </trkpt>
      <trkpt lat="64.16381" lon="20.6847">
        <ele>120.302022</ele>
        <time>2020-09-29T09:32:57.458Z</time>
      </trkpt>
      <trkpt lat="64.16376" lon="20.68446">
        <ele>120.813348</ele>
        <time>2020-09-29T09:32:59.458Z</time>
      </trkpt>
      <trkpt lat="64.16371" lon="20.68423">
        <ele>121.310502</ele>
        <time>2020-09-29T09:33:01.465Z</time>
      </trkpt>
      <trkpt lat="64.16366" lon="20.684">
        <ele>121.794724</ele>
        <time>2020-09-29T09:33:03.455Z</time>
      </trkpt>
      <trkpt lat="64.16362" lon="20.68377">
        <ele>122.29141</ele>
        <time>2020-09-29T09:33:05.479Z</time>
      </trkpt>
      <trkpt lat="64.16357" lon="20.68352">
        <ele>122.388351</ele>
        <time>2020-09-29T09:33:07.513Z</time>
      </trkpt>
      <trkpt lat="64.16352" lon="20.68328">
        <ele>122.089782</ele>
        <time>2020-09-29T09:33:09.494Z</time>
      </trkpt>
      <trkpt lat="64.16347" lon="20.68305">
        <ele>121.806593</ele>
        <time>2020-09-29T09:33:11.479Z</time>
      </trkpt>
      <trkpt lat="64.16342" lon="20.68282">
        <ele>121.52677</ele>
        <time>2020-09-29T09:33:13.465Z</time>
      </trkpt>
      <trkpt lat="64.16337" lon="20.6826">
        <ele>121.256928</ele>
        <time>2020-09-29T09:33:15.460Z</time>
      </trkpt>
      <trkpt lat="64.16333" lon="20.68237">
        <ele>120.977139</ele>
        <time>2020-09-29T09:33:17.481Z</time>
      </trkpt>
      <trkpt lat="64.16328" lon="20.68214">
        <ele>120.702229</ele>
        <time>2020-09-29T09:33:19.467Z</time>
      </trkpt>
      <trkpt lat="64.16324" lon="20.68193">
        <ele>120.447486</ele>
        <time>2020-09-29T09:33:21.462Z</time>
      </trkpt>
      <trkpt lat="64.16319" lon="20.68172">
        <ele>120.182603</ele>
        <time>2020-09-29T09:33:23.491Z</time>
      </trkpt>
      <trkpt lat="64.16315" lon="20.6815">
        <ele>119.917924</ele>
        <time>2020-09-29T09:33:25.492Z</time>
      </trkpt>
      <trkpt lat="64.16311" lon="20.68129">
        <ele>119.659948</ele>
        <time>2020-09-29T09:33:27.460Z</time>
      </trkpt>
      <trkpt lat="64.16306" lon="20.68107">
        <ele>119.395549</ele>
        <time>2020-09-29T09:33:29.490Z</time>
      </trkpt>
      <trkpt lat="64.16301" lon="20.68087">
        <ele>119.135035</ele>
        <time>2020-09-29T09:33:31.510Z</time>
      </trkpt>
      <trkpt lat="64.16296" lon="20.68066">
        <ele>118.883919</ele>
        <time>2020-09-29T09:33:33.455Z</time>
      </trkpt>
      <trkpt lat="64.16292" lon="20.68047">
        <ele>118.638055</ele>
        <time>2020-09-29T09:33:35.471Z</time>
      </trkpt>
      <trkpt lat="64.16288" lon="20.68027">
        <ele>118.394438</ele>
        <time>2020-09-29T09:33:37.472Z</time>
      </trkpt>
      <trkpt lat="64.16284" lon="20.68006">
        <ele>118.152023</ele>
        <time>2020-09-29T09:33:39.467Z</time>
      </trkpt>
      <trkpt lat="64.16281" lon="20.67986">
        <ele>117.901951</ele>
        <time>2020-09-29T09:33:41.456Z</time>
      </trkpt>
      <trkpt lat="64.16277" lon="20.67965">
        <ele>117.635153</ele>
        <time>2020-09-29T09:33:43.459Z</time>
      </trkpt>
      <trkpt lat="64.16274" lon="20.67943">
        <ele>117.357134</ele>
        <time>2020-09-29T09:33:45.462Z</time>
      </trkpt>
      <trkpt lat="64.16272" lon="20.67922">
        <ele>117.089924</ele>
        <time>2020-09-29T09:33:47.468Z</time>
      </trkpt>
      <trkpt lat="64.16269" lon="20.679">
        <ele>116.820445</ele>
        <time>2020-09-29T09:33:49.483Z</time>
      </trkpt>
      <trkpt lat="64.16266" lon="20.67878">
        <ele>116.541866</ele>
        <time>2020-09-29T09:33:51.467Z</time>
      </trkpt>
      <trkpt lat="64.16263" lon="20.67855">
        <ele>116.244547</ele>
        <time>2020-09-29T09:33:53.483Z</time>
      </trkpt>
      <trkpt lat="64.16259" lon="20.67831">
        <ele>115.941844</ele>
        <time>2020-09-29T09:33:55.476Z</time>
      </trkpt>
      <trkpt lat="64.16256" lon="20.67807">
        <ele>115.637477</ele>
        <time>2020-09-29T09:33:57.458Z</time>
      </trkpt>
      <trkpt lat="64.16253" lon="20.67782">
        <ele>115.326693</ele>
        <time>2020-09-29T09:33:59.463Z</time>
      </trkpt>
      <trkpt lat="64.1625" lon="20.67758">
        <ele>115.019565</ele>
        <time>2020-09-29T09:34:01.469Z</time>
      </trkpt>
      <trkpt lat="64.16247" lon="20.67731">
        <ele>114.696661</ele>
        <time>2020-09-29T09:34:03.473Z</time>
      </trkpt>
      <trkpt lat="64.16244" lon="20.67705">
        <ele>114.364788</ele>
        <time>2020-09-29T09:34:05.458Z</time>
      </trkpt>
      <trkpt lat="64.16241" lon="20.67679">
        <ele>114.034914</ele>
        <time>2020-09-29T09:34:07.457Z</time>
      </trkpt>
      <trkpt lat="64.16237" lon="20.67653">
        <ele>113.713292</ele>
        <time>2020-09-29T09:34:09.505Z</time>
      </trkpt>
      <trkpt lat="64.16234" lon="20.67629">
        <ele>113.404769</ele>
        <time>2020-09-29T09:34:11.470Z</time>
      </trkpt>
      <trkpt lat="64.16232" lon="20.67604">
        <ele>113.094782</ele>
        <time>2020-09-29T09:34:13.467Z</time>
      </trkpt>
      <trkpt lat="64.1623" lon="20.67579">
        <ele>112.705496</ele>
        <time>2020-09-29T09:34:15.467Z</time>
      </trkpt>
      <trkpt lat="64.16227" lon="20.67554">
        <ele>112.271118</ele>
        <time>2020-09-29T09:34:17.490Z</time>
      </trkpt>
      <trkpt lat="64.16224" lon="20.67527">
        <ele>111.813857</ele>
        <time>2020-09-29T09:34:19.462Z</time>
      </trkpt>
      <trkpt lat="64.16221" lon="20.67501">
        <ele>111.359054</ele>
        <time>2020-09-29T09:34:21.462Z</time>
      </trkpt>
      <trkpt lat="64.16217" lon="20.67475">
        <ele>110.914349</ele>
        <time>2020-09-29T09:34:23.471Z</time>
      </trkpt>
      <trkpt lat="64.16214" lon="20.67451">
        <ele>110.484534</ele>
        <time>2020-09-29T09:34:25.463Z</time>
      </trkpt>
      <trkpt lat="64.16211" lon="20.67426">
        <ele>110.05909</ele>
        <time>2020-09-29T09:34:27.467Z</time>
      </trkpt>
      <trkpt lat="64.16208" lon="20.67401">
        <ele>109.619766</ele>
        <time>2020-09-29T09:34:29.478Z</time>
      </trkpt>
      <trkpt lat="64.16205" lon="20.67375">
        <ele>109.175067</ele>
        <time>2020-09-29T09:34:31.463Z</time>
      </trkpt>
      <trkpt lat="64.16202" lon="20.6735">
        <ele>108.747836</ele>
        <time>2020-09-29T09:34:33.480Z</time>
      </trkpt>
      <trkpt lat="64.16199" lon="20.67326">
        <ele>108.328672</ele>
        <time>2020-09-29T09:34:35.467Z</time>
      </trkpt>
      <trkpt lat="64.16197" lon="20.67302">
        <ele>107.917873</ele>
        <time>2020-09-29T09:34:37.459Z</time>
      </trkpt>
      <trkpt lat="64.16194" lon="20.67278">
        <ele>107.507907</ele>
        <time>2020-09-29T09:34:39.481Z</time>
      </trkpt>
      <trkpt lat="64.16191" lon="20.67254">
        <ele>107.089355</ele>
        <time>2020-09-29T09:34:41.470Z</time>
      </trkpt>
      <trkpt lat="64.16188" lon="20.6723">
        <ele>106.671801</ele>
        <time>2020-09-29T09:34:43.466Z</time>
      </trkpt>
      <trkpt lat="64.16185" lon="20.67206">
        <ele>106.250614</ele>
        <time>2020-09-29T09:34:45.480Z</time>
      </trkpt>
      <trkpt lat="64.16183" lon="20.67182">
        <ele>105.925804</ele>
        <time>2020-09-29T09:34:47.471Z</time>
      </trkpt>
      <trkpt lat="64.1618" lon="20.67158">
        <ele>105.627936</ele>
        <time>2020-09-29T09:34:49.461Z</time>
      </trkpt>
      <trkpt lat="64.16177" lon="20.67135">
        <ele>105.344297</ele>
        <time>2020-09-29T09:34:51.472Z</time>
      </trkpt>
      <trkpt lat="64.16175" lon="20.67112">
        <ele>105.054804</ele>
        <time>2020-09-29T09:34:53.471Z</time>
      </trkpt>
      <trkpt lat="64.16172" lon="20.67088">
        <ele>104.756661</ele>
        <time>2020-09-29T09:34:55.504Z</time>
      </trkpt>
      <trkpt lat="64.16169" lon="20.67064">
        <ele>104.45503</ele>
        <time>2020-09-29T09:34:57.497Z</time>
      </trkpt>
      <trkpt lat="64.16166" lon="20.6704">
        <ele>104.148008</ele>
        <time>2020-09-29T09:34:59.468Z</time>
      </trkpt>
      <trkpt lat="64.16163" lon="20.67015">
        <ele>103.838228</ele>
        <time>2020-09-29T09:35:01.496Z</time>
      </trkpt>
      <trkpt lat="64.1616" lon="20.6699">
        <ele>103.527349</ele>
        <time>2020-09-29T09:35:03.467Z</time>
      </trkpt>
      <trkpt lat="64.16157" lon="20.66966">
        <ele>103.222584</ele>
        <time>2020-09-29T09:35:05.462Z</time>
      </trkpt>
      <trkpt lat="64.16154" lon="20.66942">
        <ele>102.92484</ele>
        <time>2020-09-29T09:35:07.460Z</time>
      </trkpt>
      <trkpt lat="64.16151" lon="20.66919">
        <ele>102.628823</ele>
        <time>2020-09-29T09:35:09.483Z</time>
      </trkpt>
      <trkpt lat="64.16148" lon="20.66895">
        <ele>102.328761</ele>
        <time>2020-09-29T09:35:11.465Z</time>
      </trkpt>
      <trkpt lat="64.16145" lon="20.66871">
        <ele>102.032176</ele>
        <time>2020-09-29T09:35:13.502Z</time>
      </trkpt>
      <trkpt lat="64.16142" lon="20.66847">
        <ele>101.73403</ele>
        <time>2020-09-29T09:35:15.467Z</time>
      </trkpt>
      <trkpt lat="64.16139" lon="20.66824">
        <ele>101.444008</ele>
        <time>2020-09-29T09:35:17.462Z</time>
      </trkpt>
      <trkpt lat="64.16136" lon="20.66801">
        <ele>101.158951</ele>
        <time>2020-09-29T09:35:19.466Z</time>
      </trkpt>
      <trkpt lat="64.16134" lon="20.66779">
        <ele>101.247581</ele>
        <time>2020-09-29T09:35:21.474Z</time>
      </trkpt>
      <trkpt lat="64.16131" lon="20.66756">
        <ele>101.336212</ele>
        <time>2020-09-29T09:35:23.470Z</time>
      </trkpt>
      <trkpt lat="64.16128" lon="20.66735">
        <ele>101.421695</ele>
        <time>2020-09-29T09:35:25.455Z</time>
      </trkpt>
      <trkpt lat="64.16125" lon="20.66713">
        <ele>101.506684</ele>
        <time>2020-09-29T09:35:27.468Z</time>
      </trkpt>
      <trkpt lat="64.16123" lon="20.66693">
        <ele>101.587926</ele>
        <time>2020-09-29T09:35:29.460Z</time>
      </trkpt>
      <trkpt lat="64.1612" lon="20.66672">
        <ele>101.668574</ele>
        <time>2020-09-29T09:35:31.459Z</time>
      </trkpt>
      <trkpt lat="64.16117" lon="20.66642">
        <ele>101.785231</ele>
        <time>2020-09-29T09:35:34.469Z</time>
      </trkpt>
      <trkpt lat="64.16113" lon="20.66613">
        <ele>101.897354</ele>
        <time>2020-09-29T09:35:37.466Z</time>
      </trkpt>
      <trkpt lat="64.16111" lon="20.66586">
        <ele>102.005101</ele>
        <time>2020-09-29T09:35:40.462Z</time>
      </trkpt>
      <trkpt lat="64.16108" lon="20.66559">
        <ele>102.108074</ele>
        <time>2020-09-29T09:35:43.462Z</time>
      </trkpt>
      <trkpt lat="64.16104" lon="20.66535">
        <ele>102.206147</ele>
        <time>2020-09-29T09:35:46.465Z</time>
      </trkpt>
      <trkpt lat="64.16101" lon="20.66509">
        <ele>102.306776</ele>
        <time>2020-09-29T09:35:49.470Z</time>
      </trkpt>
      <trkpt lat="64.16099" lon="20.66484">
        <ele>102.402498</ele>
        <time>2020-09-29T09:35:52.458Z</time>
      </trkpt>
      <trkpt lat="64.16097" lon="20.6646">
        <ele>102.495667</ele>
        <time>2020-09-29T09:35:55.457Z</time>
      </trkpt>
      <trkpt lat="64.16093" lon="20.66434">
        <ele>102.597253</ele>
        <time>2020-09-29T09:35:58.452Z</time>
      </trkpt>
      <trkpt lat="64.1609" lon="20.66409">
        <ele>102.699091</ele>
        <time>2020-09-29T09:36:01.466Z</time>
      </trkpt>
      <trkpt lat="64.16087" lon="20.66382">
        <ele>102.62092</ele>
        <time>2020-09-29T09:36:04.484Z</time>
      </trkpt>
      <trkpt lat="64.16084" lon="20.66353">
        <ele>102.49379</ele>
        <time>2020-09-29T09:36:07.456Z</time>
      </trkpt>
      <trkpt lat="64.16081" lon="20.66324">
        <ele>102.361348</ele>
        <time>2020-09-29T09:36:10.467Z</time>
      </trkpt>
      <trkpt lat="64.16078" lon="20.66296">
        <ele>102.234644</ele>
        <time>2020-09-29T09:36:13.476Z</time>
      </trkpt>
      <trkpt lat="64.16075" lon="20.66268">
        <ele>102.106923</ele>
        <time>2020-09-29T09:36:16.461Z</time>
      </trkpt>
      <trkpt lat="64.16071" lon="20.6624">
        <ele>101.979621</ele>
        <time>2020-09-29T09:36:19.467Z</time>
      </trkpt>
      <trkpt lat="64.16067" lon="20.66212">
        <ele>101.852049</ele>
        <time>2020-09-29T09:36:22.466Z</time>
      </trkpt>
      <trkpt lat="64.16064" lon="20.66183">
        <ele>101.722792</ele>
        <time>2020-09-29T09:36:25.474Z</time>
      </trkpt>
      <trkpt lat="64.16061" lon="20.66156">
        <ele>101.598452</ele>
        <time>2020-09-29T09:36:28.467Z</time>
      </trkpt>
      <trkpt lat="64.16058" lon="20.66127">
        <ele>101.466506</ele>
        <time>2020-09-29T09:36:31.466Z</time>
      </trkpt>
      <trkpt lat="64.16054" lon="20.66097">
        <ele>101.332339</ele>
        <time>2020-09-29T09:36:34.462Z</time>
      </trkpt>
      <trkpt lat="64.16052" lon="20.66076">
        <ele>101.238404</ele>
        <time>2020-09-29T09:36:36.464Z</time>
      </trkpt>
      <trkpt lat="64.16049" lon="20.66056">
        <ele>101.145174</ele>
        <time>2020-09-29T09:36:38.478Z</time>
      </trkpt>
      <trkpt lat="64.16047" lon="20.66035">
        <ele>101.049413</ele>
        <time>2020-09-29T09:36:40.466Z</time>
      </trkpt>
      <trkpt lat="64.16044" lon="20.66014">
        <ele>100.952381</ele>
        <time>2020-09-29T09:36:42.481Z</time>
      </trkpt>
      <trkpt lat="64.16042" lon="20.65993">
        <ele>100.970614</ele>
        <time>2020-09-29T09:36:44.464Z</time>
      </trkpt>
      <trkpt lat="64.16039" lon="20.65971">
        <ele>101.075922</ele>
        <time>2020-09-29T09:36:46.473Z</time>
      </trkpt>
      <trkpt lat="64.16036" lon="20.65948">
        <ele>101.1864</ele>
        <time>2020-09-29T09:36:48.474Z</time>
      </trkpt>
      <trkpt lat="64.16034" lon="20.65927">
        <ele>101.2917</ele>
        <time>2020-09-29T09:36:50.483Z</time>
      </trkpt>
      <trkpt lat="64.16031" lon="20.65906">
        <ele>101.394562</ele>
        <time>2020-09-29T09:36:52.466Z</time>
      </trkpt>
      <trkpt lat="64.16029" lon="20.65883">
        <ele>101.502582</ele>
        <time>2020-09-29T09:36:54.508Z</time>
      </trkpt>
      <trkpt lat="64.16026" lon="20.65862">
        <ele>101.60743</ele>
        <time>2020-09-29T09:36:56.466Z</time>
      </trkpt>
      <trkpt lat="64.16024" lon="20.65841">
        <ele>101.709111</ele>
        <time>2020-09-29T09:36:58.470Z</time>
      </trkpt>
      <trkpt lat="64.16021" lon="20.65821">
        <ele>101.808857</ele>
        <time>2020-09-29T09:37:00.465Z</time>
      </trkpt>
      <trkpt lat="64.16019" lon="20.658">
        <ele>101.907532</ele>
        <time>2020-09-29T09:37:02.514Z</time>
      </trkpt>
      <trkpt lat="64.16016" lon="20.6578">
        <ele>102.008016</ele>
        <time>2020-09-29T09:37:04.461Z</time>
      </trkpt>
      <trkpt lat="64.16014" lon="20.65759">
        <ele>102.106769</ele>
        <time>2020-09-29T09:37:06.484Z</time>
      </trkpt>
      <trkpt lat="64.16011" lon="20.6573">
        <ele>102.247798</ele>
        <time>2020-09-29T09:37:09.502Z</time>
      </trkpt>
      <trkpt lat="64.16008" lon="20.65702">
        <ele>102.383192</ele>
        <time>2020-09-29T09:37:12.484Z</time>
      </trkpt>
      <trkpt lat="64.16004" lon="20.65675">
        <ele>102.516613</ele>
        <time>2020-09-29T09:37:15.483Z</time>
      </trkpt>
      <trkpt lat="64.16002" lon="20.65649">
        <ele>102.643339</ele>
        <time>2020-09-29T09:37:18.514Z</time>
      </trkpt>
      <trkpt lat="64.15998" lon="20.65623">
        <ele>102.770762</ele>
        <time>2020-09-29T09:37:21.474Z</time>
      </trkpt>
      <trkpt lat="64.15995" lon="20.65599">
        <ele>102.904584</ele>
        <time>2020-09-29T09:37:24.458Z</time>
      </trkpt>
      <trkpt lat="64.15993" lon="20.65573">
        <ele>103.077202</ele>
        <time>2020-09-29T09:37:27.467Z</time>
      </trkpt>
      <trkpt lat="64.15991" lon="20.65549">
        <ele>103.242662</ele>
        <time>2020-09-29T09:37:30.482Z</time>
      </trkpt>
      <trkpt lat="64.15988" lon="20.65528">
        <ele>103.391011</ele>
        <time>2020-09-29T09:37:33.469Z</time>
      </trkpt>
      <trkpt lat="64.15986" lon="20.65508">
        <ele>103.528874</ele>
        <time>2020-09-29T09:37:36.458Z</time>
      </trkpt>
      <trkpt lat="64.15982" lon="20.65482">
        <ele>103.708347</ele>
        <time>2020-09-29T09:37:40.464Z</time>
      </trkpt>
      <trkpt lat="64.15979" lon="20.65462">
        <ele>103.849501</ele>
        <time>2020-09-29T09:37:43.468Z</time>
      </trkpt>
      <trkpt lat="64.15977" lon="20.65442">
        <ele>103.989547</ele>
        <time>2020-09-29T09:37:46.463Z</time>
      </trkpt>
      <trkpt lat="64.15973" lon="20.65416">
        <ele>104.168602</ele>
        <time>2020-09-29T09:37:50.457Z</time>
      </trkpt>
      <trkpt lat="64.15972" lon="20.65396">
        <ele>104.306414</ele>
        <time>2020-09-29T09:37:53.460Z</time>
      </trkpt>
      <trkpt lat="64.15968" lon="20.65373">
        <ele>104.465315</ele>
        <time>2020-09-29T09:37:57.459Z</time>
      </trkpt>
      <trkpt lat="64.15964" lon="20.65348">
        <ele>104.641523</ele>
        <time>2020-09-29T09:38:01.491Z</time>
      </trkpt>
      <trkpt lat="64.15961" lon="20.65327">
        <ele>104.794451</ele>
        <time>2020-09-29T09:38:04.472Z</time>
      </trkpt>
      <trkpt lat="64.15957" lon="20.65306">
        <ele>104.943097</ele>
        <time>2020-09-29T09:38:07.463Z</time>
      </trkpt>
      <trkpt lat="64.15951" lon="20.65289">
        <ele>105.093391</ele>
        <time>2020-09-29T09:38:10.494Z</time>
      </trkpt>
      <trkpt lat="64.15943" lon="20.6527">
        <ele>105.265318</ele>
        <time>2020-09-29T09:38:13.487Z</time>
      </trkpt>
      <trkpt lat="64.15934" lon="20.6525">
        <ele>105.457432</ele>
        <time>2020-09-29T09:38:16.466Z</time>
      </trkpt>
      <trkpt lat="64.15924" lon="20.65233">
        <ele>105.577538</ele>
        <time>2020-09-29T09:38:19.482Z</time>
      </trkpt>
      <trkpt lat="64.15913" lon="20.65217">
        <ele>105.470738</ele>
        <time>2020-09-29T09:38:22.451Z</time>
      </trkpt>
      <trkpt lat="64.15905" lon="20.65207">
        <ele>105.398021</ele>
        <time>2020-09-29T09:38:24.464Z</time>
      </trkpt>
      <trkpt lat="64.15893" lon="20.65193">
        <ele>105.292222</ele>
        <time>2020-09-29T09:38:27.464Z</time>
      </trkpt>
      <trkpt lat="64.15885" lon="20.65183">
        <ele>105.219163</ele>
        <time>2020-09-29T09:38:29.468Z</time>
      </trkpt>
      <trkpt lat="64.15877" lon="20.65173">
        <ele>105.145581</ele>
        <time>2020-09-29T09:38:31.472Z</time>
      </trkpt>
      <trkpt lat="64.15869" lon="20.65162">
        <ele>105.071974</ele>
        <time>2020-09-29T09:38:33.466Z</time>
      </trkpt>
      <trkpt lat="64.15859" lon="20.65144">
        <ele>104.968028</ele>
        <time>2020-09-29T09:38:36.447Z</time>
      </trkpt>
      <trkpt lat="64.15848" lon="20.65128">
        <ele>104.862108</ele>
        <time>2020-09-29T09:38:39.495Z</time>
      </trkpt>
      <trkpt lat="64.15837" lon="20.65112">
        <ele>104.753714</ele>
        <time>2020-09-29T09:38:42.457Z</time>
      </trkpt>
      <trkpt lat="64.15825" lon="20.65095">
        <ele>104.645267</ele>
        <time>2020-09-29T09:38:45.469Z</time>
      </trkpt>
      <trkpt lat="64.15817" lon="20.65084">
        <ele>104.571292</ele>
        <time>2020-09-29T09:38:47.461Z</time>
      </trkpt>
      <trkpt lat="64.15809" lon="20.65073">
        <ele>104.496483</ele>
        <time>2020-09-29T09:38:49.475Z</time>
      </trkpt>
      <trkpt lat="64.15802" lon="20.65062">
        <ele>104.422625</ele>
        <time>2020-09-29T09:38:51.471Z</time>
      </trkpt>
      <trkpt lat="64.15794" lon="20.65052">
        <ele>104.347816</ele>
        <time>2020-09-29T09:38:53.477Z</time>
      </trkpt>
      <trkpt lat="64.15785" lon="20.6504">
        <ele>104.269514</ele>
        <time>2020-09-29T09:38:55.464Z</time>
      </trkpt>
      <trkpt lat="64.15776" lon="20.6503">
        <ele>104.186131</ele>
        <time>2020-09-29T09:38:57.477Z</time>
      </trkpt>
      <trkpt lat="64.15767" lon="20.65016">
        <ele>104.072319</ele>
        <time>2020-09-29T09:38:59.480Z</time>
      </trkpt>
      <trkpt lat="64.15758" lon="20.65003">
        <ele>103.940632</ele>
        <time>2020-09-29T09:39:01.480Z</time>
      </trkpt>
      <trkpt lat="64.15749" lon="20.6499">
        <ele>103.810373</ele>
        <time>2020-09-29T09:39:03.502Z</time>
      </trkpt>
      <trkpt lat="64.1574" lon="20.64978">
        <ele>103.682007</ele>
        <time>2020-09-29T09:39:05.467Z</time>
      </trkpt>
      <trkpt lat="64.15732" lon="20.64966">
        <ele>103.557917</ele>
        <time>2020-09-29T09:39:07.480Z</time>
      </trkpt>
      <trkpt lat="64.15723" lon="20.64953">
        <ele>103.433601</ele>
        <time>2020-09-29T09:39:09.468Z</time>
      </trkpt>
      <trkpt lat="64.15715" lon="20.6494">
        <ele>103.310309</ele>
        <time>2020-09-29T09:39:11.463Z</time>
      </trkpt>
      <trkpt lat="64.15706" lon="20.64927">
        <ele>103.184371</ele>
        <time>2020-09-29T09:39:13.486Z</time>
      </trkpt>
      <trkpt lat="64.15698" lon="20.64915">
        <ele>103.06048</ele>
        <time>2020-09-29T09:39:15.464Z</time>
      </trkpt>
      <trkpt lat="64.1569" lon="20.64903">
        <ele>102.941149</ele>
        <time>2020-09-29T09:39:17.463Z</time>
      </trkpt>
      <trkpt lat="64.15681" lon="20.64891">
        <ele>102.820075</ele>
        <time>2020-09-29T09:39:19.504Z</time>
      </trkpt>
      <trkpt lat="64.15673" lon="20.64878">
        <ele>102.697969</ele>
        <time>2020-09-29T09:39:21.470Z</time>
      </trkpt>
      <trkpt lat="64.15665" lon="20.64866">
        <ele>102.574376</ele>
        <time>2020-09-29T09:39:23.484Z</time>
      </trkpt>
      <trkpt lat="64.15657" lon="20.64854">
        <ele>102.454562</ele>
        <time>2020-09-29T09:39:25.492Z</time>
      </trkpt>
      <trkpt lat="64.15648" lon="20.64842">
        <ele>102.335799</ele>
        <time>2020-09-29T09:39:27.466Z</time>
      </trkpt>
      <trkpt lat="64.1564" lon="20.64831">
        <ele>102.21815</ele>
        <time>2020-09-29T09:39:29.464Z</time>
      </trkpt>
      <trkpt lat="64.15632" lon="20.6482">
        <ele>102.101</ele>
        <time>2020-09-29T09:39:31.479Z</time>
      </trkpt>
      <trkpt lat="64.15624" lon="20.64808">
        <ele>101.981741</ele>
        <time>2020-09-29T09:39:33.471Z</time>
      </trkpt>
      <trkpt lat="64.15616" lon="20.64797">
        <ele>102.151147</ele>
        <time>2020-09-29T09:39:35.485Z</time>
      </trkpt>
      <trkpt lat="64.15608" lon="20.64786">
        <ele>102.495563</ele>
        <time>2020-09-29T09:39:37.480Z</time>
      </trkpt>
      <trkpt lat="64.156" lon="20.64775">
        <ele>102.836792</ele>
        <time>2020-09-29T09:39:39.498Z</time>
      </trkpt>
      <trkpt lat="64.15592" lon="20.64763">
        <ele>103.186812</ele>
        <time>2020-09-29T09:39:41.465Z</time>
      </trkpt>
      <trkpt lat="64.15584" lon="20.64752">
        <ele>103.528468</ele>
        <time>2020-09-29T09:39:43.485Z</time>
      </trkpt>
      <trkpt lat="64.15576" lon="20.6474">
        <ele>103.876347</ele>
        <time>2020-09-29T09:39:45.460Z</time>
      </trkpt>
      <trkpt lat="64.15568" lon="20.64728">
        <ele>104.232178</ele>
        <time>2020-09-29T09:39:47.469Z</time>
      </trkpt>
      <trkpt lat="64.1556" lon="20.64716">
        <ele>104.589231</ele>
        <time>2020-09-29T09:39:49.464Z</time>
      </trkpt>
      <trkpt lat="64.15551" lon="20.64705">
        <ele>104.940239</ele>
        <time>2020-09-29T09:39:51.469Z</time>
      </trkpt>
      <trkpt lat="64.15544" lon="20.64694">
        <ele>105.277621</ele>
        <time>2020-09-29T09:39:53.505Z</time>
      </trkpt>
      <trkpt lat="64.15532" lon="20.64678">
        <ele>105.763803</ele>
        <time>2020-09-29T09:39:56.471Z</time>
      </trkpt>
      <trkpt lat="64.15522" lon="20.64664">
        <ele>106.195347</ele>
        <time>2020-09-29T09:39:59.470Z</time>
      </trkpt>
      <trkpt lat="64.15514" lon="20.6465">
        <ele>106.584189</ele>
        <time>2020-09-29T09:40:02.466Z</time>
      </trkpt>
      <trkpt lat="64.15506" lon="20.64638">
        <ele>106.929934</ele>
        <time>2020-09-29T09:40:05.463Z</time>
      </trkpt>
      <trkpt lat="64.15498" lon="20.64627">
        <ele>107.267173</ele>
        <time>2020-09-29T09:40:08.464Z</time>
      </trkpt>
      <trkpt lat="64.1549" lon="20.64617">
        <ele>107.604413</ele>
        <time>2020-09-29T09:40:11.462Z</time>
      </trkpt>
      <trkpt lat="64.15482" lon="20.64606">
        <ele>107.941798</ele>
        <time>2020-09-29T09:40:14.468Z</time>
      </trkpt>
      <trkpt lat="64.15475" lon="20.64594">
        <ele>108.27996</ele>
        <time>2020-09-29T09:40:17.486Z</time>
      </trkpt>
      <trkpt lat="64.15467" lon="20.64583">
        <ele>108.598822</ele>
        <time>2020-09-29T09:40:20.506Z</time>
      </trkpt>
      <trkpt lat="64.15458" lon="20.64576">
        <ele>108.824762</ele>
        <time>2020-09-29T09:40:23.465Z</time>
      </trkpt>
      <trkpt lat="64.15448" lon="20.64569">
        <ele>109.065081</ele>
        <time>2020-09-29T09:40:26.486Z</time>
      </trkpt>
      <trkpt lat="64.15439" lon="20.64561">
        <ele>109.30223</ele>
        <time>2020-09-29T09:40:29.459Z</time>
      </trkpt>
      <trkpt lat="64.15429" lon="20.64553">
        <ele>109.552784</ele>
        <time>2020-09-29T09:40:32.460Z</time>
      </trkpt>
      <trkpt lat="64.15419" lon="20.64546">
        <ele>109.810936</ele>
        <time>2020-09-29T09:40:35.474Z</time>
      </trkpt>
      <trkpt lat="64.15408" lon="20.64541">
        <ele>110.077569</ele>
        <time>2020-09-29T09:40:38.461Z</time>
      </trkpt>
      <trkpt lat="64.15396" lon="20.64535">
        <ele>110.362356</ele>
        <time>2020-09-29T09:40:41.475Z</time>
      </trkpt>
      <trkpt lat="64.15384" lon="20.64529">
        <ele>110.669089</ele>
        <time>2020-09-29T09:40:44.481Z</time>
      </trkpt>
      <trkpt lat="64.15371" lon="20.64521">
        <ele>110.982148</ele>
        <time>2020-09-29T09:40:47.484Z</time>
      </trkpt>
      <trkpt lat="64.15359" lon="20.64514">
        <ele>111.285749</ele>
        <time>2020-09-29T09:40:50.501Z</time>
      </trkpt>
      <trkpt lat="64.15346" lon="20.64506">
        <ele>111.598856</ele>
        <time>2020-09-29T09:40:53.488Z</time>
      </trkpt>
      <trkpt lat="64.15333" lon="20.64498">
        <ele>111.92299</ele>
        <time>2020-09-29T09:40:56.490Z</time>
      </trkpt>
      <trkpt lat="64.15324" lon="20.64493">
        <ele>112.148277</ele>
        <time>2020-09-29T09:40:58.464Z</time>
      </trkpt>
      <trkpt lat="64.15314" lon="20.64488">
        <ele>112.386845</ele>
        <time>2020-09-29T09:41:00.508Z</time>
      </trkpt>
      <trkpt lat="64.15305" lon="20.64483">
        <ele>112.618921</ele>
        <time>2020-09-29T09:41:02.490Z</time>
      </trkpt>
      <trkpt lat="64.15296" lon="20.64477">
        <ele>112.854094</ele>
        <time>2020-09-29T09:41:04.486Z</time>
      </trkpt>
      <trkpt lat="64.15286" lon="20.64472">
        <ele>112.546789</ele>
        <time>2020-09-29T09:41:06.504Z</time>
      </trkpt>
      <trkpt lat="64.15276" lon="20.64467">
        <ele>112.19968</ele>
        <time>2020-09-29T09:41:08.466Z</time>
      </trkpt>
      <trkpt lat="64.15267" lon="20.64462">
        <ele>111.864386</ele>
        <time>2020-09-29T09:41:10.504Z</time>
      </trkpt>
      <trkpt lat="64.15258" lon="20.64457">
        <ele>111.53865</ele>
        <time>2020-09-29T09:41:12.496Z</time>
      </trkpt>
      <trkpt lat="64.15249" lon="20.64452">
        <ele>111.205278</ele>
        <time>2020-09-29T09:41:14.466Z</time>
      </trkpt>
      <trkpt lat="64.15239" lon="20.64447">
        <ele>110.855296</ele>
        <time>2020-09-29T09:41:16.455Z</time>
      </trkpt>
      <trkpt lat="64.1523" lon="20.64442">
        <ele>110.509308</ele>
        <time>2020-09-29T09:41:18.472Z</time>
      </trkpt>
      <trkpt lat="64.1522" lon="20.64437">
        <ele>110.149174</ele>
        <time>2020-09-29T09:41:20.460Z</time>
      </trkpt>
      <trkpt lat="64.1521" lon="20.64431">
        <ele>109.780709</ele>
        <time>2020-09-29T09:41:22.514Z</time>
      </trkpt>
      <trkpt lat="64.152" lon="20.64426">
        <ele>109.416416</ele>
        <time>2020-09-29T09:41:24.468Z</time>
      </trkpt>
      <trkpt lat="64.1519" lon="20.6442">
        <ele>109.05139</ele>
        <time>2020-09-29T09:41:26.466Z</time>
      </trkpt>
      <trkpt lat="64.1518" lon="20.64414">
        <ele>108.695085</ele>
        <time>2020-09-29T09:41:28.455Z</time>
      </trkpt>
      <trkpt lat="64.1517" lon="20.64408">
        <ele>108.32662</ele>
        <time>2020-09-29T09:41:30.466Z</time>
      </trkpt>
      <trkpt lat="64.1516" lon="20.64403">
        <ele>107.966486</ele>
        <time>2020-09-29T09:41:32.467Z</time>
      </trkpt>
      <trkpt lat="64.15151" lon="20.64397">
        <ele>107.611764</ele>
        <time>2020-09-29T09:41:34.456Z</time>
      </trkpt>
      <trkpt lat="64.15141" lon="20.64392">
        <ele>107.259905</ele>
        <time>2020-09-29T09:41:36.459Z</time>
      </trkpt>
      <trkpt lat="64.15131" lon="20.64387">
        <ele>106.906305</ele>
        <time>2020-09-29T09:41:38.456Z</time>
      </trkpt>
      <trkpt lat="64.15121" lon="20.64381">
        <ele>106.548897</ele>
        <time>2020-09-29T09:41:40.459Z</time>
      </trkpt>
      <trkpt lat="64.15112" lon="20.64376">
        <ele>106.513324</ele>
        <time>2020-09-29T09:41:42.478Z</time>
      </trkpt>
      <trkpt lat="64.15103" lon="20.64371">
        <ele>106.529088</ele>
        <time>2020-09-29T09:41:44.472Z</time>
      </trkpt>
      <trkpt lat="64.15094" lon="20.64366">
        <ele>106.544836</ele>
        <time>2020-09-29T09:41:46.472Z</time>
      </trkpt>
      <trkpt lat="64.15085" lon="20.64361">
        <ele>106.560566</ele>
        <time>2020-09-29T09:41:48.464Z</time>
      </trkpt>
      <trkpt lat="64.15076" lon="20.64356">
        <ele>106.576206</ele>
        <time>2020-09-29T09:41:50.487Z</time>
      </trkpt>
      <trkpt lat="64.15065" lon="20.64348">
        <ele>106.597243</ele>
        <time>2020-09-29T09:41:53.472Z</time>
      </trkpt>
      <trkpt lat="64.15053" lon="20.64341">
        <ele>106.61829</ele>
        <time>2020-09-29T09:41:56.487Z</time>
      </trkpt>
      <trkpt lat="64.1504" lon="20.64334">
        <ele>106.640669</ele>
        <time>2020-09-29T09:41:59.468Z</time>
      </trkpt>
      <trkpt lat="64.15031" lon="20.64328">
        <ele>106.656184</ele>
        <time>2020-09-29T09:42:01.494Z</time>
      </trkpt>
      <trkpt lat="64.15018" lon="20.64321">
        <ele>106.679134</ele>
        <time>2020-09-29T09:42:04.467Z</time>
      </trkpt>
      <trkpt lat="64.15009" lon="20.64317">
        <ele>106.694761</ele>
        <time>2020-09-29T09:42:06.463Z</time>
      </trkpt>
      <trkpt lat="64.14996" lon="20.6431">
        <ele>106.717676</ele>
        <time>2020-09-29T09:42:09.472Z</time>
      </trkpt>
      <trkpt lat="64.14984" lon="20.64302">
        <ele>106.740386</ele>
        <time>2020-09-29T09:42:12.498Z</time>
      </trkpt>
      <trkpt lat="64.14971" lon="20.64293">
        <ele>106.762864</ele>
        <time>2020-09-29T09:42:15.467Z</time>
      </trkpt>
      <trkpt lat="64.14958" lon="20.64287">
        <ele>106.784794</ele>
        <time>2020-09-29T09:42:18.490Z</time>
      </trkpt>
      <trkpt lat="64.14946" lon="20.6428">
        <ele>106.806822</ele>
        <time>2020-09-29T09:42:21.457Z</time>
      </trkpt>
      <trkpt lat="64.14933" lon="20.64274">
        <ele>107.753077</ele>
        <time>2020-09-29T09:42:24.461Z</time>
      </trkpt>
      <trkpt lat="64.14921" lon="20.64268">
        <ele>108.661203</ele>
        <time>2020-09-29T09:42:27.473Z</time>
      </trkpt>
      <trkpt lat="64.14909" lon="20.64261">
        <ele>109.57225</ele>
        <time>2020-09-29T09:42:30.506Z</time>
      </trkpt>
      <trkpt lat="64.14898" lon="20.64253">
        <ele>110.444827</ele>
        <time>2020-09-29T09:42:33.473Z</time>
      </trkpt>
      <trkpt lat="64.14888" lon="20.64245">
        <ele>111.282992</ele>
        <time>2020-09-29T09:42:36.472Z</time>
      </trkpt>
      <trkpt lat="64.14877" lon="20.64234">
        <ele>112.137393</ele>
        <time>2020-09-29T09:42:39.464Z</time>
      </trkpt>
      <trkpt lat="64.14867" lon="20.64225">
        <ele>112.952888</ele>
        <time>2020-09-29T09:42:42.455Z</time>
      </trkpt>
      <trkpt lat="64.14858" lon="20.64215">
        <ele>113.670521</ele>
        <time>2020-09-29T09:42:45.464Z</time>
      </trkpt>
      <trkpt lat="64.1485" lon="20.64207">
        <ele>114.360479</ele>
        <time>2020-09-29T09:42:48.467Z</time>
      </trkpt>
      <trkpt lat="64.1484" lon="20.64193">
        <ele>115.18368</ele>
        <time>2020-09-29T09:42:52.463Z</time>
      </trkpt>
      <trkpt lat="64.14832" lon="20.64182">
        <ele>115.893837</ele>
        <time>2020-09-29T09:42:56.474Z</time>
      </trkpt>
      <trkpt lat="64.14824" lon="20.64166">
        <ele>116.708377</ele>
        <time>2020-09-29T09:43:01.456Z</time>
      </trkpt>
      <trkpt lat="64.14816" lon="20.64154">
        <ele>117.396729</ele>
        <time>2020-09-29T09:43:05.465Z</time>
      </trkpt>
      <trkpt lat="64.14809" lon="20.6414">
        <ele>118.096208</ele>
        <time>2020-09-29T09:43:09.460Z</time>
      </trkpt>
      <trkpt lat="64.14801" lon="20.64124">
        <ele>118.876177</ele>
        <time>2020-09-29T09:43:13.458Z</time>
      </trkpt>
      <trkpt lat="64.14795" lon="20.64107">
        <ele>119.610524</ele>
        <time>2020-09-29T09:43:17.462Z</time>
      </trkpt>
      <trkpt lat="64.14787" lon="20.64091">
        <ele>120.168154</ele>
        <time>2020-09-29T09:43:21.464Z</time>
      </trkpt>
      <trkpt lat="64.1478" lon="20.64074">
        <ele>120.005905</ele>
        <time>2020-09-29T09:43:25.512Z</time>
      </trkpt>
      <trkpt lat="64.14772" lon="20.64059">
        <ele>119.847544</ele>
        <time>2020-09-29T09:43:29.469Z</time>
      </trkpt>
      <trkpt lat="64.14765" lon="20.64043">
        <ele>119.678556</ele>
        <time>2020-09-29T09:43:33.453Z</time>
      </trkpt>
      <trkpt lat="64.14756" lon="20.64027">
        <ele>119.508129</ele>
        <time>2020-09-29T09:43:37.470Z</time>
      </trkpt>
      <trkpt lat="64.1475" lon="20.64011">
        <ele>119.360419</ele>
        <time>2020-09-29T09:43:40.477Z</time>
      </trkpt>
      <trkpt lat="64.14744" lon="20.63993">
        <ele>119.201851</ele>
        <time>2020-09-29T09:43:43.488Z</time>
      </trkpt>
      <trkpt lat="64.14738" lon="20.63978">
        <ele>119.056836</ele>
        <time>2020-09-29T09:43:46.480Z</time>
      </trkpt>
      <trkpt lat="64.14729" lon="20.63958">
        <ele>118.869273</ele>
        <time>2020-09-29T09:43:50.478Z</time>
      </trkpt>
      <trkpt lat="64.14721" lon="20.6394">
        <ele>118.683943</ele>
        <time>2020-09-29T09:43:54.465Z</time>
      </trkpt>
      <trkpt lat="64.14712" lon="20.63923">
        <ele>118.507673</ele>
        <time>2020-09-29T09:43:58.471Z</time>
      </trkpt>
      <trkpt lat="64.14704" lon="20.63905">
        <ele>118.331689</ele>
        <time>2020-09-29T09:44:02.492Z</time>
      </trkpt>
      <trkpt lat="64.14696" lon="20.63886">
        <ele>118.145731</ele>
        <time>2020-09-29T09:44:06.484Z</time>
      </trkpt>
      <trkpt lat="64.1469" lon="20.63872">
        <ele>118.00423</ele>
        <time>2020-09-29T09:44:09.473Z</time>
      </trkpt>
      <trkpt lat="64.14683" lon="20.63857">
        <ele>117.858242</ele>
        <time>2020-09-29T09:44:12.462Z</time>
      </trkpt>
      <trkpt lat="64.14674" lon="20.6384">
        <ele>117.675676</ele>
        <time>2020-09-29T09:44:16.477Z</time>
      </trkpt>
      <trkpt lat="64.14667" lon="20.63823">
        <ele>117.508318</ele>
        <time>2020-09-29T09:44:20.460Z</time>
      </trkpt>
      <trkpt lat="64.14659" lon="20.63808">
        <ele>117.365198</ele>
        <time>2020-09-29T09:44:24.503Z</time>
      </trkpt>
      <trkpt lat="64.14652" lon="20.63795">
        <ele>117.693701</ele>
        <time>2020-09-29T09:44:28.488Z</time>
      </trkpt>
      <trkpt lat="64.14644" lon="20.63779">
        <ele>118.062271</ele>
        <time>2020-09-29T09:44:33.454Z</time>
      </trkpt>
      <trkpt lat="64.14637" lon="20.63763">
        <ele>118.410967</ele>
        <time>2020-09-29T09:44:38.462Z</time>
      </trkpt>
      <trkpt lat="64.1463" lon="20.63747">
        <ele>118.76724</ele>
        <time>2020-09-29T09:44:43.508Z</time>
      </trkpt>
      <trkpt lat="64.14622" lon="20.63732">
        <ele>119.11584</ele>
        <time>2020-09-29T09:44:48.460Z</time>
      </trkpt>
      <trkpt lat="64.14614" lon="20.63717">
        <ele>119.478793</ele>
        <time>2020-09-29T09:44:53.462Z</time>
      </trkpt>
      <trkpt lat="64.14606" lon="20.63703">
        <ele>119.82203</ele>
        <time>2020-09-29T09:44:58.482Z</time>
      </trkpt>
      <trkpt lat="64.146" lon="20.63689">
        <ele>120.140112</ele>
        <time>2020-09-29T09:45:03.459Z</time>
      </trkpt>
      <trkpt lat="64.14592" lon="20.63674">
        <ele>120.495015</ele>
        <time>2020-09-29T09:45:08.464Z</time>
      </trkpt>
      <trkpt lat="64.14585" lon="20.63661">
        <ele>120.815191</ele>
        <time>2020-09-29T09:45:12.469Z</time>
      </trkpt>
      <trkpt lat="64.14577" lon="20.63647">
        <ele>121.165953</ele>
        <time>2020-09-29T09:45:16.471Z</time>
      </trkpt>
      <trkpt lat="64.14568" lon="20.63635">
        <ele>121.530176</ele>
        <time>2020-09-29T09:45:20.478Z</time>
      </trkpt>
      <trkpt lat="64.1456" lon="20.63621">
        <ele>121.893034</ele>
        <time>2020-09-29T09:45:24.540Z</time>
      </trkpt>
      <trkpt lat="64.14552" lon="20.63609">
        <ele>122.216027</ele>
        <time>2020-09-29T09:45:28.457Z</time>
      </trkpt>
      <trkpt lat="64.14544" lon="20.63596">
        <ele>122.561372</ele>
        <time>2020-09-29T09:45:32.476Z</time>
      </trkpt>
      <trkpt lat="64.14536" lon="20.63585">
        <ele>122.893382</ele>
        <time>2020-09-29T09:45:36.464Z</time>
      </trkpt>
      <trkpt lat="64.14527" lon="20.63575">
        <ele>123.233783</ele>
        <time>2020-09-29T09:45:40.467Z</time>
      </trkpt>
      <trkpt lat="64.14519" lon="20.63563">
        <ele>123.565721</ele>
        <time>2020-09-29T09:45:44.488Z</time>
      </trkpt>
      <trkpt lat="64.14511" lon="20.63549">
        <ele>124.138245</ele>
        <time>2020-09-29T09:45:48.485Z</time>
      </trkpt>
      <trkpt lat="64.14503" lon="20.63538">
        <ele>124.832771</ele>
        <time>2020-09-29T09:45:52.489Z</time>
      </trkpt>
      <trkpt lat="64.14494" lon="20.63522">
        <ele>125.606632</ele>
        <time>2020-09-29T09:45:57.524Z</time>
      </trkpt>
      <trkpt lat="64.14485" lon="20.63508">
        <ele>126.350218</ele>
        <time>2020-09-29T09:46:01.463Z</time>
      </trkpt>
      <trkpt lat="64.14477" lon="20.63494">
        <ele>127.0352</ele>
        <time>2020-09-29T09:46:05.490Z</time>
      </trkpt>
      <trkpt lat="64.14468" lon="20.63482">
        <ele>127.733501</ele>
        <time>2020-09-29T09:46:09.464Z</time>
      </trkpt>
      <trkpt lat="64.14459" lon="20.63469">
        <ele>128.436664</ele>
        <time>2020-09-29T09:46:13.458Z</time>
      </trkpt>
      <trkpt lat="64.14452" lon="20.63456">
        <ele>129.081763</ele>
        <time>2020-09-29T09:46:17.470Z</time>
      </trkpt>
      <trkpt lat="64.14443" lon="20.63446">
        <ele>129.768406</ele>
        <time>2020-09-29T09:46:21.471Z</time>
      </trkpt>
      <trkpt lat="64.14434" lon="20.63432">
        <ele>130.496197</ele>
        <time>2020-09-29T09:46:25.487Z</time>
      </trkpt>
      <trkpt lat="64.14425" lon="20.6342">
        <ele>131.189723</ele>
        <time>2020-09-29T09:46:29.480Z</time>
      </trkpt>
      <trkpt lat="64.14417" lon="20.63404">
        <ele>131.954425</ele>
        <time>2020-09-29T09:46:34.485Z</time>
      </trkpt>
      <trkpt lat="64.14409" lon="20.6339">
        <ele>132.641487</ele>
        <time>2020-09-29T09:46:38.466Z</time>
      </trkpt>
      <trkpt lat="64.14401" lon="20.63376">
        <ele>133.341008</ele>
        <time>2020-09-29T09:46:42.470Z</time>
      </trkpt>
      <trkpt lat="64.14392" lon="20.63363">
        <ele>134.044176</ele>
        <time>2020-09-29T09:46:46.466Z</time>
      </trkpt>
      <trkpt lat="64.14383" lon="20.6335">
        <ele>134.763019</ele>
        <time>2020-09-29T09:46:50.466Z</time>
      </trkpt>
      <trkpt lat="64.14375" lon="20.63337">
        <ele>135.453736</ele>
        <time>2020-09-29T09:46:54.487Z</time>
      </trkpt>
      <trkpt lat="64.14368" lon="20.63323">
        <ele>135.960381</ele>
        <time>2020-09-29T09:46:58.490Z</time>
      </trkpt>
      <trkpt lat="64.1436" lon="20.63308">
        <ele>135.926395</ele>
        <time>2020-09-29T09:47:02.470Z</time>
      </trkpt>
      <trkpt lat="64.14352" lon="20.63295">
        <ele>135.893985</ele>
        <time>2020-09-29T09:47:06.463Z</time>
      </trkpt>
      <trkpt lat="64.14345" lon="20.63279">
        <ele>135.860763</ele>
        <time>2020-09-29T09:47:10.472Z</time>
      </trkpt>
      <trkpt lat="64.14337" lon="20.63261">
        <ele>135.82666</ele>
        <time>2020-09-29T09:47:14.472Z</time>
      </trkpt>
      <trkpt lat="64.1433" lon="20.63246">
        <ele>135.793255</ele>
        <time>2020-09-29T09:47:18.455Z</time>
      </trkpt>
      <trkpt lat="64.14322" lon="20.63227">
        <ele>135.756392</ele>
        <time>2020-09-29T09:47:22.472Z</time>
      </trkpt>
      <trkpt lat="64.14313" lon="20.63208">
        <ele>135.717357</ele>
        <time>2020-09-29T09:47:26.455Z</time>
      </trkpt>
      <trkpt lat="64.14306" lon="20.63194">
        <ele>135.686562</ele>
        <time>2020-09-29T09:47:29.463Z</time>
      </trkpt>
      <trkpt lat="64.14299" lon="20.6318">
        <ele>135.655199</ele>
        <time>2020-09-29T09:47:32.493Z</time>
      </trkpt>
      <trkpt lat="64.14291" lon="20.63163">
        <ele>135.619605</ele>
        <time>2020-09-29T09:47:35.492Z</time>
      </trkpt>
      <trkpt lat="64.14282" lon="20.63145">
        <ele>135.581171</ele>
        <time>2020-09-29T09:47:38.470Z</time>
      </trkpt>
      <trkpt lat="64.14273" lon="20.63125">
        <ele>135.53935</ele>
        <time>2020-09-29T09:47:41.465Z</time>
      </trkpt>
      <trkpt lat="64.14266" lon="20.6311">
        <ele>135.507294</ele>
        <time>2020-09-29T09:47:43.471Z</time>
      </trkpt>
      <trkpt lat="64.14258" lon="20.63094">
        <ele>135.472967</ele>
        <time>2020-09-29T09:47:45.489Z</time>
      </trkpt>
      <trkpt lat="64.1425" lon="20.63076">
        <ele>135.434864</ele>
        <time>2020-09-29T09:47:47.503Z</time>
      </trkpt>
      <trkpt lat="64.1424" lon="20.63057">
        <ele>135.394139</ele>
        <time>2020-09-29T09:47:49.462Z</time>
      </trkpt>
      <trkpt lat="64.1423" lon="20.63037">
        <ele>135.086763</ele>
        <time>2020-09-29T09:47:51.525Z</time>
      </trkpt>
      <trkpt lat="64.1422" lon="20.63015">
        <ele>134.553981</ele>
        <time>2020-09-29T09:47:53.459Z</time>
      </trkpt>
      <trkpt lat="64.14209" lon="20.62992">
        <ele>134.001151</ele>
        <time>2020-09-29T09:47:55.482Z</time>
      </trkpt>
      <trkpt lat="64.14198" lon="20.6297">
        <ele>133.44152</ele>
        <time>2020-09-29T09:47:57.482Z</time>
      </trkpt>
      <trkpt lat="64.14188" lon="20.62948">
        <ele>132.900402</ele>
        <time>2020-09-29T09:47:59.469Z</time>
      </trkpt>
      <trkpt lat="64.14177" lon="20.62925">
        <ele>132.340304</ele>
        <time>2020-09-29T09:48:01.504Z</time>
      </trkpt>
      <trkpt lat="64.14166" lon="20.62902">
        <ele>131.787972</ele>
        <time>2020-09-29T09:48:03.463Z</time>
      </trkpt>
      <trkpt lat="64.14156" lon="20.62881">
        <ele>131.280312</ele>
        <time>2020-09-29T09:48:05.489Z</time>
      </trkpt>
      <trkpt lat="64.14147" lon="20.62862">
        <ele>130.791617</ele>
        <time>2020-09-29T09:48:07.479Z</time>
      </trkpt>
      <trkpt lat="64.14137" lon="20.62842">
        <ele>130.302922</ele>
        <time>2020-09-29T09:48:09.471Z</time>
      </trkpt>
      <trkpt lat="64.14128" lon="20.62821">
        <ele>129.814671</ele>
        <time>2020-09-29T09:48:11.461Z</time>
      </trkpt>
      <trkpt lat="64.14118" lon="20.62802">
        <ele>129.339727</ele>
        <time>2020-09-29T09:48:13.507Z</time>
      </trkpt>
      <trkpt lat="64.14109" lon="20.62784">
        <ele>128.877828</ele>
        <time>2020-09-29T09:48:15.477Z</time>
      </trkpt>
      <trkpt lat="64.14101" lon="20.62765">
        <ele>128.543538</ele>
        <time>2020-09-29T09:48:17.475Z</time>
      </trkpt>
      <trkpt lat="64.14093" lon="20.62746">
        <ele>128.457222</ele>
        <time>2020-09-29T09:48:19.468Z</time>
      </trkpt>
      <trkpt lat="64.14086" lon="20.62726">
        <ele>128.371172</ele>
        <time>2020-09-29T09:48:21.484Z</time>
      </trkpt>
      <trkpt lat="64.14079" lon="20.62706">
        <ele>128.286052</ele>
        <time>2020-09-29T09:48:23.475Z</time>
      </trkpt>
      <trkpt lat="64.14073" lon="20.62685">
        <ele>128.200894</ele>
        <time>2020-09-29T09:48:25.463Z</time>
      </trkpt>
      <trkpt lat="64.14067" lon="20.62661">
        <ele>128.111734</ele>
        <time>2020-09-29T09:48:27.471Z</time>
      </trkpt>
      <trkpt lat="64.14062" lon="20.62637">
        <ele>128.022456</ele>
        <time>2020-09-29T09:48:29.486Z</time>
      </trkpt>
      <trkpt lat="64.14057" lon="20.62614">
        <ele>127.935957</ele>
        <time>2020-09-29T09:48:31.467Z</time>
      </trkpt>
      <trkpt lat="64.14051" lon="20.62592">
        <ele>127.852613</ele>
        <time>2020-09-29T09:48:33.476Z</time>
      </trkpt>
      <trkpt lat="64.14046" lon="20.6257">
        <ele>127.772388</ele>
        <time>2020-09-29T09:48:35.458Z</time>
      </trkpt>
      <trkpt lat="64.14042" lon="20.62549">
        <ele>127.694804</ele>
        <time>2020-09-29T09:48:37.483Z</time>
      </trkpt>
      <trkpt lat="64.14038" lon="20.62528">
        <ele>127.61623</ele>
        <time>2020-09-29T09:48:39.472Z</time>
      </trkpt>
      <trkpt lat="64.14034" lon="20.62506">
        <ele>127.538816</ele>
        <time>2020-09-29T09:48:41.466Z</time>
      </trkpt>
      <trkpt lat="64.1403" lon="20.62486">
        <ele>127.467807</ele>
        <time>2020-09-29T09:48:43.486Z</time>
      </trkpt>
      <trkpt lat="64.14027" lon="20.62467">
        <ele>127.398633</ele>
        <time>2020-09-29T09:48:45.488Z</time>
      </trkpt>
      <trkpt lat="64.14023" lon="20.62448">
        <ele>127.329772</ele>
        <time>2020-09-29T09:48:47.546Z</time>
      </trkpt>
      <trkpt lat="64.14019" lon="20.62421">
        <ele>127.235782</ele>
        <time>2020-09-29T09:48:50.458Z</time>
      </trkpt>
      <trkpt lat="64.14015" lon="20.62394">
        <ele>126.967123</ele>
        <time>2020-09-29T09:48:53.459Z</time>
      </trkpt>
      <trkpt lat="64.14011" lon="20.62373">
        <ele>126.69217</ele>
        <time>2020-09-29T09:48:55.468Z</time>
      </trkpt>
      <trkpt lat="64.14008" lon="20.62352">
        <ele>126.412757</ele>
        <time>2020-09-29T09:48:57.464Z</time>
      </trkpt>
      <trkpt lat="64.14004" lon="20.62332">
        <ele>126.137381</ele>
        <time>2020-09-29T09:48:59.461Z</time>
      </trkpt>
      <trkpt lat="64.14" lon="20.62309">
        <ele>125.83788</ele>
        <time>2020-09-29T09:49:01.499Z</time>
      </trkpt>
      <trkpt lat="64.13997" lon="20.62284">
        <ele>125.511964</ele>
        <time>2020-09-29T09:49:03.466Z</time>
      </trkpt>
      <trkpt lat="64.13995" lon="20.62258">
        <ele>125.180736</ele>
        <time>2020-09-29T09:49:05.466Z</time>
      </trkpt>
      <trkpt lat="64.13991" lon="20.62233">
        <ele>124.854487</ele>
        <time>2020-09-29T09:49:07.482Z</time>
      </trkpt>
      <trkpt lat="64.13988" lon="20.62208">
        <ele>124.534747</ele>
        <time>2020-09-29T09:49:09.506Z</time>
      </trkpt>
      <trkpt lat="64.13984" lon="20.62184">
        <ele>124.217809</ele>
        <time>2020-09-29T09:49:11.470Z</time>
      </trkpt>
      <trkpt lat="64.1398" lon="20.62161">
        <ele>123.90534</ele>
        <time>2020-09-29T09:49:13.470Z</time>
      </trkpt>
      <trkpt lat="64.13976" lon="20.62137">
        <ele>123.592067</ele>
        <time>2020-09-29T09:49:15.493Z</time>
      </trkpt>
      <trkpt lat="64.13972" lon="20.62113">
        <ele>123.268323</ele>
        <time>2020-09-29T09:49:17.489Z</time>
      </trkpt>
      <trkpt lat="64.13969" lon="20.6209">
        <ele>122.968312</ele>
        <time>2020-09-29T09:49:19.504Z</time>
      </trkpt>
      <trkpt lat="64.13966" lon="20.62068">
        <ele>122.686317</ele>
        <time>2020-09-29T09:49:21.476Z</time>
      </trkpt>
      <trkpt lat="64.13963" lon="20.62046">
        <ele>122.399874</ele>
        <time>2020-09-29T09:49:23.466Z</time>
      </trkpt>
      <trkpt lat="64.1396" lon="20.62025">
        <ele>122.127287</ele>
        <time>2020-09-29T09:49:25.465Z</time>
      </trkpt>
      <trkpt lat="64.13957" lon="20.62004">
        <ele>122.046857</ele>
        <time>2020-09-29T09:49:27.472Z</time>
      </trkpt>
      <trkpt lat="64.13954" lon="20.61982">
        <ele>122.001825</ele>
        <time>2020-09-29T09:49:29.520Z</time>
      </trkpt>
      <trkpt lat="64.13951" lon="20.6196">
        <ele>121.955129</ele>
        <time>2020-09-29T09:49:31.473Z</time>
      </trkpt>
      <trkpt lat="64.13948" lon="20.61937">
        <ele>121.907467</ele>
        <time>2020-09-29T09:49:33.457Z</time>
      </trkpt>
      <trkpt lat="64.13946" lon="20.61914">
        <ele>121.859959</ele>
        <time>2020-09-29T09:49:35.477Z</time>
      </trkpt>
      <trkpt lat="64.13944" lon="20.6189">
        <ele>121.811363</ele>
        <time>2020-09-29T09:49:37.479Z</time>
      </trkpt>
      <trkpt lat="64.13942" lon="20.61866">
        <ele>121.762385</ele>
        <time>2020-09-29T09:49:39.499Z</time>
      </trkpt>
      <trkpt lat="64.13941" lon="20.61842">
        <ele>121.713698</ele>
        <time>2020-09-29T09:49:41.474Z</time>
      </trkpt>
      <trkpt lat="64.13941" lon="20.61819">
        <ele>121.667837</ele>
        <time>2020-09-29T09:49:43.508Z</time>
      </trkpt>
      <trkpt lat="64.1394" lon="20.61797">
        <ele>121.623593</ele>
        <time>2020-09-29T09:49:45.470Z</time>
      </trkpt>
      <trkpt lat="64.1394" lon="20.61776">
        <ele>121.582162</ele>
        <time>2020-09-29T09:49:47.464Z</time>
      </trkpt>
      <trkpt lat="64.1394" lon="20.61748">
        <ele>121.526103</ele>
        <time>2020-09-29T09:49:50.480Z</time>
      </trkpt>
      <trkpt lat="64.13941" lon="20.61722">
        <ele>121.473077</ele>
        <time>2020-09-29T09:49:53.487Z</time>
      </trkpt>
      <trkpt lat="64.13943" lon="20.61697">
        <ele>121.423175</ele>
        <time>2020-09-29T09:49:56.468Z</time>
      </trkpt>
      <trkpt lat="64.13945" lon="20.61673">
        <ele>121.373606</ele>
        <time>2020-09-29T09:49:59.480Z</time>
      </trkpt>
      <trkpt lat="64.13948" lon="20.61647">
        <ele>121.321009</ele>
        <time>2020-09-29T09:50:02.455Z</time>
      </trkpt>
      <trkpt lat="64.13952" lon="20.6162">
        <ele>121.264705</ele>
        <time>2020-09-29T09:50:05.455Z</time>
      </trkpt>
      <trkpt lat="64.13955" lon="20.616">
        <ele>121.465245</ele>
        <time>2020-09-29T09:50:07.487Z</time>
      </trkpt>
      <trkpt lat="64.13958" lon="20.61578">
        <ele>121.710937</ele>
        <time>2020-09-29T09:50:09.468Z</time>
      </trkpt>
      <trkpt lat="64.13961" lon="20.61556">
        <ele>121.952007</ele>
        <time>2020-09-29T09:50:11.499Z</time>
      </trkpt>
      <trkpt lat="64.13964" lon="20.61535">
        <ele>122.191056</ele>
        <time>2020-09-29T09:50:13.462Z</time>
      </trkpt>
      <trkpt lat="64.13967" lon="20.61513">
        <ele>122.439124</ele>
        <time>2020-09-29T09:50:15.497Z</time>
      </trkpt>
      <trkpt lat="64.13969" lon="20.61491">
        <ele>122.681058</ele>
        <time>2020-09-29T09:50:17.483Z</time>
      </trkpt>
      <trkpt lat="64.13972" lon="20.61469">
        <ele>122.928199</ele>
        <time>2020-09-29T09:50:19.468Z</time>
      </trkpt>
      <trkpt lat="64.13975" lon="20.61447">
        <ele>123.164013</ele>
        <time>2020-09-29T09:50:21.498Z</time>
      </trkpt>
      <trkpt lat="64.13978" lon="20.61427">
        <ele>123.389978</ele>
        <time>2020-09-29T09:50:23.466Z</time>
      </trkpt>
      <trkpt lat="64.13981" lon="20.61407">
        <ele>123.616943</ele>
        <time>2020-09-29T09:50:25.470Z</time>
      </trkpt>
      <trkpt lat="64.13984" lon="20.61378">
        <ele>123.930675</ele>
        <time>2020-09-29T09:50:28.483Z</time>
      </trkpt>
      <trkpt lat="64.13986" lon="20.61359">
        <ele>124.149789</ele>
        <time>2020-09-29T09:50:30.461Z</time>
      </trkpt>
      <trkpt lat="64.13989" lon="20.61338">
        <ele>124.372983</ele>
        <time>2020-09-29T09:50:32.462Z</time>
      </trkpt>
      <trkpt lat="64.13993" lon="20.61311">
        <ele>124.677321</ele>
        <time>2020-09-29T09:50:35.469Z</time>
      </trkpt>
      <trkpt lat="64.13996" lon="20.61285">
        <ele>124.961848</ele>
        <time>2020-09-29T09:50:38.467Z</time>
      </trkpt>
      <trkpt lat="64.13998" lon="20.6126">
        <ele>125.234891</ele>
        <time>2020-09-29T09:50:41.471Z</time>
      </trkpt>
      <trkpt lat="64.14001" lon="20.61236">
        <ele>125.50483</ele>
        <time>2020-09-29T09:50:44.457Z</time>
      </trkpt>
      <trkpt lat="64.14003" lon="20.61211">
        <ele>125.810637</ele>
        <time>2020-09-29T09:50:47.489Z</time>
      </trkpt>
      <trkpt lat="64.14007" lon="20.61184">
        <ele>126.17986</ele>
        <time>2020-09-29T09:50:50.469Z</time>
      </trkpt>
      <trkpt lat="64.1401" lon="20.61158">
        <ele>126.539736</ele>
        <time>2020-09-29T09:50:53.465Z</time>
      </trkpt>
      <trkpt lat="64.14014" lon="20.61131">
        <ele>126.905771</ele>
        <time>2020-09-29T09:50:56.455Z</time>
      </trkpt>
      <trkpt lat="64.14017" lon="20.61107">
        <ele>127.247457</ele>
        <time>2020-09-29T09:50:59.483Z</time>
      </trkpt>
      <trkpt lat="64.1402" lon="20.61084">
        <ele>127.559197</ele>
        <time>2020-09-29T09:51:02.464Z</time>
      </trkpt>
      <trkpt lat="64.14023" lon="20.61063">
        <ele>127.854373</ele>
        <time>2020-09-29T09:51:05.474Z</time>
      </trkpt>
      <trkpt lat="64.14027" lon="20.61042">
        <ele>128.142762</ele>
        <time>2020-09-29T09:51:08.485Z</time>
      </trkpt>
      <trkpt lat="64.14029" lon="20.61016">
        <ele>128.497752</ele>
        <time>2020-09-29T09:51:12.504Z</time>
      </trkpt>
      <trkpt lat="64.14032" lon="20.60993">
        <ele>128.812792</ele>
        <time>2020-09-29T09:51:16.472Z</time>
      </trkpt>
      <trkpt lat="64.14035" lon="20.6097">
        <ele>129.131743</ele>
        <time>2020-09-29T09:51:20.477Z</time>
      </trkpt>
      <trkpt lat="64.14039" lon="20.60948">
        <ele>129.443481</ele>
        <time>2020-09-29T09:51:24.465Z</time>
      </trkpt>
      <trkpt lat="64.14041" lon="20.60925">
        <ele>129.759095</ele>
        <time>2020-09-29T09:51:28.472Z</time>
      </trkpt>
      <trkpt lat="64.14044" lon="20.60901">
        <ele>130.085607</ele>
        <time>2020-09-29T09:51:32.471Z</time>
      </trkpt>
      <trkpt lat="64.14047" lon="20.60878">
        <ele>130.407438</ele>
        <time>2020-09-29T09:51:36.471Z</time>
      </trkpt>
      <trkpt lat="64.14051" lon="20.60854">
        <ele>130.741037</ele>
        <time>2020-09-29T09:51:40.471Z</time>
      </trkpt>
      <trkpt lat="64.14054" lon="20.6083">
        <ele>131.07361</ele>
        <time>2020-09-29T09:51:44.487Z</time>
      </trkpt>
      <trkpt lat="64.14056" lon="20.60806">
        <ele>131.932482</ele>
        <time>2020-09-29T09:51:48.463Z</time>
      </trkpt>
      <trkpt lat="64.14058" lon="20.60782">
        <ele>132.799425</ele>
        <time>2020-09-29T09:51:52.490Z</time>
      </trkpt>
      <trkpt lat="64.14061" lon="20.60758">
        <ele>133.733595</ele>
        <time>2020-09-29T09:51:56.469Z</time>
      </trkpt>
      <trkpt lat="64.14063" lon="20.60734">
        <ele>134.626323</ele>
        <time>2020-09-29T09:52:00.469Z</time>
      </trkpt>
      <trkpt lat="64.14066" lon="20.60708">
        <ele>135.608018</ele>
        <time>2020-09-29T09:52:04.468Z</time>
      </trkpt>
      <trkpt lat="64.14069" lon="20.60688">
        <ele>136.387611</ele>
        <time>2020-09-29T09:52:07.466Z</time>
      </trkpt>
      <trkpt lat="64.14073" lon="20.60662">
        <ele>137.369723</ele>
        <time>2020-09-29T09:52:11.472Z</time>
      </trkpt>
      <trkpt lat="64.14075" lon="20.60638">
        <ele>138.274102</ele>
        <time>2020-09-29T09:52:15.486Z</time>
      </trkpt>
      <trkpt lat="64.14076" lon="20.60617">
        <ele>139.062543</ele>
        <time>2020-09-29T09:52:19.466Z</time>
      </trkpt>
      <trkpt lat="64.14079" lon="20.60594">
        <ele>139.913285</ele>
        <time>2020-09-29T09:52:23.468Z</time>
      </trkpt>
      <trkpt lat="64.14081" lon="20.6057">
        <ele>140.848839</ele>
        <time>2020-09-29T09:52:27.483Z</time>
      </trkpt>
      <trkpt lat="64.14082" lon="20.60547">
        <ele>141.6934</ele>
        <time>2020-09-29T09:52:31.459Z</time>
      </trkpt>
      <trkpt lat="64.14083" lon="20.60523">
        <ele>142.55897</ele>
        <time>2020-09-29T09:52:35.465Z</time>
      </trkpt>
      <trkpt lat="64.14085" lon="20.605">
        <ele>143.438262</ele>
        <time>2020-09-29T09:52:39.459Z</time>
      </trkpt>
      <trkpt lat="64.14085" lon="20.60475">
        <ele>144.344706</ele>
        <time>2020-09-29T09:52:43.466Z</time>
      </trkpt>
      <trkpt lat="64.14086" lon="20.60451">
        <ele>145.228819</ele>
        <time>2020-09-29T09:52:47.480Z</time>
      </trkpt>
      <trkpt lat="64.14085" lon="20.60425">
        <ele>146.163767</ele>
        <time>2020-09-29T09:52:51.472Z</time>
      </trkpt>
      <trkpt lat="64.14086" lon="20.604">
        <ele>146.565298</ele>
        <time>2020-09-29T09:52:55.503Z</time>
      </trkpt>
      <trkpt lat="64.14086" lon="20.60374">
        <ele>146.939842</ele>
        <time>2020-09-29T09:52:59.472Z</time>
      </trkpt>
      <trkpt lat="64.14085" lon="20.60353">
        <ele>147.24615</ele>
        <time>2020-09-29T09:53:02.484Z</time>
      </trkpt>
      <trkpt lat="64.14083" lon="20.60327">
        <ele>147.635429</ele>
        <time>2020-09-29T09:53:06.509Z</time>
      </trkpt>
      <trkpt lat="64.14082" lon="20.60303">
        <ele>147.987363</ele>
        <time>2020-09-29T09:53:10.474Z</time>
      </trkpt>
      <trkpt lat="64.14081" lon="20.60277">
        <ele>148.361527</ele>
        <time>2020-09-29T09:53:14.479Z</time>
      </trkpt>
      <trkpt lat="64.14079" lon="20.60252">
        <ele>148.725043</ele>
        <time>2020-09-29T09:53:18.471Z</time>
      </trkpt>
      <trkpt lat="64.14078" lon="20.60229">
        <ele>149.063954</ele>
        <time>2020-09-29T09:53:22.466Z</time>
      </trkpt>
      <trkpt lat="64.14077" lon="20.60206">
        <ele>149.400376</ele>
        <time>2020-09-29T09:53:26.488Z</time>
      </trkpt>
      <trkpt lat="64.14077" lon="20.60183">
        <ele>149.742802</ele>
        <time>2020-09-29T09:53:30.460Z</time>
      </trkpt>
      <trkpt lat="64.14077" lon="20.60159">
        <ele>150.092447</ele>
        <time>2020-09-29T09:53:34.499Z</time>
      </trkpt>
      <trkpt lat="64.14075" lon="20.60134">
        <ele>150.454404</ele>
        <time>2020-09-29T09:53:38.486Z</time>
      </trkpt>
      <trkpt lat="64.14074" lon="20.60107">
        <ele>150.849078</ele>
        <time>2020-09-29T09:53:42.481Z</time>
      </trkpt>
      <trkpt lat="64.14072" lon="20.60083">
        <ele>151.215606</ele>
        <time>2020-09-29T09:53:46.471Z</time>
      </trkpt>
      <trkpt lat="64.1407" lon="20.60057">
        <ele>151.591482</ele>
        <time>2020-09-29T09:53:50.468Z</time>
      </trkpt>
      <trkpt lat="64.14069" lon="20.60032">
        <ele>151.957241</ele>
        <time>2020-09-29T09:53:54.489Z</time>
      </trkpt>
      <trkpt lat="64.14067" lon="20.60009">
        <ele>152.14661</ele>
        <time>2020-09-29T09:53:58.468Z</time>
      </trkpt>
      <trkpt lat="64.14067" lon="20.59986">
        <ele>151.828722</ele>
        <time>2020-09-29T09:54:02.464Z</time>
      </trkpt>
      <trkpt lat="64.14066" lon="20.59962">
        <ele>151.500857</ele>
        <time>2020-09-29T09:54:06.463Z</time>
      </trkpt>
      <trkpt lat="64.14065" lon="20.59938">
        <ele>151.173711</ele>
        <time>2020-09-29T09:54:10.468Z</time>
      </trkpt>
      <trkpt lat="64.14064" lon="20.59912">
        <ele>150.821859</ele>
        <time>2020-09-29T09:54:15.487Z</time>
      </trkpt>
      <trkpt lat="64.14063" lon="20.59892">
        <ele>150.537541</ele>
        <time>2020-09-29T09:54:19.490Z</time>
      </trkpt>
      <trkpt lat="64.14061" lon="20.59866">
        <ele>150.186949</ele>
        <time>2020-09-29T09:54:24.468Z</time>
      </trkpt>
      <trkpt lat="64.1406" lon="20.59842">
        <ele>149.853096</ele>
        <time>2020-09-29T09:54:28.475Z</time>
      </trkpt>
      <trkpt lat="64.14059" lon="20.59819">
        <ele>149.530033</ele>
        <time>2020-09-29T09:54:32.463Z</time>
      </trkpt>
      <trkpt lat="64.14059" lon="20.59792">
        <ele>149.171654</ele>
        <time>2020-09-29T09:54:36.484Z</time>
      </trkpt>
      <trkpt lat="64.14058" lon="20.59766">
        <ele>148.814355</ele>
        <time>2020-09-29T09:54:40.455Z</time>
      </trkpt>
      <trkpt lat="64.14057" lon="20.59746">
        <ele>148.530539</ele>
        <time>2020-09-29T09:54:43.472Z</time>
      </trkpt>
      <trkpt lat="64.14056" lon="20.59724">
        <ele>148.224488</ele>
        <time>2020-09-29T09:54:46.484Z</time>
      </trkpt>
      <trkpt lat="64.14055" lon="20.597">
        <ele>147.903868</ele>
        <time>2020-09-29T09:54:49.488Z</time>
      </trkpt>
      <trkpt lat="64.14054" lon="20.59674">
        <ele>147.543261</ele>
        <time>2020-09-29T09:54:52.473Z</time>
      </trkpt>
      <trkpt lat="64.14053" lon="20.59646">
        <ele>147.162191</ele>
        <time>2020-09-29T09:54:55.463Z</time>
      </trkpt>
      <trkpt lat="64.14051" lon="20.59617">
        <ele>146.759793</ele>
        <time>2020-09-29T09:54:58.476Z</time>
      </trkpt>
      <trkpt lat="64.14049" lon="20.59588">
        <ele>146.562222</ele>
        <time>2020-09-29T09:55:01.471Z</time>
      </trkpt>
      <trkpt lat="64.14047" lon="20.59561">
        <ele>146.526521</ele>
        <time>2020-09-29T09:55:04.471Z</time>
      </trkpt>
      <trkpt lat="64.14045" lon="20.59532">
        <ele>146.489835</ele>
        <time>2020-09-29T09:55:07.458Z</time>
      </trkpt>
      <trkpt lat="64.14043" lon="20.59503">
        <ele>146.452925</ele>
        <time>2020-09-29T09:55:10.465Z</time>
      </trkpt>
      <trkpt lat="64.14041" lon="20.59474">
        <ele>146.415366</ele>
        <time>2020-09-29T09:55:13.478Z</time>
      </trkpt>
      <trkpt lat="64.14038" lon="20.59446">
        <ele>146.378943</ele>
        <time>2020-09-29T09:55:16.464Z</time>
      </trkpt>
      <trkpt lat="64.14036" lon="20.5942">
        <ele>146.34457</ele>
        <time>2020-09-29T09:55:19.475Z</time>
      </trkpt>
      <trkpt lat="64.14033" lon="20.59393">
        <ele>146.30945</ele>
        <time>2020-09-29T09:55:22.494Z</time>
      </trkpt>
      <trkpt lat="64.14031" lon="20.59366">
        <ele>146.275264</ele>
        <time>2020-09-29T09:55:25.507Z</time>
      </trkpt>
      <trkpt lat="64.14029" lon="20.59339">
        <ele>146.240144</ele>
        <time>2020-09-29T09:55:28.506Z</time>
      </trkpt>
      <trkpt lat="64.14026" lon="20.59313">
        <ele>146.206131</ele>
        <time>2020-09-29T09:55:31.463Z</time>
      </trkpt>
      <trkpt lat="64.14023" lon="20.59289">
        <ele>146.174488</ele>
        <time>2020-09-29T09:55:34.477Z</time>
      </trkpt>
      <trkpt lat="64.14021" lon="20.59265">
        <ele>146.143776</ele>
        <time>2020-09-29T09:55:37.467Z</time>
      </trkpt>
      <trkpt lat="64.14018" lon="20.59244">
        <ele>146.115645</ele>
        <time>2020-09-29T09:55:40.503Z</time>
      </trkpt>
      <trkpt lat="64.14013" lon="20.5922">
        <ele>146.081885</ele>
        <time>2020-09-29T09:55:44.474Z</time>
      </trkpt>
      <trkpt lat="64.14009" lon="20.59199">
        <ele>146.319113</ele>
        <time>2020-09-29T09:55:48.470Z</time>
      </trkpt>
      <trkpt lat="64.14005" lon="20.59179">
        <ele>147.381609</ele>
        <time>2020-09-29T09:55:52.464Z</time>
      </trkpt>
      <trkpt lat="64.14001" lon="20.59155">
        <ele>148.620598</ele>
        <time>2020-09-29T09:55:57.484Z</time>
      </trkpt>
      <trkpt lat="64.13998" lon="20.59136">
        <ele>149.634708</ele>
        <time>2020-09-29T09:56:01.484Z</time>
      </trkpt>
      <trkpt lat="64.13994" lon="20.59113">
        <ele>150.85032</ele>
        <time>2020-09-29T09:56:06.478Z</time>
      </trkpt>
      <trkpt lat="64.1399" lon="20.59092">
        <ele>152.025668</ele>
        <time>2020-09-29T09:56:11.467Z</time>
      </trkpt>
      <trkpt lat="64.13985" lon="20.59072">
        <ele>153.120839</ele>
        <time>2020-09-29T09:56:16.481Z</time>
      </trkpt>
      <trkpt lat="64.13981" lon="20.5905">
        <ele>154.291487</ele>
        <time>2020-09-29T09:56:21.491Z</time>
      </trkpt>
      <trkpt lat="64.13977" lon="20.59028">
        <ele>155.445</ele>
        <time>2020-09-29T09:56:26.456Z</time>
      </trkpt>
      <trkpt lat="64.13973" lon="20.59006">
        <ele>156.624602</ele>
        <time>2020-09-29T09:56:31.511Z</time>
      </trkpt>
      <trkpt lat="64.13968" lon="20.58984">
        <ele>157.849909</ele>
        <time>2020-09-29T09:56:36.484Z</time>
      </trkpt>
      <trkpt lat="64.13964" lon="20.58961">
        <ele>159.047579</ele>
        <time>2020-09-29T09:56:41.472Z</time>
      </trkpt>
      <trkpt lat="64.1396" lon="20.58941">
        <ele>160.14166</ele>
        <time>2020-09-29T09:56:46.494Z</time>
      </trkpt>
      <trkpt lat="64.13956" lon="20.58918">
        <ele>161.375689</ele>
        <time>2020-09-29T09:56:51.466Z</time>
      </trkpt>
      <trkpt lat="64.13951" lon="20.58896">
        <ele>162.583313</ele>
        <time>2020-09-29T09:56:56.472Z</time>
      </trkpt>
      <trkpt lat="64.13946" lon="20.58874">
        <ele>163.795094</ele>
        <time>2020-09-29T09:57:01.471Z</time>
      </trkpt>
      <trkpt lat="64.13942" lon="20.58855">
        <ele>164.837739</ele>
        <time>2020-09-29T09:57:05.471Z</time>
      </trkpt>
      <trkpt lat="64.13937" lon="20.58837">
        <ele>165.898355</ele>
        <time>2020-09-29T09:57:09.472Z</time>
      </trkpt>
      <trkpt lat="64.13933" lon="20.58816">
        <ele>166.384015</ele>
        <time>2020-09-29T09:57:13.488Z</time>
      </trkpt>
      <trkpt lat="64.13929" lon="20.58795">
        <ele>166.494725</ele>
        <time>2020-09-29T09:57:17.481Z</time>
      </trkpt>
      <trkpt lat="64.13924" lon="20.58775">
        <ele>166.60921</ele>
        <time>2020-09-29T09:57:21.505Z</time>
      </trkpt>
      <trkpt lat="64.13919" lon="20.58752">
        <ele>166.732654</ele>
        <time>2020-09-29T09:57:26.498Z</time>
      </trkpt>
      <trkpt lat="64.13916" lon="20.58732">
        <ele>166.839394</ele>
        <time>2020-09-29T09:57:30.532Z</time>
      </trkpt>
      <trkpt lat="64.13911" lon="20.58709">
        <ele>166.960808</ele>
        <time>2020-09-29T09:57:35.480Z</time>
      </trkpt>
      <trkpt lat="64.13907" lon="20.5869">
        <ele>167.062938</ele>
        <time>2020-09-29T09:57:39.472Z</time>
      </trkpt>
      <trkpt lat="64.13903" lon="20.58672">
        <ele>167.169243</ele>
        <time>2020-09-29T09:57:43.491Z</time>
      </trkpt>
      <trkpt lat="64.13899" lon="20.58652">
        <ele>167.276718</ele>
        <time>2020-09-29T09:57:47.472Z</time>
      </trkpt>
      <trkpt lat="64.13895" lon="20.5863">
        <ele>167.390487</ele>
        <time>2020-09-29T09:57:51.486Z</time>
      </trkpt>
      <trkpt lat="64.1389" lon="20.58607">
        <ele>167.515498</ele>
        <time>2020-09-29T09:57:55.487Z</time>
      </trkpt>
      <trkpt lat="64.13886" lon="20.58583">
        <ele>167.64214</ele>
        <time>2020-09-29T09:57:59.475Z</time>
      </trkpt>
      <trkpt lat="64.13882" lon="20.58561">
        <ele>167.755909</ele>
        <time>2020-09-29T09:58:03.493Z</time>
      </trkpt>
      <trkpt lat="64.13878" lon="20.58537">
        <ele>167.887671</ele>
        <time>2020-09-29T09:58:07.476Z</time>
      </trkpt>
      <trkpt lat="64.13873" lon="20.58513">
        <ele>168.017268</ele>
        <time>2020-09-29T09:58:11.472Z</time>
      </trkpt>
      <trkpt lat="64.13867" lon="20.58489">
        <ele>168.150554</ele>
        <time>2020-09-29T09:58:15.471Z</time>
      </trkpt>
      <trkpt lat="64.13863" lon="20.58464">
        <ele>168.282355</ele>
        <time>2020-09-29T09:58:19.475Z</time>
      </trkpt>
      <trkpt lat="64.13859" lon="20.58445">
        <ele>168.32984</ele>
        <time>2020-09-29T09:58:22.483Z</time>
      </trkpt>
      <trkpt lat="64.13854" lon="20.5842">
        <ele>168.314211</ele>
        <time>2020-09-29T09:58:26.484Z</time>
      </trkpt>
      <trkpt lat="64.13851" lon="20.58395">
        <ele>168.298976</ele>
        <time>2020-09-29T09:58:30.483Z</time>
      </trkpt>
      <trkpt lat="64.13846" lon="20.58373">
        <ele>168.284834</ele>
        <time>2020-09-29T09:58:34.504Z</time>
      </trkpt>
      <trkpt lat="64.13842" lon="20.58348">
        <ele>168.26947</ele>
        <time>2020-09-29T09:58:38.503Z</time>
      </trkpt>
      <trkpt lat="64.13836" lon="20.58324">
        <ele>168.253334</ele>
        <time>2020-09-29T09:58:42.477Z</time>
      </trkpt>
      <trkpt lat="64.13832" lon="20.58303">
        <ele>168.240187</ele>
        <time>2020-09-29T09:58:45.483Z</time>
      </trkpt>
      <trkpt lat="64.13827" lon="20.5828">
        <ele>168.225409</ele>
        <time>2020-09-29T09:58:48.484Z</time>
      </trkpt>
      <trkpt lat="64.13823" lon="20.58259">
        <ele>168.211901</ele>
        <time>2020-09-29T09:58:51.484Z</time>
      </trkpt>
      <trkpt lat="64.13819" lon="20.58237">
        <ele>168.198182</ele>
        <time>2020-09-29T09:58:54.500Z</time>
      </trkpt>
      <trkpt lat="64.13814" lon="20.58212">
        <ele>168.182333</ele>
        <time>2020-09-29T09:58:57.506Z</time>
      </trkpt>
      <trkpt lat="64.13809" lon="20.58188">
        <ele>168.166861</ele>
        <time>2020-09-29T09:59:00.492Z</time>
      </trkpt>
      <trkpt lat="64.13804" lon="20.58164">
        <ele>168.151259</ele>
        <time>2020-09-29T09:59:03.482Z</time>
      </trkpt>
      <trkpt lat="64.13799" lon="20.58139">
        <ele>168.13563</ele>
        <time>2020-09-29T09:59:06.512Z</time>
      </trkpt>
      <trkpt lat="64.13794" lon="20.58112">
        <ele>168.118245</ele>
        <time>2020-09-29T09:59:09.489Z</time>
      </trkpt>
      <trkpt lat="64.13789" lon="20.58083">
        <ele>168.100477</ele>
        <time>2020-09-29T09:59:12.483Z</time>
      </trkpt>
      <trkpt lat="64.13784" lon="20.58055">
        <ele>167.821692</ele>
        <time>2020-09-29T09:59:15.481Z</time>
      </trkpt>
      <trkpt lat="64.13781" lon="20.58035">
        <ele>167.579286</ele>
        <time>2020-09-29T09:59:17.494Z</time>
      </trkpt>
      <trkpt lat="64.13777" lon="20.58016">
        <ele>167.336941</ele>
        <time>2020-09-29T09:59:19.480Z</time>
      </trkpt>
      <trkpt lat="64.13772" lon="20.57988">
        <ele>166.990729</ele>
        <time>2020-09-29T09:59:22.483Z</time>
      </trkpt>
      <trkpt lat="64.13766" lon="20.57962">
        <ele>166.658838</ele>
        <time>2020-09-29T09:59:25.498Z</time>
      </trkpt>
      <trkpt lat="64.13761" lon="20.57937">
        <ele>166.336713</ele>
        <time>2020-09-29T09:59:28.484Z</time>
      </trkpt>
      <trkpt lat="64.13756" lon="20.57911">
        <ele>166.006077</ele>
        <time>2020-09-29T09:59:31.494Z</time>
      </trkpt>
      <trkpt lat="64.1375" lon="20.57885">
        <ele>165.675692</ele>
        <time>2020-09-29T09:59:34.486Z</time>
      </trkpt>
      <trkpt lat="64.13746" lon="20.57866">
        <ele>165.439622</ele>
        <time>2020-09-29T09:59:36.472Z</time>
      </trkpt>
      <trkpt lat="64.13741" lon="20.57839">
        <ele>165.093412</ele>
        <time>2020-09-29T09:59:39.481Z</time>
      </trkpt>
      <trkpt lat="64.13736" lon="20.57812">
        <ele>164.762937</ele>
        <time>2020-09-29T09:59:42.486Z</time>
      </trkpt>
      <trkpt lat="64.13732" lon="20.57793">
        <ele>164.524736</ele>
        <time>2020-09-29T09:59:44.504Z</time>
      </trkpt>
      <trkpt lat="64.13728" lon="20.57775">
        <ele>164.286566</ele>
        <time>2020-09-29T09:59:46.478Z</time>
      </trkpt>
      <trkpt lat="64.13721" lon="20.57748">
        <ele>163.943606</ele>
        <time>2020-09-29T09:59:49.484Z</time>
      </trkpt>
      <trkpt lat="64.13716" lon="20.57721">
        <ele>163.601491</ele>
        <time>2020-09-29T09:59:52.486Z</time>
      </trkpt>
      <trkpt lat="64.13711" lon="20.57694">
        <ele>163.277102</ele>
        <time>2020-09-29T09:59:55.498Z</time>
      </trkpt>
      <trkpt lat="64.13705" lon="20.57667">
        <ele>162.988166</ele>
        <time>2020-09-29T09:59:58.466Z</time>
      </trkpt>
      <trkpt lat="64.137" lon="20.57641">
        <ele>162.711602</ele>
        <time>2020-09-29T10:00:01.480Z</time>
      </trkpt>
      <trkpt lat="64.13695" lon="20.57615">
        <ele>162.42624</ele>
        <time>2020-09-29T10:00:04.494Z</time>
      </trkpt>
      <trkpt lat="64.13691" lon="20.57595">
        <ele>162.219139</ele>
        <time>2020-09-29T10:00:06.484Z</time>
      </trkpt>
      <trkpt lat="64.13687" lon="20.57575">
        <ele>162.004146</ele>
        <time>2020-09-29T10:00:08.483Z</time>
      </trkpt>
      <trkpt lat="64.13682" lon="20.57556">
        <ele>161.787959</ele>
        <time>2020-09-29T10:00:10.472Z</time>
      </trkpt>
      <trkpt lat="64.13678" lon="20.57534">
        <ele>161.559659</ele>
        <time>2020-09-29T10:00:12.527Z</time>
      </trkpt>
      <trkpt lat="64.13674" lon="20.57514">
        <ele>161.33748</ele>
        <time>2020-09-29T10:00:14.491Z</time>
      </trkpt>
      <trkpt lat="64.1367" lon="20.57494">
        <ele>161.126002</ele>
        <time>2020-09-29T10:00:16.520Z</time>
      </trkpt>
      <trkpt lat="64.13665" lon="20.57474">
        <ele>160.912677</ele>
        <time>2020-09-29T10:00:18.494Z</time>
      </trkpt>
      <trkpt lat="64.13662" lon="20.57453">
        <ele>160.694064</ele>
        <time>2020-09-29T10:00:20.495Z</time>
      </trkpt>
      <trkpt lat="64.13657" lon="20.57433">
        <ele>160.468287</ele>
        <time>2020-09-29T10:00:22.471Z</time>
      </trkpt>
      <trkpt lat="64.13653" lon="20.57413">
        <ele>160.25593</ele>
        <time>2020-09-29T10:00:24.510Z</time>
      </trkpt>
      <trkpt lat="64.13649" lon="20.57393">
        <ele>160.047166</ele>
        <time>2020-09-29T10:00:26.494Z</time>
      </trkpt>
      <trkpt lat="64.13645" lon="20.57373">
        <ele>159.830409</ele>
        <time>2020-09-29T10:00:28.490Z</time>
      </trkpt>
      <trkpt lat="64.13641" lon="20.57355">
        <ele>159.626789</ele>
        <time>2020-09-29T10:00:30.479Z</time>
      </trkpt>
      <trkpt lat="64.13635" lon="20.57327">
        <ele>159.388817</ele>
        <time>2020-09-29T10:00:33.463Z</time>
      </trkpt>
      <trkpt lat="64.1363" lon="20.57299">
        <ele>159.566435</ele>
        <time>2020-09-29T10:00:36.478Z</time>
      </trkpt>
      <trkpt lat="64.13626" lon="20.5728">
        <ele>159.686997</ele>
        <time>2020-09-29T10:00:38.483Z</time>
      </trkpt>
      <trkpt lat="64.1362" lon="20.57252">
        <ele>159.863539</ele>
        <time>2020-09-29T10:00:41.495Z</time>
      </trkpt>
      <trkpt lat="64.13616" lon="20.57233">
        <ele>159.983287</ele>
        <time>2020-09-29T10:00:43.488Z</time>
      </trkpt>
      <trkpt lat="64.13612" lon="20.57215">
        <ele>160.102287</ele>
        <time>2020-09-29T10:00:45.472Z</time>
      </trkpt>
      <trkpt lat="64.13609" lon="20.57196">
        <ele>160.220692</ele>
        <time>2020-09-29T10:00:47.467Z</time>
      </trkpt>
      <trkpt lat="64.13605" lon="20.57177">
        <ele>160.340148</ele>
        <time>2020-09-29T10:00:49.490Z</time>
      </trkpt>
      <trkpt lat="64.13599" lon="20.5715">
        <ele>160.511501</ele>
        <time>2020-09-29T10:00:52.487Z</time>
      </trkpt>
      <trkpt lat="64.13596" lon="20.57131">
        <ele>160.632553</ele>
        <time>2020-09-29T10:00:54.480Z</time>
      </trkpt>
      <trkpt lat="64.13592" lon="20.57113">
        <ele>160.752074</ele>
        <time>2020-09-29T10:00:56.501Z</time>
      </trkpt>
      <trkpt lat="64.13588" lon="20.57094">
        <ele>160.870509</ele>
        <time>2020-09-29T10:00:58.483Z</time>
      </trkpt>
      <trkpt lat="64.13584" lon="20.57075">
        <ele>160.98944</ele>
        <time>2020-09-29T10:01:00.489Z</time>
      </trkpt>
      <trkpt lat="64.13581" lon="20.57056">
        <ele>161.107862</ele>
        <time>2020-09-29T10:01:02.485Z</time>
      </trkpt>
      <trkpt lat="64.13577" lon="20.57037">
        <ele>161.228956</ele>
        <time>2020-09-29T10:01:04.471Z</time>
      </trkpt>
      <trkpt lat="64.13572" lon="20.57009">
        <ele>161.40179</ele>
        <time>2020-09-29T10:01:07.527Z</time>
      </trkpt>
      <trkpt lat="64.13567" lon="20.56986">
        <ele>161.551684</ele>
        <time>2020-09-29T10:01:10.475Z</time>
      </trkpt>
      <trkpt lat="64.13562" lon="20.56961">
        <ele>161.713446</ele>
        <time>2020-09-29T10:01:13.549Z</time>
      </trkpt>
      <trkpt lat="64.13556" lon="20.56935">
        <ele>161.648249</ele>
        <time>2020-09-29T10:01:16.482Z</time>
      </trkpt>
      <trkpt lat="64.1355" lon="20.56907">
        <ele>161.529846</ele>
        <time>2020-09-29T10:01:19.474Z</time>
      </trkpt>
      <trkpt lat="64.13544" lon="20.56883">
        <ele>161.416822</ele>
        <time>2020-09-29T10:01:22.479Z</time>
      </trkpt>
      <trkpt lat="64.13537" lon="20.5686">
        <ele>161.30949</ele>
        <time>2020-09-29T10:01:25.484Z</time>
      </trkpt>
      <trkpt lat="64.1353" lon="20.56834">
        <ele>161.190477</ele>
        <time>2020-09-29T10:01:28.503Z</time>
      </trkpt>
      <trkpt lat="64.13526" lon="20.56815">
        <ele>161.106019</ele>
        <time>2020-09-29T10:01:30.479Z</time>
      </trkpt>
      <trkpt lat="64.13521" lon="20.56795">
        <ele>161.020179</ele>
        <time>2020-09-29T10:01:32.520Z</time>
      </trkpt>
      <trkpt lat="64.13517" lon="20.56776">
        <ele>160.9333</ele>
        <time>2020-09-29T10:01:34.494Z</time>
      </trkpt>
      <trkpt lat="64.13512" lon="20.56756">
        <ele>160.845913</ele>
        <time>2020-09-29T10:01:36.483Z</time>
      </trkpt>
      <trkpt lat="64.13508" lon="20.56736">
        <ele>160.756458</ele>
        <time>2020-09-29T10:01:38.468Z</time>
      </trkpt>
      <trkpt lat="64.13503" lon="20.56718">
        <ele>160.67429</ele>
        <time>2020-09-29T10:01:40.486Z</time>
      </trkpt>
      <trkpt lat="64.13498" lon="20.567">
        <ele>160.588951</ele>
        <time>2020-09-29T10:01:42.498Z</time>
      </trkpt>
      <trkpt lat="64.1349" lon="20.56675">
        <ele>160.469614</ele>
        <time>2020-09-29T10:01:45.513Z</time>
      </trkpt>
      <trkpt lat="64.13484" lon="20.5665">
        <ele>160.354857</ele>
        <time>2020-09-29T10:01:48.503Z</time>
      </trkpt>
      <trkpt lat="64.13477" lon="20.56626">
        <ele>160.242575</ele>
        <time>2020-09-29T10:01:51.498Z</time>
      </trkpt>
      <trkpt lat="64.13471" lon="20.56598">
        <ele>160.100137</ele>
        <time>2020-09-29T10:01:54.519Z</time>
      </trkpt>
      <trkpt lat="64.13466" lon="20.5658">
        <ele>159.516295</ele>
        <time>2020-09-29T10:01:56.495Z</time>
      </trkpt>
      <trkpt lat="64.13459" lon="20.56555">
        <ele>158.694022</ele>
        <time>2020-09-29T10:01:59.479Z</time>
      </trkpt>
      <trkpt lat="64.13452" lon="20.5653">
        <ele>157.875119</ele>
        <time>2020-09-29T10:02:02.481Z</time>
      </trkpt>
      <trkpt lat="64.13446" lon="20.56505">
        <ele>157.070159</ele>
        <time>2020-09-29T10:02:05.480Z</time>
      </trkpt>
      <trkpt lat="64.13439" lon="20.56479">
        <ele>156.241378</ele>
        <time>2020-09-29T10:02:08.507Z</time>
      </trkpt>
      <trkpt lat="64.13434" lon="20.56462">
        <ele>155.673509</ele>
        <time>2020-09-29T10:02:10.487Z</time>
      </trkpt>
      <trkpt lat="64.13429" lon="20.56444">
        <ele>155.084853</ele>
        <time>2020-09-29T10:02:12.525Z</time>
      </trkpt>
      <trkpt lat="64.13424" lon="20.56425">
        <ele>154.477974</ele>
        <time>2020-09-29T10:02:14.498Z</time>
      </trkpt>
      <trkpt lat="64.13418" lon="20.56403">
        <ele>153.787966</ele>
        <time>2020-09-29T10:02:16.484Z</time>
      </trkpt>
      <trkpt lat="64.13413" lon="20.56383">
        <ele>153.151107</ele>
        <time>2020-09-29T10:02:18.515Z</time>
      </trkpt>
      <trkpt lat="64.13407" lon="20.5636">
        <ele>152.402254</ele>
        <time>2020-09-29T10:02:21.489Z</time>
      </trkpt>
      <trkpt lat="64.13401" lon="20.56343">
        <ele>151.789998</ele>
        <time>2020-09-29T10:02:24.488Z</time>
      </trkpt>
      <trkpt lat="64.13394" lon="20.56328">
        <ele>151.188211</ele>
        <time>2020-09-29T10:02:29.477Z</time>
      </trkpt>
      <trkpt lat="64.13387" lon="20.563">
        <ele>150.29203</ele>
        <time>2020-09-29T10:30:59.797Z</time>
      </trkpt>
      <trkpt lat="64.13385" lon="20.56277">
        <ele>149.656398</ele>
        <time>2020-09-29T10:31:04.780Z</time>
      </trkpt>
      <trkpt lat="64.13381" lon="20.56254">
        <ele>148.960049</ele>
        <time>2020-09-29T10:31:08.776Z</time>
      </trkpt>
      <trkpt lat="64.13378" lon="20.56233">
        <ele>148.454552</ele>
        <time>2020-09-29T10:31:11.778Z</time>
      </trkpt>
      <trkpt lat="64.13375" lon="20.56213">
        <ele>147.986593</ele>
        <time>2020-09-29T10:31:14.753Z</time>
      </trkpt>
      <trkpt lat="64.13371" lon="20.56191">
        <ele>147.484684</ele>
        <time>2020-09-29T10:31:17.751Z</time>
      </trkpt>
      <trkpt lat="64.13367" lon="20.56168">
        <ele>146.969373</ele>
        <time>2020-09-29T10:31:20.759Z</time>
      </trkpt>
      <trkpt lat="64.13363" lon="20.56144">
        <ele>146.424898</ele>
        <time>2020-09-29T10:31:23.763Z</time>
      </trkpt>
      <trkpt lat="64.13359" lon="20.5612">
        <ele>145.878644</ele>
        <time>2020-09-29T10:31:26.754Z</time>
      </trkpt>
      <trkpt lat="64.13355" lon="20.56095">
        <ele>145.302982</ele>
        <time>2020-09-29T10:31:29.801Z</time>
      </trkpt>
      <trkpt lat="64.13351" lon="20.56073">
        <ele>144.786133</ele>
        <time>2020-09-29T10:31:32.796Z</time>
      </trkpt>
      <trkpt lat="64.13347" lon="20.5605">
        <ele>144.27306</ele>
        <time>2020-09-29T10:31:35.754Z</time>
      </trkpt>
      <trkpt lat="64.13343" lon="20.56026">
        <ele>143.714612</ele>
        <time>2020-09-29T10:31:38.779Z</time>
      </trkpt>
      <trkpt lat="64.13339" lon="20.56002">
        <ele>143.167555</ele>
        <time>2020-09-29T10:31:41.778Z</time>
      </trkpt>
      <trkpt lat="64.13335" lon="20.55979">
        <ele>142.638977</ele>
        <time>2020-09-29T10:31:44.751Z</time>
      </trkpt>
      <trkpt lat="64.13331" lon="20.55955">
        <ele>142.092719</ele>
        <time>2020-09-29T10:31:47.762Z</time>
      </trkpt>
      <trkpt lat="64.13327" lon="20.55929">
        <ele>141.499835</ele>
        <time>2020-09-29T10:31:50.758Z</time>
      </trkpt>
      <trkpt lat="64.13322" lon="20.55904">
        <ele>140.912802</ele>
        <time>2020-09-29T10:31:53.795Z</time>
      </trkpt>
      <trkpt lat="64.13317" lon="20.55878">
        <ele>140.310124</ele>
        <time>2020-09-29T10:31:56.751Z</time>
      </trkpt>
      <trkpt lat="64.13312" lon="20.55852">
        <ele>139.919202</ele>
        <time>2020-09-29T10:31:59.774Z</time>
      </trkpt>
      <trkpt lat="64.13308" lon="20.55826">
        <ele>139.786717</ele>
        <time>2020-09-29T10:32:02.805Z</time>
      </trkpt>
      <trkpt lat="64.13303" lon="20.558">
        <ele>139.658037</ele>
        <time>2020-09-29T10:32:05.792Z</time>
      </trkpt>
      <trkpt lat="64.13299" lon="20.55775">
        <ele>139.534933</ele>
        <time>2020-09-29T10:32:08.785Z</time>
      </trkpt>
      <trkpt lat="64.13294" lon="20.55752">
        <ele>139.414866</ele>
        <time>2020-09-29T10:32:11.790Z</time>
      </trkpt>
      <trkpt lat="64.1329" lon="20.55729">
        <ele>139.298204</ele>
        <time>2020-09-29T10:32:14.766Z</time>
      </trkpt>
      <trkpt lat="64.13286" lon="20.55704">
        <ele>139.173863</ele>
        <time>2020-09-29T10:32:17.774Z</time>
      </trkpt>
      <trkpt lat="64.13281" lon="20.55679">
        <ele>139.047375</ele>
        <time>2020-09-29T10:32:20.776Z</time>
      </trkpt>
      <trkpt lat="64.13276" lon="20.55654">
        <ele>138.918353</ele>
        <time>2020-09-29T10:32:23.806Z</time>
      </trkpt>
      <trkpt lat="64.1327" lon="20.55627">
        <ele>138.779078</ele>
        <time>2020-09-29T10:32:26.783Z</time>
      </trkpt>
      <trkpt lat="64.13265" lon="20.55609">
        <ele>138.681476</ele>
        <time>2020-09-29T10:32:28.788Z</time>
      </trkpt>
      <trkpt lat="64.1326" lon="20.55592">
        <ele>138.585078</ele>
        <time>2020-09-29T10:32:30.776Z</time>
      </trkpt>
      <trkpt lat="64.13255" lon="20.55575">
        <ele>138.486879</ele>
        <time>2020-09-29T10:32:32.763Z</time>
      </trkpt>
      <trkpt lat="64.13249" lon="20.55557">
        <ele>138.386811</ele>
        <time>2020-09-29T10:32:34.778Z</time>
      </trkpt>
      <trkpt lat="64.13241" lon="20.55533">
        <ele>138.244243</ele>
        <time>2020-09-29T10:32:37.767Z</time>
      </trkpt>
      <trkpt lat="64.13235" lon="20.55517">
        <ele>138.14514</ele>
        <time>2020-09-29T10:32:39.773Z</time>
      </trkpt>
      <trkpt lat="64.13228" lon="20.55501">
        <ele>138.074912</ele>
        <time>2020-09-29T10:32:41.786Z</time>
      </trkpt>
      <trkpt lat="64.13219" lon="20.55482">
        <ele>138.17597</ele>
        <time>2020-09-29T10:32:44.770Z</time>
      </trkpt>
      <trkpt lat="64.13213" lon="20.55465">
        <ele>138.258399</ele>
        <time>2020-09-29T10:32:48.816Z</time>
      </trkpt>
      <trkpt lat="64.13197" lon="20.55433">
        <ele>138.431746</ele>
        <time>2020-09-29T10:39:16.769Z</time>
      </trkpt>
      <trkpt lat="64.13189" lon="20.55418">
        <ele>138.514323</ele>
        <time>2020-09-29T10:39:20.779Z</time>
      </trkpt>
      <trkpt lat="64.13181" lon="20.55401">
        <ele>138.60776</ele>
        <time>2020-09-29T10:39:24.782Z</time>
      </trkpt>
      <trkpt lat="64.13174" lon="20.55387">
        <ele>138.684625</ele>
        <time>2020-09-29T10:39:27.780Z</time>
      </trkpt>
      <trkpt lat="64.13166" lon="20.55371">
        <ele>138.773635</ele>
        <time>2020-09-29T10:39:30.786Z</time>
      </trkpt>
      <trkpt lat="64.13157" lon="20.55352">
        <ele>138.873599</ele>
        <time>2020-09-29T10:39:33.781Z</time>
      </trkpt>
      <trkpt lat="64.13148" lon="20.55331">
        <ele>138.981964</ele>
        <time>2020-09-29T10:39:36.788Z</time>
      </trkpt>
      <trkpt lat="64.13141" lon="20.55316">
        <ele>139.058375</ele>
        <time>2020-09-29T10:39:38.766Z</time>
      </trkpt>
      <trkpt lat="64.13134" lon="20.55301">
        <ele>139.134381</ele>
        <time>2020-09-29T10:39:40.776Z</time>
      </trkpt>
      <trkpt lat="64.13128" lon="20.55287">
        <ele>139.210141</ele>
        <time>2020-09-29T10:39:42.782Z</time>
      </trkpt>
      <trkpt lat="64.13121" lon="20.55273">
        <ele>139.286504</ele>
        <time>2020-09-29T10:39:44.774Z</time>
      </trkpt>
      <trkpt lat="64.13111" lon="20.55251">
        <ele>139.39612</ele>
        <time>2020-09-29T10:39:47.762Z</time>
      </trkpt>
      <trkpt lat="64.13104" lon="20.55236">
        <ele>139.474672</ele>
        <time>2020-09-29T10:39:49.759Z</time>
      </trkpt>
      <trkpt lat="64.13097" lon="20.55222">
        <ele>139.534171</ele>
        <time>2020-09-29T10:39:51.821Z</time>
      </trkpt>
      <trkpt lat="64.1309" lon="20.55207">
        <ele>139.41297</ele>
        <time>2020-09-29T10:39:53.772Z</time>
      </trkpt>
      <trkpt lat="64.13084" lon="20.55192">
        <ele>139.295913</ele>
        <time>2020-09-29T10:39:55.784Z</time>
      </trkpt>
      <trkpt lat="64.13077" lon="20.55178">
        <ele>139.180739</ele>
        <time>2020-09-29T10:39:57.745Z</time>
      </trkpt>
      <trkpt lat="64.13068" lon="20.55157">
        <ele>139.012394</ele>
        <time>2020-09-29T10:40:00.750Z</time>
      </trkpt>
      <trkpt lat="64.13059" lon="20.55138">
        <ele>138.856451</ele>
        <time>2020-09-29T10:40:03.771Z</time>
      </trkpt>
      <trkpt lat="64.1305" lon="20.55119">
        <ele>138.708752</ele>
        <time>2020-09-29T10:40:06.791Z</time>
      </trkpt>
      <trkpt lat="64.13042" lon="20.551">
        <ele>138.558558</ele>
        <time>2020-09-29T10:40:09.774Z</time>
      </trkpt>
      <trkpt lat="64.13034" lon="20.55082">
        <ele>138.414451</ele>
        <time>2020-09-29T10:40:12.755Z</time>
      </trkpt>
      <trkpt lat="64.13026" lon="20.55066">
        <ele>138.272958</ele>
        <time>2020-09-29T10:40:15.789Z</time>
      </trkpt>
      <trkpt lat="64.13017" lon="20.55048">
        <ele>138.127492</ele>
        <time>2020-09-29T10:40:18.825Z</time>
      </trkpt>
      <trkpt lat="64.13009" lon="20.55028">
        <ele>137.971574</ele>
        <time>2020-09-29T10:40:21.780Z</time>
      </trkpt>
      <trkpt lat="64.12999" lon="20.55009">
        <ele>137.808344</ele>
        <time>2020-09-29T10:40:24.850Z</time>
      </trkpt>
      <trkpt lat="64.12989" lon="20.54988">
        <ele>137.642052</ele>
        <time>2020-09-29T10:40:27.777Z</time>
      </trkpt>
      <trkpt lat="64.12983" lon="20.54974">
        <ele>137.525534</ele>
        <time>2020-09-29T10:40:29.811Z</time>
      </trkpt>
      <trkpt lat="64.12976" lon="20.54959">
        <ele>137.407711</ele>
        <time>2020-09-29T10:40:31.781Z</time>
      </trkpt>
      <trkpt lat="64.12969" lon="20.54945">
        <ele>137.290422</ele>
        <time>2020-09-29T10:40:33.804Z</time>
      </trkpt>
      <trkpt lat="64.12962" lon="20.54928">
        <ele>137.048711</ele>
        <time>2020-09-29T10:40:35.767Z</time>
      </trkpt>
      <trkpt lat="64.12955" lon="20.5491">
        <ele>136.727556</ele>
        <time>2020-09-29T10:40:37.765Z</time>
      </trkpt>
      <trkpt lat="64.12946" lon="20.54892">
        <ele>136.402808</ele>
        <time>2020-09-29T10:40:39.799Z</time>
      </trkpt>
      <trkpt lat="64.12937" lon="20.54874">
        <ele>136.053009</ele>
        <time>2020-09-29T10:40:41.801Z</time>
      </trkpt>
      <trkpt lat="64.12928" lon="20.54854">
        <ele>135.685338</ele>
        <time>2020-09-29T10:40:43.762Z</time>
      </trkpt>
      <trkpt lat="64.12918" lon="20.54834">
        <ele>135.309615</ele>
        <time>2020-09-29T10:40:45.763Z</time>
      </trkpt>
      <trkpt lat="64.12908" lon="20.54813">
        <ele>134.920712</ele>
        <time>2020-09-29T10:40:47.781Z</time>
      </trkpt>
      <trkpt lat="64.12898" lon="20.54793">
        <ele>134.539723</ele>
        <time>2020-09-29T10:40:49.773Z</time>
      </trkpt>
      <trkpt lat="64.12889" lon="20.54773">
        <ele>134.166071</ele>
        <time>2020-09-29T10:40:51.785Z</time>
      </trkpt>
      <trkpt lat="64.12879" lon="20.54755">
        <ele>133.796439</ele>
        <time>2020-09-29T10:40:53.799Z</time>
      </trkpt>
      <trkpt lat="64.12868" lon="20.54738">
        <ele>133.425288</ele>
        <time>2020-09-29T10:40:55.810Z</time>
      </trkpt>
      <trkpt lat="64.12858" lon="20.54719">
        <ele>133.045746</ele>
        <time>2020-09-29T10:40:57.763Z</time>
      </trkpt>
      <trkpt lat="64.12847" lon="20.54702">
        <ele>132.672034</ele>
        <time>2020-09-29T10:40:59.798Z</time>
      </trkpt>
      <trkpt lat="64.12836" lon="20.54686">
        <ele>132.29783</ele>
        <time>2020-09-29T10:41:01.781Z</time>
      </trkpt>
      <trkpt lat="64.12826" lon="20.54669">
        <ele>132.03485</ele>
        <time>2020-09-29T10:41:03.795Z</time>
      </trkpt>
      <trkpt lat="64.12815" lon="20.54652">
        <ele>131.947552</ele>
        <time>2020-09-29T10:41:05.786Z</time>
      </trkpt>
      <trkpt lat="64.12805" lon="20.54636">
        <ele>131.861252</ele>
        <time>2020-09-29T10:41:07.836Z</time>
      </trkpt>
      <trkpt lat="64.12794" lon="20.54619">
        <ele>131.7735</ele>
        <time>2020-09-29T10:41:09.761Z</time>
      </trkpt>
      <trkpt lat="64.12782" lon="20.54602">
        <ele>131.680572</ele>
        <time>2020-09-29T10:41:11.795Z</time>
      </trkpt>
      <trkpt lat="64.12771" lon="20.54584">
        <ele>131.587313</ele>
        <time>2020-09-29T10:41:13.773Z</time>
      </trkpt>
      <trkpt lat="64.1276" lon="20.54566">
        <ele>131.492829</ele>
        <time>2020-09-29T10:41:15.759Z</time>
      </trkpt>
      <trkpt lat="64.12748" lon="20.54547">
        <ele>131.396435</ele>
        <time>2020-09-29T10:41:17.777Z</time>
      </trkpt>
      <trkpt lat="64.12736" lon="20.54528">
        <ele>131.299777</ele>
        <time>2020-09-29T10:41:19.778Z</time>
      </trkpt>
      <trkpt lat="64.12725" lon="20.54511">
        <ele>131.206049</ele>
        <time>2020-09-29T10:41:21.777Z</time>
      </trkpt>
      <trkpt lat="64.12713" lon="20.54493">
        <ele>131.112504</ele>
        <time>2020-09-29T10:41:23.776Z</time>
      </trkpt>
      <trkpt lat="64.12702" lon="20.54475">
        <ele>131.022221</ele>
        <time>2020-09-29T10:41:25.770Z</time>
      </trkpt>
      <trkpt lat="64.12692" lon="20.54458">
        <ele>130.935756</ele>
        <time>2020-09-29T10:41:27.771Z</time>
      </trkpt>
      <trkpt lat="64.12682" lon="20.54443">
        <ele>130.856004</ele>
        <time>2020-09-29T10:41:29.788Z</time>
      </trkpt>
      <trkpt lat="64.12673" lon="20.5443">
        <ele>130.996753</ele>
        <time>2020-09-29T10:41:31.770Z</time>
      </trkpt>
      <trkpt lat="64.12665" lon="20.54417">
        <ele>131.137105</ele>
        <time>2020-09-29T10:41:33.769Z</time>
      </trkpt>
      <trkpt lat="64.12657" lon="20.54405">
        <ele>131.272385</ele>
        <time>2020-09-29T10:41:35.782Z</time>
      </trkpt>
      <trkpt lat="64.12646" lon="20.54388">
        <ele>131.469225</ele>
        <time>2020-09-29T10:41:38.780Z</time>
      </trkpt>
      <trkpt lat="64.12638" lon="20.54375">
        <ele>131.604138</ele>
        <time>2020-09-29T10:41:40.773Z</time>
      </trkpt>
      <trkpt lat="64.1263" lon="20.54362">
        <ele>131.752571</ele>
        <time>2020-09-29T10:41:42.798Z</time>
      </trkpt>
      <trkpt lat="64.12621" lon="20.54347">
        <ele>131.917048</ele>
        <time>2020-09-29T10:41:44.779Z</time>
      </trkpt>
      <trkpt lat="64.12611" lon="20.54333">
        <ele>132.078385</ele>
        <time>2020-09-29T10:41:46.777Z</time>
      </trkpt>
      <trkpt lat="64.12601" lon="20.54317">
        <ele>132.259624</ele>
        <time>2020-09-29T10:41:48.792Z</time>
      </trkpt>
      <trkpt lat="64.1259" lon="20.54299">
        <ele>132.457734</ele>
        <time>2020-09-29T10:41:50.808Z</time>
      </trkpt>
      <trkpt lat="64.12577" lon="20.5428">
        <ele>132.673207</ele>
        <time>2020-09-29T10:41:52.780Z</time>
      </trkpt>
      <trkpt lat="64.12564" lon="20.54261">
        <ele>132.894231</ele>
        <time>2020-09-29T10:41:54.807Z</time>
      </trkpt>
      <trkpt lat="64.12551" lon="20.54242">
        <ele>133.116937</ele>
        <time>2020-09-29T10:41:56.767Z</time>
      </trkpt>
      <trkpt lat="64.12539" lon="20.54223">
        <ele>133.334118</ele>
        <time>2020-09-29T10:41:58.787Z</time>
      </trkpt>
      <trkpt lat="64.12526" lon="20.54205">
        <ele>133.098591</ele>
        <time>2020-09-29T10:42:00.826Z</time>
      </trkpt>
      <trkpt lat="64.12515" lon="20.54191">
        <ele>132.440972</ele>
        <time>2020-09-29T10:42:02.789Z</time>
      </trkpt>
      <trkpt lat="64.12503" lon="20.54178">
        <ele>131.785467</ele>
        <time>2020-09-29T10:42:04.769Z</time>
      </trkpt>
      <trkpt lat="64.12492" lon="20.54165">
        <ele>131.129543</ele>
        <time>2020-09-29T10:42:06.812Z</time>
      </trkpt>
      <trkpt lat="64.1248" lon="20.54152">
        <ele>130.490637</ele>
        <time>2020-09-29T10:42:08.803Z</time>
      </trkpt>
      <trkpt lat="64.12469" lon="20.54139">
        <ele>129.834154</ele>
        <time>2020-09-29T10:42:10.769Z</time>
      </trkpt>
      <trkpt lat="64.12458" lon="20.54128">
        <ele>129.219363</ele>
        <time>2020-09-29T10:42:12.763Z</time>
      </trkpt>
      <trkpt lat="64.12447" lon="20.5412">
        <ele>128.632163</ele>
        <time>2020-09-29T10:42:14.775Z</time>
      </trkpt>
      <trkpt lat="64.12435" lon="20.5411">
        <ele>128.021909</ele>
        <time>2020-09-29T10:42:16.777Z</time>
      </trkpt>
      <trkpt lat="64.12424" lon="20.54101">
        <ele>127.410129</ele>
        <time>2020-09-29T10:42:18.784Z</time>
      </trkpt>
      <trkpt lat="64.12413" lon="20.54093">
        <ele>126.809093</ele>
        <time>2020-09-29T10:42:20.758Z</time>
      </trkpt>
      <trkpt lat="64.12402" lon="20.54084">
        <ele>126.245973</ele>
        <time>2020-09-29T10:42:22.772Z</time>
      </trkpt>
      <trkpt lat="64.12392" lon="20.54076">
        <ele>125.689482</ele>
        <time>2020-09-29T10:42:24.764Z</time>
      </trkpt>
      <trkpt lat="64.12382" lon="20.54069">
        <ele>125.140473</ele>
        <time>2020-09-29T10:42:26.776Z</time>
      </trkpt>
      <trkpt lat="64.12371" lon="20.54062">
        <ele>124.576207</ele>
        <time>2020-09-29T10:42:28.796Z</time>
      </trkpt>
      <trkpt lat="64.1236" lon="20.54055">
        <ele>124.18973</ele>
        <time>2020-09-29T10:42:30.776Z</time>
      </trkpt>
      <trkpt lat="64.1235" lon="20.54047">
        <ele>123.962448</ele>
        <time>2020-09-29T10:42:32.800Z</time>
      </trkpt>
      <trkpt lat="64.1234" lon="20.54039">
        <ele>123.729651</ele>
        <time>2020-09-29T10:42:34.768Z</time>
      </trkpt>
      <trkpt lat="64.12329" lon="20.54031">
        <ele>123.490432</ele>
        <time>2020-09-29T10:42:36.769Z</time>
      </trkpt>
      <trkpt lat="64.12319" lon="20.54024">
        <ele>123.257924</ele>
        <time>2020-09-29T10:42:38.788Z</time>
      </trkpt>
      <trkpt lat="64.12309" lon="20.54016">
        <ele>123.032672</ele>
        <time>2020-09-29T10:42:40.793Z</time>
      </trkpt>
      <trkpt lat="64.12299" lon="20.54009">
        <ele>122.803886</ele>
        <time>2020-09-29T10:42:42.796Z</time>
      </trkpt>
      <trkpt lat="64.12289" lon="20.54002">
        <ele>122.575891</ele>
        <time>2020-09-29T10:42:44.796Z</time>
      </trkpt>
      <trkpt lat="64.12278" lon="20.53995">
        <ele>122.338332</ele>
        <time>2020-09-29T10:42:46.765Z</time>
      </trkpt>
      <trkpt lat="64.12268" lon="20.53988">
        <ele>122.104383</ele>
        <time>2020-09-29T10:42:48.773Z</time>
      </trkpt>
      <trkpt lat="64.12257" lon="20.53982">
        <ele>121.875074</ele>
        <time>2020-09-29T10:42:50.774Z</time>
      </trkpt>
      <trkpt lat="64.12247" lon="20.53975">
        <ele>121.651468</ele>
        <time>2020-09-29T10:42:52.782Z</time>
      </trkpt>
      <trkpt lat="64.12238" lon="20.53969">
        <ele>121.430186</ele>
        <time>2020-09-29T10:42:54.787Z</time>
      </trkpt>
      <trkpt lat="64.12228" lon="20.53962">
        <ele>121.218938</ele>
        <time>2020-09-29T10:42:56.784Z</time>
      </trkpt>
      <trkpt lat="64.12219" lon="20.53955">
        <ele>121.005083</ele>
        <time>2020-09-29T10:42:58.793Z</time>
      </trkpt>
      <trkpt lat="64.12209" lon="20.53949">
        <ele>120.797484</ele>
        <time>2020-09-29T10:43:00.766Z</time>
      </trkpt>
      <trkpt lat="64.122" lon="20.53944">
        <ele>120.598665</ele>
        <time>2020-09-29T10:43:02.791Z</time>
      </trkpt>
      <trkpt lat="64.12187" lon="20.53935">
        <ele>120.844634</ele>
        <time>2020-09-29T10:43:05.776Z</time>
      </trkpt>
      <trkpt lat="64.12178" lon="20.53929">
        <ele>121.382859</ele>
        <time>2020-09-29T10:43:07.789Z</time>
      </trkpt>
      <trkpt lat="64.12169" lon="20.53924">
        <ele>121.942401</ele>
        <time>2020-09-29T10:43:09.771Z</time>
      </trkpt>
      <trkpt lat="64.1216" lon="20.53918">
        <ele>122.489412</ele>
        <time>2020-09-29T10:43:11.762Z</time>
      </trkpt>
      <trkpt lat="64.12151" lon="20.53911">
        <ele>123.017567</ele>
        <time>2020-09-29T10:43:13.763Z</time>
      </trkpt>
      <trkpt lat="64.12139" lon="20.53903">
        <ele>123.783564</ele>
        <time>2020-09-29T10:43:16.803Z</time>
      </trkpt>
      <trkpt lat="64.12126" lon="20.53893">
        <ele>124.550145</ele>
        <time>2020-09-29T10:43:19.799Z</time>
      </trkpt>
      <trkpt lat="64.12114" lon="20.53884">
        <ele>125.271551</ele>
        <time>2020-09-29T10:43:22.764Z</time>
      </trkpt>
      <trkpt lat="64.12104" lon="20.53876">
        <ele>125.891637</ele>
        <time>2020-09-29T10:43:25.764Z</time>
      </trkpt>
      <trkpt lat="64.12095" lon="20.5387">
        <ele>126.45185</ele>
        <time>2020-09-29T10:43:28.780Z</time>
      </trkpt>
      <trkpt lat="64.12086" lon="20.53865">
        <ele>126.984442</ele>
        <time>2020-09-29T10:43:31.783Z</time>
      </trkpt>
      <trkpt lat="64.12077" lon="20.5386">
        <ele>127.503359</ele>
        <time>2020-09-29T10:43:34.786Z</time>
      </trkpt>
      <trkpt lat="64.12068" lon="20.53853">
        <ele>128.059826</ele>
        <time>2020-09-29T10:43:37.790Z</time>
      </trkpt>
      <trkpt lat="64.12059" lon="20.53847">
        <ele>128.640968</ele>
        <time>2020-09-29T10:43:40.767Z</time>
      </trkpt>
      <trkpt lat="64.12049" lon="20.5384">
        <ele>129.237456</ele>
        <time>2020-09-29T10:43:43.769Z</time>
      </trkpt>
      <trkpt lat="64.1204" lon="20.53833">
        <ele>129.809825</ele>
        <time>2020-09-29T10:43:46.776Z</time>
      </trkpt>
      <trkpt lat="64.12029" lon="20.53826">
        <ele>130.458682</ele>
        <time>2020-09-29T10:43:49.790Z</time>
      </trkpt>
      <trkpt lat="64.12019" lon="20.53819">
        <ele>130.915924</ele>
        <time>2020-09-29T10:43:52.798Z</time>
      </trkpt>
      <trkpt lat="64.12009" lon="20.53812">
        <ele>131.000318</ele>
        <time>2020-09-29T10:43:55.789Z</time>
      </trkpt>
      <trkpt lat="64.11998" lon="20.53806">
        <ele>131.094514</ele>
        <time>2020-09-29T10:43:58.773Z</time>
      </trkpt>
      <trkpt lat="64.11986" lon="20.538">
        <ele>131.192491</ele>
        <time>2020-09-29T10:44:01.768Z</time>
      </trkpt>
      <trkpt lat="64.11975" lon="20.53796">
        <ele>131.286264</ele>
        <time>2020-09-29T10:44:04.797Z</time>
      </trkpt>
      <trkpt lat="64.11963" lon="20.53791">
        <ele>131.39254</ele>
        <time>2020-09-29T10:44:07.817Z</time>
      </trkpt>
      <trkpt lat="64.1195" lon="20.53786">
        <ele>131.50033</ele>
        <time>2020-09-29T10:44:10.774Z</time>
      </trkpt>
      <trkpt lat="64.1194" lon="20.53784">
        <ele>131.576869</ele>
        <time>2020-09-29T10:44:12.765Z</time>
      </trkpt>
      <trkpt lat="64.11931" lon="20.5378">
        <ele>131.658016</ele>
        <time>2020-09-29T10:44:14.776Z</time>
      </trkpt>
      <trkpt lat="64.11921" lon="20.53775">
        <ele>131.737649</ele>
        <time>2020-09-29T10:44:16.769Z</time>
      </trkpt>
      <trkpt lat="64.11912" lon="20.53771">
        <ele>131.815801</ele>
        <time>2020-09-29T10:44:18.783Z</time>
      </trkpt>
      <trkpt lat="64.11899" lon="20.53765">
        <ele>131.928014</ele>
        <time>2020-09-29T10:44:21.819Z</time>
      </trkpt>
      <trkpt lat="64.11888" lon="20.53762">
        <ele>132.014705</ele>
        <time>2020-09-29T10:44:23.812Z</time>
      </trkpt>
      <trkpt lat="64.11878" lon="20.53758">
        <ele>132.101728</ele>
        <time>2020-09-29T10:44:25.789Z</time>
      </trkpt>
      <trkpt lat="64.11867" lon="20.53755">
        <ele>132.194141</ele>
        <time>2020-09-29T10:44:27.771Z</time>
      </trkpt>
      <trkpt lat="64.11855" lon="20.53752">
        <ele>132.291253</ele>
        <time>2020-09-29T10:44:29.771Z</time>
      </trkpt>
      <trkpt lat="64.11843" lon="20.53748">
        <ele>132.368599</ele>
        <time>2020-09-29T10:44:31.793Z</time>
      </trkpt>
      <trkpt lat="64.11831" lon="20.53745">
        <ele>132.311639</ele>
        <time>2020-09-29T10:44:33.811Z</time>
      </trkpt>
      <trkpt lat="64.1182" lon="20.53743">
        <ele>132.257318</ele>
        <time>2020-09-29T10:44:35.796Z</time>
      </trkpt>
      <trkpt lat="64.11809" lon="20.53741">
        <ele>132.203895</ele>
        <time>2020-09-29T10:44:37.777Z</time>
      </trkpt>
      <trkpt lat="64.11798" lon="20.53739">
        <ele>132.150414</ele>
        <time>2020-09-29T10:44:39.764Z</time>
      </trkpt>
      <trkpt lat="64.11788" lon="20.53736">
        <ele>132.098438</ele>
        <time>2020-09-29T10:44:41.760Z</time>
      </trkpt>
      <trkpt lat="64.11776" lon="20.53735">
        <ele>132.044117</ele>
        <time>2020-09-29T10:44:43.788Z</time>
      </trkpt>
      <trkpt lat="64.11766" lon="20.53732">
        <ele>131.99214</ele>
        <time>2020-09-29T10:44:45.765Z</time>
      </trkpt>
      <trkpt lat="64.11756" lon="20.5373">
        <ele>131.943494</ele>
        <time>2020-09-29T10:44:47.776Z</time>
      </trkpt>
      <trkpt lat="64.11745" lon="20.53728">
        <ele>131.893998</ele>
        <time>2020-09-29T10:44:49.783Z</time>
      </trkpt>
      <trkpt lat="64.11735" lon="20.53726">
        <ele>131.841982</ele>
        <time>2020-09-29T10:44:51.794Z</time>
      </trkpt>
      <trkpt lat="64.11724" lon="20.53723">
        <ele>131.789966</ele>
        <time>2020-09-29T10:44:53.787Z</time>
      </trkpt>
      <trkpt lat="64.11713" lon="20.53721">
        <ele>131.737861</ele>
        <time>2020-09-29T10:44:55.786Z</time>
      </trkpt>
      <trkpt lat="64.11703" lon="20.53718">
        <ele>131.687222</ele>
        <time>2020-09-29T10:44:57.797Z</time>
      </trkpt>
      <trkpt lat="64.11693" lon="20.53716">
        <ele>131.637784</ele>
        <time>2020-09-29T10:44:59.781Z</time>
      </trkpt>
      <trkpt lat="64.11683" lon="20.53716">
        <ele>131.589373</ele>
        <time>2020-09-29T10:45:01.780Z</time>
      </trkpt>
      <trkpt lat="64.11673" lon="20.53714">
        <ele>131.540404</ele>
        <time>2020-09-29T10:45:03.777Z</time>
      </trkpt>
      <trkpt lat="64.11663" lon="20.53712">
        <ele>131.408942</ele>
        <time>2020-09-29T10:45:05.763Z</time>
      </trkpt>
      <trkpt lat="64.11653" lon="20.53713">
        <ele>131.111326</ele>
        <time>2020-09-29T10:45:07.780Z</time>
      </trkpt>
      <trkpt lat="64.11643" lon="20.53712">
        <ele>130.782242</ele>
        <time>2020-09-29T10:45:09.778Z</time>
      </trkpt>
      <trkpt lat="64.11631" lon="20.5371">
        <ele>130.430808</ele>
        <time>2020-09-29T10:45:11.796Z</time>
      </trkpt>
      <trkpt lat="64.1162" lon="20.53707">
        <ele>130.067022</ele>
        <time>2020-09-29T10:45:13.794Z</time>
      </trkpt>
      <trkpt lat="64.11608" lon="20.53705">
        <ele>129.6933</ele>
        <time>2020-09-29T10:45:15.769Z</time>
      </trkpt>
      <trkpt lat="64.11595" lon="20.53702">
        <ele>129.297259</ele>
        <time>2020-09-29T10:45:17.772Z</time>
      </trkpt>
      <trkpt lat="64.11582" lon="20.53698">
        <ele>128.865311</ele>
        <time>2020-09-29T10:45:19.781Z</time>
      </trkpt>
      <trkpt lat="64.11567" lon="20.53694">
        <ele>128.406081</ele>
        <time>2020-09-29T10:45:21.788Z</time>
      </trkpt>
      <trkpt lat="64.11552" lon="20.5369">
        <ele>127.927595</ele>
        <time>2020-09-29T10:45:23.768Z</time>
      </trkpt>
      <trkpt lat="64.11537" lon="20.53687">
        <ele>127.453243</ele>
        <time>2020-09-29T10:45:25.789Z</time>
      </trkpt>
      <trkpt lat="64.11522" lon="20.53683">
        <ele>127.000073</ele>
        <time>2020-09-29T10:45:27.809Z</time>
      </trkpt>
      <trkpt lat="64.11508" lon="20.5368">
        <ele>126.557234</ele>
        <time>2020-09-29T10:45:29.777Z</time>
      </trkpt>
      <trkpt lat="64.11495" lon="20.53677">
        <ele>126.130458</ele>
        <time>2020-09-29T10:45:31.787Z</time>
      </trkpt>
      <trkpt lat="64.11481" lon="20.53673">
        <ele>125.601668</ele>
        <time>2020-09-29T10:45:33.800Z</time>
      </trkpt>
      <trkpt lat="64.11468" lon="20.53671">
        <ele>124.98162</ele>
        <time>2020-09-29T10:45:35.793Z</time>
      </trkpt>
      <trkpt lat="64.11456" lon="20.53669">
        <ele>124.391528</ele>
        <time>2020-09-29T10:45:37.760Z</time>
      </trkpt>
      <trkpt lat="64.11444" lon="20.53665">
        <ele>123.841246</ele>
        <time>2020-09-29T10:45:39.807Z</time>
      </trkpt>
      <trkpt lat="64.11432" lon="20.53663">
        <ele>123.264287</ele>
        <time>2020-09-29T10:45:41.814Z</time>
      </trkpt>
      <trkpt lat="64.11421" lon="20.5366">
        <ele>122.705964</ele>
        <time>2020-09-29T10:45:43.793Z</time>
      </trkpt>
      <trkpt lat="64.11409" lon="20.53657">
        <ele>122.161454</ele>
        <time>2020-09-29T10:45:45.760Z</time>
      </trkpt>
      <trkpt lat="64.11398" lon="20.53655">
        <ele>121.632542</ele>
        <time>2020-09-29T10:45:47.761Z</time>
      </trkpt>
      <trkpt lat="64.11388" lon="20.53652">
        <ele>121.126789</ele>
        <time>2020-09-29T10:45:49.776Z</time>
      </trkpt>
      <trkpt lat="64.11378" lon="20.53649">
        <ele>120.634544</ele>
        <time>2020-09-29T10:45:51.790Z</time>
      </trkpt>
      <trkpt lat="64.11368" lon="20.53646">
        <ele>120.157797</ele>
        <time>2020-09-29T10:45:53.769Z</time>
      </trkpt>
      <trkpt lat="64.11358" lon="20.53643">
        <ele>119.677654</ele>
        <time>2020-09-29T10:45:55.796Z</time>
      </trkpt>
      <trkpt lat="64.11348" lon="20.53639">
        <ele>119.197511</ele>
        <time>2020-09-29T10:45:57.772Z</time>
      </trkpt>
      <trkpt lat="64.11338" lon="20.53635">
        <ele>118.701814</ele>
        <time>2020-09-29T10:45:59.772Z</time>
      </trkpt>
      <trkpt lat="64.11327" lon="20.5363">
        <ele>118.179095</ele>
        <time>2020-09-29T10:46:01.774Z</time>
      </trkpt>
      <trkpt lat="64.11316" lon="20.53624">
        <ele>117.635927</ele>
        <time>2020-09-29T10:46:03.763Z</time>
      </trkpt>
      <trkpt lat="64.11304" lon="20.53619">
        <ele>117.110362</ele>
        <time>2020-09-29T10:46:05.790Z</time>
      </trkpt>
      <trkpt lat="64.11292" lon="20.53614">
        <ele>116.662396</ele>
        <time>2020-09-29T10:46:07.778Z</time>
      </trkpt>
      <trkpt lat="64.11281" lon="20.53607">
        <ele>116.23352</ele>
        <time>2020-09-29T10:46:09.785Z</time>
      </trkpt>
      <trkpt lat="64.1127" lon="20.53602">
        <ele>115.820269</ele>
        <time>2020-09-29T10:46:11.764Z</time>
      </trkpt>
      <trkpt lat="64.1126" lon="20.53597">
        <ele>115.425361</ele>
        <time>2020-09-29T10:46:13.787Z</time>
      </trkpt>
      <trkpt lat="64.1125" lon="20.53592">
        <ele>115.04261</ele>
        <time>2020-09-29T10:46:15.789Z</time>
      </trkpt>
      <trkpt lat="64.11241" lon="20.53586">
        <ele>114.677569</ele>
        <time>2020-09-29T10:46:17.801Z</time>
      </trkpt>
      <trkpt lat="64.11231" lon="20.53581">
        <ele>114.317315</ele>
        <time>2020-09-29T10:46:19.780Z</time>
      </trkpt>
      <trkpt lat="64.11222" lon="20.53575">
        <ele>113.949052</ele>
        <time>2020-09-29T10:46:21.790Z</time>
      </trkpt>
      <trkpt lat="64.11212" lon="20.5357">
        <ele>113.58802</ele>
        <time>2020-09-29T10:46:23.774Z</time>
      </trkpt>
      <trkpt lat="64.11203" lon="20.53566">
        <ele>113.238858</ele>
        <time>2020-09-29T10:46:25.774Z</time>
      </trkpt>
      <trkpt lat="64.11194" lon="20.53562">
        <ele>112.896022</ele>
        <time>2020-09-29T10:46:27.787Z</time>
      </trkpt>
      <trkpt lat="64.11181" lon="20.53555">
        <ele>112.39526</ele>
        <time>2020-09-29T10:46:30.762Z</time>
      </trkpt>
      <trkpt lat="64.11172" lon="20.5355">
        <ele>112.055719</ele>
        <time>2020-09-29T10:46:32.770Z</time>
      </trkpt>
      <trkpt lat="64.11163" lon="20.53546">
        <ele>111.712539</ele>
        <time>2020-09-29T10:46:34.766Z</time>
      </trkpt>
      <trkpt lat="64.11154" lon="20.53541">
        <ele>111.378776</ele>
        <time>2020-09-29T10:46:36.798Z</time>
      </trkpt>
      <trkpt lat="64.11141" lon="20.53533">
        <ele>110.870924</ele>
        <time>2020-09-29T10:46:39.784Z</time>
      </trkpt>
      <trkpt lat="64.11132" lon="20.53529">
        <ele>110.572689</ele>
        <time>2020-09-29T10:46:41.798Z</time>
      </trkpt>
      <trkpt lat="64.11123" lon="20.53525">
        <ele>110.568632</ele>
        <time>2020-09-29T10:46:43.773Z</time>
      </trkpt>
      <trkpt lat="64.11113" lon="20.53521">
        <ele>110.564604</ele>
        <time>2020-09-29T10:46:45.808Z</time>
      </trkpt>
      <trkpt lat="64.11104" lon="20.53516">
        <ele>110.560535</ele>
        <time>2020-09-29T10:46:47.776Z</time>
      </trkpt>
      <trkpt lat="64.11094" lon="20.53511">
        <ele>110.556368</ele>
        <time>2020-09-29T10:46:49.793Z</time>
      </trkpt>
      <trkpt lat="64.11085" lon="20.53505">
        <ele>110.552125</ele>
        <time>2020-09-29T10:46:51.783Z</time>
      </trkpt>
      <trkpt lat="64.11074" lon="20.535">
        <ele>110.547694</ele>
        <time>2020-09-29T10:46:53.782Z</time>
      </trkpt>
      <trkpt lat="64.11064" lon="20.53494">
        <ele>110.543158</ele>
        <time>2020-09-29T10:46:55.805Z</time>
      </trkpt>
      <trkpt lat="64.11054" lon="20.53489">
        <ele>110.538636</ele>
        <time>2020-09-29T10:46:57.772Z</time>
      </trkpt>
      <trkpt lat="64.11043" lon="20.53483">
        <ele>110.533923</ele>
        <time>2020-09-29T10:46:59.775Z</time>
      </trkpt>
      <trkpt lat="64.11032" lon="20.53477">
        <ele>110.529305</ele>
        <time>2020-09-29T10:47:01.799Z</time>
      </trkpt>
      <trkpt lat="64.11021" lon="20.53472">
        <ele>110.524539</ele>
        <time>2020-09-29T10:47:03.790Z</time>
      </trkpt>
      <trkpt lat="64.11009" lon="20.53467">
        <ele>110.519419</ele>
        <time>2020-09-29T10:47:05.790Z</time>
      </trkpt>
      <trkpt lat="64.10997" lon="20.53461">
        <ele>110.514321</ele>
        <time>2020-09-29T10:47:07.775Z</time>
      </trkpt>
      <trkpt lat="64.10986" lon="20.53454">
        <ele>110.50932</ele>
        <time>2020-09-29T10:47:09.783Z</time>
      </trkpt>
      <trkpt lat="64.10974" lon="20.53449">
        <ele>110.50421</ele>
        <time>2020-09-29T10:47:11.818Z</time>
      </trkpt>
      <trkpt lat="64.10962" lon="20.53443">
        <ele>110.499059</ele>
        <time>2020-09-29T10:47:13.769Z</time>
      </trkpt>
      <trkpt lat="64.10951" lon="20.53437">
        <ele>110.529664</ele>
        <time>2020-09-29T10:47:15.844Z</time>
      </trkpt>
      <trkpt lat="64.10939" lon="20.53431">
        <ele>110.585175</ele>
        <time>2020-09-29T10:47:17.764Z</time>
      </trkpt>
      <trkpt lat="64.10927" lon="20.53426">
        <ele>110.64004</ele>
        <time>2020-09-29T10:47:19.791Z</time>
      </trkpt>
      <trkpt lat="64.10915" lon="20.5342">
        <ele>110.694435</ele>
        <time>2020-09-29T10:47:21.757Z</time>
      </trkpt>
      <trkpt lat="64.10904" lon="20.53414">
        <ele>110.748525</ele>
        <time>2020-09-29T10:47:23.795Z</time>
      </trkpt>
      <trkpt lat="64.10892" lon="20.53408">
        <ele>110.803675</ele>
        <time>2020-09-29T10:47:25.781Z</time>
      </trkpt>
      <trkpt lat="64.1088" lon="20.53402">
        <ele>110.858171</ele>
        <time>2020-09-29T10:47:27.771Z</time>
      </trkpt>
      <trkpt lat="64.10869" lon="20.53396">
        <ele>110.911541</ele>
        <time>2020-09-29T10:47:29.763Z</time>
      </trkpt>
      <trkpt lat="64.10858" lon="20.53389">
        <ele>110.96374</ele>
        <time>2020-09-29T10:47:31.779Z</time>
      </trkpt>
      <trkpt lat="64.10847" lon="20.53383">
        <ele>111.013706</ele>
        <time>2020-09-29T10:47:33.768Z</time>
      </trkpt>
      <trkpt lat="64.10837" lon="20.53377">
        <ele>111.062198</ele>
        <time>2020-09-29T10:47:35.770Z</time>
      </trkpt>
      <trkpt lat="64.10826" lon="20.53373">
        <ele>111.111513</ele>
        <time>2020-09-29T10:47:37.774Z</time>
      </trkpt>
      <trkpt lat="64.10816" lon="20.53371">
        <ele>111.160651</ele>
        <time>2020-09-29T10:47:39.785Z</time>
      </trkpt>
      <trkpt lat="64.10805" lon="20.53369">
        <ele>111.210007</ele>
        <time>2020-09-29T10:47:41.784Z</time>
      </trkpt>
      <trkpt lat="64.10794" lon="20.53369">
        <ele>111.260658</ele>
        <time>2020-09-29T10:47:43.773Z</time>
      </trkpt>
      <trkpt lat="64.10783" lon="20.5337">
        <ele>111.309983</ele>
        <time>2020-09-29T10:47:45.780Z</time>
      </trkpt>
      <trkpt lat="64.10772" lon="20.53371">
        <ele>111.764765</ele>
        <time>2020-09-29T10:47:47.793Z</time>
      </trkpt>
      <trkpt lat="64.10762" lon="20.53373">
        <ele>112.256911</ele>
        <time>2020-09-29T10:47:49.776Z</time>
      </trkpt>
      <trkpt lat="64.10752" lon="20.53376">
        <ele>112.749891</ele>
        <time>2020-09-29T10:47:51.807Z</time>
      </trkpt>
      <trkpt lat="64.10742" lon="20.53378">
        <ele>113.26236</ele>
        <time>2020-09-29T10:47:53.775Z</time>
      </trkpt>
      <trkpt lat="64.10733" lon="20.53381">
        <ele>113.737546</ele>
        <time>2020-09-29T10:47:55.779Z</time>
      </trkpt>
      <trkpt lat="64.10723" lon="20.53383">
        <ele>114.230304</ele>
        <time>2020-09-29T10:47:57.810Z</time>
      </trkpt>
      <trkpt lat="64.10713" lon="20.53385">
        <ele>114.716407</ele>
        <time>2020-09-29T10:47:59.770Z</time>
      </trkpt>
      <trkpt lat="64.10704" lon="20.53386">
        <ele>115.163778</ele>
        <time>2020-09-29T10:48:01.774Z</time>
      </trkpt>
      <trkpt lat="64.10691" lon="20.5339">
        <ele>115.827763</ele>
        <time>2020-09-29T10:48:04.795Z</time>
      </trkpt>
      <trkpt lat="64.10678" lon="20.53392">
        <ele>116.457999</ele>
        <time>2020-09-29T10:48:07.797Z</time>
      </trkpt>
      <trkpt lat="64.10666" lon="20.53393">
        <ele>117.062692</ele>
        <time>2020-09-29T10:48:10.782Z</time>
      </trkpt>
      <trkpt lat="64.10653" lon="20.53397">
        <ele>117.701303</ele>
        <time>2020-09-29T10:48:13.791Z</time>
      </trkpt>
      <trkpt lat="64.10639" lon="20.53401">
        <ele>118.386061</ele>
        <time>2020-09-29T10:48:16.774Z</time>
      </trkpt>
      <trkpt lat="64.10629" lon="20.53406">
        <ele>118.920716</ele>
        <time>2020-09-29T10:48:18.766Z</time>
      </trkpt>
      <trkpt lat="64.10619" lon="20.5341">
        <ele>119.379569</ele>
        <time>2020-09-29T10:48:20.809Z</time>
      </trkpt>
      <trkpt lat="64.10607" lon="20.53414">
        <ele>120.018179</ele>
        <time>2020-09-29T10:48:23.776Z</time>
      </trkpt>
      <trkpt lat="64.10597" lon="20.53416">
        <ele>120.227019</ele>
        <time>2020-09-29T10:48:25.756Z</time>
      </trkpt>
      <trkpt lat="64.10586" lon="20.5342">
        <ele>120.231967</ele>
        <time>2020-09-29T10:48:27.820Z</time>
      </trkpt>
      <trkpt lat="64.10576" lon="20.53424">
        <ele>120.236803</ele>
        <time>2020-09-29T10:48:29.776Z</time>
      </trkpt>
      <trkpt lat="64.10567" lon="20.53427">
        <ele>120.241166</ele>
        <time>2020-09-29T10:48:31.771Z</time>
      </trkpt>
      <trkpt lat="64.10558" lon="20.5343">
        <ele>120.245458</ele>
        <time>2020-09-29T10:48:33.792Z</time>
      </trkpt>
      <trkpt lat="64.10548" lon="20.53433">
        <ele>120.24997</ele>
        <time>2020-09-29T10:48:35.790Z</time>
      </trkpt>
      <trkpt lat="64.10538" lon="20.53435">
        <ele>120.254653</ele>
        <time>2020-09-29T10:48:37.762Z</time>
      </trkpt>
      <trkpt lat="64.10527" lon="20.53435">
        <ele>120.259462</ele>
        <time>2020-09-29T10:48:39.770Z</time>
      </trkpt>
      <trkpt lat="64.10516" lon="20.53434">
        <ele>120.264597</ele>
        <time>2020-09-29T10:48:41.809Z</time>
      </trkpt>
      <trkpt lat="64.10505" lon="20.53432">
        <ele>120.269935</ele>
        <time>2020-09-29T10:48:43.784Z</time>
      </trkpt>
      <trkpt lat="64.10494" lon="20.53427">
        <ele>120.275184</ele>
        <time>2020-09-29T10:48:45.790Z</time>
      </trkpt>
      <trkpt lat="64.10481" lon="20.53423">
        <ele>120.281073</ele>
        <time>2020-09-29T10:48:47.769Z</time>
      </trkpt>
      <trkpt lat="64.10468" lon="20.53419">
        <ele>120.28719</ele>
        <time>2020-09-29T10:48:49.783Z</time>
      </trkpt>
      <trkpt lat="64.10454" lon="20.53416">
        <ele>120.293831</ele>
        <time>2020-09-29T10:48:51.770Z</time>
      </trkpt>
      <trkpt lat="64.1044" lon="20.5341">
        <ele>120.300359</ele>
        <time>2020-09-29T10:48:53.772Z</time>
      </trkpt>
      <trkpt lat="64.10426" lon="20.53401">
        <ele>120.30692</ele>
        <time>2020-09-29T10:48:55.780Z</time>
      </trkpt>
      <trkpt lat="64.10414" lon="20.53391">
        <ele>119.859023</ele>
        <time>2020-09-29T10:48:57.789Z</time>
      </trkpt>
      <trkpt lat="64.10402" lon="20.53381">
        <ele>119.401433</ele>
        <time>2020-09-29T10:48:59.780Z</time>
      </trkpt>
      <trkpt lat="64.10392" lon="20.5337">
        <ele>118.978813</ele>
        <time>2020-09-29T10:49:01.776Z</time>
      </trkpt>
      <trkpt lat="64.10383" lon="20.53359">
        <ele>118.568609</ele>
        <time>2020-09-29T10:49:03.773Z</time>
      </trkpt>
      <trkpt lat="64.10374" lon="20.53345">
        <ele>118.158759</ele>
        <time>2020-09-29T10:49:05.800Z</time>
      </trkpt>
      <trkpt lat="64.10365" lon="20.53332">
        <ele>117.756962</ele>
        <time>2020-09-29T10:49:07.802Z</time>
      </trkpt>
      <trkpt lat="64.10356" lon="20.53317">
        <ele>117.359583</ele>
        <time>2020-09-29T10:49:09.787Z</time>
      </trkpt>
      <trkpt lat="64.10348" lon="20.53303">
        <ele>116.971284</ele>
        <time>2020-09-29T10:49:11.801Z</time>
      </trkpt>
      <trkpt lat="64.10341" lon="20.53289">
        <ele>116.607914</ele>
        <time>2020-09-29T10:49:13.782Z</time>
      </trkpt>
      <trkpt lat="64.10334" lon="20.53275">
        <ele>116.248234</ele>
        <time>2020-09-29T10:49:15.814Z</time>
      </trkpt>
      <trkpt lat="64.10327" lon="20.53261">
        <ele>115.897719</ele>
        <time>2020-09-29T10:49:17.789Z</time>
      </trkpt>
      <trkpt lat="64.1032" lon="20.53245">
        <ele>115.5248</ele>
        <time>2020-09-29T10:49:19.811Z</time>
      </trkpt>
      <trkpt lat="64.10313" lon="20.5323">
        <ele>115.160846</ele>
        <time>2020-09-29T10:49:21.837Z</time>
      </trkpt>
      <trkpt lat="64.10307" lon="20.53213">
        <ele>114.796097</ele>
        <time>2020-09-29T10:49:23.774Z</time>
      </trkpt>
      <trkpt lat="64.103" lon="20.53196">
        <ele>114.413873</ele>
        <time>2020-09-29T10:49:25.792Z</time>
      </trkpt>
      <trkpt lat="64.10292" lon="20.53179">
        <ele>114.015018</ele>
        <time>2020-09-29T10:49:27.810Z</time>
      </trkpt>
      <trkpt lat="64.10285" lon="20.53161">
        <ele>113.598918</ele>
        <time>2020-09-29T10:49:29.791Z</time>
      </trkpt>
      <trkpt lat="64.10278" lon="20.53142">
        <ele>113.67853</ele>
        <time>2020-09-29T10:49:31.812Z</time>
      </trkpt>
      <trkpt lat="64.1027" lon="20.53123">
        <ele>113.949455</ele>
        <time>2020-09-29T10:49:33.773Z</time>
      </trkpt>
      <trkpt lat="64.10263" lon="20.53103">
        <ele>114.22286</ele>
        <time>2020-09-29T10:49:35.779Z</time>
      </trkpt>
      <trkpt lat="64.10256" lon="20.53085">
        <ele>114.49725</ele>
        <time>2020-09-29T10:49:37.804Z</time>
      </trkpt>
      <trkpt lat="64.10248" lon="20.53066">
        <ele>114.776497</ele>
        <time>2020-09-29T10:49:39.767Z</time>
      </trkpt>
      <trkpt lat="64.10241" lon="20.53047">
        <ele>115.049043</ele>
        <time>2020-09-29T10:49:41.780Z</time>
      </trkpt>
      <trkpt lat="64.10234" lon="20.53028">
        <ele>115.32079</ele>
        <time>2020-09-29T10:49:43.782Z</time>
      </trkpt>
      <trkpt lat="64.10226" lon="20.53011">
        <ele>115.585486</ele>
        <time>2020-09-29T10:49:45.772Z</time>
      </trkpt>
      <trkpt lat="64.10219" lon="20.52993">
        <ele>115.850043</ele>
        <time>2020-09-29T10:49:47.769Z</time>
      </trkpt>
      <trkpt lat="64.10211" lon="20.52975">
        <ele>116.116466</ele>
        <time>2020-09-29T10:49:49.789Z</time>
      </trkpt>
      <trkpt lat="64.10205" lon="20.52958">
        <ele>116.371888</ele>
        <time>2020-09-29T10:49:51.760Z</time>
      </trkpt>
      <trkpt lat="64.10198" lon="20.5294">
        <ele>116.62241</ele>
        <time>2020-09-29T10:49:53.783Z</time>
      </trkpt>
      <trkpt lat="64.10192" lon="20.52924">
        <ele>116.850081</ele>
        <time>2020-09-29T10:49:55.772Z</time>
      </trkpt>
      <trkpt lat="64.10184" lon="20.52902">
        <ele>117.16593</ele>
        <time>2020-09-29T10:49:58.820Z</time>
      </trkpt>
      <trkpt lat="64.10176" lon="20.5288">
        <ele>117.46529</ele>
        <time>2020-09-29T10:50:01.783Z</time>
      </trkpt>
      <trkpt lat="64.10169" lon="20.5286">
        <ele>117.754988</ele>
        <time>2020-09-29T10:50:04.791Z</time>
      </trkpt>
      <trkpt lat="64.10161" lon="20.52836">
        <ele>117.967653</ele>
        <time>2020-09-29T10:50:07.774Z</time>
      </trkpt>
      <trkpt lat="64.10155" lon="20.52821">
        <ele>118.013081</ele>
        <time>2020-09-29T10:50:09.770Z</time>
      </trkpt>
      <trkpt lat="64.10146" lon="20.52798">
        <ele>118.079102</ele>
        <time>2020-09-29T10:50:12.793Z</time>
      </trkpt>
      <trkpt lat="64.10137" lon="20.52776">
        <ele>118.143975</ele>
        <time>2020-09-29T10:50:15.770Z</time>
      </trkpt>
      <trkpt lat="64.10129" lon="20.52754">
        <ele>118.208221</ele>
        <time>2020-09-29T10:50:18.786Z</time>
      </trkpt>
      <trkpt lat="64.1012" lon="20.52733">
        <ele>118.270498</ele>
        <time>2020-09-29T10:50:21.809Z</time>
      </trkpt>
      <trkpt lat="64.10111" lon="20.52713">
        <ele>118.331841</ele>
        <time>2020-09-29T10:50:24.779Z</time>
      </trkpt>
      <trkpt lat="64.10103" lon="20.52693">
        <ele>118.391018</ele>
        <time>2020-09-29T10:50:27.780Z</time>
      </trkpt>
      <trkpt lat="64.10096" lon="20.52674">
        <ele>118.4469</ele>
        <time>2020-09-29T10:50:30.778Z</time>
      </trkpt>
      <trkpt lat="64.10088" lon="20.52654">
        <ele>118.503928</ele>
        <time>2020-09-29T10:50:33.792Z</time>
      </trkpt>
      <trkpt lat="64.1008" lon="20.52633">
        <ele>118.565376</ele>
        <time>2020-09-29T10:50:36.771Z</time>
      </trkpt>
      <trkpt lat="64.10072" lon="20.5261">
        <ele>118.627531</ele>
        <time>2020-09-29T10:50:39.780Z</time>
      </trkpt>
      <trkpt lat="64.10064" lon="20.52588">
        <ele>118.690767</ele>
        <time>2020-09-29T10:50:42.789Z</time>
      </trkpt>
      <trkpt lat="64.10055" lon="20.52567">
        <ele>118.753701</ele>
        <time>2020-09-29T10:50:45.810Z</time>
      </trkpt>
      <trkpt lat="64.10047" lon="20.52547">
        <ele>118.814032</ele>
        <time>2020-09-29T10:50:48.822Z</time>
      </trkpt>
      <trkpt lat="64.10039" lon="20.52525">
        <ele>119.238074</ele>
        <time>2020-09-29T10:50:51.792Z</time>
      </trkpt>
      <trkpt lat="64.10031" lon="20.52503">
        <ele>119.860675</ele>
        <time>2020-09-29T10:50:54.798Z</time>
      </trkpt>
      <trkpt lat="64.10023" lon="20.52479">
        <ele>120.50934</ele>
        <time>2020-09-29T10:50:57.764Z</time>
      </trkpt>
      <trkpt lat="64.10017" lon="20.52463">
        <ele>120.963608</ele>
        <time>2020-09-29T10:50:59.782Z</time>
      </trkpt>
      <trkpt lat="64.10009" lon="20.5244">
        <ele>121.607369</ele>
        <time>2020-09-29T10:51:02.815Z</time>
      </trkpt>
      <trkpt lat="64.1" lon="20.52417">
        <ele>122.256089</ele>
        <time>2020-09-29T10:51:05.770Z</time>
      </trkpt>
      <trkpt lat="64.09992" lon="20.52394">
        <ele>122.873998</ele>
        <time>2020-09-29T10:51:08.770Z</time>
      </trkpt>
      <trkpt lat="64.09985" lon="20.52373">
        <ele>123.461096</ele>
        <time>2020-09-29T10:51:11.788Z</time>
      </trkpt>
      <trkpt lat="64.09976" lon="20.52354">
        <ele>124.049159</ele>
        <time>2020-09-29T10:51:14.780Z</time>
      </trkpt>
      <trkpt lat="64.09968" lon="20.52333">
        <ele>124.671849</ele>
        <time>2020-09-29T10:51:17.768Z</time>
      </trkpt>
      <trkpt lat="64.09961" lon="20.52312">
        <ele>125.246033</ele>
        <time>2020-09-29T10:51:20.780Z</time>
      </trkpt>
      <trkpt lat="64.09954" lon="20.52292">
        <ele>125.791072</ele>
        <time>2020-09-29T10:51:23.776Z</time>
      </trkpt>
      <trkpt lat="64.09946" lon="20.52272">
        <ele>126.350684</ele>
        <time>2020-09-29T10:51:26.772Z</time>
      </trkpt>
      <trkpt lat="64.0994" lon="20.52253">
        <ele>126.880958</ele>
        <time>2020-09-29T10:51:29.801Z</time>
      </trkpt>
      <trkpt lat="64.09934" lon="20.52233">
        <ele>127.397932</ele>
        <time>2020-09-29T10:51:32.777Z</time>
      </trkpt>
      <trkpt lat="64.09926" lon="20.52214">
        <ele>127.540118</ele>
        <time>2020-09-29T10:51:35.804Z</time>
      </trkpt>
      <trkpt lat="64.09918" lon="20.52194">
        <ele>127.158093</ele>
        <time>2020-09-29T10:51:38.779Z</time>
      </trkpt>
      <trkpt lat="64.09908" lon="20.52173">
        <ele>126.740677</ele>
        <time>2020-09-29T10:51:41.827Z</time>
      </trkpt>
      <trkpt lat="64.09901" lon="20.52157">
        <ele>126.428217</ele>
        <time>2020-09-29T10:51:43.775Z</time>
      </trkpt>
      <trkpt lat="64.09893" lon="20.5214">
        <ele>126.090474</ele>
        <time>2020-09-29T10:51:45.789Z</time>
      </trkpt>
      <trkpt lat="64.09884" lon="20.52124">
        <ele>125.731627</ele>
        <time>2020-09-29T10:51:47.804Z</time>
      </trkpt>
      <trkpt lat="64.09874" lon="20.52108">
        <ele>125.357863</ele>
        <time>2020-09-29T10:51:49.771Z</time>
      </trkpt>
      <trkpt lat="64.09864" lon="20.52091">
        <ele>124.970108</ele>
        <time>2020-09-29T10:51:51.793Z</time>
      </trkpt>
      <trkpt lat="64.09854" lon="20.52074">
        <ele>124.587288</ele>
        <time>2020-09-29T10:51:53.808Z</time>
      </trkpt>
      <trkpt lat="64.09844" lon="20.52058">
        <ele>124.210993</ele>
        <time>2020-09-29T10:51:55.811Z</time>
      </trkpt>
      <trkpt lat="64.09835" lon="20.52042">
        <ele>123.831493</ele>
        <time>2020-09-29T10:51:57.806Z</time>
      </trkpt>
      <trkpt lat="64.09826" lon="20.52025">
        <ele>123.471039</ele>
        <time>2020-09-29T10:51:59.791Z</time>
      </trkpt>
      <trkpt lat="64.09816" lon="20.5201">
        <ele>123.102791</ele>
        <time>2020-09-29T10:52:01.768Z</time>
      </trkpt>
      <trkpt lat="64.09806" lon="20.51994">
        <ele>122.731975</ele>
        <time>2020-09-29T10:52:03.771Z</time>
      </trkpt>
      <trkpt lat="64.09795" lon="20.51979">
        <ele>122.330956</ele>
        <time>2020-09-29T10:52:05.782Z</time>
      </trkpt>
      <trkpt lat="64.09784" lon="20.51962">
        <ele>121.682588</ele>
        <time>2020-09-29T10:52:07.822Z</time>
      </trkpt>
      <trkpt lat="64.09773" lon="20.51944">
        <ele>120.713061</ele>
        <time>2020-09-29T10:52:09.806Z</time>
      </trkpt>
      <trkpt lat="64.09762" lon="20.51926">
        <ele>119.788144</ele>
        <time>2020-09-29T10:52:11.803Z</time>
      </trkpt>
      <trkpt lat="64.09751" lon="20.51909">
        <ele>118.892365</ele>
        <time>2020-09-29T10:52:13.799Z</time>
      </trkpt>
      <trkpt lat="64.09741" lon="20.51893">
        <ele>118.018564</ele>
        <time>2020-09-29T10:52:15.799Z</time>
      </trkpt>
      <trkpt lat="64.09731" lon="20.51878">
        <ele>117.154959</ele>
        <time>2020-09-29T10:52:17.800Z</time>
      </trkpt>
      <trkpt lat="64.09721" lon="20.51862">
        <ele>116.287469</ele>
        <time>2020-09-29T10:52:19.757Z</time>
      </trkpt>
      <trkpt lat="64.0971" lon="20.51845">
        <ele>115.406719</ele>
        <time>2020-09-29T10:52:21.787Z</time>
      </trkpt>
      <trkpt lat="64.097" lon="20.51829">
        <ele>114.537456</ele>
        <time>2020-09-29T10:52:23.794Z</time>
      </trkpt>
      <trkpt lat="64.0969" lon="20.51813">
        <ele>113.697216</ele>
        <time>2020-09-29T10:52:25.769Z</time>
      </trkpt>
      <trkpt lat="64.0968" lon="20.51798">
        <ele>112.856261</ele>
        <time>2020-09-29T10:52:27.795Z</time>
      </trkpt>
      <trkpt lat="64.0967" lon="20.51784">
        <ele>112.016081</ele>
        <time>2020-09-29T10:52:29.776Z</time>
      </trkpt>
      <trkpt lat="64.0966" lon="20.51768">
        <ele>111.160774</ele>
        <time>2020-09-29T10:52:31.774Z</time>
      </trkpt>
      <trkpt lat="64.0965" lon="20.51753">
        <ele>110.330353</ele>
        <time>2020-09-29T10:52:33.771Z</time>
      </trkpt>
      <trkpt lat="64.09641" lon="20.51738">
        <ele>109.51203</ele>
        <time>2020-09-29T10:52:35.782Z</time>
      </trkpt>
      <trkpt lat="64.09631" lon="20.51723">
        <ele>109.379798</ele>
        <time>2020-09-29T10:52:37.781Z</time>
      </trkpt>
      <trkpt lat="64.09622" lon="20.51709">
        <ele>109.297148</ele>
        <time>2020-09-29T10:52:39.758Z</time>
      </trkpt>
      <trkpt lat="64.09613" lon="20.51695">
        <ele>109.215164</ele>
        <time>2020-09-29T10:52:41.833Z</time>
      </trkpt>
      <trkpt lat="64.09605" lon="20.51682">
        <ele>109.135091</ele>
        <time>2020-09-29T10:52:43.772Z</time>
      </trkpt>
      <trkpt lat="64.09596" lon="20.51669">
        <ele>109.053746</ele>
        <time>2020-09-29T10:52:45.770Z</time>
      </trkpt>
      <trkpt lat="64.09587" lon="20.51656">
        <ele>108.974129</ele>
        <time>2020-09-29T10:52:47.771Z</time>
      </trkpt>
      <trkpt lat="64.09578" lon="20.51642">
        <ele>108.891855</ele>
        <time>2020-09-29T10:52:49.782Z</time>
      </trkpt>
      <trkpt lat="64.09569" lon="20.51627">
        <ele>108.810293</ele>
        <time>2020-09-29T10:52:51.796Z</time>
      </trkpt>
      <trkpt lat="64.09561" lon="20.51613">
        <ele>108.728076</ele>
        <time>2020-09-29T10:52:53.790Z</time>
      </trkpt>
      <trkpt lat="64.09552" lon="20.516">
        <ele>108.647816</ele>
        <time>2020-09-29T10:52:55.784Z</time>
      </trkpt>
      <trkpt lat="64.09544" lon="20.51587">
        <ele>108.57083</ele>
        <time>2020-09-29T10:52:57.782Z</time>
      </trkpt>
      <trkpt lat="64.09535" lon="20.51574">
        <ele>108.494408</ele>
        <time>2020-09-29T10:52:59.785Z</time>
      </trkpt>
      <trkpt lat="64.09527" lon="20.51562">
        <ele>108.418973</ele>
        <time>2020-09-29T10:53:01.774Z</time>
      </trkpt>
      <trkpt lat="64.09518" lon="20.5155">
        <ele>108.343406</ele>
        <time>2020-09-29T10:53:03.782Z</time>
      </trkpt>
      <trkpt lat="64.0951" lon="20.51539">
        <ele>108.265862</ele>
        <time>2020-09-29T10:53:05.768Z</time>
      </trkpt>
      <trkpt lat="64.09501" lon="20.51527">
        <ele>108.187489</ele>
        <time>2020-09-29T10:53:07.788Z</time>
      </trkpt>
      <trkpt lat="64.09492" lon="20.51517">
        <ele>108.111184</ele>
        <time>2020-09-29T10:53:09.770Z</time>
      </trkpt>
      <trkpt lat="64.09482" lon="20.51507">
        <ele>108.068957</ele>
        <time>2020-09-29T10:53:11.786Z</time>
      </trkpt>
      <trkpt lat="64.09473" lon="20.51495">
        <ele>108.040808</ele>
        <time>2020-09-29T10:53:13.786Z</time>
      </trkpt>
      <trkpt lat="64.09463" lon="20.51484">
        <ele>108.012426</ele>
        <time>2020-09-29T10:53:15.774Z</time>
      </trkpt>
      <trkpt lat="64.09453" lon="20.51473">
        <ele>107.983629</ele>
        <time>2020-09-29T10:53:17.759Z</time>
      </trkpt>
      <trkpt lat="64.09443" lon="20.51462">
        <ele>107.953993</ele>
        <time>2020-09-29T10:53:19.774Z</time>
      </trkpt>
      <trkpt lat="64.09433" lon="20.51451">
        <ele>107.924204</ele>
        <time>2020-09-29T10:53:21.770Z</time>
      </trkpt>
      <trkpt lat="64.09423" lon="20.5144">
        <ele>107.894376</ele>
        <time>2020-09-29T10:53:23.808Z</time>
      </trkpt>
      <trkpt lat="64.09412" lon="20.51428">
        <ele>107.864214</ele>
        <time>2020-09-29T10:53:25.811Z</time>
      </trkpt>
      <trkpt lat="64.09402" lon="20.51417">
        <ele>107.835233</ele>
        <time>2020-09-29T10:53:27.797Z</time>
      </trkpt>
      <trkpt lat="64.09392" lon="20.51406">
        <ele>107.805692</ele>
        <time>2020-09-29T10:53:29.769Z</time>
      </trkpt>
      <trkpt lat="64.09382" lon="20.51396">
        <ele>107.77763</ele>
        <time>2020-09-29T10:53:31.793Z</time>
      </trkpt>
      <trkpt lat="64.09373" lon="20.51385">
        <ele>107.749036</ele>
        <time>2020-09-29T10:53:33.794Z</time>
      </trkpt>
      <trkpt lat="64.09362" lon="20.51374">
        <ele>107.719399</ele>
        <time>2020-09-29T10:53:35.793Z</time>
      </trkpt>
      <trkpt lat="64.09352" lon="20.51363">
        <ele>107.689997</ele>
        <time>2020-09-29T10:53:37.793Z</time>
      </trkpt>
      <trkpt lat="64.09342" lon="20.51352">
        <ele>107.660121</ele>
        <time>2020-09-29T10:53:39.799Z</time>
      </trkpt>
      <trkpt lat="64.09332" lon="20.5134">
        <ele>107.631524</ele>
        <time>2020-09-29T10:53:41.817Z</time>
      </trkpt>
      <trkpt lat="64.09323" lon="20.5133">
        <ele>107.716641</ele>
        <time>2020-09-29T10:53:43.803Z</time>
      </trkpt>
      <trkpt lat="64.09313" lon="20.5132">
        <ele>107.939</ele>
        <time>2020-09-29T10:53:45.776Z</time>
      </trkpt>
      <trkpt lat="64.09304" lon="20.5131">
        <ele>108.161737</ele>
        <time>2020-09-29T10:53:47.794Z</time>
      </trkpt>
      <trkpt lat="64.09294" lon="20.513">
        <ele>108.378405</ele>
        <time>2020-09-29T10:53:49.777Z</time>
      </trkpt>
      <trkpt lat="64.09285" lon="20.51289">
        <ele>108.596962</ele>
        <time>2020-09-29T10:53:51.770Z</time>
      </trkpt>
      <trkpt lat="64.09275" lon="20.51279">
        <ele>108.818603</ele>
        <time>2020-09-29T10:53:53.782Z</time>
      </trkpt>
      <trkpt lat="64.09266" lon="20.51269">
        <ele>109.039507</ele>
        <time>2020-09-29T10:53:55.799Z</time>
      </trkpt>
      <trkpt lat="64.09256" lon="20.51258">
        <ele>109.270296</ele>
        <time>2020-09-29T10:53:57.793Z</time>
      </trkpt>
      <trkpt lat="64.09246" lon="20.51248">
        <ele>109.501025</ele>
        <time>2020-09-29T10:53:59.764Z</time>
      </trkpt>
      <trkpt lat="64.09236" lon="20.51238">
        <ele>109.721085</ele>
        <time>2020-09-29T10:54:01.775Z</time>
      </trkpt>
      <trkpt lat="64.09227" lon="20.51228">
        <ele>109.937413</ele>
        <time>2020-09-29T10:54:03.777Z</time>
      </trkpt>
      <trkpt lat="64.09217" lon="20.51218">
        <ele>110.17012</ele>
        <time>2020-09-29T10:54:05.778Z</time>
      </trkpt>
      <trkpt lat="64.09207" lon="20.51209">
        <ele>110.3944</ele>
        <time>2020-09-29T10:54:07.761Z</time>
      </trkpt>
      <trkpt lat="64.09197" lon="20.51199">
        <ele>110.61293</ele>
        <time>2020-09-29T10:54:09.779Z</time>
      </trkpt>
      <trkpt lat="64.09188" lon="20.51188">
        <ele>110.833382</ele>
        <time>2020-09-29T10:54:11.790Z</time>
      </trkpt>
      <trkpt lat="64.09179" lon="20.51178">
        <ele>111.045477</ele>
        <time>2020-09-29T10:54:13.766Z</time>
      </trkpt>
      <trkpt lat="64.0917" lon="20.51168">
        <ele>111.253806</ele>
        <time>2020-09-29T10:54:15.802Z</time>
      </trkpt>
      <trkpt lat="64.09161" lon="20.51157">
        <ele>111.331206</ele>
        <time>2020-09-29T10:54:17.792Z</time>
      </trkpt>
      <trkpt lat="64.09152" lon="20.51145">
        <ele>111.168104</ele>
        <time>2020-09-29T10:54:19.793Z</time>
      </trkpt>
      <trkpt lat="64.09143" lon="20.51134">
        <ele>111.008023</ele>
        <time>2020-09-29T10:54:21.801Z</time>
      </trkpt>
      <trkpt lat="64.09134" lon="20.5112">
        <ele>110.846165</ele>
        <time>2020-09-29T10:54:23.762Z</time>
      </trkpt>
      <trkpt lat="64.09126" lon="20.51105">
        <ele>110.681244</ele>
        <time>2020-09-29T10:54:25.779Z</time>
      </trkpt>
      <trkpt lat="64.09118" lon="20.5109">
        <ele>110.517788</ele>
        <time>2020-09-29T10:54:27.777Z</time>
      </trkpt>
      <trkpt lat="64.09111" lon="20.51073">
        <ele>110.356831</ele>
        <time>2020-09-29T10:54:29.757Z</time>
      </trkpt>
      <trkpt lat="64.09104" lon="20.51055">
        <ele>110.194185</ele>
        <time>2020-09-29T10:54:31.776Z</time>
      </trkpt>
      <trkpt lat="64.09098" lon="20.51037">
        <ele>110.035321</ele>
        <time>2020-09-29T10:54:33.774Z</time>
      </trkpt>
      <trkpt lat="64.09092" lon="20.51019">
        <ele>109.879971</ele>
        <time>2020-09-29T10:54:35.813Z</time>
      </trkpt>
      <trkpt lat="64.09086" lon="20.50999">
        <ele>109.714894</ele>
        <time>2020-09-29T10:54:37.778Z</time>
      </trkpt>
      <trkpt lat="64.0908" lon="20.50978">
        <ele>109.542785</ele>
        <time>2020-09-29T10:54:39.791Z</time>
      </trkpt>
      <trkpt lat="64.09074" lon="20.50956">
        <ele>109.372352</ele>
        <time>2020-09-29T10:54:41.767Z</time>
      </trkpt>
      <trkpt lat="64.09068" lon="20.50935">
        <ele>109.20051</ele>
        <time>2020-09-29T10:54:43.786Z</time>
      </trkpt>
      <trkpt lat="64.09062" lon="20.50914">
        <ele>109.030751</ele>
        <time>2020-09-29T10:54:45.789Z</time>
      </trkpt>
      <trkpt lat="64.09057" lon="20.50893">
        <ele>108.864915</ele>
        <time>2020-09-29T10:54:47.800Z</time>
      </trkpt>
      <trkpt lat="64.09052" lon="20.50872">
        <ele>108.701206</ele>
        <time>2020-09-29T10:54:49.774Z</time>
      </trkpt>
      <trkpt lat="64.09047" lon="20.50851">
        <ele>108.583758</ele>
        <time>2020-09-29T10:54:51.765Z</time>
      </trkpt>
      <trkpt lat="64.09043" lon="20.50832">
        <ele>108.583665</ele>
        <time>2020-09-29T10:54:53.768Z</time>
      </trkpt>
      <trkpt lat="64.09038" lon="20.50813">
        <ele>108.583575</ele>
        <time>2020-09-29T10:54:55.773Z</time>
      </trkpt>
      <trkpt lat="64.09034" lon="20.50794">
        <ele>108.583485</ele>
        <time>2020-09-29T10:54:57.791Z</time>
      </trkpt>
      <trkpt lat="64.0903" lon="20.50774">
        <ele>108.583394</ele>
        <time>2020-09-29T10:54:59.794Z</time>
      </trkpt>
      <trkpt lat="64.09026" lon="20.50753">
        <ele>108.583301</ele>
        <time>2020-09-29T10:55:01.762Z</time>
      </trkpt>
      <trkpt lat="64.09022" lon="20.50733">
        <ele>108.583209</ele>
        <time>2020-09-29T10:55:03.771Z</time>
      </trkpt>
      <trkpt lat="64.09017" lon="20.50713">
        <ele>108.583116</ele>
        <time>2020-09-29T10:55:05.774Z</time>
      </trkpt>
      <trkpt lat="64.09013" lon="20.50695">
        <ele>108.583027</ele>
        <time>2020-09-29T10:55:07.767Z</time>
      </trkpt>
      <trkpt lat="64.09009" lon="20.50676">
        <ele>108.582939</ele>
        <time>2020-09-29T10:55:09.787Z</time>
      </trkpt>
      <trkpt lat="64.09004" lon="20.50658">
        <ele>108.582852</ele>
        <time>2020-09-29T10:55:11.776Z</time>
      </trkpt>
      <trkpt lat="64.08998" lon="20.50631">
        <ele>108.582728</ele>
        <time>2020-09-29T10:55:14.827Z</time>
      </trkpt>
      <trkpt lat="64.08992" lon="20.50604">
        <ele>108.582599</ele>
        <time>2020-09-29T10:55:17.792Z</time>
      </trkpt>
      <trkpt lat="64.08987" lon="20.50587">
        <ele>108.582513</ele>
        <time>2020-09-29T10:55:19.775Z</time>
      </trkpt>
      <trkpt lat="64.08982" lon="20.50569">
        <ele>108.582425</ele>
        <time>2020-09-29T10:55:21.778Z</time>
      </trkpt>
      <trkpt lat="64.08976" lon="20.50551">
        <ele>108.582334</ele>
        <time>2020-09-29T10:55:23.792Z</time>
      </trkpt>
      <trkpt lat="64.0897" lon="20.50533">
        <ele>108.582239</ele>
        <time>2020-09-29T10:55:25.788Z</time>
      </trkpt>
      <trkpt lat="64.08964" lon="20.50515">
        <ele>108.582139</ele>
        <time>2020-09-29T10:55:27.772Z</time>
      </trkpt>
      <trkpt lat="64.08957" lon="20.50497">
        <ele>108.608657</ele>
        <time>2020-09-29T10:55:29.815Z</time>
      </trkpt>
      <trkpt lat="64.08951" lon="20.50479">
        <ele>108.720903</ele>
        <time>2020-09-29T10:55:31.803Z</time>
      </trkpt>
      <trkpt lat="64.08945" lon="20.50461">
        <ele>108.835196</ele>
        <time>2020-09-29T10:55:33.773Z</time>
      </trkpt>
      <trkpt lat="64.08939" lon="20.50443">
        <ele>108.94472</ele>
        <time>2020-09-29T10:55:35.769Z</time>
      </trkpt>
      <trkpt lat="64.08933" lon="20.50425">
        <ele>109.053764</ele>
        <time>2020-09-29T10:55:37.785Z</time>
      </trkpt>
      <trkpt lat="64.08927" lon="20.50409">
        <ele>109.161549</ele>
        <time>2020-09-29T10:55:39.769Z</time>
      </trkpt>
      <trkpt lat="64.08919" lon="20.50393">
        <ele>109.276245</ele>
        <time>2020-09-29T10:55:41.789Z</time>
      </trkpt>
      <trkpt lat="64.08911" lon="20.50378">
        <ele>109.396383</ele>
        <time>2020-09-29T10:55:43.767Z</time>
      </trkpt>
      <trkpt lat="64.08902" lon="20.50363">
        <ele>109.515355</ele>
        <time>2020-09-29T10:55:45.769Z</time>
      </trkpt>
      <trkpt lat="64.08894" lon="20.50351">
        <ele>109.62455</ele>
        <time>2020-09-29T10:55:47.775Z</time>
      </trkpt>
      <trkpt lat="64.08886" lon="20.50341">
        <ele>109.730011</ele>
        <time>2020-09-29T10:55:49.762Z</time>
      </trkpt>
      <trkpt lat="64.08877" lon="20.50332">
        <ele>109.834485</ele>
        <time>2020-09-29T10:55:51.764Z</time>
      </trkpt>
      <trkpt lat="64.08869" lon="20.50323">
        <ele>109.939351</ele>
        <time>2020-09-29T10:55:53.786Z</time>
      </trkpt>
      <trkpt lat="64.0886" lon="20.50316">
        <ele>110.0447</ele>
        <time>2020-09-29T10:55:55.796Z</time>
      </trkpt>
      <trkpt lat="64.08848" lon="20.50306">
        <ele>110.187641</ele>
        <time>2020-09-29T10:55:58.794Z</time>
      </trkpt>
      <trkpt lat="64.08836" lon="20.50296">
        <ele>110.330914</ele>
        <time>2020-09-29T10:56:01.776Z</time>
      </trkpt>
      <trkpt lat="64.08825" lon="20.50286">
        <ele>110.460765</ele>
        <time>2020-09-29T10:56:04.779Z</time>
      </trkpt>
      <trkpt lat="64.08815" lon="20.50277">
        <ele>110.587605</ele>
        <time>2020-09-29T10:56:07.771Z</time>
      </trkpt>
      <trkpt lat="64.08804" lon="20.50268">
        <ele>110.656156</ele>
        <time>2020-09-29T10:56:10.775Z</time>
      </trkpt>
      <trkpt lat="64.08793" lon="20.50259">
        <ele>110.71952</ele>
        <time>2020-09-29T10:56:13.788Z</time>
      </trkpt>
      <trkpt lat="64.08782" lon="20.50251">
        <ele>110.783199</ele>
        <time>2020-09-29T10:56:16.837Z</time>
      </trkpt>
      <trkpt lat="64.08771" lon="20.50244">
        <ele>110.842882</ele>
        <time>2020-09-29T10:56:19.790Z</time>
      </trkpt>
      <trkpt lat="64.0876" lon="20.50237">
        <ele>110.904267</ele>
        <time>2020-09-29T10:56:22.809Z</time>
      </trkpt>
      <trkpt lat="64.08749" lon="20.50228">
        <ele>110.970959</ele>
        <time>2020-09-29T10:56:25.800Z</time>
      </trkpt>
      <trkpt lat="64.08738" lon="20.5022">
        <ele>111.035206</ele>
        <time>2020-09-29T10:56:28.781Z</time>
      </trkpt>
      <trkpt lat="64.08724" lon="20.50209">
        <ele>111.112413</ele>
        <time>2020-09-29T10:56:31.775Z</time>
      </trkpt>
      <trkpt lat="64.08713" lon="20.50201">
        <ele>111.174811</ele>
        <time>2020-09-29T10:56:33.785Z</time>
      </trkpt>
      <trkpt lat="64.08701" lon="20.50193">
        <ele>111.245039</ele>
        <time>2020-09-29T10:56:35.795Z</time>
      </trkpt>
      <trkpt lat="64.08688" lon="20.50182">
        <ele>111.321013</ele>
        <time>2020-09-29T10:56:37.780Z</time>
      </trkpt>
      <trkpt lat="64.08675" lon="20.50169">
        <ele>111.396064</ele>
        <time>2020-09-29T10:56:39.773Z</time>
      </trkpt>
      <trkpt lat="64.08664" lon="20.50159">
        <ele>111.463889</ele>
        <time>2020-09-29T10:56:41.800Z</time>
      </trkpt>
      <trkpt lat="64.08653" lon="20.5015">
        <ele>111.525868</ele>
        <time>2020-09-29T10:56:43.770Z</time>
      </trkpt>
      <trkpt lat="64.08643" lon="20.50142">
        <ele>111.556281</ele>
        <time>2020-09-29T10:56:45.765Z</time>
      </trkpt>
      <trkpt lat="64.08634" lon="20.50136">
        <ele>111.117939</ele>
        <time>2020-09-29T10:56:47.797Z</time>
      </trkpt>
      <trkpt lat="64.08624" lon="20.50129">
        <ele>110.666262</ele>
        <time>2020-09-29T10:56:49.773Z</time>
      </trkpt>
      <trkpt lat="64.08614" lon="20.50122">
        <ele>110.192151</ele>
        <time>2020-09-29T10:56:51.785Z</time>
      </trkpt>
      <trkpt lat="64.08603" lon="20.50115">
        <ele>109.694459</ele>
        <time>2020-09-29T10:56:53.784Z</time>
      </trkpt>
      <trkpt lat="64.08593" lon="20.50107">
        <ele>109.219865</ele>
        <time>2020-09-29T10:56:55.773Z</time>
      </trkpt>
      <trkpt lat="64.08583" lon="20.501">
        <ele>108.741664</ele>
        <time>2020-09-29T10:56:57.801Z</time>
      </trkpt>
      <trkpt lat="64.08573" lon="20.50093">
        <ele>108.285159</ele>
        <time>2020-09-29T10:56:59.772Z</time>
      </trkpt>
      <trkpt lat="64.08563" lon="20.50085">
        <ele>107.836447</ele>
        <time>2020-09-29T10:57:01.782Z</time>
      </trkpt>
      <trkpt lat="64.08554" lon="20.50078">
        <ele>107.396931</ele>
        <time>2020-09-29T10:57:03.792Z</time>
      </trkpt>
      <trkpt lat="64.08545" lon="20.50072">
        <ele>106.964555</ele>
        <time>2020-09-29T10:57:05.779Z</time>
      </trkpt>
      <trkpt lat="64.08535" lon="20.50065">
        <ele>106.529872</ele>
        <time>2020-09-29T10:57:07.794Z</time>
      </trkpt>
      <trkpt lat="64.08526" lon="20.50058">
        <ele>106.105388</ele>
        <time>2020-09-29T10:57:09.776Z</time>
      </trkpt>
      <trkpt lat="64.08517" lon="20.50051">
        <ele>105.678571</ele>
        <time>2020-09-29T10:57:11.775Z</time>
      </trkpt>
      <trkpt lat="64.08508" lon="20.50045">
        <ele>105.275662</ele>
        <time>2020-09-29T10:57:13.787Z</time>
      </trkpt>
      <trkpt lat="64.085" lon="20.5004">
        <ele>104.874826</ele>
        <time>2020-09-29T10:57:15.783Z</time>
      </trkpt>
      <trkpt lat="64.08487" lon="20.50034">
        <ele>104.294619</ele>
        <time>2020-09-29T10:57:18.772Z</time>
      </trkpt>
      <trkpt lat="64.08475" lon="20.5003">
        <ele>103.761357</ele>
        <time>2020-09-29T10:57:21.814Z</time>
      </trkpt>
      <trkpt lat="64.08464" lon="20.50026">
        <ele>103.778461</ele>
        <time>2020-09-29T10:57:24.789Z</time>
      </trkpt>
      <trkpt lat="64.08453" lon="20.50024">
        <ele>104.113136</ele>
        <time>2020-09-29T10:57:27.788Z</time>
      </trkpt>
      <trkpt lat="64.08443" lon="20.50021">
        <ele>104.425263</ele>
        <time>2020-09-29T10:57:30.793Z</time>
      </trkpt>
      <trkpt lat="64.08432" lon="20.50018">
        <ele>104.742398</ele>
        <time>2020-09-29T10:57:33.772Z</time>
      </trkpt>
      <trkpt lat="64.08421" lon="20.50018">
        <ele>105.084781</ele>
        <time>2020-09-29T10:57:36.817Z</time>
      </trkpt>
      <trkpt lat="64.0841" lon="20.50018">
        <ele>105.421135</ele>
        <time>2020-09-29T10:57:39.795Z</time>
      </trkpt>
      <trkpt lat="64.08399" lon="20.50018">
        <ele>105.751509</ele>
        <time>2020-09-29T10:57:42.768Z</time>
      </trkpt>
      <trkpt lat="64.08388" lon="20.50019">
        <ele>106.066847</ele>
        <time>2020-09-29T10:57:45.800Z</time>
      </trkpt>
      <trkpt lat="64.08378" lon="20.5002">
        <ele>106.385601</ele>
        <time>2020-09-29T10:57:48.807Z</time>
      </trkpt>
      <trkpt lat="64.08367" lon="20.50021">
        <ele>106.69529</ele>
        <time>2020-09-29T10:57:51.773Z</time>
      </trkpt>
      <trkpt lat="64.08358" lon="20.50022">
        <ele>106.974859</ele>
        <time>2020-09-29T10:57:54.764Z</time>
      </trkpt>
      <trkpt lat="64.08349" lon="20.50023">
        <ele>107.257135</ele>
        <time>2020-09-29T10:57:57.800Z</time>
      </trkpt>
      <trkpt lat="64.08339" lon="20.50024">
        <ele>107.557899</ele>
        <time>2020-09-29T10:58:00.820Z</time>
      </trkpt>
      <trkpt lat="64.08328" lon="20.50024">
        <ele>107.86421</ele>
        <time>2020-09-29T10:58:03.770Z</time>
      </trkpt>
      <trkpt lat="64.08319" lon="20.50023">
        <ele>108.158532</ele>
        <time>2020-09-29T10:58:06.781Z</time>
      </trkpt>
      <trkpt lat="64.08309" lon="20.50023">
        <ele>108.446804</ele>
        <time>2020-09-29T10:58:09.783Z</time>
      </trkpt>
      <trkpt lat="64.08299" lon="20.50024">
        <ele>108.738265</ele>
        <time>2020-09-29T10:58:12.786Z</time>
      </trkpt>
      <trkpt lat="64.08289" lon="20.50025">
        <ele>108.964245</ele>
        <time>2020-09-29T10:58:15.777Z</time>
      </trkpt>
      <trkpt lat="64.08278" lon="20.50025">
        <ele>108.922813</ele>
        <time>2020-09-29T10:58:18.779Z</time>
      </trkpt>
      <trkpt lat="64.08267" lon="20.50024">
        <ele>108.879044</ele>
        <time>2020-09-29T10:58:21.767Z</time>
      </trkpt>
      <trkpt lat="64.08255" lon="20.50024">
        <ele>108.832628</ele>
        <time>2020-09-29T10:58:24.801Z</time>
      </trkpt>
      <trkpt lat="64.08242" lon="20.50024">
        <ele>108.782363</ele>
        <time>2020-09-29T10:58:27.780Z</time>
      </trkpt>
      <trkpt lat="64.08228" lon="20.50023">
        <ele>108.731334</ele>
        <time>2020-09-29T10:58:30.771Z</time>
      </trkpt>
      <trkpt lat="64.08219" lon="20.50023">
        <ele>108.695274</ele>
        <time>2020-09-29T10:58:32.804Z</time>
      </trkpt>
      <trkpt lat="64.08209" lon="20.50023">
        <ele>108.658831</ele>
        <time>2020-09-29T10:58:34.797Z</time>
      </trkpt>
      <trkpt lat="64.082" lon="20.50023">
        <ele>108.622388</ele>
        <time>2020-09-29T10:58:36.774Z</time>
      </trkpt>
      <trkpt lat="64.0819" lon="20.50022">
        <ele>108.584781</ele>
        <time>2020-09-29T10:58:38.780Z</time>
      </trkpt>
      <trkpt lat="64.0818" lon="20.50022">
        <ele>108.546805</ele>
        <time>2020-09-29T10:58:40.782Z</time>
      </trkpt>
      <trkpt lat="64.0817" lon="20.50022">
        <ele>108.507674</ele>
        <time>2020-09-29T10:58:42.772Z</time>
      </trkpt>
      <trkpt lat="64.08159" lon="20.50022">
        <ele>108.463928</ele>
        <time>2020-09-29T10:58:44.815Z</time>
      </trkpt>
      <trkpt lat="64.08147" lon="20.50022">
        <ele>108.420195</ele>
        <time>2020-09-29T10:58:46.778Z</time>
      </trkpt>
      <trkpt lat="64.08135" lon="20.50022">
        <ele>108.37416</ele>
        <time>2020-09-29T10:58:48.792Z</time>
      </trkpt>
      <trkpt lat="64.08124" lon="20.50021">
        <ele>108.329654</ele>
        <time>2020-09-29T10:58:50.768Z</time>
      </trkpt>
      <trkpt lat="64.08112" lon="20.50021">
        <ele>108.285924</ele>
        <time>2020-09-29T10:58:52.836Z</time>
      </trkpt>
      <trkpt lat="64.08101" lon="20.50021">
        <ele>108.019069</ele>
        <time>2020-09-29T10:58:54.774Z</time>
      </trkpt>
      <trkpt lat="64.08089" lon="20.5002">
        <ele>107.733448</ele>
        <time>2020-09-29T10:58:56.807Z</time>
      </trkpt>
      <trkpt lat="64.08078" lon="20.50019">
        <ele>107.43771</ele>
        <time>2020-09-29T10:58:58.773Z</time>
      </trkpt>
      <trkpt lat="64.08066" lon="20.50019">
        <ele>107.154665</ele>
        <time>2020-09-29T10:59:00.793Z</time>
      </trkpt>
      <trkpt lat="64.08054" lon="20.50018">
        <ele>106.854089</ele>
        <time>2020-09-29T10:59:02.772Z</time>
      </trkpt>
      <trkpt lat="64.08042" lon="20.50017">
        <ele>106.551095</ele>
        <time>2020-09-29T10:59:04.774Z</time>
      </trkpt>
      <trkpt lat="64.0803" lon="20.50017">
        <ele>106.248193</ele>
        <time>2020-09-29T10:59:06.773Z</time>
      </trkpt>
      <trkpt lat="64.08017" lon="20.50016">
        <ele>105.939954</ele>
        <time>2020-09-29T10:59:08.788Z</time>
      </trkpt>
      <trkpt lat="64.08005" lon="20.50015">
        <ele>105.644304</ele>
        <time>2020-09-29T10:59:10.808Z</time>
      </trkpt>
      <trkpt lat="64.07993" lon="20.50015">
        <ele>105.343879</ele>
        <time>2020-09-29T10:59:12.780Z</time>
      </trkpt>
      <trkpt lat="64.07981" lon="20.50014">
        <ele>105.043367</ele>
        <time>2020-09-29T10:59:14.801Z</time>
      </trkpt>
      <trkpt lat="64.07969" lon="20.50014">
        <ele>104.747908</ele>
        <time>2020-09-29T10:59:16.768Z</time>
      </trkpt>
      <trkpt lat="64.07958" lon="20.50013">
        <ele>104.45739</ele>
        <time>2020-09-29T10:59:18.808Z</time>
      </trkpt>
      <trkpt lat="64.07946" lon="20.50012">
        <ele>104.171664</ele>
        <time>2020-09-29T10:59:20.769Z</time>
      </trkpt>
      <trkpt lat="64.07935" lon="20.50012">
        <ele>103.893573</ele>
        <time>2020-09-29T10:59:22.813Z</time>
      </trkpt>
      <trkpt lat="64.07923" lon="20.50012">
        <ele>103.74514</ele>
        <time>2020-09-29T10:59:24.776Z</time>
      </trkpt>
      <trkpt lat="64.07912" lon="20.50012">
        <ele>103.64797</ele>
        <time>2020-09-29T10:59:26.798Z</time>
      </trkpt>
      <trkpt lat="64.079" lon="20.50011">
        <ele>103.546437</ele>
        <time>2020-09-29T10:59:28.798Z</time>
      </trkpt>
      <trkpt lat="64.07889" lon="20.5001">
        <ele>103.445789</ele>
        <time>2020-09-29T10:59:30.790Z</time>
      </trkpt>
      <trkpt lat="64.07877" lon="20.50009">
        <ele>103.347759</ele>
        <time>2020-09-29T10:59:32.790Z</time>
      </trkpt>
      <trkpt lat="64.07866" lon="20.50009">
        <ele>103.251437</ele>
        <time>2020-09-29T10:59:34.806Z</time>
      </trkpt>
      <trkpt lat="64.07855" lon="20.50008">
        <ele>103.153378</ele>
        <time>2020-09-29T10:59:36.785Z</time>
      </trkpt>
      <trkpt lat="64.07844" lon="20.50009">
        <ele>103.058767</ele>
        <time>2020-09-29T10:59:38.785Z</time>
      </trkpt>
      <trkpt lat="64.07832" lon="20.5001">
        <ele>102.963157</ele>
        <time>2020-09-29T10:59:40.801Z</time>
      </trkpt>
      <trkpt lat="64.07822" lon="20.50011">
        <ele>102.871103</ele>
        <time>2020-09-29T10:59:42.774Z</time>
      </trkpt>
      <trkpt lat="64.07812" lon="20.50011">
        <ele>102.784255</ele>
        <time>2020-09-29T10:59:44.779Z</time>
      </trkpt>
      <trkpt lat="64.07802" lon="20.50011">
        <ele>102.697409</ele>
        <time>2020-09-29T10:59:46.770Z</time>
      </trkpt>
      <trkpt lat="64.07791" lon="20.50011">
        <ele>102.610544</ele>
        <time>2020-09-29T10:59:48.775Z</time>
      </trkpt>
      <trkpt lat="64.07782" lon="20.5001">
        <ele>102.526264</ele>
        <time>2020-09-29T10:59:50.767Z</time>
      </trkpt>
      <trkpt lat="64.07772" lon="20.5001">
        <ele>102.441977</ele>
        <time>2020-09-29T10:59:52.788Z</time>
      </trkpt>
      <trkpt lat="64.07761" lon="20.50009">
        <ele>102.351629</ele>
        <time>2020-09-29T10:59:54.761Z</time>
      </trkpt>
      <trkpt lat="64.07752" lon="20.5001">
        <ele>102.277642</ele>
        <time>2020-09-29T10:59:56.780Z</time>
      </trkpt>
      <trkpt lat="64.07742" lon="20.50008">
        <ele>102.418166</ele>
        <time>2020-09-29T10:59:58.771Z</time>
      </trkpt>
      <trkpt lat="64.07732" lon="20.50007">
        <ele>102.554268</ele>
        <time>2020-09-29T11:00:00.774Z</time>
      </trkpt>
      <trkpt lat="64.07723" lon="20.50007">
        <ele>102.688801</ele>
        <time>2020-09-29T11:00:02.768Z</time>
      </trkpt>
      <trkpt lat="64.07713" lon="20.50006">
        <ele>102.824795</ele>
        <time>2020-09-29T11:00:04.786Z</time>
      </trkpt>
      <trkpt lat="64.07704" lon="20.50006">
        <ele>102.959358</ele>
        <time>2020-09-29T11:00:06.797Z</time>
      </trkpt>
      <trkpt lat="64.07694" lon="20.50006">
        <ele>103.098192</ele>
        <time>2020-09-29T11:00:08.780Z</time>
      </trkpt>
      <trkpt lat="64.07684" lon="20.50005">
        <ele>103.241416</ele>
        <time>2020-09-29T11:00:10.768Z</time>
      </trkpt>
      <trkpt lat="64.07675" lon="20.50005">
        <ele>103.375956</ele>
        <time>2020-09-29T11:00:12.759Z</time>
      </trkpt>
      <trkpt lat="64.07665" lon="20.50005">
        <ele>103.514778</ele>
        <time>2020-09-29T11:00:14.807Z</time>
      </trkpt>
      <trkpt lat="64.07655" lon="20.50005">
        <ele>103.655064</ele>
        <time>2020-09-29T11:00:16.801Z</time>
      </trkpt>
      <trkpt lat="64.07645" lon="20.50006">
        <ele>103.798179</ele>
        <time>2020-09-29T11:00:18.773Z</time>
      </trkpt>
      <trkpt lat="64.07635" lon="20.50006">
        <ele>103.941293</ele>
        <time>2020-09-29T11:00:20.794Z</time>
      </trkpt>
      <trkpt lat="64.07625" lon="20.50005">
        <ele>104.08585</ele>
        <time>2020-09-29T11:00:22.767Z</time>
      </trkpt>
      <trkpt lat="64.07615" lon="20.50006">
        <ele>104.22617</ele>
        <time>2020-09-29T11:00:24.798Z</time>
      </trkpt>
      <trkpt lat="64.07606" lon="20.50006">
        <ele>104.360703</ele>
        <time>2020-09-29T11:00:26.768Z</time>
      </trkpt>
      <trkpt lat="64.07597" lon="20.50005">
        <ele>104.492405</ele>
        <time>2020-09-29T11:00:28.771Z</time>
      </trkpt>
      <trkpt lat="64.07584" lon="20.50006">
        <ele>104.678538</ele>
        <time>2020-09-29T11:00:31.772Z</time>
      </trkpt>
      <trkpt lat="64.07571" lon="20.50007">
        <ele>104.896855</ele>
        <time>2020-09-29T11:00:34.759Z</time>
      </trkpt>
      <trkpt lat="64.07558" lon="20.50005">
        <ele>105.446656</ele>
        <time>2020-09-29T11:00:37.793Z</time>
      </trkpt>
      <trkpt lat="64.07544" lon="20.50006">
        <ele>105.996327</ele>
        <time>2020-09-29T11:00:40.785Z</time>
      </trkpt>
      <trkpt lat="64.07531" lon="20.50006">
        <ele>106.558165</ele>
        <time>2020-09-29T11:00:43.790Z</time>
      </trkpt>
      <trkpt lat="64.07518" lon="20.50005">
        <ele>107.087407</ele>
        <time>2020-09-29T11:00:46.795Z</time>
      </trkpt>
      <trkpt lat="64.07505" lon="20.50003">
        <ele>107.604269</ele>
        <time>2020-09-29T11:00:49.768Z</time>
      </trkpt>
      <trkpt lat="64.07494" lon="20.50002">
        <ele>108.083763</ele>
        <time>2020-09-29T11:00:52.794Z</time>
      </trkpt>
      <trkpt lat="64.07483" lon="20.50002">
        <ele>108.55065</ele>
        <time>2020-09-29T11:00:55.784Z</time>
      </trkpt>
      <trkpt lat="64.0747" lon="20.50001">
        <ele>109.058769</ele>
        <time>2020-09-29T11:00:58.800Z</time>
      </trkpt>
      <trkpt lat="64.07457" lon="20.50001">
        <ele>109.608143</ele>
        <time>2020-09-29T11:01:01.786Z</time>
      </trkpt>
      <trkpt lat="64.07448" lon="20.50002">
        <ele>109.996842</ele>
        <time>2020-09-29T11:01:03.790Z</time>
      </trkpt>
      <trkpt lat="64.07438" lon="20.50002">
        <ele>110.376928</ele>
        <time>2020-09-29T11:01:05.826Z</time>
      </trkpt>
      <trkpt lat="64.07425" lon="20.50002">
        <ele>110.934566</ele>
        <time>2020-09-29T11:01:08.777Z</time>
      </trkpt>
      <trkpt lat="64.07415" lon="20.50001">
        <ele>111.323186</ele>
        <time>2020-09-29T11:01:10.791Z</time>
      </trkpt>
      <trkpt lat="64.07406" lon="20.50001">
        <ele>111.715699</ele>
        <time>2020-09-29T11:01:12.774Z</time>
      </trkpt>
      <trkpt lat="64.07396" lon="20.50001">
        <ele>112.112244</ele>
        <time>2020-09-29T11:01:14.816Z</time>
      </trkpt>
      <trkpt lat="64.07387" lon="20.50002">
        <ele>112.212155</ele>
        <time>2020-09-29T11:01:16.768Z</time>
      </trkpt>
      <trkpt lat="64.07377" lon="20.50002">
        <ele>112.105837</ele>
        <time>2020-09-29T11:01:18.811Z</time>
      </trkpt>
      <trkpt lat="64.07367" lon="20.50001">
        <ele>111.997269</ele>
        <time>2020-09-29T11:01:20.787Z</time>
      </trkpt>
      <trkpt lat="64.07358" lon="20.50001">
        <ele>111.894301</ele>
        <time>2020-09-29T11:01:22.801Z</time>
      </trkpt>
      <trkpt lat="64.07348" lon="20.50002">
        <ele>111.785629</ele>
        <time>2020-09-29T11:01:24.772Z</time>
      </trkpt>
      <trkpt lat="64.07339" lon="20.50003">
        <ele>111.680377</ele>
        <time>2020-09-29T11:01:26.795Z</time>
      </trkpt>
      <trkpt lat="64.07329" lon="20.50002">
        <ele>111.577395</ele>
        <time>2020-09-29T11:01:28.778Z</time>
      </trkpt>
      <trkpt lat="64.0732" lon="20.50002">
        <ele>111.474395</ele>
        <time>2020-09-29T11:01:30.763Z</time>
      </trkpt>
      <trkpt lat="64.07311" lon="20.50001">
        <ele>111.372482</ele>
        <time>2020-09-29T11:01:32.795Z</time>
      </trkpt>
      <trkpt lat="64.07302" lon="20.5">
        <ele>111.269545</ele>
        <time>2020-09-29T11:01:34.790Z</time>
      </trkpt>
      <trkpt lat="64.07292" lon="20.50001">
        <ele>111.166526</ele>
        <time>2020-09-29T11:01:36.787Z</time>
      </trkpt>
      <trkpt lat="64.07283" lon="20.50001">
        <ele>111.062464</ele>
        <time>2020-09-29T11:01:38.790Z</time>
      </trkpt>
      <trkpt lat="64.07273" lon="20.5">
        <ele>110.955001</ele>
        <time>2020-09-29T11:01:40.769Z</time>
      </trkpt>
      <trkpt lat="64.07263" lon="20.49999">
        <ele>110.842076</ele>
        <time>2020-09-29T11:01:42.775Z</time>
      </trkpt>
      <trkpt lat="64.07252" lon="20.49999">
        <ele>110.721417</ele>
        <time>2020-09-29T11:01:44.762Z</time>
      </trkpt>
      <trkpt lat="64.07241" lon="20.49998">
        <ele>110.601771</ele>
        <time>2020-09-29T11:01:46.767Z</time>
      </trkpt>
      <trkpt lat="64.07231" lon="20.49997">
        <ele>110.492151</ele>
        <time>2020-09-29T11:01:48.778Z</time>
      </trkpt>
      <trkpt lat="64.07218" lon="20.49997">
        <ele>110.344951</ele>
        <time>2020-09-29T11:01:51.807Z</time>
      </trkpt>
      <trkpt lat="64.07209" lon="20.49997">
        <ele>110.211805</ele>
        <time>2020-09-29T11:01:53.792Z</time>
      </trkpt>
      <trkpt lat="64.072" lon="20.49998">
        <ele>110.030392</ele>
        <time>2020-09-29T11:01:55.768Z</time>
      </trkpt>
      <trkpt lat="64.07186" lon="20.49998">
        <ele>109.767121</ele>
        <time>2020-09-29T11:01:58.773Z</time>
      </trkpt>
      <trkpt lat="64.07173" lon="20.49997">
        <ele>109.513579</ele>
        <time>2020-09-29T11:02:01.792Z</time>
      </trkpt>
      <trkpt lat="64.0716" lon="20.49997">
        <ele>109.25999</ele>
        <time>2020-09-29T11:02:04.822Z</time>
      </trkpt>
      <trkpt lat="64.07148" lon="20.49996">
        <ele>109.025959</ele>
        <time>2020-09-29T11:02:07.766Z</time>
      </trkpt>
      <trkpt lat="64.07136" lon="20.49995">
        <ele>108.780028</ele>
        <time>2020-09-29T11:02:10.789Z</time>
      </trkpt>
      <trkpt lat="64.07123" lon="20.49994">
        <ele>108.526303</ele>
        <time>2020-09-29T11:02:13.802Z</time>
      </trkpt>
      <trkpt lat="64.0711" lon="20.49992">
        <ele>108.272503</ele>
        <time>2020-09-29T11:02:16.799Z</time>
      </trkpt>
      <trkpt lat="64.07096" lon="20.49992">
        <ele>108.015084</ele>
        <time>2020-09-29T11:02:19.778Z</time>
      </trkpt>
      <trkpt lat="64.07087" lon="20.49992">
        <ele>107.837612</ele>
        <time>2020-09-29T11:02:21.799Z</time>
      </trkpt>
      <trkpt lat="64.07074" lon="20.49992">
        <ele>107.582074</ele>
        <time>2020-09-29T11:02:24.781Z</time>
      </trkpt>
      <trkpt lat="64.07061" lon="20.4999">
        <ele>107.33033</ele>
        <time>2020-09-29T11:02:27.767Z</time>
      </trkpt>
      <trkpt lat="64.07048" lon="20.4999">
        <ele>107.074839</ele>
        <time>2020-09-29T11:02:30.765Z</time>
      </trkpt>
      <trkpt lat="64.07039" lon="20.4999">
        <ele>106.897357</ele>
        <time>2020-09-29T11:02:32.764Z</time>
      </trkpt>
      <trkpt lat="64.07027" lon="20.4999">
        <ele>106.90813</ele>
        <time>2020-09-29T11:02:35.759Z</time>
      </trkpt>
      <trkpt lat="64.07014" lon="20.49988">
        <ele>107.166987</ele>
        <time>2020-09-29T11:02:38.804Z</time>
      </trkpt>
      <trkpt lat="64.07002" lon="20.49988">
        <ele>107.440378</ele>
        <time>2020-09-29T11:02:41.783Z</time>
      </trkpt>
      <trkpt lat="64.06989" lon="20.49988">
        <ele>107.713732</ele>
        <time>2020-09-29T11:02:44.778Z</time>
      </trkpt>
      <trkpt lat="64.06976" lon="20.49986">
        <ele>107.974867</ele>
        <time>2020-09-29T11:02:47.776Z</time>
      </trkpt>
      <trkpt lat="64.06963" lon="20.49983">
        <ele>108.250099</ele>
        <time>2020-09-29T11:02:50.810Z</time>
      </trkpt>
      <trkpt lat="64.06951" lon="20.49983">
        <ele>108.508589</ele>
        <time>2020-09-29T11:02:53.780Z</time>
      </trkpt>
      <trkpt lat="64.06939" lon="20.49984">
        <ele>108.765036</ele>
        <time>2020-09-29T11:02:56.771Z</time>
      </trkpt>
      <trkpt lat="64.06927" lon="20.49984">
        <ele>109.019289</ele>
        <time>2020-09-29T11:02:59.805Z</time>
      </trkpt>
      <trkpt lat="64.06915" lon="20.49984">
        <ele>109.277772</ele>
        <time>2020-09-29T11:03:02.788Z</time>
      </trkpt>
      <trkpt lat="64.06902" lon="20.49984">
        <ele>109.546864</ele>
        <time>2020-09-29T11:03:05.764Z</time>
      </trkpt>
      <trkpt lat="64.06889" lon="20.49986">
        <ele>109.820744</ele>
        <time>2020-09-29T11:03:08.814Z</time>
      </trkpt>
      <trkpt lat="64.06876" lon="20.49984">
        <ele>110.100716</ele>
        <time>2020-09-29T11:03:11.754Z</time>
      </trkpt>
      <trkpt lat="64.06863" lon="20.49982">
        <ele>110.377045</ele>
        <time>2020-09-29T11:03:14.776Z</time>
      </trkpt>
      <trkpt lat="64.0685" lon="20.49977">
        <ele>110.554562</ele>
        <time>2020-09-29T11:03:17.800Z</time>
      </trkpt>
      <trkpt lat="64.06841" lon="20.49973">
        <ele>110.457546</ele>
        <time>2020-09-29T11:03:19.790Z</time>
      </trkpt>
      <trkpt lat="64.06832" lon="20.49967">
        <ele>110.360965</ele>
        <time>2020-09-29T11:03:21.799Z</time>
      </trkpt>
      <trkpt lat="64.06823" lon="20.49962">
        <ele>110.268756</ele>
        <time>2020-09-29T11:03:23.821Z</time>
      </trkpt>
      <trkpt lat="64.06813" lon="20.49954">
        <ele>110.164399</ele>
        <time>2020-09-29T11:03:25.772Z</time>
      </trkpt>
      <trkpt lat="64.06803" lon="20.49945">
        <ele>110.0558</ele>
        <time>2020-09-29T11:03:27.784Z</time>
      </trkpt>
      <trkpt lat="64.06793" lon="20.49935">
        <ele>109.948118</ele>
        <time>2020-09-29T11:03:29.789Z</time>
      </trkpt>
      <trkpt lat="64.06784" lon="20.49925">
        <ele>109.844288</ele>
        <time>2020-09-29T11:03:31.776Z</time>
      </trkpt>
      <trkpt lat="64.06775" lon="20.49916">
        <ele>109.742489</ele>
        <time>2020-09-29T11:03:33.781Z</time>
      </trkpt>
      <trkpt lat="64.06765" lon="20.49907">
        <ele>109.639406</ele>
        <time>2020-09-29T11:03:35.782Z</time>
      </trkpt>
      <trkpt lat="64.06755" lon="20.49896">
        <ele>109.528043</ele>
        <time>2020-09-29T11:03:37.798Z</time>
      </trkpt>
      <trkpt lat="64.06745" lon="20.49885">
        <ele>109.415576</ele>
        <time>2020-09-29T11:03:39.761Z</time>
      </trkpt>
      <trkpt lat="64.06735" lon="20.49875">
        <ele>109.305684</ele>
        <time>2020-09-29T11:03:41.788Z</time>
      </trkpt>
      <trkpt lat="64.06726" lon="20.49864">
        <ele>109.194097</ele>
        <time>2020-09-29T11:03:43.809Z</time>
      </trkpt>
      <trkpt lat="64.06716" lon="20.49852">
        <ele>109.081801</ele>
        <time>2020-09-29T11:03:45.768Z</time>
      </trkpt>
      <trkpt lat="64.06706" lon="20.49842">
        <ele>108.970622</ele>
        <time>2020-09-29T11:03:47.782Z</time>
      </trkpt>
      <trkpt lat="64.06695" lon="20.49831">
        <ele>108.855568</ele>
        <time>2020-09-29T11:03:49.792Z</time>
      </trkpt>
      <trkpt lat="64.06685" lon="20.4982">
        <ele>108.717751</ele>
        <time>2020-09-29T11:03:51.770Z</time>
      </trkpt>
      <trkpt lat="64.06675" lon="20.49809">
        <ele>108.520211</ele>
        <time>2020-09-29T11:03:53.772Z</time>
      </trkpt>
      <trkpt lat="64.06664" lon="20.49799">
        <ele>108.324404</ele>
        <time>2020-09-29T11:03:55.765Z</time>
      </trkpt>
      <trkpt lat="64.06654" lon="20.49788">
        <ele>108.130477</ele>
        <time>2020-09-29T11:03:57.811Z</time>
      </trkpt>
      <trkpt lat="64.06644" lon="20.49776">
        <ele>107.935849</ele>
        <time>2020-09-29T11:03:59.835Z</time>
      </trkpt>
      <trkpt lat="64.06635" lon="20.49764">
        <ele>107.746203</ele>
        <time>2020-09-29T11:04:01.768Z</time>
      </trkpt>
      <trkpt lat="64.06626" lon="20.49753">
        <ele>107.567208</ele>
        <time>2020-09-29T11:04:03.806Z</time>
      </trkpt>
      <trkpt lat="64.06617" lon="20.49742">
        <ele>107.395709</ele>
        <time>2020-09-29T11:04:05.788Z</time>
      </trkpt>
      <trkpt lat="64.06608" lon="20.49733">
        <ele>107.226971</ele>
        <time>2020-09-29T11:04:07.778Z</time>
      </trkpt>
      <trkpt lat="64.066" lon="20.49722">
        <ele>107.053929</ele>
        <time>2020-09-29T11:04:09.760Z</time>
      </trkpt>
      <trkpt lat="64.06591" lon="20.49712">
        <ele>106.877917</ele>
        <time>2020-09-29T11:04:11.843Z</time>
      </trkpt>
      <trkpt lat="64.06582" lon="20.49702">
        <ele>106.704463</ele>
        <time>2020-09-29T11:04:13.769Z</time>
      </trkpt>
      <trkpt lat="64.06573" lon="20.49693">
        <ele>106.53419</ele>
        <time>2020-09-29T11:04:15.759Z</time>
      </trkpt>
      <trkpt lat="64.06564" lon="20.49684">
        <ele>106.359477</ele>
        <time>2020-09-29T11:04:17.768Z</time>
      </trkpt>
      <trkpt lat="64.06554" lon="20.49674">
        <ele>106.181906</ele>
        <time>2020-09-29T11:04:19.807Z</time>
      </trkpt>
      <trkpt lat="64.06545" lon="20.49664">
        <ele>106.002119</ele>
        <time>2020-09-29T11:04:21.803Z</time>
      </trkpt>
      <trkpt lat="64.06535" lon="20.49655">
        <ele>105.822644</ele>
        <time>2020-09-29T11:04:23.770Z</time>
      </trkpt>
      <trkpt lat="64.06526" lon="20.49645">
        <ele>105.646632</ele>
        <time>2020-09-29T11:04:25.766Z</time>
      </trkpt>
      <trkpt lat="64.06517" lon="20.49634">
        <ele>105.435044</ele>
        <time>2020-09-29T11:04:27.771Z</time>
      </trkpt>
      <trkpt lat="64.06509" lon="20.49624">
        <ele>105.224689</ele>
        <time>2020-09-29T11:04:29.800Z</time>
      </trkpt>
      <trkpt lat="64.065" lon="20.49615">
        <ele>105.015852</ele>
        <time>2020-09-29T11:04:31.771Z</time>
      </trkpt>
      <trkpt lat="64.06491" lon="20.49605">
        <ele>104.808225</ele>
        <time>2020-09-29T11:04:33.787Z</time>
      </trkpt>
      <trkpt lat="64.06483" lon="20.49595">
        <ele>104.607448</ele>
        <time>2020-09-29T11:04:35.813Z</time>
      </trkpt>
      <trkpt lat="64.06474" lon="20.49586">
        <ele>104.40983</ele>
        <time>2020-09-29T11:04:37.829Z</time>
      </trkpt>
      <trkpt lat="64.06466" lon="20.49576">
        <ele>104.20588</ele>
        <time>2020-09-29T11:04:39.788Z</time>
      </trkpt>
      <trkpt lat="64.06457" lon="20.49566">
        <ele>103.993056</ele>
        <time>2020-09-29T11:04:41.778Z</time>
      </trkpt>
      <trkpt lat="64.06448" lon="20.49556">
        <ele>103.789106</ele>
        <time>2020-09-29T11:04:43.783Z</time>
      </trkpt>
      <trkpt lat="64.0644" lon="20.49546">
        <ele>103.591073</ele>
        <time>2020-09-29T11:04:45.778Z</time>
      </trkpt>
      <trkpt lat="64.06432" lon="20.49537">
        <ele>103.394681</ele>
        <time>2020-09-29T11:04:47.777Z</time>
      </trkpt>
      <trkpt lat="64.06424" lon="20.49528">
        <ele>103.201812</ele>
        <time>2020-09-29T11:04:49.802Z</time>
      </trkpt>
      <trkpt lat="64.06416" lon="20.49519">
        <ele>103.010334</ele>
        <time>2020-09-29T11:04:51.779Z</time>
      </trkpt>
      <trkpt lat="64.06404" lon="20.49506">
        <ele>102.725405</ele>
        <time>2020-09-29T11:04:54.787Z</time>
      </trkpt>
      <trkpt lat="64.06395" lon="20.49495">
        <ele>102.523918</ele>
        <time>2020-09-29T11:04:56.792Z</time>
      </trkpt>
      <trkpt lat="64.06387" lon="20.49485">
        <ele>102.318068</ele>
        <time>2020-09-29T11:04:58.829Z</time>
      </trkpt>
      <trkpt lat="64.06378" lon="20.49476">
        <ele>102.110439</ele>
        <time>2020-09-29T11:05:00.780Z</time>
      </trkpt>
      <trkpt lat="64.06369" lon="20.49467">
        <ele>101.907863</ele>
        <time>2020-09-29T11:05:02.824Z</time>
      </trkpt>
      <trkpt lat="64.06361" lon="20.49458">
        <ele>101.838198</ele>
        <time>2020-09-29T11:05:04.793Z</time>
      </trkpt>
      <trkpt lat="64.06351" lon="20.49449">
        <ele>101.94732</ele>
        <time>2020-09-29T11:05:06.773Z</time>
      </trkpt>
      <trkpt lat="64.06343" lon="20.49441">
        <ele>102.048931</ele>
        <time>2020-09-29T11:05:08.787Z</time>
      </trkpt>
      <trkpt lat="64.06335" lon="20.49432">
        <ele>102.148537</ele>
        <time>2020-09-29T11:05:10.863Z</time>
      </trkpt>
      <trkpt lat="64.06326" lon="20.49423">
        <ele>102.250685</ele>
        <time>2020-09-29T11:05:12.778Z</time>
      </trkpt>
      <trkpt lat="64.06318" lon="20.49413">
        <ele>102.35288</ele>
        <time>2020-09-29T11:05:14.777Z</time>
      </trkpt>
      <trkpt lat="64.0631" lon="20.49404">
        <ele>102.451088</ele>
        <time>2020-09-29T11:05:16.779Z</time>
      </trkpt>
      <trkpt lat="64.06301" lon="20.49395">
        <ele>102.551675</ele>
        <time>2020-09-29T11:05:18.771Z</time>
      </trkpt>
      <trkpt lat="64.0629" lon="20.49382">
        <ele>102.693401</ele>
        <time>2020-09-29T11:05:21.803Z</time>
      </trkpt>
      <trkpt lat="64.06278" lon="20.49369">
        <ele>102.836614</ele>
        <time>2020-09-29T11:05:24.799Z</time>
      </trkpt>
      <trkpt lat="64.06266" lon="20.49356">
        <ele>102.981479</ele>
        <time>2020-09-29T11:05:27.766Z</time>
      </trkpt>
      <trkpt lat="64.06254" lon="20.49342">
        <ele>103.124519</ele>
        <time>2020-09-29T11:05:30.773Z</time>
      </trkpt>
      <trkpt lat="64.06243" lon="20.4933">
        <ele>103.263559</ele>
        <time>2020-09-29T11:05:33.776Z</time>
      </trkpt>
      <trkpt lat="64.06232" lon="20.49317">
        <ele>103.398072</ele>
        <time>2020-09-29T11:05:36.779Z</time>
      </trkpt>
      <trkpt lat="64.0622" lon="20.49304">
        <ele>103.538826</ele>
        <time>2020-09-29T11:05:39.812Z</time>
      </trkpt>
      <trkpt lat="64.06209" lon="20.49291">
        <ele>103.677115</ele>
        <time>2020-09-29T11:05:42.769Z</time>
      </trkpt>
      <trkpt lat="64.06197" lon="20.49278">
        <ele>103.78356</ele>
        <time>2020-09-29T11:05:45.788Z</time>
      </trkpt>
      <trkpt lat="64.06186" lon="20.49265">
        <ele>103.851422</ele>
        <time>2020-09-29T11:05:48.780Z</time>
      </trkpt>
      <trkpt lat="64.06175" lon="20.49251">
        <ele>103.918525</ele>
        <time>2020-09-29T11:05:51.789Z</time>
      </trkpt>
      <trkpt lat="64.06163" lon="20.4924">
        <ele>103.983302</ele>
        <time>2020-09-29T11:05:54.769Z</time>
      </trkpt>
      <trkpt lat="64.06152" lon="20.49226">
        <ele>104.051837</ele>
        <time>2020-09-29T11:05:57.811Z</time>
      </trkpt>
      <trkpt lat="64.0614" lon="20.49214">
        <ele>104.120132</ele>
        <time>2020-09-29T11:06:00.795Z</time>
      </trkpt>
      <trkpt lat="64.06128" lon="20.49202">
        <ele>104.186334</ele>
        <time>2020-09-29T11:06:03.772Z</time>
      </trkpt>
      <trkpt lat="64.06117" lon="20.4919">
        <ele>104.252537</ele>
        <time>2020-09-29T11:06:06.771Z</time>
      </trkpt>
      <trkpt lat="64.06105" lon="20.49178">
        <ele>104.319026</ele>
        <time>2020-09-29T11:06:09.781Z</time>
      </trkpt>
      <trkpt lat="64.06094" lon="20.49165">
        <ele>104.383062</ele>
        <time>2020-09-29T11:06:12.810Z</time>
      </trkpt>
      <trkpt lat="64.06083" lon="20.49152">
        <ele>104.445966</ele>
        <time>2020-09-29T11:06:15.784Z</time>
      </trkpt>
      <trkpt lat="64.06073" lon="20.49141">
        <ele>104.505747</ele>
        <time>2020-09-29T11:06:18.770Z</time>
      </trkpt>
      <trkpt lat="64.06063" lon="20.49129">
        <ele>104.566814</ele>
        <time>2020-09-29T11:06:21.791Z</time>
      </trkpt>
      <trkpt lat="64.06052" lon="20.49116">
        <ele>104.630965</ele>
        <time>2020-09-29T11:06:24.812Z</time>
      </trkpt>
      <trkpt lat="64.06041" lon="20.49104">
        <ele>104.693337</ele>
        <time>2020-09-29T11:06:27.779Z</time>
      </trkpt>
      <trkpt lat="64.0603" lon="20.49092">
        <ele>104.905109</ele>
        <time>2020-09-29T11:06:30.778Z</time>
      </trkpt>
      <trkpt lat="64.06019" lon="20.4908">
        <ele>105.129143</ele>
        <time>2020-09-29T11:06:33.787Z</time>
      </trkpt>
      <trkpt lat="64.06008" lon="20.49067">
        <ele>105.361232</ele>
        <time>2020-09-29T11:06:36.778Z</time>
      </trkpt>
      <trkpt lat="64.05997" lon="20.49054">
        <ele>105.579664</ele>
        <time>2020-09-29T11:06:39.779Z</time>
      </trkpt>
      <trkpt lat="64.05986" lon="20.49043">
        <ele>105.795415</ele>
        <time>2020-09-29T11:06:42.780Z</time>
      </trkpt>
      <trkpt lat="64.05976" lon="20.49033">
        <ele>106.001415</ele>
        <time>2020-09-29T11:06:45.768Z</time>
      </trkpt>
      <trkpt lat="64.05966" lon="20.49023">
        <ele>106.201942</ele>
        <time>2020-09-29T11:06:48.788Z</time>
      </trkpt>
      <trkpt lat="64.05955" lon="20.49014">
        <ele>106.413294</ele>
        <time>2020-09-29T11:06:51.770Z</time>
      </trkpt>
      <trkpt lat="64.05944" lon="20.49003">
        <ele>106.625374</ele>
        <time>2020-09-29T11:06:54.779Z</time>
      </trkpt>
      <trkpt lat="64.05935" lon="20.48993">
        <ele>106.819628</ele>
        <time>2020-09-29T11:06:57.764Z</time>
      </trkpt>
      <trkpt lat="64.05926" lon="20.48983">
        <ele>106.997118</ele>
        <time>2020-09-29T11:07:00.808Z</time>
      </trkpt>
      <trkpt lat="64.05917" lon="20.48971">
        <ele>107.185069</ele>
        <time>2020-09-29T11:07:03.784Z</time>
      </trkpt>
      <trkpt lat="64.05907" lon="20.48962">
        <ele>107.379697</ele>
        <time>2020-09-29T11:07:06.772Z</time>
      </trkpt>
      <trkpt lat="64.05898" lon="20.48954">
        <ele>107.563282</ele>
        <time>2020-09-29T11:07:09.768Z</time>
      </trkpt>
      <trkpt lat="64.05888" lon="20.48946">
        <ele>107.75006</ele>
        <time>2020-09-29T11:07:12.787Z</time>
      </trkpt>
      <trkpt lat="64.05878" lon="20.48937">
        <ele>107.942423</ele>
        <time>2020-09-29T11:07:15.783Z</time>
      </trkpt>
      <trkpt lat="64.05868" lon="20.4893">
        <ele>108.208089</ele>
        <time>2020-09-29T11:07:18.786Z</time>
      </trkpt>
      <trkpt lat="64.05859" lon="20.48923">
        <ele>108.474657</ele>
        <time>2020-09-29T11:07:21.787Z</time>
      </trkpt>
      <trkpt lat="64.05849" lon="20.48916">
        <ele>108.746534</ele>
        <time>2020-09-29T11:07:24.775Z</time>
      </trkpt>
      <trkpt lat="64.05838" lon="20.48911">
        <ele>109.035126</ele>
        <time>2020-09-29T11:07:27.766Z</time>
      </trkpt>
      <trkpt lat="64.05827" lon="20.48906">
        <ele>109.340583</ele>
        <time>2020-09-29T11:07:30.802Z</time>
      </trkpt>
      <trkpt lat="64.05817" lon="20.48898">
        <ele>109.634389</ele>
        <time>2020-09-29T11:07:33.791Z</time>
      </trkpt>
      <trkpt lat="64.05807" lon="20.48891">
        <ele>109.915915</ele>
        <time>2020-09-29T11:07:36.800Z</time>
      </trkpt>
      <trkpt lat="64.05797" lon="20.48885">
        <ele>110.191444</ele>
        <time>2020-09-29T11:07:39.782Z</time>
      </trkpt>
      <trkpt lat="64.05787" lon="20.4888">
        <ele>110.45911</ele>
        <time>2020-09-29T11:07:42.770Z</time>
      </trkpt>
      <trkpt lat="64.05777" lon="20.48877">
        <ele>110.729653</ele>
        <time>2020-09-29T11:07:45.761Z</time>
      </trkpt>
      <trkpt lat="64.05768" lon="20.48872">
        <ele>110.976736</ele>
        <time>2020-09-29T11:07:48.809Z</time>
      </trkpt>
      <trkpt lat="64.05759" lon="20.48867">
        <ele>111.22382</ele>
        <time>2020-09-29T11:07:51.769Z</time>
      </trkpt>
      <trkpt lat="64.05749" lon="20.48862">
        <ele>111.486517</ele>
        <time>2020-09-29T11:07:54.776Z</time>
      </trkpt>
      <trkpt lat="64.05739" lon="20.48856">
        <ele>111.764076</ele>
        <time>2020-09-29T11:07:57.767Z</time>
      </trkpt>
      <trkpt lat="64.05728" lon="20.48849">
        <ele>112.067747</ele>
        <time>2020-09-29T11:08:00.787Z</time>
      </trkpt>
      <trkpt lat="64.05718" lon="20.48843">
        <ele>112.345305</ele>
        <time>2020-09-29T11:08:03.796Z</time>
      </trkpt>
      <trkpt lat="64.05708" lon="20.48838">
        <ele>112.624663</ele>
        <time>2020-09-29T11:08:06.782Z</time>
      </trkpt>
      <trkpt lat="64.05697" lon="20.48832">
        <ele>112.712504</ele>
        <time>2020-09-29T11:08:09.770Z</time>
      </trkpt>
      <trkpt lat="64.05686" lon="20.48826">
        <ele>112.598733</ele>
        <time>2020-09-29T11:08:12.779Z</time>
      </trkpt>
      <trkpt lat="64.05675" lon="20.48821">
        <ele>112.477855</ele>
        <time>2020-09-29T11:08:15.790Z</time>
      </trkpt>
      <trkpt lat="64.05663" lon="20.48814">
        <ele>112.353055</ele>
        <time>2020-09-29T11:08:18.799Z</time>
      </trkpt>
      <trkpt lat="64.05651" lon="20.48807">
        <ele>112.22693</ele>
        <time>2020-09-29T11:08:21.796Z</time>
      </trkpt>
      <trkpt lat="64.05639" lon="20.48801">
        <ele>112.101751</ele>
        <time>2020-09-29T11:08:24.790Z</time>
      </trkpt>
      <trkpt lat="64.05627" lon="20.48795">
        <ele>111.977574</ele>
        <time>2020-09-29T11:08:27.791Z</time>
      </trkpt>
      <trkpt lat="64.05615" lon="20.48788">
        <ele>111.849992</ele>
        <time>2020-09-29T11:08:30.802Z</time>
      </trkpt>
      <trkpt lat="64.05603" lon="20.48783">
        <ele>111.7195</ele>
        <time>2020-09-29T11:08:33.772Z</time>
      </trkpt>
      <trkpt lat="64.0559" lon="20.48777">
        <ele>111.590769</ele>
        <time>2020-09-29T11:08:36.781Z</time>
      </trkpt>
      <trkpt lat="64.05578" lon="20.4877">
        <ele>111.462764</ele>
        <time>2020-09-29T11:08:39.770Z</time>
      </trkpt>
      <trkpt lat="64.05566" lon="20.48764">
        <ele>111.338385</ele>
        <time>2020-09-29T11:08:42.777Z</time>
      </trkpt>
      <trkpt lat="64.05555" lon="20.48758">
        <ele>111.216897</ele>
        <time>2020-09-29T11:08:45.765Z</time>
      </trkpt>
      <trkpt lat="64.05544" lon="20.48751">
        <ele>111.099172</ele>
        <time>2020-09-29T11:08:48.818Z</time>
      </trkpt>
      <trkpt lat="64.05532" lon="20.48744">
        <ele>110.977133</ele>
        <time>2020-09-29T11:08:51.760Z</time>
      </trkpt>
      <trkpt lat="64.05521" lon="20.48738">
        <ele>110.850473</ele>
        <time>2020-09-29T11:08:54.774Z</time>
      </trkpt>
      <trkpt lat="64.0551" lon="20.48732">
        <ele>110.723611</ele>
        <time>2020-09-29T11:08:57.780Z</time>
      </trkpt>
      <trkpt lat="64.05499" lon="20.48725">
        <ele>110.592501</ele>
        <time>2020-09-29T11:09:00.795Z</time>
      </trkpt>
      <trkpt lat="64.05488" lon="20.48721">
        <ele>110.468399</ele>
        <time>2020-09-29T11:09:03.792Z</time>
      </trkpt>
      <trkpt lat="64.05477" lon="20.48715">
        <ele>110.338988</ele>
        <time>2020-09-29T11:09:06.798Z</time>
      </trkpt>
      <trkpt lat="64.05466" lon="20.48709">
        <ele>110.207485</ele>
        <time>2020-09-29T11:09:09.775Z</time>
      </trkpt>
      <trkpt lat="64.05455" lon="20.48703">
        <ele>110.077308</ele>
        <time>2020-09-29T11:09:12.785Z</time>
      </trkpt>
      <trkpt lat="64.05443" lon="20.48697">
        <ele>109.939483</ele>
        <time>2020-09-29T11:09:15.790Z</time>
      </trkpt>
      <trkpt lat="64.05432" lon="20.48691">
        <ele>109.812507</ele>
        <time>2020-09-29T11:09:18.783Z</time>
      </trkpt>
      <trkpt lat="64.05422" lon="20.48684">
        <ele>109.692474</ele>
        <time>2020-09-29T11:09:21.767Z</time>
      </trkpt>
      <trkpt lat="64.05411" lon="20.48679">
        <ele>109.568368</ele>
        <time>2020-09-29T11:09:24.776Z</time>
      </trkpt>
      <trkpt lat="64.054" lon="20.48673">
        <ele>109.441041</ele>
        <time>2020-09-29T11:09:27.773Z</time>
      </trkpt>
      <trkpt lat="64.05388" lon="20.48667">
        <ele>109.306748</ele>
        <time>2020-09-29T11:09:30.767Z</time>
      </trkpt>
      <trkpt lat="64.05376" lon="20.4866">
        <ele>109.159001</ele>
        <time>2020-09-29T11:09:33.807Z</time>
      </trkpt>
      <trkpt lat="64.05363" lon="20.48655">
        <ele>109.007248</ele>
        <time>2020-09-29T11:09:36.773Z</time>
      </trkpt>
      <trkpt lat="64.05354" lon="20.4865">
        <ele>108.903239</ele>
        <time>2020-09-29T11:09:38.806Z</time>
      </trkpt>
      <trkpt lat="64.05344" lon="20.48645">
        <ele>108.63459</ele>
        <time>2020-09-29T11:09:40.773Z</time>
      </trkpt>
      <trkpt lat="64.05334" lon="20.48639">
        <ele>108.323633</ele>
        <time>2020-09-29T11:09:42.781Z</time>
      </trkpt>
      <trkpt lat="64.05324" lon="20.48634">
        <ele>108.013324</ele>
        <time>2020-09-29T11:09:44.779Z</time>
      </trkpt>
      <trkpt lat="64.05314" lon="20.48628">
        <ele>107.706255</ele>
        <time>2020-09-29T11:09:46.773Z</time>
      </trkpt>
      <trkpt lat="64.05304" lon="20.48623">
        <ele>107.399809</ele>
        <time>2020-09-29T11:09:48.784Z</time>
      </trkpt>
      <trkpt lat="64.05294" lon="20.48617">
        <ele>107.093665</ele>
        <time>2020-09-29T11:09:50.814Z</time>
      </trkpt>
      <trkpt lat="64.05285" lon="20.48612">
        <ele>106.795997</ele>
        <time>2020-09-29T11:09:52.780Z</time>
      </trkpt>
      <trkpt lat="64.05275" lon="20.48607">
        <ele>106.501876</ele>
        <time>2020-09-29T11:09:54.814Z</time>
      </trkpt>
      <trkpt lat="64.05266" lon="20.48601">
        <ele>106.206483</ele>
        <time>2020-09-29T11:09:56.773Z</time>
      </trkpt>
      <trkpt lat="64.05256" lon="20.48595">
        <ele>105.910758</ele>
        <time>2020-09-29T11:09:58.787Z</time>
      </trkpt>
      <trkpt lat="64.05247" lon="20.48591">
        <ele>105.618912</ele>
        <time>2020-09-29T11:10:00.813Z</time>
      </trkpt>
      <trkpt lat="64.05238" lon="20.48586">
        <ele>105.340043</ele>
        <time>2020-09-29T11:10:02.776Z</time>
      </trkpt>
      <trkpt lat="64.05229" lon="20.48581">
        <ele>105.063782</ele>
        <time>2020-09-29T11:10:04.779Z</time>
      </trkpt>
      <trkpt lat="64.0522" lon="20.48576">
        <ele>104.795212</ele>
        <time>2020-09-29T11:10:06.803Z</time>
      </trkpt>
      <trkpt lat="64.05211" lon="20.48572">
        <ele>104.521047</ele>
        <time>2020-09-29T11:10:08.839Z</time>
      </trkpt>
      <trkpt lat="64.05202" lon="20.48567">
        <ele>104.249249</ele>
        <time>2020-09-29T11:10:10.783Z</time>
      </trkpt>
      <trkpt lat="64.05189" lon="20.48561">
        <ele>103.841843</ele>
        <time>2020-09-29T11:10:13.781Z</time>
      </trkpt>
      <trkpt lat="64.0518" lon="20.48556">
        <ele>103.555626</ele>
        <time>2020-09-29T11:10:15.778Z</time>
      </trkpt>
      <trkpt lat="64.05171" lon="20.48553">
        <ele>103.408718</ele>
        <time>2020-09-29T11:10:17.787Z</time>
      </trkpt>
      <trkpt lat="64.05162" lon="20.4855">
        <ele>103.315275</ele>
        <time>2020-09-29T11:10:19.779Z</time>
      </trkpt>
      <trkpt lat="64.05152" lon="20.48547">
        <ele>103.219198</ele>
        <time>2020-09-29T11:10:21.790Z</time>
      </trkpt>
      <trkpt lat="64.05143" lon="20.48544">
        <ele>103.127486</ele>
        <time>2020-09-29T11:10:23.775Z</time>
      </trkpt>
      <trkpt lat="64.05133" lon="20.48542">
        <ele>103.035448</ele>
        <time>2020-09-29T11:10:25.789Z</time>
      </trkpt>
      <trkpt lat="64.05124" lon="20.48541">
        <ele>102.943587</ele>
        <time>2020-09-29T11:10:27.789Z</time>
      </trkpt>
      <trkpt lat="64.05114" lon="20.4854">
        <ele>102.846735</ele>
        <time>2020-09-29T11:10:29.781Z</time>
      </trkpt>
      <trkpt lat="64.05104" lon="20.48538">
        <ele>102.748791</ele>
        <time>2020-09-29T11:10:31.815Z</time>
      </trkpt>
      <trkpt lat="64.05094" lon="20.48537">
        <ele>102.649041</ele>
        <time>2020-09-29T11:10:33.783Z</time>
      </trkpt>
      <trkpt lat="64.05084" lon="20.48537">
        <ele>102.547379</ele>
        <time>2020-09-29T11:10:35.775Z</time>
      </trkpt>
      <trkpt lat="64.05074" lon="20.48535">
        <ele>102.446385</ele>
        <time>2020-09-29T11:10:37.781Z</time>
      </trkpt>
      <trkpt lat="64.05064" lon="20.48533">
        <ele>102.347109</ele>
        <time>2020-09-29T11:10:39.807Z</time>
      </trkpt>
      <trkpt lat="64.05054" lon="20.48532">
        <ele>102.251285</ele>
        <time>2020-09-29T11:10:41.797Z</time>
      </trkpt>
      <trkpt lat="64.05044" lon="20.4853">
        <ele>102.155244</ele>
        <time>2020-09-29T11:10:43.770Z</time>
      </trkpt>
      <trkpt lat="64.05035" lon="20.48528">
        <ele>102.062153</ele>
        <time>2020-09-29T11:10:45.779Z</time>
      </trkpt>
      <trkpt lat="64.05025" lon="20.48526">
        <ele>101.967129</ele>
        <time>2020-09-29T11:10:47.827Z</time>
      </trkpt>
      <trkpt lat="64.05016" lon="20.48525">
        <ele>101.873153</ele>
        <time>2020-09-29T11:10:49.786Z</time>
      </trkpt>
      <trkpt lat="64.05003" lon="20.48523">
        <ele>101.740732</ele>
        <time>2020-09-29T11:10:52.778Z</time>
      </trkpt>
      <trkpt lat="64.04993" lon="20.48523">
        <ele>101.792922</ele>
        <time>2020-09-29T11:10:54.822Z</time>
      </trkpt>
      <trkpt lat="64.0498" lon="20.48521">
        <ele>102.071646</ele>
        <time>2020-09-29T11:10:57.773Z</time>
      </trkpt>
      <trkpt lat="64.04967" lon="20.4852">
        <ele>102.345829</ele>
        <time>2020-09-29T11:11:00.773Z</time>
      </trkpt>
      <trkpt lat="64.04954" lon="20.48517">
        <ele>102.616773</ele>
        <time>2020-09-29T11:11:03.792Z</time>
      </trkpt>
      <trkpt lat="64.04941" lon="20.48516">
        <ele>102.895442</ele>
        <time>2020-09-29T11:11:06.787Z</time>
      </trkpt>
      <trkpt lat="64.04932" lon="20.48513">
        <ele>103.086744</ele>
        <time>2020-09-29T11:11:08.781Z</time>
      </trkpt>
      <trkpt lat="64.04923" lon="20.48512">
        <ele>103.277641</ele>
        <time>2020-09-29T11:11:10.793Z</time>
      </trkpt>
      <trkpt lat="64.04913" lon="20.4851">
        <ele>103.47258</ele>
        <time>2020-09-29T11:11:12.770Z</time>
      </trkpt>
      <trkpt lat="64.04904" lon="20.4851">
        <ele>103.671452</ele>
        <time>2020-09-29T11:11:14.783Z</time>
      </trkpt>
      <trkpt lat="64.04891" lon="20.48507">
        <ele>103.946188</ele>
        <time>2020-09-29T11:11:17.788Z</time>
      </trkpt>
      <trkpt lat="64.04878" lon="20.48505">
        <ele>104.214738</ele>
        <time>2020-09-29T11:11:20.786Z</time>
      </trkpt>
      <trkpt lat="64.04865" lon="20.48502">
        <ele>104.47935</ele>
        <time>2020-09-29T11:11:23.762Z</time>
      </trkpt>
      <trkpt lat="64.04853" lon="20.48501">
        <ele>104.743247</ele>
        <time>2020-09-29T11:11:26.829Z</time>
      </trkpt>
      <trkpt lat="64.0484" lon="20.485">
        <ele>105.004966</ele>
        <time>2020-09-29T11:11:29.772Z</time>
      </trkpt>
      <trkpt lat="64.04827" lon="20.48498">
        <ele>105.270864</ele>
        <time>2020-09-29T11:11:32.772Z</time>
      </trkpt>
      <trkpt lat="64.04815" lon="20.48497">
        <ele>105.640146</ele>
        <time>2020-09-29T11:11:35.802Z</time>
      </trkpt>
      <trkpt lat="64.04804" lon="20.48497">
        <ele>106.257192</ele>
        <time>2020-09-29T11:11:38.783Z</time>
      </trkpt>
      <trkpt lat="64.04793" lon="20.48496">
        <ele>106.858036</ele>
        <time>2020-09-29T11:11:41.826Z</time>
      </trkpt>
      <trkpt lat="64.04782" lon="20.48494">
        <ele>107.464902</ele>
        <time>2020-09-29T11:11:44.809Z</time>
      </trkpt>
      <trkpt lat="64.04771" lon="20.48493">
        <ele>108.093725</ele>
        <time>2020-09-29T11:11:47.784Z</time>
      </trkpt>
      <trkpt lat="64.0476" lon="20.48491">
        <ele>108.712481</ele>
        <time>2020-09-29T11:11:50.796Z</time>
      </trkpt>
      <trkpt lat="64.04749" lon="20.48489">
        <ele>109.314255</ele>
        <time>2020-09-29T11:11:53.788Z</time>
      </trkpt>
      <trkpt lat="64.04738" lon="20.48487">
        <ele>109.933814</ele>
        <time>2020-09-29T11:11:56.796Z</time>
      </trkpt>
      <trkpt lat="64.04728" lon="20.48485">
        <ele>110.513774</ele>
        <time>2020-09-29T11:11:59.770Z</time>
      </trkpt>
      <trkpt lat="64.04717" lon="20.48484">
        <ele>111.093367</ele>
        <time>2020-09-29T11:12:02.779Z</time>
      </trkpt>
      <trkpt lat="64.04706" lon="20.48482">
        <ele>111.717851</ele>
        <time>2020-09-29T11:12:05.781Z</time>
      </trkpt>
      <trkpt lat="64.04695" lon="20.48479">
        <ele>112.333376</ele>
        <time>2020-09-29T11:12:08.857Z</time>
      </trkpt>
      <trkpt lat="64.04683" lon="20.48476">
        <ele>112.997664</ele>
        <time>2020-09-29T11:12:11.786Z</time>
      </trkpt>
      <trkpt lat="64.04672" lon="20.48475">
        <ele>113.609829</ele>
        <time>2020-09-29T11:12:14.773Z</time>
      </trkpt>
      <trkpt lat="64.04661" lon="20.48472">
        <ele>114.231158</ele>
        <time>2020-09-29T11:12:17.783Z</time>
      </trkpt>
      <trkpt lat="64.0465" lon="20.48469">
        <ele>114.862985</ele>
        <time>2020-09-29T11:12:20.779Z</time>
      </trkpt>
      <trkpt lat="64.04639" lon="20.48469">
        <ele>115.456547</ele>
        <time>2020-09-29T11:12:23.790Z</time>
      </trkpt>
      <trkpt lat="64.04627" lon="20.48469">
        <ele>115.464486</ele>
        <time>2020-09-29T11:12:26.782Z</time>
      </trkpt>
      <trkpt lat="64.04617" lon="20.48469">
        <ele>115.471999</ele>
        <time>2020-09-29T11:12:29.768Z</time>
      </trkpt>
      <trkpt lat="64.04605" lon="20.48468">
        <ele>115.480364</ele>
        <time>2020-09-29T11:12:32.768Z</time>
      </trkpt>
      <trkpt lat="64.04593" lon="20.48467">
        <ele>115.488589</ele>
        <time>2020-09-29T11:12:35.818Z</time>
      </trkpt>
      <trkpt lat="64.04582" lon="20.48466">
        <ele>115.496751</ele>
        <time>2020-09-29T11:12:38.800Z</time>
      </trkpt>
      <trkpt lat="64.0457" lon="20.48463">
        <ele>115.505455</ele>
        <time>2020-09-29T11:12:41.769Z</time>
      </trkpt>
      <trkpt lat="64.04557" lon="20.48462">
        <ele>115.51446</ele>
        <time>2020-09-29T11:12:44.818Z</time>
      </trkpt>
      <trkpt lat="64.04544" lon="20.48459">
        <ele>115.5235</ele>
        <time>2020-09-29T11:12:47.798Z</time>
      </trkpt>
      <trkpt lat="64.04535" lon="20.48456">
        <ele>115.530082</ele>
        <time>2020-09-29T11:12:49.775Z</time>
      </trkpt>
      <trkpt lat="64.04526" lon="20.48455">
        <ele>115.536686</ele>
        <time>2020-09-29T11:12:51.835Z</time>
      </trkpt>
      <trkpt lat="64.04517" lon="20.48454">
        <ele>115.543216</ele>
        <time>2020-09-29T11:12:53.786Z</time>
      </trkpt>
      <trkpt lat="64.04505" lon="20.48453">
        <ele>115.551583</ele>
        <time>2020-09-29T11:12:56.796Z</time>
      </trkpt>
      <trkpt lat="64.04494" lon="20.48452">
        <ele>115.559385</ele>
        <time>2020-09-29T11:12:59.781Z</time>
      </trkpt>
      <trkpt lat="64.04482" lon="20.48449">
        <ele>115.568022</ele>
        <time>2020-09-29T11:13:02.786Z</time>
      </trkpt>
      <trkpt lat="64.04469" lon="20.48446">
        <ele>115.577124</ele>
        <time>2020-09-29T11:13:05.805Z</time>
      </trkpt>
      <trkpt lat="64.04456" lon="20.48445">
        <ele>115.351782</ele>
        <time>2020-09-29T11:13:08.793Z</time>
      </trkpt>
      <trkpt lat="64.04442" lon="20.48444">
        <ele>114.593434</ele>
        <time>2020-09-29T11:13:11.772Z</time>
      </trkpt>
      <trkpt lat="64.04433" lon="20.48444">
        <ele>114.066874</ele>
        <time>2020-09-29T11:13:13.789Z</time>
      </trkpt>
      <trkpt lat="64.04424" lon="20.48444">
        <ele>113.552098</ele>
        <time>2020-09-29T11:13:15.786Z</time>
      </trkpt>
      <trkpt lat="64.04414" lon="20.48442">
        <ele>113.002706</ele>
        <time>2020-09-29T11:13:17.775Z</time>
      </trkpt>
      <trkpt lat="64.04404" lon="20.48441">
        <ele>112.44725</ele>
        <time>2020-09-29T11:13:19.787Z</time>
      </trkpt>
      <trkpt lat="64.04394" lon="20.48439">
        <ele>111.874358</ele>
        <time>2020-09-29T11:13:21.763Z</time>
      </trkpt>
      <trkpt lat="64.04384" lon="20.48437">
        <ele>111.306718</ele>
        <time>2020-09-29T11:13:23.769Z</time>
      </trkpt>
      <trkpt lat="64.04374" lon="20.48435">
        <ele>110.749428</ele>
        <time>2020-09-29T11:13:25.795Z</time>
      </trkpt>
      <trkpt lat="64.04364" lon="20.48433">
        <ele>110.159033</ele>
        <time>2020-09-29T11:13:27.801Z</time>
      </trkpt>
      <trkpt lat="64.04354" lon="20.48432">
        <ele>109.570385</ele>
        <time>2020-09-29T11:13:29.785Z</time>
      </trkpt>
      <trkpt lat="64.04343" lon="20.48431">
        <ele>108.969103</ele>
        <time>2020-09-29T11:13:31.789Z</time>
      </trkpt>
      <trkpt lat="64.04332" lon="20.48429">
        <ele>108.357178</ele>
        <time>2020-09-29T11:13:33.778Z</time>
      </trkpt>
      <trkpt lat="64.04321" lon="20.48428">
        <ele>107.739606</ele>
        <time>2020-09-29T11:13:35.791Z</time>
      </trkpt>
      <trkpt lat="64.0431" lon="20.48425">
        <ele>107.097848</ele>
        <time>2020-09-29T11:13:37.778Z</time>
      </trkpt>
      <trkpt lat="64.04299" lon="20.48424">
        <ele>106.479977</ele>
        <time>2020-09-29T11:13:39.786Z</time>
      </trkpt>
      <trkpt lat="64.04288" lon="20.48422">
        <ele>105.872246</ele>
        <time>2020-09-29T11:13:41.806Z</time>
      </trkpt>
      <trkpt lat="64.04278" lon="20.4842">
        <ele>105.344715</ele>
        <time>2020-09-29T11:13:43.776Z</time>
      </trkpt>
      <trkpt lat="64.04267" lon="20.48418">
        <ele>105.078438</ele>
        <time>2020-09-29T11:13:45.803Z</time>
      </trkpt>
      <trkpt lat="64.04256" lon="20.48416">
        <ele>104.804428</ele>
        <time>2020-09-29T11:13:47.814Z</time>
      </trkpt>
      <trkpt lat="64.04244" lon="20.48414">
        <ele>104.530942</ele>
        <time>2020-09-29T11:13:49.784Z</time>
      </trkpt>
      <trkpt lat="64.04234" lon="20.48412">
        <ele>104.26701</ele>
        <time>2020-09-29T11:13:51.787Z</time>
      </trkpt>
      <trkpt lat="64.04223" lon="20.48411">
        <ele>104.001246</ele>
        <time>2020-09-29T11:13:53.787Z</time>
      </trkpt>
      <trkpt lat="64.04212" lon="20.4841">
        <ele>103.735482</ele>
        <time>2020-09-29T11:13:55.799Z</time>
      </trkpt>
      <trkpt lat="64.04201" lon="20.48408">
        <ele>103.48143</ele>
        <time>2020-09-29T11:13:57.782Z</time>
      </trkpt>
      <trkpt lat="64.04191" lon="20.48406">
        <ele>103.232528</ele>
        <time>2020-09-29T11:13:59.777Z</time>
      </trkpt>
      <trkpt lat="64.04181" lon="20.48405">
        <ele>102.986177</ele>
        <time>2020-09-29T11:14:01.796Z</time>
      </trkpt>
      <trkpt lat="64.04171" lon="20.48404">
        <ele>102.746931</ele>
        <time>2020-09-29T11:14:03.791Z</time>
      </trkpt>
      <trkpt lat="64.04162" lon="20.48403">
        <ele>102.520196</ele>
        <time>2020-09-29T11:14:05.822Z</time>
      </trkpt>
      <trkpt lat="64.04152" lon="20.48402">
        <ele>102.288704</ele>
        <time>2020-09-29T11:14:07.774Z</time>
      </trkpt>
      <trkpt lat="64.04143" lon="20.48401">
        <ele>102.061921</ele>
        <time>2020-09-29T11:14:09.788Z</time>
      </trkpt>
      <trkpt lat="64.04134" lon="20.484">
        <ele>101.830361</ele>
        <time>2020-09-29T11:14:11.780Z</time>
      </trkpt>
      <trkpt lat="64.04124" lon="20.48399">
        <ele>101.602925</ele>
        <time>2020-09-29T11:14:13.774Z</time>
      </trkpt>
      <trkpt lat="64.04115" lon="20.48397">
        <ele>101.378097</ele>
        <time>2020-09-29T11:14:15.784Z</time>
      </trkpt>
      <trkpt lat="64.04106" lon="20.48396">
        <ele>101.151262</ele>
        <time>2020-09-29T11:14:17.782Z</time>
      </trkpt>
      <trkpt lat="64.04096" lon="20.48395">
        <ele>101.163738</ele>
        <time>2020-09-29T11:14:19.828Z</time>
      </trkpt>
      <trkpt lat="64.04087" lon="20.48396">
        <ele>101.465132</ele>
        <time>2020-09-29T11:14:21.796Z</time>
      </trkpt>
      <trkpt lat="64.04078" lon="20.48395">
        <ele>101.75703</ele>
        <time>2020-09-29T11:14:23.823Z</time>
      </trkpt>
      <trkpt lat="64.04068" lon="20.48394">
        <ele>102.052336</ele>
        <time>2020-09-29T11:14:25.802Z</time>
      </trkpt>
      <trkpt lat="64.04059" lon="20.48393">
        <ele>102.344663</ele>
        <time>2020-09-29T11:14:27.769Z</time>
      </trkpt>
      <trkpt lat="64.04046" lon="20.48391">
        <ele>102.756055</ele>
        <time>2020-09-29T11:14:30.791Z</time>
      </trkpt>
      <trkpt lat="64.04033" lon="20.48389">
        <ele>103.162357</ele>
        <time>2020-09-29T11:14:33.769Z</time>
      </trkpt>
      <trkpt lat="64.0402" lon="20.48386">
        <ele>103.566199</ele>
        <time>2020-09-29T11:14:36.796Z</time>
      </trkpt>
      <trkpt lat="64.04006" lon="20.48384">
        <ele>103.993865</ele>
        <time>2020-09-29T11:14:39.796Z</time>
      </trkpt>
      <trkpt lat="64.03997" lon="20.48382">
        <ele>104.295962</ele>
        <time>2020-09-29T11:14:41.784Z</time>
      </trkpt>
      <trkpt lat="64.03987" lon="20.48381">
        <ele>104.591342</ele>
        <time>2020-09-29T11:14:43.769Z</time>
      </trkpt>
      <trkpt lat="64.03978" lon="20.4838">
        <ele>104.883282</ele>
        <time>2020-09-29T11:14:45.795Z</time>
      </trkpt>
      <trkpt lat="64.03968" lon="20.4838">
        <ele>105.190763</ele>
        <time>2020-09-29T11:14:47.767Z</time>
      </trkpt>
      <trkpt lat="64.03959" lon="20.4838">
        <ele>105.495206</ele>
        <time>2020-09-29T11:14:49.770Z</time>
      </trkpt>
      <trkpt lat="64.03949" lon="20.48379">
        <ele>105.800234</ele>
        <time>2020-09-29T11:14:51.772Z</time>
      </trkpt>
      <trkpt lat="64.03939" lon="20.48377">
        <ele>106.121206</ele>
        <time>2020-09-29T11:14:53.845Z</time>
      </trkpt>
      <trkpt lat="64.03929" lon="20.48376">
        <ele>106.429364</ele>
        <time>2020-09-29T11:14:55.774Z</time>
      </trkpt>
      <trkpt lat="64.03918" lon="20.48373">
        <ele>106.675806</ele>
        <time>2020-09-29T11:14:57.813Z</time>
      </trkpt>
      <trkpt lat="64.03907" lon="20.48372">
        <ele>106.694931</ele>
        <time>2020-09-29T11:14:59.819Z</time>
      </trkpt>
      <trkpt lat="64.03895" lon="20.48369">
        <ele>106.715605</ele>
        <time>2020-09-29T11:15:01.801Z</time>
      </trkpt>
      <trkpt lat="64.03883" lon="20.48367">
        <ele>106.735795</ele>
        <time>2020-09-29T11:15:03.799Z</time>
      </trkpt>
      <trkpt lat="64.0387" lon="20.48365">
        <ele>106.757101</ele>
        <time>2020-09-29T11:15:05.770Z</time>
      </trkpt>
      <trkpt lat="64.03857" lon="20.48364">
        <ele>106.780086</ele>
        <time>2020-09-29T11:15:07.783Z</time>
      </trkpt>
      <trkpt lat="64.03843" lon="20.48362">
        <ele>106.803933</ele>
        <time>2020-09-29T11:15:09.815Z</time>
      </trkpt>
      <trkpt lat="64.03829" lon="20.48359">
        <ele>106.826447</ele>
        <time>2020-09-29T11:15:11.767Z</time>
      </trkpt>
      <trkpt lat="64.03816" lon="20.48357">
        <ele>106.849461</ele>
        <time>2020-09-29T11:15:13.768Z</time>
      </trkpt>
      <trkpt lat="64.03803" lon="20.48355">
        <ele>106.87097</ele>
        <time>2020-09-29T11:15:15.791Z</time>
      </trkpt>
      <trkpt lat="64.03791" lon="20.48352">
        <ele>106.891687</ele>
        <time>2020-09-29T11:15:17.820Z</time>
      </trkpt>
      <trkpt lat="64.03778" lon="20.48349">
        <ele>106.91423</ele>
        <time>2020-09-29T11:15:19.780Z</time>
      </trkpt>
      <trkpt lat="64.03765" lon="20.48348">
        <ele>106.935709</ele>
        <time>2020-09-29T11:15:21.800Z</time>
      </trkpt>
      <trkpt lat="64.03752" lon="20.48347">
        <ele>106.956983</ele>
        <time>2020-09-29T11:15:23.785Z</time>
      </trkpt>
      <trkpt lat="64.0374" lon="20.48346">
        <ele>106.958044</ele>
        <time>2020-09-29T11:15:25.785Z</time>
      </trkpt>
      <trkpt lat="64.03729" lon="20.48344">
        <ele>106.825425</ele>
        <time>2020-09-29T11:15:27.791Z</time>
      </trkpt>
      <trkpt lat="64.03718" lon="20.48344">
        <ele>106.698671</ele>
        <time>2020-09-29T11:15:29.767Z</time>
      </trkpt>
      <trkpt lat="64.03707" lon="20.48343">
        <ele>106.577456</ele>
        <time>2020-09-29T11:15:31.829Z</time>
      </trkpt>
      <trkpt lat="64.03696" lon="20.4834">
        <ele>106.447818</ele>
        <time>2020-09-29T11:15:33.806Z</time>
      </trkpt>
      <trkpt lat="64.03685" lon="20.48339">
        <ele>106.321956</ele>
        <time>2020-09-29T11:15:35.799Z</time>
      </trkpt>
      <trkpt lat="64.03674" lon="20.48337">
        <ele>106.198097</ele>
        <time>2020-09-29T11:15:37.788Z</time>
      </trkpt>
      <trkpt lat="64.03664" lon="20.48332">
        <ele>106.081515</ele>
        <time>2020-09-29T11:15:39.791Z</time>
      </trkpt>
      <trkpt lat="64.03654" lon="20.48328">
        <ele>105.965673</ele>
        <time>2020-09-29T11:15:41.776Z</time>
      </trkpt>
      <trkpt lat="64.03641" lon="20.48327">
        <ele>105.821708</ele>
        <time>2020-09-29T11:15:43.781Z</time>
      </trkpt>
      <trkpt lat="64.0363" lon="20.48327">
        <ele>105.689234</ele>
        <time>2020-09-29T11:15:45.780Z</time>
      </trkpt>
      <trkpt lat="64.03618" lon="20.48327">
        <ele>105.555632</ele>
        <time>2020-09-29T11:15:47.792Z</time>
      </trkpt>
      <trkpt lat="64.03607" lon="20.48328">
        <ele>105.432015</ele>
        <time>2020-09-29T11:15:49.788Z</time>
      </trkpt>
      <trkpt lat="64.03597" lon="20.48327">
        <ele>105.311967</ele>
        <time>2020-09-29T11:15:51.793Z</time>
      </trkpt>
      <trkpt lat="64.03587" lon="20.48327">
        <ele>105.19776</ele>
        <time>2020-09-29T11:15:53.780Z</time>
      </trkpt>
      <trkpt lat="64.03577" lon="20.48326">
        <ele>105.083561</ele>
        <time>2020-09-29T11:15:55.783Z</time>
      </trkpt>
      <trkpt lat="64.03567" lon="20.48324">
        <ele>104.970844</ele>
        <time>2020-09-29T11:15:57.794Z</time>
      </trkpt>
      <trkpt lat="64.03557" lon="20.48321">
        <ele>104.660307</ele>
        <time>2020-09-29T11:15:59.793Z</time>
      </trkpt>
      <trkpt lat="64.03545" lon="20.48318">
        <ele>104.10621</ele>
        <time>2020-09-29T11:16:01.806Z</time>
      </trkpt>
      <trkpt lat="64.03533" lon="20.48315">
        <ele>103.529091</ele>
        <time>2020-09-29T11:16:03.774Z</time>
      </trkpt>
      <trkpt lat="64.03522" lon="20.4831">
        <ele>103.014093</ele>
        <time>2020-09-29T11:16:05.767Z</time>
      </trkpt>
      <trkpt lat="64.0351" lon="20.48305">
        <ele>102.456135</ele>
        <time>2020-09-29T11:16:07.785Z</time>
      </trkpt>
      <trkpt lat="64.03498" lon="20.48302">
        <ele>101.907449</ele>
        <time>2020-09-29T11:16:09.789Z</time>
      </trkpt>
      <trkpt lat="64.03486" lon="20.483">
        <ele>101.355541</ele>
        <time>2020-09-29T11:16:11.815Z</time>
      </trkpt>
      <trkpt lat="64.03473" lon="20.48299">
        <ele>100.771716</ele>
        <time>2020-09-29T11:16:13.780Z</time>
      </trkpt>
      <trkpt lat="64.03461" lon="20.48297">
        <ele>100.201752</ele>
        <time>2020-09-29T11:16:15.783Z</time>
      </trkpt>
      <trkpt lat="64.03448" lon="20.48294">
        <ele>99.6306</ele>
        <time>2020-09-29T11:16:17.783Z</time>
      </trkpt>
      <trkpt lat="64.03437" lon="20.48292">
        <ele>99.105844</ele>
        <time>2020-09-29T11:16:19.779Z</time>
      </trkpt>
      <trkpt lat="64.03425" lon="20.48289">
        <ele>98.547408</ele>
        <time>2020-09-29T11:16:21.790Z</time>
      </trkpt>
      <trkpt lat="64.03412" lon="20.48286">
        <ele>97.961595</ele>
        <time>2020-09-29T11:16:23.806Z</time>
      </trkpt>
      <trkpt lat="64.03399" lon="20.48283">
        <ele>97.369867</ele>
        <time>2020-09-29T11:16:25.784Z</time>
      </trkpt>
      <trkpt lat="64.03386" lon="20.48281">
        <ele>96.785779</ele>
        <time>2020-09-29T11:16:27.780Z</time>
      </trkpt>
      <trkpt lat="64.03374" lon="20.48278">
        <ele>96.492678</ele>
        <time>2020-09-29T11:16:29.786Z</time>
      </trkpt>
      <trkpt lat="64.03361" lon="20.48275">
        <ele>96.285593</ele>
        <time>2020-09-29T11:16:31.773Z</time>
      </trkpt>
      <trkpt lat="64.0335" lon="20.48271">
        <ele>96.086622</ele>
        <time>2020-09-29T11:16:33.781Z</time>
      </trkpt>
      <trkpt lat="64.03338" lon="20.48269">
        <ele>95.892054</ele>
        <time>2020-09-29T11:16:35.806Z</time>
      </trkpt>
      <trkpt lat="64.03327" lon="20.48267">
        <ele>95.702279</ele>
        <time>2020-09-29T11:16:37.802Z</time>
      </trkpt>
      <trkpt lat="64.03316" lon="20.48264">
        <ele>95.513626</ele>
        <time>2020-09-29T11:16:39.766Z</time>
      </trkpt>
      <trkpt lat="64.03306" lon="20.48261">
        <ele>95.343996</ele>
        <time>2020-09-29T11:16:41.809Z</time>
      </trkpt>
      <trkpt lat="64.03296" lon="20.48259">
        <ele>95.169093</ele>
        <time>2020-09-29T11:16:43.776Z</time>
      </trkpt>
      <trkpt lat="64.03286" lon="20.48255">
        <ele>94.998533</ele>
        <time>2020-09-29T11:16:45.838Z</time>
      </trkpt>
      <trkpt lat="64.03276" lon="20.48253">
        <ele>94.838611</ele>
        <time>2020-09-29T11:16:47.772Z</time>
      </trkpt>
      <trkpt lat="64.03267" lon="20.4825">
        <ele>94.685378</ele>
        <time>2020-09-29T11:16:49.775Z</time>
      </trkpt>
      <trkpt lat="64.03254" lon="20.48246">
        <ele>94.464548</ele>
        <time>2020-09-29T11:16:52.799Z</time>
      </trkpt>
      <trkpt lat="64.03242" lon="20.48244">
        <ele>94.254936</ele>
        <time>2020-09-29T11:16:55.784Z</time>
      </trkpt>
      <trkpt lat="64.03229" lon="20.48242">
        <ele>94.033445</ele>
        <time>2020-09-29T11:16:58.781Z</time>
      </trkpt>
      <trkpt lat="64.03216" lon="20.48239">
        <ele>93.811186</ele>
        <time>2020-09-29T11:17:01.808Z</time>
      </trkpt>
      <trkpt lat="64.03202" lon="20.48235">
        <ele>93.612144</ele>
        <time>2020-09-29T11:17:04.772Z</time>
      </trkpt>
      <trkpt lat="64.03193" lon="20.48233">
        <ele>93.538586</ele>
        <time>2020-09-29T11:17:06.774Z</time>
      </trkpt>
      <trkpt lat="64.03183" lon="20.48231">
        <ele>93.456413</ele>
        <time>2020-09-29T11:17:08.802Z</time>
      </trkpt>
      <trkpt lat="64.03171" lon="20.48228">
        <ele>93.362865</ele>
        <time>2020-09-29T11:17:10.792Z</time>
      </trkpt>
      <trkpt lat="64.03159" lon="20.48225">
        <ele>93.262841</ele>
        <time>2020-09-29T11:17:12.801Z</time>
      </trkpt>
      <trkpt lat="64.03147" lon="20.48221">
        <ele>93.168605</ele>
        <time>2020-09-29T11:17:14.791Z</time>
      </trkpt>
      <trkpt lat="64.03134" lon="20.48218">
        <ele>93.064071</ele>
        <time>2020-09-29T11:17:16.784Z</time>
      </trkpt>
      <trkpt lat="64.03121" lon="20.48215">
        <ele>92.957068</ele>
        <time>2020-09-29T11:17:18.774Z</time>
      </trkpt>
      <trkpt lat="64.03107" lon="20.48212">
        <ele>92.845148</ele>
        <time>2020-09-29T11:17:20.774Z</time>
      </trkpt>
      <trkpt lat="64.03093" lon="20.48208">
        <ele>92.738473</ele>
        <time>2020-09-29T11:17:22.771Z</time>
      </trkpt>
      <trkpt lat="64.0308" lon="20.48204">
        <ele>92.633374</ele>
        <time>2020-09-29T11:17:24.835Z</time>
      </trkpt>
      <trkpt lat="64.03068" lon="20.48201">
        <ele>92.533462</ele>
        <time>2020-09-29T11:17:26.784Z</time>
      </trkpt>
      <trkpt lat="64.03055" lon="20.48198">
        <ele>92.435848</ele>
        <time>2020-09-29T11:17:28.771Z</time>
      </trkpt>
      <trkpt lat="64.03044" lon="20.48195">
        <ele>92.342975</ele>
        <time>2020-09-29T11:17:30.777Z</time>
      </trkpt>
      <trkpt lat="64.03032" lon="20.48192">
        <ele>92.25187</ele>
        <time>2020-09-29T11:17:32.776Z</time>
      </trkpt>
      <trkpt lat="64.03022" lon="20.48189">
        <ele>92.170296</ele>
        <time>2020-09-29T11:17:34.828Z</time>
      </trkpt>
      <trkpt lat="64.03011" lon="20.48187">
        <ele>92.094502</ele>
        <time>2020-09-29T11:17:36.789Z</time>
      </trkpt>
      <trkpt lat="64.03001" lon="20.48184">
        <ele>92.0206</ele>
        <time>2020-09-29T11:17:38.778Z</time>
      </trkpt>
      <trkpt lat="64.02991" lon="20.48182">
        <ele>91.94677</ele>
        <time>2020-09-29T11:17:40.773Z</time>
      </trkpt>
      <trkpt lat="64.02981" lon="20.48179">
        <ele>91.874217</ele>
        <time>2020-09-29T11:17:42.786Z</time>
      </trkpt>
      <trkpt lat="64.02971" lon="20.48176">
        <ele>91.805228</ele>
        <time>2020-09-29T11:17:44.795Z</time>
      </trkpt>
      <trkpt lat="64.02962" lon="20.48173">
        <ele>91.734422</ele>
        <time>2020-09-29T11:17:46.796Z</time>
      </trkpt>
      <trkpt lat="64.0295" lon="20.48173">
        <ele>91.651686</ele>
        <time>2020-09-29T11:17:48.801Z</time>
      </trkpt>
      <trkpt lat="64.0294" lon="20.4817">
        <ele>91.578536</ele>
        <time>2020-09-29T11:17:50.805Z</time>
      </trkpt>
      <trkpt lat="64.02931" lon="20.48168">
        <ele>91.513909</ele>
        <time>2020-09-29T11:17:52.763Z</time>
      </trkpt>
      <trkpt lat="64.02922" lon="20.48164">
        <ele>91.446254</ele>
        <time>2020-09-29T11:17:54.796Z</time>
      </trkpt>
      <trkpt lat="64.02911" lon="20.48159">
        <ele>91.368059</ele>
        <time>2020-09-29T11:17:56.795Z</time>
      </trkpt>
      <trkpt lat="64.029" lon="20.48153">
        <ele>91.285158</ele>
        <time>2020-09-29T11:17:58.807Z</time>
      </trkpt>
      <trkpt lat="64.02889" lon="20.48148">
        <ele>91.201173</ele>
        <time>2020-09-29T11:18:00.787Z</time>
      </trkpt>
      <trkpt lat="64.02877" lon="20.48143">
        <ele>91.115547</ele>
        <time>2020-09-29T11:18:02.806Z</time>
      </trkpt>
      <trkpt lat="64.02866" lon="20.48139">
        <ele>91.036574</ele>
        <time>2020-09-29T11:18:04.773Z</time>
      </trkpt>
      <trkpt lat="64.02855" lon="20.48134">
        <ele>90.956072</ele>
        <time>2020-09-29T11:18:06.798Z</time>
      </trkpt>
      <trkpt lat="64.02844" lon="20.48128">
        <ele>90.858863</ele>
        <time>2020-09-29T11:18:08.790Z</time>
      </trkpt>
      <trkpt lat="64.02833" lon="20.48121">
        <ele>90.74495</ele>
        <time>2020-09-29T11:18:10.789Z</time>
      </trkpt>
      <trkpt lat="64.02822" lon="20.48113">
        <ele>90.631495</ele>
        <time>2020-09-29T11:18:12.786Z</time>
      </trkpt>
      <trkpt lat="64.02811" lon="20.48105">
        <ele>90.516554</ele>
        <time>2020-09-29T11:18:14.787Z</time>
      </trkpt>
      <trkpt lat="64.02801" lon="20.48097">
        <ele>90.407047</ele>
        <time>2020-09-29T11:18:16.776Z</time>
      </trkpt>
      <trkpt lat="64.0279" lon="20.48089">
        <ele>90.295769</ele>
        <time>2020-09-29T11:18:18.848Z</time>
      </trkpt>
      <trkpt lat="64.0278" lon="20.48081">
        <ele>90.188302</ele>
        <time>2020-09-29T11:18:20.781Z</time>
      </trkpt>
      <trkpt lat="64.0277" lon="20.48073">
        <ele>90.080312</ele>
        <time>2020-09-29T11:18:22.801Z</time>
      </trkpt>
      <trkpt lat="64.02759" lon="20.48065">
        <ele>89.96563</ele>
        <time>2020-09-29T11:18:24.795Z</time>
      </trkpt>
      <trkpt lat="64.02748" lon="20.48057">
        <ele>89.850139</ele>
        <time>2020-09-29T11:18:26.776Z</time>
      </trkpt>
      <trkpt lat="64.02738" lon="20.48048">
        <ele>89.737206</ele>
        <time>2020-09-29T11:18:28.787Z</time>
      </trkpt>
      <trkpt lat="64.02728" lon="20.48039">
        <ele>89.634706</ele>
        <time>2020-09-29T11:18:30.781Z</time>
      </trkpt>
      <trkpt lat="64.02718" lon="20.48031">
        <ele>89.529852</ele>
        <time>2020-09-29T11:18:32.797Z</time>
      </trkpt>
      <trkpt lat="64.02709" lon="20.48024">
        <ele>89.429889</ele>
        <time>2020-09-29T11:18:34.815Z</time>
      </trkpt>
      <trkpt lat="64.02696" lon="20.48013">
        <ele>89.293046</ele>
        <time>2020-09-29T11:18:37.778Z</time>
      </trkpt>
      <trkpt lat="64.02684" lon="20.48002">
        <ele>89.163717</ele>
        <time>2020-09-29T11:18:40.780Z</time>
      </trkpt>
      <trkpt lat="64.02673" lon="20.47992">
        <ele>89.221114</ele>
        <time>2020-09-29T11:18:43.779Z</time>
      </trkpt>
      <trkpt lat="64.02664" lon="20.47982">
        <ele>89.437712</ele>
        <time>2020-09-29T11:18:46.785Z</time>
      </trkpt>
      <trkpt lat="64.02655" lon="20.47971">
        <ele>89.650579</ele>
        <time>2020-09-29T11:18:49.767Z</time>
      </trkpt>
      <trkpt lat="64.02646" lon="20.47959">
        <ele>89.85677</ele>
        <time>2020-09-29T11:18:52.775Z</time>
      </trkpt>
      <trkpt lat="64.02639" lon="20.47947">
        <ele>90.043516</ele>
        <time>2020-09-29T11:18:55.789Z</time>
      </trkpt>
      <trkpt lat="64.02631" lon="20.47935">
        <ele>90.240653</ele>
        <time>2020-09-29T11:18:58.788Z</time>
      </trkpt>
      <trkpt lat="64.02623" lon="20.47921">
        <ele>90.446982</ele>
        <time>2020-09-29T11:19:01.779Z</time>
      </trkpt>
      <trkpt lat="64.02615" lon="20.47905">
        <ele>90.660329</ele>
        <time>2020-09-29T11:19:04.799Z</time>
      </trkpt>
      <trkpt lat="64.02608" lon="20.47889">
        <ele>90.867241</ele>
        <time>2020-09-29T11:19:07.790Z</time>
      </trkpt>
      <trkpt lat="64.02602" lon="20.47874">
        <ele>91.061297</ele>
        <time>2020-09-29T11:19:10.770Z</time>
      </trkpt>
      <trkpt lat="64.02594" lon="20.47852">
        <ele>91.306062</ele>
        <time>2020-09-29T11:19:14.788Z</time>
      </trkpt>
      <trkpt lat="64.02588" lon="20.47836">
        <ele>91.502538</ele>
        <time>2020-09-29T11:19:17.793Z</time>
      </trkpt>
      <trkpt lat="64.02582" lon="20.4782">
        <ele>91.699735</ele>
        <time>2020-09-29T11:19:20.777Z</time>
      </trkpt>
      <trkpt lat="64.02576" lon="20.478">
        <ele>91.912136</ele>
        <time>2020-09-29T11:19:23.780Z</time>
      </trkpt>
      <trkpt lat="64.02569" lon="20.47781">
        <ele>92.135739</ele>
        <time>2020-09-29T11:19:26.792Z</time>
      </trkpt>
      <trkpt lat="64.02564" lon="20.47758">
        <ele>92.366599</ele>
        <time>2020-09-29T11:19:29.766Z</time>
      </trkpt>
      <trkpt lat="64.02559" lon="20.47737">
        <ele>92.585616</ele>
        <time>2020-09-29T11:19:32.792Z</time>
      </trkpt>
      <trkpt lat="64.02554" lon="20.47716">
        <ele>92.803394</ele>
        <time>2020-09-29T11:19:35.786Z</time>
      </trkpt>
      <trkpt lat="64.02548" lon="20.47695">
        <ele>92.908819</ele>
        <time>2020-09-29T11:19:38.808Z</time>
      </trkpt>
      <trkpt lat="64.02542" lon="20.47673">
        <ele>93.015899</ele>
        <time>2020-09-29T11:19:41.802Z</time>
      </trkpt>
      <trkpt lat="64.02536" lon="20.47649">
        <ele>93.127361</ele>
        <time>2020-09-29T11:19:44.800Z</time>
      </trkpt>
      <trkpt lat="64.0253" lon="20.47628">
        <ele>93.232648</ele>
        <time>2020-09-29T11:19:47.809Z</time>
      </trkpt>
      <trkpt lat="64.02523" lon="20.47606">
        <ele>93.339658</ele>
        <time>2020-09-29T11:19:50.794Z</time>
      </trkpt>
      <trkpt lat="64.02516" lon="20.47586">
        <ele>93.447092</ele>
        <time>2020-09-29T11:19:53.788Z</time>
      </trkpt>
      <trkpt lat="64.0251" lon="20.47563">
        <ele>93.556989</ele>
        <time>2020-09-29T11:19:56.791Z</time>
      </trkpt>
      <trkpt lat="64.02503" lon="20.47543">
        <ele>93.658913</ele>
        <time>2020-09-29T11:19:59.790Z</time>
      </trkpt>
      <trkpt lat="64.02498" lon="20.47521">
        <ele>93.764465</ele>
        <time>2020-09-29T11:20:02.789Z</time>
      </trkpt>
      <trkpt lat="64.02492" lon="20.47499">
        <ele>93.868967</ele>
        <time>2020-09-29T11:20:05.820Z</time>
      </trkpt>
      <trkpt lat="64.02486" lon="20.47477">
        <ele>93.972164</ele>
        <time>2020-09-29T11:20:08.828Z</time>
      </trkpt>
      <trkpt lat="64.0248" lon="20.47456">
        <ele>94.075399</ele>
        <time>2020-09-29T11:20:11.774Z</time>
      </trkpt>
      <trkpt lat="64.02474" lon="20.47435">
        <ele>94.178528</ele>
        <time>2020-09-29T11:20:14.791Z</time>
      </trkpt>
      <trkpt lat="64.02468" lon="20.47414">
        <ele>94.280569</ele>
        <time>2020-09-29T11:20:17.799Z</time>
      </trkpt>
      <trkpt lat="64.02462" lon="20.47392">
        <ele>94.388769</ele>
        <time>2020-09-29T11:20:20.805Z</time>
      </trkpt>
      <trkpt lat="64.02455" lon="20.47369">
        <ele>94.511268</ele>
        <time>2020-09-29T11:20:23.780Z</time>
      </trkpt>
      <trkpt lat="64.02449" lon="20.47346">
        <ele>94.742482</ele>
        <time>2020-09-29T11:20:26.789Z</time>
      </trkpt>
      <trkpt lat="64.02443" lon="20.47323">
        <ele>94.97517</ele>
        <time>2020-09-29T11:20:29.790Z</time>
      </trkpt>
      <trkpt lat="64.02436" lon="20.47301">
        <ele>95.200847</ele>
        <time>2020-09-29T11:20:32.784Z</time>
      </trkpt>
      <trkpt lat="64.0243" lon="20.4728">
        <ele>95.427323</ele>
        <time>2020-09-29T11:20:35.784Z</time>
      </trkpt>
      <trkpt lat="64.02424" lon="20.47258">
        <ele>95.641234</ele>
        <time>2020-09-29T11:20:38.778Z</time>
      </trkpt>
      <trkpt lat="64.02419" lon="20.47238">
        <ele>95.848907</ele>
        <time>2020-09-29T11:20:41.802Z</time>
      </trkpt>
      <trkpt lat="64.02413" lon="20.47217">
        <ele>96.05521</ele>
        <time>2020-09-29T11:20:44.809Z</time>
      </trkpt>
      <trkpt lat="64.02407" lon="20.47198">
        <ele>96.255726</ele>
        <time>2020-09-29T11:20:47.795Z</time>
      </trkpt>
      <trkpt lat="64.02401" lon="20.47179">
        <ele>96.455307</ele>
        <time>2020-09-29T11:20:50.795Z</time>
      </trkpt>
      <trkpt lat="64.02396" lon="20.47161">
        <ele>96.644921</ele>
        <time>2020-09-29T11:20:53.771Z</time>
      </trkpt>
      <trkpt lat="64.02391" lon="20.47144">
        <ele>96.823158</ele>
        <time>2020-09-29T11:20:56.779Z</time>
      </trkpt>
      <trkpt lat="64.02385" lon="20.47123">
        <ele>97.039847</ele>
        <time>2020-09-29T11:21:00.797Z</time>
      </trkpt>
      <trkpt lat="64.02378" lon="20.47101">
        <ele>97.259772</ele>
        <time>2020-09-29T11:21:04.790Z</time>
      </trkpt>
      <trkpt lat="64.02372" lon="20.4708">
        <ele>97.482605</ele>
        <time>2020-09-29T11:21:08.799Z</time>
      </trkpt>
      <trkpt lat="64.02366" lon="20.4706">
        <ele>97.69121</ele>
        <time>2020-09-29T11:21:12.798Z</time>
      </trkpt>
      <trkpt lat="64.02359" lon="20.4704">
        <ele>97.912082</ele>
        <time>2020-09-29T11:21:16.816Z</time>
      </trkpt>
      <trkpt lat="64.02354" lon="20.47023">
        <ele>98.027476</ele>
        <time>2020-09-29T11:21:19.810Z</time>
      </trkpt>
      <trkpt lat="64.02348" lon="20.47004">
        <ele>98.039941</ele>
        <time>2020-09-29T11:21:22.799Z</time>
      </trkpt>
      <trkpt lat="64.02343" lon="20.46986">
        <ele>98.052152</ele>
        <time>2020-09-29T11:21:25.794Z</time>
      </trkpt>
      <trkpt lat="64.02337" lon="20.46968">
        <ele>98.064453</ele>
        <time>2020-09-29T11:21:28.788Z</time>
      </trkpt>
      <trkpt lat="64.02331" lon="20.46948">
        <ele>98.077952</ele>
        <time>2020-09-29T11:21:31.775Z</time>
      </trkpt>
      <trkpt lat="64.02324" lon="20.46926">
        <ele>98.093021</ele>
        <time>2020-09-29T11:21:34.815Z</time>
      </trkpt>
      <trkpt lat="64.02317" lon="20.46902">
        <ele>98.109016</ele>
        <time>2020-09-29T11:21:37.782Z</time>
      </trkpt>
      <trkpt lat="64.0231" lon="20.46877">
        <ele>98.125178</ele>
        <time>2020-09-29T11:21:40.815Z</time>
      </trkpt>
      <trkpt lat="64.02304" lon="20.46852">
        <ele>98.141247</ele>
        <time>2020-09-29T11:21:43.794Z</time>
      </trkpt>
      <trkpt lat="64.02299" lon="20.46834">
        <ele>98.152599</ele>
        <time>2020-09-29T11:21:45.774Z</time>
      </trkpt>
      <trkpt lat="64.02294" lon="20.46816">
        <ele>98.164556</ele>
        <time>2020-09-29T11:21:47.777Z</time>
      </trkpt>
      <trkpt lat="64.02289" lon="20.46796">
        <ele>98.177453</ele>
        <time>2020-09-29T11:21:49.777Z</time>
      </trkpt>
      <trkpt lat="64.02283" lon="20.46777">
        <ele>98.190465</ele>
        <time>2020-09-29T11:21:51.790Z</time>
      </trkpt>
      <trkpt lat="64.02277" lon="20.46756">
        <ele>98.204035</ele>
        <time>2020-09-29T11:21:53.796Z</time>
      </trkpt>
      <trkpt lat="64.02271" lon="20.46736">
        <ele>98.217511</ele>
        <time>2020-09-29T11:21:55.792Z</time>
      </trkpt>
      <trkpt lat="64.02266" lon="20.46715">
        <ele>98.230941</ele>
        <time>2020-09-29T11:21:57.774Z</time>
      </trkpt>
      <trkpt lat="64.0226" lon="20.46695">
        <ele>98.244375</ele>
        <time>2020-09-29T11:21:59.821Z</time>
      </trkpt>
      <trkpt lat="64.02253" lon="20.46675">
        <ele>98.07306</ele>
        <time>2020-09-29T11:22:01.774Z</time>
      </trkpt>
      <trkpt lat="64.02247" lon="20.46654">
        <ele>97.760228</ele>
        <time>2020-09-29T11:22:03.797Z</time>
      </trkpt>
      <trkpt lat="64.02241" lon="20.46634">
        <ele>97.4409</ele>
        <time>2020-09-29T11:22:05.784Z</time>
      </trkpt>
      <trkpt lat="64.02234" lon="20.46612">
        <ele>97.108027</ele>
        <time>2020-09-29T11:22:07.783Z</time>
      </trkpt>
      <trkpt lat="64.02227" lon="20.4659">
        <ele>96.761594</ele>
        <time>2020-09-29T11:22:09.822Z</time>
      </trkpt>
      <trkpt lat="64.0222" lon="20.46568">
        <ele>96.421355</ele>
        <time>2020-09-29T11:22:11.804Z</time>
      </trkpt>
      <trkpt lat="64.02214" lon="20.46546">
        <ele>96.091648</ele>
        <time>2020-09-29T11:22:13.786Z</time>
      </trkpt>
      <trkpt lat="64.02208" lon="20.46525">
        <ele>95.767729</ele>
        <time>2020-09-29T11:22:15.792Z</time>
      </trkpt>
      <trkpt lat="64.02201" lon="20.46503">
        <ele>95.443309</ele>
        <time>2020-09-29T11:22:17.783Z</time>
      </trkpt>
      <trkpt lat="64.02195" lon="20.46481">
        <ele>95.108869</ele>
        <time>2020-09-29T11:22:19.801Z</time>
      </trkpt>
      <trkpt lat="64.02189" lon="20.46459">
        <ele>94.78483</ele>
        <time>2020-09-29T11:22:21.800Z</time>
      </trkpt>
      <trkpt lat="64.02183" lon="20.46438">
        <ele>94.467206</ele>
        <time>2020-09-29T11:22:23.775Z</time>
      </trkpt>
      <trkpt lat="64.02177" lon="20.46417">
        <ele>94.158057</ele>
        <time>2020-09-29T11:22:25.811Z</time>
      </trkpt>
      <trkpt lat="64.02172" lon="20.46396">
        <ele>93.845165</ele>
        <time>2020-09-29T11:22:27.778Z</time>
      </trkpt>
      <trkpt lat="64.02166" lon="20.46376">
        <ele>93.534961</ele>
        <time>2020-09-29T11:22:29.778Z</time>
      </trkpt>
      <trkpt lat="64.0216" lon="20.46355">
        <ele>93.229394</ele>
        <time>2020-09-29T11:22:31.769Z</time>
      </trkpt>
      <trkpt lat="64.02154" lon="20.46334">
        <ele>93.03233</ele>
        <time>2020-09-29T11:22:33.779Z</time>
      </trkpt>
      <trkpt lat="64.02148" lon="20.46314">
        <ele>92.949583</ele>
        <time>2020-09-29T11:22:35.799Z</time>
      </trkpt>
      <trkpt lat="64.02143" lon="20.46293">
        <ele>92.866824</ele>
        <time>2020-09-29T11:22:37.826Z</time>
      </trkpt>
      <trkpt lat="64.02137" lon="20.46272">
        <ele>92.7818</ele>
        <time>2020-09-29T11:22:39.792Z</time>
      </trkpt>
      <trkpt lat="64.02131" lon="20.46251">
        <ele>92.6976</ele>
        <time>2020-09-29T11:22:41.792Z</time>
      </trkpt>
      <trkpt lat="64.02125" lon="20.4623">
        <ele>92.612862</ele>
        <time>2020-09-29T11:22:43.783Z</time>
      </trkpt>
      <trkpt lat="64.02119" lon="20.4621">
        <ele>92.531525</ele>
        <time>2020-09-29T11:22:45.791Z</time>
      </trkpt>
      <trkpt lat="64.02114" lon="20.4619">
        <ele>92.450621</ele>
        <time>2020-09-29T11:22:47.779Z</time>
      </trkpt>
      <trkpt lat="64.02108" lon="20.46171">
        <ele>92.370124</ele>
        <time>2020-09-29T11:22:49.821Z</time>
      </trkpt>
      <trkpt lat="64.02102" lon="20.46151">
        <ele>92.290641</ele>
        <time>2020-09-29T11:22:51.796Z</time>
      </trkpt>
      <trkpt lat="64.02097" lon="20.46132">
        <ele>92.213712</ele>
        <time>2020-09-29T11:22:53.779Z</time>
      </trkpt>
      <trkpt lat="64.02091" lon="20.46114">
        <ele>92.138331</ele>
        <time>2020-09-29T11:22:55.794Z</time>
      </trkpt>
      <trkpt lat="64.02085" lon="20.46095">
        <ele>92.059831</ele>
        <time>2020-09-29T11:22:57.789Z</time>
      </trkpt>
      <trkpt lat="64.0208" lon="20.46075">
        <ele>91.979778</ele>
        <time>2020-09-29T11:22:59.779Z</time>
      </trkpt>
      <trkpt lat="64.02074" lon="20.46056">
        <ele>91.900279</ele>
        <time>2020-09-29T11:23:01.818Z</time>
      </trkpt>
      <trkpt lat="64.02069" lon="20.46036">
        <ele>91.821503</ele>
        <time>2020-09-29T11:23:03.795Z</time>
      </trkpt>
      <trkpt lat="64.02063" lon="20.46016">
        <ele>91.73985</ele>
        <time>2020-09-29T11:23:05.810Z</time>
      </trkpt>
      <trkpt lat="64.02058" lon="20.45996">
        <ele>91.672667</ele>
        <time>2020-09-29T11:23:07.778Z</time>
      </trkpt>
      <trkpt lat="64.02052" lon="20.45976">
        <ele>91.643092</ele>
        <time>2020-09-29T11:23:09.801Z</time>
      </trkpt>
      <trkpt lat="64.02047" lon="20.45958">
        <ele>91.615365</ele>
        <time>2020-09-29T11:23:11.771Z</time>
      </trkpt>
      <trkpt lat="64.02041" lon="20.45939">
        <ele>91.587478</ele>
        <time>2020-09-29T11:23:13.792Z</time>
      </trkpt>
      <trkpt lat="64.02036" lon="20.45921">
        <ele>91.559483</ele>
        <time>2020-09-29T11:23:15.786Z</time>
      </trkpt>
      <trkpt lat="64.02031" lon="20.45903">
        <ele>91.532282</ele>
        <time>2020-09-29T11:23:17.775Z</time>
      </trkpt>
      <trkpt lat="64.02026" lon="20.45885">
        <ele>91.505023</ele>
        <time>2020-09-29T11:23:19.787Z</time>
      </trkpt>
      <trkpt lat="64.02021" lon="20.45866">
        <ele>91.476926</ele>
        <time>2020-09-29T11:23:21.779Z</time>
      </trkpt>
      <trkpt lat="64.02015" lon="20.45848">
        <ele>91.449188</ele>
        <time>2020-09-29T11:23:23.831Z</time>
      </trkpt>
      <trkpt lat="64.0201" lon="20.45831">
        <ele>91.422274</ele>
        <time>2020-09-29T11:23:25.784Z</time>
      </trkpt>
      <trkpt lat="64.02002" lon="20.45807">
        <ele>91.384157</ele>
        <time>2020-09-29T11:23:28.791Z</time>
      </trkpt>
      <trkpt lat="64.01994" lon="20.45784">
        <ele>91.347783</ele>
        <time>2020-09-29T11:23:31.796Z</time>
      </trkpt>
      <trkpt lat="64.01986" lon="20.45762">
        <ele>91.312598</ele>
        <time>2020-09-29T11:23:34.791Z</time>
      </trkpt>
      <trkpt lat="64.01979" lon="20.45741">
        <ele>91.278694</ele>
        <time>2020-09-29T11:23:37.805Z</time>
      </trkpt>
      <trkpt lat="64.01972" lon="20.4572">
        <ele>91.244612</ele>
        <time>2020-09-29T11:23:40.779Z</time>
      </trkpt>
      <trkpt lat="64.01965" lon="20.457">
        <ele>91.212193</ele>
        <time>2020-09-29T11:23:43.846Z</time>
      </trkpt>
      <trkpt lat="64.01958" lon="20.4568">
        <ele>91.179837</ele>
        <time>2020-09-29T11:23:46.803Z</time>
      </trkpt>
      <trkpt lat="64.0195" lon="20.45657">
        <ele>91.444013</ele>
        <time>2020-09-29T11:23:49.791Z</time>
      </trkpt>
      <trkpt lat="64.01942" lon="20.45635">
        <ele>92.034918</ele>
        <time>2020-09-29T11:23:52.792Z</time>
      </trkpt>
      <trkpt lat="64.01934" lon="20.45613">
        <ele>92.600183</ele>
        <time>2020-09-29T11:23:55.778Z</time>
      </trkpt>
      <trkpt lat="64.01926" lon="20.45591">
        <ele>93.159017</ele>
        <time>2020-09-29T11:23:58.793Z</time>
      </trkpt>
      <trkpt lat="64.01919" lon="20.45571">
        <ele>93.679056</ele>
        <time>2020-09-29T11:24:01.775Z</time>
      </trkpt>
      <trkpt lat="64.01912" lon="20.45551">
        <ele>94.195499</ele>
        <time>2020-09-29T11:24:04.796Z</time>
      </trkpt>
      <trkpt lat="64.01906" lon="20.45532">
        <ele>94.681153</ele>
        <time>2020-09-29T11:24:07.826Z</time>
      </trkpt>
      <trkpt lat="64.01899" lon="20.45515">
        <ele>95.138481</ele>
        <time>2020-09-29T11:24:10.826Z</time>
      </trkpt>
      <trkpt lat="64.01893" lon="20.45495">
        <ele>95.638157</ele>
        <time>2020-09-29T11:24:13.780Z</time>
      </trkpt>
      <trkpt lat="64.01886" lon="20.45476">
        <ele>96.144088</ele>
        <time>2020-09-29T11:24:16.807Z</time>
      </trkpt>
      <trkpt lat="64.01879" lon="20.45456">
        <ele>96.641724</ele>
        <time>2020-09-29T11:24:19.790Z</time>
      </trkpt>
      <trkpt lat="64.01872" lon="20.45438">
        <ele>97.121994</ele>
        <time>2020-09-29T11:24:22.797Z</time>
      </trkpt>
      <trkpt lat="64.01867" lon="20.45419">
        <ele>97.58263</ele>
        <time>2020-09-29T11:24:25.827Z</time>
      </trkpt>
      <trkpt lat="64.01861" lon="20.45402">
        <ele>98.022379</ele>
        <time>2020-09-29T11:24:28.791Z</time>
      </trkpt>
      <trkpt lat="64.01853" lon="20.45384">
        <ele>98.528524</ele>
        <time>2020-09-29T11:24:32.812Z</time>
      </trkpt>
      <trkpt lat="64.01846" lon="20.45364">
        <ele>99.058767</ele>
        <time>2020-09-29T11:24:36.776Z</time>
      </trkpt>
      <trkpt lat="64.0184" lon="20.45347">
        <ele>99.430195</ele>
        <time>2020-09-29T11:24:39.792Z</time>
      </trkpt>
      <trkpt lat="64.01833" lon="20.45331">
        <ele>99.458244</ele>
        <time>2020-09-29T11:24:42.795Z</time>
      </trkpt>
      <trkpt lat="64.01826" lon="20.45313">
        <ele>99.489031</ele>
        <time>2020-09-29T11:24:45.797Z</time>
      </trkpt>
      <trkpt lat="64.01818" lon="20.45293">
        <ele>99.521117</ele>
        <time>2020-09-29T11:24:48.777Z</time>
      </trkpt>
      <trkpt lat="64.01811" lon="20.45272">
        <ele>99.554163</ele>
        <time>2020-09-29T11:24:51.810Z</time>
      </trkpt>
      <trkpt lat="64.01804" lon="20.4525">
        <ele>99.588758</ele>
        <time>2020-09-29T11:24:54.798Z</time>
      </trkpt>
      <trkpt lat="64.01796" lon="20.45229">
        <ele>99.623574</ele>
        <time>2020-09-29T11:24:57.813Z</time>
      </trkpt>
      <trkpt lat="64.01791" lon="20.45213">
        <ele>99.649063</ele>
        <time>2020-09-29T11:24:59.773Z</time>
      </trkpt>
      <trkpt lat="64.01784" lon="20.45195">
        <ele>99.677495</ele>
        <time>2020-09-29T11:25:01.791Z</time>
      </trkpt>
      <trkpt lat="64.01777" lon="20.45177">
        <ele>99.707241</ele>
        <time>2020-09-29T11:25:03.819Z</time>
      </trkpt>
      <trkpt lat="64.0177" lon="20.45157">
        <ele>99.738878</ele>
        <time>2020-09-29T11:25:05.779Z</time>
      </trkpt>
      <trkpt lat="64.01763" lon="20.45136">
        <ele>99.772932</ele>
        <time>2020-09-29T11:25:07.787Z</time>
      </trkpt>
      <trkpt lat="64.01755" lon="20.45115">
        <ele>99.807925</ele>
        <time>2020-09-29T11:25:09.792Z</time>
      </trkpt>
      <trkpt lat="64.01747" lon="20.45094">
        <ele>99.841429</ele>
        <time>2020-09-29T11:25:11.807Z</time>
      </trkpt>
      <trkpt lat="64.01739" lon="20.45072">
        <ele>99.877005</ele>
        <time>2020-09-29T11:25:13.810Z</time>
      </trkpt>
      <trkpt lat="64.01731" lon="20.45049">
        <ele>99.914625</ele>
        <time>2020-09-29T11:25:15.775Z</time>
      </trkpt>
      <trkpt lat="64.01721" lon="20.45025">
        <ele>99.623181</ele>
        <time>2020-09-29T11:25:17.774Z</time>
      </trkpt>
      <trkpt lat="64.01712" lon="20.45001">
        <ele>98.851184</ele>
        <time>2020-09-29T11:25:19.795Z</time>
      </trkpt>
      <trkpt lat="64.01702" lon="20.44977">
        <ele>98.062881</ele>
        <time>2020-09-29T11:25:21.793Z</time>
      </trkpt>
      <trkpt lat="64.01693" lon="20.44951">
        <ele>97.282865</ele>
        <time>2020-09-29T11:25:23.793Z</time>
      </trkpt>
      <trkpt lat="64.01684" lon="20.44926">
        <ele>96.50197</ele>
        <time>2020-09-29T11:25:25.806Z</time>
      </trkpt>
      <trkpt lat="64.01674" lon="20.44901">
        <ele>95.703116</ele>
        <time>2020-09-29T11:25:27.808Z</time>
      </trkpt>
      <trkpt lat="64.01665" lon="20.44876">
        <ele>94.934496</ele>
        <time>2020-09-29T11:25:29.798Z</time>
      </trkpt>
      <trkpt lat="64.01656" lon="20.44852">
        <ele>94.182188</ele>
        <time>2020-09-29T11:25:31.800Z</time>
      </trkpt>
      <trkpt lat="64.01647" lon="20.44828">
        <ele>93.433379</ele>
        <time>2020-09-29T11:25:33.782Z</time>
      </trkpt>
      <trkpt lat="64.01639" lon="20.44805">
        <ele>92.715188</ele>
        <time>2020-09-29T11:25:35.814Z</time>
      </trkpt>
      <trkpt lat="64.01631" lon="20.44783">
        <ele>92.02584</ele>
        <time>2020-09-29T11:25:37.795Z</time>
      </trkpt>
      <trkpt lat="64.01623" lon="20.44761">
        <ele>91.335763</ele>
        <time>2020-09-29T11:25:39.796Z</time>
      </trkpt>
      <trkpt lat="64.01615" lon="20.44739">
        <ele>90.671858</ele>
        <time>2020-09-29T11:25:41.798Z</time>
      </trkpt>
      <trkpt lat="64.01608" lon="20.44716">
        <ele>90.198001</ele>
        <time>2020-09-29T11:25:43.849Z</time>
      </trkpt>
      <trkpt lat="64.01601" lon="20.44694">
        <ele>90.497505</ele>
        <time>2020-09-29T11:25:45.776Z</time>
      </trkpt>
      <trkpt lat="64.01595" lon="20.44673">
        <ele>90.78887</ele>
        <time>2020-09-29T11:25:47.767Z</time>
      </trkpt>
      <trkpt lat="64.01589" lon="20.44651">
        <ele>91.073295</ele>
        <time>2020-09-29T11:25:49.774Z</time>
      </trkpt>
      <trkpt lat="64.01582" lon="20.4463">
        <ele>91.366079</ele>
        <time>2020-09-29T11:25:51.778Z</time>
      </trkpt>
      <trkpt lat="64.01576" lon="20.44607">
        <ele>91.655697</ele>
        <time>2020-09-29T11:25:53.770Z</time>
      </trkpt>
      <trkpt lat="64.0157" lon="20.44585">
        <ele>91.943315</ele>
        <time>2020-09-29T11:25:55.788Z</time>
      </trkpt>
      <trkpt lat="64.01565" lon="20.44563">
        <ele>92.216965</ele>
        <time>2020-09-29T11:25:57.779Z</time>
      </trkpt>
      <trkpt lat="64.0156" lon="20.44542">
        <ele>92.49159</ele>
        <time>2020-09-29T11:25:59.793Z</time>
      </trkpt>
      <trkpt lat="64.01555" lon="20.4452">
        <ele>92.763297</ele>
        <time>2020-09-29T11:26:01.801Z</time>
      </trkpt>
      <trkpt lat="64.01549" lon="20.445">
        <ele>93.030201</ele>
        <time>2020-09-29T11:26:03.799Z</time>
      </trkpt>
      <trkpt lat="64.01544" lon="20.44479">
        <ele>93.29579</ele>
        <time>2020-09-29T11:26:05.795Z</time>
      </trkpt>
      <trkpt lat="64.01539" lon="20.44458">
        <ele>93.567771</ele>
        <time>2020-09-29T11:26:07.792Z</time>
      </trkpt>
      <trkpt lat="64.01534" lon="20.44437">
        <ele>93.832172</ele>
        <time>2020-09-29T11:26:09.770Z</time>
      </trkpt>
      <trkpt lat="64.01529" lon="20.44417">
        <ele>94.092436</ele>
        <time>2020-09-29T11:26:11.785Z</time>
      </trkpt>
      <trkpt lat="64.01524" lon="20.44397">
        <ele>94.336966</ele>
        <time>2020-09-29T11:26:13.789Z</time>
      </trkpt>
      <trkpt lat="64.0152" lon="20.44377">
        <ele>94.582871</ele>
        <time>2020-09-29T11:26:15.799Z</time>
      </trkpt>
      <trkpt lat="64.01515" lon="20.44359">
        <ele>94.647458</ele>
        <time>2020-09-29T11:26:17.772Z</time>
      </trkpt>
      <trkpt lat="64.01511" lon="20.4434">
        <ele>94.548091</ele>
        <time>2020-09-29T11:26:19.773Z</time>
      </trkpt>
      <trkpt lat="64.01506" lon="20.4432">
        <ele>94.445576</ele>
        <time>2020-09-29T11:26:21.775Z</time>
      </trkpt>
      <trkpt lat="64.01502" lon="20.443">
        <ele>94.341674</ele>
        <time>2020-09-29T11:26:23.795Z</time>
      </trkpt>
      <trkpt lat="64.01497" lon="20.44281">
        <ele>94.239553</ele>
        <time>2020-09-29T11:26:25.805Z</time>
      </trkpt>
      <trkpt lat="64.01492" lon="20.44262">
        <ele>94.138354</ele>
        <time>2020-09-29T11:26:27.779Z</time>
      </trkpt>
      <trkpt lat="64.01487" lon="20.44242">
        <ele>94.031999</ele>
        <time>2020-09-29T11:26:29.781Z</time>
      </trkpt>
      <trkpt lat="64.01482" lon="20.44222">
        <ele>93.930515</ele>
        <time>2020-09-29T11:26:31.778Z</time>
      </trkpt>
      <trkpt lat="64.01477" lon="20.44204">
        <ele>93.829977</ele>
        <time>2020-09-29T11:26:33.785Z</time>
      </trkpt>
      <trkpt lat="64.01473" lon="20.44185">
        <ele>93.733409</ele>
        <time>2020-09-29T11:26:35.783Z</time>
      </trkpt>
      <trkpt lat="64.01467" lon="20.44167">
        <ele>93.631226</ele>
        <time>2020-09-29T11:26:37.786Z</time>
      </trkpt>
      <trkpt lat="64.01462" lon="20.44147">
        <ele>93.524252</ele>
        <time>2020-09-29T11:26:39.792Z</time>
      </trkpt>
      <trkpt lat="64.01456" lon="20.44128">
        <ele>93.418575</ele>
        <time>2020-09-29T11:26:41.775Z</time>
      </trkpt>
      <trkpt lat="64.01451" lon="20.4411">
        <ele>93.318713</ele>
        <time>2020-09-29T11:26:43.774Z</time>
      </trkpt>
      <trkpt lat="64.01446" lon="20.44092">
        <ele>93.21975</ele>
        <time>2020-09-29T11:26:45.807Z</time>
      </trkpt>
      <trkpt lat="64.01441" lon="20.44072">
        <ele>93.117751</ele>
        <time>2020-09-29T11:26:47.812Z</time>
      </trkpt>
      <trkpt lat="64.01437" lon="20.44053">
        <ele>93.018784</ele>
        <time>2020-09-29T11:26:49.774Z</time>
      </trkpt>
      <trkpt lat="64.01432" lon="20.44035">
        <ele>92.921817</ele>
        <time>2020-09-29T11:26:51.787Z</time>
      </trkpt>
      <trkpt lat="64.01425" lon="20.44009">
        <ele>92.794673</ele>
        <time>2020-09-29T11:26:54.770Z</time>
      </trkpt>
      <trkpt lat="64.01419" lon="20.43984">
        <ele>92.714237</ele>
        <time>2020-09-29T11:26:57.770Z</time>
      </trkpt>
      <trkpt lat="64.01412" lon="20.43959">
        <ele>92.631783</ele>
        <time>2020-09-29T11:27:00.804Z</time>
      </trkpt>
      <trkpt lat="64.01406" lon="20.43933">
        <ele>92.550038</ele>
        <time>2020-09-29T11:27:03.810Z</time>
      </trkpt>
      <trkpt lat="64.014" lon="20.43907">
        <ele>92.466092</ele>
        <time>2020-09-29T11:27:06.778Z</time>
      </trkpt>
      <trkpt lat="64.01393" lon="20.43882">
        <ele>92.383905</ele>
        <time>2020-09-29T11:27:09.792Z</time>
      </trkpt>
      <trkpt lat="64.01386" lon="20.43857">
        <ele>92.303297</ele>
        <time>2020-09-29T11:27:12.788Z</time>
      </trkpt>
      <trkpt lat="64.0138" lon="20.43831">
        <ele>92.222831</ele>
        <time>2020-09-29T11:27:15.783Z</time>
      </trkpt>
      <trkpt lat="64.01374" lon="20.43805">
        <ele>92.13877</ele>
        <time>2020-09-29T11:27:18.812Z</time>
      </trkpt>
      <trkpt lat="64.01369" lon="20.43787">
        <ele>92.081024</ele>
        <time>2020-09-29T11:27:20.806Z</time>
      </trkpt>
      <trkpt lat="64.01365" lon="20.43768">
        <ele>92.021755</ele>
        <time>2020-09-29T11:27:22.782Z</time>
      </trkpt>
      <trkpt lat="64.0136" lon="20.4375">
        <ele>91.963277</ele>
        <time>2020-09-29T11:27:24.815Z</time>
      </trkpt>
      <trkpt lat="64.01356" lon="20.43731">
        <ele>91.904652</ele>
        <time>2020-09-29T11:27:26.774Z</time>
      </trkpt>
      <trkpt lat="64.01351" lon="20.43712">
        <ele>91.843796</ele>
        <time>2020-09-29T11:27:28.808Z</time>
      </trkpt>
      <trkpt lat="64.01346" lon="20.43693">
        <ele>91.782462</ele>
        <time>2020-09-29T11:27:30.769Z</time>
      </trkpt>
      <trkpt lat="64.01341" lon="20.43674">
        <ele>91.721271</ele>
        <time>2020-09-29T11:27:32.796Z</time>
      </trkpt>
      <trkpt lat="64.01336" lon="20.43655">
        <ele>91.718584</ele>
        <time>2020-09-29T11:27:34.791Z</time>
      </trkpt>
      <trkpt lat="64.01331" lon="20.43635">
        <ele>91.947838</ele>
        <time>2020-09-29T11:27:36.807Z</time>
      </trkpt>
      <trkpt lat="64.01326" lon="20.43616">
        <ele>92.175346</ele>
        <time>2020-09-29T11:27:38.782Z</time>
      </trkpt>
      <trkpt lat="64.01321" lon="20.43598">
        <ele>92.38674</ele>
        <time>2020-09-29T11:27:40.813Z</time>
      </trkpt>
      <trkpt lat="64.01315" lon="20.43572">
        <ele>92.690084</ele>
        <time>2020-09-29T11:27:43.798Z</time>
      </trkpt>
      <trkpt lat="64.01308" lon="20.43546">
        <ele>93.00333</ele>
        <time>2020-09-29T11:27:46.771Z</time>
      </trkpt>
      <trkpt lat="64.01303" lon="20.43529">
        <ele>93.215932</ele>
        <time>2020-09-29T11:27:48.819Z</time>
      </trkpt>
      <trkpt lat="64.01298" lon="20.43511">
        <ele>93.427015</ele>
        <time>2020-09-29T11:27:50.797Z</time>
      </trkpt>
      <trkpt lat="64.01293" lon="20.43493">
        <ele>93.641705</ele>
        <time>2020-09-29T11:27:52.797Z</time>
      </trkpt>
      <trkpt lat="64.01287" lon="20.43467">
        <ele>93.945594</ele>
        <time>2020-09-29T11:27:55.770Z</time>
      </trkpt>
      <trkpt lat="64.0128" lon="20.43443">
        <ele>94.236778</ele>
        <time>2020-09-29T11:27:58.821Z</time>
      </trkpt>
      <trkpt lat="64.01273" lon="20.43419">
        <ele>94.527963</ele>
        <time>2020-09-29T11:28:01.801Z</time>
      </trkpt>
      <trkpt lat="64.01268" lon="20.43396">
        <ele>94.78492</ele>
        <time>2020-09-29T11:28:04.809Z</time>
      </trkpt>
      <trkpt lat="64.01263" lon="20.43374">
        <ele>95.046998</ele>
        <time>2020-09-29T11:28:07.788Z</time>
      </trkpt>
      <trkpt lat="64.01256" lon="20.43351">
        <ele>95.319953</ele>
        <time>2020-09-29T11:28:10.796Z</time>
      </trkpt>
      <trkpt lat="64.0125" lon="20.43327">
        <ele>95.603886</ele>
        <time>2020-09-29T11:28:13.783Z</time>
      </trkpt>
      <trkpt lat="64.01245" lon="20.4331">
        <ele>95.813807</ele>
        <time>2020-09-29T11:28:15.779Z</time>
      </trkpt>
      <trkpt lat="64.0124" lon="20.43291">
        <ele>96.137619</ele>
        <time>2020-09-29T11:28:17.818Z</time>
      </trkpt>
      <trkpt lat="64.01235" lon="20.43272">
        <ele>96.492639</ele>
        <time>2020-09-29T11:28:19.789Z</time>
      </trkpt>
      <trkpt lat="64.01231" lon="20.43253">
        <ele>96.828514</ele>
        <time>2020-09-29T11:28:21.781Z</time>
      </trkpt>
      <trkpt lat="64.01226" lon="20.43235">
        <ele>97.158465</ele>
        <time>2020-09-29T11:28:23.789Z</time>
      </trkpt>
      <trkpt lat="64.0122" lon="20.4321">
        <ele>97.624225</ele>
        <time>2020-09-29T11:28:26.788Z</time>
      </trkpt>
      <trkpt lat="64.01214" lon="20.43187">
        <ele>98.045876</ele>
        <time>2020-09-29T11:28:29.800Z</time>
      </trkpt>
      <trkpt lat="64.01208" lon="20.43167">
        <ele>98.43424</ele>
        <time>2020-09-29T11:28:32.794Z</time>
      </trkpt>
      <trkpt lat="64.01202" lon="20.43146">
        <ele>98.812502</ele>
        <time>2020-09-29T11:28:35.800Z</time>
      </trkpt>
      <trkpt lat="64.01198" lon="20.43128">
        <ele>99.137954</ele>
        <time>2020-09-29T11:28:38.803Z</time>
      </trkpt>
      <trkpt lat="64.01193" lon="20.43108">
        <ele>99.508055</ele>
        <time>2020-09-29T11:28:42.777Z</time>
      </trkpt>
      <trkpt lat="64.01188" lon="20.43089">
        <ele>99.856084</ele>
        <time>2020-09-29T11:28:46.780Z</time>
      </trkpt>
      <trkpt lat="64.01182" lon="20.43069">
        <ele>100.235715</ele>
        <time>2020-09-29T11:28:50.805Z</time>
      </trkpt>
      <trkpt lat="64.01177" lon="20.43047">
        <ele>100.629565</ele>
        <time>2020-09-29T11:28:54.789Z</time>
      </trkpt>
      <trkpt lat="64.01171" lon="20.43027">
        <ele>101.006958</ele>
        <time>2020-09-29T11:28:58.818Z</time>
      </trkpt>
      <trkpt lat="64.01166" lon="20.43004">
        <ele>101.422212</ele>
        <time>2020-09-29T11:29:02.790Z</time>
      </trkpt>
      <trkpt lat="64.01163" lon="20.42984">
        <ele>101.761904</ele>
        <time>2020-09-29T11:29:05.789Z</time>
      </trkpt>
      <trkpt lat="64.01158" lon="20.42959">
        <ele>102.184107</ele>
        <time>2020-09-29T11:29:09.786Z</time>
      </trkpt>
      <trkpt lat="64.01154" lon="20.4294">
        <ele>102.222017</ele>
        <time>2020-09-29T11:29:12.779Z</time>
      </trkpt>
      <trkpt lat="64.01149" lon="20.4292">
        <ele>101.959455</ele>
        <time>2020-09-29T11:29:15.786Z</time>
      </trkpt>
      <trkpt lat="64.01144" lon="20.42896">
        <ele>101.660074</ele>
        <time>2020-09-29T11:29:18.778Z</time>
      </trkpt>
      <trkpt lat="64.01139" lon="20.42871">
        <ele>101.338903</ele>
        <time>2020-09-29T11:29:21.796Z</time>
      </trkpt>
      <trkpt lat="64.01132" lon="20.42845">
        <ele>100.99728</ele>
        <time>2020-09-29T11:29:24.771Z</time>
      </trkpt>
      <trkpt lat="64.01128" lon="20.42826">
        <ele>100.758317</ele>
        <time>2020-09-29T11:29:26.773Z</time>
      </trkpt>
      <trkpt lat="64.01124" lon="20.42807">
        <ele>100.513262</ele>
        <time>2020-09-29T11:29:28.807Z</time>
      </trkpt>
      <trkpt lat="64.0112" lon="20.42787">
        <ele>100.26094</ele>
        <time>2020-09-29T11:29:30.790Z</time>
      </trkpt>
      <trkpt lat="64.01116" lon="20.42766">
        <ele>100.003644</ele>
        <time>2020-09-29T11:29:32.794Z</time>
      </trkpt>
      <trkpt lat="64.01111" lon="20.42745">
        <ele>99.742103</ele>
        <time>2020-09-29T11:29:34.808Z</time>
      </trkpt>
      <trkpt lat="64.01107" lon="20.42724">
        <ele>99.47752</ele>
        <time>2020-09-29T11:29:36.810Z</time>
      </trkpt>
      <trkpt lat="64.01103" lon="20.42702">
        <ele>99.207722</ele>
        <time>2020-09-29T11:29:38.776Z</time>
      </trkpt>
      <trkpt lat="64.01098" lon="20.42681">
        <ele>98.935634</ele>
        <time>2020-09-29T11:29:40.789Z</time>
      </trkpt>
      <trkpt lat="64.01094" lon="20.42659">
        <ele>98.65637</ele>
        <time>2020-09-29T11:29:42.822Z</time>
      </trkpt>
      <trkpt lat="64.01089" lon="20.42636">
        <ele>98.380339</ele>
        <time>2020-09-29T11:29:44.791Z</time>
      </trkpt>
      <trkpt lat="64.01085" lon="20.42614">
        <ele>98.098931</ele>
        <time>2020-09-29T11:29:46.782Z</time>
      </trkpt>
      <trkpt lat="64.0108" lon="20.42592">
        <ele>97.817408</ele>
        <time>2020-09-29T11:29:48.782Z</time>
      </trkpt>
      <trkpt lat="64.01075" lon="20.42568">
        <ele>97.467354</ele>
        <time>2020-09-29T11:29:50.777Z</time>
      </trkpt>
      <trkpt lat="64.0107" lon="20.42545">
        <ele>97.067605</ele>
        <time>2020-09-29T11:29:52.816Z</time>
      </trkpt>
      <trkpt lat="64.01065" lon="20.42516">
        <ele>96.604868</ele>
        <time>2020-09-29T11:29:54.803Z</time>
      </trkpt>
      <trkpt lat="64.0106" lon="20.42486">
        <ele>96.10761</ele>
        <time>2020-09-29T11:29:56.796Z</time>
      </trkpt>
      <trkpt lat="64.01054" lon="20.42454">
        <ele>95.582641</ele>
        <time>2020-09-29T11:29:58.780Z</time>
      </trkpt>
      <trkpt lat="64.01048" lon="20.42422">
        <ele>95.054874</ele>
        <time>2020-09-29T11:30:00.775Z</time>
      </trkpt>
      <trkpt lat="64.01041" lon="20.4239">
        <ele>94.501621</ele>
        <time>2020-09-29T11:30:02.777Z</time>
      </trkpt>
      <trkpt lat="64.01034" lon="20.42358">
        <ele>93.968188</ele>
        <time>2020-09-29T11:30:04.792Z</time>
      </trkpt>
      <trkpt lat="64.01029" lon="20.42327">
        <ele>93.452821</ele>
        <time>2020-09-29T11:30:06.805Z</time>
      </trkpt>
      <trkpt lat="64.01023" lon="20.42297">
        <ele>92.96269</ele>
        <time>2020-09-29T11:30:08.786Z</time>
      </trkpt>
      <trkpt lat="64.01017" lon="20.42269">
        <ele>92.491867</ele>
        <time>2020-09-29T11:30:10.792Z</time>
      </trkpt>
      <trkpt lat="64.01012" lon="20.42242">
        <ele>92.044905</ele>
        <time>2020-09-29T11:30:12.791Z</time>
      </trkpt>
      <trkpt lat="64.01007" lon="20.42216">
        <ele>91.611867</ele>
        <time>2020-09-29T11:30:14.805Z</time>
      </trkpt>
      <trkpt lat="64.01002" lon="20.42191">
        <ele>91.335398</ele>
        <time>2020-09-29T11:30:16.786Z</time>
      </trkpt>
      <trkpt lat="64.00998" lon="20.42168">
        <ele>91.160186</ele>
        <time>2020-09-29T11:30:18.804Z</time>
      </trkpt>
      <trkpt lat="64.00993" lon="20.42145">
        <ele>90.991042</ele>
        <time>2020-09-29T11:30:20.779Z</time>
      </trkpt>
      <trkpt lat="64.00987" lon="20.42122">
        <ele>90.819024</ele>
        <time>2020-09-29T11:30:22.778Z</time>
      </trkpt>
      <trkpt lat="64.00982" lon="20.42099">
        <ele>90.642436</ele>
        <time>2020-09-29T11:30:24.789Z</time>
      </trkpt>
      <trkpt lat="64.00977" lon="20.42075">
        <ele>90.46645</ele>
        <time>2020-09-29T11:30:26.777Z</time>
      </trkpt>
      <trkpt lat="64.00973" lon="20.42052">
        <ele>90.293095</ele>
        <time>2020-09-29T11:30:28.811Z</time>
      </trkpt>
      <trkpt lat="64.00968" lon="20.42028">
        <ele>90.121597</ele>
        <time>2020-09-29T11:30:30.776Z</time>
      </trkpt>
      <trkpt lat="64.00964" lon="20.42006">
        <ele>89.958027</ele>
        <time>2020-09-29T11:30:32.775Z</time>
      </trkpt>
      <trkpt lat="64.0096" lon="20.41984">
        <ele>89.799425</ele>
        <time>2020-09-29T11:30:34.792Z</time>
      </trkpt>
      <trkpt lat="64.00955" lon="20.41963">
        <ele>89.642548</ele>
        <time>2020-09-29T11:30:36.788Z</time>
      </trkpt>
      <trkpt lat="64.00951" lon="20.41942">
        <ele>89.48386</ele>
        <time>2020-09-29T11:30:38.818Z</time>
      </trkpt>
      <trkpt lat="64.00947" lon="20.4192">
        <ele>89.325274</ele>
        <time>2020-09-29T11:30:40.778Z</time>
      </trkpt>
      <trkpt lat="64.00942" lon="20.41899">
        <ele>89.16477</ele>
        <time>2020-09-29T11:30:42.784Z</time>
      </trkpt>
      <trkpt lat="64.00937" lon="20.41875">
        <ele>88.992023</ele>
        <time>2020-09-29T11:30:44.785Z</time>
      </trkpt>
      <trkpt lat="64.00932" lon="20.41852">
        <ele>88.818518</ele>
        <time>2020-09-29T11:30:46.786Z</time>
      </trkpt>
      <trkpt lat="64.00928" lon="20.4183">
        <ele>88.681962</ele>
        <time>2020-09-29T11:30:48.787Z</time>
      </trkpt>
      <trkpt lat="64.00924" lon="20.41808">
        <ele>88.672205</ele>
        <time>2020-09-29T11:30:50.779Z</time>
      </trkpt>
      <trkpt lat="64.00919" lon="20.41787">
        <ele>88.66241</ele>
        <time>2020-09-29T11:30:52.848Z</time>
      </trkpt>
      <trkpt lat="64.00915" lon="20.41765">
        <ele>88.652577</ele>
        <time>2020-09-29T11:30:54.780Z</time>
      </trkpt>
      <trkpt lat="64.00911" lon="20.41743">
        <ele>88.642593</ele>
        <time>2020-09-29T11:30:56.806Z</time>
      </trkpt>
      <trkpt lat="64.00906" lon="20.41722">
        <ele>88.633315</ele>
        <time>2020-09-29T11:30:58.782Z</time>
      </trkpt>
      <trkpt lat="64.00903" lon="20.41702">
        <ele>88.624009</ele>
        <time>2020-09-29T11:31:00.792Z</time>
      </trkpt>
      <trkpt lat="64.00899" lon="20.41681">
        <ele>88.614776</ele>
        <time>2020-09-29T11:31:02.776Z</time>
      </trkpt>
      <trkpt lat="64.00895" lon="20.41659">
        <ele>88.605018</ele>
        <time>2020-09-29T11:31:04.791Z</time>
      </trkpt>
      <trkpt lat="64.0089" lon="20.41637">
        <ele>88.594918</ele>
        <time>2020-09-29T11:31:06.797Z</time>
      </trkpt>
      <trkpt lat="64.00885" lon="20.41614">
        <ele>88.584435</ele>
        <time>2020-09-29T11:31:08.813Z</time>
      </trkpt>
      <trkpt lat="64.0088" lon="20.41591">
        <ele>88.573801</ele>
        <time>2020-09-29T11:31:10.787Z</time>
      </trkpt>
      <trkpt lat="64.00875" lon="20.41569">
        <ele>88.563697</ele>
        <time>2020-09-29T11:31:12.775Z</time>
      </trkpt>
      <trkpt lat="64.00871" lon="20.41547">
        <ele>88.554166</ele>
        <time>2020-09-29T11:31:14.786Z</time>
      </trkpt>
      <trkpt lat="64.00867" lon="20.41527">
        <ele>88.545048</ele>
        <time>2020-09-29T11:31:16.794Z</time>
      </trkpt>
      <trkpt lat="64.00864" lon="20.41507">
        <ele>88.536119</ele>
        <time>2020-09-29T11:31:18.795Z</time>
      </trkpt>
      <trkpt lat="64.0086" lon="20.41488">
        <ele>88.52737</ele>
        <time>2020-09-29T11:31:20.808Z</time>
      </trkpt>
      <trkpt lat="64.00856" lon="20.41469">
        <ele>88.518555</ele>
        <time>2020-09-29T11:31:22.774Z</time>
      </trkpt>
      <trkpt lat="64.00852" lon="20.41449">
        <ele>88.50998</ele>
        <time>2020-09-29T11:31:24.797Z</time>
      </trkpt>
      <trkpt lat="64.00848" lon="20.4143">
        <ele>88.502131</ele>
        <time>2020-09-29T11:31:26.833Z</time>
      </trkpt>
      <trkpt lat="64.00844" lon="20.4141">
        <ele>88.494179</ele>
        <time>2020-09-29T11:31:28.778Z</time>
      </trkpt>
      <trkpt lat="64.00841" lon="20.4139">
        <ele>88.485812</ele>
        <time>2020-09-29T11:31:30.779Z</time>
      </trkpt>
      <trkpt lat="64.00836" lon="20.41368">
        <ele>88.476794</ele>
        <time>2020-09-29T11:31:32.808Z</time>
      </trkpt>
      <trkpt lat="64.00832" lon="20.41345">
        <ele>88.467291</ele>
        <time>2020-09-29T11:31:34.793Z</time>
      </trkpt>
      <trkpt lat="64.00827" lon="20.41321">
        <ele>88.457687</ele>
        <time>2020-09-29T11:31:36.791Z</time>
      </trkpt>
      <trkpt lat="64.00823" lon="20.41299">
        <ele>88.448324</ele>
        <time>2020-09-29T11:31:38.823Z</time>
      </trkpt>
      <trkpt lat="64.00818" lon="20.41276">
        <ele>88.438886</ele>
        <time>2020-09-29T11:31:40.798Z</time>
      </trkpt>
      <trkpt lat="64.00813" lon="20.41253">
        <ele>88.429126</ele>
        <time>2020-09-29T11:31:42.791Z</time>
      </trkpt>
      <trkpt lat="64.00808" lon="20.4123">
        <ele>88.419539</ele>
        <time>2020-09-29T11:31:44.788Z</time>
      </trkpt>
      <trkpt lat="64.00803" lon="20.41208">
        <ele>88.410138</ele>
        <time>2020-09-29T11:31:46.789Z</time>
      </trkpt>
      <trkpt lat="64.00798" lon="20.41185">
        <ele>88.400666</ele>
        <time>2020-09-29T11:31:48.769Z</time>
      </trkpt>
      <trkpt lat="64.00794" lon="20.41161">
        <ele>88.391062</ele>
        <time>2020-09-29T11:31:50.782Z</time>
      </trkpt>
      <trkpt lat="64.00789" lon="20.41137">
        <ele>88.380977</ele>
        <time>2020-09-29T11:31:52.780Z</time>
      </trkpt>
      <trkpt lat="64.00784" lon="20.41113">
        <ele>88.37096</ele>
        <time>2020-09-29T11:31:54.821Z</time>
      </trkpt>
      <trkpt lat="64.00779" lon="20.41089">
        <ele>88.361061</ele>
        <time>2020-09-29T11:31:56.836Z</time>
      </trkpt>
      <trkpt lat="64.00774" lon="20.41065">
        <ele>88.353598</ele>
        <time>2020-09-29T11:31:58.795Z</time>
      </trkpt>
      <trkpt lat="64.00769" lon="20.41041">
        <ele>88.346312</ele>
        <time>2020-09-29T11:32:00.801Z</time>
      </trkpt>
      <trkpt lat="64.00764" lon="20.41017">
        <ele>88.338976</ele>
        <time>2020-09-29T11:32:02.782Z</time>
      </trkpt>
      <trkpt lat="64.00759" lon="20.40993">
        <ele>88.331842</ele>
        <time>2020-09-29T11:32:04.800Z</time>
      </trkpt>
      <trkpt lat="64.00755" lon="20.4097">
        <ele>88.32486</ele>
        <time>2020-09-29T11:32:06.792Z</time>
      </trkpt>
      <trkpt lat="64.00751" lon="20.40947">
        <ele>88.318078</ele>
        <time>2020-09-29T11:32:08.827Z</time>
      </trkpt>
      <trkpt lat="64.00747" lon="20.40925">
        <ele>88.311396</ele>
        <time>2020-09-29T11:32:10.776Z</time>
      </trkpt>
      <trkpt lat="64.00743" lon="20.40902">
        <ele>88.304665</ele>
        <time>2020-09-29T11:32:12.834Z</time>
      </trkpt>
      <trkpt lat="64.00738" lon="20.4088">
        <ele>88.297726</ele>
        <time>2020-09-29T11:32:14.806Z</time>
      </trkpt>
      <trkpt lat="64.00733" lon="20.40856">
        <ele>88.290514</ele>
        <time>2020-09-29T11:32:16.800Z</time>
      </trkpt>
      <trkpt lat="64.00729" lon="20.40832">
        <ele>88.283202</ele>
        <time>2020-09-29T11:32:18.803Z</time>
      </trkpt>
      <trkpt lat="64.00724" lon="20.4081">
        <ele>88.276398</ele>
        <time>2020-09-29T11:32:20.787Z</time>
      </trkpt>
      <trkpt lat="64.0072" lon="20.40786">
        <ele>88.26929</ele>
        <time>2020-09-29T11:32:22.798Z</time>
      </trkpt>
      <trkpt lat="64.00714" lon="20.40762">
        <ele>88.261794</ele>
        <time>2020-09-29T11:32:24.779Z</time>
      </trkpt>
      <trkpt lat="64.00709" lon="20.40737">
        <ele>88.254182</ele>
        <time>2020-09-29T11:32:26.811Z</time>
      </trkpt>
      <trkpt lat="64.00703" lon="20.40712">
        <ele>88.208256</ele>
        <time>2020-09-29T11:32:28.819Z</time>
      </trkpt>
      <trkpt lat="64.00697" lon="20.40685">
        <ele>87.929241</ele>
        <time>2020-09-29T11:32:30.783Z</time>
      </trkpt>
      <trkpt lat="64.00691" lon="20.40656">
        <ele>87.63259</ele>
        <time>2020-09-29T11:32:32.767Z</time>
      </trkpt>
      <trkpt lat="64.00685" lon="20.40627">
        <ele>87.337391</ele>
        <time>2020-09-29T11:32:34.830Z</time>
      </trkpt>
      <trkpt lat="64.00678" lon="20.40598">
        <ele>87.029587</ele>
        <time>2020-09-29T11:32:36.789Z</time>
      </trkpt>
      <trkpt lat="64.00671" lon="20.40569">
        <ele>86.726931</ele>
        <time>2020-09-29T11:32:38.792Z</time>
      </trkpt>
      <trkpt lat="64.00665" lon="20.4054">
        <ele>86.437167</ele>
        <time>2020-09-29T11:32:40.801Z</time>
      </trkpt>
      <trkpt lat="64.0066" lon="20.40514">
        <ele>86.168647</ele>
        <time>2020-09-29T11:32:42.791Z</time>
      </trkpt>
      <trkpt lat="64.00656" lon="20.40488">
        <ele>85.91196</ele>
        <time>2020-09-29T11:32:44.782Z</time>
      </trkpt>
      <trkpt lat="64.00651" lon="20.40465">
        <ele>85.672225</ele>
        <time>2020-09-29T11:32:46.790Z</time>
      </trkpt>
      <trkpt lat="64.00646" lon="20.40443">
        <ele>85.44811</ele>
        <time>2020-09-29T11:32:48.801Z</time>
      </trkpt>
      <trkpt lat="64.00641" lon="20.40422">
        <ele>85.234415</ele>
        <time>2020-09-29T11:32:50.821Z</time>
      </trkpt>
      <trkpt lat="64.00637" lon="20.40401">
        <ele>85.019061</ele>
        <time>2020-09-29T11:32:52.792Z</time>
      </trkpt>
      <trkpt lat="64.00633" lon="20.4038">
        <ele>84.801368</ele>
        <time>2020-09-29T11:32:54.792Z</time>
      </trkpt>
      <trkpt lat="64.00629" lon="20.40358">
        <ele>84.584462</ele>
        <time>2020-09-29T11:32:56.814Z</time>
      </trkpt>
      <trkpt lat="64.00625" lon="20.40338">
        <ele>84.441152</ele>
        <time>2020-09-29T11:32:58.791Z</time>
      </trkpt>
      <trkpt lat="64.00621" lon="20.40319">
        <ele>84.411608</ele>
        <time>2020-09-29T11:33:00.795Z</time>
      </trkpt>
      <trkpt lat="64.00616" lon="20.40294">
        <ele>84.372025</ele>
        <time>2020-09-29T11:33:03.790Z</time>
      </trkpt>
      <trkpt lat="64.00611" lon="20.40269">
        <ele>84.333603</ele>
        <time>2020-09-29T11:33:06.797Z</time>
      </trkpt>
      <trkpt lat="64.00605" lon="20.40243">
        <ele>84.293412</ele>
        <time>2020-09-29T11:33:09.785Z</time>
      </trkpt>
      <trkpt lat="64.006" lon="20.40216">
        <ele>84.251085</ele>
        <time>2020-09-29T11:33:12.817Z</time>
      </trkpt>
      <trkpt lat="64.00596" lon="20.40197">
        <ele>84.222206</ele>
        <time>2020-09-29T11:33:14.778Z</time>
      </trkpt>
      <trkpt lat="64.00592" lon="20.40178">
        <ele>84.192015</ele>
        <time>2020-09-29T11:33:16.787Z</time>
      </trkpt>
      <trkpt lat="64.00587" lon="20.40158">
        <ele>84.160118</ele>
        <time>2020-09-29T11:33:18.798Z</time>
      </trkpt>
      <trkpt lat="64.00583" lon="20.40137">
        <ele>84.127623</ele>
        <time>2020-09-29T11:33:20.793Z</time>
      </trkpt>
      <trkpt lat="64.00579" lon="20.40115">
        <ele>84.093715</ele>
        <time>2020-09-29T11:33:22.777Z</time>
      </trkpt>
      <trkpt lat="64.00575" lon="20.40092">
        <ele>84.058629</ele>
        <time>2020-09-29T11:33:24.795Z</time>
      </trkpt>
      <trkpt lat="64.0057" lon="20.40068">
        <ele>84.021238</ele>
        <time>2020-09-29T11:33:26.780Z</time>
      </trkpt>
      <trkpt lat="64.00565" lon="20.40044">
        <ele>83.98384</ele>
        <time>2020-09-29T11:33:28.795Z</time>
      </trkpt>
      <trkpt lat="64.0056" lon="20.40018">
        <ele>83.944645</ele>
        <time>2020-09-29T11:33:30.789Z</time>
      </trkpt>
      <trkpt lat="64.00555" lon="20.39991">
        <ele>83.903749</ele>
        <time>2020-09-29T11:33:32.775Z</time>
      </trkpt>
      <trkpt lat="64.0055" lon="20.39964">
        <ele>83.802483</ele>
        <time>2020-09-29T11:33:34.795Z</time>
      </trkpt>
      <trkpt lat="64.00545" lon="20.39936">
        <ele>83.559381</ele>
        <time>2020-09-29T11:33:36.809Z</time>
      </trkpt>
      <trkpt lat="64.00539" lon="20.39907">
        <ele>83.30518</ele>
        <time>2020-09-29T11:33:38.786Z</time>
      </trkpt>
      <trkpt lat="64.00534" lon="20.39878">
        <ele>83.05024</ele>
        <time>2020-09-29T11:33:40.796Z</time>
      </trkpt>
      <trkpt lat="64.00528" lon="20.3985">
        <ele>82.795299</ele>
        <time>2020-09-29T11:33:42.786Z</time>
      </trkpt>
      <trkpt lat="64.00522" lon="20.39821">
        <ele>82.540142</ele>
        <time>2020-09-29T11:33:44.809Z</time>
      </trkpt>
      <trkpt lat="64.00516" lon="20.39796">
        <ele>82.306929</ele>
        <time>2020-09-29T11:33:46.782Z</time>
      </trkpt>
      <trkpt lat="64.00511" lon="20.39773">
        <ele>82.096965</ele>
        <time>2020-09-29T11:33:48.777Z</time>
      </trkpt>
      <trkpt lat="64.00506" lon="20.3975">
        <ele>81.895079</ele>
        <time>2020-09-29T11:33:50.781Z</time>
      </trkpt>
      <trkpt lat="64.00501" lon="20.39728">
        <ele>81.693103</ele>
        <time>2020-09-29T11:33:52.828Z</time>
      </trkpt>
      <trkpt lat="64.00497" lon="20.39707">
        <ele>81.509104</ele>
        <time>2020-09-29T11:33:54.807Z</time>
      </trkpt>
      <trkpt lat="64.00493" lon="20.39687">
        <ele>81.330285</ele>
        <time>2020-09-29T11:33:56.788Z</time>
      </trkpt>
      <trkpt lat="64.00489" lon="20.39665">
        <ele>81.138887</ele>
        <time>2020-09-29T11:33:58.794Z</time>
      </trkpt>
      <trkpt lat="64.00484" lon="20.39643">
        <ele>80.945289</ele>
        <time>2020-09-29T11:34:00.776Z</time>
      </trkpt>
      <trkpt lat="64.0048" lon="20.39622">
        <ele>80.757602</ele>
        <time>2020-09-29T11:34:02.809Z</time>
      </trkpt>
      <trkpt lat="64.00476" lon="20.39601">
        <ele>80.571184</ele>
        <time>2020-09-29T11:34:04.780Z</time>
      </trkpt>
      <trkpt lat="64.00471" lon="20.39581">
        <ele>80.365782</ele>
        <time>2020-09-29T11:34:06.791Z</time>
      </trkpt>
      <trkpt lat="64.00467" lon="20.39561">
        <ele>80.167349</ele>
        <time>2020-09-29T11:34:08.775Z</time>
      </trkpt>
      <trkpt lat="64.00463" lon="20.3954">
        <ele>79.964689</ele>
        <time>2020-09-29T11:34:10.785Z</time>
      </trkpt>
      <trkpt lat="64.0046" lon="20.39519">
        <ele>79.754242</ele>
        <time>2020-09-29T11:34:12.777Z</time>
      </trkpt>
      <trkpt lat="64.00456" lon="20.39496">
        <ele>79.533393</ele>
        <time>2020-09-29T11:34:14.807Z</time>
      </trkpt>
      <trkpt lat="64.00452" lon="20.39473">
        <ele>79.30773</ele>
        <time>2020-09-29T11:34:16.790Z</time>
      </trkpt>
      <trkpt lat="64.00447" lon="20.3945">
        <ele>79.07958</ele>
        <time>2020-09-29T11:34:18.803Z</time>
      </trkpt>
      <trkpt lat="64.00442" lon="20.39428">
        <ele>78.853729</ele>
        <time>2020-09-29T11:34:20.771Z</time>
      </trkpt>
      <trkpt lat="64.00438" lon="20.39405">
        <ele>78.627063</ele>
        <time>2020-09-29T11:34:22.798Z</time>
      </trkpt>
      <trkpt lat="64.00433" lon="20.39384">
        <ele>78.412789</ele>
        <time>2020-09-29T11:34:24.790Z</time>
      </trkpt>
      <trkpt lat="64.00428" lon="20.39363">
        <ele>78.200662</ele>
        <time>2020-09-29T11:34:26.790Z</time>
      </trkpt>
      <trkpt lat="64.00423" lon="20.39342">
        <ele>77.978291</ele>
        <time>2020-09-29T11:34:28.798Z</time>
      </trkpt>
      <trkpt lat="64.00418" lon="20.39322">
        <ele>77.764773</ele>
        <time>2020-09-29T11:34:30.778Z</time>
      </trkpt>
      <trkpt lat="64.00412" lon="20.39302">
        <ele>77.550705</ele>
        <time>2020-09-29T11:34:32.804Z</time>
      </trkpt>
      <trkpt lat="64.00405" lon="20.39284">
        <ele>77.330669</ele>
        <time>2020-09-29T11:34:34.803Z</time>
      </trkpt>
      <trkpt lat="64.00398" lon="20.39264">
        <ele>77.105344</ele>
        <time>2020-09-29T11:34:36.807Z</time>
      </trkpt>
      <trkpt lat="64.00391" lon="20.39244">
        <ele>76.876212</ele>
        <time>2020-09-29T11:34:38.789Z</time>
      </trkpt>
      <trkpt lat="64.00384" lon="20.39225">
        <ele>76.790831</ele>
        <time>2020-09-29T11:34:40.789Z</time>
      </trkpt>
      <trkpt lat="64.00377" lon="20.39206">
        <ele>76.725235</ele>
        <time>2020-09-29T11:34:42.795Z</time>
      </trkpt>
      <trkpt lat="64.00369" lon="20.39186">
        <ele>76.660223</ele>
        <time>2020-09-29T11:34:44.809Z</time>
      </trkpt>
      <trkpt lat="64.00362" lon="20.39167">
        <ele>76.595211</ele>
        <time>2020-09-29T11:34:46.799Z</time>
      </trkpt>
      <trkpt lat="64.00354" lon="20.39148">
        <ele>76.528082</ele>
        <time>2020-09-29T11:34:48.795Z</time>
      </trkpt>
      <trkpt lat="64.00346" lon="20.39129">
        <ele>76.462406</ele>
        <time>2020-09-29T11:34:50.784Z</time>
      </trkpt>
      <trkpt lat="64.00338" lon="20.39111">
        <ele>76.397222</ele>
        <time>2020-09-29T11:34:52.815Z</time>
      </trkpt>
      <trkpt lat="64.0033" lon="20.39093">
        <ele>76.330016</ele>
        <time>2020-09-29T11:34:54.788Z</time>
      </trkpt>
      <trkpt lat="64.00322" lon="20.39075">
        <ele>76.264001</ele>
        <time>2020-09-29T11:34:56.793Z</time>
      </trkpt>
      <trkpt lat="64.00313" lon="20.39057">
        <ele>76.197689</ele>
        <time>2020-09-29T11:34:58.811Z</time>
      </trkpt>
      <trkpt lat="64.00305" lon="20.39038">
        <ele>76.131197</ele>
        <time>2020-09-29T11:35:00.774Z</time>
      </trkpt>
      <trkpt lat="64.00297" lon="20.3902">
        <ele>76.062972</ele>
        <time>2020-09-29T11:35:02.788Z</time>
      </trkpt>
      <trkpt lat="64.00288" lon="20.39004">
        <ele>75.999769</ele>
        <time>2020-09-29T11:35:04.818Z</time>
      </trkpt>
      <trkpt lat="64.00281" lon="20.38988">
        <ele>75.939087</ele>
        <time>2020-09-29T11:35:06.785Z</time>
      </trkpt>
      <trkpt lat="64.00273" lon="20.38973">
        <ele>75.878526</ele>
        <time>2020-09-29T11:35:08.799Z</time>
      </trkpt>
      <trkpt lat="64.00264" lon="20.38958">
        <ele>75.81587</ele>
        <time>2020-09-29T11:35:10.796Z</time>
      </trkpt>
      <trkpt lat="64.00255" lon="20.38943">
        <ele>76.010861</ele>
        <time>2020-09-29T11:35:12.814Z</time>
      </trkpt>
      <trkpt lat="64.00247" lon="20.38927">
        <ele>76.266442</ele>
        <time>2020-09-29T11:35:14.780Z</time>
      </trkpt>
      <trkpt lat="64.0024" lon="20.38912">
        <ele>76.513439</ele>
        <time>2020-09-29T11:35:16.788Z</time>
      </trkpt>
      <trkpt lat="64.00232" lon="20.38898">
        <ele>76.7514</ele>
        <time>2020-09-29T11:35:18.780Z</time>
      </trkpt>
      <trkpt lat="64.00225" lon="20.38885">
        <ele>76.976724</ele>
        <time>2020-09-29T11:35:20.786Z</time>
      </trkpt>
      <trkpt lat="64.00218" lon="20.38872">
        <ele>77.197437</ele>
        <time>2020-09-29T11:35:22.786Z</time>
      </trkpt>
      <trkpt lat="64.0021" lon="20.38861">
        <ele>77.420203</ele>
        <time>2020-09-29T11:35:24.783Z</time>
      </trkpt>
      <trkpt lat="64.00199" lon="20.38847">
        <ele>77.732227</ele>
        <time>2020-09-29T11:35:27.784Z</time>
      </trkpt>
      <trkpt lat="64.00187" lon="20.38832">
        <ele>78.056019</ele>
        <time>2020-09-29T11:35:30.774Z</time>
      </trkpt>
      <trkpt lat="64.00176" lon="20.38818">
        <ele>78.372355</ele>
        <time>2020-09-29T11:35:33.796Z</time>
      </trkpt>
      <trkpt lat="64.00164" lon="20.38805">
        <ele>78.697338</ele>
        <time>2020-09-29T11:35:36.777Z</time>
      </trkpt>
      <trkpt lat="64.00156" lon="20.38796">
        <ele>78.923271</ele>
        <time>2020-09-29T11:35:38.779Z</time>
      </trkpt>
      <trkpt lat="64.00147" lon="20.38788">
        <ele>79.14864</ele>
        <time>2020-09-29T11:35:40.795Z</time>
      </trkpt>
      <trkpt lat="64.00138" lon="20.38782">
        <ele>79.37596</ele>
        <time>2020-09-29T11:35:42.794Z</time>
      </trkpt>
      <trkpt lat="64.00129" lon="20.38777">
        <ele>79.605335</ele>
        <time>2020-09-29T11:35:44.790Z</time>
      </trkpt>
      <trkpt lat="64.0012" lon="20.38771">
        <ele>79.832903</ele>
        <time>2020-09-29T11:35:46.787Z</time>
      </trkpt>
      <trkpt lat="64.00111" lon="20.38766">
        <ele>80.055202</ele>
        <time>2020-09-29T11:35:48.786Z</time>
      </trkpt>
      <trkpt lat="64.00098" lon="20.38759">
        <ele>80.355947</ele>
        <time>2020-09-29T11:35:51.806Z</time>
      </trkpt>
      <trkpt lat="64.00086" lon="20.38753">
        <ele>80.631236</ele>
        <time>2020-09-29T11:35:54.789Z</time>
      </trkpt>
      <trkpt lat="64.00073" lon="20.38748">
        <ele>80.907335</ele>
        <time>2020-09-29T11:35:57.780Z</time>
      </trkpt>
      <trkpt lat="64.00064" lon="20.38745">
        <ele>81.112307</ele>
        <time>2020-09-29T11:35:59.829Z</time>
      </trkpt>
      <trkpt lat="64.00055" lon="20.38741">
        <ele>81.31371</ele>
        <time>2020-09-29T11:36:01.803Z</time>
      </trkpt>
      <trkpt lat="64.00045" lon="20.38737">
        <ele>81.520358</ele>
        <time>2020-09-29T11:36:03.790Z</time>
      </trkpt>
      <trkpt lat="64.00036" lon="20.38734">
        <ele>81.720486</ele>
        <time>2020-09-29T11:36:05.779Z</time>
      </trkpt>
      <trkpt lat="64.00022" lon="20.3873">
        <ele>82.010865</ele>
        <time>2020-09-29T11:36:08.815Z</time>
      </trkpt>
      <trkpt lat="64.00013" lon="20.38726">
        <ele>82.212447</ele>
        <time>2020-09-29T11:36:10.780Z</time>
      </trkpt>
      <trkpt lat="64" lon="20.38721">
        <ele>82.498888</ele>
        <time>2020-09-29T11:36:13.819Z</time>
      </trkpt>
      <trkpt lat="63.99991" lon="20.38717">
        <ele>82.695221</ele>
        <time>2020-09-29T11:36:15.839Z</time>
      </trkpt>
      <trkpt lat="63.99982" lon="20.38714">
        <ele>82.897337</ele>
        <time>2020-09-29T11:36:17.787Z</time>
      </trkpt>
      <trkpt lat="63.99972" lon="20.38711">
        <ele>83.103985</ele>
        <time>2020-09-29T11:36:19.789Z</time>
      </trkpt>
      <trkpt lat="63.99963" lon="20.38707">
        <ele>83.3132</ele>
        <time>2020-09-29T11:36:21.780Z</time>
      </trkpt>
      <trkpt lat="63.99953" lon="20.38704">
        <ele>83.524242</ele>
        <time>2020-09-29T11:36:23.778Z</time>
      </trkpt>
      <trkpt lat="63.99943" lon="20.38701">
        <ele>83.739264</ele>
        <time>2020-09-29T11:36:25.807Z</time>
      </trkpt>
      <trkpt lat="63.99933" lon="20.38697">
        <ele>83.952576</ele>
        <time>2020-09-29T11:36:27.804Z</time>
      </trkpt>
      <trkpt lat="63.99923" lon="20.38693">
        <ele>84.050922</ele>
        <time>2020-09-29T11:36:29.771Z</time>
      </trkpt>
      <trkpt lat="63.99914" lon="20.38688">
        <ele>84.036514</ele>
        <time>2020-09-29T11:36:31.810Z</time>
      </trkpt>
      <trkpt lat="63.99904" lon="20.38683">
        <ele>84.021797</ele>
        <time>2020-09-29T11:36:33.772Z</time>
      </trkpt>
      <trkpt lat="63.99894" lon="20.38679">
        <ele>84.007543</ele>
        <time>2020-09-29T11:36:35.789Z</time>
      </trkpt>
      <trkpt lat="63.99885" lon="20.38676">
        <ele>83.993853</ele>
        <time>2020-09-29T11:36:37.803Z</time>
      </trkpt>
      <trkpt lat="63.99875" lon="20.38673">
        <ele>83.980429</ele>
        <time>2020-09-29T11:36:39.779Z</time>
      </trkpt>
      <trkpt lat="63.99866" lon="20.38669">
        <ele>83.966975</ele>
        <time>2020-09-29T11:36:41.775Z</time>
      </trkpt>
      <trkpt lat="63.99857" lon="20.38665">
        <ele>83.953095</ele>
        <time>2020-09-29T11:36:43.780Z</time>
      </trkpt>
      <trkpt lat="63.99846" lon="20.38661">
        <ele>83.938188</ele>
        <time>2020-09-29T11:36:45.782Z</time>
      </trkpt>
      <trkpt lat="63.99837" lon="20.38657">
        <ele>83.923625</ele>
        <time>2020-09-29T11:36:47.816Z</time>
      </trkpt>
      <trkpt lat="63.99827" lon="20.38653">
        <ele>83.909678</ele>
        <time>2020-09-29T11:36:49.794Z</time>
      </trkpt>
      <trkpt lat="63.99818" lon="20.38649">
        <ele>83.895742</ele>
        <time>2020-09-29T11:36:51.816Z</time>
      </trkpt>
      <trkpt lat="63.99808" lon="20.38644">
        <ele>83.881911</ele>
        <time>2020-09-29T11:36:53.795Z</time>
      </trkpt>
      <trkpt lat="63.99799" lon="20.3864">
        <ele>83.867821</ele>
        <time>2020-09-29T11:36:55.790Z</time>
      </trkpt>
      <trkpt lat="63.99789" lon="20.38635">
        <ele>83.853347</ele>
        <time>2020-09-29T11:36:57.781Z</time>
      </trkpt>
      <trkpt lat="63.99779" lon="20.38631">
        <ele>83.83843</ele>
        <time>2020-09-29T11:36:59.806Z</time>
      </trkpt>
      <trkpt lat="63.99769" lon="20.38627">
        <ele>83.823904</ele>
        <time>2020-09-29T11:37:01.820Z</time>
      </trkpt>
      <trkpt lat="63.99759" lon="20.38623">
        <ele>83.810053</ele>
        <time>2020-09-29T11:37:03.786Z</time>
      </trkpt>
      <trkpt lat="63.9975" lon="20.3862">
        <ele>83.807443</ele>
        <time>2020-09-29T11:37:05.779Z</time>
      </trkpt>
      <trkpt lat="63.9974" lon="20.38616">
        <ele>83.845527</ele>
        <time>2020-09-29T11:37:07.792Z</time>
      </trkpt>
      <trkpt lat="63.9973" lon="20.38613">
        <ele>83.882905</ele>
        <time>2020-09-29T11:37:09.805Z</time>
      </trkpt>
      <trkpt lat="63.99721" lon="20.38609">
        <ele>83.919471</ele>
        <time>2020-09-29T11:37:11.778Z</time>
      </trkpt>
      <trkpt lat="63.99712" lon="20.38607">
        <ele>83.95513</ele>
        <time>2020-09-29T11:37:13.813Z</time>
      </trkpt>
      <trkpt lat="63.99702" lon="20.38603">
        <ele>83.990505</ele>
        <time>2020-09-29T11:37:15.772Z</time>
      </trkpt>
      <trkpt lat="63.99693" lon="20.38599">
        <ele>84.027969</ele>
        <time>2020-09-29T11:37:17.835Z</time>
      </trkpt>
      <trkpt lat="63.99683" lon="20.38595">
        <ele>84.065462</ele>
        <time>2020-09-29T11:37:19.783Z</time>
      </trkpt>
      <trkpt lat="63.99674" lon="20.38592">
        <ele>84.102868</ele>
        <time>2020-09-29T11:37:21.773Z</time>
      </trkpt>
      <trkpt lat="63.99664" lon="20.38588">
        <ele>84.141525</ele>
        <time>2020-09-29T11:37:23.776Z</time>
      </trkpt>
      <trkpt lat="63.99654" lon="20.38584">
        <ele>84.179964</ele>
        <time>2020-09-29T11:37:25.830Z</time>
      </trkpt>
      <trkpt lat="63.99644" lon="20.3858">
        <ele>84.219699</ele>
        <time>2020-09-29T11:37:27.800Z</time>
      </trkpt>
      <trkpt lat="63.99634" lon="20.38576">
        <ele>84.25814</ele>
        <time>2020-09-29T11:37:29.799Z</time>
      </trkpt>
      <trkpt lat="63.99625" lon="20.38571">
        <ele>84.294631</ele>
        <time>2020-09-29T11:37:31.811Z</time>
      </trkpt>
      <trkpt lat="63.99615" lon="20.38567">
        <ele>84.331055</ele>
        <time>2020-09-29T11:37:33.779Z</time>
      </trkpt>
      <trkpt lat="63.99606" lon="20.38563">
        <ele>84.366598</ele>
        <time>2020-09-29T11:37:35.827Z</time>
      </trkpt>
      <trkpt lat="63.99596" lon="20.38559">
        <ele>84.405633</ele>
        <time>2020-09-29T11:37:37.790Z</time>
      </trkpt>
      <trkpt lat="63.99587" lon="20.38556">
        <ele>84.442689</ele>
        <time>2020-09-29T11:37:39.829Z</time>
      </trkpt>
      <trkpt lat="63.99577" lon="20.38552">
        <ele>84.478443</ele>
        <time>2020-09-29T11:37:41.823Z</time>
      </trkpt>
      <trkpt lat="63.99568" lon="20.38548">
        <ele>84.389936</ele>
        <time>2020-09-29T11:37:43.776Z</time>
      </trkpt>
      <trkpt lat="63.99558" lon="20.38545">
        <ele>84.244082</ele>
        <time>2020-09-29T11:37:45.776Z</time>
      </trkpt>
      <trkpt lat="63.99548" lon="20.38542">
        <ele>84.096402</ele>
        <time>2020-09-29T11:37:47.794Z</time>
      </trkpt>
      <trkpt lat="63.99539" lon="20.38538">
        <ele>83.953536</ele>
        <time>2020-09-29T11:37:49.786Z</time>
      </trkpt>
      <trkpt lat="63.99529" lon="20.38533">
        <ele>83.811857</ele>
        <time>2020-09-29T11:37:51.792Z</time>
      </trkpt>
      <trkpt lat="63.9952" lon="20.38529">
        <ele>83.677794</ele>
        <time>2020-09-29T11:37:53.835Z</time>
      </trkpt>
      <trkpt lat="63.99511" lon="20.38525">
        <ele>83.537948</ele>
        <time>2020-09-29T11:37:55.794Z</time>
      </trkpt>
      <trkpt lat="63.99501" lon="20.38521">
        <ele>83.392309</ele>
        <time>2020-09-29T11:37:57.788Z</time>
      </trkpt>
      <trkpt lat="63.99491" lon="20.38517">
        <ele>83.234501</ele>
        <time>2020-09-29T11:37:59.806Z</time>
      </trkpt>
      <trkpt lat="63.9948" lon="20.38513">
        <ele>83.075688</ele>
        <time>2020-09-29T11:38:01.783Z</time>
      </trkpt>
      <trkpt lat="63.99469" lon="20.38509">
        <ele>82.915952</ele>
        <time>2020-09-29T11:38:03.794Z</time>
      </trkpt>
      <trkpt lat="63.99459" lon="20.38505">
        <ele>82.757139</ele>
        <time>2020-09-29T11:38:05.787Z</time>
      </trkpt>
      <trkpt lat="63.99448" lon="20.38501">
        <ele>82.603332</ele>
        <time>2020-09-29T11:38:07.823Z</time>
      </trkpt>
      <trkpt lat="63.99438" lon="20.38497">
        <ele>82.451656</ele>
        <time>2020-09-29T11:38:09.775Z</time>
      </trkpt>
      <trkpt lat="63.99428" lon="20.38493">
        <ele>82.297535</ele>
        <time>2020-09-29T11:38:11.792Z</time>
      </trkpt>
      <trkpt lat="63.99418" lon="20.38489">
        <ele>82.150447</ele>
        <time>2020-09-29T11:38:13.818Z</time>
      </trkpt>
      <trkpt lat="63.99408" lon="20.38484">
        <ele>82.001283</ele>
        <time>2020-09-29T11:38:15.835Z</time>
      </trkpt>
      <trkpt lat="63.99399" lon="20.3848">
        <ele>81.855523</ele>
        <time>2020-09-29T11:38:17.780Z</time>
      </trkpt>
      <trkpt lat="63.99389" lon="20.38476">
        <ele>81.92724</ele>
        <time>2020-09-29T11:38:19.789Z</time>
      </trkpt>
      <trkpt lat="63.9938" lon="20.38472">
        <ele>82.029782</ele>
        <time>2020-09-29T11:38:21.817Z</time>
      </trkpt>
      <trkpt lat="63.99367" lon="20.38465">
        <ele>82.172387</ele>
        <time>2020-09-29T11:38:24.789Z</time>
      </trkpt>
      <trkpt lat="63.99355" lon="20.38458">
        <ele>82.310659</ele>
        <time>2020-09-29T11:38:27.793Z</time>
      </trkpt>
      <trkpt lat="63.99343" lon="20.38454">
        <ele>82.447648</ele>
        <time>2020-09-29T11:38:30.783Z</time>
      </trkpt>
      <trkpt lat="63.99334" lon="20.3845">
        <ele>82.546072</ele>
        <time>2020-09-29T11:38:32.803Z</time>
      </trkpt>
      <trkpt lat="63.99325" lon="20.38445">
        <ele>82.646587</ele>
        <time>2020-09-29T11:38:34.778Z</time>
      </trkpt>
      <trkpt lat="63.99311" lon="20.3844">
        <ele>82.795227</ele>
        <time>2020-09-29T11:38:37.792Z</time>
      </trkpt>
      <trkpt lat="63.99299" lon="20.38432">
        <ele>82.936844</ele>
        <time>2020-09-29T11:38:40.816Z</time>
      </trkpt>
      <trkpt lat="63.99286" lon="20.38423">
        <ele>83.079271</ele>
        <time>2020-09-29T11:38:43.791Z</time>
      </trkpt>
      <trkpt lat="63.99274" lon="20.38415">
        <ele>83.216849</ele>
        <time>2020-09-29T11:38:46.788Z</time>
      </trkpt>
      <trkpt lat="63.99262" lon="20.38405">
        <ele>83.355062</ele>
        <time>2020-09-29T11:38:49.790Z</time>
      </trkpt>
      <trkpt lat="63.99252" lon="20.38393">
        <ele>83.479395</ele>
        <time>2020-09-29T11:38:52.788Z</time>
      </trkpt>
      <trkpt lat="63.99243" lon="20.38381">
        <ele>83.590889</ele>
        <time>2020-09-29T11:38:55.827Z</time>
      </trkpt>
      <trkpt lat="63.99234" lon="20.38369">
        <ele>83.707594</ele>
        <time>2020-09-29T11:38:58.797Z</time>
      </trkpt>
      <trkpt lat="63.99225" lon="20.38357">
        <ele>83.877102</ele>
        <time>2020-09-29T11:39:01.787Z</time>
      </trkpt>
      <trkpt lat="63.99217" lon="20.38344">
        <ele>84.307419</ele>
        <time>2020-09-29T11:39:04.775Z</time>
      </trkpt>
      <trkpt lat="63.99209" lon="20.3833">
        <ele>84.718298</ele>
        <time>2020-09-29T11:39:07.777Z</time>
      </trkpt>
      <trkpt lat="63.99202" lon="20.38316">
        <ele>85.116458</ele>
        <time>2020-09-29T11:39:10.789Z</time>
      </trkpt>
      <trkpt lat="63.99195" lon="20.383">
        <ele>85.55649</ele>
        <time>2020-09-29T11:39:13.792Z</time>
      </trkpt>
      <trkpt lat="63.99187" lon="20.38284">
        <ele>85.994</ele>
        <time>2020-09-29T11:39:16.791Z</time>
      </trkpt>
      <trkpt lat="63.99181" lon="20.38269">
        <ele>86.388498</ele>
        <time>2020-09-29T11:39:19.800Z</time>
      </trkpt>
      <trkpt lat="63.99174" lon="20.38253">
        <ele>86.798983</ele>
        <time>2020-09-29T11:39:22.779Z</time>
      </trkpt>
      <trkpt lat="63.99167" lon="20.38235">
        <ele>87.256299</ele>
        <time>2020-09-29T11:39:25.786Z</time>
      </trkpt>
      <trkpt lat="63.9916" lon="20.38216">
        <ele>87.694186</ele>
        <time>2020-09-29T11:39:28.787Z</time>
      </trkpt>
      <trkpt lat="63.99154" lon="20.382">
        <ele>88.091666</ele>
        <time>2020-09-29T11:39:31.820Z</time>
      </trkpt>
      <trkpt lat="63.99148" lon="20.38177">
        <ele>88.591315</ele>
        <time>2020-09-29T11:39:35.777Z</time>
      </trkpt>
      <trkpt lat="63.99141" lon="20.38155">
        <ele>89.091998</ele>
        <time>2020-09-29T11:39:39.800Z</time>
      </trkpt>
      <trkpt lat="63.99136" lon="20.38139">
        <ele>89.472087</ele>
        <time>2020-09-29T11:39:42.814Z</time>
      </trkpt>
      <trkpt lat="63.9913" lon="20.38116">
        <ele>89.966403</ele>
        <time>2020-09-29T11:39:46.804Z</time>
      </trkpt>
      <trkpt lat="63.99125" lon="20.38098">
        <ele>90.363066</ele>
        <time>2020-09-29T11:39:49.769Z</time>
      </trkpt>
      <trkpt lat="63.9912" lon="20.38079">
        <ele>90.769555</ele>
        <time>2020-09-29T11:39:52.783Z</time>
      </trkpt>
      <trkpt lat="63.99115" lon="20.38061">
        <ele>91.179067</ele>
        <time>2020-09-29T11:39:55.791Z</time>
      </trkpt>
      <trkpt lat="63.9911" lon="20.38042">
        <ele>91.586161</ele>
        <time>2020-09-29T11:39:58.790Z</time>
      </trkpt>
      <trkpt lat="63.99105" lon="20.38025">
        <ele>91.958763</ele>
        <time>2020-09-29T11:40:01.777Z</time>
      </trkpt>
      <trkpt lat="63.99099" lon="20.38007">
        <ele>92.353375</ele>
        <time>2020-09-29T11:40:04.796Z</time>
      </trkpt>
      <trkpt lat="63.99093" lon="20.37985">
        <ele>92.832533</ele>
        <time>2020-09-29T11:40:08.784Z</time>
      </trkpt>
      <trkpt lat="63.99085" lon="20.37965">
        <ele>93.328043</ele>
        <time>2020-09-29T11:40:12.804Z</time>
      </trkpt>
      <trkpt lat="63.9908" lon="20.37947">
        <ele>93.715607</ele>
        <time>2020-09-29T11:40:15.779Z</time>
      </trkpt>
      <trkpt lat="63.99075" lon="20.37928">
        <ele>94.101601</ele>
        <time>2020-09-29T11:40:18.799Z</time>
      </trkpt>
      <trkpt lat="63.9907" lon="20.3791">
        <ele>94.491856</ele>
        <time>2020-09-29T11:40:21.816Z</time>
      </trkpt>
      <trkpt lat="63.99065" lon="20.37892">
        <ele>94.8888</ele>
        <time>2020-09-29T11:40:24.788Z</time>
      </trkpt>
      <trkpt lat="63.9906" lon="20.37875">
        <ele>95.265194</ele>
        <time>2020-09-29T11:40:27.804Z</time>
      </trkpt>
      <trkpt lat="63.99054" lon="20.37859">
        <ele>95.639529</ele>
        <time>2020-09-29T11:40:30.790Z</time>
      </trkpt>
      <trkpt lat="63.99048" lon="20.37838">
        <ele>96.102002</ele>
        <time>2020-09-29T11:40:34.823Z</time>
      </trkpt>
      <trkpt lat="63.99043" lon="20.37821">
        <ele>96.475734</ele>
        <time>2020-09-29T11:40:37.781Z</time>
      </trkpt>
      <trkpt lat="63.99037" lon="20.37804">
        <ele>96.86075</ele>
        <time>2020-09-29T11:40:40.819Z</time>
      </trkpt>
      <trkpt lat="63.99031" lon="20.37782">
        <ele>97.333224</ele>
        <time>2020-09-29T11:40:44.831Z</time>
      </trkpt>
      <trkpt lat="63.99025" lon="20.37759">
        <ele>97.81624</ele>
        <time>2020-09-29T11:40:48.794Z</time>
      </trkpt>
      <trkpt lat="63.99019" lon="20.37738">
        <ele>98.295775</ele>
        <time>2020-09-29T11:40:52.791Z</time>
      </trkpt>
      <trkpt lat="63.99013" lon="20.37722">
        <ele>98.670724</ele>
        <time>2020-09-29T11:40:55.796Z</time>
      </trkpt>
      <trkpt lat="63.99007" lon="20.37702">
        <ele>99.443375</ele>
        <time>2020-09-29T11:40:59.825Z</time>
      </trkpt>
      <trkpt lat="63.99" lon="20.37683">
        <ele>100.511746</ele>
        <time>2020-09-29T11:41:03.827Z</time>
      </trkpt>
      <trkpt lat="63.98992" lon="20.37664">
        <ele>101.692854</ele>
        <time>2020-09-29T11:41:07.826Z</time>
      </trkpt>
      <trkpt lat="63.98985" lon="20.37646">
        <ele>102.780102</ele>
        <time>2020-09-29T11:41:11.795Z</time>
      </trkpt>
      <trkpt lat="63.98977" lon="20.37625">
        <ele>103.991746</ele>
        <time>2020-09-29T11:41:15.781Z</time>
      </trkpt>
      <trkpt lat="63.98971" lon="20.37603">
        <ele>105.196065</ele>
        <time>2020-09-29T11:41:19.787Z</time>
      </trkpt>
      <trkpt lat="63.98965" lon="20.37583">
        <ele>106.275543</ele>
        <time>2020-09-29T11:41:23.803Z</time>
      </trkpt>
      <trkpt lat="63.9896" lon="20.37561">
        <ele>107.401794</ele>
        <time>2020-09-29T11:41:27.793Z</time>
      </trkpt>
      <trkpt lat="63.98954" lon="20.37544">
        <ele>108.330438</ele>
        <time>2020-09-29T11:41:30.816Z</time>
      </trkpt>
      <trkpt lat="63.98948" lon="20.37526">
        <ele>109.311256</ele>
        <time>2020-09-29T11:41:33.827Z</time>
      </trkpt>
      <trkpt lat="63.98942" lon="20.37509">
        <ele>110.295571</ele>
        <time>2020-09-29T11:41:36.774Z</time>
      </trkpt>
      <trkpt lat="63.98937" lon="20.37491">
        <ele>111.297285</ele>
        <time>2020-09-29T11:41:39.779Z</time>
      </trkpt>
      <trkpt lat="63.98932" lon="20.37468">
        <ele>112.435535</ele>
        <time>2020-09-29T11:41:43.791Z</time>
      </trkpt>
      <trkpt lat="63.98926" lon="20.37447">
        <ele>113.55444</ele>
        <time>2020-09-29T11:41:47.796Z</time>
      </trkpt>
      <trkpt lat="63.9892" lon="20.37427">
        <ele>114.609654</ele>
        <time>2020-09-29T11:41:50.797Z</time>
      </trkpt>
      <trkpt lat="63.98915" lon="20.3741">
        <ele>115.543787</ele>
        <time>2020-09-29T11:41:53.779Z</time>
      </trkpt>
      <trkpt lat="63.9891" lon="20.37393">
        <ele>116.46512</ele>
        <time>2020-09-29T11:41:56.777Z</time>
      </trkpt>
      <trkpt lat="63.98904" lon="20.37375">
        <ele>117.046071</ele>
        <time>2020-09-29T11:41:59.804Z</time>
      </trkpt>
      <trkpt lat="63.98898" lon="20.37358">
        <ele>116.497066</ele>
        <time>2020-09-29T11:42:02.787Z</time>
      </trkpt>
      <trkpt lat="63.98893" lon="20.37341">
        <ele>115.946545</ele>
        <time>2020-09-29T11:42:05.794Z</time>
      </trkpt>
      <trkpt lat="63.98887" lon="20.37324">
        <ele>115.360087</ele>
        <time>2020-09-29T11:42:08.794Z</time>
      </trkpt>
      <trkpt lat="63.98878" lon="20.37304">
        <ele>114.647431</ele>
        <time>2020-09-29T11:42:11.804Z</time>
      </trkpt>
      <trkpt lat="63.98871" lon="20.37283">
        <ele>113.945322</ele>
        <time>2020-09-29T11:42:14.807Z</time>
      </trkpt>
      <trkpt lat="63.98865" lon="20.37261">
        <ele>113.272933</ele>
        <time>2020-09-29T11:42:17.786Z</time>
      </trkpt>
      <trkpt lat="63.98857" lon="20.37242">
        <ele>112.560274</ele>
        <time>2020-09-29T11:42:20.815Z</time>
      </trkpt>
      <trkpt lat="63.9885" lon="20.37227">
        <ele>112.014371</ele>
        <time>2020-09-29T11:42:22.784Z</time>
      </trkpt>
      <trkpt lat="63.98844" lon="20.37213">
        <ele>111.47585</ele>
        <time>2020-09-29T11:42:24.801Z</time>
      </trkpt>
      <trkpt lat="63.98835" lon="20.37191">
        <ele>110.693113</ele>
        <time>2020-09-29T11:42:27.813Z</time>
      </trkpt>
      <trkpt lat="63.98825" lon="20.37168">
        <ele>109.884626</ele>
        <time>2020-09-29T11:42:30.789Z</time>
      </trkpt>
      <trkpt lat="63.98816" lon="20.37146">
        <ele>109.073845</ele>
        <time>2020-09-29T11:42:33.829Z</time>
      </trkpt>
      <trkpt lat="63.98809" lon="20.37132">
        <ele>108.50776</ele>
        <time>2020-09-29T11:42:35.799Z</time>
      </trkpt>
      <trkpt lat="63.98801" lon="20.37117">
        <ele>107.921624</ele>
        <time>2020-09-29T11:42:37.781Z</time>
      </trkpt>
      <trkpt lat="63.98793" lon="20.37102">
        <ele>107.324729</ele>
        <time>2020-09-29T11:42:39.786Z</time>
      </trkpt>
      <trkpt lat="63.98787" lon="20.37086">
        <ele>106.747884</ele>
        <time>2020-09-29T11:42:41.787Z</time>
      </trkpt>
      <trkpt lat="63.98781" lon="20.37071">
        <ele>106.422494</ele>
        <time>2020-09-29T11:42:43.806Z</time>
      </trkpt>
      <trkpt lat="63.98774" lon="20.37056">
        <ele>106.28027</ele>
        <time>2020-09-29T11:42:45.790Z</time>
      </trkpt>
      <trkpt lat="63.98767" lon="20.37042">
        <ele>106.13915</ele>
        <time>2020-09-29T11:42:47.794Z</time>
      </trkpt>
      <trkpt lat="63.98757" lon="20.37021">
        <ele>105.93664</ele>
        <time>2020-09-29T11:42:50.784Z</time>
      </trkpt>
      <trkpt lat="63.98748" lon="20.37">
        <ele>105.738417</ele>
        <time>2020-09-29T11:42:53.812Z</time>
      </trkpt>
      <trkpt lat="63.98739" lon="20.36979">
        <ele>105.535842</ele>
        <time>2020-09-29T11:42:56.791Z</time>
      </trkpt>
      <trkpt lat="63.98729" lon="20.36958">
        <ele>105.335753</ele>
        <time>2020-09-29T11:42:59.779Z</time>
      </trkpt>
      <trkpt lat="63.98722" lon="20.36946">
        <ele>105.199952</ele>
        <time>2020-09-29T11:43:01.783Z</time>
      </trkpt>
      <trkpt lat="63.98712" lon="20.36927">
        <ele>104.99737</ele>
        <time>2020-09-29T11:43:04.783Z</time>
      </trkpt>
      <trkpt lat="63.98702" lon="20.36906">
        <ele>104.794794</ele>
        <time>2020-09-29T11:43:07.791Z</time>
      </trkpt>
      <trkpt lat="63.98695" lon="20.36891">
        <ele>104.653673</ele>
        <time>2020-09-29T11:43:09.791Z</time>
      </trkpt>
      <trkpt lat="63.98686" lon="20.36871">
        <ele>104.457795</ele>
        <time>2020-09-29T11:43:12.781Z</time>
      </trkpt>
      <trkpt lat="63.98677" lon="20.3685">
        <ele>104.263939</ele>
        <time>2020-09-29T11:43:15.778Z</time>
      </trkpt>
      <trkpt lat="63.98669" lon="20.36829">
        <ele>104.075111</ele>
        <time>2020-09-29T11:43:18.778Z</time>
      </trkpt>
      <trkpt lat="63.98659" lon="20.3681">
        <ele>103.881816</ele>
        <time>2020-09-29T11:43:21.813Z</time>
      </trkpt>
      <trkpt lat="63.9865" lon="20.36791">
        <ele>103.870454</ele>
        <time>2020-09-29T11:43:24.787Z</time>
      </trkpt>
      <trkpt lat="63.98641" lon="20.36773">
        <ele>104.180091</ele>
        <time>2020-09-29T11:43:27.778Z</time>
      </trkpt>
      <trkpt lat="63.98633" lon="20.36756">
        <ele>104.480751</ele>
        <time>2020-09-29T11:43:30.814Z</time>
      </trkpt>
      <trkpt lat="63.98624" lon="20.3674">
        <ele>104.765008</ele>
        <time>2020-09-29T11:43:33.788Z</time>
      </trkpt>
      <trkpt lat="63.98616" lon="20.36726">
        <ele>105.034563</ele>
        <time>2020-09-29T11:43:36.777Z</time>
      </trkpt>
      <trkpt lat="63.98608" lon="20.36713">
        <ele>105.295821</ele>
        <time>2020-09-29T11:43:39.806Z</time>
      </trkpt>
      <trkpt lat="63.986" lon="20.36698">
        <ele>105.570968</ele>
        <time>2020-09-29T11:43:42.782Z</time>
      </trkpt>
      <trkpt lat="63.98591" lon="20.36684">
        <ele>105.861213</ele>
        <time>2020-09-29T11:43:45.790Z</time>
      </trkpt>
      <trkpt lat="63.98582" lon="20.36671">
        <ele>106.126618</ele>
        <time>2020-09-29T11:43:48.814Z</time>
      </trkpt>
      <trkpt lat="63.98576" lon="20.36655">
        <ele>106.372783</ele>
        <time>2020-09-29T11:43:51.793Z</time>
      </trkpt>
      <trkpt lat="63.9857" lon="20.3664">
        <ele>106.614177</ele>
        <time>2020-09-29T11:43:54.788Z</time>
      </trkpt>
      <trkpt lat="63.98562" lon="20.36621">
        <ele>106.905067</ele>
        <time>2020-09-29T11:43:58.772Z</time>
      </trkpt>
      <trkpt lat="63.98554" lon="20.36603">
        <ele>107.204073</ele>
        <time>2020-09-29T11:44:02.835Z</time>
      </trkpt>
      <trkpt lat="63.98546" lon="20.36586">
        <ele>107.481369</ele>
        <time>2020-09-29T11:44:06.787Z</time>
      </trkpt>
      <trkpt lat="63.98539" lon="20.3657">
        <ele>107.752728</ele>
        <time>2020-09-29T11:44:10.781Z</time>
      </trkpt>
      <trkpt lat="63.98531" lon="20.36552">
        <ele>108.040162</ele>
        <time>2020-09-29T11:44:14.786Z</time>
      </trkpt>
      <trkpt lat="63.98524" lon="20.36537">
        <ele>108.296519</ele>
        <time>2020-09-29T11:44:18.775Z</time>
      </trkpt>
      <trkpt lat="63.98516" lon="20.36521">
        <ele>108.418185</ele>
        <time>2020-09-29T11:44:22.778Z</time>
      </trkpt>
      <trkpt lat="63.98508" lon="20.36505">
        <ele>108.234254</ele>
        <time>2020-09-29T11:44:26.787Z</time>
      </trkpt>
      <trkpt lat="63.98501" lon="20.36491">
        <ele>108.086698</ele>
        <time>2020-09-29T11:44:29.781Z</time>
      </trkpt>
      <trkpt lat="63.98491" lon="20.36474">
        <ele>107.888964</ele>
        <time>2020-09-29T11:44:33.811Z</time>
      </trkpt>
      <trkpt lat="63.98483" lon="20.36461">
        <ele>107.731132</ele>
        <time>2020-09-29T11:44:36.784Z</time>
      </trkpt>
      <trkpt lat="63.98475" lon="20.36445">
        <ele>107.557222</ele>
        <time>2020-09-29T11:44:39.814Z</time>
      </trkpt>
      <trkpt lat="63.98467" lon="20.36429">
        <ele>107.37579</ele>
        <time>2020-09-29T11:44:42.807Z</time>
      </trkpt>
      <trkpt lat="63.98459" lon="20.36413">
        <ele>107.203802</ele>
        <time>2020-09-29T11:44:45.798Z</time>
      </trkpt>
      <trkpt lat="63.9845" lon="20.36398">
        <ele>107.032951</ele>
        <time>2020-09-29T11:44:48.794Z</time>
      </trkpt>
      <trkpt lat="63.98442" lon="20.36383">
        <ele>106.861106</ele>
        <time>2020-09-29T11:44:51.807Z</time>
      </trkpt>
      <trkpt lat="63.98434" lon="20.36367">
        <ele>106.68926</ele>
        <time>2020-09-29T11:44:54.787Z</time>
      </trkpt>
      <trkpt lat="63.98426" lon="20.36351">
        <ele>106.514693</ele>
        <time>2020-09-29T11:44:57.791Z</time>
      </trkpt>
      <trkpt lat="63.98418" lon="20.36334">
        <ele>106.325365</ele>
        <time>2020-09-29T11:45:00.779Z</time>
      </trkpt>
      <trkpt lat="63.98408" lon="20.36313">
        <ele>106.115759</ele>
        <time>2020-09-29T11:45:03.800Z</time>
      </trkpt>
      <trkpt lat="63.98401" lon="20.363">
        <ele>105.968719</ele>
        <time>2020-09-29T11:45:05.775Z</time>
      </trkpt>
      <trkpt lat="63.98391" lon="20.36282">
        <ele>105.755902</ele>
        <time>2020-09-29T11:45:08.790Z</time>
      </trkpt>
      <trkpt lat="63.98382" lon="20.36262">
        <ele>105.549546</ele>
        <time>2020-09-29T11:45:11.792Z</time>
      </trkpt>
      <trkpt lat="63.98373" lon="20.36243">
        <ele>105.482971</ele>
        <time>2020-09-29T11:45:14.789Z</time>
      </trkpt>
      <trkpt lat="63.98363" lon="20.36224">
        <ele>105.419476</ele>
        <time>2020-09-29T11:45:17.788Z</time>
      </trkpt>
      <trkpt lat="63.98354" lon="20.36206">
        <ele>105.356671</ele>
        <time>2020-09-29T11:45:20.781Z</time>
      </trkpt>
      <trkpt lat="63.98346" lon="20.3619">
        <ele>105.299245</ele>
        <time>2020-09-29T11:45:23.830Z</time>
      </trkpt>
      <trkpt lat="63.98337" lon="20.36175">
        <ele>105.241679</ele>
        <time>2020-09-29T11:45:26.777Z</time>
      </trkpt>
      <trkpt lat="63.98328" lon="20.36158">
        <ele>105.183654</ele>
        <time>2020-09-29T11:45:29.807Z</time>
      </trkpt>
      <trkpt lat="63.98321" lon="20.36142">
        <ele>105.128574</ele>
        <time>2020-09-29T11:45:32.783Z</time>
      </trkpt>
      <trkpt lat="63.98313" lon="20.36126">
        <ele>105.074941</ele>
        <time>2020-09-29T11:45:35.790Z</time>
      </trkpt>
      <trkpt lat="63.98305" lon="20.3611">
        <ele>105.019037</ele>
        <time>2020-09-29T11:45:38.780Z</time>
      </trkpt>
      <trkpt lat="63.98297" lon="20.36094">
        <ele>104.962742</ele>
        <time>2020-09-29T11:45:41.813Z</time>
      </trkpt>
      <trkpt lat="63.98289" lon="20.36076">
        <ele>104.905483</ele>
        <time>2020-09-29T11:45:44.779Z</time>
      </trkpt>
      <trkpt lat="63.9828" lon="20.36059">
        <ele>104.847056</ele>
        <time>2020-09-29T11:45:47.818Z</time>
      </trkpt>
      <trkpt lat="63.98272" lon="20.36043">
        <ele>104.788886</ele>
        <time>2020-09-29T11:45:50.814Z</time>
      </trkpt>
      <trkpt lat="63.98264" lon="20.36026">
        <ele>104.732591</ele>
        <time>2020-09-29T11:45:53.776Z</time>
      </trkpt>
      <trkpt lat="63.98255" lon="20.3601">
        <ele>104.67405</ele>
        <time>2020-09-29T11:45:56.789Z</time>
      </trkpt>
      <trkpt lat="63.98246" lon="20.35994">
        <ele>104.616524</ele>
        <time>2020-09-29T11:45:59.776Z</time>
      </trkpt>
      <trkpt lat="63.98238" lon="20.35977">
        <ele>104.891627</ele>
        <time>2020-09-29T11:46:02.796Z</time>
      </trkpt>
      <trkpt lat="63.98229" lon="20.35962">
        <ele>105.177346</ele>
        <time>2020-09-29T11:46:05.786Z</time>
      </trkpt>
      <trkpt lat="63.9822" lon="20.35945">
        <ele>105.474165</ele>
        <time>2020-09-29T11:46:08.797Z</time>
      </trkpt>
      <trkpt lat="63.98212" lon="20.35929">
        <ele>105.760031</ele>
        <time>2020-09-29T11:46:11.798Z</time>
      </trkpt>
      <trkpt lat="63.98203" lon="20.35912">
        <ele>106.038315</ele>
        <time>2020-09-29T11:46:14.792Z</time>
      </trkpt>
      <trkpt lat="63.98195" lon="20.35897">
        <ele>106.305111</ele>
        <time>2020-09-29T11:46:17.775Z</time>
      </trkpt>
      <trkpt lat="63.98188" lon="20.35882">
        <ele>106.557242</ele>
        <time>2020-09-29T11:46:20.793Z</time>
      </trkpt>
      <trkpt lat="63.9818" lon="20.35868">
        <ele>106.814359</ele>
        <time>2020-09-29T11:46:23.778Z</time>
      </trkpt>
      <trkpt lat="63.98172" lon="20.35854">
        <ele>107.070705</ele>
        <time>2020-09-29T11:46:26.829Z</time>
      </trkpt>
      <trkpt lat="63.98164" lon="20.35836">
        <ele>107.367056</ele>
        <time>2020-09-29T11:46:29.788Z</time>
      </trkpt>
      <trkpt lat="63.98156" lon="20.35816">
        <ele>107.665331</ele>
        <time>2020-09-29T11:46:32.794Z</time>
      </trkpt>
      <trkpt lat="63.98148" lon="20.35799">
        <ele>107.956259</ele>
        <time>2020-09-29T11:46:35.789Z</time>
      </trkpt>
      <trkpt lat="63.98139" lon="20.35781">
        <ele>108.266059</ele>
        <time>2020-09-29T11:46:38.800Z</time>
      </trkpt>
      <trkpt lat="63.98129" lon="20.35761">
        <ele>108.593686</ele>
        <time>2020-09-29T11:46:41.778Z</time>
      </trkpt>
      <trkpt lat="63.9812" lon="20.35741">
        <ele>108.936111</ele>
        <time>2020-09-29T11:46:44.802Z</time>
      </trkpt>
      <trkpt lat="63.9811" lon="20.3572">
        <ele>109.233305</ele>
        <time>2020-09-29T11:46:47.783Z</time>
      </trkpt>
      <trkpt lat="63.98101" lon="20.35699">
        <ele>109.223537</ele>
        <time>2020-09-29T11:46:50.783Z</time>
      </trkpt>
      <trkpt lat="63.98091" lon="20.35679">
        <ele>109.213552</ele>
        <time>2020-09-29T11:46:53.784Z</time>
      </trkpt>
      <trkpt lat="63.98084" lon="20.35665">
        <ele>109.206711</ele>
        <time>2020-09-29T11:46:55.799Z</time>
      </trkpt>
      <trkpt lat="63.98077" lon="20.35652">
        <ele>109.199969</ele>
        <time>2020-09-29T11:46:57.775Z</time>
      </trkpt>
      <trkpt lat="63.98067" lon="20.35633">
        <ele>109.190505</ele>
        <time>2020-09-29T11:47:00.792Z</time>
      </trkpt>
      <trkpt lat="63.98057" lon="20.35615">
        <ele>109.181233</ele>
        <time>2020-09-29T11:47:03.787Z</time>
      </trkpt>
      <trkpt lat="63.98047" lon="20.35598">
        <ele>109.172183</ele>
        <time>2020-09-29T11:47:06.836Z</time>
      </trkpt>
      <trkpt lat="63.98038" lon="20.35583">
        <ele>109.163784</ele>
        <time>2020-09-29T11:47:09.775Z</time>
      </trkpt>
      <trkpt lat="63.9803" lon="20.35566">
        <ele>109.155772</ele>
        <time>2020-09-29T11:47:12.788Z</time>
      </trkpt>
      <trkpt lat="63.98022" lon="20.35549">
        <ele>109.147819</ele>
        <time>2020-09-29T11:47:15.804Z</time>
      </trkpt>
      <trkpt lat="63.98014" lon="20.3553">
        <ele>109.139074</ele>
        <time>2020-09-29T11:47:18.816Z</time>
      </trkpt>
      <trkpt lat="63.98005" lon="20.35511">
        <ele>109.130351</ele>
        <time>2020-09-29T11:47:21.793Z</time>
      </trkpt>
      <trkpt lat="63.97997" lon="20.35494">
        <ele>109.121989</ele>
        <time>2020-09-29T11:47:24.813Z</time>
      </trkpt>
      <trkpt lat="63.97989" lon="20.35478">
        <ele>109.114278</ele>
        <time>2020-09-29T11:47:27.776Z</time>
      </trkpt>
      <trkpt lat="63.97982" lon="20.35461">
        <ele>109.106838</ele>
        <time>2020-09-29T11:47:30.783Z</time>
      </trkpt>
      <trkpt lat="63.97975" lon="20.35446">
        <ele>109.114748</ele>
        <time>2020-09-29T11:47:33.787Z</time>
      </trkpt>
      <trkpt lat="63.97966" lon="20.35432">
        <ele>109.158859</ele>
        <time>2020-09-29T11:47:36.776Z</time>
      </trkpt>
      <trkpt lat="63.97958" lon="20.35419">
        <ele>109.200918</ele>
        <time>2020-09-29T11:47:39.779Z</time>
      </trkpt>
      <trkpt lat="63.9795" lon="20.35405">
        <ele>109.24492</ele>
        <time>2020-09-29T11:47:42.797Z</time>
      </trkpt>
      <trkpt lat="63.97943" lon="20.3539">
        <ele>109.287865</ele>
        <time>2020-09-29T11:47:45.785Z</time>
      </trkpt>
      <trkpt lat="63.97935" lon="20.35375">
        <ele>109.330738</ele>
        <time>2020-09-29T11:47:48.814Z</time>
      </trkpt>
      <trkpt lat="63.97928" lon="20.35362">
        <ele>109.372226</ele>
        <time>2020-09-29T11:47:51.799Z</time>
      </trkpt>
      <trkpt lat="63.9792" lon="20.35346">
        <ele>109.415479</ele>
        <time>2020-09-29T11:47:54.812Z</time>
      </trkpt>
      <trkpt lat="63.97913" lon="20.35332">
        <ele>109.458807</ele>
        <time>2020-09-29T11:47:57.787Z</time>
      </trkpt>
      <trkpt lat="63.97905" lon="20.35316">
        <ele>109.503725</ele>
        <time>2020-09-29T11:48:00.796Z</time>
      </trkpt>
      <trkpt lat="63.97897" lon="20.353">
        <ele>109.548447</ele>
        <time>2020-09-29T11:48:03.778Z</time>
      </trkpt>
      <trkpt lat="63.97889" lon="20.35284">
        <ele>109.594892</ele>
        <time>2020-09-29T11:48:06.787Z</time>
      </trkpt>
      <trkpt lat="63.97881" lon="20.35268">
        <ele>109.63956</ele>
        <time>2020-09-29T11:48:09.787Z</time>
      </trkpt>
      <trkpt lat="63.97873" lon="20.35252">
        <ele>109.68543</ele>
        <time>2020-09-29T11:48:12.802Z</time>
      </trkpt>
      <trkpt lat="63.97865" lon="20.35234">
        <ele>109.734794</ele>
        <time>2020-09-29T11:48:15.788Z</time>
      </trkpt>
      <trkpt lat="63.97857" lon="20.35217">
        <ele>109.782583</ele>
        <time>2020-09-29T11:48:18.787Z</time>
      </trkpt>
      <trkpt lat="63.97848" lon="20.35202">
        <ele>109.830027</ele>
        <time>2020-09-29T11:48:21.833Z</time>
      </trkpt>
      <trkpt lat="63.97841" lon="20.35187">
        <ele>109.873262</ele>
        <time>2020-09-29T11:48:24.779Z</time>
      </trkpt>
      <trkpt lat="63.97832" lon="20.35171">
        <ele>110.258117</ele>
        <time>2020-09-29T11:48:27.804Z</time>
      </trkpt>
      <trkpt lat="63.97822" lon="20.35154">
        <ele>110.707196</ele>
        <time>2020-09-29T11:48:30.804Z</time>
      </trkpt>
      <trkpt lat="63.97813" lon="20.35137">
        <ele>111.158268</ele>
        <time>2020-09-29T11:48:33.798Z</time>
      </trkpt>
      <trkpt lat="63.97803" lon="20.35119">
        <ele>111.617278</ele>
        <time>2020-09-29T11:48:36.789Z</time>
      </trkpt>
      <trkpt lat="63.97793" lon="20.351">
        <ele>112.080934</ele>
        <time>2020-09-29T11:48:39.780Z</time>
      </trkpt>
      <trkpt lat="63.97784" lon="20.35082">
        <ele>112.543535</ele>
        <time>2020-09-29T11:48:42.794Z</time>
      </trkpt>
      <trkpt lat="63.97775" lon="20.35064">
        <ele>112.974838</ele>
        <time>2020-09-29T11:48:45.799Z</time>
      </trkpt>
      <trkpt lat="63.97767" lon="20.35046">
        <ele>113.394795</ele>
        <time>2020-09-29T11:48:48.829Z</time>
      </trkpt>
      <trkpt lat="63.97759" lon="20.35029">
        <ele>113.811763</ele>
        <time>2020-09-29T11:48:51.799Z</time>
      </trkpt>
      <trkpt lat="63.97749" lon="20.35012">
        <ele>114.248202</ele>
        <time>2020-09-29T11:48:54.790Z</time>
      </trkpt>
      <trkpt lat="63.97741" lon="20.34996">
        <ele>114.659806</ele>
        <time>2020-09-29T11:48:57.784Z</time>
      </trkpt>
      <trkpt lat="63.97733" lon="20.3498">
        <ele>115.05913</ele>
        <time>2020-09-29T11:49:00.781Z</time>
      </trkpt>
      <trkpt lat="63.97725" lon="20.34965">
        <ele>115.445366</ele>
        <time>2020-09-29T11:49:03.788Z</time>
      </trkpt>
      <trkpt lat="63.97716" lon="20.3495">
        <ele>115.836674</ele>
        <time>2020-09-29T11:49:06.835Z</time>
      </trkpt>
      <trkpt lat="63.97707" lon="20.34933">
        <ele>116.265542</ele>
        <time>2020-09-29T11:49:09.799Z</time>
      </trkpt>
      <trkpt lat="63.97699" lon="20.34915">
        <ele>116.583059</ele>
        <time>2020-09-29T11:49:12.807Z</time>
      </trkpt>
      <trkpt lat="63.9769" lon="20.34898">
        <ele>116.715903</ele>
        <time>2020-09-29T11:49:15.803Z</time>
      </trkpt>
      <trkpt lat="63.97681" lon="20.34881">
        <ele>116.848029</ele>
        <time>2020-09-29T11:49:18.787Z</time>
      </trkpt>
      <trkpt lat="63.97673" lon="20.34863">
        <ele>116.975822</ele>
        <time>2020-09-29T11:49:21.788Z</time>
      </trkpt>
      <trkpt lat="63.97664" lon="20.34847">
        <ele>117.098652</ele>
        <time>2020-09-29T11:49:24.779Z</time>
      </trkpt>
      <trkpt lat="63.97657" lon="20.34831">
        <ele>117.214013</ele>
        <time>2020-09-29T11:49:27.795Z</time>
      </trkpt>
      <trkpt lat="63.97649" lon="20.34816">
        <ele>117.329194</ele>
        <time>2020-09-29T11:49:30.778Z</time>
      </trkpt>
      <trkpt lat="63.97643" lon="20.34799">
        <ele>117.43993</ele>
        <time>2020-09-29T11:49:33.787Z</time>
      </trkpt>
      <trkpt lat="63.97636" lon="20.34783">
        <ele>117.546954</ele>
        <time>2020-09-29T11:49:36.788Z</time>
      </trkpt>
      <trkpt lat="63.97629" lon="20.34767">
        <ele>117.657487</ele>
        <time>2020-09-29T11:49:39.779Z</time>
      </trkpt>
      <trkpt lat="63.97622" lon="20.34751">
        <ele>117.769261</ele>
        <time>2020-09-29T11:49:42.814Z</time>
      </trkpt>
      <trkpt lat="63.97615" lon="20.34737">
        <ele>117.875699</ele>
        <time>2020-09-29T11:49:45.797Z</time>
      </trkpt>
      <trkpt lat="63.97607" lon="20.34724">
        <ele>117.989261</ele>
        <time>2020-09-29T11:49:48.830Z</time>
      </trkpt>
      <trkpt lat="63.97599" lon="20.34709">
        <ele>118.099815</ele>
        <time>2020-09-29T11:49:51.790Z</time>
      </trkpt>
      <trkpt lat="63.97591" lon="20.34694">
        <ele>118.214868</ele>
        <time>2020-09-29T11:49:54.795Z</time>
      </trkpt>
      <trkpt lat="63.97583" lon="20.34678">
        <ele>118.337798</ele>
        <time>2020-09-29T11:49:57.826Z</time>
      </trkpt>
      <trkpt lat="63.97575" lon="20.34662">
        <ele>118.45554</ele>
        <time>2020-09-29T11:50:00.782Z</time>
      </trkpt>
      <trkpt lat="63.97568" lon="20.34647">
        <ele>118.555199</ele>
        <time>2020-09-29T11:50:03.817Z</time>
      </trkpt>
      <trkpt lat="63.97561" lon="20.3463">
        <ele>118.538968</ele>
        <time>2020-09-29T11:50:06.787Z</time>
      </trkpt>
      <trkpt lat="63.97553" lon="20.34613">
        <ele>118.52096</ele>
        <time>2020-09-29T11:50:09.790Z</time>
      </trkpt>
      <trkpt lat="63.97544" lon="20.34595">
        <ele>118.500408</ele>
        <time>2020-09-29T11:50:12.786Z</time>
      </trkpt>
      <trkpt lat="63.97535" lon="20.34574">
        <ele>118.478879</ele>
        <time>2020-09-29T11:50:15.779Z</time>
      </trkpt>
      <trkpt lat="63.97525" lon="20.34556">
        <ele>118.457726</ele>
        <time>2020-09-29T11:50:18.806Z</time>
      </trkpt>
      <trkpt lat="63.97515" lon="20.34537">
        <ele>118.435736</ele>
        <time>2020-09-29T11:50:21.818Z</time>
      </trkpt>
      <trkpt lat="63.97508" lon="20.34524">
        <ele>118.420662</ele>
        <time>2020-09-29T11:50:23.783Z</time>
      </trkpt>
      <trkpt lat="63.97501" lon="20.3451">
        <ele>118.405204</ele>
        <time>2020-09-29T11:50:25.814Z</time>
      </trkpt>
      <trkpt lat="63.97491" lon="20.3449">
        <ele>118.382796</ele>
        <time>2020-09-29T11:50:28.788Z</time>
      </trkpt>
      <trkpt lat="63.97482" lon="20.34471">
        <ele>118.361249</ele>
        <time>2020-09-29T11:50:31.785Z</time>
      </trkpt>
      <trkpt lat="63.97472" lon="20.34451">
        <ele>118.33946</ele>
        <time>2020-09-29T11:50:34.820Z</time>
      </trkpt>
      <trkpt lat="63.97465" lon="20.34437">
        <ele>118.323846</ele>
        <time>2020-09-29T11:50:36.808Z</time>
      </trkpt>
      <trkpt lat="63.97458" lon="20.34422">
        <ele>118.307621</ele>
        <time>2020-09-29T11:50:38.823Z</time>
      </trkpt>
      <trkpt lat="63.97451" lon="20.34406">
        <ele>118.29098</ele>
        <time>2020-09-29T11:50:40.787Z</time>
      </trkpt>
      <trkpt lat="63.97444" lon="20.34392">
        <ele>118.275152</ele>
        <time>2020-09-29T11:50:42.788Z</time>
      </trkpt>
      <trkpt lat="63.97436" lon="20.34376">
        <ele>118.258134</ele>
        <time>2020-09-29T11:50:44.792Z</time>
      </trkpt>
      <trkpt lat="63.97429" lon="20.34359">
        <ele>118.197133</ele>
        <time>2020-09-29T11:50:46.828Z</time>
      </trkpt>
      <trkpt lat="63.97421" lon="20.34342">
        <ele>118.129198</ele>
        <time>2020-09-29T11:50:48.799Z</time>
      </trkpt>
      <trkpt lat="63.97414" lon="20.34327">
        <ele>118.065944</ele>
        <time>2020-09-29T11:50:50.791Z</time>
      </trkpt>
      <trkpt lat="63.97407" lon="20.34312">
        <ele>118.003825</ele>
        <time>2020-09-29T11:50:52.811Z</time>
      </trkpt>
      <trkpt lat="63.97399" lon="20.34297">
        <ele>117.939807</ele>
        <time>2020-09-29T11:50:54.773Z</time>
      </trkpt>
      <trkpt lat="63.97392" lon="20.34282">
        <ele>117.877303</ele>
        <time>2020-09-29T11:50:56.801Z</time>
      </trkpt>
      <trkpt lat="63.97385" lon="20.34268">
        <ele>117.816086</ele>
        <time>2020-09-29T11:50:58.773Z</time>
      </trkpt>
      <trkpt lat="63.97378" lon="20.34253">
        <ele>117.755012</ele>
        <time>2020-09-29T11:51:00.782Z</time>
      </trkpt>
      <trkpt lat="63.97371" lon="20.34239">
        <ele>117.693917</ele>
        <time>2020-09-29T11:51:02.782Z</time>
      </trkpt>
      <trkpt lat="63.97363" lon="20.34224">
        <ele>117.630446</ele>
        <time>2020-09-29T11:51:04.794Z</time>
      </trkpt>
      <trkpt lat="63.97356" lon="20.3421">
        <ele>117.569561</ele>
        <time>2020-09-29T11:51:06.783Z</time>
      </trkpt>
      <trkpt lat="63.97349" lon="20.34195">
        <ele>117.508577</ele>
        <time>2020-09-29T11:51:08.780Z</time>
      </trkpt>
      <trkpt lat="63.97342" lon="20.34181">
        <ele>117.448634</ele>
        <time>2020-09-29T11:51:10.796Z</time>
      </trkpt>
      <trkpt lat="63.97335" lon="20.34167">
        <ele>117.388208</ele>
        <time>2020-09-29T11:51:12.799Z</time>
      </trkpt>
      <trkpt lat="63.97328" lon="20.34154">
        <ele>117.328741</ele>
        <time>2020-09-29T11:51:14.783Z</time>
      </trkpt>
      <trkpt lat="63.9732" lon="20.3414">
        <ele>117.267567</ele>
        <time>2020-09-29T11:51:16.790Z</time>
      </trkpt>
      <trkpt lat="63.97313" lon="20.34126">
        <ele>117.208363</ele>
        <time>2020-09-29T11:51:18.784Z</time>
      </trkpt>
      <trkpt lat="63.97306" lon="20.34113">
        <ele>117.149525</ele>
        <time>2020-09-29T11:51:20.812Z</time>
      </trkpt>
      <trkpt lat="63.97299" lon="20.34099">
        <ele>117.147946</ele>
        <time>2020-09-29T11:51:22.789Z</time>
      </trkpt>
      <trkpt lat="63.97292" lon="20.34085">
        <ele>117.381378</ele>
        <time>2020-09-29T11:51:24.769Z</time>
      </trkpt>
      <trkpt lat="63.97282" lon="20.34066">
        <ele>117.719982</ele>
        <time>2020-09-29T11:51:27.814Z</time>
      </trkpt>
      <trkpt lat="63.97272" lon="20.34049">
        <ele>118.037523</ele>
        <time>2020-09-29T11:51:30.782Z</time>
      </trkpt>
      <trkpt lat="63.97263" lon="20.34033">
        <ele>118.334848</ele>
        <time>2020-09-29T11:51:33.790Z</time>
      </trkpt>
      <trkpt lat="63.97254" lon="20.34016">
        <ele>118.63614</ele>
        <time>2020-09-29T11:51:36.781Z</time>
      </trkpt>
      <trkpt lat="63.97244" lon="20.34">
        <ele>118.932028</ele>
        <time>2020-09-29T11:51:39.819Z</time>
      </trkpt>
      <trkpt lat="63.97235" lon="20.33986">
        <ele>119.215459</ele>
        <time>2020-09-29T11:51:42.778Z</time>
      </trkpt>
      <trkpt lat="63.97226" lon="20.33971">
        <ele>119.501935</ele>
        <time>2020-09-29T11:51:45.792Z</time>
      </trkpt>
      <trkpt lat="63.97216" lon="20.33956">
        <ele>119.818041</ele>
        <time>2020-09-29T11:51:48.787Z</time>
      </trkpt>
      <trkpt lat="63.97205" lon="20.3394">
        <ele>120.13373</ele>
        <time>2020-09-29T11:51:51.809Z</time>
      </trkpt>
      <trkpt lat="63.97195" lon="20.33925">
        <ele>120.440342</ele>
        <time>2020-09-29T11:51:54.779Z</time>
      </trkpt>
      <trkpt lat="63.97185" lon="20.33909">
        <ele>120.750094</ele>
        <time>2020-09-29T11:51:57.778Z</time>
      </trkpt>
      <trkpt lat="63.97176" lon="20.33894">
        <ele>121.046826</ele>
        <time>2020-09-29T11:52:00.792Z</time>
      </trkpt>
      <trkpt lat="63.97166" lon="20.3388">
        <ele>121.344024</ele>
        <time>2020-09-29T11:52:03.800Z</time>
      </trkpt>
      <trkpt lat="63.97157" lon="20.33866">
        <ele>121.629245</ele>
        <time>2020-09-29T11:52:06.788Z</time>
      </trkpt>
      <trkpt lat="63.97147" lon="20.33854">
        <ele>121.677769</ele>
        <time>2020-09-29T11:52:09.805Z</time>
      </trkpt>
      <trkpt lat="63.97139" lon="20.33841">
        <ele>121.662894</ele>
        <time>2020-09-29T11:52:12.810Z</time>
      </trkpt>
      <trkpt lat="63.9713" lon="20.33826">
        <ele>121.646572</ele>
        <time>2020-09-29T11:52:15.779Z</time>
      </trkpt>
      <trkpt lat="63.97119" lon="20.33809">
        <ele>121.627804</ele>
        <time>2020-09-29T11:52:18.808Z</time>
      </trkpt>
      <trkpt lat="63.97108" lon="20.33794">
        <ele>121.608599</ele>
        <time>2020-09-29T11:52:21.804Z</time>
      </trkpt>
      <trkpt lat="63.97096" lon="20.33778">
        <ele>121.589278</ele>
        <time>2020-09-29T11:52:24.825Z</time>
      </trkpt>
      <trkpt lat="63.97085" lon="20.33762">
        <ele>121.570542</ele>
        <time>2020-09-29T11:52:27.802Z</time>
      </trkpt>
      <trkpt lat="63.97075" lon="20.33747">
        <ele>121.552466</ele>
        <time>2020-09-29T11:52:30.800Z</time>
      </trkpt>
      <trkpt lat="63.97064" lon="20.33733">
        <ele>121.535378</ele>
        <time>2020-09-29T11:52:33.782Z</time>
      </trkpt>
      <trkpt lat="63.97055" lon="20.3372">
        <ele>121.519064</ele>
        <time>2020-09-29T11:52:36.769Z</time>
      </trkpt>
      <trkpt lat="63.97045" lon="20.33706">
        <ele>121.501812</ele>
        <time>2020-09-29T11:52:39.801Z</time>
      </trkpt>
      <trkpt lat="63.97034" lon="20.33692">
        <ele>121.484031</ele>
        <time>2020-09-29T11:52:42.773Z</time>
      </trkpt>
      <trkpt lat="63.97024" lon="20.33678">
        <ele>121.467561</ele>
        <time>2020-09-29T11:52:45.798Z</time>
      </trkpt>
      <trkpt lat="63.97015" lon="20.33664">
        <ele>121.451269</ele>
        <time>2020-09-29T11:52:48.805Z</time>
      </trkpt>
      <trkpt lat="63.97004" lon="20.33651">
        <ele>121.434242</ele>
        <time>2020-09-29T11:52:51.789Z</time>
      </trkpt>
      <trkpt lat="63.96994" lon="20.33639">
        <ele>121.472075</ele>
        <time>2020-09-29T11:52:54.792Z</time>
      </trkpt>
      <trkpt lat="63.96984" lon="20.33625">
        <ele>121.531112</ele>
        <time>2020-09-29T11:52:57.790Z</time>
      </trkpt>
      <trkpt lat="63.96974" lon="20.33611">
        <ele>121.590081</ele>
        <time>2020-09-29T11:53:00.777Z</time>
      </trkpt>
      <trkpt lat="63.96964" lon="20.33597">
        <ele>121.651801</ele>
        <time>2020-09-29T11:53:03.775Z</time>
      </trkpt>
      <trkpt lat="63.96954" lon="20.33583">
        <ele>121.710348</ele>
        <time>2020-09-29T11:53:06.783Z</time>
      </trkpt>
      <trkpt lat="63.96944" lon="20.3357">
        <ele>121.770101</ele>
        <time>2020-09-29T11:53:09.789Z</time>
      </trkpt>
      <trkpt lat="63.96934" lon="20.33555">
        <ele>121.828304</ele>
        <time>2020-09-29T11:53:12.780Z</time>
      </trkpt>
      <trkpt lat="63.96925" lon="20.33543">
        <ele>121.880597</ele>
        <time>2020-09-29T11:53:15.777Z</time>
      </trkpt>
      <trkpt lat="63.96917" lon="20.33531">
        <ele>121.928812</ele>
        <time>2020-09-29T11:53:18.786Z</time>
      </trkpt>
      <trkpt lat="63.96909" lon="20.33519">
        <ele>121.979589</ele>
        <time>2020-09-29T11:53:21.791Z</time>
      </trkpt>
      <trkpt lat="63.969" lon="20.33508">
        <ele>122.031772</ele>
        <time>2020-09-29T11:53:24.775Z</time>
      </trkpt>
      <trkpt lat="63.9689" lon="20.33495">
        <ele>122.086604</ele>
        <time>2020-09-29T11:53:27.775Z</time>
      </trkpt>
      <trkpt lat="63.96881" lon="20.33482">
        <ele>122.143304</ele>
        <time>2020-09-29T11:53:30.793Z</time>
      </trkpt>
      <trkpt lat="63.96872" lon="20.3347">
        <ele>122.195271</ele>
        <time>2020-09-29T11:53:33.775Z</time>
      </trkpt>
      <trkpt lat="63.96863" lon="20.33458">
        <ele>122.248222</ele>
        <time>2020-09-29T11:53:36.778Z</time>
      </trkpt>
      <trkpt lat="63.96853" lon="20.33444">
        <ele>122.303388</ele>
        <time>2020-09-29T11:53:39.814Z</time>
      </trkpt>
      <trkpt lat="63.96844" lon="20.33429">
        <ele>122.493359</ele>
        <time>2020-09-29T11:53:42.789Z</time>
      </trkpt>
      <trkpt lat="63.96834" lon="20.33414">
        <ele>122.855826</ele>
        <time>2020-09-29T11:53:45.789Z</time>
      </trkpt>
      <trkpt lat="63.96826" lon="20.33401">
        <ele>123.190939</ele>
        <time>2020-09-29T11:53:48.786Z</time>
      </trkpt>
      <trkpt lat="63.96817" lon="20.33388">
        <ele>123.506805</ele>
        <time>2020-09-29T11:53:51.800Z</time>
      </trkpt>
      <trkpt lat="63.96809" lon="20.33376">
        <ele>123.827548</ele>
        <time>2020-09-29T11:53:54.824Z</time>
      </trkpt>
      <trkpt lat="63.96799" lon="20.33365">
        <ele>124.158421</ele>
        <time>2020-09-29T11:53:57.798Z</time>
      </trkpt>
      <trkpt lat="63.9679" lon="20.33352">
        <ele>124.504156</ele>
        <time>2020-09-29T11:54:00.808Z</time>
      </trkpt>
      <trkpt lat="63.96781" lon="20.33339">
        <ele>124.842985</ele>
        <time>2020-09-29T11:54:03.791Z</time>
      </trkpt>
      <trkpt lat="63.96772" lon="20.33325">
        <ele>125.182828</ele>
        <time>2020-09-29T11:54:06.773Z</time>
      </trkpt>
      <trkpt lat="63.96763" lon="20.33313">
        <ele>125.513538</ele>
        <time>2020-09-29T11:54:09.775Z</time>
      </trkpt>
      <trkpt lat="63.96754" lon="20.33302">
        <ele>125.832637</ele>
        <time>2020-09-29T11:54:12.773Z</time>
      </trkpt>
      <trkpt lat="63.96745" lon="20.33291">
        <ele>126.148307</ele>
        <time>2020-09-29T11:54:15.784Z</time>
      </trkpt>
      <trkpt lat="63.96736" lon="20.33279">
        <ele>126.47152</ele>
        <time>2020-09-29T11:54:18.798Z</time>
      </trkpt>
      <trkpt lat="63.96727" lon="20.33266">
        <ele>126.816104</ele>
        <time>2020-09-29T11:54:21.814Z</time>
      </trkpt>
      <trkpt lat="63.96717" lon="20.33252">
        <ele>127.176068</ele>
        <time>2020-09-29T11:54:24.833Z</time>
      </trkpt>
      <trkpt lat="63.96708" lon="20.3324">
        <ele>127.522499</ele>
        <time>2020-09-29T11:54:27.830Z</time>
      </trkpt>
      <trkpt lat="63.96699" lon="20.33227">
        <ele>127.855256</ele>
        <time>2020-09-29T11:54:30.799Z</time>
      </trkpt>
      <trkpt lat="63.96689" lon="20.33215">
        <ele>127.946356</ele>
        <time>2020-09-29T11:54:33.779Z</time>
      </trkpt>
      <trkpt lat="63.9668" lon="20.33201">
        <ele>127.836756</ele>
        <time>2020-09-29T11:54:36.795Z</time>
      </trkpt>
      <trkpt lat="63.9667" lon="20.33188">
        <ele>127.718087</ele>
        <time>2020-09-29T11:54:39.801Z</time>
      </trkpt>
      <trkpt lat="63.9666" lon="20.33174">
        <ele>127.601302</ele>
        <time>2020-09-29T11:54:42.793Z</time>
      </trkpt>
      <trkpt lat="63.9665" lon="20.33159">
        <ele>127.484407</ele>
        <time>2020-09-29T11:54:45.807Z</time>
      </trkpt>
      <trkpt lat="63.9664" lon="20.33144">
        <ele>127.366463</ele>
        <time>2020-09-29T11:54:48.812Z</time>
      </trkpt>
      <trkpt lat="63.9663" lon="20.33129">
        <ele>127.243879</ele>
        <time>2020-09-29T11:54:51.775Z</time>
      </trkpt>
      <trkpt lat="63.96622" lon="20.33117">
        <ele>127.15475</ele>
        <time>2020-09-29T11:54:53.794Z</time>
      </trkpt>
      <trkpt lat="63.96615" lon="20.33107">
        <ele>127.064156</ele>
        <time>2020-09-29T11:54:55.793Z</time>
      </trkpt>
      <trkpt lat="63.96606" lon="20.33095">
        <ele>126.967947</ele>
        <time>2020-09-29T11:54:57.806Z</time>
      </trkpt>
      <trkpt lat="63.96598" lon="20.33083">
        <ele>126.867519</ele>
        <time>2020-09-29T11:54:59.781Z</time>
      </trkpt>
      <trkpt lat="63.96589" lon="20.33068">
        <ele>126.756843</ele>
        <time>2020-09-29T11:55:01.799Z</time>
      </trkpt>
      <trkpt lat="63.9658" lon="20.33054">
        <ele>126.647095</ele>
        <time>2020-09-29T11:55:03.801Z</time>
      </trkpt>
      <trkpt lat="63.96571" lon="20.33039">
        <ele>126.542496</ele>
        <time>2020-09-29T11:55:05.808Z</time>
      </trkpt>
      <trkpt lat="63.96563" lon="20.33024">
        <ele>126.436478</ele>
        <time>2020-09-29T11:55:07.776Z</time>
      </trkpt>
      <trkpt lat="63.96555" lon="20.33009">
        <ele>126.332407</ele>
        <time>2020-09-29T11:55:09.781Z</time>
      </trkpt>
      <trkpt lat="63.96547" lon="20.32993">
        <ele>126.228711</ele>
        <time>2020-09-29T11:55:11.813Z</time>
      </trkpt>
      <trkpt lat="63.96539" lon="20.32977">
        <ele>125.87671</ele>
        <time>2020-09-29T11:55:13.772Z</time>
      </trkpt>
      <trkpt lat="63.9653" lon="20.32961">
        <ele>125.470391</ele>
        <time>2020-09-29T11:55:15.792Z</time>
      </trkpt>
      <trkpt lat="63.96521" lon="20.32942">
        <ele>125.044958</ele>
        <time>2020-09-29T11:55:17.791Z</time>
      </trkpt>
      <trkpt lat="63.96512" lon="20.32923">
        <ele>124.590555</ele>
        <time>2020-09-29T11:55:19.797Z</time>
      </trkpt>
      <trkpt lat="63.96502" lon="20.32902">
        <ele>124.128964</ele>
        <time>2020-09-29T11:55:21.790Z</time>
      </trkpt>
      <trkpt lat="63.96493" lon="20.32882">
        <ele>123.66437</ele>
        <time>2020-09-29T11:55:23.775Z</time>
      </trkpt>
      <trkpt lat="63.96483" lon="20.32861">
        <ele>123.193525</ele>
        <time>2020-09-29T11:55:25.831Z</time>
      </trkpt>
      <trkpt lat="63.96473" lon="20.32842">
        <ele>122.739944</ele>
        <time>2020-09-29T11:55:27.775Z</time>
      </trkpt>
      <trkpt lat="63.96464" lon="20.32822">
        <ele>122.277411</ele>
        <time>2020-09-29T11:55:29.819Z</time>
      </trkpt>
      <trkpt lat="63.96454" lon="20.32803">
        <ele>121.825909</ele>
        <time>2020-09-29T11:55:31.811Z</time>
      </trkpt>
      <trkpt lat="63.96445" lon="20.32785">
        <ele>121.405461</ele>
        <time>2020-09-29T11:55:33.792Z</time>
      </trkpt>
      <trkpt lat="63.96436" lon="20.32768">
        <ele>120.989396</ele>
        <time>2020-09-29T11:55:35.795Z</time>
      </trkpt>
      <trkpt lat="63.96427" lon="20.3275">
        <ele>120.570937</ele>
        <time>2020-09-29T11:55:37.798Z</time>
      </trkpt>
      <trkpt lat="63.96419" lon="20.32733">
        <ele>120.165997</ele>
        <time>2020-09-29T11:55:39.816Z</time>
      </trkpt>
      <trkpt lat="63.9641" lon="20.32716">
        <ele>119.873495</ele>
        <time>2020-09-29T11:55:41.784Z</time>
      </trkpt>
      <trkpt lat="63.96402" lon="20.327">
        <ele>119.981885</ele>
        <time>2020-09-29T11:55:43.774Z</time>
      </trkpt>
      <trkpt lat="63.96395" lon="20.32685">
        <ele>120.075428</ele>
        <time>2020-09-29T11:55:45.802Z</time>
      </trkpt>
      <trkpt lat="63.96388" lon="20.32671">
        <ele>120.167854</ele>
        <time>2020-09-29T11:55:47.799Z</time>
      </trkpt>
      <trkpt lat="63.96378" lon="20.32651">
        <ele>120.299872</ele>
        <time>2020-09-29T11:55:50.803Z</time>
      </trkpt>
      <trkpt lat="63.96367" lon="20.32631">
        <ele>120.435827</ele>
        <time>2020-09-29T11:55:53.811Z</time>
      </trkpt>
      <trkpt lat="63.9636" lon="20.32618">
        <ele>120.529457</ele>
        <time>2020-09-29T11:55:55.815Z</time>
      </trkpt>
      <trkpt lat="63.96353" lon="20.32604">
        <ele>120.625093</ele>
        <time>2020-09-29T11:55:57.794Z</time>
      </trkpt>
      <trkpt lat="63.96345" lon="20.32589">
        <ele>120.722621</ele>
        <time>2020-09-29T11:55:59.780Z</time>
      </trkpt>
      <trkpt lat="63.96338" lon="20.32574">
        <ele>120.822918</ele>
        <time>2020-09-29T11:56:01.794Z</time>
      </trkpt>
      <trkpt lat="63.96331" lon="20.32558">
        <ele>120.920903</ele>
        <time>2020-09-29T11:56:03.807Z</time>
      </trkpt>
      <trkpt lat="63.96323" lon="20.32543">
        <ele>121.02126</ele>
        <time>2020-09-29T11:56:05.830Z</time>
      </trkpt>
      <trkpt lat="63.96315" lon="20.32527">
        <ele>121.123619</ele>
        <time>2020-09-29T11:56:07.779Z</time>
      </trkpt>
      <trkpt lat="63.96307" lon="20.32512">
        <ele>121.229741</ele>
        <time>2020-09-29T11:56:09.796Z</time>
      </trkpt>
      <trkpt lat="63.96299" lon="20.32495">
        <ele>121.341711</ele>
        <time>2020-09-29T11:56:11.805Z</time>
      </trkpt>
      <trkpt lat="63.9629" lon="20.32478">
        <ele>121.454068</ele>
        <time>2020-09-29T11:56:13.820Z</time>
      </trkpt>
      <trkpt lat="63.96282" lon="20.32463">
        <ele>121.556718</ele>
        <time>2020-09-29T11:56:15.791Z</time>
      </trkpt>
      <trkpt lat="63.96275" lon="20.32448">
        <ele>121.639371</ele>
        <time>2020-09-29T11:56:17.832Z</time>
      </trkpt>
      <trkpt lat="63.96269" lon="20.32434">
        <ele>121.652659</ele>
        <time>2020-09-29T11:56:19.780Z</time>
      </trkpt>
      <trkpt lat="63.96262" lon="20.3242">
        <ele>121.665793</ele>
        <time>2020-09-29T11:56:21.814Z</time>
      </trkpt>
      <trkpt lat="63.96253" lon="20.32403">
        <ele>121.683819</ele>
        <time>2020-09-29T11:56:24.800Z</time>
      </trkpt>
      <trkpt lat="63.96244" lon="20.32384">
        <ele>121.700597</ele>
        <time>2020-09-29T11:56:27.798Z</time>
      </trkpt>
      <trkpt lat="63.96236" lon="20.32368">
        <ele>121.716759</ele>
        <time>2020-09-29T11:56:30.787Z</time>
      </trkpt>
      <trkpt lat="63.96228" lon="20.32353">
        <ele>121.732245</ele>
        <time>2020-09-29T11:56:33.820Z</time>
      </trkpt>
      <trkpt lat="63.9622" lon="20.32336">
        <ele>121.74856</ele>
        <time>2020-09-29T11:56:36.791Z</time>
      </trkpt>
      <trkpt lat="63.96211" lon="20.32319">
        <ele>121.765817</ele>
        <time>2020-09-29T11:56:39.779Z</time>
      </trkpt>
      <trkpt lat="63.96202" lon="20.32302">
        <ele>121.782267</ele>
        <time>2020-09-29T11:56:42.787Z</time>
      </trkpt>
      <trkpt lat="63.96194" lon="20.32286">
        <ele>121.798313</ele>
        <time>2020-09-29T11:56:45.781Z</time>
      </trkpt>
      <trkpt lat="63.96185" lon="20.32268">
        <ele>121.815233</ele>
        <time>2020-09-29T11:56:48.812Z</time>
      </trkpt>
      <trkpt lat="63.96176" lon="20.32249">
        <ele>121.833046</ele>
        <time>2020-09-29T11:56:51.783Z</time>
      </trkpt>
      <trkpt lat="63.96167" lon="20.32232">
        <ele>121.85057</ele>
        <time>2020-09-29T11:56:54.788Z</time>
      </trkpt>
      <trkpt lat="63.96157" lon="20.32212">
        <ele>121.869624</ele>
        <time>2020-09-29T11:56:57.779Z</time>
      </trkpt>
      <trkpt lat="63.96148" lon="20.32194">
        <ele>121.88804</ele>
        <time>2020-09-29T11:57:00.790Z</time>
      </trkpt>
      <trkpt lat="63.96138" lon="20.32173">
        <ele>121.834649</ele>
        <time>2020-09-29T11:57:03.800Z</time>
      </trkpt>
      <trkpt lat="63.96132" lon="20.32158">
        <ele>121.690253</ele>
        <time>2020-09-29T11:57:05.785Z</time>
      </trkpt>
      <trkpt lat="63.96124" lon="20.32143">
        <ele>121.535598</ele>
        <time>2020-09-29T11:57:07.790Z</time>
      </trkpt>
      <trkpt lat="63.96117" lon="20.32128">
        <ele>121.378036</ele>
        <time>2020-09-29T11:57:09.824Z</time>
      </trkpt>
      <trkpt lat="63.96109" lon="20.32112">
        <ele>121.218105</ele>
        <time>2020-09-29T11:57:11.794Z</time>
      </trkpt>
      <trkpt lat="63.96101" lon="20.32097">
        <ele>121.057158</ele>
        <time>2020-09-29T11:57:13.802Z</time>
      </trkpt>
      <trkpt lat="63.96093" lon="20.32082">
        <ele>120.89488</ele>
        <time>2020-09-29T11:57:15.807Z</time>
      </trkpt>
      <trkpt lat="63.96085" lon="20.32065">
        <ele>120.7218</ele>
        <time>2020-09-29T11:57:17.811Z</time>
      </trkpt>
      <trkpt lat="63.96076" lon="20.32048">
        <ele>120.547619</ele>
        <time>2020-09-29T11:57:19.790Z</time>
      </trkpt>
      <trkpt lat="63.96068" lon="20.32031">
        <ele>120.374352</ele>
        <time>2020-09-29T11:57:21.785Z</time>
      </trkpt>
      <trkpt lat="63.9606" lon="20.32014">
        <ele>120.198908</ele>
        <time>2020-09-29T11:57:23.808Z</time>
      </trkpt>
      <trkpt lat="63.96051" lon="20.31998">
        <ele>120.026095</ele>
        <time>2020-09-29T11:57:25.783Z</time>
      </trkpt>
      <trkpt lat="63.96043" lon="20.31979">
        <ele>119.846311</ele>
        <time>2020-09-29T11:57:27.779Z</time>
      </trkpt>
      <trkpt lat="63.96034" lon="20.31961">
        <ele>119.664073</ele>
        <time>2020-09-29T11:57:29.782Z</time>
      </trkpt>
      <trkpt lat="63.96025" lon="20.31943">
        <ele>119.476203</ele>
        <time>2020-09-29T11:57:31.787Z</time>
      </trkpt>
      <trkpt lat="63.96016" lon="20.31926">
        <ele>119.293658</ele>
        <time>2020-09-29T11:57:33.790Z</time>
      </trkpt>
      <trkpt lat="63.96008" lon="20.31908">
        <ele>119.114162</ele>
        <time>2020-09-29T11:57:35.793Z</time>
      </trkpt>
      <trkpt lat="63.96" lon="20.31891">
        <ele>118.670238</ele>
        <time>2020-09-29T11:57:37.789Z</time>
      </trkpt>
      <trkpt lat="63.95992" lon="20.31874">
        <ele>118.21179</ele>
        <time>2020-09-29T11:57:39.784Z</time>
      </trkpt>
      <trkpt lat="63.95983" lon="20.31857">
        <ele>117.742328</ele>
        <time>2020-09-29T11:57:41.788Z</time>
      </trkpt>
      <trkpt lat="63.95975" lon="20.31841">
        <ele>117.269815</ele>
        <time>2020-09-29T11:57:43.779Z</time>
      </trkpt>
      <trkpt lat="63.95966" lon="20.31826">
        <ele>116.802984</ele>
        <time>2020-09-29T11:57:45.785Z</time>
      </trkpt>
      <trkpt lat="63.95957" lon="20.31809">
        <ele>116.324694</ele>
        <time>2020-09-29T11:57:47.791Z</time>
      </trkpt>
      <trkpt lat="63.95949" lon="20.31792">
        <ele>115.845176</ele>
        <time>2020-09-29T11:57:49.798Z</time>
      </trkpt>
      <trkpt lat="63.9594" lon="20.31774">
        <ele>115.347732</ele>
        <time>2020-09-29T11:57:51.818Z</time>
      </trkpt>
      <trkpt lat="63.95931" lon="20.31756">
        <ele>114.84582</ele>
        <time>2020-09-29T11:57:53.787Z</time>
      </trkpt>
      <trkpt lat="63.95922" lon="20.3174">
        <ele>114.35422</ele>
        <time>2020-09-29T11:57:55.814Z</time>
      </trkpt>
      <trkpt lat="63.95912" lon="20.31721">
        <ele>113.833046</ele>
        <time>2020-09-29T11:57:57.806Z</time>
      </trkpt>
      <trkpt lat="63.95903" lon="20.317">
        <ele>113.265213</ele>
        <time>2020-09-29T11:57:59.802Z</time>
      </trkpt>
      <trkpt lat="63.95892" lon="20.31679">
        <ele>112.685428</ele>
        <time>2020-09-29T11:58:01.797Z</time>
      </trkpt>
      <trkpt lat="63.95882" lon="20.31657">
        <ele>112.085882</ele>
        <time>2020-09-29T11:58:03.778Z</time>
      </trkpt>
      <trkpt lat="63.95871" lon="20.31635">
        <ele>111.477415</ele>
        <time>2020-09-29T11:58:05.784Z</time>
      </trkpt>
      <trkpt lat="63.95859" lon="20.3161">
        <ele>110.966977</ele>
        <time>2020-09-29T11:58:07.782Z</time>
      </trkpt>
      <trkpt lat="63.95847" lon="20.31585">
        <ele>110.425134</ele>
        <time>2020-09-29T11:58:09.771Z</time>
      </trkpt>
      <trkpt lat="63.95834" lon="20.31559">
        <ele>109.854524</ele>
        <time>2020-09-29T11:58:11.780Z</time>
      </trkpt>
      <trkpt lat="63.95827" lon="20.31544">
        <ele>109.547059</ele>
        <time>2020-09-29T11:58:12.810Z</time>
      </trkpt>
      <trkpt lat="63.95821" lon="20.3153">
        <ele>109.243003</ele>
        <time>2020-09-29T11:58:13.786Z</time>
      </trkpt>
      <trkpt lat="63.95814" lon="20.31516">
        <ele>108.937478</ele>
        <time>2020-09-29T11:58:14.787Z</time>
      </trkpt>
      <trkpt lat="63.95807" lon="20.31502">
        <ele>108.628908</ele>
        <time>2020-09-29T11:58:15.803Z</time>
      </trkpt>
      <trkpt lat="63.95799" lon="20.31489">
        <ele>108.320621</ele>
        <time>2020-09-29T11:58:16.807Z</time>
      </trkpt>
      <trkpt lat="63.95792" lon="20.31476">
        <ele>108.011722</ele>
        <time>2020-09-29T11:58:17.788Z</time>
      </trkpt>
      <trkpt lat="63.95784" lon="20.31463">
        <ele>107.694868</ele>
        <time>2020-09-29T11:58:18.784Z</time>
      </trkpt>
      <trkpt lat="63.95776" lon="20.3145">
        <ele>107.377003</ele>
        <time>2020-09-29T11:58:19.793Z</time>
      </trkpt>
      <trkpt lat="63.95768" lon="20.31438">
        <ele>107.062422</ele>
        <time>2020-09-29T11:58:20.808Z</time>
      </trkpt>
      <trkpt lat="63.95761" lon="20.31426">
        <ele>106.749455</ele>
        <time>2020-09-29T11:58:21.814Z</time>
      </trkpt>
      <trkpt lat="63.95753" lon="20.31414">
        <ele>106.434534</ele>
        <time>2020-09-29T11:58:22.790Z</time>
      </trkpt>
      <trkpt lat="63.95745" lon="20.31402">
        <ele>106.131383</ele>
        <time>2020-09-29T11:58:23.794Z</time>
      </trkpt>
      <trkpt lat="63.95737" lon="20.31391">
        <ele>105.835002</ele>
        <time>2020-09-29T11:58:24.795Z</time>
      </trkpt>
      <trkpt lat="63.95722" lon="20.3137">
        <ele>105.314892</ele>
        <time>2020-09-29T11:58:26.796Z</time>
      </trkpt>
      <trkpt lat="63.95707" lon="20.31351">
        <ele>104.838302</ele>
        <time>2020-09-29T11:58:28.774Z</time>
      </trkpt>
      <trkpt lat="63.95692" lon="20.31333">
        <ele>104.361428</ele>
        <time>2020-09-29T11:58:30.786Z</time>
      </trkpt>
      <trkpt lat="63.95684" lon="20.31323">
        <ele>104.114165</ele>
        <time>2020-09-29T11:58:31.807Z</time>
      </trkpt>
      <trkpt lat="63.95676" lon="20.31313">
        <ele>103.86816</ele>
        <time>2020-09-29T11:58:32.794Z</time>
      </trkpt>
      <trkpt lat="63.95668" lon="20.31303">
        <ele>103.617925</ele>
        <time>2020-09-29T11:58:33.783Z</time>
      </trkpt>
      <trkpt lat="63.95659" lon="20.31294">
        <ele>103.367468</ele>
        <time>2020-09-29T11:58:34.799Z</time>
      </trkpt>
      <trkpt lat="63.95651" lon="20.31285">
        <ele>103.11718</ele>
        <time>2020-09-29T11:58:35.838Z</time>
      </trkpt>
      <trkpt lat="63.95643" lon="20.31276">
        <ele>102.865862</ele>
        <time>2020-09-29T11:58:36.780Z</time>
      </trkpt>
      <trkpt lat="63.95635" lon="20.31267">
        <ele>102.618916</ele>
        <time>2020-09-29T11:58:37.801Z</time>
      </trkpt>
      <trkpt lat="63.95626" lon="20.31257">
        <ele>102.365709</ele>
        <time>2020-09-29T11:58:38.799Z</time>
      </trkpt>
      <trkpt lat="63.95618" lon="20.31247">
        <ele>102.110642</ele>
        <time>2020-09-29T11:58:39.843Z</time>
      </trkpt>
      <trkpt lat="63.9561" lon="20.31237">
        <ele>101.856955</ele>
        <time>2020-09-29T11:58:40.782Z</time>
      </trkpt>
      <trkpt lat="63.95602" lon="20.31226">
        <ele>101.599713</ele>
        <time>2020-09-29T11:58:41.774Z</time>
      </trkpt>
      <trkpt lat="63.95594" lon="20.31216">
        <ele>101.347771</ele>
        <time>2020-09-29T11:58:42.774Z</time>
      </trkpt>
      <trkpt lat="63.95586" lon="20.31206">
        <ele>101.101067</ele>
        <time>2020-09-29T11:58:43.806Z</time>
      </trkpt>
      <trkpt lat="63.9557" lon="20.31189">
        <ele>100.825157</ele>
        <time>2020-09-29T11:58:45.793Z</time>
      </trkpt>
      <trkpt lat="63.95556" lon="20.31174">
        <ele>101.61528</ele>
        <time>2020-09-29T11:58:47.794Z</time>
      </trkpt>
      <trkpt lat="63.95544" lon="20.3116">
        <ele>102.302439</ele>
        <time>2020-09-29T11:58:49.798Z</time>
      </trkpt>
      <trkpt lat="63.95534" lon="20.31148">
        <ele>102.886642</ele>
        <time>2020-09-29T11:58:51.804Z</time>
      </trkpt>
      <trkpt lat="63.95526" lon="20.31138">
        <ele>103.366751</ele>
        <time>2020-09-29T11:58:53.794Z</time>
      </trkpt>
      <trkpt lat="63.95515" lon="20.31125">
        <ele>103.984124</ele>
        <time>2020-09-29T11:58:56.793Z</time>
      </trkpt>
      <trkpt lat="63.95505" lon="20.31113">
        <ele>104.569379</ele>
        <time>2020-09-29T11:58:59.794Z</time>
      </trkpt>
      <trkpt lat="63.95497" lon="20.31102">
        <ele>105.075495</ele>
        <time>2020-09-29T11:59:02.789Z</time>
      </trkpt>
      <trkpt lat="63.95486" lon="20.31089">
        <ele>105.676433</ele>
        <time>2020-09-29T11:59:06.777Z</time>
      </trkpt>
      <trkpt lat="63.95477" lon="20.31077">
        <ele>106.235936</ele>
        <time>2020-09-29T11:59:10.818Z</time>
      </trkpt>
      <trkpt lat="63.95468" lon="20.31063">
        <ele>106.788851</ele>
        <time>2020-09-29T11:59:14.783Z</time>
      </trkpt>
      <trkpt lat="63.95459" lon="20.31049">
        <ele>107.343849</ele>
        <time>2020-09-29T11:59:18.789Z</time>
      </trkpt>
      <trkpt lat="63.9545" lon="20.31035">
        <ele>107.915777</ele>
        <time>2020-09-29T11:59:22.790Z</time>
      </trkpt>
      <trkpt lat="63.95441" lon="20.31019">
        <ele>108.484249</ele>
        <time>2020-09-29T11:59:26.786Z</time>
      </trkpt>
      <trkpt lat="63.95433" lon="20.31001">
        <ele>109.054301</ele>
        <time>2020-09-29T11:59:30.783Z</time>
      </trkpt>
      <trkpt lat="63.95426" lon="20.30982">
        <ele>109.627054</ele>
        <time>2020-09-29T11:59:34.795Z</time>
      </trkpt>
      <trkpt lat="63.95418" lon="20.30963">
        <ele>109.994404</ele>
        <time>2020-09-29T11:59:38.779Z</time>
      </trkpt>
      <trkpt lat="63.95411" lon="20.30948">
        <ele>110.129629</ele>
        <time>2020-09-29T11:59:41.805Z</time>
      </trkpt>
      <trkpt lat="63.95404" lon="20.30931">
        <ele>110.268339</ele>
        <time>2020-09-29T11:59:44.836Z</time>
      </trkpt>
      <trkpt lat="63.95397" lon="20.30914">
        <ele>110.415682</ele>
        <time>2020-09-29T11:59:47.793Z</time>
      </trkpt>
      <trkpt lat="63.9539" lon="20.30893">
        <ele>110.569599</ele>
        <time>2020-09-29T11:59:50.792Z</time>
      </trkpt>
      <trkpt lat="63.95384" lon="20.30874">
        <ele>110.714258</ele>
        <time>2020-09-29T11:59:53.802Z</time>
      </trkpt>
      <trkpt lat="63.95378" lon="20.30857">
        <ele>110.852936</ele>
        <time>2020-09-29T11:59:56.793Z</time>
      </trkpt>
      <trkpt lat="63.95371" lon="20.30835">
        <ele>111.01912</ele>
        <time>2020-09-29T11:59:59.778Z</time>
      </trkpt>
      <trkpt lat="63.95363" lon="20.30813">
        <ele>111.191163</ele>
        <time>2020-09-29T12:00:02.788Z</time>
      </trkpt>
      <trkpt lat="63.95356" lon="20.30792">
        <ele>111.353017</ele>
        <time>2020-09-29T12:00:05.776Z</time>
      </trkpt>
      <trkpt lat="63.95348" lon="20.30772">
        <ele>111.516989</ele>
        <time>2020-09-29T12:00:08.780Z</time>
      </trkpt>
      <trkpt lat="63.95341" lon="20.30753">
        <ele>111.680478</ele>
        <time>2020-09-29T12:00:11.774Z</time>
      </trkpt>
      <trkpt lat="63.95333" lon="20.30733">
        <ele>111.846756</ele>
        <time>2020-09-29T12:00:14.789Z</time>
      </trkpt>
      <trkpt lat="63.95325" lon="20.30713">
        <ele>112.005162</ele>
        <time>2020-09-29T12:00:17.792Z</time>
      </trkpt>
      <trkpt lat="63.95318" lon="20.30694">
        <ele>112.161281</ele>
        <time>2020-09-29T12:00:20.792Z</time>
      </trkpt>
      <trkpt lat="63.95311" lon="20.30676">
        <ele>112.306291</ele>
        <time>2020-09-29T12:00:23.779Z</time>
      </trkpt>
      <trkpt lat="63.95304" lon="20.30658">
        <ele>112.367649</ele>
        <time>2020-09-29T12:00:26.788Z</time>
      </trkpt>
      <trkpt lat="63.95296" lon="20.30642">
        <ele>112.092918</ele>
        <time>2020-09-29T12:00:29.813Z</time>
      </trkpt>
      <trkpt lat="63.95288" lon="20.30626">
        <ele>111.805217</ele>
        <time>2020-09-29T12:00:32.793Z</time>
      </trkpt>
      <trkpt lat="63.95278" lon="20.30611">
        <ele>111.505769</ele>
        <time>2020-09-29T12:00:35.792Z</time>
      </trkpt>
      <trkpt lat="63.95268" lon="20.30595">
        <ele>111.189299</ele>
        <time>2020-09-29T12:00:38.799Z</time>
      </trkpt>
      <trkpt lat="63.95257" lon="20.3058">
        <ele>110.854044</ele>
        <time>2020-09-29T12:00:41.794Z</time>
      </trkpt>
      <trkpt lat="63.95249" lon="20.30569">
        <ele>110.610318</ele>
        <time>2020-09-29T12:00:43.785Z</time>
      </trkpt>
      <trkpt lat="63.9524" lon="20.30559">
        <ele>110.351908</ele>
        <time>2020-09-29T12:00:45.787Z</time>
      </trkpt>
      <trkpt lat="63.95231" lon="20.3055">
        <ele>110.091577</ele>
        <time>2020-09-29T12:00:47.781Z</time>
      </trkpt>
      <trkpt lat="63.95222" lon="20.30543">
        <ele>109.826422</ele>
        <time>2020-09-29T12:00:49.809Z</time>
      </trkpt>
      <trkpt lat="63.95211" lon="20.30536">
        <ele>109.550315</ele>
        <time>2020-09-29T12:00:51.804Z</time>
      </trkpt>
      <trkpt lat="63.95201" lon="20.30529">
        <ele>109.266441</ele>
        <time>2020-09-29T12:00:53.819Z</time>
      </trkpt>
      <trkpt lat="63.9519" lon="20.30523">
        <ele>108.979491</ele>
        <time>2020-09-29T12:00:55.780Z</time>
      </trkpt>
      <trkpt lat="63.95179" lon="20.30518">
        <ele>108.686395</ele>
        <time>2020-09-29T12:00:57.798Z</time>
      </trkpt>
      <trkpt lat="63.95168" lon="20.30513">
        <ele>108.390032</ele>
        <time>2020-09-29T12:00:59.799Z</time>
      </trkpt>
      <trkpt lat="63.95157" lon="20.30507">
        <ele>108.08137</ele>
        <time>2020-09-29T12:01:01.806Z</time>
      </trkpt>
      <trkpt lat="63.95145" lon="20.30502">
        <ele>107.782214</ele>
        <time>2020-09-29T12:01:03.788Z</time>
      </trkpt>
      <trkpt lat="63.95135" lon="20.30496">
        <ele>107.515327</ele>
        <time>2020-09-29T12:01:05.827Z</time>
      </trkpt>
      <trkpt lat="63.95123" lon="20.3049">
        <ele>107.248458</ele>
        <time>2020-09-29T12:01:07.790Z</time>
      </trkpt>
      <trkpt lat="63.95113" lon="20.30486">
        <ele>106.994346</ele>
        <time>2020-09-29T12:01:09.808Z</time>
      </trkpt>
      <trkpt lat="63.95102" lon="20.30481">
        <ele>106.729571</ele>
        <time>2020-09-29T12:01:11.785Z</time>
      </trkpt>
      <trkpt lat="63.95091" lon="20.30476">
        <ele>106.464066</ele>
        <time>2020-09-29T12:01:13.834Z</time>
      </trkpt>
      <trkpt lat="63.95079" lon="20.30471">
        <ele>106.189106</ele>
        <time>2020-09-29T12:01:15.815Z</time>
      </trkpt>
      <trkpt lat="63.95068" lon="20.30466">
        <ele>105.913399</ele>
        <time>2020-09-29T12:01:17.795Z</time>
      </trkpt>
      <trkpt lat="63.95056" lon="20.30461">
        <ele>105.623802</ele>
        <time>2020-09-29T12:01:19.799Z</time>
      </trkpt>
      <trkpt lat="63.95043" lon="20.30457">
        <ele>105.328427</ele>
        <time>2020-09-29T12:01:21.792Z</time>
      </trkpt>
      <trkpt lat="63.9503" lon="20.30451">
        <ele>105.009533</ele>
        <time>2020-09-29T12:01:23.794Z</time>
      </trkpt>
      <trkpt lat="63.95017" lon="20.30447">
        <ele>104.704842</ele>
        <time>2020-09-29T12:01:25.783Z</time>
      </trkpt>
      <trkpt lat="63.95005" lon="20.30444">
        <ele>104.413185</ele>
        <time>2020-09-29T12:01:27.790Z</time>
      </trkpt>
      <trkpt lat="63.94992" lon="20.3044">
        <ele>104.116729</ele>
        <time>2020-09-29T12:01:29.793Z</time>
      </trkpt>
      <trkpt lat="63.94979" lon="20.30436">
        <ele>103.791196</ele>
        <time>2020-09-29T12:01:31.795Z</time>
      </trkpt>
      <trkpt lat="63.94964" lon="20.30431">
        <ele>103.414142</ele>
        <time>2020-09-29T12:01:33.815Z</time>
      </trkpt>
      <trkpt lat="63.94949" lon="20.30425">
        <ele>102.908167</ele>
        <time>2020-09-29T12:01:35.800Z</time>
      </trkpt>
      <trkpt lat="63.94933" lon="20.3042">
        <ele>102.382043</ele>
        <time>2020-09-29T12:01:37.791Z</time>
      </trkpt>
      <trkpt lat="63.94918" lon="20.30416">
        <ele>101.863664</ele>
        <time>2020-09-29T12:01:39.798Z</time>
      </trkpt>
      <trkpt lat="63.94903" lon="20.30412">
        <ele>101.365544</ele>
        <time>2020-09-29T12:01:41.811Z</time>
      </trkpt>
      <trkpt lat="63.94888" lon="20.30409">
        <ele>100.86253</ele>
        <time>2020-09-29T12:01:43.812Z</time>
      </trkpt>
      <trkpt lat="63.94874" lon="20.30404">
        <ele>100.369917</ele>
        <time>2020-09-29T12:01:45.808Z</time>
      </trkpt>
      <trkpt lat="63.94859" lon="20.30401">
        <ele>99.876372</ele>
        <time>2020-09-29T12:01:47.793Z</time>
      </trkpt>
      <trkpt lat="63.94844" lon="20.30399">
        <ele>99.387436</ele>
        <time>2020-09-29T12:01:49.818Z</time>
      </trkpt>
      <trkpt lat="63.94829" lon="20.30397">
        <ele>98.885329</ele>
        <time>2020-09-29T12:01:51.789Z</time>
      </trkpt>
      <trkpt lat="63.94814" lon="20.30395">
        <ele>98.359319</ele>
        <time>2020-09-29T12:01:53.807Z</time>
      </trkpt>
      <trkpt lat="63.94797" lon="20.30393">
        <ele>97.813898</ele>
        <time>2020-09-29T12:01:55.787Z</time>
      </trkpt>
      <trkpt lat="63.9478" lon="20.30391">
        <ele>97.233549</ele>
        <time>2020-09-29T12:01:57.826Z</time>
      </trkpt>
      <trkpt lat="63.94763" lon="20.3039">
        <ele>96.613534</ele>
        <time>2020-09-29T12:01:59.839Z</time>
      </trkpt>
      <trkpt lat="63.94745" lon="20.30391">
        <ele>95.990125</ele>
        <time>2020-09-29T12:02:01.826Z</time>
      </trkpt>
      <trkpt lat="63.94736" lon="20.30391">
        <ele>95.667879</ele>
        <time>2020-09-29T12:02:02.792Z</time>
      </trkpt>
      <trkpt lat="63.94726" lon="20.30391">
        <ele>95.349161</ele>
        <time>2020-09-29T12:02:03.789Z</time>
      </trkpt>
      <trkpt lat="63.94717" lon="20.30392">
        <ele>95.030416</ele>
        <time>2020-09-29T12:02:04.800Z</time>
      </trkpt>
      <trkpt lat="63.94708" lon="20.30392">
        <ele>94.708137</ele>
        <time>2020-09-29T12:02:05.788Z</time>
      </trkpt>
      <trkpt lat="63.94699" lon="20.30393">
        <ele>94.385891</ele>
        <time>2020-09-29T12:02:06.815Z</time>
      </trkpt>
      <trkpt lat="63.9469" lon="20.30393">
        <ele>94.056643</ele>
        <time>2020-09-29T12:02:07.789Z</time>
      </trkpt>
      <trkpt lat="63.9468" lon="20.30394">
        <ele>93.723822</ele>
        <time>2020-09-29T12:02:08.802Z</time>
      </trkpt>
      <trkpt lat="63.9467" lon="20.30394">
        <ele>93.38757</ele>
        <time>2020-09-29T12:02:09.789Z</time>
      </trkpt>
      <trkpt lat="63.94661" lon="20.30394">
        <ele>93.05482</ele>
        <time>2020-09-29T12:02:10.842Z</time>
      </trkpt>
      <trkpt lat="63.94651" lon="20.30395">
        <ele>92.722095</ele>
        <time>2020-09-29T12:02:11.798Z</time>
      </trkpt>
      <trkpt lat="63.94634" lon="20.30395">
        <ele>92.116241</ele>
        <time>2020-09-29T12:02:13.787Z</time>
      </trkpt>
      <trkpt lat="63.94618" lon="20.30391">
        <ele>91.559678</ele>
        <time>2020-09-29T12:02:15.782Z</time>
      </trkpt>
      <trkpt lat="63.94604" lon="20.30382">
        <ele>91.055255</ele>
        <time>2020-09-29T12:02:17.840Z</time>
      </trkpt>
      <trkpt lat="63.94593" lon="20.30363">
        <ele>90.569821</ele>
        <time>2020-09-29T12:02:19.788Z</time>
      </trkpt>
      <trkpt lat="63.94584" lon="20.30343">
        <ele>90.162036</ele>
        <time>2020-09-29T12:02:21.781Z</time>
      </trkpt>
      <trkpt lat="63.94573" lon="20.30335">
        <ele>89.768714</ele>
        <time>2020-09-29T12:02:23.801Z</time>
      </trkpt>
      <trkpt lat="63.94561" lon="20.30343">
        <ele>89.332358</ele>
        <time>2020-09-29T12:02:25.809Z</time>
      </trkpt>
      <trkpt lat="63.9455" lon="20.30356">
        <ele>88.937387</ele>
        <time>2020-09-29T12:02:27.794Z</time>
      </trkpt>
      <trkpt lat="63.94541" lon="20.30367">
        <ele>88.572561</ele>
        <time>2020-09-29T12:02:29.787Z</time>
      </trkpt>
      <trkpt lat="63.94531" lon="20.30375">
        <ele>88.209189</ele>
        <time>2020-09-29T12:02:31.809Z</time>
      </trkpt>
      <trkpt lat="63.9452" lon="20.30381">
        <ele>87.853881</ele>
        <time>2020-09-29T12:02:33.780Z</time>
      </trkpt>
      <trkpt lat="63.9451" lon="20.30384">
        <ele>87.492424</ele>
        <time>2020-09-29T12:02:35.790Z</time>
      </trkpt>
      <trkpt lat="63.94499" lon="20.30388">
        <ele>87.121568</ele>
        <time>2020-09-29T12:02:37.810Z</time>
      </trkpt>
      <trkpt lat="63.94488" lon="20.30391">
        <ele>86.756555</ele>
        <time>2020-09-29T12:02:39.793Z</time>
      </trkpt>
      <trkpt lat="63.94478" lon="20.30396">
        <ele>86.405859</ele>
        <time>2020-09-29T12:02:41.799Z</time>
      </trkpt>
      <trkpt lat="63.94468" lon="20.304">
        <ele>86.053704</ele>
        <time>2020-09-29T12:02:43.786Z</time>
      </trkpt>
      <trkpt lat="63.94457" lon="20.30404">
        <ele>85.705118</ele>
        <time>2020-09-29T12:02:45.804Z</time>
      </trkpt>
      <trkpt lat="63.94447" lon="20.30408">
        <ele>85.341722</ele>
        <time>2020-09-29T12:02:47.808Z</time>
      </trkpt>
      <trkpt lat="63.94436" lon="20.30411">
        <ele>85.177163</ele>
        <time>2020-09-29T12:02:49.779Z</time>
      </trkpt>
      <trkpt lat="63.94425" lon="20.30415">
        <ele>85.315322</ele>
        <time>2020-09-29T12:02:51.802Z</time>
      </trkpt>
      <trkpt lat="63.94414" lon="20.30419">
        <ele>85.461911</ele>
        <time>2020-09-29T12:02:53.792Z</time>
      </trkpt>
      <trkpt lat="63.94402" lon="20.30422">
        <ele>85.610865</ele>
        <time>2020-09-29T12:02:55.777Z</time>
      </trkpt>
      <trkpt lat="63.9439" lon="20.30425">
        <ele>85.757454</ele>
        <time>2020-09-29T12:02:57.789Z</time>
      </trkpt>
      <trkpt lat="63.94379" lon="20.30428">
        <ele>85.906152</ele>
        <time>2020-09-29T12:02:59.836Z</time>
      </trkpt>
      <trkpt lat="63.94367" lon="20.30432">
        <ele>86.057898</ele>
        <time>2020-09-29T12:03:01.783Z</time>
      </trkpt>
      <trkpt lat="63.94355" lon="20.30436">
        <ele>86.212627</ele>
        <time>2020-09-29T12:03:03.784Z</time>
      </trkpt>
      <trkpt lat="63.94344" lon="20.3044">
        <ele>86.346548</ele>
        <time>2020-09-29T12:03:05.797Z</time>
      </trkpt>
      <trkpt lat="63.94333" lon="20.30441">
        <ele>86.490762</ele>
        <time>2020-09-29T12:03:07.796Z</time>
      </trkpt>
      <trkpt lat="63.94321" lon="20.30444">
        <ele>86.64317</ele>
        <time>2020-09-29T12:03:09.792Z</time>
      </trkpt>
      <trkpt lat="63.94309" lon="20.30447">
        <ele>86.794566</ele>
        <time>2020-09-29T12:03:11.786Z</time>
      </trkpt>
      <trkpt lat="63.94297" lon="20.30449">
        <ele>86.947975</ele>
        <time>2020-09-29T12:03:13.798Z</time>
      </trkpt>
      <trkpt lat="63.94285" lon="20.30452">
        <ele>87.097707</ele>
        <time>2020-09-29T12:03:15.853Z</time>
      </trkpt>
      <trkpt lat="63.94274" lon="20.30453">
        <ele>87.242049</ele>
        <time>2020-09-29T12:03:17.781Z</time>
      </trkpt>
      <trkpt lat="63.94263" lon="20.30454">
        <ele>87.381033</ele>
        <time>2020-09-29T12:03:19.791Z</time>
      </trkpt>
      <trkpt lat="63.94251" lon="20.30453">
        <ele>87.322381</ele>
        <time>2020-09-29T12:03:21.797Z</time>
      </trkpt>
      <trkpt lat="63.9424" lon="20.3045">
        <ele>87.246793</ele>
        <time>2020-09-29T12:03:23.811Z</time>
      </trkpt>
      <trkpt lat="63.94229" lon="20.30446">
        <ele>87.165928</ele>
        <time>2020-09-29T12:03:25.830Z</time>
      </trkpt>
      <trkpt lat="63.94216" lon="20.30441">
        <ele>87.08098</ele>
        <time>2020-09-29T12:03:27.828Z</time>
      </trkpt>
      <trkpt lat="63.94204" lon="20.30434">
        <ele>86.993588</ele>
        <time>2020-09-29T12:03:29.783Z</time>
      </trkpt>
      <trkpt lat="63.9419" lon="20.30426">
        <ele>86.895739</ele>
        <time>2020-09-29T12:03:31.832Z</time>
      </trkpt>
      <trkpt lat="63.94174" lon="20.30416">
        <ele>86.782992</ele>
        <time>2020-09-29T12:03:33.784Z</time>
      </trkpt>
      <trkpt lat="63.94159" lon="20.30405">
        <ele>86.670805</ele>
        <time>2020-09-29T12:03:35.799Z</time>
      </trkpt>
      <trkpt lat="63.94144" lon="20.30394">
        <ele>86.566528</ele>
        <time>2020-09-29T12:03:37.803Z</time>
      </trkpt>
      <trkpt lat="63.9413" lon="20.30383">
        <ele>86.46669</ele>
        <time>2020-09-29T12:03:39.774Z</time>
      </trkpt>
      <trkpt lat="63.94118" lon="20.30372">
        <ele>86.373906</ele>
        <time>2020-09-29T12:03:41.787Z</time>
      </trkpt>
      <trkpt lat="63.94107" lon="20.3036">
        <ele>86.290173</ele>
        <time>2020-09-29T12:03:43.808Z</time>
      </trkpt>
      <trkpt lat="63.94097" lon="20.3035">
        <ele>86.216857</ele>
        <time>2020-09-29T12:03:45.789Z</time>
      </trkpt>
      <trkpt lat="63.94087" lon="20.30343">
        <ele>86.30684</ele>
        <time>2020-09-29T12:03:47.795Z</time>
      </trkpt>
      <trkpt lat="63.94076" lon="20.30334">
        <ele>87.207691</ele>
        <time>2020-09-29T12:03:50.803Z</time>
      </trkpt>
      <trkpt lat="63.94066" lon="20.30325">
        <ele>87.961191</ele>
        <time>2020-09-29T12:03:53.792Z</time>
      </trkpt>
      <trkpt lat="63.94056" lon="20.30316">
        <ele>88.774181</ele>
        <time>2020-09-29T12:03:57.800Z</time>
      </trkpt>
      <trkpt lat="63.94046" lon="20.30309">
        <ele>89.508682</ele>
        <time>2020-09-29T12:04:01.835Z</time>
      </trkpt>
      <trkpt lat="63.94036" lon="20.30303">
        <ele>90.243664</ele>
        <time>2020-09-29T12:04:05.796Z</time>
      </trkpt>
      <trkpt lat="63.94026" lon="20.30297">
        <ele>91.037276</ele>
        <time>2020-09-29T12:04:10.827Z</time>
      </trkpt>
      <trkpt lat="63.94015" lon="20.30291">
        <ele>91.830888</ele>
        <time>2020-09-29T12:04:15.837Z</time>
      </trkpt>
      <trkpt lat="63.94006" lon="20.30288">
        <ele>92.503886</ele>
        <time>2020-09-29T12:04:20.799Z</time>
      </trkpt>
      <trkpt lat="63.93996" lon="20.30283">
        <ele>93.292005</ele>
        <time>2020-09-29T12:04:25.800Z</time>
      </trkpt>
      <trkpt lat="63.93985" lon="20.30279">
        <ele>94.066185</ele>
        <time>2020-09-29T12:04:30.796Z</time>
      </trkpt>
      <trkpt lat="63.93976" lon="20.30277">
        <ele>94.740918</ele>
        <time>2020-09-29T12:04:34.783Z</time>
      </trkpt>
      <trkpt lat="63.93967" lon="20.30273">
        <ele>95.41136</ele>
        <time>2020-09-29T12:04:38.785Z</time>
      </trkpt>
      <trkpt lat="63.93955" lon="20.30268">
        <ele>96.257895</ele>
        <time>2020-09-29T12:04:42.784Z</time>
      </trkpt>
      <trkpt lat="63.93945" lon="20.30268">
        <ele>97.008397</ele>
        <time>2020-09-29T12:04:46.807Z</time>
      </trkpt>
      <trkpt lat="63.93935" lon="20.30266">
        <ele>97.711751</ele>
        <time>2020-09-29T12:04:50.829Z</time>
      </trkpt>
      <trkpt lat="63.93926" lon="20.30262">
        <ele>98.442759</ele>
        <time>2020-09-29T12:04:54.796Z</time>
      </trkpt>
      <trkpt lat="63.93916" lon="20.30257">
        <ele>99.175246</ele>
        <time>2020-09-29T12:04:58.783Z</time>
      </trkpt>
      <trkpt lat="63.93906" lon="20.30253">
        <ele>99.150473</ele>
        <time>2020-09-29T12:05:02.833Z</time>
      </trkpt>
      <trkpt lat="63.93894" lon="20.30248">
        <ele>98.996592</ele>
        <time>2020-09-29T12:05:06.796Z</time>
      </trkpt>
      <trkpt lat="63.93885" lon="20.30243">
        <ele>98.87101</ele>
        <time>2020-09-29T12:05:09.836Z</time>
      </trkpt>
      <trkpt lat="63.93876" lon="20.30238">
        <ele>98.746587</ele>
        <time>2020-09-29T12:05:12.787Z</time>
      </trkpt>
      <trkpt lat="63.93867" lon="20.30231">
        <ele>98.619287</ele>
        <time>2020-09-29T12:05:15.799Z</time>
      </trkpt>
      <trkpt lat="63.93857" lon="20.30224">
        <ele>98.483498</ele>
        <time>2020-09-29T12:05:18.828Z</time>
      </trkpt>
      <trkpt lat="63.93848" lon="20.30216">
        <ele>98.346372</ele>
        <time>2020-09-29T12:05:21.803Z</time>
      </trkpt>
      <trkpt lat="63.93837" lon="20.30207">
        <ele>98.201997</ele>
        <time>2020-09-29T12:05:24.789Z</time>
      </trkpt>
      <trkpt lat="63.93826" lon="20.30198">
        <ele>98.039666</ele>
        <time>2020-09-29T12:05:27.777Z</time>
      </trkpt>
      <trkpt lat="63.93814" lon="20.30188">
        <ele>97.864652</ele>
        <time>2020-09-29T12:05:30.797Z</time>
      </trkpt>
      <trkpt lat="63.93801" lon="20.30178">
        <ele>97.68805</ele>
        <time>2020-09-29T12:05:33.796Z</time>
      </trkpt>
      <trkpt lat="63.93792" lon="20.30171">
        <ele>97.566057</ele>
        <time>2020-09-29T12:05:35.810Z</time>
      </trkpt>
      <trkpt lat="63.93784" lon="20.30165">
        <ele>97.445729</ele>
        <time>2020-09-29T12:05:37.778Z</time>
      </trkpt>
      <trkpt lat="63.93775" lon="20.30159">
        <ele>97.322844</ele>
        <time>2020-09-29T12:05:39.800Z</time>
      </trkpt>
      <trkpt lat="63.93766" lon="20.30154">
        <ele>97.200116</ele>
        <time>2020-09-29T12:05:41.794Z</time>
      </trkpt>
      <trkpt lat="63.93756" lon="20.30146">
        <ele>97.06162</ele>
        <time>2020-09-29T12:05:43.782Z</time>
      </trkpt>
      <trkpt lat="63.93745" lon="20.30139">
        <ele>96.915526</ele>
        <time>2020-09-29T12:05:45.795Z</time>
      </trkpt>
      <trkpt lat="63.93734" lon="20.3013">
        <ele>96.375138</ele>
        <time>2020-09-29T12:05:47.819Z</time>
      </trkpt>
      <trkpt lat="63.93722" lon="20.30122">
        <ele>95.691835</ele>
        <time>2020-09-29T12:05:49.851Z</time>
      </trkpt>
      <trkpt lat="63.9371" lon="20.30116">
        <ele>95.024727</ele>
        <time>2020-09-29T12:05:51.790Z</time>
      </trkpt>
      <trkpt lat="63.93698" lon="20.30109">
        <ele>94.323598</ele>
        <time>2020-09-29T12:05:53.798Z</time>
      </trkpt>
      <trkpt lat="63.93684" lon="20.301">
        <ele>93.569343</ele>
        <time>2020-09-29T12:05:55.806Z</time>
      </trkpt>
      <trkpt lat="63.9367" lon="20.30094">
        <ele>92.792154</ele>
        <time>2020-09-29T12:05:57.837Z</time>
      </trkpt>
      <trkpt lat="63.93655" lon="20.30091">
        <ele>91.968167</ele>
        <time>2020-09-29T12:05:59.785Z</time>
      </trkpt>
      <trkpt lat="63.93639" lon="20.30089">
        <ele>91.091934</ele>
        <time>2020-09-29T12:06:01.795Z</time>
      </trkpt>
      <trkpt lat="63.93623" lon="20.30086">
        <ele>90.177676</ele>
        <time>2020-09-29T12:06:03.785Z</time>
      </trkpt>
      <trkpt lat="63.93613" lon="20.30085">
        <ele>89.667831</ele>
        <time>2020-09-29T12:06:04.787Z</time>
      </trkpt>
      <trkpt lat="63.93604" lon="20.30083">
        <ele>89.157986</ele>
        <time>2020-09-29T12:06:05.817Z</time>
      </trkpt>
      <trkpt lat="63.93595" lon="20.30081">
        <ele>88.653777</ele>
        <time>2020-09-29T12:06:06.827Z</time>
      </trkpt>
      <trkpt lat="63.93586" lon="20.3008">
        <ele>88.144119</ele>
        <time>2020-09-29T12:06:07.791Z</time>
      </trkpt>
      <trkpt lat="63.93576" lon="20.30078">
        <ele>87.623562</ele>
        <time>2020-09-29T12:06:08.819Z</time>
      </trkpt>
      <trkpt lat="63.93567" lon="20.30077">
        <ele>87.109082</ele>
        <time>2020-09-29T12:06:09.795Z</time>
      </trkpt>
      <trkpt lat="63.93557" lon="20.30076">
        <ele>86.639639</ele>
        <time>2020-09-29T12:06:10.781Z</time>
      </trkpt>
      <trkpt lat="63.93548" lon="20.30074">
        <ele>86.180693</ele>
        <time>2020-09-29T12:06:11.798Z</time>
      </trkpt>
      <trkpt lat="63.93539" lon="20.30073">
        <ele>85.731574</ele>
        <time>2020-09-29T12:06:12.794Z</time>
      </trkpt>
      <trkpt lat="63.93521" lon="20.30071">
        <ele>84.83358</ele>
        <time>2020-09-29T12:06:14.795Z</time>
      </trkpt>
      <trkpt lat="63.93504" lon="20.30068">
        <ele>83.959318</ele>
        <time>2020-09-29T12:06:16.820Z</time>
      </trkpt>
      <trkpt lat="63.93486" lon="20.30065">
        <ele>83.090023</ele>
        <time>2020-09-29T12:06:18.819Z</time>
      </trkpt>
      <trkpt lat="63.9347" lon="20.30062">
        <ele>82.271048</ele>
        <time>2020-09-29T12:06:20.784Z</time>
      </trkpt>
      <trkpt lat="63.93454" lon="20.3006">
        <ele>81.492549</ele>
        <time>2020-09-29T12:06:22.824Z</time>
      </trkpt>
      <trkpt lat="63.9344" lon="20.30059">
        <ele>80.764382</ele>
        <time>2020-09-29T12:06:24.793Z</time>
      </trkpt>
      <trkpt lat="63.93426" lon="20.30057">
        <ele>80.056118</ele>
        <time>2020-09-29T12:06:26.800Z</time>
      </trkpt>
      <trkpt lat="63.93412" lon="20.30055">
        <ele>79.372225</ele>
        <time>2020-09-29T12:06:28.804Z</time>
      </trkpt>
      <trkpt lat="63.93398" lon="20.30053">
        <ele>78.69285</ele>
        <time>2020-09-29T12:06:30.806Z</time>
      </trkpt>
      <trkpt lat="63.93385" lon="20.30051">
        <ele>78.069616</ele>
        <time>2020-09-29T12:06:32.789Z</time>
      </trkpt>
      <trkpt lat="63.93372" lon="20.3005">
        <ele>77.702911</ele>
        <time>2020-09-29T12:06:34.789Z</time>
      </trkpt>
      <trkpt lat="63.93359" lon="20.30049">
        <ele>77.322343</ele>
        <time>2020-09-29T12:06:36.807Z</time>
      </trkpt>
      <trkpt lat="63.93346" lon="20.30047">
        <ele>76.96128</ele>
        <time>2020-09-29T12:06:38.796Z</time>
      </trkpt>
      <trkpt lat="63.93333" lon="20.30046">
        <ele>76.613995</ele>
        <time>2020-09-29T12:06:40.820Z</time>
      </trkpt>
      <trkpt lat="63.93321" lon="20.30044">
        <ele>76.260639</ele>
        <time>2020-09-29T12:06:42.801Z</time>
      </trkpt>
      <trkpt lat="63.93308" lon="20.30043">
        <ele>75.905309</ele>
        <time>2020-09-29T12:06:44.804Z</time>
      </trkpt>
      <trkpt lat="63.93295" lon="20.30042">
        <ele>75.550088</ele>
        <time>2020-09-29T12:06:46.815Z</time>
      </trkpt>
      <trkpt lat="63.93282" lon="20.30041">
        <ele>75.183713</ele>
        <time>2020-09-29T12:06:48.813Z</time>
      </trkpt>
      <trkpt lat="63.93269" lon="20.30039">
        <ele>74.81911</ele>
        <time>2020-09-29T12:06:50.798Z</time>
      </trkpt>
      <trkpt lat="63.93257" lon="20.30037">
        <ele>74.460658</ele>
        <time>2020-09-29T12:06:52.783Z</time>
      </trkpt>
      <trkpt lat="63.93243" lon="20.30036">
        <ele>74.090822</ele>
        <time>2020-09-29T12:06:54.799Z</time>
      </trkpt>
      <trkpt lat="63.9323" lon="20.30034">
        <ele>73.724271</ele>
        <time>2020-09-29T12:06:56.797Z</time>
      </trkpt>
      <trkpt lat="63.93217" lon="20.30034">
        <ele>73.360633</ele>
        <time>2020-09-29T12:06:58.782Z</time>
      </trkpt>
      <trkpt lat="63.93204" lon="20.30034">
        <ele>73.066503</ele>
        <time>2020-09-29T12:07:00.780Z</time>
      </trkpt>
      <trkpt lat="63.93191" lon="20.30033">
        <ele>73.103791</ele>
        <time>2020-09-29T12:07:02.814Z</time>
      </trkpt>
      <trkpt lat="63.93179" lon="20.30033">
        <ele>73.139929</ele>
        <time>2020-09-29T12:07:04.831Z</time>
      </trkpt>
      <trkpt lat="63.93166" lon="20.30034">
        <ele>73.174664</ele>
        <time>2020-09-29T12:07:06.801Z</time>
      </trkpt>
      <trkpt lat="63.93154" lon="20.30035">
        <ele>73.211691</ele>
        <time>2020-09-29T12:07:08.798Z</time>
      </trkpt>
      <trkpt lat="63.93141" lon="20.30037">
        <ele>73.24701</ele>
        <time>2020-09-29T12:07:10.810Z</time>
      </trkpt>
      <trkpt lat="63.93129" lon="20.3004">
        <ele>73.281106</ele>
        <time>2020-09-29T12:07:12.781Z</time>
      </trkpt>
      <trkpt lat="63.93118" lon="20.30042">
        <ele>73.313584</ele>
        <time>2020-09-29T12:07:14.791Z</time>
      </trkpt>
      <trkpt lat="63.93106" lon="20.30044">
        <ele>73.347253</ele>
        <time>2020-09-29T12:07:16.808Z</time>
      </trkpt>
      <trkpt lat="63.93095" lon="20.30047">
        <ele>73.38102</ele>
        <time>2020-09-29T12:07:18.798Z</time>
      </trkpt>
      <trkpt lat="63.93083" lon="20.3005">
        <ele>73.415985</ele>
        <time>2020-09-29T12:07:20.799Z</time>
      </trkpt>
      <trkpt lat="63.93071" lon="20.30054">
        <ele>73.450715</ele>
        <time>2020-09-29T12:07:22.808Z</time>
      </trkpt>
      <trkpt lat="63.93059" lon="20.30057">
        <ele>73.484511</ele>
        <time>2020-09-29T12:07:24.781Z</time>
      </trkpt>
      <trkpt lat="63.93047" lon="20.3006">
        <ele>73.519432</ele>
        <time>2020-09-29T12:07:26.796Z</time>
      </trkpt>
      <trkpt lat="63.93035" lon="20.30065">
        <ele>73.554028</ele>
        <time>2020-09-29T12:07:28.813Z</time>
      </trkpt>
      <trkpt lat="63.93023" lon="20.30069">
        <ele>73.564543</ele>
        <time>2020-09-29T12:07:30.790Z</time>
      </trkpt>
      <trkpt lat="63.93011" lon="20.30071">
        <ele>73.535516</ele>
        <time>2020-09-29T12:07:32.820Z</time>
      </trkpt>
      <trkpt lat="63.93" lon="20.30073">
        <ele>73.506991</ele>
        <time>2020-09-29T12:07:34.795Z</time>
      </trkpt>
      <trkpt lat="63.92988" lon="20.30076">
        <ele>73.477417</ele>
        <time>2020-09-29T12:07:36.788Z</time>
      </trkpt>
      <trkpt lat="63.92976" lon="20.30079">
        <ele>73.44886</ele>
        <time>2020-09-29T12:07:38.793Z</time>
      </trkpt>
      <trkpt lat="63.92965" lon="20.30082">
        <ele>73.421274</ele>
        <time>2020-09-29T12:07:40.788Z</time>
      </trkpt>
      <trkpt lat="63.92955" lon="20.30084">
        <ele>73.394951</ele>
        <time>2020-09-29T12:07:42.813Z</time>
      </trkpt>
      <trkpt lat="63.92944" lon="20.30088">
        <ele>73.368539</ele>
        <time>2020-09-29T12:07:44.785Z</time>
      </trkpt>
      <trkpt lat="63.92934" lon="20.30093">
        <ele>73.342789</ele>
        <time>2020-09-29T12:07:46.821Z</time>
      </trkpt>
      <trkpt lat="63.92924" lon="20.30097">
        <ele>73.31666</ele>
        <time>2020-09-29T12:07:48.797Z</time>
      </trkpt>
      <trkpt lat="63.92913" lon="20.30102">
        <ele>73.289128</ele>
        <time>2020-09-29T12:07:50.787Z</time>
      </trkpt>
      <trkpt lat="63.92902" lon="20.30106">
        <ele>73.262082</ele>
        <time>2020-09-29T12:07:52.798Z</time>
      </trkpt>
      <trkpt lat="63.92891" lon="20.30109">
        <ele>73.236201</ele>
        <time>2020-09-29T12:07:54.792Z</time>
      </trkpt>
      <trkpt lat="63.92881" lon="20.30111">
        <ele>73.210454</ele>
        <time>2020-09-29T12:07:56.810Z</time>
      </trkpt>
      <trkpt lat="63.92871" lon="20.30112">
        <ele>73.184993</ele>
        <time>2020-09-29T12:07:58.790Z</time>
      </trkpt>
      <trkpt lat="63.9286" lon="20.30114">
        <ele>73.15748</ele>
        <time>2020-09-29T12:08:00.807Z</time>
      </trkpt>
      <trkpt lat="63.92849" lon="20.30114">
        <ele>73.131786</ele>
        <time>2020-09-29T12:08:02.817Z</time>
      </trkpt>
      <trkpt lat="63.92839" lon="20.30116">
        <ele>73.387235</ele>
        <time>2020-09-29T12:08:04.826Z</time>
      </trkpt>
      <trkpt lat="63.92829" lon="20.30119">
        <ele>73.646242</ele>
        <time>2020-09-29T12:08:06.783Z</time>
      </trkpt>
      <trkpt lat="63.9282" lon="20.30122">
        <ele>73.895322</ele>
        <time>2020-09-29T12:08:08.788Z</time>
      </trkpt>
      <trkpt lat="63.9281" lon="20.30125">
        <ele>74.142496</ele>
        <time>2020-09-29T12:08:10.793Z</time>
      </trkpt>
      <trkpt lat="63.92801" lon="20.30129">
        <ele>74.382595</ele>
        <time>2020-09-29T12:08:12.800Z</time>
      </trkpt>
      <trkpt lat="63.92788" lon="20.30133">
        <ele>74.714905</ele>
        <time>2020-09-29T12:08:15.799Z</time>
      </trkpt>
      <trkpt lat="63.92777" lon="20.30136">
        <ele>75.008378</ele>
        <time>2020-09-29T12:08:18.828Z</time>
      </trkpt>
      <trkpt lat="63.92767" lon="20.30138">
        <ele>75.248985</ele>
        <time>2020-09-29T12:08:21.790Z</time>
      </trkpt>
      <trkpt lat="63.92758" lon="20.30143">
        <ele>75.490552</ele>
        <time>2020-09-29T12:08:25.788Z</time>
      </trkpt>
      <trkpt lat="63.92749" lon="20.30149">
        <ele>75.742915</ele>
        <time>2020-09-29T12:08:29.808Z</time>
      </trkpt>
      <trkpt lat="63.92739" lon="20.30153">
        <ele>76.009522</ele>
        <time>2020-09-29T12:08:33.794Z</time>
      </trkpt>
      <trkpt lat="63.9273" lon="20.30156">
        <ele>76.24246</ele>
        <time>2020-09-29T12:08:36.791Z</time>
      </trkpt>
      <trkpt lat="63.9272" lon="20.3016">
        <ele>76.484977</ele>
        <time>2020-09-29T12:08:39.794Z</time>
      </trkpt>
      <trkpt lat="63.92711" lon="20.30164">
        <ele>76.726099</ele>
        <time>2020-09-29T12:08:42.810Z</time>
      </trkpt>
      <trkpt lat="63.92701" lon="20.30169">
        <ele>76.99698</ele>
        <time>2020-09-29T12:08:45.799Z</time>
      </trkpt>
      <trkpt lat="63.92692" lon="20.30174">
        <ele>77.244519</ele>
        <time>2020-09-29T12:08:48.799Z</time>
      </trkpt>
      <trkpt lat="63.92681" lon="20.30179">
        <ele>77.530511</ele>
        <time>2020-09-29T12:08:51.849Z</time>
      </trkpt>
      <trkpt lat="63.92668" lon="20.30187">
        <ele>77.778129</ele>
        <time>2020-09-29T12:08:54.811Z</time>
      </trkpt>
      <trkpt lat="63.92658" lon="20.30193">
        <ele>77.82601</ele>
        <time>2020-09-29T12:08:56.795Z</time>
      </trkpt>
      <trkpt lat="63.92648" lon="20.302">
        <ele>77.878419</ele>
        <time>2020-09-29T12:08:58.787Z</time>
      </trkpt>
      <trkpt lat="63.92636" lon="20.30207">
        <ele>77.935393</ele>
        <time>2020-09-29T12:09:00.788Z</time>
      </trkpt>
      <trkpt lat="63.92624" lon="20.30214">
        <ele>77.9963</ele>
        <time>2020-09-29T12:09:02.825Z</time>
      </trkpt>
      <trkpt lat="63.92611" lon="20.30222">
        <ele>78.060994</ele>
        <time>2020-09-29T12:09:04.788Z</time>
      </trkpt>
      <trkpt lat="63.92598" lon="20.30228">
        <ele>78.127795</ele>
        <time>2020-09-29T12:09:06.794Z</time>
      </trkpt>
      <trkpt lat="63.92584" lon="20.30235">
        <ele>78.195624</ele>
        <time>2020-09-29T12:09:08.797Z</time>
      </trkpt>
      <trkpt lat="63.9257" lon="20.30241">
        <ele>78.263156</ele>
        <time>2020-09-29T12:09:10.813Z</time>
      </trkpt>
      <trkpt lat="63.92556" lon="20.30247">
        <ele>78.332025</ele>
        <time>2020-09-29T12:09:12.808Z</time>
      </trkpt>
      <trkpt lat="63.92542" lon="20.30255">
        <ele>78.398683</ele>
        <time>2020-09-29T12:09:14.813Z</time>
      </trkpt>
      <trkpt lat="63.92529" lon="20.30261">
        <ele>78.463561</ele>
        <time>2020-09-29T12:09:16.850Z</time>
      </trkpt>
      <trkpt lat="63.92517" lon="20.30266">
        <ele>78.523984</ele>
        <time>2020-09-29T12:09:18.786Z</time>
      </trkpt>
      <trkpt lat="63.92504" lon="20.3027">
        <ele>78.585098</ele>
        <time>2020-09-29T12:09:20.790Z</time>
      </trkpt>
      <trkpt lat="63.92492" lon="20.30275">
        <ele>78.570653</ele>
        <time>2020-09-29T12:09:22.783Z</time>
      </trkpt>
      <trkpt lat="63.92479" lon="20.3028">
        <ele>78.448109</ele>
        <time>2020-09-29T12:09:24.804Z</time>
      </trkpt>
      <trkpt lat="63.92467" lon="20.30283">
        <ele>78.325159</ele>
        <time>2020-09-29T12:09:26.792Z</time>
      </trkpt>
      <trkpt lat="63.92455" lon="20.30289">
        <ele>78.205227</ele>
        <time>2020-09-29T12:09:28.815Z</time>
      </trkpt>
      <trkpt lat="63.92445" lon="20.30293">
        <ele>78.107439</ele>
        <time>2020-09-29T12:09:30.790Z</time>
      </trkpt>
      <trkpt lat="63.92435" lon="20.30296">
        <ele>78.014058</ele>
        <time>2020-09-29T12:09:32.808Z</time>
      </trkpt>
      <trkpt lat="63.92426" lon="20.30299">
        <ele>77.920566</ele>
        <time>2020-09-29T12:09:34.812Z</time>
      </trkpt>
      <trkpt lat="63.92414" lon="20.30302">
        <ele>77.80552</ele>
        <time>2020-09-29T12:09:36.797Z</time>
      </trkpt>
      <trkpt lat="63.92401" lon="20.30306">
        <ele>77.675332</ele>
        <time>2020-09-29T12:09:38.805Z</time>
      </trkpt>
      <trkpt lat="63.92387" lon="20.30311">
        <ele>77.534696</ele>
        <time>2020-09-29T12:09:40.800Z</time>
      </trkpt>
      <trkpt lat="63.92373" lon="20.30316">
        <ele>77.397433</ele>
        <time>2020-09-29T12:09:42.821Z</time>
      </trkpt>
      <trkpt lat="63.92359" lon="20.30319">
        <ele>77.264074</ele>
        <time>2020-09-29T12:09:44.787Z</time>
      </trkpt>
      <trkpt lat="63.92346" lon="20.30322">
        <ele>77.137409</ele>
        <time>2020-09-29T12:09:46.827Z</time>
      </trkpt>
      <trkpt lat="63.92334" lon="20.30326">
        <ele>77.01736</ele>
        <time>2020-09-29T12:09:48.834Z</time>
      </trkpt>
      <trkpt lat="63.92322" lon="20.30329">
        <ele>76.904248</ele>
        <time>2020-09-29T12:09:50.798Z</time>
      </trkpt>
      <trkpt lat="63.92311" lon="20.30332">
        <ele>76.619244</ele>
        <time>2020-09-29T12:09:52.806Z</time>
      </trkpt>
      <trkpt lat="63.92299" lon="20.30336">
        <ele>76.250416</ele>
        <time>2020-09-29T12:09:54.783Z</time>
      </trkpt>
      <trkpt lat="63.92288" lon="20.30341">
        <ele>75.890676</ele>
        <time>2020-09-29T12:09:56.783Z</time>
      </trkpt>
      <trkpt lat="63.92276" lon="20.30349">
        <ele>75.49526</ele>
        <time>2020-09-29T12:09:58.798Z</time>
      </trkpt>
      <trkpt lat="63.92265" lon="20.30356">
        <ele>75.128447</ele>
        <time>2020-09-29T12:10:00.802Z</time>
      </trkpt>
      <trkpt lat="63.92254" lon="20.30363">
        <ele>74.776491</ele>
        <time>2020-09-29T12:10:02.809Z</time>
      </trkpt>
      <trkpt lat="63.92243" lon="20.30371">
        <ele>74.408777</ele>
        <time>2020-09-29T12:10:04.802Z</time>
      </trkpt>
      <trkpt lat="63.9223" lon="20.30379">
        <ele>74.005682</ele>
        <time>2020-09-29T12:10:06.814Z</time>
      </trkpt>
      <trkpt lat="63.92217" lon="20.30387">
        <ele>73.570915</ele>
        <time>2020-09-29T12:10:08.797Z</time>
      </trkpt>
      <trkpt lat="63.92204" lon="20.30396">
        <ele>73.15229</ele>
        <time>2020-09-29T12:10:10.787Z</time>
      </trkpt>
      <trkpt lat="63.92192" lon="20.30405">
        <ele>72.745666</ele>
        <time>2020-09-29T12:10:12.815Z</time>
      </trkpt>
      <trkpt lat="63.9218" lon="20.30415">
        <ele>72.3458</ele>
        <time>2020-09-29T12:10:14.788Z</time>
      </trkpt>
      <trkpt lat="63.92167" lon="20.30424">
        <ele>71.91181</ele>
        <time>2020-09-29T12:10:16.788Z</time>
      </trkpt>
      <trkpt lat="63.92154" lon="20.30434">
        <ele>71.483355</ele>
        <time>2020-09-29T12:10:18.835Z</time>
      </trkpt>
      <trkpt lat="63.92142" lon="20.30444">
        <ele>71.015775</ele>
        <time>2020-09-29T12:10:20.787Z</time>
      </trkpt>
      <trkpt lat="63.92129" lon="20.30453">
        <ele>70.45046</ele>
        <time>2020-09-29T12:10:22.799Z</time>
      </trkpt>
      <trkpt lat="63.92117" lon="20.30463">
        <ele>69.894329</ele>
        <time>2020-09-29T12:10:24.787Z</time>
      </trkpt>
      <trkpt lat="63.92105" lon="20.30472">
        <ele>69.362989</ele>
        <time>2020-09-29T12:10:26.775Z</time>
      </trkpt>
      <trkpt lat="63.92093" lon="20.30482">
        <ele>68.81212</ele>
        <time>2020-09-29T12:10:28.866Z</time>
      </trkpt>
      <trkpt lat="63.9208" lon="20.30491">
        <ele>68.243302</ele>
        <time>2020-09-29T12:10:30.819Z</time>
      </trkpt>
      <trkpt lat="63.92067" lon="20.305">
        <ele>67.668122</ele>
        <time>2020-09-29T12:10:32.795Z</time>
      </trkpt>
      <trkpt lat="63.92055" lon="20.3051">
        <ele>67.117513</ele>
        <time>2020-09-29T12:10:34.811Z</time>
      </trkpt>
      <trkpt lat="63.92043" lon="20.3052">
        <ele>66.57557</ele>
        <time>2020-09-29T12:10:36.854Z</time>
      </trkpt>
      <trkpt lat="63.92031" lon="20.30531">
        <ele>66.020977</ele>
        <time>2020-09-29T12:10:38.788Z</time>
      </trkpt>
      <trkpt lat="63.92019" lon="20.30541">
        <ele>65.473531</ele>
        <time>2020-09-29T12:10:40.801Z</time>
      </trkpt>
      <trkpt lat="63.92007" lon="20.3055">
        <ele>64.922137</ele>
        <time>2020-09-29T12:10:42.790Z</time>
      </trkpt>
      <trkpt lat="63.91995" lon="20.30559">
        <ele>64.379342</ele>
        <time>2020-09-29T12:10:44.796Z</time>
      </trkpt>
      <trkpt lat="63.91983" lon="20.30568">
        <ele>63.829675</ele>
        <time>2020-09-29T12:10:46.794Z</time>
      </trkpt>
      <trkpt lat="63.9197" lon="20.30578">
        <ele>63.474007</ele>
        <time>2020-09-29T12:10:48.785Z</time>
      </trkpt>
      <trkpt lat="63.91958" lon="20.30587">
        <ele>63.370761</ele>
        <time>2020-09-29T12:10:50.784Z</time>
      </trkpt>
      <trkpt lat="63.91946" lon="20.30596">
        <ele>63.271107</ele>
        <time>2020-09-29T12:10:52.848Z</time>
      </trkpt>
      <trkpt lat="63.91934" lon="20.30605">
        <ele>63.172126</ele>
        <time>2020-09-29T12:10:54.781Z</time>
      </trkpt>
      <trkpt lat="63.91923" lon="20.30613">
        <ele>63.073007</ele>
        <time>2020-09-29T12:10:56.794Z</time>
      </trkpt>
      <trkpt lat="63.91911" lon="20.30622">
        <ele>62.973878</ele>
        <time>2020-09-29T12:10:58.824Z</time>
      </trkpt>
      <trkpt lat="63.91899" lon="20.30631">
        <ele>62.874677</ele>
        <time>2020-09-29T12:11:00.801Z</time>
      </trkpt>
      <trkpt lat="63.91888" lon="20.30639">
        <ele>62.778102</ele>
        <time>2020-09-29T12:11:02.786Z</time>
      </trkpt>
      <trkpt lat="63.91877" lon="20.30648">
        <ele>62.686105</ele>
        <time>2020-09-29T12:11:04.795Z</time>
      </trkpt>
      <trkpt lat="63.91866" lon="20.30656">
        <ele>62.594222</ele>
        <time>2020-09-29T12:11:06.800Z</time>
      </trkpt>
      <trkpt lat="63.91855" lon="20.30665">
        <ele>62.500587</ele>
        <time>2020-09-29T12:11:08.809Z</time>
      </trkpt>
      <trkpt lat="63.91844" lon="20.30673">
        <ele>62.404997</ele>
        <time>2020-09-29T12:11:10.797Z</time>
      </trkpt>
      <trkpt lat="63.91832" lon="20.30681">
        <ele>62.308593</ele>
        <time>2020-09-29T12:11:12.788Z</time>
      </trkpt>
      <trkpt lat="63.91821" lon="20.30688">
        <ele>62.214607</ele>
        <time>2020-09-29T12:11:14.801Z</time>
      </trkpt>
      <trkpt lat="63.9181" lon="20.30696">
        <ele>62.116656</ele>
        <time>2020-09-29T12:11:16.824Z</time>
      </trkpt>
      <trkpt lat="63.91799" lon="20.30703">
        <ele>62.002187</ele>
        <time>2020-09-29T12:11:18.797Z</time>
      </trkpt>
      <trkpt lat="63.91787" lon="20.30711">
        <ele>61.866921</ele>
        <time>2020-09-29T12:11:20.824Z</time>
      </trkpt>
      <trkpt lat="63.91776" lon="20.30718">
        <ele>61.731928</ele>
        <time>2020-09-29T12:11:22.786Z</time>
      </trkpt>
      <trkpt lat="63.91764" lon="20.30725">
        <ele>61.594115</ele>
        <time>2020-09-29T12:11:24.811Z</time>
      </trkpt>
      <trkpt lat="63.91753" lon="20.30731">
        <ele>61.458253</ele>
        <time>2020-09-29T12:11:26.779Z</time>
      </trkpt>
      <trkpt lat="63.91742" lon="20.30737">
        <ele>61.326013</ele>
        <time>2020-09-29T12:11:28.788Z</time>
      </trkpt>
      <trkpt lat="63.91731" lon="20.30744">
        <ele>61.194028</ele>
        <time>2020-09-29T12:11:30.849Z</time>
      </trkpt>
      <trkpt lat="63.9172" lon="20.3075">
        <ele>61.063409</ele>
        <time>2020-09-29T12:11:32.789Z</time>
      </trkpt>
      <trkpt lat="63.91709" lon="20.30756">
        <ele>60.936264</ele>
        <time>2020-09-29T12:11:34.798Z</time>
      </trkpt>
      <trkpt lat="63.91699" lon="20.30762">
        <ele>60.813956</ele>
        <time>2020-09-29T12:11:36.824Z</time>
      </trkpt>
      <trkpt lat="63.91688" lon="20.30768">
        <ele>60.69301</ele>
        <time>2020-09-29T12:11:38.809Z</time>
      </trkpt>
      <trkpt lat="63.91678" lon="20.30773">
        <ele>60.570608</ele>
        <time>2020-09-29T12:11:40.790Z</time>
      </trkpt>
      <trkpt lat="63.91667" lon="20.30779">
        <ele>60.445184</ele>
        <time>2020-09-29T12:11:42.778Z</time>
      </trkpt>
      <trkpt lat="63.91657" lon="20.30784">
        <ele>60.318523</ele>
        <time>2020-09-29T12:11:44.799Z</time>
      </trkpt>
      <trkpt lat="63.91646" lon="20.3079">
        <ele>60.192424</ele>
        <time>2020-09-29T12:11:46.813Z</time>
      </trkpt>
      <trkpt lat="63.91635" lon="20.30795">
        <ele>60.067559</ele>
        <time>2020-09-29T12:11:48.790Z</time>
      </trkpt>
      <trkpt lat="63.91625" lon="20.30801">
        <ele>59.970545</ele>
        <time>2020-09-29T12:11:50.800Z</time>
      </trkpt>
      <trkpt lat="63.91614" lon="20.30807">
        <ele>59.903793</ele>
        <time>2020-09-29T12:11:52.807Z</time>
      </trkpt>
      <trkpt lat="63.91604" lon="20.30812">
        <ele>59.837827</ele>
        <time>2020-09-29T12:11:54.811Z</time>
      </trkpt>
      <trkpt lat="63.91594" lon="20.30817">
        <ele>59.771981</ele>
        <time>2020-09-29T12:11:56.800Z</time>
      </trkpt>
      <trkpt lat="63.91583" lon="20.30822">
        <ele>59.706135</ele>
        <time>2020-09-29T12:11:58.799Z</time>
      </trkpt>
      <trkpt lat="63.91573" lon="20.30828">
        <ele>59.639854</ele>
        <time>2020-09-29T12:12:00.802Z</time>
      </trkpt>
      <trkpt lat="63.91562" lon="20.30834">
        <ele>59.572562</ele>
        <time>2020-09-29T12:12:02.790Z</time>
      </trkpt>
      <trkpt lat="63.91552" lon="20.3084">
        <ele>59.505681</ele>
        <time>2020-09-29T12:12:04.815Z</time>
      </trkpt>
      <trkpt lat="63.91541" lon="20.30845">
        <ele>59.439113</ele>
        <time>2020-09-29T12:12:06.817Z</time>
      </trkpt>
      <trkpt lat="63.91531" lon="20.30851">
        <ele>59.372423</ele>
        <time>2020-09-29T12:12:08.777Z</time>
      </trkpt>
      <trkpt lat="63.9152" lon="20.30857">
        <ele>59.304876</ele>
        <time>2020-09-29T12:12:10.830Z</time>
      </trkpt>
      <trkpt lat="63.9151" lon="20.30863">
        <ele>59.237726</ele>
        <time>2020-09-29T12:12:12.799Z</time>
      </trkpt>
      <trkpt lat="63.91499" lon="20.30868">
        <ele>59.172363</ele>
        <time>2020-09-29T12:12:14.810Z</time>
      </trkpt>
      <trkpt lat="63.91489" lon="20.30873">
        <ele>59.108559</ele>
        <time>2020-09-29T12:12:16.787Z</time>
      </trkpt>
      <trkpt lat="63.91479" lon="20.30878">
        <ele>59.044755</ele>
        <time>2020-09-29T12:12:18.780Z</time>
      </trkpt>
      <trkpt lat="63.91469" lon="20.30883">
        <ele>58.979739</ele>
        <time>2020-09-29T12:12:20.793Z</time>
      </trkpt>
      <trkpt lat="63.91458" lon="20.30889">
        <ele>58.912322</ele>
        <time>2020-09-29T12:12:22.800Z</time>
      </trkpt>
      <trkpt lat="63.91448" lon="20.30895">
        <ele>58.835512</ele>
        <time>2020-09-29T12:12:24.816Z</time>
      </trkpt>
      <trkpt lat="63.91437" lon="20.309">
        <ele>58.753903</ele>
        <time>2020-09-29T12:12:26.798Z</time>
      </trkpt>
      <trkpt lat="63.91427" lon="20.30905">
        <ele>58.672293</ele>
        <time>2020-09-29T12:12:28.795Z</time>
      </trkpt>
      <trkpt lat="63.91416" lon="20.30911">
        <ele>58.589943</ele>
        <time>2020-09-29T12:12:30.809Z</time>
      </trkpt>
      <trkpt lat="63.91406" lon="20.30916">
        <ele>58.507733</ele>
        <time>2020-09-29T12:12:32.791Z</time>
      </trkpt>
      <trkpt lat="63.91395" lon="20.30921">
        <ele>58.424497</ele>
        <time>2020-09-29T12:12:34.793Z</time>
      </trkpt>
      <trkpt lat="63.91384" lon="20.30927">
        <ele>58.340373</ele>
        <time>2020-09-29T12:12:36.824Z</time>
      </trkpt>
      <trkpt lat="63.91373" lon="20.30932">
        <ele>58.254986</ele>
        <time>2020-09-29T12:12:38.792Z</time>
      </trkpt>
      <trkpt lat="63.91362" lon="20.30938">
        <ele>58.16997</ele>
        <time>2020-09-29T12:12:40.825Z</time>
      </trkpt>
      <trkpt lat="63.91351" lon="20.30944">
        <ele>58.083476</ele>
        <time>2020-09-29T12:12:42.799Z</time>
      </trkpt>
      <trkpt lat="63.9134" lon="20.3095">
        <ele>57.997798</ele>
        <time>2020-09-29T12:12:44.793Z</time>
      </trkpt>
      <trkpt lat="63.91329" lon="20.30955">
        <ele>57.913152</ele>
        <time>2020-09-29T12:12:46.775Z</time>
      </trkpt>
      <trkpt lat="63.91318" lon="20.30961">
        <ele>57.826068</ele>
        <time>2020-09-29T12:12:48.835Z</time>
      </trkpt>
      <trkpt lat="63.91307" lon="20.30967">
        <ele>57.739128</ele>
        <time>2020-09-29T12:12:50.801Z</time>
      </trkpt>
      <trkpt lat="63.91296" lon="20.30972">
        <ele>57.65197</ele>
        <time>2020-09-29T12:12:52.826Z</time>
      </trkpt>
      <trkpt lat="63.91284" lon="20.30978">
        <ele>57.563923</ele>
        <time>2020-09-29T12:12:54.789Z</time>
      </trkpt>
      <trkpt lat="63.91273" lon="20.30984">
        <ele>57.400336</ele>
        <time>2020-09-29T12:12:56.805Z</time>
      </trkpt>
      <trkpt lat="63.91262" lon="20.30989">
        <ele>57.173326</ele>
        <time>2020-09-29T12:12:58.798Z</time>
      </trkpt>
      <trkpt lat="63.91251" lon="20.30995">
        <ele>56.945322</ele>
        <time>2020-09-29T12:13:00.779Z</time>
      </trkpt>
      <trkpt lat="63.9124" lon="20.31001">
        <ele>56.719068</ele>
        <time>2020-09-29T12:13:02.799Z</time>
      </trkpt>
      <trkpt lat="63.91229" lon="20.31007">
        <ele>56.492432</ele>
        <time>2020-09-29T12:13:04.827Z</time>
      </trkpt>
      <trkpt lat="63.91219" lon="20.31012">
        <ele>56.271323</ele>
        <time>2020-09-29T12:13:06.792Z</time>
      </trkpt>
      <trkpt lat="63.91209" lon="20.31018">
        <ele>56.059403</ele>
        <time>2020-09-29T12:13:08.831Z</time>
      </trkpt>
      <trkpt lat="63.91199" lon="20.31024">
        <ele>55.851822</ele>
        <time>2020-09-29T12:13:10.789Z</time>
      </trkpt>
      <trkpt lat="63.91188" lon="20.31029">
        <ele>55.641857</ele>
        <time>2020-09-29T12:13:12.789Z</time>
      </trkpt>
      <trkpt lat="63.91178" lon="20.31035">
        <ele>55.424478</ele>
        <time>2020-09-29T12:13:14.800Z</time>
      </trkpt>
      <trkpt lat="63.91168" lon="20.3104">
        <ele>55.209262</ele>
        <time>2020-09-29T12:13:16.806Z</time>
      </trkpt>
      <trkpt lat="63.91157" lon="20.31045">
        <ele>54.995008</ele>
        <time>2020-09-29T12:13:18.810Z</time>
      </trkpt>
      <trkpt lat="63.91147" lon="20.31051">
        <ele>54.781343</ele>
        <time>2020-09-29T12:13:20.799Z</time>
      </trkpt>
      <trkpt lat="63.91137" lon="20.31057">
        <ele>54.570052</ele>
        <time>2020-09-29T12:13:22.800Z</time>
      </trkpt>
      <trkpt lat="63.91127" lon="20.31061">
        <ele>54.364052</ele>
        <time>2020-09-29T12:13:24.810Z</time>
      </trkpt>
      <trkpt lat="63.91117" lon="20.31067">
        <ele>54.162337</ele>
        <time>2020-09-29T12:13:26.796Z</time>
      </trkpt>
      <trkpt lat="63.91107" lon="20.31072">
        <ele>53.965177</ele>
        <time>2020-09-29T12:13:28.800Z</time>
      </trkpt>
      <trkpt lat="63.91097" lon="20.31077">
        <ele>53.830197</ele>
        <time>2020-09-29T12:13:30.792Z</time>
      </trkpt>
      <trkpt lat="63.91087" lon="20.31082">
        <ele>53.728322</ele>
        <time>2020-09-29T12:13:32.814Z</time>
      </trkpt>
      <trkpt lat="63.91077" lon="20.31087">
        <ele>53.625971</ele>
        <time>2020-09-29T12:13:34.795Z</time>
      </trkpt>
      <trkpt lat="63.91067" lon="20.31093">
        <ele>53.521678</ele>
        <time>2020-09-29T12:13:36.781Z</time>
      </trkpt>
      <trkpt lat="63.91057" lon="20.31097">
        <ele>53.419711</ele>
        <time>2020-09-29T12:13:38.831Z</time>
      </trkpt>
      <trkpt lat="63.91047" lon="20.31102">
        <ele>53.319597</ele>
        <time>2020-09-29T12:13:40.810Z</time>
      </trkpt>
      <trkpt lat="63.91038" lon="20.31108">
        <ele>53.219084</ele>
        <time>2020-09-29T12:13:42.800Z</time>
      </trkpt>
      <trkpt lat="63.91028" lon="20.31113">
        <ele>53.122856</ele>
        <time>2020-09-29T12:13:44.806Z</time>
      </trkpt>
      <trkpt lat="63.91019" lon="20.31118">
        <ele>53.02718</ele>
        <time>2020-09-29T12:13:46.785Z</time>
      </trkpt>
      <trkpt lat="63.9101" lon="20.31123">
        <ele>52.932993</ele>
        <time>2020-09-29T12:13:48.795Z</time>
      </trkpt>
      <trkpt lat="63.91001" lon="20.31128">
        <ele>52.841918</ele>
        <time>2020-09-29T12:13:50.789Z</time>
      </trkpt>
      <trkpt lat="63.90988" lon="20.31134">
        <ele>52.709516</ele>
        <time>2020-09-29T12:13:53.779Z</time>
      </trkpt>
      <trkpt lat="63.90976" lon="20.31141">
        <ele>52.586348</ele>
        <time>2020-09-29T12:13:56.794Z</time>
      </trkpt>
      <trkpt lat="63.90963" lon="20.31147">
        <ele>52.457561</ele>
        <time>2020-09-29T12:13:59.804Z</time>
      </trkpt>
      <trkpt lat="63.9095" lon="20.31154">
        <ele>52.325261</ele>
        <time>2020-09-29T12:14:02.798Z</time>
      </trkpt>
      <trkpt lat="63.90941" lon="20.31159">
        <ele>52.231075</ele>
        <time>2020-09-29T12:14:04.787Z</time>
      </trkpt>
      <trkpt lat="63.90931" lon="20.31165">
        <ele>52.131425</ele>
        <time>2020-09-29T12:14:06.797Z</time>
      </trkpt>
      <trkpt lat="63.90921" lon="20.3117">
        <ele>52.198444</ele>
        <time>2020-09-29T12:14:08.779Z</time>
      </trkpt>
      <trkpt lat="63.90911" lon="20.31176">
        <ele>52.316764</ele>
        <time>2020-09-29T12:14:10.799Z</time>
      </trkpt>
      <trkpt lat="63.909" lon="20.31181">
        <ele>52.443194</ele>
        <time>2020-09-29T12:14:12.796Z</time>
      </trkpt>
      <trkpt lat="63.9089" lon="20.31186">
        <ele>52.55773</ele>
        <time>2020-09-29T12:14:14.781Z</time>
      </trkpt>
      <trkpt lat="63.9088" lon="20.31191">
        <ele>52.666549</ele>
        <time>2020-09-29T12:14:16.793Z</time>
      </trkpt>
      <trkpt lat="63.90871" lon="20.31196">
        <ele>52.771057</ele>
        <time>2020-09-29T12:14:18.831Z</time>
      </trkpt>
      <trkpt lat="63.90861" lon="20.31201">
        <ele>52.878587</ele>
        <time>2020-09-29T12:14:20.818Z</time>
      </trkpt>
      <trkpt lat="63.90852" lon="20.31205">
        <ele>52.98365</ele>
        <time>2020-09-29T12:14:22.791Z</time>
      </trkpt>
      <trkpt lat="63.90843" lon="20.31209">
        <ele>53.087434</ele>
        <time>2020-09-29T12:14:24.798Z</time>
      </trkpt>
      <trkpt lat="63.90833" lon="20.31214">
        <ele>53.192209</ele>
        <time>2020-09-29T12:14:26.798Z</time>
      </trkpt>
      <trkpt lat="63.90824" lon="20.31218">
        <ele>53.295107</ele>
        <time>2020-09-29T12:14:28.793Z</time>
      </trkpt>
      <trkpt lat="63.90815" lon="20.31222">
        <ele>53.399701</ele>
        <time>2020-09-29T12:14:30.802Z</time>
      </trkpt>
      <trkpt lat="63.90806" lon="20.31227">
        <ele>53.499792</ele>
        <time>2020-09-29T12:14:32.798Z</time>
      </trkpt>
      <trkpt lat="63.90793" lon="20.31233">
        <ele>53.647591</ele>
        <time>2020-09-29T12:14:35.818Z</time>
      </trkpt>
      <trkpt lat="63.90781" lon="20.31238">
        <ele>53.782701</ele>
        <time>2020-09-29T12:14:38.779Z</time>
      </trkpt>
      <trkpt lat="63.9077" lon="20.31244">
        <ele>53.911905</ele>
        <time>2020-09-29T12:14:41.810Z</time>
      </trkpt>
      <trkpt lat="63.90759" lon="20.31248">
        <ele>54.037223</ele>
        <time>2020-09-29T12:14:44.811Z</time>
      </trkpt>
      <trkpt lat="63.90747" lon="20.31252">
        <ele>54.197784</ele>
        <time>2020-09-29T12:14:47.815Z</time>
      </trkpt>
      <trkpt lat="63.90736" lon="20.31257">
        <ele>54.378683</ele>
        <time>2020-09-29T12:14:50.801Z</time>
      </trkpt>
      <trkpt lat="63.90725" lon="20.31261">
        <ele>54.556407</ele>
        <time>2020-09-29T12:14:53.805Z</time>
      </trkpt>
      <trkpt lat="63.90714" lon="20.31265">
        <ele>54.741199</ele>
        <time>2020-09-29T12:14:56.793Z</time>
      </trkpt>
      <trkpt lat="63.90702" lon="20.31271">
        <ele>54.933534</ele>
        <time>2020-09-29T12:14:59.777Z</time>
      </trkpt>
      <trkpt lat="63.9069" lon="20.31276">
        <ele>55.126492</ele>
        <time>2020-09-29T12:15:02.790Z</time>
      </trkpt>
      <trkpt lat="63.90678" lon="20.31281">
        <ele>55.319324</ele>
        <time>2020-09-29T12:15:05.790Z</time>
      </trkpt>
      <trkpt lat="63.90667" lon="20.31285">
        <ele>55.513044</ele>
        <time>2020-09-29T12:15:08.775Z</time>
      </trkpt>
      <trkpt lat="63.90654" lon="20.3129">
        <ele>55.710508</ele>
        <time>2020-09-29T12:15:11.834Z</time>
      </trkpt>
      <trkpt lat="63.90642" lon="20.31295">
        <ele>55.913091</ele>
        <time>2020-09-29T12:15:14.851Z</time>
      </trkpt>
      <trkpt lat="63.9063" lon="20.31299">
        <ele>56.115551</ele>
        <time>2020-09-29T12:15:17.798Z</time>
      </trkpt>
      <trkpt lat="63.90618" lon="20.31304">
        <ele>56.30851</ele>
        <time>2020-09-29T12:15:20.809Z</time>
      </trkpt>
      <trkpt lat="63.90606" lon="20.3131">
        <ele>56.496904</ele>
        <time>2020-09-29T12:15:23.791Z</time>
      </trkpt>
      <trkpt lat="63.90595" lon="20.31317">
        <ele>56.683897</ele>
        <time>2020-09-29T12:15:26.798Z</time>
      </trkpt>
      <trkpt lat="63.90584" lon="20.31322">
        <ele>56.874091</ele>
        <time>2020-09-29T12:15:29.780Z</time>
      </trkpt>
      <trkpt lat="63.90572" lon="20.31326">
        <ele>57.097805</ele>
        <time>2020-09-29T12:15:32.804Z</time>
      </trkpt>
      <trkpt lat="63.9056" lon="20.3133">
        <ele>57.36484</ele>
        <time>2020-09-29T12:15:35.812Z</time>
      </trkpt>
      <trkpt lat="63.90548" lon="20.31335">
        <ele>57.624565</ele>
        <time>2020-09-29T12:15:38.811Z</time>
      </trkpt>
      <trkpt lat="63.90537" lon="20.31341">
        <ele>57.894844</ele>
        <time>2020-09-29T12:15:41.779Z</time>
      </trkpt>
      <trkpt lat="63.90524" lon="20.31347">
        <ele>58.175657</ele>
        <time>2020-09-29T12:15:44.782Z</time>
      </trkpt>
      <trkpt lat="63.90512" lon="20.31352">
        <ele>58.454672</ele>
        <time>2020-09-29T12:15:47.831Z</time>
      </trkpt>
      <trkpt lat="63.905" lon="20.31356">
        <ele>58.720633</ele>
        <time>2020-09-29T12:15:50.790Z</time>
      </trkpt>
      <trkpt lat="63.90488" lon="20.31361">
        <ele>58.990828</ele>
        <time>2020-09-29T12:15:53.785Z</time>
      </trkpt>
      <trkpt lat="63.90477" lon="20.31366">
        <ele>59.252211</ele>
        <time>2020-09-29T12:15:56.809Z</time>
      </trkpt>
      <trkpt lat="63.90466" lon="20.31371">
        <ele>59.509554</ele>
        <time>2020-09-29T12:15:59.810Z</time>
      </trkpt>
      <trkpt lat="63.90454" lon="20.31374">
        <ele>59.762197</ele>
        <time>2020-09-29T12:16:02.788Z</time>
      </trkpt>
      <trkpt lat="63.90444" lon="20.31377">
        <ele>60.008455</ele>
        <time>2020-09-29T12:16:05.779Z</time>
      </trkpt>
      <trkpt lat="63.90434" lon="20.31381">
        <ele>60.235262</ele>
        <time>2020-09-29T12:16:08.806Z</time>
      </trkpt>
      <trkpt lat="63.90424" lon="20.31385">
        <ele>60.455288</ele>
        <time>2020-09-29T12:16:11.808Z</time>
      </trkpt>
      <trkpt lat="63.90414" lon="20.31388">
        <ele>60.674023</ele>
        <time>2020-09-29T12:16:14.811Z</time>
      </trkpt>
      <trkpt lat="63.90404" lon="20.3139">
        <ele>60.903742</ele>
        <time>2020-09-29T12:16:17.787Z</time>
      </trkpt>
      <trkpt lat="63.90395" lon="20.31395">
        <ele>61.195084</ele>
        <time>2020-09-29T12:16:20.790Z</time>
      </trkpt>
      <trkpt lat="63.90385" lon="20.31398">
        <ele>61.586831</ele>
        <time>2020-09-29T12:16:23.781Z</time>
      </trkpt>
      <trkpt lat="63.90373" lon="20.31401">
        <ele>62.021652</ele>
        <time>2020-09-29T12:16:26.829Z</time>
      </trkpt>
      <trkpt lat="63.90364" lon="20.31404">
        <ele>62.411466</ele>
        <time>2020-09-29T12:16:29.794Z</time>
      </trkpt>
      <trkpt lat="63.90354" lon="20.31407">
        <ele>62.786972</ele>
        <time>2020-09-29T12:16:32.831Z</time>
      </trkpt>
      <trkpt lat="63.90345" lon="20.3141">
        <ele>63.152186</ele>
        <time>2020-09-29T12:16:35.779Z</time>
      </trkpt>
      <trkpt lat="63.90335" lon="20.31414">
        <ele>63.519879</ele>
        <time>2020-09-29T12:16:38.783Z</time>
      </trkpt>
      <trkpt lat="63.90325" lon="20.31418">
        <ele>63.910247</ele>
        <time>2020-09-29T12:16:41.825Z</time>
      </trkpt>
      <trkpt lat="63.90316" lon="20.3142">
        <ele>64.297928</ele>
        <time>2020-09-29T12:16:44.802Z</time>
      </trkpt>
      <trkpt lat="63.90305" lon="20.31423">
        <ele>64.713039</ele>
        <time>2020-09-29T12:16:47.825Z</time>
      </trkpt>
      <trkpt lat="63.90294" lon="20.31427">
        <ele>65.150276</ele>
        <time>2020-09-29T12:16:50.807Z</time>
      </trkpt>
      <trkpt lat="63.90283" lon="20.3143">
        <ele>65.561526</ele>
        <time>2020-09-29T12:16:53.819Z</time>
      </trkpt>
      <trkpt lat="63.90273" lon="20.31432">
        <ele>65.960057</ele>
        <time>2020-09-29T12:16:56.809Z</time>
      </trkpt>
      <trkpt lat="63.90263" lon="20.31436">
        <ele>66.35101</ele>
        <time>2020-09-29T12:16:59.797Z</time>
      </trkpt>
      <trkpt lat="63.90253" lon="20.31441">
        <ele>66.746092</ele>
        <time>2020-09-29T12:17:02.801Z</time>
      </trkpt>
      <trkpt lat="63.90243" lon="20.31444">
        <ele>67.143586</ele>
        <time>2020-09-29T12:17:05.797Z</time>
      </trkpt>
      <trkpt lat="63.90233" lon="20.31448">
        <ele>67.549861</ele>
        <time>2020-09-29T12:17:08.842Z</time>
      </trkpt>
      <trkpt lat="63.90223" lon="20.31452">
        <ele>67.935836</ele>
        <time>2020-09-29T12:17:11.834Z</time>
      </trkpt>
      <trkpt lat="63.90213" lon="20.31456">
        <ele>68.171907</ele>
        <time>2020-09-29T12:17:14.801Z</time>
      </trkpt>
      <trkpt lat="63.90203" lon="20.31459">
        <ele>68.381727</ele>
        <time>2020-09-29T12:17:17.789Z</time>
      </trkpt>
      <trkpt lat="63.90193" lon="20.31461">
        <ele>68.576491</ele>
        <time>2020-09-29T12:17:20.818Z</time>
      </trkpt>
      <trkpt lat="63.90184" lon="20.31464">
        <ele>68.774694</ele>
        <time>2020-09-29T12:17:23.818Z</time>
      </trkpt>
      <trkpt lat="63.90173" lon="20.31466">
        <ele>68.98137</ele>
        <time>2020-09-29T12:17:26.795Z</time>
      </trkpt>
      <trkpt lat="63.90164" lon="20.31469">
        <ele>69.169063</ele>
        <time>2020-09-29T12:17:29.791Z</time>
      </trkpt>
      <trkpt lat="63.90155" lon="20.31472">
        <ele>69.360086</ele>
        <time>2020-09-29T12:17:32.814Z</time>
      </trkpt>
      <trkpt lat="63.90144" lon="20.31475">
        <ele>69.58027</ele>
        <time>2020-09-29T12:17:35.819Z</time>
      </trkpt>
      <trkpt lat="63.90133" lon="20.31479">
        <ele>69.799401</ele>
        <time>2020-09-29T12:17:38.818Z</time>
      </trkpt>
      <trkpt lat="63.90122" lon="20.31483">
        <ele>70.027709</ele>
        <time>2020-09-29T12:17:41.821Z</time>
      </trkpt>
      <trkpt lat="63.90111" lon="20.31485">
        <ele>70.250708</ele>
        <time>2020-09-29T12:17:44.789Z</time>
      </trkpt>
      <trkpt lat="63.90101" lon="20.31487">
        <ele>70.463422</ele>
        <time>2020-09-29T12:17:47.835Z</time>
      </trkpt>
      <trkpt lat="63.9009" lon="20.31489">
        <ele>70.686076</ele>
        <time>2020-09-29T12:17:50.838Z</time>
      </trkpt>
      <trkpt lat="63.90079" lon="20.31492">
        <ele>70.897899</ele>
        <time>2020-09-29T12:17:53.828Z</time>
      </trkpt>
      <trkpt lat="63.90069" lon="20.31493">
        <ele>71.112433</ele>
        <time>2020-09-29T12:17:56.795Z</time>
      </trkpt>
      <trkpt lat="63.90058" lon="20.31494">
        <ele>71.328664</ele>
        <time>2020-09-29T12:17:59.835Z</time>
      </trkpt>
      <trkpt lat="63.90047" lon="20.31494">
        <ele>71.544749</ele>
        <time>2020-09-29T12:18:02.811Z</time>
      </trkpt>
      <trkpt lat="63.90037" lon="20.31492">
        <ele>71.734561</ele>
        <time>2020-09-29T12:18:05.796Z</time>
      </trkpt>
      <trkpt lat="63.90028" lon="20.31491">
        <ele>71.908129</ele>
        <time>2020-09-29T12:18:08.810Z</time>
      </trkpt>
      <trkpt lat="63.90018" lon="20.3149">
        <ele>72.087492</ele>
        <time>2020-09-29T12:18:11.821Z</time>
      </trkpt>
      <trkpt lat="63.90008" lon="20.31489">
        <ele>72.277622</ele>
        <time>2020-09-29T12:18:14.791Z</time>
      </trkpt>
      <trkpt lat="63.89998" lon="20.31489">
        <ele>72.465823</ele>
        <time>2020-09-29T12:18:17.826Z</time>
      </trkpt>
      <trkpt lat="63.89987" lon="20.31488">
        <ele>72.657771</ele>
        <time>2020-09-29T12:18:20.801Z</time>
      </trkpt>
      <trkpt lat="63.89977" lon="20.31486">
        <ele>72.844552</ele>
        <time>2020-09-29T12:18:23.803Z</time>
      </trkpt>
      <trkpt lat="63.89968" lon="20.31485">
        <ele>73.025608</ele>
        <time>2020-09-29T12:18:26.807Z</time>
      </trkpt>
      <trkpt lat="63.89958" lon="20.31485">
        <ele>73.20278</ele>
        <time>2020-09-29T12:18:29.830Z</time>
      </trkpt>
      <trkpt lat="63.89948" lon="20.31483">
        <ele>73.385939</ele>
        <time>2020-09-29T12:18:32.801Z</time>
      </trkpt>
      <trkpt lat="63.89939" lon="20.31481">
        <ele>73.552363</ele>
        <time>2020-09-29T12:18:35.831Z</time>
      </trkpt>
      <trkpt lat="63.8993" lon="20.31481">
        <ele>73.722183</ele>
        <time>2020-09-29T12:18:38.798Z</time>
      </trkpt>
      <trkpt lat="63.8992" lon="20.3148">
        <ele>73.899305</ele>
        <time>2020-09-29T12:18:41.809Z</time>
      </trkpt>
      <trkpt lat="63.8991" lon="20.3148">
        <ele>74.080106</ele>
        <time>2020-09-29T12:18:44.777Z</time>
      </trkpt>
      <trkpt lat="63.899" lon="20.3148">
        <ele>74.271985</ele>
        <time>2020-09-29T12:18:47.787Z</time>
      </trkpt>
      <trkpt lat="63.8989" lon="20.31478">
        <ele>74.44976</ele>
        <time>2020-09-29T12:18:50.790Z</time>
      </trkpt>
      <trkpt lat="63.89881" lon="20.31476">
        <ele>74.622257</ele>
        <time>2020-09-29T12:18:53.792Z</time>
      </trkpt>
      <trkpt lat="63.89871" lon="20.31473">
        <ele>74.811702</ele>
        <time>2020-09-29T12:18:56.783Z</time>
      </trkpt>
      <trkpt lat="63.89861" lon="20.3147">
        <ele>75.027427</ele>
        <time>2020-09-29T12:18:59.788Z</time>
      </trkpt>
      <trkpt lat="63.89851" lon="20.3147">
        <ele>75.331879</ele>
        <time>2020-09-29T12:19:02.790Z</time>
      </trkpt>
      <trkpt lat="63.89841" lon="20.31468">
        <ele>75.62487</ele>
        <time>2020-09-29T12:19:05.818Z</time>
      </trkpt>
      <trkpt lat="63.89831" lon="20.31467">
        <ele>75.914598</ele>
        <time>2020-09-29T12:19:08.786Z</time>
      </trkpt>
      <trkpt lat="63.89822" lon="20.31466">
        <ele>76.198499</ele>
        <time>2020-09-29T12:19:11.799Z</time>
      </trkpt>
      <trkpt lat="63.89812" lon="20.31464">
        <ele>76.479864</ele>
        <time>2020-09-29T12:19:14.792Z</time>
      </trkpt>
      <trkpt lat="63.89802" lon="20.31463">
        <ele>76.775755</ele>
        <time>2020-09-29T12:19:17.817Z</time>
      </trkpt>
      <trkpt lat="63.89793" lon="20.31462">
        <ele>77.06271</ele>
        <time>2020-09-29T12:19:20.799Z</time>
      </trkpt>
      <trkpt lat="63.89781" lon="20.3146">
        <ele>77.397733</ele>
        <time>2020-09-29T12:19:24.780Z</time>
      </trkpt>
      <trkpt lat="63.89772" lon="20.31458">
        <ele>77.670792</ele>
        <time>2020-09-29T12:19:27.778Z</time>
      </trkpt>
      <trkpt lat="63.89763" lon="20.31456">
        <ele>77.943852</ele>
        <time>2020-09-29T12:19:30.788Z</time>
      </trkpt>
      <trkpt lat="63.89754" lon="20.31454">
        <ele>78.213024</ele>
        <time>2020-09-29T12:19:33.787Z</time>
      </trkpt>
      <trkpt lat="63.89742" lon="20.31452">
        <ele>78.565997</ele>
        <time>2020-09-29T12:19:37.815Z</time>
      </trkpt>
      <trkpt lat="63.89731" lon="20.3145">
        <ele>78.91609</ele>
        <time>2020-09-29T12:19:41.795Z</time>
      </trkpt>
      <trkpt lat="63.89722" lon="20.31448">
        <ele>79.192557</ele>
        <time>2020-09-29T12:19:44.812Z</time>
      </trkpt>
      <trkpt lat="63.8971" lon="20.31445">
        <ele>79.534169</ele>
        <time>2020-09-29T12:19:48.859Z</time>
      </trkpt>
      <trkpt lat="63.89701" lon="20.31443">
        <ele>79.822203</ele>
        <time>2020-09-29T12:19:51.791Z</time>
      </trkpt>
      <trkpt lat="63.89689" lon="20.31441">
        <ele>80.172397</ele>
        <time>2020-09-29T12:19:55.794Z</time>
      </trkpt>
      <trkpt lat="63.89677" lon="20.31437">
        <ele>80.452466</ele>
        <time>2020-09-29T12:19:59.793Z</time>
      </trkpt>
      <trkpt lat="63.89668" lon="20.31433">
        <ele>80.62686</ele>
        <time>2020-09-29T12:20:02.781Z</time>
      </trkpt>
      <trkpt lat="63.89659" lon="20.3143">
        <ele>80.8018</ele>
        <time>2020-09-29T12:20:05.817Z</time>
      </trkpt>
      <trkpt lat="63.8965" lon="20.31425">
        <ele>80.977661</ele>
        <time>2020-09-29T12:20:08.791Z</time>
      </trkpt>
      <trkpt lat="63.89641" lon="20.31421">
        <ele>81.155658</ele>
        <time>2020-09-29T12:20:11.840Z</time>
      </trkpt>
      <trkpt lat="63.8963" lon="20.31416">
        <ele>81.38633</ele>
        <time>2020-09-29T12:20:15.797Z</time>
      </trkpt>
      <trkpt lat="63.89621" lon="20.31413">
        <ele>81.558446</ele>
        <time>2020-09-29T12:20:18.806Z</time>
      </trkpt>
      <trkpt lat="63.89612" lon="20.3141">
        <ele>81.731904</ele>
        <time>2020-09-29T12:20:21.793Z</time>
      </trkpt>
      <trkpt lat="63.89602" lon="20.31408">
        <ele>81.911468</ele>
        <time>2020-09-29T12:20:24.788Z</time>
      </trkpt>
      <trkpt lat="63.89593" lon="20.31404">
        <ele>82.090204</ele>
        <time>2020-09-29T12:20:27.783Z</time>
      </trkpt>
      <trkpt lat="63.89584" lon="20.31399">
        <ele>82.269801</ele>
        <time>2020-09-29T12:20:30.811Z</time>
      </trkpt>
      <trkpt lat="63.89574" lon="20.31395">
        <ele>82.469504</ele>
        <time>2020-09-29T12:20:33.797Z</time>
      </trkpt>
      <trkpt lat="63.89564" lon="20.31391">
        <ele>82.670318</ele>
        <time>2020-09-29T12:20:36.777Z</time>
      </trkpt>
      <trkpt lat="63.89553" lon="20.31387">
        <ele>82.868176</ele>
        <time>2020-09-29T12:20:39.791Z</time>
      </trkpt>
      <trkpt lat="63.89543" lon="20.31384">
        <ele>83.07768</ele>
        <time>2020-09-29T12:20:42.811Z</time>
      </trkpt>
      <trkpt lat="63.89532" lon="20.3138">
        <ele>83.289718</ele>
        <time>2020-09-29T12:20:45.791Z</time>
      </trkpt>
      <trkpt lat="63.8952" lon="20.31375">
        <ele>83.522595</ele>
        <time>2020-09-29T12:20:48.796Z</time>
      </trkpt>
      <trkpt lat="63.89508" lon="20.3137">
        <ele>83.750623</ele>
        <time>2020-09-29T12:20:51.810Z</time>
      </trkpt>
      <trkpt lat="63.89496" lon="20.31365">
        <ele>83.50663</ele>
        <time>2020-09-29T12:20:54.800Z</time>
      </trkpt>
      <trkpt lat="63.89487" lon="20.31361">
        <ele>83.289484</ele>
        <time>2020-09-29T12:20:56.807Z</time>
      </trkpt>
      <trkpt lat="63.89474" lon="20.31353">
        <ele>82.975165</ele>
        <time>2020-09-29T12:20:59.796Z</time>
      </trkpt>
      <trkpt lat="63.89462" lon="20.31345">
        <ele>82.659208</ele>
        <time>2020-09-29T12:21:02.797Z</time>
      </trkpt>
      <trkpt lat="63.89452" lon="20.3134">
        <ele>82.422998</ele>
        <time>2020-09-29T12:21:04.789Z</time>
      </trkpt>
      <trkpt lat="63.89442" lon="20.31333">
        <ele>82.175999</ele>
        <time>2020-09-29T12:21:06.789Z</time>
      </trkpt>
      <trkpt lat="63.89433" lon="20.31325">
        <ele>81.929911</ele>
        <time>2020-09-29T12:21:08.833Z</time>
      </trkpt>
      <trkpt lat="63.89423" lon="20.31317">
        <ele>81.6869</ele>
        <time>2020-09-29T12:21:10.786Z</time>
      </trkpt>
      <trkpt lat="63.89414" lon="20.31309">
        <ele>81.434089</ele>
        <time>2020-09-29T12:21:12.830Z</time>
      </trkpt>
      <trkpt lat="63.89404" lon="20.31301">
        <ele>81.178862</ele>
        <time>2020-09-29T12:21:14.797Z</time>
      </trkpt>
      <trkpt lat="63.89394" lon="20.31294">
        <ele>80.928549</ele>
        <time>2020-09-29T12:21:16.825Z</time>
      </trkpt>
      <trkpt lat="63.89384" lon="20.31287">
        <ele>80.679253</ele>
        <time>2020-09-29T12:21:18.796Z</time>
      </trkpt>
      <trkpt lat="63.89373" lon="20.31279">
        <ele>80.403332</ele>
        <time>2020-09-29T12:21:20.789Z</time>
      </trkpt>
      <trkpt lat="63.89362" lon="20.31272">
        <ele>80.139119</ele>
        <time>2020-09-29T12:21:22.793Z</time>
      </trkpt>
      <trkpt lat="63.89352" lon="20.31266">
        <ele>79.872711</ele>
        <time>2020-09-29T12:21:24.789Z</time>
      </trkpt>
      <trkpt lat="63.89341" lon="20.3126">
        <ele>79.607314</ele>
        <time>2020-09-29T12:21:26.788Z</time>
      </trkpt>
      <trkpt lat="63.89329" lon="20.31252">
        <ele>79.194182</ele>
        <time>2020-09-29T12:21:28.798Z</time>
      </trkpt>
      <trkpt lat="63.89316" lon="20.31244">
        <ele>78.586882</ele>
        <time>2020-09-29T12:21:30.826Z</time>
      </trkpt>
      <trkpt lat="63.89302" lon="20.31237">
        <ele>77.968029</ele>
        <time>2020-09-29T12:21:32.811Z</time>
      </trkpt>
      <trkpt lat="63.89289" lon="20.31227">
        <ele>77.356432</ele>
        <time>2020-09-29T12:21:34.793Z</time>
      </trkpt>
      <trkpt lat="63.89276" lon="20.3122">
        <ele>76.754417</ele>
        <time>2020-09-29T12:21:36.798Z</time>
      </trkpt>
      <trkpt lat="63.89263" lon="20.31219">
        <ele>76.148207</ele>
        <time>2020-09-29T12:21:38.815Z</time>
      </trkpt>
      <trkpt lat="63.89249" lon="20.31231">
        <ele>75.519519</ele>
        <time>2020-09-29T12:21:40.815Z</time>
      </trkpt>
      <trkpt lat="63.89241" lon="20.31256">
        <ele>74.902695</ele>
        <time>2020-09-29T12:21:42.843Z</time>
      </trkpt>
      <trkpt lat="63.89237" lon="20.31281">
        <ele>74.387722</ele>
        <time>2020-09-29T12:21:44.815Z</time>
      </trkpt>
      <trkpt lat="63.89234" lon="20.31308">
        <ele>73.846948</ele>
        <time>2020-09-29T12:21:47.807Z</time>
      </trkpt>
      <trkpt lat="63.89231" lon="20.3133">
        <ele>73.38969</ele>
        <time>2020-09-29T12:21:50.790Z</time>
      </trkpt>
      <trkpt lat="63.89224" lon="20.31349">
        <ele>72.906335</ele>
        <time>2020-09-29T12:21:53.809Z</time>
      </trkpt>
      <trkpt lat="63.89215" lon="20.31357">
        <ele>72.44846</ele>
        <time>2020-09-29T12:21:56.786Z</time>
      </trkpt>
      <trkpt lat="63.89202" lon="20.31352">
        <ele>71.898568</ele>
        <time>2020-09-29T12:21:59.791Z</time>
      </trkpt>
      <trkpt lat="63.8919" lon="20.31343">
        <ele>71.436122</ele>
        <time>2020-09-29T12:22:02.815Z</time>
      </trkpt>
      <trkpt lat="63.89178" lon="20.3134">
        <ele>71.562876</ele>
        <time>2020-09-29T12:22:05.822Z</time>
      </trkpt>
      <trkpt lat="63.89166" lon="20.31343">
        <ele>71.690564</ele>
        <time>2020-09-29T12:22:08.793Z</time>
      </trkpt>
      <trkpt lat="63.89155" lon="20.31357">
        <ele>71.823043</ele>
        <time>2020-09-29T12:22:11.781Z</time>
      </trkpt>
      <trkpt lat="63.8915" lon="20.31377">
        <ele>71.922914</ele>
        <time>2020-09-29T12:22:13.803Z</time>
      </trkpt>
      <trkpt lat="63.89149" lon="20.31399">
        <ele>72.023111</ele>
        <time>2020-09-29T12:22:15.789Z</time>
      </trkpt>
      <trkpt lat="63.89151" lon="20.31425">
        <ele>72.144434</ele>
        <time>2020-09-29T12:22:18.798Z</time>
      </trkpt>
      <trkpt lat="63.89151" lon="20.31448">
        <ele>72.248985</ele>
        <time>2020-09-29T12:22:21.790Z</time>
      </trkpt>
      <trkpt lat="63.89151" lon="20.31469">
        <ele>72.343738</ele>
        <time>2020-09-29T12:22:24.803Z</time>
      </trkpt>
      <trkpt lat="63.89144" lon="20.31485">
        <ele>72.445505</ele>
        <time>2020-09-29T12:22:28.803Z</time>
      </trkpt>
      <trkpt lat="63.89134" lon="20.31481">
        <ele>72.555124</ele>
        <time>2020-09-29T12:22:32.793Z</time>
      </trkpt>
      <trkpt lat="63.89123" lon="20.31487">
        <ele>72.669967</ele>
        <time>2020-09-29T12:22:36.785Z</time>
      </trkpt>
      <trkpt lat="63.89114" lon="20.31494">
        <ele>72.766393</ele>
        <time>2020-09-29T12:22:39.790Z</time>
      </trkpt>
      <trkpt lat="63.89103" lon="20.31503">
        <ele>72.883599</ele>
        <time>2020-09-29T12:22:43.788Z</time>
      </trkpt>
      <trkpt lat="63.89094" lon="20.31509">
        <ele>72.978372</ele>
        <time>2020-09-29T12:22:46.798Z</time>
      </trkpt>
      <trkpt lat="63.89085" lon="20.31513">
        <ele>73.077241</ele>
        <time>2020-09-29T12:22:49.776Z</time>
      </trkpt>
      <trkpt lat="63.89074" lon="20.31516">
        <ele>73.187369</ele>
        <time>2020-09-29T12:22:52.788Z</time>
      </trkpt>
      <trkpt lat="63.89063" lon="20.31515">
        <ele>73.217225</ele>
        <time>2020-09-29T12:22:55.787Z</time>
      </trkpt>
      <trkpt lat="63.89053" lon="20.31513">
        <ele>73.024759</ele>
        <time>2020-09-29T12:22:58.780Z</time>
      </trkpt>
      <trkpt lat="63.89043" lon="20.31514">
        <ele>72.834611</ele>
        <time>2020-09-29T12:23:01.782Z</time>
      </trkpt>
      <trkpt lat="63.89031" lon="20.31515">
        <ele>72.603509</ele>
        <time>2020-09-29T12:23:04.790Z</time>
      </trkpt>
      <trkpt lat="63.89022" lon="20.31517">
        <ele>72.416849</ele>
        <time>2020-09-29T12:23:06.781Z</time>
      </trkpt>
      <trkpt lat="63.89012" lon="20.31517">
        <ele>72.22284</ele>
        <time>2020-09-29T12:23:08.795Z</time>
      </trkpt>
      <trkpt lat="63.89003" lon="20.31521">
        <ele>72.046686</ele>
        <time>2020-09-29T12:23:10.778Z</time>
      </trkpt>
      <trkpt lat="63.88989" lon="20.31526">
        <ele>71.779443</ele>
        <time>2020-09-29T12:23:13.772Z</time>
      </trkpt>
      <trkpt lat="63.8898" lon="20.31528">
        <ele>71.598067</ele>
        <time>2020-09-29T12:23:15.786Z</time>
      </trkpt>
      <trkpt lat="63.88971" lon="20.31532">
        <ele>71.411515</ele>
        <time>2020-09-29T12:23:17.771Z</time>
      </trkpt>
      <trkpt lat="63.88957" lon="20.31537">
        <ele>71.151929</ele>
        <time>2020-09-29T12:23:20.773Z</time>
      </trkpt>
      <trkpt lat="63.88945" lon="20.31541">
        <ele>70.911897</ele>
        <time>2020-09-29T12:23:23.796Z</time>
      </trkpt>
      <trkpt lat="63.88934" lon="20.31547">
        <ele>70.682543</ele>
        <time>2020-09-29T12:23:26.775Z</time>
      </trkpt>
      <trkpt lat="63.88923" lon="20.3155">
        <ele>70.476926</ele>
        <time>2020-09-29T12:23:29.780Z</time>
      </trkpt>
      <trkpt lat="63.88912" lon="20.31552">
        <ele>70.268595</ele>
        <time>2020-09-29T12:23:32.778Z</time>
      </trkpt>
      <trkpt lat="63.88899" lon="20.31555">
        <ele>70.005474</ele>
        <time>2020-09-29T12:23:35.793Z</time>
      </trkpt>
      <trkpt lat="63.88889" lon="20.31559">
        <ele>69.812178</ele>
        <time>2020-09-29T12:23:37.793Z</time>
      </trkpt>
      <trkpt lat="63.88878" lon="20.31565">
        <ele>69.622771</ele>
        <time>2020-09-29T12:23:39.797Z</time>
      </trkpt>
      <trkpt lat="63.88867" lon="20.31569">
        <ele>69.447111</ele>
        <time>2020-09-29T12:23:41.790Z</time>
      </trkpt>
      <trkpt lat="63.88858" lon="20.31571">
        <ele>69.298514</ele>
        <time>2020-09-29T12:23:43.811Z</time>
      </trkpt>
      <trkpt lat="63.88846" lon="20.31578">
        <ele>69.09466</ele>
        <time>2020-09-29T12:23:46.795Z</time>
      </trkpt>
      <trkpt lat="63.88833" lon="20.31585">
        <ele>68.890711</ele>
        <time>2020-09-29T12:23:49.781Z</time>
      </trkpt>
      <trkpt lat="63.88823" lon="20.31587">
        <ele>68.731962</ele>
        <time>2020-09-29T12:23:51.798Z</time>
      </trkpt>
      <trkpt lat="63.88814" lon="20.31591">
        <ele>68.576891</ele>
        <time>2020-09-29T12:23:53.794Z</time>
      </trkpt>
      <trkpt lat="63.88804" lon="20.31597">
        <ele>68.420793</ele>
        <time>2020-09-29T12:23:55.789Z</time>
      </trkpt>
      <trkpt lat="63.88796" lon="20.31606">
        <ele>68.274818</ele>
        <time>2020-09-29T12:23:57.786Z</time>
      </trkpt>
      <trkpt lat="63.88787" lon="20.31628">
        <ele>68.06412</ele>
        <time>2020-09-29T12:24:00.779Z</time>
      </trkpt>
      <trkpt lat="63.88778" lon="20.31644">
        <ele>67.874603</ele>
        <time>2020-09-29T12:24:03.795Z</time>
      </trkpt>
      <trkpt lat="63.88764" lon="20.31644">
        <ele>67.654509</ele>
        <time>2020-09-29T12:24:06.787Z</time>
      </trkpt>
      <trkpt lat="63.88754" lon="20.31642">
        <ele>67.485555</ele>
        <time>2020-09-29T12:24:08.780Z</time>
      </trkpt>
      <trkpt lat="63.8874" lon="20.31643">
        <ele>67.27028</ele>
        <time>2020-09-29T12:24:11.774Z</time>
      </trkpt>
      <trkpt lat="63.88731" lon="20.31641">
        <ele>67.112504</ele>
        <time>2020-09-29T12:24:13.792Z</time>
      </trkpt>
      <trkpt lat="63.8872" lon="20.31636">
        <ele>66.932167</ele>
        <time>2020-09-29T12:24:15.792Z</time>
      </trkpt>
      <trkpt lat="63.88706" lon="20.31634">
        <ele>66.87508</ele>
        <time>2020-09-29T12:24:18.775Z</time>
      </trkpt>
      <trkpt lat="63.88695" lon="20.31631">
        <ele>66.852759</ele>
        <time>2020-09-29T12:24:20.780Z</time>
      </trkpt>
      <trkpt lat="63.88684" lon="20.31626">
        <ele>66.830744</ele>
        <time>2020-09-29T12:24:22.797Z</time>
      </trkpt>
      <trkpt lat="63.88675" lon="20.31621">
        <ele>66.81225</ele>
        <time>2020-09-29T12:24:24.778Z</time>
      </trkpt>
      <trkpt lat="63.88668" lon="20.316">
        <ele>66.790455</ele>
        <time>2020-09-29T12:24:27.788Z</time>
      </trkpt>
      <trkpt lat="63.88666" lon="20.31578">
        <ele>66.771405</ele>
        <time>2020-09-29T12:24:29.782Z</time>
      </trkpt>
      <trkpt lat="63.88664" lon="20.31553">
        <ele>66.749587</ele>
        <time>2020-09-29T12:24:31.798Z</time>
      </trkpt>
      <trkpt lat="63.88662" lon="20.31529">
        <ele>66.728867</ele>
        <time>2020-09-29T12:24:33.798Z</time>
      </trkpt>
      <trkpt lat="63.88657" lon="20.3151">
        <ele>66.710143</ele>
        <time>2020-09-29T12:24:35.782Z</time>
      </trkpt>
      <trkpt lat="63.88645" lon="20.31507">
        <ele>66.686893</ele>
        <time>2020-09-29T12:24:38.780Z</time>
      </trkpt>
      <trkpt lat="63.88635" lon="20.31508">
        <ele>66.666712</ele>
        <time>2020-09-29T12:24:41.795Z</time>
      </trkpt>
      <trkpt lat="63.88623" lon="20.31505">
        <ele>66.643519</ele>
        <time>2020-09-29T12:24:44.787Z</time>
      </trkpt>
      <trkpt lat="63.88612" lon="20.31502">
        <ele>66.62186</ele>
        <time>2020-09-29T12:24:47.790Z</time>
      </trkpt>
      <trkpt lat="63.886" lon="20.31501">
        <ele>66.599321</ele>
        <time>2020-09-29T12:24:50.821Z</time>
      </trkpt>
      <trkpt lat="63.88587" lon="20.31501">
        <ele>66.573912</ele>
        <time>2020-09-29T12:24:53.792Z</time>
      </trkpt>
      <trkpt lat="63.88577" lon="20.31501">
        <ele>66.553741</ele>
        <time>2020-09-29T12:24:55.788Z</time>
      </trkpt>
      <trkpt lat="63.88566" lon="20.315">
        <ele>66.332705</ele>
        <time>2020-09-29T12:24:57.782Z</time>
      </trkpt>
      <trkpt lat="63.88556" lon="20.31497">
        <ele>66.020654</ele>
        <time>2020-09-29T12:24:59.782Z</time>
      </trkpt>
      <trkpt lat="63.88544" lon="20.31496">
        <ele>65.689576</ele>
        <time>2020-09-29T12:25:01.780Z</time>
      </trkpt>
      <trkpt lat="63.88533" lon="20.31496">
        <ele>65.361904</ele>
        <time>2020-09-29T12:25:03.774Z</time>
      </trkpt>
      <trkpt lat="63.88523" lon="20.31495">
        <ele>65.060474</ele>
        <time>2020-09-29T12:25:05.819Z</time>
      </trkpt>
      <trkpt lat="63.88513" lon="20.31494">
        <ele>64.755944</ele>
        <time>2020-09-29T12:25:07.794Z</time>
      </trkpt>
      <trkpt lat="63.88503" lon="20.31494">
        <ele>64.489642</ele>
        <time>2020-09-29T12:25:09.779Z</time>
      </trkpt>
      <trkpt lat="63.8849" lon="20.31495">
        <ele>64.105971</ele>
        <time>2020-09-29T12:25:12.786Z</time>
      </trkpt>
      <trkpt lat="63.88478" lon="20.31502">
        <ele>63.738774</ele>
        <time>2020-09-29T12:25:14.794Z</time>
      </trkpt>
      <trkpt lat="63.88465" lon="20.31508">
        <ele>63.334185</ele>
        <time>2020-09-29T12:25:16.820Z</time>
      </trkpt>
      <trkpt lat="63.88452" lon="20.3151">
        <ele>62.975819</ele>
        <time>2020-09-29T12:25:18.782Z</time>
      </trkpt>
      <trkpt lat="63.88441" lon="20.31513">
        <ele>62.655181</ele>
        <time>2020-09-29T12:25:20.808Z</time>
      </trkpt>
      <trkpt lat="63.88431" lon="20.31505">
        <ele>62.336732</ele>
        <time>2020-09-29T12:25:23.783Z</time>
      </trkpt>
      <trkpt lat="63.88429" lon="20.31482">
        <ele>62.030395</ele>
        <time>2020-09-29T12:25:26.775Z</time>
      </trkpt>
      <trkpt lat="63.88429" lon="20.31454">
        <ele>61.662631</ele>
        <time>2020-09-29T12:25:29.779Z</time>
      </trkpt>
      <trkpt lat="63.88428" lon="20.31431">
        <ele>61.370849</ele>
        <time>2020-09-29T12:25:32.816Z</time>
      </trkpt>
      <trkpt lat="63.88421" lon="20.31415">
        <ele>61.231725</ele>
        <time>2020-09-29T12:25:35.856Z</time>
      </trkpt>
      <trkpt lat="63.8841" lon="20.31404">
        <ele>61.136977</ele>
        <time>2020-09-29T12:25:38.776Z</time>
      </trkpt>
      <trkpt lat="63.88397" lon="20.31394">
        <ele>61.032668</ele>
        <time>2020-09-29T12:25:41.803Z</time>
      </trkpt>
      <trkpt lat="63.88389" lon="20.31387">
        <ele>60.961154</ele>
        <time>2020-09-29T12:25:43.784Z</time>
      </trkpt>
      <trkpt lat="63.88379" lon="20.31378">
        <ele>60.883068</ele>
        <time>2020-09-29T12:25:45.806Z</time>
      </trkpt>
      <trkpt lat="63.88369" lon="20.31369">
        <ele>60.799618</ele>
        <time>2020-09-29T12:25:47.791Z</time>
      </trkpt>
      <trkpt lat="63.8836" lon="20.31358">
        <ele>60.713771</ele>
        <time>2020-09-29T12:25:49.850Z</time>
      </trkpt>
      <trkpt lat="63.8835" lon="20.31345">
        <ele>60.627204</ele>
        <time>2020-09-29T12:25:51.781Z</time>
      </trkpt>
      <trkpt lat="63.88341" lon="20.3133">
        <ele>60.540881</ele>
        <time>2020-09-29T12:25:53.787Z</time>
      </trkpt>
      <trkpt lat="63.88332" lon="20.31321">
        <ele>60.463841</ele>
        <time>2020-09-29T12:25:55.786Z</time>
      </trkpt>
      <trkpt lat="63.8832" lon="20.31325">
        <ele>60.372498</ele>
        <time>2020-09-29T12:25:58.793Z</time>
      </trkpt>
      <trkpt lat="63.88307" lon="20.31323">
        <ele>60.269529</ele>
        <time>2020-09-29T12:26:01.781Z</time>
      </trkpt>
      <trkpt lat="63.88297" lon="20.31322">
        <ele>60.189173</ele>
        <time>2020-09-29T12:26:03.789Z</time>
      </trkpt>
      <trkpt lat="63.88287" lon="20.31326">
        <ele>60.113325</ele>
        <time>2020-09-29T12:26:05.796Z</time>
      </trkpt>
      <trkpt lat="63.88279" lon="20.31331">
        <ele>60.043161</ele>
        <time>2020-09-29T12:26:07.786Z</time>
      </trkpt>
      <trkpt lat="63.8827" lon="20.31337">
        <ele>59.969539</ele>
        <time>2020-09-29T12:26:09.814Z</time>
      </trkpt>
      <trkpt lat="63.88259" lon="20.3134">
        <ele>59.889132</ele>
        <time>2020-09-29T12:26:11.791Z</time>
      </trkpt>
      <trkpt lat="63.88249" lon="20.31344">
        <ele>59.559187</ele>
        <time>2020-09-29T12:26:13.792Z</time>
      </trkpt>
      <trkpt lat="63.88238" lon="20.31349">
        <ele>59.197699</ele>
        <time>2020-09-29T12:26:15.806Z</time>
      </trkpt>
      <trkpt lat="63.88228" lon="20.31354">
        <ele>58.847269</ele>
        <time>2020-09-29T12:26:17.803Z</time>
      </trkpt>
      <trkpt lat="63.88217" lon="20.31358">
        <ele>58.488675</ele>
        <time>2020-09-29T12:26:19.801Z</time>
      </trkpt>
      <trkpt lat="63.88206" lon="20.31361">
        <ele>58.123836</ele>
        <time>2020-09-29T12:26:21.807Z</time>
      </trkpt>
      <trkpt lat="63.88194" lon="20.31364">
        <ele>57.742125</ele>
        <time>2020-09-29T12:26:23.780Z</time>
      </trkpt>
      <trkpt lat="63.88182" lon="20.31365">
        <ele>57.338612</ele>
        <time>2020-09-29T12:26:25.777Z</time>
      </trkpt>
      <trkpt lat="63.8817" lon="20.31368">
        <ele>56.95989</ele>
        <time>2020-09-29T12:26:27.775Z</time>
      </trkpt>
      <trkpt lat="63.88159" lon="20.31371">
        <ele>56.577612</ele>
        <time>2020-09-29T12:26:29.777Z</time>
      </trkpt>
      <trkpt lat="63.88147" lon="20.31374">
        <ele>56.201531</ele>
        <time>2020-09-29T12:26:31.791Z</time>
      </trkpt>
      <trkpt lat="63.88137" lon="20.31377">
        <ele>55.85473</ele>
        <time>2020-09-29T12:26:33.797Z</time>
      </trkpt>
      <trkpt lat="63.88127" lon="20.31376">
        <ele>55.516886</ele>
        <time>2020-09-29T12:26:35.829Z</time>
      </trkpt>
      <trkpt lat="63.88115" lon="20.31369">
        <ele>55.139454</ele>
        <time>2020-09-29T12:26:37.816Z</time>
      </trkpt>
      <trkpt lat="63.88104" lon="20.31363">
        <ele>54.768392</ele>
        <time>2020-09-29T12:26:39.795Z</time>
      </trkpt>
      <trkpt lat="63.88094" lon="20.31362">
        <ele>54.410903</ele>
        <time>2020-09-29T12:26:41.787Z</time>
      </trkpt>
      <trkpt lat="63.88083" lon="20.31367">
        <ele>54.064229</ele>
        <time>2020-09-29T12:26:43.783Z</time>
      </trkpt>
      <trkpt lat="63.88074" lon="20.31374">
        <ele>53.983658</ele>
        <time>2020-09-29T12:26:45.799Z</time>
      </trkpt>
      <trkpt lat="63.88065" lon="20.31381">
        <ele>53.975091</ele>
        <time>2020-09-29T12:26:47.792Z</time>
      </trkpt>
      <trkpt lat="63.88056" lon="20.31386">
        <ele>53.966736</ele>
        <time>2020-09-29T12:26:49.811Z</time>
      </trkpt>
      <trkpt lat="63.88046" lon="20.31384">
        <ele>53.958174</ele>
        <time>2020-09-29T12:26:51.791Z</time>
      </trkpt>
      <trkpt lat="63.88037" lon="20.31376">
        <ele>53.949522</ele>
        <time>2020-09-29T12:26:53.795Z</time>
      </trkpt>
      <trkpt lat="63.88027" lon="20.31366">
        <ele>53.940143</ele>
        <time>2020-09-29T12:26:55.833Z</time>
      </trkpt>
      <trkpt lat="63.88018" lon="20.31352">
        <ele>53.929865</ele>
        <time>2020-09-29T12:26:57.788Z</time>
      </trkpt>
      <trkpt lat="63.88007" lon="20.31339">
        <ele>53.919377</ele>
        <time>2020-09-29T12:26:59.792Z</time>
      </trkpt>
      <trkpt lat="63.87997" lon="20.31332">
        <ele>53.909894</ele>
        <time>2020-09-29T12:27:01.787Z</time>
      </trkpt>
      <trkpt lat="63.87987" lon="20.31328">
        <ele>53.901168</ele>
        <time>2020-09-29T12:27:03.784Z</time>
      </trkpt>
      <trkpt lat="63.87977" lon="20.31327">
        <ele>53.892464</ele>
        <time>2020-09-29T12:27:05.796Z</time>
      </trkpt>
      <trkpt lat="63.87968" lon="20.31328">
        <ele>53.883934</ele>
        <time>2020-09-29T12:27:07.792Z</time>
      </trkpt>
      <trkpt lat="63.87958" lon="20.31331">
        <ele>53.874738</ele>
        <time>2020-09-29T12:27:09.779Z</time>
      </trkpt>
      <trkpt lat="63.87947" lon="20.31334">
        <ele>53.865074</ele>
        <time>2020-09-29T12:27:11.797Z</time>
      </trkpt>
      <trkpt lat="63.87937" lon="20.31331">
        <ele>53.856393</ele>
        <time>2020-09-29T12:27:13.809Z</time>
      </trkpt>
      <trkpt lat="63.87931" lon="20.31312">
        <ele>53.847212</ele>
        <time>2020-09-29T12:27:15.794Z</time>
      </trkpt>
      <trkpt lat="63.8793" lon="20.31288">
        <ele>53.83772</ele>
        <time>2020-09-29T12:27:17.802Z</time>
      </trkpt>
      <trkpt lat="63.8793" lon="20.31265">
        <ele>53.858366</ele>
        <time>2020-09-29T12:27:19.792Z</time>
      </trkpt>
      <trkpt lat="63.8793" lon="20.31243">
        <ele>53.997433</ele>
        <time>2020-09-29T12:27:21.795Z</time>
      </trkpt>
      <trkpt lat="63.87925" lon="20.31222">
        <ele>54.14691</ele>
        <time>2020-09-29T12:27:23.805Z</time>
      </trkpt>
      <trkpt lat="63.87917" lon="20.31208">
        <ele>54.292669</ele>
        <time>2020-09-29T12:27:25.798Z</time>
      </trkpt>
      <trkpt lat="63.87909" lon="20.31201">
        <ele>54.422028</ele>
        <time>2020-09-29T12:27:27.775Z</time>
      </trkpt>
      <trkpt lat="63.87898" lon="20.31191">
        <ele>54.584541</ele>
        <time>2020-09-29T12:27:30.843Z</time>
      </trkpt>
      <trkpt lat="63.87882" lon="20.31189">
        <ele>54.823183</ele>
        <time>2020-09-29T12:32:48.792Z</time>
      </trkpt>
      <trkpt lat="63.87871" lon="20.31189">
        <ele>54.971178</ele>
        <time>2020-09-29T12:33:01.777Z</time>
      </trkpt>
      <trkpt lat="63.87861" lon="20.31188">
        <ele>55.114895</ele>
        <time>2020-09-29T12:33:07.777Z</time>
      </trkpt>
      <trkpt lat="63.87852" lon="20.31182">
        <ele>55.250098</ele>
        <time>2020-09-29T12:33:12.777Z</time>
      </trkpt>
      <trkpt lat="63.87843" lon="20.31177">
        <ele>55.381436</ele>
        <time>2020-09-29T12:33:16.794Z</time>
      </trkpt>
      <trkpt lat="63.87833" lon="20.31175">
        <ele>55.534383</ele>
        <time>2020-09-29T12:33:20.784Z</time>
      </trkpt>
      <trkpt lat="63.87823" lon="20.31175">
        <ele>55.669353</ele>
        <time>2020-09-29T12:33:24.785Z</time>
      </trkpt>
      <trkpt lat="63.87815" lon="20.31165">
        <ele>55.80836</ele>
        <time>2020-09-29T12:33:29.784Z</time>
      </trkpt>
      <trkpt lat="63.87812" lon="20.31142">
        <ele>55.961213</ele>
        <time>2020-09-29T12:33:35.830Z</time>
      </trkpt>
      <trkpt lat="63.87812" lon="20.31117">
        <ele>56.116961</ele>
        <time>2020-09-29T12:33:40.793Z</time>
      </trkpt>
      <trkpt lat="63.87813" lon="20.31094">
        <ele>56.263682</ele>
        <time>2020-09-29T12:33:45.771Z</time>
      </trkpt>
      <trkpt lat="63.87804" lon="20.31085">
        <ele>56.406698</ele>
        <time>2020-09-29T12:33:53.781Z</time>
      </trkpt>
      <trkpt lat="63.87793" lon="20.31087">
        <ele>56.295198</ele>
        <time>2020-09-29T12:33:59.777Z</time>
      </trkpt>
      <trkpt lat="63.87782" lon="20.31084">
        <ele>56.169833</ele>
        <time>2020-09-29T12:34:03.783Z</time>
      </trkpt>
      <trkpt lat="63.87773" lon="20.31082">
        <ele>56.063704</ele>
        <time>2020-09-29T12:34:06.815Z</time>
      </trkpt>
      <trkpt lat="63.87761" lon="20.31079">
        <ele>55.927064</ele>
        <time>2020-09-29T12:34:10.786Z</time>
      </trkpt>
      <trkpt lat="63.87752" lon="20.31079">
        <ele>55.819584</ele>
        <time>2020-09-29T12:34:13.802Z</time>
      </trkpt>
      <trkpt lat="63.87742" lon="20.31079">
        <ele>55.710947</ele>
        <time>2020-09-29T12:34:16.794Z</time>
      </trkpt>
      <trkpt lat="63.87733" lon="20.31078">
        <ele>55.605585</ele>
        <time>2020-09-29T12:34:19.770Z</time>
      </trkpt>
      <trkpt lat="63.87722" lon="20.31075">
        <ele>55.476253</ele>
        <time>2020-09-29T12:34:23.784Z</time>
      </trkpt>
      <trkpt lat="63.87711" lon="20.31068">
        <ele>55.347899</ele>
        <time>2020-09-29T12:34:27.789Z</time>
      </trkpt>
      <trkpt lat="63.87699" lon="20.31065">
        <ele>55.210948</ele>
        <time>2020-09-29T12:34:31.790Z</time>
      </trkpt>
      <trkpt lat="63.87687" lon="20.31065">
        <ele>55.080558</ele>
        <time>2020-09-29T12:34:35.803Z</time>
      </trkpt>
      <trkpt lat="63.87676" lon="20.31064">
        <ele>54.952498</ele>
        <time>2020-09-29T12:34:39.790Z</time>
      </trkpt>
      <trkpt lat="63.87667" lon="20.31063">
        <ele>54.846047</ele>
        <time>2020-09-29T12:34:42.802Z</time>
      </trkpt>
      <trkpt lat="63.87658" lon="20.31066">
        <ele>54.742603</ele>
        <time>2020-09-29T12:34:45.818Z</time>
      </trkpt>
      <trkpt lat="63.87646" lon="20.31068">
        <ele>54.607191</ele>
        <time>2020-09-29T12:34:49.808Z</time>
      </trkpt>
      <trkpt lat="63.87636" lon="20.31069">
        <ele>54.492801</ele>
        <time>2020-09-29T12:34:53.778Z</time>
      </trkpt>
      <trkpt lat="63.87631" lon="20.31034">
        <ele>54.402592</ele>
        <time>2020-09-29T12:55:50.527Z</time>
      </trkpt>
      <trkpt lat="63.87633" lon="20.31007">
        <ele>54.542675</ele>
        <time>2020-09-29T12:55:54.518Z</time>
      </trkpt>
      <trkpt lat="63.87633" lon="20.30986">
        <ele>54.653482</ele>
        <time>2020-09-29T12:55:57.530Z</time>
      </trkpt>
      <trkpt lat="63.87632" lon="20.30963">
        <ele>54.770078</ele>
        <time>2020-09-29T12:56:00.517Z</time>
      </trkpt>
      <trkpt lat="63.87632" lon="20.30942">
        <ele>54.878688</ele>
        <time>2020-09-29T12:56:03.524Z</time>
      </trkpt>
      <trkpt lat="63.87631" lon="20.30921">
        <ele>54.987121</ele>
        <time>2020-09-29T12:56:06.551Z</time>
      </trkpt>
      <trkpt lat="63.8763" lon="20.30899">
        <ele>55.100323</ele>
        <time>2020-09-29T12:56:09.500Z</time>
      </trkpt>
      <trkpt lat="63.8763" lon="20.30879">
        <ele>55.206989</ele>
        <time>2020-09-29T12:56:12.515Z</time>
      </trkpt>
      <trkpt lat="63.87629" lon="20.30852">
        <ele>55.34516</ele>
        <time>2020-09-29T12:56:16.520Z</time>
      </trkpt>
      <trkpt lat="63.87629" lon="20.30831">
        <ele>55.452856</ele>
        <time>2020-09-29T12:56:19.523Z</time>
      </trkpt>
      <trkpt lat="63.87629" lon="20.30809">
        <ele>55.565184</ele>
        <time>2020-09-29T12:56:22.513Z</time>
      </trkpt>
      <trkpt lat="63.87629" lon="20.30788">
        <ele>55.67339</ele>
        <time>2020-09-29T12:56:25.519Z</time>
      </trkpt>
      <trkpt lat="63.87629" lon="20.30767">
        <ele>55.781106</ele>
        <time>2020-09-29T12:56:28.560Z</time>
      </trkpt>
      <trkpt lat="63.87626" lon="20.30743">
        <ele>55.909822</ele>
        <time>2020-09-29T12:56:32.524Z</time>
      </trkpt>
      <trkpt lat="63.87618" lon="20.30737">
        <ele>56.015888</ele>
        <time>2020-09-29T12:56:35.498Z</time>
      </trkpt>
      <trkpt lat="63.87608" lon="20.30734">
        <ele>56.129153</ele>
        <time>2020-09-29T12:56:38.497Z</time>
      </trkpt>
      <trkpt lat="63.87598" lon="20.30732">
        <ele>56.252597</ele>
        <time>2020-09-29T12:56:41.501Z</time>
      </trkpt>
      <trkpt lat="63.87587" lon="20.30731">
        <ele>56.375559</ele>
        <time>2020-09-29T12:56:44.550Z</time>
      </trkpt>
      <trkpt lat="63.87577" lon="20.30727">
        <ele>56.445442</ele>
        <time>2020-09-29T12:56:47.552Z</time>
      </trkpt>
      <trkpt lat="63.87566" lon="20.30721">
        <ele>56.385939</ele>
        <time>2020-09-29T12:56:50.508Z</time>
      </trkpt>
      <trkpt lat="63.87555" lon="20.30713">
        <ele>56.326247</ele>
        <time>2020-09-29T12:56:53.506Z</time>
      </trkpt>
      <trkpt lat="63.87546" lon="20.30703">
        <ele>56.270214</ele>
        <time>2020-09-29T12:56:56.502Z</time>
      </trkpt>
      <trkpt lat="63.87536" lon="20.30692">
        <ele>56.210377</ele>
        <time>2020-09-29T12:56:59.516Z</time>
      </trkpt>
      <trkpt lat="63.87525" lon="20.30683">
        <ele>56.149659</ele>
        <time>2020-09-29T12:57:02.503Z</time>
      </trkpt>
      <trkpt lat="63.87514" lon="20.30675">
        <ele>56.088452</ele>
        <time>2020-09-29T12:57:05.536Z</time>
      </trkpt>
      <trkpt lat="63.87503" lon="20.30667">
        <ele>56.029042</ele>
        <time>2020-09-29T12:57:08.494Z</time>
      </trkpt>
      <trkpt lat="63.87492" lon="20.30659">
        <ele>55.964792</ele>
        <time>2020-09-29T12:57:11.510Z</time>
      </trkpt>
      <trkpt lat="63.87479" lon="20.30655">
        <ele>55.900018</ele>
        <time>2020-09-29T12:57:14.496Z</time>
      </trkpt>
      <trkpt lat="63.87468" lon="20.30655">
        <ele>55.840581</ele>
        <time>2020-09-29T12:57:17.521Z</time>
      </trkpt>
      <trkpt lat="63.87457" lon="20.30656">
        <ele>55.780565</ele>
        <time>2020-09-29T12:57:20.522Z</time>
      </trkpt>
      <trkpt lat="63.87444" lon="20.30655">
        <ele>55.714228</ele>
        <time>2020-09-29T12:57:23.514Z</time>
      </trkpt>
      <trkpt lat="63.87432" lon="20.30658">
        <ele>55.648094</ele>
        <time>2020-09-29T12:57:26.499Z</time>
      </trkpt>
      <trkpt lat="63.8742" lon="20.30665">
        <ele>55.580061</ele>
        <time>2020-09-29T12:57:29.501Z</time>
      </trkpt>
      <trkpt lat="63.87407" lon="20.30675">
        <ele>55.510012</ele>
        <time>2020-09-29T12:57:32.495Z</time>
      </trkpt>
      <trkpt lat="63.87394" lon="20.30684">
        <ele>55.580351</ele>
        <time>2020-09-29T12:57:35.499Z</time>
      </trkpt>
      <trkpt lat="63.87382" lon="20.30691">
        <ele>55.65573</ele>
        <time>2020-09-29T12:57:38.538Z</time>
      </trkpt>
      <trkpt lat="63.87373" lon="20.30696">
        <ele>55.707057</ele>
        <time>2020-09-29T12:57:40.512Z</time>
      </trkpt>
      <trkpt lat="63.8736" lon="20.30705">
        <ele>55.784038</ele>
        <time>2020-09-29T12:57:43.501Z</time>
      </trkpt>
      <trkpt lat="63.87351" lon="20.30713">
        <ele>55.839514</ele>
        <time>2020-09-29T12:57:45.543Z</time>
      </trkpt>
      <trkpt lat="63.87343" lon="20.30719">
        <ele>55.891378</ele>
        <time>2020-09-29T12:57:47.507Z</time>
      </trkpt>
      <trkpt lat="63.87333" lon="20.30723">
        <ele>55.944778</ele>
        <time>2020-09-29T12:57:49.571Z</time>
      </trkpt>
      <trkpt lat="63.87324" lon="20.30727">
        <ele>55.998925</ele>
        <time>2020-09-29T12:57:51.498Z</time>
      </trkpt>
      <trkpt lat="63.87314" lon="20.30729">
        <ele>56.055927</ele>
        <time>2020-09-29T12:57:53.511Z</time>
      </trkpt>
      <trkpt lat="63.87305" lon="20.30729">
        <ele>56.111028</ele>
        <time>2020-09-29T12:57:55.504Z</time>
      </trkpt>
      <trkpt lat="63.87295" lon="20.30725">
        <ele>56.165092</ele>
        <time>2020-09-29T12:57:57.520Z</time>
      </trkpt>
      <trkpt lat="63.87285" lon="20.30721">
        <ele>56.22398</ele>
        <time>2020-09-29T12:57:59.504Z</time>
      </trkpt>
      <trkpt lat="63.87275" lon="20.30717">
        <ele>56.281927</ele>
        <time>2020-09-29T12:58:01.510Z</time>
      </trkpt>
      <trkpt lat="63.87266" lon="20.30712">
        <ele>56.335738</ele>
        <time>2020-09-29T12:58:03.497Z</time>
      </trkpt>
      <trkpt lat="63.87257" lon="20.30712">
        <ele>56.388016</ele>
        <time>2020-09-29T12:58:05.520Z</time>
      </trkpt>
      <trkpt lat="63.87248" lon="20.30711">
        <ele>56.440247</ele>
        <time>2020-09-29T12:58:07.523Z</time>
      </trkpt>
      <trkpt lat="63.87235" lon="20.30713">
        <ele>56.51497</ele>
        <time>2020-09-29T12:58:10.516Z</time>
      </trkpt>
      <trkpt lat="63.87223" lon="20.30716">
        <ele>56.632118</ele>
        <time>2020-09-29T12:58:13.520Z</time>
      </trkpt>
      <trkpt lat="63.87212" lon="20.30718">
        <ele>56.768178</ele>
        <time>2020-09-29T12:58:16.529Z</time>
      </trkpt>
      <trkpt lat="63.87202" lon="20.30719">
        <ele>56.904185</ele>
        <time>2020-09-29T12:58:19.549Z</time>
      </trkpt>
      <trkpt lat="63.87191" lon="20.30718">
        <ele>57.033866</ele>
        <time>2020-09-29T12:58:22.534Z</time>
      </trkpt>
      <trkpt lat="63.87181" lon="20.30717">
        <ele>57.156343</ele>
        <time>2020-09-29T12:58:25.516Z</time>
      </trkpt>
      <trkpt lat="63.87171" lon="20.30715">
        <ele>57.285116</ele>
        <time>2020-09-29T12:58:28.514Z</time>
      </trkpt>
      <trkpt lat="63.8716" lon="20.30713">
        <ele>57.420065</ele>
        <time>2020-09-29T12:58:31.535Z</time>
      </trkpt>
      <trkpt lat="63.8715" lon="20.30711">
        <ele>57.554094</ele>
        <time>2020-09-29T12:58:34.514Z</time>
      </trkpt>
      <trkpt lat="63.8714" lon="20.30708">
        <ele>57.675913</ele>
        <time>2020-09-29T12:58:37.529Z</time>
      </trkpt>
      <trkpt lat="63.8713" lon="20.30706">
        <ele>57.795065</ele>
        <time>2020-09-29T12:58:40.501Z</time>
      </trkpt>
      <trkpt lat="63.8712" lon="20.30704">
        <ele>57.922595</ele>
        <time>2020-09-29T12:58:43.547Z</time>
      </trkpt>
      <trkpt lat="63.8711" lon="20.30703">
        <ele>58.0498</ele>
        <time>2020-09-29T12:58:46.507Z</time>
      </trkpt>
      <trkpt lat="63.871" lon="20.30699">
        <ele>58.177417</ele>
        <time>2020-09-29T12:58:49.506Z</time>
      </trkpt>
      <trkpt lat="63.87089" lon="20.30699">
        <ele>58.30836</ele>
        <time>2020-09-29T12:58:52.518Z</time>
      </trkpt>
      <trkpt lat="63.87079" lon="20.30696">
        <ele>58.433709</ele>
        <time>2020-09-29T12:58:55.550Z</time>
      </trkpt>
      <trkpt lat="63.87069" lon="20.30694">
        <ele>58.569033</ele>
        <time>2020-09-29T12:58:58.510Z</time>
      </trkpt>
      <trkpt lat="63.87058" lon="20.30691">
        <ele>58.704302</ele>
        <time>2020-09-29T12:59:01.511Z</time>
      </trkpt>
      <trkpt lat="63.87047" lon="20.30689">
        <ele>58.871518</ele>
        <time>2020-09-29T12:59:04.491Z</time>
      </trkpt>
      <trkpt lat="63.87037" lon="20.30687">
        <ele>59.090635</ele>
        <time>2020-09-29T12:59:07.511Z</time>
      </trkpt>
      <trkpt lat="63.87026" lon="20.30685">
        <ele>59.320138</ele>
        <time>2020-09-29T12:59:10.518Z</time>
      </trkpt>
      <trkpt lat="63.87015" lon="20.30683">
        <ele>59.555835</ele>
        <time>2020-09-29T12:59:13.500Z</time>
      </trkpt>
      <trkpt lat="63.87004" lon="20.3068">
        <ele>59.794696</ele>
        <time>2020-09-29T12:59:16.515Z</time>
      </trkpt>
      <trkpt lat="63.86992" lon="20.30678">
        <ele>60.043429</ele>
        <time>2020-09-29T12:59:19.503Z</time>
      </trkpt>
      <trkpt lat="63.86981" lon="20.30676">
        <ele>60.281306</ele>
        <time>2020-09-29T12:59:22.527Z</time>
      </trkpt>
      <trkpt lat="63.8697" lon="20.30674">
        <ele>60.519051</ele>
        <time>2020-09-29T12:59:25.532Z</time>
      </trkpt>
      <trkpt lat="63.86958" lon="20.30671">
        <ele>60.766546</ele>
        <time>2020-09-29T12:59:28.545Z</time>
      </trkpt>
      <trkpt lat="63.86946" lon="20.30667">
        <ele>61.025137</ele>
        <time>2020-09-29T12:59:31.503Z</time>
      </trkpt>
      <trkpt lat="63.86934" lon="20.30665">
        <ele>61.278529</ele>
        <time>2020-09-29T12:59:34.521Z</time>
      </trkpt>
      <trkpt lat="63.86922" lon="20.30663">
        <ele>61.531012</ele>
        <time>2020-09-29T12:59:37.555Z</time>
      </trkpt>
      <trkpt lat="63.86911" lon="20.30661">
        <ele>61.777556</ele>
        <time>2020-09-29T12:59:40.506Z</time>
      </trkpt>
      <trkpt lat="63.86899" lon="20.30658">
        <ele>62.022623</ele>
        <time>2020-09-29T12:59:43.512Z</time>
      </trkpt>
      <trkpt lat="63.86888" lon="20.30654">
        <ele>62.255915</ele>
        <time>2020-09-29T12:59:46.513Z</time>
      </trkpt>
      <trkpt lat="63.86877" lon="20.30649">
        <ele>62.499574</ele>
        <time>2020-09-29T12:59:49.525Z</time>
      </trkpt>
      <trkpt lat="63.86865" lon="20.3064">
        <ele>62.64592</ele>
        <time>2020-09-29T12:59:52.518Z</time>
      </trkpt>
      <trkpt lat="63.86853" lon="20.3063">
        <ele>62.723527</ele>
        <time>2020-09-29T12:59:55.506Z</time>
      </trkpt>
      <trkpt lat="63.86843" lon="20.30621">
        <ele>62.797454</ele>
        <time>2020-09-29T12:59:58.520Z</time>
      </trkpt>
      <trkpt lat="63.86832" lon="20.3061">
        <ele>62.871634</ele>
        <time>2020-09-29T13:00:01.508Z</time>
      </trkpt>
      <trkpt lat="63.86822" lon="20.30599">
        <ele>62.944528</ele>
        <time>2020-09-29T13:00:04.535Z</time>
      </trkpt>
      <trkpt lat="63.8681" lon="20.30588">
        <ele>63.022755</ele>
        <time>2020-09-29T13:00:07.541Z</time>
      </trkpt>
      <trkpt lat="63.868" lon="20.30577">
        <ele>63.098424</ele>
        <time>2020-09-29T13:00:10.514Z</time>
      </trkpt>
      <trkpt lat="63.8679" lon="20.30566">
        <ele>63.169471</ele>
        <time>2020-09-29T13:00:13.509Z</time>
      </trkpt>
      <trkpt lat="63.86779" lon="20.30555">
        <ele>63.242367</ele>
        <time>2020-09-29T13:00:16.584Z</time>
      </trkpt>
      <trkpt lat="63.86769" lon="20.30545">
        <ele>63.312112</ele>
        <time>2020-09-29T13:00:19.555Z</time>
      </trkpt>
      <trkpt lat="63.8676" lon="20.30534">
        <ele>63.378587</ele>
        <time>2020-09-29T13:00:22.522Z</time>
      </trkpt>
      <trkpt lat="63.86751" lon="20.30524">
        <ele>63.444029</ele>
        <time>2020-09-29T13:00:25.498Z</time>
      </trkpt>
      <trkpt lat="63.86741" lon="20.30514">
        <ele>63.51319</ele>
        <time>2020-09-29T13:00:28.496Z</time>
      </trkpt>
      <trkpt lat="63.86731" lon="20.30502">
        <ele>63.58704</ele>
        <time>2020-09-29T13:00:31.513Z</time>
      </trkpt>
      <trkpt lat="63.8672" lon="20.30491">
        <ele>63.663535</ele>
        <time>2020-09-29T13:00:34.508Z</time>
      </trkpt>
      <trkpt lat="63.86709" lon="20.30481">
        <ele>63.738573</ele>
        <time>2020-09-29T13:00:37.526Z</time>
      </trkpt>
      <trkpt lat="63.86698" lon="20.30471">
        <ele>63.950962</ele>
        <time>2020-09-29T13:00:40.496Z</time>
      </trkpt>
      <trkpt lat="63.86687" lon="20.3046">
        <ele>64.178381</ele>
        <time>2020-09-29T13:00:43.495Z</time>
      </trkpt>
      <trkpt lat="63.86679" lon="20.30451">
        <ele>64.344984</ele>
        <time>2020-09-29T13:00:45.530Z</time>
      </trkpt>
      <trkpt lat="63.86666" lon="20.30441">
        <ele>64.582489</ele>
        <time>2020-09-29T13:00:48.526Z</time>
      </trkpt>
      <trkpt lat="63.86655" lon="20.3043">
        <ele>64.81499</ele>
        <time>2020-09-29T13:00:51.500Z</time>
      </trkpt>
      <trkpt lat="63.86642" lon="20.30421">
        <ele>65.059115</ele>
        <time>2020-09-29T13:00:54.523Z</time>
      </trkpt>
      <trkpt lat="63.8663" lon="20.30413">
        <ele>65.295597</ele>
        <time>2020-09-29T13:00:57.503Z</time>
      </trkpt>
      <trkpt lat="63.86618" lon="20.30408">
        <ele>65.511875</ele>
        <time>2020-09-29T13:01:00.510Z</time>
      </trkpt>
      <trkpt lat="63.86607" lon="20.30404">
        <ele>65.726222</ele>
        <time>2020-09-29T13:01:03.508Z</time>
      </trkpt>
      <trkpt lat="63.86595" lon="20.304">
        <ele>65.938864</ele>
        <time>2020-09-29T13:01:06.498Z</time>
      </trkpt>
      <trkpt lat="63.86584" lon="20.30397">
        <ele>66.144213</ele>
        <time>2020-09-29T13:01:09.511Z</time>
      </trkpt>
      <trkpt lat="63.86573" lon="20.30394">
        <ele>66.353334</ele>
        <time>2020-09-29T13:01:12.499Z</time>
      </trkpt>
      <trkpt lat="63.86562" lon="20.30392">
        <ele>66.568253</ele>
        <time>2020-09-29T13:01:15.497Z</time>
      </trkpt>
      <trkpt lat="63.8655" lon="20.30389">
        <ele>66.787084</ele>
        <time>2020-09-29T13:01:18.513Z</time>
      </trkpt>
      <trkpt lat="63.86537" lon="20.30387">
        <ele>67.016317</ele>
        <time>2020-09-29T13:01:21.494Z</time>
      </trkpt>
      <trkpt lat="63.86526" lon="20.30385">
        <ele>67.30237</ele>
        <time>2020-09-29T13:01:24.530Z</time>
      </trkpt>
      <trkpt lat="63.86513" lon="20.3038">
        <ele>67.6262</ele>
        <time>2020-09-29T13:01:27.580Z</time>
      </trkpt>
      <trkpt lat="63.865" lon="20.30376">
        <ele>67.947351</ele>
        <time>2020-09-29T13:01:30.498Z</time>
      </trkpt>
      <trkpt lat="63.86488" lon="20.30372">
        <ele>68.255126</ele>
        <time>2020-09-29T13:01:33.505Z</time>
      </trkpt>
      <trkpt lat="63.86477" lon="20.3037">
        <ele>68.54313</ele>
        <time>2020-09-29T13:01:36.522Z</time>
      </trkpt>
      <trkpt lat="63.86466" lon="20.30367">
        <ele>68.839338</ele>
        <time>2020-09-29T13:01:39.506Z</time>
      </trkpt>
      <trkpt lat="63.86454" lon="20.30364">
        <ele>69.145885</ele>
        <time>2020-09-29T13:01:42.524Z</time>
      </trkpt>
      <trkpt lat="63.86443" lon="20.30362">
        <ele>69.418701</ele>
        <time>2020-09-29T13:01:45.505Z</time>
      </trkpt>
      <trkpt lat="63.86432" lon="20.30361">
        <ele>69.693228</ele>
        <time>2020-09-29T13:01:48.510Z</time>
      </trkpt>
      <trkpt lat="63.86421" lon="20.3036">
        <ele>69.968229</ele>
        <time>2020-09-29T13:01:51.497Z</time>
      </trkpt>
      <trkpt lat="63.86411" lon="20.30359">
        <ele>70.23514</ele>
        <time>2020-09-29T13:01:54.500Z</time>
      </trkpt>
      <trkpt lat="63.86401" lon="20.30366">
        <ele>70.495803</ele>
        <time>2020-09-29T13:01:57.501Z</time>
      </trkpt>
      <trkpt lat="63.86392" lon="20.30382">
        <ele>70.792896</ele>
        <time>2020-09-29T13:02:00.530Z</time>
      </trkpt>
      <trkpt lat="63.86386" lon="20.30402">
        <ele>71.058532</ele>
        <time>2020-09-29T13:02:03.536Z</time>
      </trkpt>
      <trkpt lat="63.86383" lon="20.30427">
        <ele>71.348772</ele>
        <time>2020-09-29T13:02:06.535Z</time>
      </trkpt>
      <trkpt lat="63.86379" lon="20.30453">
        <ele>71.622944</ele>
        <time>2020-09-29T13:02:09.513Z</time>
      </trkpt>
      <trkpt lat="63.86375" lon="20.30476">
        <ele>71.598618</ele>
        <time>2020-09-29T13:02:12.535Z</time>
      </trkpt>
      <trkpt lat="63.86369" lon="20.30496">
        <ele>71.576435</ele>
        <time>2020-09-29T13:02:15.539Z</time>
      </trkpt>
      <trkpt lat="63.86359" lon="20.30499">
        <ele>71.552995</ele>
        <time>2020-09-29T13:02:19.514Z</time>
      </trkpt>
      <trkpt lat="63.86349" lon="20.30498">
        <ele>71.532357</ele>
        <time>2020-09-29T13:02:22.507Z</time>
      </trkpt>
      <trkpt lat="63.86338" lon="20.30494">
        <ele>71.507831</ele>
        <time>2020-09-29T13:02:25.518Z</time>
      </trkpt>
      <trkpt lat="63.86326" lon="20.3049">
        <ele>71.480405</ele>
        <time>2020-09-29T13:02:28.515Z</time>
      </trkpt>
      <trkpt lat="63.86315" lon="20.30488">
        <ele>71.456404</ele>
        <time>2020-09-29T13:02:31.533Z</time>
      </trkpt>
      <trkpt lat="63.86306" lon="20.30484">
        <ele>71.43676</ele>
        <time>2020-09-29T13:02:33.534Z</time>
      </trkpt>
      <trkpt lat="63.86296" lon="20.30482">
        <ele>71.414541</ele>
        <time>2020-09-29T13:02:35.510Z</time>
      </trkpt>
      <trkpt lat="63.86286" lon="20.30479">
        <ele>71.39354</ele>
        <time>2020-09-29T13:02:37.551Z</time>
      </trkpt>
      <trkpt lat="63.86277" lon="20.30478">
        <ele>71.372459</ele>
        <time>2020-09-29T13:02:39.498Z</time>
      </trkpt>
      <trkpt lat="63.86263" lon="20.30474">
        <ele>71.342885</ele>
        <time>2020-09-29T13:02:42.512Z</time>
      </trkpt>
      <trkpt lat="63.8625" lon="20.30472">
        <ele>71.313711</ele>
        <time>2020-09-29T13:02:45.518Z</time>
      </trkpt>
      <trkpt lat="63.86238" lon="20.3047">
        <ele>71.287084</ele>
        <time>2020-09-29T13:02:48.520Z</time>
      </trkpt>
      <trkpt lat="63.86226" lon="20.30465">
        <ele>71.259603</ele>
        <time>2020-09-29T13:02:51.549Z</time>
      </trkpt>
      <trkpt lat="63.86215" lon="20.30459">
        <ele>71.234605</ele>
        <time>2020-09-29T13:02:54.511Z</time>
      </trkpt>
      <trkpt lat="63.86205" lon="20.30453">
        <ele>71.186265</ele>
        <time>2020-09-29T13:02:57.532Z</time>
      </trkpt>
      <trkpt lat="63.86193" lon="20.30446">
        <ele>71.123691</ele>
        <time>2020-09-29T13:03:00.522Z</time>
      </trkpt>
      <trkpt lat="63.86181" lon="20.30437">
        <ele>71.062827</ele>
        <time>2020-09-29T13:03:03.515Z</time>
      </trkpt>
      <trkpt lat="63.86172" lon="20.30425">
        <ele>71.00633</ele>
        <time>2020-09-29T13:03:06.511Z</time>
      </trkpt>
      <trkpt lat="63.86162" lon="20.30415">
        <ele>70.954092</ele>
        <time>2020-09-29T13:03:09.538Z</time>
      </trkpt>
      <trkpt lat="63.86152" lon="20.30405">
        <ele>70.896637</ele>
        <time>2020-09-29T13:03:12.523Z</time>
      </trkpt>
      <trkpt lat="63.86141" lon="20.30396">
        <ele>70.836755</ele>
        <time>2020-09-29T13:03:15.505Z</time>
      </trkpt>
      <trkpt lat="63.86131" lon="20.30386">
        <ele>70.778479</ele>
        <time>2020-09-29T13:03:18.515Z</time>
      </trkpt>
      <trkpt lat="63.8612" lon="20.30376">
        <ele>70.720848</ele>
        <time>2020-09-29T13:03:21.536Z</time>
      </trkpt>
      <trkpt lat="63.86109" lon="20.30367">
        <ele>70.661237</ele>
        <time>2020-09-29T13:03:24.522Z</time>
      </trkpt>
      <trkpt lat="63.86098" lon="20.30356">
        <ele>70.597588</ele>
        <time>2020-09-29T13:03:27.502Z</time>
      </trkpt>
      <trkpt lat="63.86087" lon="20.30345">
        <ele>70.538671</ele>
        <time>2020-09-29T13:03:30.517Z</time>
      </trkpt>
      <trkpt lat="63.86077" lon="20.30334">
        <ele>70.482352</ele>
        <time>2020-09-29T13:03:33.542Z</time>
      </trkpt>
      <trkpt lat="63.86067" lon="20.30324">
        <ele>70.426218</ele>
        <time>2020-09-29T13:03:36.521Z</time>
      </trkpt>
      <trkpt lat="63.86056" lon="20.30314">
        <ele>70.363556</ele>
        <time>2020-09-29T13:03:39.508Z</time>
      </trkpt>
      <trkpt lat="63.86044" lon="20.30303">
        <ele>70.271977</ele>
        <time>2020-09-29T13:03:42.511Z</time>
      </trkpt>
      <trkpt lat="63.86032" lon="20.3029">
        <ele>70.099023</ele>
        <time>2020-09-29T13:03:45.502Z</time>
      </trkpt>
      <trkpt lat="63.86023" lon="20.30281">
        <ele>69.974592</ele>
        <time>2020-09-29T13:03:47.511Z</time>
      </trkpt>
      <trkpt lat="63.86015" lon="20.30273">
        <ele>69.855803</ele>
        <time>2020-09-29T13:03:49.510Z</time>
      </trkpt>
      <trkpt lat="63.86002" lon="20.30264">
        <ele>69.67972</ele>
        <time>2020-09-29T13:03:52.510Z</time>
      </trkpt>
      <trkpt lat="63.85991" lon="20.3026">
        <ele>69.540368</ele>
        <time>2020-09-29T13:03:54.511Z</time>
      </trkpt>
      <trkpt lat="63.85981" lon="20.30257">
        <ele>69.39911</ele>
        <time>2020-09-29T13:03:56.527Z</time>
      </trkpt>
      <trkpt lat="63.8597" lon="20.30254">
        <ele>69.255775</ele>
        <time>2020-09-29T13:03:58.511Z</time>
      </trkpt>
      <trkpt lat="63.8596" lon="20.30253">
        <ele>69.128628</ele>
        <time>2020-09-29T13:04:00.521Z</time>
      </trkpt>
      <trkpt lat="63.8595" lon="20.30252">
        <ele>69.001412</ele>
        <time>2020-09-29T13:04:02.548Z</time>
      </trkpt>
      <trkpt lat="63.8594" lon="20.30251">
        <ele>68.867785</ele>
        <time>2020-09-29T13:04:04.507Z</time>
      </trkpt>
      <trkpt lat="63.85931" lon="20.3025">
        <ele>68.742087</ele>
        <time>2020-09-29T13:04:06.515Z</time>
      </trkpt>
      <trkpt lat="63.85918" lon="20.30248">
        <ele>68.570115</ele>
        <time>2020-09-29T13:04:09.519Z</time>
      </trkpt>
      <trkpt lat="63.85905" lon="20.30244">
        <ele>68.401438</ele>
        <time>2020-09-29T13:04:12.508Z</time>
      </trkpt>
      <trkpt lat="63.85892" lon="20.3024">
        <ele>68.228025</ele>
        <time>2020-09-29T13:04:15.514Z</time>
      </trkpt>
      <trkpt lat="63.85878" lon="20.30238">
        <ele>68.052138</ele>
        <time>2020-09-29T13:04:18.529Z</time>
      </trkpt>
      <trkpt lat="63.85869" lon="20.30236">
        <ele>67.998897</ele>
        <time>2020-09-29T13:04:20.516Z</time>
      </trkpt>
      <trkpt lat="63.8586" lon="20.30233">
        <ele>68.159011</ele>
        <time>2020-09-29T13:04:22.510Z</time>
      </trkpt>
      <trkpt lat="63.85851" lon="20.30231">
        <ele>68.32567</ele>
        <time>2020-09-29T13:04:24.524Z</time>
      </trkpt>
      <trkpt lat="63.85841" lon="20.30228">
        <ele>68.492415</ele>
        <time>2020-09-29T13:04:26.502Z</time>
      </trkpt>
      <trkpt lat="63.85831" lon="20.30226">
        <ele>68.664274</ele>
        <time>2020-09-29T13:04:28.516Z</time>
      </trkpt>
      <trkpt lat="63.85822" lon="20.30224">
        <ele>68.8339</ele>
        <time>2020-09-29T13:04:30.517Z</time>
      </trkpt>
      <trkpt lat="63.85812" lon="20.30224">
        <ele>69.001282</ele>
        <time>2020-09-29T13:04:32.535Z</time>
      </trkpt>
      <trkpt lat="63.85802" lon="20.30225">
        <ele>69.173976</ele>
        <time>2020-09-29T13:04:34.578Z</time>
      </trkpt>
      <trkpt lat="63.85792" lon="20.30227">
        <ele>69.342453</ele>
        <time>2020-09-29T13:04:36.503Z</time>
      </trkpt>
      <trkpt lat="63.85783" lon="20.30232">
        <ele>69.509795</ele>
        <time>2020-09-29T13:04:38.535Z</time>
      </trkpt>
      <trkpt lat="63.85774" lon="20.30236">
        <ele>69.676833</ele>
        <time>2020-09-29T13:04:40.509Z</time>
      </trkpt>
      <trkpt lat="63.85764" lon="20.30239">
        <ele>69.845899</ele>
        <time>2020-09-29T13:04:42.506Z</time>
      </trkpt>
      <trkpt lat="63.85755" lon="20.30243">
        <ele>70.008803</ele>
        <time>2020-09-29T13:04:44.497Z</time>
      </trkpt>
      <trkpt lat="63.85746" lon="20.30247">
        <ele>70.166991</ele>
        <time>2020-09-29T13:04:46.537Z</time>
      </trkpt>
      <trkpt lat="63.85737" lon="20.3025">
        <ele>70.324611</ele>
        <time>2020-09-29T13:04:48.518Z</time>
      </trkpt>
      <trkpt lat="63.85724" lon="20.30258">
        <ele>70.563368</ele>
        <time>2020-09-29T13:04:51.514Z</time>
      </trkpt>
      <trkpt lat="63.85715" lon="20.30262">
        <ele>70.722864</ele>
        <time>2020-09-29T13:04:53.501Z</time>
      </trkpt>
      <trkpt lat="63.85706" lon="20.30261">
        <ele>70.885668</ele>
        <time>2020-09-29T13:04:55.516Z</time>
      </trkpt>
      <trkpt lat="63.85697" lon="20.30241">
        <ele>71.100511</ele>
        <time>2020-09-29T13:04:58.511Z</time>
      </trkpt>
      <trkpt lat="63.85694" lon="20.30215">
        <ele>71.643462</ele>
        <time>2020-09-29T13:05:01.500Z</time>
      </trkpt>
      <trkpt lat="63.8569" lon="20.30189">
        <ele>72.217229</ele>
        <time>2020-09-29T13:05:04.523Z</time>
      </trkpt>
      <trkpt lat="63.85683" lon="20.30167">
        <ele>72.760186</ele>
        <time>2020-09-29T13:05:07.512Z</time>
      </trkpt>
      <trkpt lat="63.85675" lon="20.30146">
        <ele>73.316857</ele>
        <time>2020-09-29T13:05:10.518Z</time>
      </trkpt>
      <trkpt lat="63.85666" lon="20.30125">
        <ele>73.902809</ele>
        <time>2020-09-29T13:05:13.501Z</time>
      </trkpt>
      <trkpt lat="63.8566" lon="20.30101">
        <ele>74.493143</ele>
        <time>2020-09-29T13:05:16.510Z</time>
      </trkpt>
      <trkpt lat="63.85656" lon="20.30072">
        <ele>75.097852</ele>
        <time>2020-09-29T13:05:19.506Z</time>
      </trkpt>
      <trkpt lat="63.85656" lon="20.30044">
        <ele>75.683595</ele>
        <time>2020-09-29T13:05:22.492Z</time>
      </trkpt>
      <trkpt lat="63.85657" lon="20.30017">
        <ele>76.225033</ele>
        <time>2020-09-29T13:05:25.514Z</time>
      </trkpt>
      <trkpt lat="63.85657" lon="20.29993">
        <ele>76.71903</ele>
        <time>2020-09-29T13:05:28.502Z</time>
      </trkpt>
      <trkpt lat="63.85659" lon="20.29967">
        <ele>77.245247</ele>
        <time>2020-09-29T13:05:31.502Z</time>
      </trkpt>
      <trkpt lat="63.8566" lon="20.29941">
        <ele>77.782282</ele>
        <time>2020-09-29T13:05:34.513Z</time>
      </trkpt>
      <trkpt lat="63.85661" lon="20.29915">
        <ele>78.301163</ele>
        <time>2020-09-29T13:05:37.495Z</time>
      </trkpt>
      <trkpt lat="63.85661" lon="20.2989">
        <ele>78.81418</ele>
        <time>2020-09-29T13:05:40.518Z</time>
      </trkpt>
      <trkpt lat="63.85661" lon="20.29862">
        <ele>79.387434</ele>
        <time>2020-09-29T13:05:43.520Z</time>
      </trkpt>
      <trkpt lat="63.85662" lon="20.29834">
        <ele>79.497478</ele>
        <time>2020-09-29T13:05:46.516Z</time>
      </trkpt>
      <trkpt lat="63.85659" lon="20.29811">
        <ele>79.588876</ele>
        <time>2020-09-29T13:05:50.536Z</time>
      </trkpt>
      <trkpt lat="63.85653" lon="20.29791">
        <ele>79.67733</ele>
        <time>2020-09-29T13:05:52.493Z</time>
      </trkpt>
      <trkpt lat="63.85643" lon="20.29783">
        <ele>79.762154</ele>
        <time>2020-09-29T13:05:55.550Z</time>
      </trkpt>
      <trkpt lat="63.85634" lon="20.29777">
        <ele>79.843695</ele>
        <time>2020-09-29T13:05:59.509Z</time>
      </trkpt>
      <trkpt lat="63.85625" lon="20.29772">
        <ele>79.920384</ele>
        <time>2020-09-29T13:06:04.501Z</time>
      </trkpt>
      <trkpt lat="63.85615" lon="20.29765">
        <ele>80.0079</ele>
        <time>2020-09-29T13:06:09.514Z</time>
      </trkpt>
      <trkpt lat="63.85606" lon="20.29762">
        <ele>80.09069</ele>
        <time>2020-09-29T13:06:13.498Z</time>
      </trkpt>
      <trkpt lat="63.85596" lon="20.29753">
        <ele>80.178818</ele>
        <time>2020-09-29T13:06:17.527Z</time>
      </trkpt>
      <trkpt lat="63.85587" lon="20.29746">
        <ele>80.255528</ele>
        <time>2020-09-29T13:06:20.522Z</time>
      </trkpt>
      <trkpt lat="63.85578" lon="20.29738">
        <ele>80.339567</ele>
        <time>2020-09-29T13:06:23.528Z</time>
      </trkpt>
      <trkpt lat="63.85568" lon="20.29731">
        <ele>80.426691</ele>
        <time>2020-09-29T13:06:26.504Z</time>
      </trkpt>
      <trkpt lat="63.85558" lon="20.2972">
        <ele>80.520032</ele>
        <time>2020-09-29T13:06:30.521Z</time>
      </trkpt>
      <trkpt lat="63.85549" lon="20.29712">
        <ele>80.605673</ele>
        <time>2020-09-29T13:06:33.510Z</time>
      </trkpt>
      <trkpt lat="63.85539" lon="20.29702">
        <ele>80.69618</ele>
        <time>2020-09-29T13:06:36.518Z</time>
      </trkpt>
      <trkpt lat="63.85526" lon="20.29691">
        <ele>80.808449</ele>
        <time>2020-09-29T13:06:39.528Z</time>
      </trkpt>
      <trkpt lat="63.85517" lon="20.29686">
        <ele>80.886957</ele>
        <time>2020-09-29T13:06:41.515Z</time>
      </trkpt>
      <trkpt lat="63.85509" lon="20.29681">
        <ele>80.71398</ele>
        <time>2020-09-29T13:06:43.497Z</time>
      </trkpt>
      <trkpt lat="63.85496" lon="20.29674">
        <ele>80.323149</ele>
        <time>2020-09-29T13:06:46.494Z</time>
      </trkpt>
      <trkpt lat="63.85488" lon="20.29669">
        <ele>80.039781</ele>
        <time>2020-09-29T13:06:48.535Z</time>
      </trkpt>
      <trkpt lat="63.85478" lon="20.29665">
        <ele>79.751653</ele>
        <time>2020-09-29T13:06:50.542Z</time>
      </trkpt>
      <trkpt lat="63.85466" lon="20.29659">
        <ele>79.346954</ele>
        <time>2020-09-29T13:06:53.517Z</time>
      </trkpt>
      <trkpt lat="63.85454" lon="20.29654">
        <ele>78.98523</ele>
        <time>2020-09-29T13:06:56.517Z</time>
      </trkpt>
      <trkpt lat="63.85442" lon="20.29649">
        <ele>78.585459</ele>
        <time>2020-09-29T13:06:59.502Z</time>
      </trkpt>
      <trkpt lat="63.85429" lon="20.29646">
        <ele>78.187616</ele>
        <time>2020-09-29T13:07:02.514Z</time>
      </trkpt>
      <trkpt lat="63.85419" lon="20.29641">
        <ele>77.881137</ele>
        <time>2020-09-29T13:07:04.501Z</time>
      </trkpt>
      <trkpt lat="63.8541" lon="20.29635">
        <ele>77.59105</ele>
        <time>2020-09-29T13:07:06.511Z</time>
      </trkpt>
      <trkpt lat="63.85401" lon="20.29632">
        <ele>77.310504</ele>
        <time>2020-09-29T13:07:08.530Z</time>
      </trkpt>
      <trkpt lat="63.85389" lon="20.29625">
        <ele>76.916981</ele>
        <time>2020-09-29T13:07:11.501Z</time>
      </trkpt>
      <trkpt lat="63.85379" lon="20.29618">
        <ele>76.594652</ele>
        <time>2020-09-29T13:07:13.552Z</time>
      </trkpt>
      <trkpt lat="63.85369" lon="20.2961">
        <ele>76.256688</ele>
        <time>2020-09-29T13:07:15.490Z</time>
      </trkpt>
      <trkpt lat="63.85357" lon="20.29603">
        <ele>75.874555</ele>
        <time>2020-09-29T13:07:18.520Z</time>
      </trkpt>
      <trkpt lat="63.85348" lon="20.29598">
        <ele>75.595915</ele>
        <time>2020-09-29T13:07:20.511Z</time>
      </trkpt>
      <trkpt lat="63.85336" lon="20.29591">
        <ele>75.283628</ele>
        <time>2020-09-29T13:07:23.530Z</time>
      </trkpt>
      <trkpt lat="63.85326" lon="20.29586">
        <ele>75.180813</ele>
        <time>2020-09-29T13:07:25.504Z</time>
      </trkpt>
      <trkpt lat="63.85316" lon="20.29574">
        <ele>75.064943</ele>
        <time>2020-09-29T13:07:27.512Z</time>
      </trkpt>
      <trkpt lat="63.8531" lon="20.29546">
        <ele>74.924687</ele>
        <time>2020-09-29T13:07:30.531Z</time>
      </trkpt>
      <trkpt lat="63.85306" lon="20.29521">
        <ele>74.806268</ele>
        <time>2020-09-29T13:07:33.504Z</time>
      </trkpt>
      <trkpt lat="63.85303" lon="20.29499">
        <ele>74.701817</ele>
        <time>2020-09-29T13:07:36.519Z</time>
      </trkpt>
      <trkpt lat="63.853" lon="20.29472">
        <ele>74.58133</ele>
        <time>2020-09-29T13:07:40.580Z</time>
      </trkpt>
      <trkpt lat="63.85299" lon="20.29449">
        <ele>74.477074</ele>
        <time>2020-09-29T13:07:44.506Z</time>
      </trkpt>
      <trkpt lat="63.85294" lon="20.29428">
        <ele>74.37319</ele>
        <time>2020-09-29T13:07:48.530Z</time>
      </trkpt>
      <trkpt lat="63.85288" lon="20.29412">
        <ele>74.274155</ele>
        <time>2020-09-29T13:07:52.502Z</time>
      </trkpt>
      <trkpt lat="63.85278" lon="20.29399">
        <ele>74.159673</ele>
        <time>2020-09-29T13:07:56.533Z</time>
      </trkpt>
      <trkpt lat="63.85269" lon="20.29389">
        <ele>74.065218</ele>
        <time>2020-09-29T13:07:59.537Z</time>
      </trkpt>
      <trkpt lat="63.85259" lon="20.29384">
        <ele>73.954574</ele>
        <time>2020-09-29T13:08:02.508Z</time>
      </trkpt>
      <trkpt lat="63.85247" lon="20.29381">
        <ele>73.839886</ele>
        <time>2020-09-29T13:08:05.517Z</time>
      </trkpt>
      <trkpt lat="63.85235" lon="20.29377">
        <ele>73.717869</ele>
        <time>2020-09-29T13:08:08.522Z</time>
      </trkpt>
      <trkpt lat="63.85224" lon="20.29381">
        <ele>73.600852</ele>
        <time>2020-09-29T13:08:11.536Z</time>
      </trkpt>
      <trkpt lat="63.85215" lon="20.29388">
        <ele>73.504812</ele>
        <time>2020-09-29T13:08:13.498Z</time>
      </trkpt>
      <trkpt lat="63.85205" lon="20.29395">
        <ele>73.491463</ele>
        <time>2020-09-29T13:08:15.512Z</time>
      </trkpt>
      <trkpt lat="63.85196" lon="20.29396">
        <ele>73.47951</ele>
        <time>2020-09-29T13:08:17.513Z</time>
      </trkpt>
      <trkpt lat="63.85185" lon="20.29383">
        <ele>73.463238</ele>
        <time>2020-09-29T13:08:20.507Z</time>
      </trkpt>
      <trkpt lat="63.8518" lon="20.29361">
        <ele>73.448974</ele>
        <time>2020-09-29T13:08:23.538Z</time>
      </trkpt>
      <trkpt lat="63.85176" lon="20.29339">
        <ele>73.435293</ele>
        <time>2020-09-29T13:08:26.519Z</time>
      </trkpt>
      <trkpt lat="63.85168" lon="20.29315">
        <ele>73.418142</ele>
        <time>2020-09-29T13:08:29.535Z</time>
      </trkpt>
      <trkpt lat="63.85161" lon="20.29298">
        <ele>73.404323</ele>
        <time>2020-09-29T13:08:31.522Z</time>
      </trkpt>
      <trkpt lat="63.85153" lon="20.29282">
        <ele>73.389871</ele>
        <time>2020-09-29T13:08:33.506Z</time>
      </trkpt>
      <trkpt lat="63.85144" lon="20.29264">
        <ele>73.374345</ele>
        <time>2020-09-29T13:08:35.519Z</time>
      </trkpt>
      <trkpt lat="63.85134" lon="20.29242">
        <ele>73.356295</ele>
        <time>2020-09-29T13:08:37.513Z</time>
      </trkpt>
      <trkpt lat="63.85123" lon="20.29216">
        <ele>73.335347</ele>
        <time>2020-09-29T13:08:39.524Z</time>
      </trkpt>
      <trkpt lat="63.85111" lon="20.29193">
        <ele>73.314615</ele>
        <time>2020-09-29T13:08:41.519Z</time>
      </trkpt>
      <trkpt lat="63.851" lon="20.29173">
        <ele>73.295729</ele>
        <time>2020-09-29T13:08:43.494Z</time>
      </trkpt>
      <trkpt lat="63.85088" lon="20.29155">
        <ele>73.276928</ele>
        <time>2020-09-29T13:08:45.535Z</time>
      </trkpt>
      <trkpt lat="63.85075" lon="20.29137">
        <ele>72.864838</ele>
        <time>2020-09-29T13:08:47.503Z</time>
      </trkpt>
      <trkpt lat="63.85065" lon="20.29119">
        <ele>72.340169</ele>
        <time>2020-09-29T13:08:49.503Z</time>
      </trkpt>
      <trkpt lat="63.85057" lon="20.29106">
        <ele>71.90838</ele>
        <time>2020-09-29T13:08:51.530Z</time>
      </trkpt>
      <trkpt lat="63.85048" lon="20.29089">
        <ele>71.381842</ele>
        <time>2020-09-29T13:08:54.525Z</time>
      </trkpt>
      <trkpt lat="63.85039" lon="20.29075">
        <ele>70.911932</ele>
        <time>2020-09-29T13:08:57.517Z</time>
      </trkpt>
      <trkpt lat="63.85028" lon="20.29063">
        <ele>70.390556</ele>
        <time>2020-09-29T13:09:00.503Z</time>
      </trkpt>
      <trkpt lat="63.85016" lon="20.29049">
        <ele>69.801113</ele>
        <time>2020-09-29T13:09:03.514Z</time>
      </trkpt>
      <trkpt lat="63.85007" lon="20.29038">
        <ele>69.369537</ele>
        <time>2020-09-29T13:09:05.518Z</time>
      </trkpt>
      <trkpt lat="63.84999" lon="20.29029">
        <ele>68.947735</ele>
        <time>2020-09-29T13:09:07.509Z</time>
      </trkpt>
      <trkpt lat="63.8499" lon="20.29019">
        <ele>68.52928</ele>
        <time>2020-09-29T13:09:09.493Z</time>
      </trkpt>
      <trkpt lat="63.84981" lon="20.2901">
        <ele>68.098194</ele>
        <time>2020-09-29T13:09:11.506Z</time>
      </trkpt>
      <trkpt lat="63.84971" lon="20.29001">
        <ele>67.636895</ele>
        <time>2020-09-29T13:09:13.548Z</time>
      </trkpt>
      <trkpt lat="63.84961" lon="20.28991">
        <ele>67.147317</ele>
        <time>2020-09-29T13:09:15.495Z</time>
      </trkpt>
      <trkpt lat="63.84951" lon="20.28979">
        <ele>66.669361</ele>
        <time>2020-09-29T13:09:17.522Z</time>
      </trkpt>
      <trkpt lat="63.84943" lon="20.28967">
        <ele>66.240938</ele>
        <time>2020-09-29T13:09:19.521Z</time>
      </trkpt>
      <trkpt lat="63.84934" lon="20.28955">
        <ele>65.791446</ele>
        <time>2020-09-29T13:09:21.512Z</time>
      </trkpt>
      <trkpt lat="63.84924" lon="20.28944">
        <ele>65.289744</ele>
        <time>2020-09-29T13:09:23.503Z</time>
      </trkpt>
      <trkpt lat="63.84913" lon="20.28934">
        <ele>64.742626</ele>
        <time>2020-09-29T13:09:25.501Z</time>
      </trkpt>
      <trkpt lat="63.84905" lon="20.28924">
        <ele>64.289359</ele>
        <time>2020-09-29T13:09:27.520Z</time>
      </trkpt>
      <trkpt lat="63.84895" lon="20.28912">
        <ele>63.776992</ele>
        <time>2020-09-29T13:09:29.503Z</time>
      </trkpt>
      <trkpt lat="63.84887" lon="20.28899">
        <ele>63.27709</ele>
        <time>2020-09-29T13:09:31.510Z</time>
      </trkpt>
      <trkpt lat="63.84879" lon="20.28881">
        <ele>62.765929</ele>
        <time>2020-09-29T13:09:33.526Z</time>
      </trkpt>
      <trkpt lat="63.84874" lon="20.28859">
        <ele>62.220348</ele>
        <time>2020-09-29T13:09:35.528Z</time>
      </trkpt>
      <trkpt lat="63.84869" lon="20.28836">
        <ele>61.681454</ele>
        <time>2020-09-29T13:09:37.497Z</time>
      </trkpt>
      <trkpt lat="63.84864" lon="20.28813">
        <ele>61.150849</ele>
        <time>2020-09-29T13:09:39.525Z</time>
      </trkpt>
      <trkpt lat="63.84859" lon="20.28792">
        <ele>60.646024</ele>
        <time>2020-09-29T13:09:41.499Z</time>
      </trkpt>
      <trkpt lat="63.84854" lon="20.2877">
        <ele>60.115214</ele>
        <time>2020-09-29T13:09:43.517Z</time>
      </trkpt>
      <trkpt lat="63.84848" lon="20.28744">
        <ele>59.506412</ele>
        <time>2020-09-29T13:09:45.519Z</time>
      </trkpt>
      <trkpt lat="63.84843" lon="20.28721">
        <ele>58.943554</ele>
        <time>2020-09-29T13:09:47.492Z</time>
      </trkpt>
      <trkpt lat="63.84838" lon="20.28696">
        <ele>58.359041</ele>
        <time>2020-09-29T13:09:49.545Z</time>
      </trkpt>
      <trkpt lat="63.84832" lon="20.28669">
        <ele>57.719743</ele>
        <time>2020-09-29T13:09:51.498Z</time>
      </trkpt>
      <trkpt lat="63.84823" lon="20.2864">
        <ele>56.998106</ele>
        <time>2020-09-29T13:09:53.496Z</time>
      </trkpt>
      <trkpt lat="63.84815" lon="20.2861">
        <ele>56.799282</ele>
        <time>2020-09-29T13:09:55.556Z</time>
      </trkpt>
      <trkpt lat="63.84807" lon="20.28579">
        <ele>56.760873</ele>
        <time>2020-09-29T13:09:57.514Z</time>
      </trkpt>
      <trkpt lat="63.84801" lon="20.2856">
        <ele>56.737482</ele>
        <time>2020-09-29T13:09:58.519Z</time>
      </trkpt>
      <trkpt lat="63.84796" lon="20.2854">
        <ele>56.713448</ele>
        <time>2020-09-29T13:09:59.499Z</time>
      </trkpt>
      <trkpt lat="63.8479" lon="20.2852">
        <ele>56.689414</ele>
        <time>2020-09-29T13:10:00.532Z</time>
      </trkpt>
      <trkpt lat="63.84784" lon="20.28502">
        <ele>56.666003</ele>
        <time>2020-09-29T13:10:01.545Z</time>
      </trkpt>
      <trkpt lat="63.84778" lon="20.28483">
        <ele>56.643168</ele>
        <time>2020-09-29T13:10:02.491Z</time>
      </trkpt>
      <trkpt lat="63.84773" lon="20.28465">
        <ele>56.620034</ele>
        <time>2020-09-29T13:10:03.517Z</time>
      </trkpt>
      <trkpt lat="63.84768" lon="20.28446">
        <ele>56.597625</ele>
        <time>2020-09-29T13:10:04.523Z</time>
      </trkpt>
      <trkpt lat="63.84762" lon="20.28428">
        <ele>56.575388</ele>
        <time>2020-09-29T13:10:05.523Z</time>
      </trkpt>
      <trkpt lat="63.84757" lon="20.2841">
        <ele>56.553535</ele>
        <time>2020-09-29T13:10:06.540Z</time>
      </trkpt>
      <trkpt lat="63.84752" lon="20.28393">
        <ele>56.532066</ele>
        <time>2020-09-29T13:10:07.512Z</time>
      </trkpt>
      <trkpt lat="63.84747" lon="20.28376">
        <ele>56.511103</ele>
        <time>2020-09-29T13:10:08.511Z</time>
      </trkpt>
      <trkpt lat="63.84737" lon="20.28344">
        <ele>56.470364</ele>
        <time>2020-09-29T13:10:10.517Z</time>
      </trkpt>
      <trkpt lat="63.84726" lon="20.28315">
        <ele>56.432123</ele>
        <time>2020-09-29T13:10:12.539Z</time>
      </trkpt>
      <trkpt lat="63.84716" lon="20.2829">
        <ele>56.445563</ele>
        <time>2020-09-29T13:10:14.538Z</time>
      </trkpt>
      <trkpt lat="63.84705" lon="20.28267">
        <ele>56.549482</ele>
        <time>2020-09-29T13:10:16.529Z</time>
      </trkpt>
      <trkpt lat="63.84695" lon="20.28246">
        <ele>56.648848</ele>
        <time>2020-09-29T13:10:18.509Z</time>
      </trkpt>
      <trkpt lat="63.84685" lon="20.28225">
        <ele>56.746266</ele>
        <time>2020-09-29T13:10:20.504Z</time>
      </trkpt>
      <trkpt lat="63.84675" lon="20.28205">
        <ele>56.839865</ele>
        <time>2020-09-29T13:10:22.507Z</time>
      </trkpt>
      <trkpt lat="63.84666" lon="20.28187">
        <ele>56.925748</ele>
        <time>2020-09-29T13:10:24.506Z</time>
      </trkpt>
      <trkpt lat="63.84657" lon="20.28171">
        <ele>57.010137</ele>
        <time>2020-09-29T13:10:26.540Z</time>
      </trkpt>
      <trkpt lat="63.84649" lon="20.28156">
        <ele>57.083196</ele>
        <time>2020-09-29T13:10:28.514Z</time>
      </trkpt>
      <trkpt lat="63.84641" lon="20.28139">
        <ele>57.162149</ele>
        <time>2020-09-29T13:10:31.498Z</time>
      </trkpt>
      <trkpt lat="63.84632" lon="20.28123">
        <ele>57.243879</ele>
        <time>2020-09-29T13:10:34.519Z</time>
      </trkpt>
      <trkpt lat="63.84622" lon="20.28104">
        <ele>57.338842</ele>
        <time>2020-09-29T13:10:37.510Z</time>
      </trkpt>
      <trkpt lat="63.84615" lon="20.28091">
        <ele>57.403106</ele>
        <time>2020-09-29T13:10:39.504Z</time>
      </trkpt>
      <trkpt lat="63.84606" lon="20.28075">
        <ele>57.484504</ele>
        <time>2020-09-29T13:10:42.552Z</time>
      </trkpt>
      <trkpt lat="63.84596" lon="20.28056">
        <ele>57.579065</ele>
        <time>2020-09-29T13:10:45.507Z</time>
      </trkpt>
      <trkpt lat="63.84589" lon="20.2804">
        <ele>57.648806</ele>
        <time>2020-09-29T13:10:47.515Z</time>
      </trkpt>
      <trkpt lat="63.84582" lon="20.28023">
        <ele>57.617361</ele>
        <time>2020-09-29T13:10:49.545Z</time>
      </trkpt>
      <trkpt lat="63.84574" lon="20.28006">
        <ele>57.380853</ele>
        <time>2020-09-29T13:10:51.502Z</time>
      </trkpt>
      <trkpt lat="63.84567" lon="20.27987">
        <ele>57.129763</ele>
        <time>2020-09-29T13:10:53.524Z</time>
      </trkpt>
      <trkpt lat="63.84558" lon="20.27966">
        <ele>56.850623</ele>
        <time>2020-09-29T13:10:55.502Z</time>
      </trkpt>
      <trkpt lat="63.84548" lon="20.27944">
        <ele>56.538134</ele>
        <time>2020-09-29T13:10:57.532Z</time>
      </trkpt>
      <trkpt lat="63.84539" lon="20.27923">
        <ele>56.243437</ele>
        <time>2020-09-29T13:10:59.534Z</time>
      </trkpt>
      <trkpt lat="63.84531" lon="20.27904">
        <ele>55.983972</ele>
        <time>2020-09-29T13:11:01.518Z</time>
      </trkpt>
      <trkpt lat="63.84522" lon="20.27885">
        <ele>55.712492</ele>
        <time>2020-09-29T13:11:03.503Z</time>
      </trkpt>
      <trkpt lat="63.84512" lon="20.27862">
        <ele>55.392919</ele>
        <time>2020-09-29T13:11:05.517Z</time>
      </trkpt>
      <trkpt lat="63.84503" lon="20.27836">
        <ele>55.079385</ele>
        <time>2020-09-29T13:11:07.508Z</time>
      </trkpt>
      <trkpt lat="63.84494" lon="20.27807">
        <ele>54.719964</ele>
        <time>2020-09-29T13:11:09.502Z</time>
      </trkpt>
      <trkpt lat="63.84482" lon="20.27781">
        <ele>54.355924</ele>
        <time>2020-09-29T13:11:11.517Z</time>
      </trkpt>
      <trkpt lat="63.84469" lon="20.27759">
        <ele>53.985834</ele>
        <time>2020-09-29T13:11:13.519Z</time>
      </trkpt>
      <trkpt lat="63.84454" lon="20.27738">
        <ele>53.572692</ele>
        <time>2020-09-29T13:11:15.509Z</time>
      </trkpt>
      <trkpt lat="63.84439" lon="20.27722">
        <ele>53.056472</ele>
        <time>2020-09-29T13:11:17.527Z</time>
      </trkpt>
      <trkpt lat="63.84425" lon="20.27709">
        <ele>52.579489</ele>
        <time>2020-09-29T13:11:19.494Z</time>
      </trkpt>
      <trkpt lat="63.84412" lon="20.27698">
        <ele>52.162033</ele>
        <time>2020-09-29T13:11:21.502Z</time>
      </trkpt>
      <trkpt lat="63.84402" lon="20.27693">
        <ele>51.82668</ele>
        <time>2020-09-29T13:11:23.530Z</time>
      </trkpt>
      <trkpt lat="63.84393" lon="20.27686">
        <ele>51.532029</ele>
        <time>2020-09-29T13:11:25.502Z</time>
      </trkpt>
      <trkpt lat="63.84382" lon="20.27677">
        <ele>51.177838</ele>
        <time>2020-09-29T13:11:27.537Z</time>
      </trkpt>
      <trkpt lat="63.84372" lon="20.27667">
        <ele>50.840099</ele>
        <time>2020-09-29T13:11:29.501Z</time>
      </trkpt>
      <trkpt lat="63.84363" lon="20.27654">
        <ele>50.503854</ele>
        <time>2020-09-29T13:11:31.511Z</time>
      </trkpt>
      <trkpt lat="63.84351" lon="20.2764">
        <ele>50.078557</ele>
        <time>2020-09-29T13:11:33.548Z</time>
      </trkpt>
      <trkpt lat="63.84339" lon="20.27626">
        <ele>49.649871</ele>
        <time>2020-09-29T13:11:35.515Z</time>
      </trkpt>
      <trkpt lat="63.84325" lon="20.27609">
        <ele>49.169599</ele>
        <time>2020-09-29T13:11:37.500Z</time>
      </trkpt>
      <trkpt lat="63.84311" lon="20.27586">
        <ele>48.620578</ele>
        <time>2020-09-29T13:11:39.503Z</time>
      </trkpt>
      <trkpt lat="63.84304" lon="20.27572">
        <ele>48.341312</ele>
        <time>2020-09-29T13:11:40.500Z</time>
      </trkpt>
      <trkpt lat="63.84292" lon="20.27544">
        <ele>47.984153</ele>
        <time>2020-09-29T13:11:42.543Z</time>
      </trkpt>
      <trkpt lat="63.84281" lon="20.27521">
        <ele>47.789627</ele>
        <time>2020-09-29T13:11:44.552Z</time>
      </trkpt>
      <trkpt lat="63.84269" lon="20.27504">
        <ele>47.604245</ele>
        <time>2020-09-29T13:11:46.495Z</time>
      </trkpt>
      <trkpt lat="63.84258" lon="20.27494">
        <ele>47.456622</ele>
        <time>2020-09-29T13:11:48.527Z</time>
      </trkpt>
      <trkpt lat="63.84247" lon="20.27488">
        <ele>47.317192</ele>
        <time>2020-09-29T13:11:50.515Z</time>
      </trkpt>
      <trkpt lat="63.84235" lon="20.27482">
        <ele>47.158508</ele>
        <time>2020-09-29T13:11:52.530Z</time>
      </trkpt>
      <trkpt lat="63.84222" lon="20.27475">
        <ele>46.986577</ele>
        <time>2020-09-29T13:11:54.508Z</time>
      </trkpt>
      <trkpt lat="63.84208" lon="20.27469">
        <ele>46.805822</ele>
        <time>2020-09-29T13:11:56.504Z</time>
      </trkpt>
      <trkpt lat="63.84196" lon="20.27463">
        <ele>46.640995</ele>
        <time>2020-09-29T13:11:58.518Z</time>
      </trkpt>
      <trkpt lat="63.84185" lon="20.27456">
        <ele>46.496707</ele>
        <time>2020-09-29T13:12:00.537Z</time>
      </trkpt>
      <trkpt lat="63.84173" lon="20.27448">
        <ele>46.342878</ele>
        <time>2020-09-29T13:12:02.521Z</time>
      </trkpt>
      <trkpt lat="63.84162" lon="20.2744">
        <ele>46.186931</ele>
        <time>2020-09-29T13:12:04.539Z</time>
      </trkpt>
      <trkpt lat="63.84151" lon="20.27433">
        <ele>46.042135</ele>
        <time>2020-09-29T13:12:06.515Z</time>
      </trkpt>
      <trkpt lat="63.8414" lon="20.27428">
        <ele>45.903225</ele>
        <time>2020-09-29T13:12:08.535Z</time>
      </trkpt>
      <trkpt lat="63.8413" lon="20.27424">
        <ele>45.87559</ele>
        <time>2020-09-29T13:12:10.515Z</time>
      </trkpt>
      <trkpt lat="63.84118" lon="20.27421">
        <ele>46.156926</ele>
        <time>2020-09-29T13:12:12.500Z</time>
      </trkpt>
      <trkpt lat="63.84106" lon="20.2742">
        <ele>46.424821</ele>
        <time>2020-09-29T13:12:14.499Z</time>
      </trkpt>
      <trkpt lat="63.84094" lon="20.27419">
        <ele>46.702094</ele>
        <time>2020-09-29T13:12:16.511Z</time>
      </trkpt>
      <trkpt lat="63.84083" lon="20.27419">
        <ele>46.967553</ele>
        <time>2020-09-29T13:12:18.506Z</time>
      </trkpt>
      <trkpt lat="63.84073" lon="20.27416">
        <ele>47.207041</ele>
        <time>2020-09-29T13:12:20.522Z</time>
      </trkpt>
      <trkpt lat="63.84063" lon="20.2741">
        <ele>47.429104</ele>
        <time>2020-09-29T13:12:22.530Z</time>
      </trkpt>
      <trkpt lat="63.84054" lon="20.27403">
        <ele>47.666846</ele>
        <time>2020-09-29T13:12:24.534Z</time>
      </trkpt>
      <trkpt lat="63.84044" lon="20.27396">
        <ele>47.913668</ele>
        <time>2020-09-29T13:12:26.532Z</time>
      </trkpt>
      <trkpt lat="63.84035" lon="20.27387">
        <ele>48.126226</ele>
        <time>2020-09-29T13:12:28.512Z</time>
      </trkpt>
      <trkpt lat="63.84027" lon="20.27378">
        <ele>48.346413</ele>
        <time>2020-09-29T13:12:30.499Z</time>
      </trkpt>
      <trkpt lat="63.84017" lon="20.27369">
        <ele>48.586745</ele>
        <time>2020-09-29T13:12:32.513Z</time>
      </trkpt>
      <trkpt lat="63.84008" lon="20.27364">
        <ele>48.805884</ele>
        <time>2020-09-29T13:12:34.507Z</time>
      </trkpt>
      <trkpt lat="63.83997" lon="20.27362">
        <ele>49.063736</ele>
        <time>2020-09-29T13:12:36.533Z</time>
      </trkpt>
      <trkpt lat="63.83985" lon="20.27355">
        <ele>49.350305</ele>
        <time>2020-09-29T13:12:38.518Z</time>
      </trkpt>
      <trkpt lat="63.83973" lon="20.27348">
        <ele>49.636204</ele>
        <time>2020-09-29T13:12:40.526Z</time>
      </trkpt>
      <trkpt lat="63.83962" lon="20.2734">
        <ele>49.902334</ele>
        <time>2020-09-29T13:12:42.528Z</time>
      </trkpt>
      <trkpt lat="63.83952" lon="20.27334">
        <ele>49.714927</ele>
        <time>2020-09-29T13:12:44.493Z</time>
      </trkpt>
      <trkpt lat="63.83941" lon="20.2733">
        <ele>49.255177</ele>
        <time>2020-09-29T13:12:46.510Z</time>
      </trkpt>
      <trkpt lat="63.83929" lon="20.27326">
        <ele>48.776247</ele>
        <time>2020-09-29T13:12:48.543Z</time>
      </trkpt>
      <trkpt lat="63.83917" lon="20.27324">
        <ele>48.263386</ele>
        <time>2020-09-29T13:12:50.524Z</time>
      </trkpt>
      <trkpt lat="63.83906" lon="20.27321">
        <ele>47.818517</ele>
        <time>2020-09-29T13:12:52.517Z</time>
      </trkpt>
      <trkpt lat="63.83896" lon="20.27317">
        <ele>47.420489</ele>
        <time>2020-09-29T13:12:54.521Z</time>
      </trkpt>
      <trkpt lat="63.83884" lon="20.27311">
        <ele>46.897081</ele>
        <time>2020-09-29T13:12:56.521Z</time>
      </trkpt>
      <trkpt lat="63.8387" lon="20.27301">
        <ele>46.30824</ele>
        <time>2020-09-29T13:12:58.520Z</time>
      </trkpt>
      <trkpt lat="63.83858" lon="20.27289">
        <ele>45.776971</ele>
        <time>2020-09-29T13:13:00.529Z</time>
      </trkpt>
      <trkpt lat="63.83848" lon="20.27275">
        <ele>45.277858</ele>
        <time>2020-09-29T13:13:02.525Z</time>
      </trkpt>
      <trkpt lat="63.83838" lon="20.27263">
        <ele>44.817832</ele>
        <time>2020-09-29T13:13:04.517Z</time>
      </trkpt>
      <trkpt lat="63.83828" lon="20.2725">
        <ele>44.349739</ele>
        <time>2020-09-29T13:13:06.499Z</time>
      </trkpt>
      <trkpt lat="63.83817" lon="20.27234">
        <ele>43.830269</ele>
        <time>2020-09-29T13:13:08.553Z</time>
      </trkpt>
      <trkpt lat="63.83806" lon="20.27215">
        <ele>43.261368</ele>
        <time>2020-09-29T13:13:10.511Z</time>
      </trkpt>
      <trkpt lat="63.83795" lon="20.27197">
        <ele>42.690473</ele>
        <time>2020-09-29T13:13:12.523Z</time>
      </trkpt>
      <trkpt lat="63.83783" lon="20.2718">
        <ele>42.387139</ele>
        <time>2020-09-29T13:13:14.494Z</time>
      </trkpt>
      <trkpt lat="63.83772" lon="20.2716">
        <ele>42.092308</ele>
        <time>2020-09-29T13:13:16.540Z</time>
      </trkpt>
      <trkpt lat="63.83766" lon="20.27133">
        <ele>41.833181</ele>
        <time>2020-09-29T13:13:18.525Z</time>
      </trkpt>
      <trkpt lat="63.83762" lon="20.27108">
        <ele>41.594156</ele>
        <time>2020-09-29T13:13:20.518Z</time>
      </trkpt>
      <trkpt lat="63.83759" lon="20.27085">
        <ele>41.380956</ele>
        <time>2020-09-29T13:13:22.493Z</time>
      </trkpt>
      <trkpt lat="63.83755" lon="20.27064">
        <ele>41.179624</ele>
        <time>2020-09-29T13:13:24.512Z</time>
      </trkpt>
      <trkpt lat="63.83752" lon="20.27043">
        <ele>40.983955</ele>
        <time>2020-09-29T13:13:26.519Z</time>
      </trkpt>
      <trkpt lat="63.83746" lon="20.27024">
        <ele>40.774895</ele>
        <time>2020-09-29T13:13:28.499Z</time>
      </trkpt>
      <trkpt lat="63.83738" lon="20.27004">
        <ele>40.538573</ele>
        <time>2020-09-29T13:13:30.510Z</time>
      </trkpt>
      <trkpt lat="63.83728" lon="20.26986">
        <ele>40.285811</ele>
        <time>2020-09-29T13:13:32.507Z</time>
      </trkpt>
      <trkpt lat="63.83718" lon="20.2697">
        <ele>40.039037</ele>
        <time>2020-09-29T13:13:34.502Z</time>
      </trkpt>
      <trkpt lat="63.83709" lon="20.26957">
        <ele>39.829622</ele>
        <time>2020-09-29T13:13:36.505Z</time>
      </trkpt>
      <trkpt lat="63.83698" lon="20.26948">
        <ele>39.583642</ele>
        <time>2020-09-29T13:13:38.544Z</time>
      </trkpt>
      <trkpt lat="63.83686" lon="20.26944">
        <ele>39.34593</ele>
        <time>2020-09-29T13:13:40.492Z</time>
      </trkpt>
      <trkpt lat="63.83675" lon="20.26945">
        <ele>39.122541</ele>
        <time>2020-09-29T13:13:42.524Z</time>
      </trkpt>
      <trkpt lat="63.83665" lon="20.26943">
        <ele>39.08684</ele>
        <time>2020-09-29T13:13:44.509Z</time>
      </trkpt>
      <trkpt lat="63.83655" lon="20.26938">
        <ele>39.223079</ele>
        <time>2020-09-29T13:13:46.525Z</time>
      </trkpt>
      <trkpt lat="63.83645" lon="20.26933">
        <ele>39.370012</ele>
        <time>2020-09-29T13:13:48.512Z</time>
      </trkpt>
      <trkpt lat="63.83636" lon="20.26927">
        <ele>39.507012</ele>
        <time>2020-09-29T13:13:50.521Z</time>
      </trkpt>
      <trkpt lat="63.83624" lon="20.26916">
        <ele>39.685265</ele>
        <time>2020-09-29T13:13:53.530Z</time>
      </trkpt>
      <trkpt lat="63.83614" lon="20.26901">
        <ele>39.848316</ele>
        <time>2020-09-29T13:13:56.520Z</time>
      </trkpt>
      <trkpt lat="63.83605" lon="20.26883">
        <ele>40.013174</ele>
        <time>2020-09-29T13:13:59.525Z</time>
      </trkpt>
      <trkpt lat="63.83596" lon="20.26865">
        <ele>40.175359</ele>
        <time>2020-09-29T13:14:02.515Z</time>
      </trkpt>
      <trkpt lat="63.83588" lon="20.26849">
        <ele>40.330977</ele>
        <time>2020-09-29T13:14:05.555Z</time>
      </trkpt>
      <trkpt lat="63.83579" lon="20.26834">
        <ele>40.480963</ele>
        <time>2020-09-29T13:14:08.507Z</time>
      </trkpt>
      <trkpt lat="63.83571" lon="20.2682">
        <ele>40.625836</ele>
        <time>2020-09-29T13:14:11.529Z</time>
      </trkpt>
      <trkpt lat="63.83563" lon="20.26807">
        <ele>40.765145</ele>
        <time>2020-09-29T13:14:14.527Z</time>
      </trkpt>
      <trkpt lat="63.83554" lon="20.26792">
        <ele>40.915131</ele>
        <time>2020-09-29T13:14:17.514Z</time>
      </trkpt>
      <trkpt lat="63.83545" lon="20.26776">
        <ele>41.076928</ele>
        <time>2020-09-29T13:14:20.499Z</time>
      </trkpt>
      <trkpt lat="63.83536" lon="20.26758">
        <ele>41.24098</ele>
        <time>2020-09-29T13:14:23.530Z</time>
      </trkpt>
      <trkpt lat="63.83527" lon="20.2674">
        <ele>41.402151</ele>
        <time>2020-09-29T13:14:26.524Z</time>
      </trkpt>
      <trkpt lat="63.83518" lon="20.2672">
        <ele>41.410258</ele>
        <time>2020-09-29T13:14:29.504Z</time>
      </trkpt>
      <trkpt lat="63.83511" lon="20.26707">
        <ele>41.216162</ele>
        <time>2020-09-29T13:14:31.511Z</time>
      </trkpt>
      <trkpt lat="63.83504" lon="20.26693">
        <ele>41.017265</ele>
        <time>2020-09-29T13:14:33.507Z</time>
      </trkpt>
      <trkpt lat="63.83497" lon="20.26678">
        <ele>40.814033</ele>
        <time>2020-09-29T13:14:35.524Z</time>
      </trkpt>
      <trkpt lat="63.8349" lon="20.26663">
        <ele>40.60387</ele>
        <time>2020-09-29T13:14:37.546Z</time>
      </trkpt>
      <trkpt lat="63.83482" lon="20.26649">
        <ele>40.395117</ele>
        <time>2020-09-29T13:14:39.501Z</time>
      </trkpt>
      <trkpt lat="63.83475" lon="20.26635">
        <ele>40.185065</ele>
        <time>2020-09-29T13:14:41.497Z</time>
      </trkpt>
      <trkpt lat="63.83466" lon="20.26622">
        <ele>39.963453</ele>
        <time>2020-09-29T13:14:43.544Z</time>
      </trkpt>
      <trkpt lat="63.83456" lon="20.26607">
        <ele>39.71048</ele>
        <time>2020-09-29T13:14:45.520Z</time>
      </trkpt>
      <trkpt lat="63.83446" lon="20.26591">
        <ele>39.455392</ele>
        <time>2020-09-29T13:14:47.523Z</time>
      </trkpt>
      <trkpt lat="63.83438" lon="20.26576">
        <ele>39.227395</ele>
        <time>2020-09-29T13:14:49.501Z</time>
      </trkpt>
      <trkpt lat="63.8343" lon="20.26561">
        <ele>39.010869</ele>
        <time>2020-09-29T13:14:51.503Z</time>
      </trkpt>
      <trkpt lat="63.83422" lon="20.26545">
        <ele>38.786447</ele>
        <time>2020-09-29T13:14:53.519Z</time>
      </trkpt>
      <trkpt lat="63.83414" lon="20.2653">
        <ele>38.566197</ele>
        <time>2020-09-29T13:14:55.545Z</time>
      </trkpt>
      <trkpt lat="63.83407" lon="20.26514">
        <ele>38.352563</ele>
        <time>2020-09-29T13:14:57.514Z</time>
      </trkpt>
      <trkpt lat="63.83399" lon="20.26499">
        <ele>38.132958</ele>
        <time>2020-09-29T13:14:59.546Z</time>
      </trkpt>
      <trkpt lat="63.83391" lon="20.26485">
        <ele>37.915706</ele>
        <time>2020-09-29T13:15:01.525Z</time>
      </trkpt>
      <trkpt lat="63.83384" lon="20.2647">
        <ele>37.705213</ele>
        <time>2020-09-29T13:15:03.504Z</time>
      </trkpt>
      <trkpt lat="63.83376" lon="20.26455">
        <ele>37.825732</ele>
        <time>2020-09-29T13:15:05.508Z</time>
      </trkpt>
      <trkpt lat="63.83371" lon="20.26439">
        <ele>37.975196</ele>
        <time>2020-09-29T13:15:07.512Z</time>
      </trkpt>
      <trkpt lat="63.83365" lon="20.26422">
        <ele>38.123278</ele>
        <time>2020-09-29T13:15:09.503Z</time>
      </trkpt>
      <trkpt lat="63.83359" lon="20.26404">
        <ele>38.276505</ele>
        <time>2020-09-29T13:15:11.533Z</time>
      </trkpt>
      <trkpt lat="63.83353" lon="20.26387">
        <ele>38.434788</ele>
        <time>2020-09-29T13:15:13.524Z</time>
      </trkpt>
      <trkpt lat="63.83347" lon="20.26368">
        <ele>38.601367</ele>
        <time>2020-09-29T13:15:15.531Z</time>
      </trkpt>
      <trkpt lat="63.83342" lon="20.26348">
        <ele>38.769424</ele>
        <time>2020-09-29T13:15:17.531Z</time>
      </trkpt>
      <trkpt lat="63.83336" lon="20.26327">
        <ele>38.935713</ele>
        <time>2020-09-29T13:15:19.499Z</time>
      </trkpt>
      <trkpt lat="63.83331" lon="20.26308">
        <ele>39.09632</ele>
        <time>2020-09-29T13:15:21.529Z</time>
      </trkpt>
      <trkpt lat="63.83327" lon="20.26287">
        <ele>39.253234</ele>
        <time>2020-09-29T13:15:23.510Z</time>
      </trkpt>
      <trkpt lat="63.83323" lon="20.26269">
        <ele>39.406363</ele>
        <time>2020-09-29T13:15:25.517Z</time>
      </trkpt>
      <trkpt lat="63.83319" lon="20.2625">
        <ele>39.553627</ele>
        <time>2020-09-29T13:15:27.521Z</time>
      </trkpt>
      <trkpt lat="63.83316" lon="20.26223">
        <ele>39.750431</ele>
        <time>2020-09-29T13:15:30.545Z</time>
      </trkpt>
      <trkpt lat="63.83319" lon="20.26202">
        <ele>39.90937</ele>
        <time>2020-09-29T13:15:33.520Z</time>
      </trkpt>
      <trkpt lat="63.83329" lon="20.2619">
        <ele>40.07609</ele>
        <time>2020-09-29T13:15:37.506Z</time>
      </trkpt>
      <trkpt lat="63.83336" lon="20.26172">
        <ele>40.250343</ele>
        <time>2020-09-29T13:15:42.510Z</time>
      </trkpt>
      <trkpt lat="63.83332" lon="20.26139">
        <ele>40.497026</ele>
        <time>2020-09-29T13:20:11.498Z</time>
      </trkpt>
      <trkpt lat="63.83327" lon="20.2612">
        <ele>40.603584</ele>
        <time>2020-09-29T13:20:18.496Z</time>
      </trkpt>
      <trkpt lat="63.8332" lon="20.26102">
        <ele>40.677741</ele>
        <time>2020-09-29T13:20:27.503Z</time>
      </trkpt>
      <trkpt lat="63.83317" lon="20.2608">
        <ele>40.750789</ele>
        <time>2020-09-29T13:20:35.492Z</time>
      </trkpt>
      <trkpt lat="63.83312" lon="20.2606">
        <ele>40.825238</ele>
        <time>2020-09-29T13:20:45.541Z</time>
      </trkpt>
      <trkpt lat="63.83305" lon="20.26045">
        <ele>40.895927</ele>
        <time>2020-09-29T13:20:53.530Z</time>
      </trkpt>
      <trkpt lat="63.83297" lon="20.26031">
        <ele>40.966739</ele>
        <time>2020-09-29T13:20:59.498Z</time>
      </trkpt>
      <trkpt lat="63.83291" lon="20.26014">
        <ele>41.039297</ele>
        <time>2020-09-29T13:21:06.521Z</time>
      </trkpt>
      <trkpt lat="63.83284" lon="20.25998">
        <ele>41.111762</ele>
        <time>2020-09-29T13:21:15.511Z</time>
      </trkpt>
      <trkpt lat="63.83276" lon="20.25983">
        <ele>41.183733</ele>
        <time>2020-09-29T13:21:22.508Z</time>
      </trkpt>
      <trkpt lat="63.83269" lon="20.25967">
        <ele>41.256876</ele>
        <time>2020-09-29T13:21:31.506Z</time>
      </trkpt>
      <trkpt lat="63.83262" lon="20.25949">
        <ele>41.331822</ele>
        <time>2020-09-29T13:21:39.502Z</time>
      </trkpt>
      <trkpt lat="63.83256" lon="20.25933">
        <ele>41.403949</ele>
        <time>2020-09-29T13:21:45.507Z</time>
      </trkpt>
      <trkpt lat="63.83249" lon="20.25916">
        <ele>41.476771</ele>
        <time>2020-09-29T13:21:54.510Z</time>
      </trkpt>
      <trkpt lat="63.83242" lon="20.259">
        <ele>41.546186</ele>
        <time>2020-09-29T13:22:02.514Z</time>
      </trkpt>
      <trkpt lat="63.83236" lon="20.25886">
        <ele>41.612133</ele>
        <time>2020-09-29T13:22:10.497Z</time>
      </trkpt>
      <trkpt lat="63.83228" lon="20.25871">
        <ele>41.684539</ele>
        <time>2020-09-29T13:22:19.511Z</time>
      </trkpt>
      <trkpt lat="63.83222" lon="20.25855">
        <ele>41.750355</ele>
        <time>2020-09-29T13:22:27.512Z</time>
      </trkpt>
      <trkpt lat="63.83216" lon="20.25839">
        <ele>41.820487</ele>
        <time>2020-09-29T13:22:36.506Z</time>
      </trkpt>
      <trkpt lat="63.8321" lon="20.25823">
        <ele>41.844445</ele>
        <time>2020-09-29T13:22:44.508Z</time>
      </trkpt>
      <trkpt lat="63.83204" lon="20.25805">
        <ele>41.75617</ele>
        <time>2020-09-29T13:22:52.506Z</time>
      </trkpt>
      <trkpt lat="63.83198" lon="20.25789">
        <ele>41.668407</ele>
        <time>2020-09-29T13:23:00.511Z</time>
      </trkpt>
      <trkpt lat="63.83198" lon="20.25767">
        <ele>41.578322</ele>
        <time>2020-09-29T13:23:09.505Z</time>
      </trkpt>
      <trkpt lat="63.83205" lon="20.25751">
        <ele>41.487636</ele>
        <time>2020-09-29T13:23:17.505Z</time>
      </trkpt>
      <trkpt lat="63.83214" lon="20.2575">
        <ele>41.403519</ele>
        <time>2020-09-29T13:23:25.542Z</time>
      </trkpt>
      <trkpt lat="63.83222" lon="20.25762">
        <ele>41.311586</ele>
        <time>2020-09-29T13:23:33.505Z</time>
      </trkpt>
      <trkpt lat="63.83225" lon="20.25782">
        <ele>41.226326</ele>
        <time>2020-09-29T13:23:41.510Z</time>
      </trkpt>
      <trkpt lat="63.83221" lon="20.25803">
        <ele>41.132955</ele>
        <time>2020-09-29T13:23:48.515Z</time>
      </trkpt>
      <trkpt lat="63.83214" lon="20.25817">
        <ele>41.043849</ele>
        <time>2020-09-29T13:23:56.514Z</time>
      </trkpt>
      <trkpt lat="63.83204" lon="20.25822">
        <ele>40.954698</ele>
        <time>2020-09-29T13:24:04.516Z</time>
      </trkpt>
      <trkpt lat="63.83195" lon="20.25818">
        <ele>40.862738</ele>
        <time>2020-09-29T13:24:12.503Z</time>
      </trkpt>
      <trkpt lat="63.83187" lon="20.25806">
        <ele>40.776161</ele>
        <time>2020-09-29T13:24:21.502Z</time>
      </trkpt>
      <trkpt lat="63.83185" lon="20.25785">
        <ele>40.68748</ele>
        <time>2020-09-29T13:24:29.514Z</time>
      </trkpt>
      <trkpt lat="63.83187" lon="20.25764">
        <ele>40.595659</ele>
        <time>2020-09-29T13:24:37.509Z</time>
      </trkpt>
      <trkpt lat="63.83191" lon="20.25739">
        <ele>40.48774</ele>
        <time>2020-09-29T13:25:32.533Z</time>
      </trkpt>
      <trkpt lat="63.83196" lon="20.25721">
        <ele>40.399387</ele>
        <time>2020-09-29T13:25:38.517Z</time>
      </trkpt>
      <trkpt lat="63.83202" lon="20.25702">
        <ele>40.306213</ele>
        <time>2020-09-29T13:25:44.505Z</time>
      </trkpt>
      <trkpt lat="63.83207" lon="20.25681">
        <ele>40.20811</ele>
        <time>2020-09-29T13:25:52.507Z</time>
      </trkpt>
      <trkpt lat="63.83213" lon="20.25663">
        <ele>40.762349</ele>
        <time>2020-09-29T13:26:00.501Z</time>
      </trkpt>
      <trkpt lat="63.8322" lon="20.25643">
        <ele>41.568364</ele>
        <time>2020-09-29T13:26:07.501Z</time>
      </trkpt>
      <trkpt lat="63.83225" lon="20.25624">
        <ele>42.268574</ele>
        <time>2020-09-29T13:26:14.511Z</time>
      </trkpt>
      <trkpt lat="63.83232" lon="20.25608">
        <ele>42.956888</ele>
        <time>2020-09-29T13:26:23.489Z</time>
      </trkpt>
      <trkpt lat="63.83234" lon="20.25587">
        <ele>43.618961</ele>
        <time>2020-09-29T13:26:32.523Z</time>
      </trkpt>
      <trkpt lat="63.8325" lon="20.25574">
        <ele>44.825587</ele>
        <time>2020-09-29T13:27:26.522Z</time>
      </trkpt>
      <trkpt lat="63.83257" lon="20.25559">
        <ele>45.534542</ele>
        <time>2020-09-29T13:27:33.511Z</time>
      </trkpt>
      <trkpt lat="63.83258" lon="20.25536">
        <ele>46.242651</ele>
        <time>2020-09-29T13:27:40.516Z</time>
      </trkpt>
      <trkpt lat="63.83252" lon="20.25521">
        <ele>46.886401</ele>
        <time>2020-09-29T13:27:48.511Z</time>
      </trkpt>
      <trkpt lat="63.83243" lon="20.25517">
        <ele>47.524297</ele>
        <time>2020-09-29T13:28:00.499Z</time>
      </trkpt>
      <trkpt lat="63.83234" lon="20.25509">
        <ele>48.181974</ele>
        <time>2020-09-29T13:28:05.504Z</time>
      </trkpt>
      <trkpt lat="63.83226" lon="20.25503">
        <ele>48.839131</ele>
        <time>2020-09-29T13:28:11.513Z</time>
      </trkpt>
      <trkpt lat="63.83216" lon="20.25499">
        <ele>49.537043</ele>
        <time>2020-09-29T13:28:18.528Z</time>
      </trkpt>
      <trkpt lat="63.83206" lon="20.25495">
        <ele>50.239436</ele>
        <time>2020-09-29T13:28:24.510Z</time>
      </trkpt>
      <trkpt lat="63.83198" lon="20.25485">
        <ele>50.908276</ele>
        <time>2020-09-29T13:28:31.512Z</time>
      </trkpt>
      <trkpt lat="63.83189" lon="20.25472">
        <ele>51.626917</ele>
        <time>2020-09-29T13:28:38.488Z</time>
      </trkpt>
      <trkpt lat="63.83181" lon="20.25463">
        <ele>52.273003</ele>
        <time>2020-09-29T13:28:44.523Z</time>
      </trkpt>
      <trkpt lat="63.83172" lon="20.25456">
        <ele>52.974592</ele>
        <time>2020-09-29T13:28:50.526Z</time>
      </trkpt>
      <trkpt lat="63.83163" lon="20.25446">
        <ele>53.32917</ele>
        <time>2020-09-29T13:28:57.503Z</time>
      </trkpt>
      <trkpt lat="63.83156" lon="20.25436">
        <ele>53.672916</ele>
        <time>2020-09-29T13:29:03.498Z</time>
      </trkpt>
      <trkpt lat="63.83148" lon="20.25422">
        <ele>54.026583</ele>
        <time>2020-09-29T13:29:12.498Z</time>
      </trkpt>
      <trkpt lat="63.83139" lon="20.25423">
        <ele>54.36953</ele>
        <time>2020-09-29T13:29:23.510Z</time>
      </trkpt>
      <trkpt lat="63.83131" lon="20.25406">
        <ele>54.792767</ele>
        <time>2020-09-29T13:30:15.584Z</time>
      </trkpt>
      <trkpt lat="63.8312" lon="20.25406">
        <ele>55.204148</ele>
        <time>2020-09-29T13:30:22.495Z</time>
      </trkpt>
      <trkpt lat="63.8311" lon="20.25401">
        <ele>55.601925</ele>
        <time>2020-09-29T13:30:27.505Z</time>
      </trkpt>
      <trkpt lat="63.83102" lon="20.25392">
        <ele>55.957918</ele>
        <time>2020-09-29T13:30:33.503Z</time>
      </trkpt>
      <trkpt lat="63.83092" lon="20.25382">
        <ele>56.346371</ele>
        <time>2020-09-29T13:30:41.500Z</time>
      </trkpt>
      <trkpt lat="63.83084" lon="20.25375">
        <ele>56.688529</ele>
        <time>2020-09-29T13:30:48.498Z</time>
      </trkpt>
      <trkpt lat="63.83075" lon="20.25369">
        <ele>57.032198</ele>
        <time>2020-09-29T13:30:55.494Z</time>
      </trkpt>
      <trkpt lat="63.83066" lon="20.25365">
        <ele>57.401456</ele>
        <time>2020-09-29T13:31:02.505Z</time>
      </trkpt>
      <trkpt lat="63.83058" lon="20.25354">
        <ele>57.765152</ele>
        <time>2020-09-29T13:31:10.513Z</time>
      </trkpt>
      <trkpt lat="63.83049" lon="20.25344">
        <ele>58.137783</ele>
        <time>2020-09-29T13:31:16.504Z</time>
      </trkpt>
      <trkpt lat="63.8304" lon="20.25335">
        <ele>58.512383</ele>
        <time>2020-09-29T13:31:22.501Z</time>
      </trkpt>
      <trkpt lat="63.83031" lon="20.25326">
        <ele>58.880026</ele>
        <time>2020-09-29T13:31:30.511Z</time>
      </trkpt>
      <trkpt lat="63.83021" lon="20.25324">
        <ele>59.251444</ele>
        <time>2020-09-29T13:31:41.513Z</time>
      </trkpt>
      <trkpt lat="63.83011" lon="20.25317">
        <ele>59.65772</ele>
        <time>2020-09-29T13:31:48.498Z</time>
      </trkpt>
      <trkpt lat="63.83002" lon="20.25311">
        <ele>59.386211</ele>
        <time>2020-09-29T13:31:53.518Z</time>
      </trkpt>
      <trkpt lat="63.82993" lon="20.253">
        <ele>58.636053</ele>
        <time>2020-09-29T13:31:59.491Z</time>
      </trkpt>
      <trkpt lat="63.82984" lon="20.25292">
        <ele>57.933045</ele>
        <time>2020-09-29T13:32:05.502Z</time>
      </trkpt>
      <trkpt lat="63.82975" lon="20.25282">
        <ele>57.185567</ele>
        <time>2020-09-29T13:32:12.500Z</time>
      </trkpt>
      <trkpt lat="63.82966" lon="20.25277">
        <ele>56.489527</ele>
        <time>2020-09-29T13:32:22.490Z</time>
      </trkpt>
      <trkpt lat="63.82956" lon="20.25282">
        <ele>55.746895</ele>
        <time>2020-09-29T13:32:32.533Z</time>
      </trkpt>
      <trkpt lat="63.82952" lon="20.25301">
        <ele>55.023868</ele>
        <time>2020-09-29T13:32:41.520Z</time>
      </trkpt>
      <trkpt lat="63.82949" lon="20.25323">
        <ele>54.303206</ele>
        <time>2020-09-29T13:32:45.509Z</time>
      </trkpt>
      <trkpt lat="63.82946" lon="20.25347">
        <ele>53.485798</ele>
        <time>2020-09-29T13:32:49.519Z</time>
      </trkpt>
      <trkpt lat="63.82944" lon="20.25368">
        <ele>52.757517</ele>
        <time>2020-09-29T13:32:54.516Z</time>
      </trkpt>
      <trkpt lat="63.8294" lon="20.25387">
        <ele>52.061509</ele>
        <time>2020-09-29T13:33:07.503Z</time>
      </trkpt>
      <trkpt lat="63.82936" lon="20.2541">
        <ele>51.241956</ele>
        <time>2020-09-29T13:33:14.503Z</time>
      </trkpt>
      <trkpt lat="63.82931" lon="20.25428">
        <ele>50.559825</ele>
        <time>2020-09-29T13:33:19.506Z</time>
      </trkpt>
      <trkpt lat="63.82926" lon="20.25446">
        <ele>49.855936</ele>
        <time>2020-09-29T13:33:25.535Z</time>
      </trkpt>
      <trkpt lat="63.82922" lon="20.25466">
        <ele>49.144356</ele>
        <time>2020-09-29T13:33:33.513Z</time>
      </trkpt>
      <trkpt lat="63.82916" lon="20.25483">
        <ele>48.429495</ele>
        <time>2020-09-29T13:33:40.500Z</time>
      </trkpt>
      <trkpt lat="63.82912" lon="20.25503">
        <ele>47.691359</ele>
        <time>2020-09-29T13:33:48.505Z</time>
      </trkpt>
      <trkpt lat="63.82912" lon="20.25525">
        <ele>46.978736</ele>
        <time>2020-09-29T13:33:55.520Z</time>
      </trkpt>
      <trkpt lat="63.82909" lon="20.25546">
        <ele>46.38542</ele>
        <time>2020-09-29T13:34:03.502Z</time>
      </trkpt>
      <trkpt lat="63.82902" lon="20.25562">
        <ele>46.38542</ele>
        <time>2020-09-29T13:34:10.519Z</time>
      </trkpt>
      <trkpt lat="63.82898" lon="20.25581">
        <ele>46.38542</ele>
        <time>2020-09-29T13:34:18.530Z</time>
      </trkpt>
      <trkpt lat="63.82897" lon="20.25602">
        <ele>46.38542</ele>
        <time>2020-09-29T13:34:26.516Z</time>
      </trkpt>
      <trkpt lat="63.82898" lon="20.25624">
        <ele>46.38542</ele>
        <time>2020-09-29T13:34:34.530Z</time>
      </trkpt>
      <trkpt lat="63.82899" lon="20.25647">
        <ele>46.38542</ele>
        <time>2020-09-29T13:34:41.502Z</time>
      </trkpt>
      <trkpt lat="63.82898" lon="20.2567">
        <ele>46.38542</ele>
        <time>2020-09-29T13:34:47.499Z</time>
      </trkpt>
      <trkpt lat="63.82894" lon="20.2569">
        <ele>46.38542</ele>
        <time>2020-09-29T13:34:54.515Z</time>
      </trkpt>
      <trkpt lat="63.82885" lon="20.25688">
        <ele>46.38542</ele>
        <time>2020-09-29T13:35:01.505Z</time>
      </trkpt>
      <trkpt lat="63.82874" lon="20.25687">
        <ele>46.38542</ele>
        <time>2020-09-29T13:35:07.532Z</time>
      </trkpt>
      <trkpt lat="63.82865" lon="20.25685">
        <ele>46.38542</ele>
        <time>2020-09-29T13:35:12.505Z</time>
      </trkpt>
      <trkpt lat="63.82856" lon="20.25682">
        <ele>46.38542</ele>
        <time>2020-09-29T13:35:20.498Z</time>
      </trkpt>
      <trkpt lat="63.82847" lon="20.25672">
        <ele>46.38542</ele>
        <time>2020-09-29T13:35:27.497Z</time>
      </trkpt>
      <trkpt lat="63.82839" lon="20.25667">
        <ele>46.38542</ele>
        <time>2020-09-29T13:35:34.510Z</time>
      </trkpt>
      <trkpt lat="63.82831" lon="20.25656">
        <ele>46.38542</ele>
        <time>2020-09-29T13:35:48.505Z</time>
      </trkpt>
      <trkpt lat="63.82822" lon="20.25648">
        <ele>46.38542</ele>
        <time>2020-09-29T13:35:57.522Z</time>
      </trkpt>
      <trkpt lat="63.82813" lon="20.25649">
        <ele>46.38542</ele>
        <time>2020-09-29T13:36:07.510Z</time>
      </trkpt>
      <trkpt lat="63.82804" lon="20.25654">
        <ele>46.38542</ele>
        <time>2020-09-29T13:36:14.527Z</time>
      </trkpt>
      <trkpt lat="63.82795" lon="20.25663">
        <ele>46.38542</ele>
        <time>2020-09-29T13:36:21.512Z</time>
      </trkpt>
      <trkpt lat="63.82787" lon="20.25675">
        <ele>46.38542</ele>
        <time>2020-09-29T13:36:27.516Z</time>
      </trkpt>
      <trkpt lat="63.82779" lon="20.25685">
        <ele>46.38542</ele>
        <time>2020-09-29T13:36:31.536Z</time>
      </trkpt>
      <trkpt lat="63.82775" lon="20.25704">
        <ele>46.38542</ele>
        <time>2020-09-29T13:36:59.512Z</time>
      </trkpt>
      <trkpt lat="63.82772" lon="20.25729">
        <ele>46.38542</ele>
        <time>2020-09-29T13:38:50.506Z</time>
      </trkpt>
      <trkpt lat="63.82763" lon="20.25724">
        <ele>46.38542</ele>
        <time>2020-09-29T13:39:14.505Z</time>
      </trkpt>
      <trkpt lat="63.82761" lon="20.25722">
        <ele>46.38542</ele>
        <time>2020-09-29T13:39:29.467Z</time>
      </trkpt>
    </trkseg>
  </trk>
</gpx>